<?xml version='1.0' encoding='UTF-8'?><gpx version="1.1" creator="JPX - https://github.com/jenetics/jpx" xmlns="http://www.topografix.com/GPX/1/1"><trk><trkseg><trkpt lat="43.3788602" lon="13.2525509"><ele>234.99999999999997</ele><time>2026-03-22T07:38:26.058Z</time></trkpt><trkpt lat="43.3788617" lon="13.2526683"><ele>235.0</ele><time>2026-03-22T07:38:37.991Z</time></trkpt><trkpt lat="43.378855" lon="13.2527617"><ele>235.0</ele><time>2026-03-22T07:38:44.988Z</time></trkpt><trkpt lat="43.3787867" lon="13.2527667"><ele>235.0</ele><time>2026-03-22T07:39:00.992Z</time></trkpt><trkpt lat="43.3787167" lon="13.2527483"><ele>234.99999999999997</ele><time>2026-03-22T07:39:02.993Z</time></trkpt><trkpt lat="43.3786683" lon="13.25285"><ele>235.0</ele><time>2026-03-22T07:39:05.993Z</time></trkpt><trkpt lat="43.378665" lon="13.252975"><ele>237.4</ele><time>2026-03-22T07:39:07.992Z</time></trkpt><trkpt lat="43.3786533" lon="13.2531033"><ele>239.8</ele><time>2026-03-22T07:39:09.992Z</time></trkpt><trkpt lat="43.3786233" lon="13.2532183"><ele>242.2</ele><time>2026-03-22T07:39:11.993Z</time></trkpt><trkpt lat="43.3785717" lon="13.2533367"><ele>244.6</ele><time>2026-03-22T07:39:13.99Z</time></trkpt><trkpt lat="43.3784967" lon="13.2534583"><ele>247.0</ele><time>2026-03-22T07:39:15.998Z</time></trkpt><trkpt lat="43.37842" lon="13.2535817"><ele>247.0</ele><time>2026-03-22T07:39:17.993Z</time></trkpt><trkpt lat="43.3783417" lon="13.253705"><ele>247.0</ele><time>2026-03-22T07:39:19.995Z</time></trkpt><trkpt lat="43.3782683" lon="13.2538267"><ele>247.0</ele><time>2026-03-22T07:39:21.992Z</time></trkpt><trkpt lat="43.3782" lon="13.2539483"><ele>247.0</ele><time>2026-03-22T07:39:23.992Z</time></trkpt><trkpt lat="43.3781417" lon="13.2540683"><ele>246.39999999999998</ele><time>2026-03-22T07:39:25.991Z</time></trkpt><trkpt lat="43.378145" lon="13.25419"><ele>245.79999999999998</ele><time>2026-03-22T07:39:27.994Z</time></trkpt><trkpt lat="43.3782033" lon="13.25429"><ele>245.2</ele><time>2026-03-22T07:39:29.997Z</time></trkpt><trkpt lat="43.3782833" lon="13.2543783"><ele>244.6</ele><time>2026-03-22T07:39:31.995Z</time></trkpt><trkpt lat="43.3783533" lon="13.25446"><ele>244.0</ele><time>2026-03-22T07:39:33.992Z</time></trkpt><trkpt lat="43.3783917" lon="13.254565"><ele>243.99999999999997</ele><time>2026-03-22T07:39:36.992Z</time></trkpt><trkpt lat="43.3783567" lon="13.2546567"><ele>244.0</ele><time>2026-03-22T07:39:38.991Z</time></trkpt><trkpt lat="43.3782867" lon="13.2547683"><ele>244.0</ele><time>2026-03-22T07:39:40.992Z</time></trkpt><trkpt lat="43.378245" lon="13.2548333"><ele>244.0</ele><time>2026-03-22T07:39:41.993Z</time></trkpt><trkpt lat="43.3782" lon="13.2549033"><ele>243.99999999999997</ele><time>2026-03-22T07:39:42.991Z</time></trkpt><trkpt lat="43.378155" lon="13.2549767"><ele>244.0</ele><time>2026-03-22T07:39:44Z</time></trkpt><trkpt lat="43.3781083" lon="13.2550533"><ele>243.66666666666666</ele><time>2026-03-22T07:39:45.002Z</time></trkpt><trkpt lat="43.3780583" lon="13.255135"><ele>243.33333333333331</ele><time>2026-03-22T07:39:45.993Z</time></trkpt><trkpt lat="43.3780067" lon="13.255225"><ele>243.0</ele><time>2026-03-22T07:39:46.991Z</time></trkpt><trkpt lat="43.3779483" lon="13.2553283"><ele>242.66666666666669</ele><time>2026-03-22T07:39:48Z</time></trkpt><trkpt lat="43.3778933" lon="13.25543"><ele>242.33333333333334</ele><time>2026-03-22T07:39:48.996Z</time></trkpt><trkpt lat="43.3778383" lon="13.2555333"><ele>242.0</ele><time>2026-03-22T07:39:49.997Z</time></trkpt><trkpt lat="43.377785" lon="13.2556367"><ele>243.0</ele><time>2026-03-22T07:39:50.997Z</time></trkpt><trkpt lat="43.3777267" lon="13.2557467"><ele>244.0</ele><time>2026-03-22T07:39:51.989Z</time></trkpt><trkpt lat="43.37766" lon="13.2558617"><ele>245.0</ele><time>2026-03-22T07:39:52.992Z</time></trkpt><trkpt lat="43.3775933" lon="13.2559817"><ele>246.0</ele><time>2026-03-22T07:39:53.995Z</time></trkpt><trkpt lat="43.3775267" lon="13.2561033"><ele>247.0</ele><time>2026-03-22T07:39:54.997Z</time></trkpt><trkpt lat="43.3774583" lon="13.25624"><ele>247.0</ele><time>2026-03-22T07:39:55.994Z</time></trkpt><trkpt lat="43.3773917" lon="13.256375"><ele>247.0</ele><time>2026-03-22T07:39:56.996Z</time></trkpt><trkpt lat="43.3773283" lon="13.2565133"><ele>247.0</ele><time>2026-03-22T07:39:57.998Z</time></trkpt><trkpt lat="43.37727" lon="13.2566533"><ele>247.0</ele><time>2026-03-22T07:39:58.996Z</time></trkpt><trkpt lat="43.3772133" lon="13.2567917"><ele>248.5</ele><time>2026-03-22T07:39:59.994Z</time></trkpt><trkpt lat="43.3771583" lon="13.2569333"><ele>250.0</ele><time>2026-03-22T07:40:00.992Z</time></trkpt><trkpt lat="43.377105" lon="13.2570717"><ele>251.5</ele><time>2026-03-22T07:40:01.995Z</time></trkpt><trkpt lat="43.3770583" lon="13.257215"><ele>253.0</ele><time>2026-03-22T07:40:02.994Z</time></trkpt><trkpt lat="43.377015" lon="13.25736"><ele>253.0</ele><time>2026-03-22T07:40:03.997Z</time></trkpt><trkpt lat="43.376975" lon="13.2575083"><ele>253.0</ele><time>2026-03-22T07:40:04.994Z</time></trkpt><trkpt lat="43.3769383" lon="13.257655"><ele>253.0</ele><time>2026-03-22T07:40:05.993Z</time></trkpt><trkpt lat="43.3769033" lon="13.2578017"><ele>253.0</ele><time>2026-03-22T07:40:06.991Z</time></trkpt><trkpt lat="43.37687" lon="13.2579483"><ele>253.0</ele><time>2026-03-22T07:40:07.991Z</time></trkpt><trkpt lat="43.3768383" lon="13.258095"><ele>253.0</ele><time>2026-03-22T07:40:08.999Z</time></trkpt><trkpt lat="43.3768017" lon="13.2582267"><ele>253.0</ele><time>2026-03-22T07:40:09.997Z</time></trkpt><trkpt lat="43.3767383" lon="13.2583283"><ele>253.0</ele><time>2026-03-22T07:40:10.995Z</time></trkpt><trkpt lat="43.3766517" lon="13.2583817"><ele>253.0</ele><time>2026-03-22T07:40:11.993Z</time></trkpt><trkpt lat="43.3765583" lon="13.2584167"><ele>252.8</ele><time>2026-03-22T07:40:12.993Z</time></trkpt><trkpt lat="43.3764533" lon="13.2584367"><ele>252.60000000000002</ele><time>2026-03-22T07:40:13.991Z</time></trkpt><trkpt lat="43.376345" lon="13.258435"><ele>252.39999999999998</ele><time>2026-03-22T07:40:14.997Z</time></trkpt><trkpt lat="43.3762433" lon="13.2583983"><ele>252.2</ele><time>2026-03-22T07:40:15.994Z</time></trkpt><trkpt lat="43.3761567" lon="13.2583217"><ele>252.0</ele><time>2026-03-22T07:40:16.993Z</time></trkpt><trkpt lat="43.376075" lon="13.25822"><ele>251.75</ele><time>2026-03-22T07:40:17.993Z</time></trkpt><trkpt lat="43.3759883" lon="13.25812"><ele>251.5</ele><time>2026-03-22T07:40:18.994Z</time></trkpt><trkpt lat="43.3758867" lon="13.258045"><ele>251.25</ele><time>2026-03-22T07:40:19.996Z</time></trkpt><trkpt lat="43.37578" lon="13.2579933"><ele>251.0</ele><time>2026-03-22T07:40:20.993Z</time></trkpt><trkpt lat="43.375665" lon="13.2579633"><ele>251.5</ele><time>2026-03-22T07:40:21.992Z</time></trkpt><trkpt lat="43.3755517" lon="13.2579867"><ele>252.0</ele><time>2026-03-22T07:40:22.994Z</time></trkpt><trkpt lat="43.3754383" lon="13.2580467"><ele>252.5</ele><time>2026-03-22T07:40:23.993Z</time></trkpt><trkpt lat="43.3753333" lon="13.2581467"><ele>253.0</ele><time>2026-03-22T07:40:24.995Z</time></trkpt><trkpt lat="43.3752267" lon="13.25825"><ele>251.0</ele><time>2026-03-22T07:40:25.996Z</time></trkpt><trkpt lat="43.3751283" lon="13.25837"><ele>249.0</ele><time>2026-03-22T07:40:26.992Z</time></trkpt><trkpt lat="43.3750283" lon="13.2584733"><ele>247.0</ele><time>2026-03-22T07:40:27.994Z</time></trkpt><trkpt lat="43.3749233" lon="13.2585567"><ele>245.0</ele><time>2026-03-22T07:40:28.995Z</time></trkpt><trkpt lat="43.37481" lon="13.2586167"><ele>245.0</ele><time>2026-03-22T07:40:30.001Z</time></trkpt><trkpt lat="43.3746983" lon="13.25864"><ele>245.0</ele><time>2026-03-22T07:40:30.997Z</time></trkpt><trkpt lat="43.3745867" lon="13.2586283"><ele>245.0</ele><time>2026-03-22T07:40:31.996Z</time></trkpt><trkpt lat="43.3744717" lon="13.25858"><ele>245.0</ele><time>2026-03-22T07:40:32.994Z</time></trkpt><trkpt lat="43.374355" lon="13.2585317"><ele>243.0</ele><time>2026-03-22T07:40:33.993Z</time></trkpt><trkpt lat="43.3742283" lon="13.2584783"><ele>241.0</ele><time>2026-03-22T07:40:34.995Z</time></trkpt><trkpt lat="43.3740967" lon="13.25842"><ele>239.0</ele><time>2026-03-22T07:40:35.996Z</time></trkpt><trkpt lat="43.3739633" lon="13.25836"><ele>237.0</ele><time>2026-03-22T07:40:36.993Z</time></trkpt><trkpt lat="43.3738317" lon="13.25829"><ele>235.5</ele><time>2026-03-22T07:40:37.991Z</time></trkpt><trkpt lat="43.373705" lon="13.2582067"><ele>234.0</ele><time>2026-03-22T07:40:38.997Z</time></trkpt><trkpt lat="43.373595" lon="13.258075"><ele>232.5</ele><time>2026-03-22T07:40:39.997Z</time></trkpt><trkpt lat="43.373505" lon="13.257915"><ele>231.0</ele><time>2026-03-22T07:40:40.99Z</time></trkpt><trkpt lat="43.3734217" lon="13.2577467"><ele>231.0</ele><time>2026-03-22T07:40:41.991Z</time></trkpt><trkpt lat="43.3733467" lon="13.25758"><ele>231.0</ele><time>2026-03-22T07:40:42.992Z</time></trkpt><trkpt lat="43.37327" lon="13.2574133"><ele>231.0</ele><time>2026-03-22T07:40:43.992Z</time></trkpt><trkpt lat="43.3731867" lon="13.257245"><ele>231.0</ele><time>2026-03-22T07:40:44.999Z</time></trkpt><trkpt lat="43.3731033" lon="13.25708"><ele>231.25</ele><time>2026-03-22T07:40:45.99Z</time></trkpt><trkpt lat="43.3730267" lon="13.2569283"><ele>231.5</ele><time>2026-03-22T07:40:46.993Z</time></trkpt><trkpt lat="43.3729467" lon="13.2567983"><ele>231.75</ele><time>2026-03-22T07:40:47.995Z</time></trkpt><trkpt lat="43.3728567" lon="13.256715"><ele>232.0</ele><time>2026-03-22T07:40:48.994Z</time></trkpt><trkpt lat="43.3727517" lon="13.2566833"><ele>232.0</ele><time>2026-03-22T07:40:49.994Z</time></trkpt><trkpt lat="43.3726433" lon="13.256715"><ele>232.0</ele><time>2026-03-22T07:40:50.993Z</time></trkpt><trkpt lat="43.3725467" lon="13.256795"><ele>232.0</ele><time>2026-03-22T07:40:51.994Z</time></trkpt><trkpt lat="43.3724633" lon="13.2569217"><ele>232.0</ele><time>2026-03-22T07:40:52.994Z</time></trkpt><trkpt lat="43.37239" lon="13.2570883"><ele>232.0</ele><time>2026-03-22T07:40:53.99Z</time></trkpt><trkpt lat="43.372305" lon="13.2572683"><ele>232.0</ele><time>2026-03-22T07:40:54.994Z</time></trkpt><trkpt lat="43.372205" lon="13.2574367"><ele>232.0</ele><time>2026-03-22T07:40:56Z</time></trkpt><trkpt lat="43.3720817" lon="13.2575917"><ele>232.33333333333331</ele><time>2026-03-22T07:40:56.993Z</time></trkpt><trkpt lat="43.3719383" lon="13.2577383"><ele>232.66666666666669</ele><time>2026-03-22T07:40:57.999Z</time></trkpt><trkpt lat="43.3717817" lon="13.2578867"><ele>233.0</ele><time>2026-03-22T07:40:58.997Z</time></trkpt><trkpt lat="43.3716267" lon="13.2580383"><ele>231.33333333333334</ele><time>2026-03-22T07:40:59.996Z</time></trkpt><trkpt lat="43.371475" lon="13.2581967"><ele>229.66666666666669</ele><time>2026-03-22T07:41:00.994Z</time></trkpt><trkpt lat="43.37133" lon="13.2583683"><ele>228.0</ele><time>2026-03-22T07:41:01.989Z</time></trkpt><trkpt lat="43.3711967" lon="13.2585433"><ele>228.0</ele><time>2026-03-22T07:41:02.995Z</time></trkpt><trkpt lat="43.3710733" lon="13.2587217"><ele>228.0</ele><time>2026-03-22T07:41:03.992Z</time></trkpt><trkpt lat="43.3709633" lon="13.25891"><ele>228.0</ele><time>2026-03-22T07:41:04.994Z</time></trkpt><trkpt lat="43.37087" lon="13.259115"><ele>226.66666666666669</ele><time>2026-03-22T07:41:05.993Z</time></trkpt><trkpt lat="43.3707883" lon="13.2593383"><ele>225.33333333333334</ele><time>2026-03-22T07:41:06.993Z</time></trkpt><trkpt lat="43.3707117" lon="13.2595683"><ele>224.0</ele><time>2026-03-22T07:41:07.994Z</time></trkpt><trkpt lat="43.3706417" lon="13.2598067"><ele>223.0</ele><time>2026-03-22T07:41:08.996Z</time></trkpt><trkpt lat="43.37058" lon="13.2600517"><ele>222.0</ele><time>2026-03-22T07:41:09.995Z</time></trkpt><trkpt lat="43.3705267" lon="13.2602867"><ele>221.0</ele><time>2026-03-22T07:41:10.993Z</time></trkpt><trkpt lat="43.3704767" lon="13.2605167"><ele>220.33333333333334</ele><time>2026-03-22T07:41:11.998Z</time></trkpt><trkpt lat="43.370425" lon="13.2607433"><ele>219.66666666666669</ele><time>2026-03-22T07:41:12.994Z</time></trkpt><trkpt lat="43.3703817" lon="13.26097"><ele>219.0</ele><time>2026-03-22T07:41:13.991Z</time></trkpt><trkpt lat="43.370355" lon="13.2611967"><ele>219.0</ele><time>2026-03-22T07:41:14.998Z</time></trkpt><trkpt lat="43.3703633" lon="13.26143"><ele>219.0</ele><time>2026-03-22T07:41:15.992Z</time></trkpt><trkpt lat="43.3704" lon="13.26166"><ele>219.0</ele><time>2026-03-22T07:41:16.991Z</time></trkpt><trkpt lat="43.3704617" lon="13.2618833"><ele>215.33333333333331</ele><time>2026-03-22T07:41:17.995Z</time></trkpt><trkpt lat="43.3705383" lon="13.2621067"><ele>211.66666666666666</ele><time>2026-03-22T07:41:18.993Z</time></trkpt><trkpt lat="43.3706417" lon="13.2623217"><ele>208.0</ele><time>2026-03-22T07:41:19.995Z</time></trkpt><trkpt lat="43.3707667" lon="13.262505"><ele>208.0</ele><time>2026-03-22T07:41:21.003Z</time></trkpt><trkpt lat="43.3709117" lon="13.2626583"><ele>208.0</ele><time>2026-03-22T07:41:21.991Z</time></trkpt><trkpt lat="43.37107" lon="13.2627883"><ele>208.0</ele><time>2026-03-22T07:41:22.996Z</time></trkpt><trkpt lat="43.3712333" lon="13.26292"><ele>209.66666666666666</ele><time>2026-03-22T07:41:23.994Z</time></trkpt><trkpt lat="43.3714017" lon="13.2630533"><ele>211.33333333333331</ele><time>2026-03-22T07:41:24.998Z</time></trkpt><trkpt lat="43.3715717" lon="13.26319"><ele>213.0</ele><time>2026-03-22T07:41:25.993Z</time></trkpt><trkpt lat="43.3717317" lon="13.2633183"><ele>213.0</ele><time>2026-03-22T07:41:26.998Z</time></trkpt><trkpt lat="43.3718817" lon="13.263445"><ele>213.0</ele><time>2026-03-22T07:41:27.989Z</time></trkpt><trkpt lat="43.3720183" lon="13.2635667"><ele>213.0</ele><time>2026-03-22T07:41:28.995Z</time></trkpt><trkpt lat="43.3721433" lon="13.2636867"><ele>213.25</ele><time>2026-03-22T07:41:29.994Z</time></trkpt><trkpt lat="43.3722467" lon="13.2638117"><ele>213.5</ele><time>2026-03-22T07:41:30.992Z</time></trkpt><trkpt lat="43.37232" lon="13.2639467"><ele>213.75</ele><time>2026-03-22T07:41:31.993Z</time></trkpt><trkpt lat="43.3723483" lon="13.2640883"><ele>214.0</ele><time>2026-03-22T07:41:32.994Z</time></trkpt><trkpt lat="43.3723267" lon="13.2642267"><ele>214.0</ele><time>2026-03-22T07:41:33.997Z</time></trkpt><trkpt lat="43.3722667" lon="13.2643433"><ele>214.0</ele><time>2026-03-22T07:41:34.999Z</time></trkpt><trkpt lat="43.3721817" lon="13.2644517"><ele>214.0</ele><time>2026-03-22T07:41:35.992Z</time></trkpt><trkpt lat="43.372075" lon="13.2645567"><ele>214.0</ele><time>2026-03-22T07:41:36.988Z</time></trkpt><trkpt lat="43.3719417" lon="13.264665"><ele>216.33333333333331</ele><time>2026-03-22T07:41:37.994Z</time></trkpt><trkpt lat="43.3717983" lon="13.264765"><ele>218.66666666666669</ele><time>2026-03-22T07:41:38.997Z</time></trkpt><trkpt lat="43.371645" lon="13.26487"><ele>221.0</ele><time>2026-03-22T07:41:39.993Z</time></trkpt><trkpt lat="43.37149" lon="13.2649733"><ele>223.33333333333334</ele><time>2026-03-22T07:41:40.991Z</time></trkpt><trkpt lat="43.3713383" lon="13.2650767"><ele>225.66666666666669</ele><time>2026-03-22T07:41:41.995Z</time></trkpt><trkpt lat="43.3711833" lon="13.2651833"><ele>228.0</ele><time>2026-03-22T07:41:42.99Z</time></trkpt><trkpt lat="43.3710217" lon="13.2652933"><ele>228.0</ele><time>2026-03-22T07:41:43.993Z</time></trkpt><trkpt lat="43.3708567" lon="13.2654083"><ele>228.0</ele><time>2026-03-22T07:41:44.992Z</time></trkpt><trkpt lat="43.3706833" lon="13.2655267"><ele>228.0</ele><time>2026-03-22T07:41:46.007Z</time></trkpt><trkpt lat="43.3705133" lon="13.265645"><ele>228.66666666666669</ele><time>2026-03-22T07:41:46.997Z</time></trkpt><trkpt lat="43.3703383" lon="13.2657567"><ele>229.33333333333334</ele><time>2026-03-22T07:41:47.998Z</time></trkpt><trkpt lat="43.3701467" lon="13.2658483"><ele>230.0</ele><time>2026-03-22T07:41:48.995Z</time></trkpt><trkpt lat="43.3699417" lon="13.2659"><ele>230.0</ele><time>2026-03-22T07:41:49.996Z</time></trkpt><trkpt lat="43.36973" lon="13.2659167"><ele>230.0</ele><time>2026-03-22T07:41:50.999Z</time></trkpt><trkpt lat="43.36952" lon="13.2659133"><ele>230.0</ele><time>2026-03-22T07:41:51.993Z</time></trkpt><trkpt lat="43.36931" lon="13.2658983"><ele>231.33333333333334</ele><time>2026-03-22T07:41:52.994Z</time></trkpt><trkpt lat="43.3691" lon="13.26588"><ele>232.66666666666669</ele><time>2026-03-22T07:41:53.994Z</time></trkpt><trkpt lat="43.36889" lon="13.2658667"><ele>234.0</ele><time>2026-03-22T07:41:54.998Z</time></trkpt><trkpt lat="43.3686817" lon="13.2658533"><ele>234.33333333333331</ele><time>2026-03-22T07:41:55.994Z</time></trkpt><trkpt lat="43.3684767" lon="13.2658417"><ele>234.66666666666666</ele><time>2026-03-22T07:41:56.995Z</time></trkpt><trkpt lat="43.3682717" lon="13.265835"><ele>235.0</ele><time>2026-03-22T07:41:57.99Z</time></trkpt><trkpt lat="43.368065" lon="13.2658233"><ele>236.33333333333331</ele><time>2026-03-22T07:41:58.994Z</time></trkpt><trkpt lat="43.3678617" lon="13.26581"><ele>237.66666666666669</ele><time>2026-03-22T07:41:59.992Z</time></trkpt><trkpt lat="43.367655" lon="13.2657983"><ele>239.0</ele><time>2026-03-22T07:42:00.991Z</time></trkpt><trkpt lat="43.36745" lon="13.26579"><ele>239.0</ele><time>2026-03-22T07:42:01.991Z</time></trkpt><trkpt lat="43.3672417" lon="13.265795"><ele>239.0</ele><time>2026-03-22T07:42:02.991Z</time></trkpt><trkpt lat="43.3670333" lon="13.26582"><ele>239.0</ele><time>2026-03-22T07:42:03.992Z</time></trkpt><trkpt lat="43.3668333" lon="13.2658767"><ele>240.0</ele><time>2026-03-22T07:42:04.993Z</time></trkpt><trkpt lat="43.366635" lon="13.2659533"><ele>241.0</ele><time>2026-03-22T07:42:05.991Z</time></trkpt><trkpt lat="43.3664383" lon="13.26603"><ele>242.0</ele><time>2026-03-22T07:42:06.991Z</time></trkpt><trkpt lat="43.36624" lon="13.2661083"><ele>242.0</ele><time>2026-03-22T07:42:07.993Z</time></trkpt><trkpt lat="43.3660383" lon="13.2661783"><ele>242.0</ele><time>2026-03-22T07:42:08.998Z</time></trkpt><trkpt lat="43.3658417" lon="13.266255"><ele>242.0</ele><time>2026-03-22T07:42:09.993Z</time></trkpt><trkpt lat="43.3656467" lon="13.2663433"><ele>242.0</ele><time>2026-03-22T07:42:10.99Z</time></trkpt><trkpt lat="43.3654567" lon="13.2664383"><ele>242.0</ele><time>2026-03-22T07:42:11.995Z</time></trkpt><trkpt lat="43.36527" lon="13.266545"><ele>242.0</ele><time>2026-03-22T07:42:12.995Z</time></trkpt><trkpt lat="43.3650883" lon="13.2666617"><ele>246.33333333333334</ele><time>2026-03-22T07:42:13.996Z</time></trkpt><trkpt lat="43.3649017" lon="13.2667617"><ele>250.66666666666669</ele><time>2026-03-22T07:42:14.996Z</time></trkpt><trkpt lat="43.3647083" lon="13.2668383"><ele>255.0</ele><time>2026-03-22T07:42:15.99Z</time></trkpt><trkpt lat="43.3645133" lon="13.2668933"><ele>255.66666666666669</ele><time>2026-03-22T07:42:16.99Z</time></trkpt><trkpt lat="43.364315" lon="13.2669183"><ele>256.33333333333337</ele><time>2026-03-22T07:42:17.994Z</time></trkpt><trkpt lat="43.3641183" lon="13.2669333"><ele>257.0</ele><time>2026-03-22T07:42:18.993Z</time></trkpt><trkpt lat="43.3639183" lon="13.2669667"><ele>258.0</ele><time>2026-03-22T07:42:19.996Z</time></trkpt><trkpt lat="43.3637283" lon="13.2670167"><ele>259.0</ele><time>2026-03-22T07:42:20.995Z</time></trkpt><trkpt lat="43.3635417" lon="13.2670983"><ele>260.0</ele><time>2026-03-22T07:42:21.99Z</time></trkpt><trkpt lat="43.3633617" lon="13.2672067"><ele>263.0</ele><time>2026-03-22T07:42:22.995Z</time></trkpt><trkpt lat="43.3631883" lon="13.2673367"><ele>266.0</ele><time>2026-03-22T07:42:23.99Z</time></trkpt><trkpt lat="43.3630217" lon="13.2674833"><ele>269.0</ele><time>2026-03-22T07:42:24.995Z</time></trkpt><trkpt lat="43.3628633" lon="13.2676433"><ele>269.33333333333337</ele><time>2026-03-22T07:42:25.994Z</time></trkpt><trkpt lat="43.3627117" lon="13.2678183"><ele>269.6666666666667</ele><time>2026-03-22T07:42:26.996Z</time></trkpt><trkpt lat="43.3625683" lon="13.2680083"><ele>270.0</ele><time>2026-03-22T07:42:27.992Z</time></trkpt><trkpt lat="43.3624267" lon="13.26821"><ele>271.3333333333333</ele><time>2026-03-22T07:42:28.993Z</time></trkpt><trkpt lat="43.3622867" lon="13.268415"><ele>272.66666666666663</ele><time>2026-03-22T07:42:29.993Z</time></trkpt><trkpt lat="43.36214" lon="13.2686217"><ele>274.0</ele><time>2026-03-22T07:42:30.993Z</time></trkpt><trkpt lat="43.3619933" lon="13.26883"><ele>277.0</ele><time>2026-03-22T07:42:31.996Z</time></trkpt><trkpt lat="43.3618483" lon="13.2690367"><ele>280.0</ele><time>2026-03-22T07:42:32.998Z</time></trkpt><trkpt lat="43.3617067" lon="13.269245"><ele>283.0</ele><time>2026-03-22T07:42:33.995Z</time></trkpt><trkpt lat="43.3615633" lon="13.269455"><ele>283.0</ele><time>2026-03-22T07:42:34.994Z</time></trkpt><trkpt lat="43.36142" lon="13.26966"><ele>283.0</ele><time>2026-03-22T07:42:35.997Z</time></trkpt><trkpt lat="43.3612733" lon="13.269865"><ele>283.0</ele><time>2026-03-22T07:42:36.993Z</time></trkpt><trkpt lat="43.36113" lon="13.27007"><ele>284.3333333333333</ele><time>2026-03-22T07:42:38.003Z</time></trkpt><trkpt lat="43.3609867" lon="13.2702767"><ele>285.6666666666667</ele><time>2026-03-22T07:42:38.999Z</time></trkpt><trkpt lat="43.3608433" lon="13.2704867"><ele>287.0</ele><time>2026-03-22T07:42:39.995Z</time></trkpt><trkpt lat="43.3606967" lon="13.2706967"><ele>287.0</ele><time>2026-03-22T07:42:40.988Z</time></trkpt><trkpt lat="43.3605567" lon="13.2709067"><ele>287.0</ele><time>2026-03-22T07:42:41.994Z</time></trkpt><trkpt lat="43.360415" lon="13.271115"><ele>287.0</ele><time>2026-03-22T07:42:42.995Z</time></trkpt><trkpt lat="43.3602717" lon="13.2713167"><ele>291.0</ele><time>2026-03-22T07:42:44Z</time></trkpt><trkpt lat="43.3601283" lon="13.2715167"><ele>295.0</ele><time>2026-03-22T07:42:44.993Z</time></trkpt><trkpt lat="43.3599817" lon="13.271715"><ele>299.0</ele><time>2026-03-22T07:42:45.993Z</time></trkpt><trkpt lat="43.35983" lon="13.2718983"><ele>299.0</ele><time>2026-03-22T07:42:46.992Z</time></trkpt><trkpt lat="43.359665" lon="13.272045"><ele>299.0</ele><time>2026-03-22T07:42:47.995Z</time></trkpt><trkpt lat="43.3594883" lon="13.2721433"><ele>299.0</ele><time>2026-03-22T07:42:48.995Z</time></trkpt><trkpt lat="43.3593033" lon="13.2721833"><ele>299.0</ele><time>2026-03-22T07:42:49.993Z</time></trkpt><trkpt lat="43.3591117" lon="13.2721783"><ele>299.0</ele><time>2026-03-22T07:42:50.997Z</time></trkpt><trkpt lat="43.3589233" lon="13.2721317"><ele>299.0</ele><time>2026-03-22T07:42:51.995Z</time></trkpt><trkpt lat="43.358735" lon="13.2720367"><ele>299.0</ele><time>2026-03-22T07:42:52.999Z</time></trkpt><trkpt lat="43.358555" lon="13.271925"><ele>299.0</ele><time>2026-03-22T07:42:53.995Z</time></trkpt><trkpt lat="43.3583733" lon="13.2718033"><ele>299.0</ele><time>2026-03-22T07:42:54.993Z</time></trkpt><trkpt lat="43.3581867" lon="13.271685"><ele>300.0</ele><time>2026-03-22T07:42:55.996Z</time></trkpt><trkpt lat="43.358" lon="13.271565"><ele>301.0</ele><time>2026-03-22T07:42:56.999Z</time></trkpt><trkpt lat="43.3578167" lon="13.2714333"><ele>302.0</ele><time>2026-03-22T07:42:57.991Z</time></trkpt><trkpt lat="43.3576333" lon="13.2712967"><ele>302.0</ele><time>2026-03-22T07:42:58.994Z</time></trkpt><trkpt lat="43.3574467" lon="13.271165"><ele>302.0</ele><time>2026-03-22T07:42:59.996Z</time></trkpt><trkpt lat="43.3572567" lon="13.2710367"><ele>302.0</ele><time>2026-03-22T07:43:00.992Z</time></trkpt><trkpt lat="43.3570667" lon="13.2709083"><ele>303.0</ele><time>2026-03-22T07:43:01.995Z</time></trkpt><trkpt lat="43.3568783" lon="13.2707783"><ele>304.0</ele><time>2026-03-22T07:43:02.998Z</time></trkpt><trkpt lat="43.35669" lon="13.2706433"><ele>305.0</ele><time>2026-03-22T07:43:03.995Z</time></trkpt><trkpt lat="43.3564983" lon="13.2705117"><ele>306.0</ele><time>2026-03-22T07:43:04.996Z</time></trkpt><trkpt lat="43.3563067" lon="13.27038"><ele>307.0</ele><time>2026-03-22T07:43:05.997Z</time></trkpt><trkpt lat="43.3561133" lon="13.2702517"><ele>308.0</ele><time>2026-03-22T07:43:06.998Z</time></trkpt><trkpt lat="43.355925" lon="13.2701267"><ele>308.0</ele><time>2026-03-22T07:43:07.998Z</time></trkpt><trkpt lat="43.355735" lon="13.2700017"><ele>308.0</ele><time>2026-03-22T07:43:08.999Z</time></trkpt><trkpt lat="43.3555433" lon="13.2698717"><ele>308.0</ele><time>2026-03-22T07:43:09.993Z</time></trkpt><trkpt lat="43.3553483" lon="13.26974"><ele>309.33333333333337</ele><time>2026-03-22T07:43:10.994Z</time></trkpt><trkpt lat="43.3551533" lon="13.2696067"><ele>310.6666666666667</ele><time>2026-03-22T07:43:11.994Z</time></trkpt><trkpt lat="43.3549617" lon="13.26947"><ele>312.0</ele><time>2026-03-22T07:43:12.995Z</time></trkpt><trkpt lat="43.3547717" lon="13.2693367"><ele>312.0</ele><time>2026-03-22T07:43:13.995Z</time></trkpt><trkpt lat="43.35458" lon="13.2692017"><ele>312.0</ele><time>2026-03-22T07:43:14.997Z</time></trkpt><trkpt lat="43.3543867" lon="13.26907"><ele>312.0</ele><time>2026-03-22T07:43:15.994Z</time></trkpt><trkpt lat="43.354195" lon="13.2689383"><ele>312.6666666666667</ele><time>2026-03-22T07:43:16.995Z</time></trkpt><trkpt lat="43.354" lon="13.2688067"><ele>313.33333333333337</ele><time>2026-03-22T07:43:17.998Z</time></trkpt><trkpt lat="43.3538083" lon="13.2686733"><ele>314.0</ele><time>2026-03-22T07:43:18.994Z</time></trkpt><trkpt lat="43.3536167" lon="13.2685367"><ele>314.33333333333337</ele><time>2026-03-22T07:43:20Z</time></trkpt><trkpt lat="43.3534217" lon="13.2684017"><ele>314.6666666666667</ele><time>2026-03-22T07:43:20.999Z</time></trkpt><trkpt lat="43.3532283" lon="13.2682667"><ele>315.0</ele><time>2026-03-22T07:43:21.99Z</time></trkpt><trkpt lat="43.3530333" lon="13.2681317"><ele>315.6666666666667</ele><time>2026-03-22T07:43:22.993Z</time></trkpt><trkpt lat="43.3528417" lon="13.2679967"><ele>316.33333333333337</ele><time>2026-03-22T07:43:23.992Z</time></trkpt><trkpt lat="43.3526483" lon="13.2678633"><ele>317.0</ele><time>2026-03-22T07:43:24.992Z</time></trkpt><trkpt lat="43.352455" lon="13.2677283"><ele>317.0</ele><time>2026-03-22T07:43:25.996Z</time></trkpt><trkpt lat="43.352265" lon="13.267595"><ele>317.0</ele><time>2026-03-22T07:43:26.998Z</time></trkpt><trkpt lat="43.3520833" lon="13.267475"><ele>317.0</ele><time>2026-03-22T07:43:27.992Z</time></trkpt><trkpt lat="43.3519067" lon="13.267375"><ele>317.0</ele><time>2026-03-22T07:43:28.994Z</time></trkpt><trkpt lat="43.3517233" lon="13.2673233"><ele>317.0</ele><time>2026-03-22T07:43:29.996Z</time></trkpt><trkpt lat="43.3515367" lon="13.267335"><ele>317.0</ele><time>2026-03-22T07:43:30.992Z</time></trkpt><trkpt lat="43.3513533" lon="13.2674017"><ele>317.0</ele><time>2026-03-22T07:43:31.993Z</time></trkpt><trkpt lat="43.3511683" lon="13.2674883"><ele>317.0</ele><time>2026-03-22T07:43:32.994Z</time></trkpt><trkpt lat="43.3509833" lon="13.2675683"><ele>317.0</ele><time>2026-03-22T07:43:33.991Z</time></trkpt><trkpt lat="43.3508" lon="13.26764"><ele>317.0</ele><time>2026-03-22T07:43:34.995Z</time></trkpt><trkpt lat="43.3506267" lon="13.26771"><ele>317.0</ele><time>2026-03-22T07:43:35.994Z</time></trkpt><trkpt lat="43.3504583" lon="13.2677833"><ele>317.0</ele><time>2026-03-22T07:43:36.994Z</time></trkpt><trkpt lat="43.35029" lon="13.267855"><ele>316.33333333333337</ele><time>2026-03-22T07:43:37.994Z</time></trkpt><trkpt lat="43.350125" lon="13.2679267"><ele>315.6666666666667</ele><time>2026-03-22T07:43:38.996Z</time></trkpt><trkpt lat="43.34997" lon="13.268"><ele>315.0</ele><time>2026-03-22T07:43:39.994Z</time></trkpt><trkpt lat="43.3498233" lon="13.2680617"><ele>313.75</ele><time>2026-03-22T07:43:41.002Z</time></trkpt><trkpt lat="43.349685" lon="13.2681133"><ele>312.5</ele><time>2026-03-22T07:43:41.994Z</time></trkpt><trkpt lat="43.3495533" lon="13.2681567"><ele>311.25</ele><time>2026-03-22T07:43:42.994Z</time></trkpt><trkpt lat="43.3494267" lon="13.2681833"><ele>310.0</ele><time>2026-03-22T07:43:44Z</time></trkpt><trkpt lat="43.3493083" lon="13.2682017"><ele>310.0</ele><time>2026-03-22T07:43:44.999Z</time></trkpt><trkpt lat="43.3491933" lon="13.2682117"><ele>310.0</ele><time>2026-03-22T07:43:45.999Z</time></trkpt><trkpt lat="43.3490783" lon="13.26822"><ele>310.0</ele><time>2026-03-22T07:43:46.991Z</time></trkpt><trkpt lat="43.3489667" lon="13.2682217"><ele>310.0</ele><time>2026-03-22T07:43:47.997Z</time></trkpt><trkpt lat="43.3488617" lon="13.268225"><ele>310.0</ele><time>2026-03-22T07:43:48.989Z</time></trkpt><trkpt lat="43.34876" lon="13.268235"><ele>310.8</ele><time>2026-03-22T07:43:49.993Z</time></trkpt><trkpt lat="43.3486633" lon="13.2682683"><ele>311.6</ele><time>2026-03-22T07:43:50.997Z</time></trkpt><trkpt lat="43.3485767" lon="13.2683333"><ele>312.4</ele><time>2026-03-22T07:43:51.992Z</time></trkpt><trkpt lat="43.3484983" lon="13.2684233"><ele>313.2</ele><time>2026-03-22T07:43:52.994Z</time></trkpt><trkpt lat="43.3484367" lon="13.2685233"><ele>314.0</ele><time>2026-03-22T07:43:53.994Z</time></trkpt><trkpt lat="43.348385" lon="13.2686333"><ele>314.0</ele><time>2026-03-22T07:43:54.994Z</time></trkpt><trkpt lat="43.348345" lon="13.26875"><ele>314.0</ele><time>2026-03-22T07:43:55.995Z</time></trkpt><trkpt lat="43.3483117" lon="13.26887"><ele>314.0</ele><time>2026-03-22T07:43:56.992Z</time></trkpt><trkpt lat="43.3482783" lon="13.2689933"><ele>314.0</ele><time>2026-03-22T07:43:57.991Z</time></trkpt><trkpt lat="43.34824" lon="13.26912"><ele>314.0</ele><time>2026-03-22T07:43:58.99Z</time></trkpt><trkpt lat="43.348205" lon="13.2692417"><ele>313.8</ele><time>2026-03-22T07:43:59.993Z</time></trkpt><trkpt lat="43.3481717" lon="13.269365"><ele>313.59999999999997</ele><time>2026-03-22T07:44:00.99Z</time></trkpt><trkpt lat="43.3481433" lon="13.2694983"><ele>313.4</ele><time>2026-03-22T07:44:01.992Z</time></trkpt><trkpt lat="43.3481083" lon="13.2696283"><ele>313.2</ele><time>2026-03-22T07:44:03Z</time></trkpt><trkpt lat="43.3480733" lon="13.2697583"><ele>313.0</ele><time>2026-03-22T07:44:03.993Z</time></trkpt><trkpt lat="43.34804" lon="13.2698867"><ele>313.4</ele><time>2026-03-22T07:44:04.991Z</time></trkpt><trkpt lat="43.3479983" lon="13.27001"><ele>313.8</ele><time>2026-03-22T07:44:05.997Z</time></trkpt><trkpt lat="43.3479467" lon="13.2701367"><ele>314.2</ele><time>2026-03-22T07:44:06.992Z</time></trkpt><trkpt lat="43.3478867" lon="13.270265"><ele>314.6</ele><time>2026-03-22T07:44:07.992Z</time></trkpt><trkpt lat="43.3478217" lon="13.2703883"><ele>315.0</ele><time>2026-03-22T07:44:09.001Z</time></trkpt><trkpt lat="43.3477467" lon="13.2705117"><ele>314.0</ele><time>2026-03-22T07:44:09.994Z</time></trkpt><trkpt lat="43.3476617" lon="13.270635"><ele>313.0</ele><time>2026-03-22T07:44:10.997Z</time></trkpt><trkpt lat="43.347565" lon="13.2707633"><ele>312.0</ele><time>2026-03-22T07:44:11.996Z</time></trkpt><trkpt lat="43.3474633" lon="13.2708983"><ele>311.0</ele><time>2026-03-22T07:44:12.994Z</time></trkpt><trkpt lat="43.3473567" lon="13.2710317"><ele>311.0</ele><time>2026-03-22T07:44:13.993Z</time></trkpt><trkpt lat="43.347245" lon="13.27117"><ele>311.0</ele><time>2026-03-22T07:44:14.992Z</time></trkpt><trkpt lat="43.347125" lon="13.2713083"><ele>311.0</ele><time>2026-03-22T07:44:15.991Z</time></trkpt><trkpt lat="43.3469967" lon="13.271445"><ele>311.0</ele><time>2026-03-22T07:44:16.997Z</time></trkpt><trkpt lat="43.346865" lon="13.2715867"><ele>311.0</ele><time>2026-03-22T07:44:17.993Z</time></trkpt><trkpt lat="43.3467317" lon="13.2717283"><ele>311.0</ele><time>2026-03-22T07:44:18.996Z</time></trkpt><trkpt lat="43.3466033" lon="13.2718767"><ele>311.0</ele><time>2026-03-22T07:44:19.992Z</time></trkpt><trkpt lat="43.3464733" lon="13.2720267"><ele>311.0</ele><time>2026-03-22T07:44:20.999Z</time></trkpt><trkpt lat="43.3463417" lon="13.2721833"><ele>311.0</ele><time>2026-03-22T07:44:21.993Z</time></trkpt><trkpt lat="43.34621" lon="13.2723417"><ele>311.33333333333337</ele><time>2026-03-22T07:44:22.995Z</time></trkpt><trkpt lat="43.3460767" lon="13.2725"><ele>311.6666666666667</ele><time>2026-03-22T07:44:23.997Z</time></trkpt><trkpt lat="43.3459433" lon="13.272655"><ele>312.0</ele><time>2026-03-22T07:44:24.998Z</time></trkpt><trkpt lat="43.3458117" lon="13.2728117"><ele>312.0</ele><time>2026-03-22T07:44:25.992Z</time></trkpt><trkpt lat="43.34568" lon="13.2729667"><ele>312.0</ele><time>2026-03-22T07:44:26.996Z</time></trkpt><trkpt lat="43.3455483" lon="13.2731183"><ele>312.0</ele><time>2026-03-22T07:44:27.993Z</time></trkpt><trkpt lat="43.34542" lon="13.2732717"><ele>312.0</ele><time>2026-03-22T07:44:28.993Z</time></trkpt><trkpt lat="43.345295" lon="13.2734167"><ele>312.0</ele><time>2026-03-22T07:44:29.99Z</time></trkpt><trkpt lat="43.3451717" lon="13.2735633"><ele>312.0</ele><time>2026-03-22T07:44:30.995Z</time></trkpt><trkpt lat="43.34505" lon="13.2737117"><ele>312.0</ele><time>2026-03-22T07:44:31.994Z</time></trkpt><trkpt lat="43.34493" lon="13.2738533"><ele>312.0</ele><time>2026-03-22T07:44:32.996Z</time></trkpt><trkpt lat="43.3448167" lon="13.2739917"><ele>312.0</ele><time>2026-03-22T07:44:33.995Z</time></trkpt><trkpt lat="43.3447033" lon="13.27413"><ele>312.0</ele><time>2026-03-22T07:44:34.994Z</time></trkpt><trkpt lat="43.34459" lon="13.2742583"><ele>312.0</ele><time>2026-03-22T07:44:35.993Z</time></trkpt><trkpt lat="43.34448" lon="13.2743917"><ele>312.0</ele><time>2026-03-22T07:44:36.997Z</time></trkpt><trkpt lat="43.3443733" lon="13.274515"><ele>312.0</ele><time>2026-03-22T07:44:37.995Z</time></trkpt><trkpt lat="43.344275" lon="13.274635"><ele>312.0</ele><time>2026-03-22T07:44:38.996Z</time></trkpt><trkpt lat="43.3441817" lon="13.27475"><ele>312.0</ele><time>2026-03-22T07:44:39.99Z</time></trkpt><trkpt lat="43.344095" lon="13.2748517"><ele>312.0</ele><time>2026-03-22T07:44:40.991Z</time></trkpt><trkpt lat="43.3440067" lon="13.2749483"><ele>312.0</ele><time>2026-03-22T07:44:41.992Z</time></trkpt><trkpt lat="43.3439167" lon="13.27505"><ele>309.75</ele><time>2026-03-22T07:44:42.992Z</time></trkpt><trkpt lat="43.3438233" lon="13.275165"><ele>307.5</ele><time>2026-03-22T07:44:43.996Z</time></trkpt><trkpt lat="43.3437317" lon="13.2752967"><ele>305.25</ele><time>2026-03-22T07:44:44.995Z</time></trkpt><trkpt lat="43.3436433" lon="13.2754583"><ele>303.0</ele><time>2026-03-22T07:44:45.989Z</time></trkpt><trkpt lat="43.3435617" lon="13.2756517"><ele>302.3333333333333</ele><time>2026-03-22T07:44:46.991Z</time></trkpt><trkpt lat="43.343485" lon="13.2758617"><ele>301.66666666666663</ele><time>2026-03-22T07:44:47.993Z</time></trkpt><trkpt lat="43.3434167" lon="13.2760933"><ele>301.0</ele><time>2026-03-22T07:44:48.994Z</time></trkpt><trkpt lat="43.3433633" lon="13.2763417"><ele>301.66666666666663</ele><time>2026-03-22T07:44:49.992Z</time></trkpt><trkpt lat="43.3433167" lon="13.2766067"><ele>302.3333333333333</ele><time>2026-03-22T07:44:50.992Z</time></trkpt><trkpt lat="43.34328" lon="13.27688"><ele>303.0</ele><time>2026-03-22T07:44:51.992Z</time></trkpt><trkpt lat="43.3432367" lon="13.2771617"><ele>302.6666666666667</ele><time>2026-03-22T07:44:52.992Z</time></trkpt><trkpt lat="43.343195" lon="13.27745"><ele>302.33333333333337</ele><time>2026-03-22T07:44:53.994Z</time></trkpt><trkpt lat="43.3431567" lon="13.27774"><ele>302.0</ele><time>2026-03-22T07:44:54.991Z</time></trkpt><trkpt lat="43.343115" lon="13.2780283"><ele>301.6666666666667</ele><time>2026-03-22T07:44:55.994Z</time></trkpt><trkpt lat="43.34309" lon="13.27832"><ele>301.3333333333333</ele><time>2026-03-22T07:44:56.999Z</time></trkpt><trkpt lat="43.3430667" lon="13.27861"><ele>301.0</ele><time>2026-03-22T07:44:57.994Z</time></trkpt><trkpt lat="43.3430483" lon="13.2789017"><ele>295.66666666666663</ele><time>2026-03-22T07:44:58.992Z</time></trkpt><trkpt lat="43.3430133" lon="13.27919"><ele>290.3333333333333</ele><time>2026-03-22T07:44:59.993Z</time></trkpt><trkpt lat="43.3429683" lon="13.2794717"><ele>285.0</ele><time>2026-03-22T07:45:00.996Z</time></trkpt><trkpt lat="43.342915" lon="13.2797533"><ele>284.3333333333333</ele><time>2026-03-22T07:45:01.995Z</time></trkpt><trkpt lat="43.342875" lon="13.280025"><ele>283.66666666666663</ele><time>2026-03-22T07:45:02.999Z</time></trkpt><trkpt lat="43.3428433" lon="13.28029"><ele>283.0</ele><time>2026-03-22T07:45:03.992Z</time></trkpt><trkpt lat="43.3428067" lon="13.28055"><ele>282.3333333333333</ele><time>2026-03-22T07:45:04.996Z</time></trkpt><trkpt lat="43.3427717" lon="13.2808067"><ele>281.6666666666667</ele><time>2026-03-22T07:45:05.996Z</time></trkpt><trkpt lat="43.34272" lon="13.28107"><ele>281.0</ele><time>2026-03-22T07:45:06.994Z</time></trkpt><trkpt lat="43.3426683" lon="13.2813383"><ele>280.6666666666667</ele><time>2026-03-22T07:45:07.999Z</time></trkpt><trkpt lat="43.342605" lon="13.2816217"><ele>280.3333333333333</ele><time>2026-03-22T07:45:08.996Z</time></trkpt><trkpt lat="43.3425333" lon="13.2819"><ele>280.0</ele><time>2026-03-22T07:45:09.996Z</time></trkpt><trkpt lat="43.342455" lon="13.2821817"><ele>279.66666666666663</ele><time>2026-03-22T07:45:10.997Z</time></trkpt><trkpt lat="43.3423667" lon="13.282455"><ele>279.3333333333333</ele><time>2026-03-22T07:45:11.997Z</time></trkpt><trkpt lat="43.3422783" lon="13.2827383"><ele>279.0</ele><time>2026-03-22T07:45:12.993Z</time></trkpt><trkpt lat="43.34219" lon="13.283025"><ele>272.5</ele><time>2026-03-22T07:45:13.996Z</time></trkpt><trkpt lat="43.3421033" lon="13.28332"><ele>266.0</ele><time>2026-03-22T07:45:14.998Z</time></trkpt><trkpt lat="43.342015" lon="13.2836167"><ele>266.0</ele><time>2026-03-22T07:45:15.994Z</time></trkpt><trkpt lat="43.341935" lon="13.2839133"><ele>266.0</ele><time>2026-03-22T07:45:16.994Z</time></trkpt><trkpt lat="43.3418567" lon="13.2842133"><ele>266.0</ele><time>2026-03-22T07:45:17.992Z</time></trkpt><trkpt lat="43.3417817" lon="13.2845133"><ele>266.0</ele><time>2026-03-22T07:45:18.994Z</time></trkpt><trkpt lat="43.341715" lon="13.28482"><ele>266.0</ele><time>2026-03-22T07:45:19.993Z</time></trkpt><trkpt lat="43.3416483" lon="13.2851283"><ele>266.0</ele><time>2026-03-22T07:45:20.993Z</time></trkpt><trkpt lat="43.341585" lon="13.2854217"><ele>266.0</ele><time>2026-03-22T07:45:21.991Z</time></trkpt><trkpt lat="43.341525" lon="13.2857033"><ele>266.0</ele><time>2026-03-22T07:45:22.994Z</time></trkpt><trkpt lat="43.3414683" lon="13.285975"><ele>266.0</ele><time>2026-03-22T07:45:23.995Z</time></trkpt><trkpt lat="43.341415" lon="13.28623"><ele>262.6666666666667</ele><time>2026-03-22T07:45:24.991Z</time></trkpt><trkpt lat="43.3413617" lon="13.2864683"><ele>259.3333333333333</ele><time>2026-03-22T07:45:25.997Z</time></trkpt><trkpt lat="43.3413117" lon="13.2866933"><ele>256.0</ele><time>2026-03-22T07:45:26.988Z</time></trkpt><trkpt lat="43.3412633" lon="13.286905"><ele>256.0</ele><time>2026-03-22T07:45:27.992Z</time></trkpt><trkpt lat="43.3412183" lon="13.2871033"><ele>256.0</ele><time>2026-03-22T07:45:28.995Z</time></trkpt><trkpt lat="43.34118" lon="13.2872867"><ele>256.0</ele><time>2026-03-22T07:45:29.994Z</time></trkpt><trkpt lat="43.3411433" lon="13.287455"><ele>256.0</ele><time>2026-03-22T07:45:30.993Z</time></trkpt><trkpt lat="43.34111" lon="13.2876083"><ele>256.3333333333333</ele><time>2026-03-22T07:45:31.992Z</time></trkpt><trkpt lat="43.3410817" lon="13.287745"><ele>256.66666666666663</ele><time>2026-03-22T07:45:32.997Z</time></trkpt><trkpt lat="43.34106" lon="13.2878633"><ele>257.0</ele><time>2026-03-22T07:45:33.991Z</time></trkpt><trkpt lat="43.3410467" lon="13.2879617"><ele>257.3333333333333</ele><time>2026-03-22T07:45:34.993Z</time></trkpt><trkpt lat="43.341075" lon="13.2880733"><ele>257.6666666666667</ele><time>2026-03-22T07:45:36.995Z</time></trkpt><trkpt lat="43.3411417" lon="13.2881283"><ele>258.0</ele><time>2026-03-22T07:45:38.991Z</time></trkpt><trkpt lat="43.341225" lon="13.2880783"><ele>258.0</ele><time>2026-03-22T07:45:40.99Z</time></trkpt><trkpt lat="43.34129" lon="13.287965"><ele>258.0</ele><time>2026-03-22T07:45:42.992Z</time></trkpt><trkpt lat="43.3413383" lon="13.2878683"><ele>258.0</ele><time>2026-03-22T07:45:44.992Z</time></trkpt><trkpt lat="43.341365" lon="13.2877783"><ele>258.0</ele><time>2026-03-22T07:45:48.99Z</time></trkpt><trkpt lat="43.34136" lon="13.2875317"><ele>258.0</ele><time>2026-03-22T07:51:59.99Z</time></trkpt><trkpt lat="43.341425" lon="13.28756"><ele>258.0</ele><time>2026-03-22T07:52:07.993Z</time></trkpt><trkpt lat="43.3414683" lon="13.2876333"><ele>258.0</ele><time>2026-03-22T07:52:14.993Z</time></trkpt><trkpt lat="43.341505" lon="13.28756"><ele>258.0</ele><time>2026-03-22T07:52:40.999Z</time></trkpt><trkpt lat="43.34144" lon="13.2874633"><ele>258.0</ele><time>2026-03-22T07:52:42.995Z</time></trkpt><trkpt lat="43.341375" lon="13.2873817"><ele>258.0</ele><time>2026-03-22T07:52:45.003Z</time></trkpt><trkpt lat="43.341315" lon="13.2872967"><ele>258.0</ele><time>2026-03-22T07:52:46.994Z</time></trkpt><trkpt lat="43.3412983" lon="13.2871467"><ele>257.6</ele><time>2026-03-22T07:52:48.995Z</time></trkpt><trkpt lat="43.3413167" lon="13.28705"><ele>257.20000000000005</ele><time>2026-03-22T07:52:49.992Z</time></trkpt><trkpt lat="43.3413367" lon="13.2869417"><ele>256.8</ele><time>2026-03-22T07:52:50.995Z</time></trkpt><trkpt lat="43.3413617" lon="13.2868167"><ele>256.40000000000003</ele><time>2026-03-22T07:52:51.993Z</time></trkpt><trkpt lat="43.3413883" lon="13.2866817"><ele>256.0</ele><time>2026-03-22T07:52:52.985Z</time></trkpt><trkpt lat="43.3414183" lon="13.286535"><ele>258.5</ele><time>2026-03-22T07:52:53.993Z</time></trkpt><trkpt lat="43.3414483" lon="13.2863783"><ele>261.0</ele><time>2026-03-22T07:52:54.984Z</time></trkpt><trkpt lat="43.34148" lon="13.286215"><ele>263.5</ele><time>2026-03-22T07:52:55.994Z</time></trkpt><trkpt lat="43.34151" lon="13.286055"><ele>266.0</ele><time>2026-03-22T07:52:56.996Z</time></trkpt><trkpt lat="43.3415433" lon="13.28589"><ele>266.0</ele><time>2026-03-22T07:52:58.006Z</time></trkpt><trkpt lat="43.3415767" lon="13.2857233"><ele>266.0</ele><time>2026-03-22T07:52:58.989Z</time></trkpt><trkpt lat="43.3416083" lon="13.285555"><ele>266.0</ele><time>2026-03-22T07:52:59.993Z</time></trkpt><trkpt lat="43.3416417" lon="13.2853833"><ele>266.0</ele><time>2026-03-22T07:53:00.992Z</time></trkpt><trkpt lat="43.3416783" lon="13.2852"><ele>266.0</ele><time>2026-03-22T07:53:01.994Z</time></trkpt><trkpt lat="43.3417183" lon="13.2850133"><ele>266.0</ele><time>2026-03-22T07:53:02.991Z</time></trkpt><trkpt lat="43.3417617" lon="13.284825"><ele>266.0</ele><time>2026-03-22T07:53:03.998Z</time></trkpt><trkpt lat="43.3418067" lon="13.28463"><ele>266.0</ele><time>2026-03-22T07:53:04.986Z</time></trkpt><trkpt lat="43.341855" lon="13.2844217"><ele>266.0</ele><time>2026-03-22T07:53:05.993Z</time></trkpt><trkpt lat="43.3419067" lon="13.2842083"><ele>266.0</ele><time>2026-03-22T07:53:06.994Z</time></trkpt><trkpt lat="43.3419617" lon="13.2839933"><ele>266.0</ele><time>2026-03-22T07:53:07.994Z</time></trkpt><trkpt lat="43.342025" lon="13.28377"><ele>266.0</ele><time>2026-03-22T07:53:08.994Z</time></trkpt><trkpt lat="43.34209" lon="13.2835483"><ele>266.0</ele><time>2026-03-22T07:53:09.992Z</time></trkpt><trkpt lat="43.3421583" lon="13.2833233"><ele>266.0</ele><time>2026-03-22T07:53:10.994Z</time></trkpt><trkpt lat="43.3422267" lon="13.2830933"><ele>270.33333333333337</ele><time>2026-03-22T07:53:11.991Z</time></trkpt><trkpt lat="43.342295" lon="13.282855"><ele>274.6666666666667</ele><time>2026-03-22T07:53:12.994Z</time></trkpt><trkpt lat="43.342365" lon="13.282615"><ele>279.0</ele><time>2026-03-22T07:53:13.993Z</time></trkpt><trkpt lat="43.3424383" lon="13.28238"><ele>279.3333333333333</ele><time>2026-03-22T07:53:14.991Z</time></trkpt><trkpt lat="43.3425083" lon="13.2821433"><ele>279.66666666666663</ele><time>2026-03-22T07:53:15.99Z</time></trkpt><trkpt lat="43.3425783" lon="13.2819117"><ele>280.0</ele><time>2026-03-22T07:53:16.992Z</time></trkpt><trkpt lat="43.3426417" lon="13.2816783"><ele>280.0</ele><time>2026-03-22T07:53:17.994Z</time></trkpt><trkpt lat="43.3427017" lon="13.2814417"><ele>280.0</ele><time>2026-03-22T07:53:18.991Z</time></trkpt><trkpt lat="43.3427567" lon="13.2812033"><ele>280.0</ele><time>2026-03-22T07:53:19.995Z</time></trkpt><trkpt lat="43.3428033" lon="13.280965"><ele>280.3333333333333</ele><time>2026-03-22T07:53:20.995Z</time></trkpt><trkpt lat="43.3428433" lon="13.2807217"><ele>280.6666666666667</ele><time>2026-03-22T07:53:21.994Z</time></trkpt><trkpt lat="43.3428767" lon="13.280475"><ele>281.0</ele><time>2026-03-22T07:53:22.991Z</time></trkpt><trkpt lat="43.3428983" lon="13.2802267"><ele>281.6666666666667</ele><time>2026-03-22T07:53:23.993Z</time></trkpt><trkpt lat="43.3429233" lon="13.279985"><ele>282.3333333333333</ele><time>2026-03-22T07:53:24.992Z</time></trkpt><trkpt lat="43.342945" lon="13.2797533"><ele>283.0</ele><time>2026-03-22T07:53:25.992Z</time></trkpt><trkpt lat="43.34298" lon="13.279525"><ele>283.66666666666663</ele><time>2026-03-22T07:53:26.992Z</time></trkpt><trkpt lat="43.3430283" lon="13.2792767"><ele>284.3333333333333</ele><time>2026-03-22T07:53:27.991Z</time></trkpt><trkpt lat="43.3430667" lon="13.27902"><ele>285.0</ele><time>2026-03-22T07:53:28.993Z</time></trkpt><trkpt lat="43.3430867" lon="13.278755"><ele>290.3333333333333</ele><time>2026-03-22T07:53:29.991Z</time></trkpt><trkpt lat="43.3431033" lon="13.2784917"><ele>295.66666666666663</ele><time>2026-03-22T07:53:30.995Z</time></trkpt><trkpt lat="43.3431283" lon="13.2782267"><ele>301.0</ele><time>2026-03-22T07:53:31.993Z</time></trkpt><trkpt lat="43.3431617" lon="13.2779617"><ele>301.3333333333333</ele><time>2026-03-22T07:53:32.992Z</time></trkpt><trkpt lat="43.3432" lon="13.2777"><ele>301.6666666666667</ele><time>2026-03-22T07:53:33.991Z</time></trkpt><trkpt lat="43.3432383" lon="13.277435"><ele>302.0</ele><time>2026-03-22T07:53:34.992Z</time></trkpt><trkpt lat="43.34328" lon="13.2771683"><ele>302.33333333333337</ele><time>2026-03-22T07:53:35.99Z</time></trkpt><trkpt lat="43.3433217" lon="13.2769"><ele>302.6666666666667</ele><time>2026-03-22T07:53:36.993Z</time></trkpt><trkpt lat="43.343365" lon="13.2766267"><ele>303.0</ele><time>2026-03-22T07:53:37.993Z</time></trkpt><trkpt lat="43.3434117" lon="13.2763617"><ele>302.3333333333333</ele><time>2026-03-22T07:53:38.996Z</time></trkpt><trkpt lat="43.34346" lon="13.2761067"><ele>301.66666666666663</ele><time>2026-03-22T07:53:39.991Z</time></trkpt><trkpt lat="43.343525" lon="13.2758833"><ele>301.0</ele><time>2026-03-22T07:53:40.991Z</time></trkpt><trkpt lat="43.3436" lon="13.2756833"><ele>301.66666666666663</ele><time>2026-03-22T07:53:41.993Z</time></trkpt><trkpt lat="43.3436817" lon="13.2755033"><ele>302.3333333333333</ele><time>2026-03-22T07:53:42.992Z</time></trkpt><trkpt lat="43.34377" lon="13.2753333"><ele>303.0</ele><time>2026-03-22T07:53:43.991Z</time></trkpt><trkpt lat="43.3438717" lon="13.27517"><ele>305.3333333333333</ele><time>2026-03-22T07:53:44.993Z</time></trkpt><trkpt lat="43.343995" lon="13.2750133"><ele>307.66666666666663</ele><time>2026-03-22T07:53:45.991Z</time></trkpt><trkpt lat="43.3441283" lon="13.2748567"><ele>310.0</ele><time>2026-03-22T07:53:46.995Z</time></trkpt><trkpt lat="43.34427" lon="13.274695"><ele>310.66666666666663</ele><time>2026-03-22T07:53:47.993Z</time></trkpt><trkpt lat="43.3444133" lon="13.2745283"><ele>311.3333333333333</ele><time>2026-03-22T07:53:48.991Z</time></trkpt><trkpt lat="43.34456" lon="13.2743583"><ele>312.0</ele><time>2026-03-22T07:53:49.989Z</time></trkpt><trkpt lat="43.34471" lon="13.2741767"><ele>312.0</ele><time>2026-03-22T07:53:50.992Z</time></trkpt><trkpt lat="43.34486" lon="13.273995"><ele>312.0</ele><time>2026-03-22T07:53:51.992Z</time></trkpt><trkpt lat="43.3450133" lon="13.2738067"><ele>312.0</ele><time>2026-03-22T07:53:52.992Z</time></trkpt><trkpt lat="43.3451717" lon="13.2736167"><ele>312.0</ele><time>2026-03-22T07:53:53.994Z</time></trkpt><trkpt lat="43.3453317" lon="13.2734283"><ele>312.0</ele><time>2026-03-22T07:53:54.994Z</time></trkpt><trkpt lat="43.345495" lon="13.2732333"><ele>312.0</ele><time>2026-03-22T07:53:55.985Z</time></trkpt><trkpt lat="43.345655" lon="13.2730417"><ele>312.0</ele><time>2026-03-22T07:53:56.993Z</time></trkpt><trkpt lat="43.345815" lon="13.2728467"><ele>312.0</ele><time>2026-03-22T07:53:57.992Z</time></trkpt><trkpt lat="43.345975" lon="13.272655"><ele>312.0</ele><time>2026-03-22T07:53:58.989Z</time></trkpt><trkpt lat="43.34613" lon="13.2724667"><ele>312.0</ele><time>2026-03-22T07:53:59.994Z</time></trkpt><trkpt lat="43.346285" lon="13.2722783"><ele>312.0</ele><time>2026-03-22T07:54:00.992Z</time></trkpt><trkpt lat="43.34644" lon="13.27209"><ele>312.0</ele><time>2026-03-22T07:54:01.993Z</time></trkpt><trkpt lat="43.346595" lon="13.271905"><ele>312.0</ele><time>2026-03-22T07:54:02.991Z</time></trkpt><trkpt lat="43.3467517" lon="13.27172"><ele>312.0</ele><time>2026-03-22T07:54:03.992Z</time></trkpt><trkpt lat="43.3469133" lon="13.271535"><ele>312.0</ele><time>2026-03-22T07:54:04.992Z</time></trkpt><trkpt lat="43.3470717" lon="13.2713483"><ele>311.6666666666667</ele><time>2026-03-22T07:54:05.992Z</time></trkpt><trkpt lat="43.3472283" lon="13.271165"><ele>311.33333333333337</ele><time>2026-03-22T07:54:06.994Z</time></trkpt><trkpt lat="43.3473817" lon="13.2709833"><ele>311.0</ele><time>2026-03-22T07:54:07.992Z</time></trkpt><trkpt lat="43.34753" lon="13.2708067"><ele>311.0</ele><time>2026-03-22T07:54:08.992Z</time></trkpt><trkpt lat="43.3476717" lon="13.270635"><ele>311.0</ele><time>2026-03-22T07:54:09.993Z</time></trkpt><trkpt lat="43.3478033" lon="13.2704617"><ele>311.0</ele><time>2026-03-22T07:54:10.992Z</time></trkpt><trkpt lat="43.34792" lon="13.27027"><ele>311.6666666666667</ele><time>2026-03-22T07:54:11.994Z</time></trkpt><trkpt lat="43.34802" lon="13.270055"><ele>312.3333333333333</ele><time>2026-03-22T07:54:12.993Z</time></trkpt><trkpt lat="43.3481" lon="13.2698267"><ele>313.0</ele><time>2026-03-22T07:54:13.992Z</time></trkpt><trkpt lat="43.348165" lon="13.2696083"><ele>313.0</ele><time>2026-03-22T07:54:14.995Z</time></trkpt><trkpt lat="43.34822" lon="13.2693933"><ele>313.0</ele><time>2026-03-22T07:54:15.993Z</time></trkpt><trkpt lat="43.34827" lon="13.2691867"><ele>313.0</ele><time>2026-03-22T07:54:16.992Z</time></trkpt><trkpt lat="43.3483233" lon="13.2689917"><ele>313.3333333333333</ele><time>2026-03-22T07:54:17.992Z</time></trkpt><trkpt lat="43.3483817" lon="13.2687933"><ele>313.6666666666667</ele><time>2026-03-22T07:54:18.989Z</time></trkpt><trkpt lat="43.3484483" lon="13.2685983"><ele>314.0</ele><time>2026-03-22T07:54:19.995Z</time></trkpt><trkpt lat="43.34853" lon="13.2684317"><ele>314.0</ele><time>2026-03-22T07:54:20.991Z</time></trkpt><trkpt lat="43.3486317" lon="13.268305"><ele>314.0</ele><time>2026-03-22T07:54:21.993Z</time></trkpt><trkpt lat="43.3487583" lon="13.2682183"><ele>314.0</ele><time>2026-03-22T07:54:22.991Z</time></trkpt><trkpt lat="43.348905" lon="13.2681883"><ele>314.0</ele><time>2026-03-22T07:54:23.99Z</time></trkpt><trkpt lat="43.3490717" lon="13.2682"><ele>312.6666666666667</ele><time>2026-03-22T07:54:24.994Z</time></trkpt><trkpt lat="43.3492483" lon="13.26821"><ele>311.3333333333333</ele><time>2026-03-22T07:54:25.99Z</time></trkpt><trkpt lat="43.3494217" lon="13.2681967"><ele>310.0</ele><time>2026-03-22T07:54:26.993Z</time></trkpt><trkpt lat="43.3495917" lon="13.2681633"><ele>311.66666666666663</ele><time>2026-03-22T07:54:27.992Z</time></trkpt><trkpt lat="43.3497533" lon="13.2681067"><ele>313.3333333333333</ele><time>2026-03-22T07:54:28.992Z</time></trkpt><trkpt lat="43.3499133" lon="13.2680433"><ele>315.0</ele><time>2026-03-22T07:54:29.99Z</time></trkpt><trkpt lat="43.3500767" lon="13.2679767"><ele>315.0</ele><time>2026-03-22T07:54:30.99Z</time></trkpt><trkpt lat="43.3502383" lon="13.267905"><ele>315.0</ele><time>2026-03-22T07:54:31.99Z</time></trkpt><trkpt lat="43.35041" lon="13.2678333"><ele>315.0</ele><time>2026-03-22T07:54:32.993Z</time></trkpt><trkpt lat="43.3505767" lon="13.2677667"><ele>315.6666666666667</ele><time>2026-03-22T07:54:33.991Z</time></trkpt><trkpt lat="43.350745" lon="13.267695"><ele>316.33333333333337</ele><time>2026-03-22T07:54:34.99Z</time></trkpt><trkpt lat="43.350915" lon="13.2676217"><ele>317.0</ele><time>2026-03-22T07:54:35.991Z</time></trkpt><trkpt lat="43.351085" lon="13.2675517"><ele>317.0</ele><time>2026-03-22T07:54:36.993Z</time></trkpt><trkpt lat="43.3512567" lon="13.26748"><ele>317.0</ele><time>2026-03-22T07:54:37.99Z</time></trkpt><trkpt lat="43.35143" lon="13.267415"><ele>317.0</ele><time>2026-03-22T07:54:38.991Z</time></trkpt><trkpt lat="43.3515983" lon="13.2673633"><ele>317.0</ele><time>2026-03-22T07:54:39.993Z</time></trkpt><trkpt lat="43.3517633" lon="13.2673467"><ele>317.0</ele><time>2026-03-22T07:54:40.992Z</time></trkpt><trkpt lat="43.3519267" lon="13.2673933"><ele>317.0</ele><time>2026-03-22T07:54:41.993Z</time></trkpt><trkpt lat="43.3520867" lon="13.26749"><ele>317.0</ele><time>2026-03-22T07:54:42.993Z</time></trkpt><trkpt lat="43.352245" lon="13.26761"><ele>317.0</ele><time>2026-03-22T07:54:43.992Z</time></trkpt><trkpt lat="43.3524067" lon="13.2677333"><ele>317.0</ele><time>2026-03-22T07:54:44.992Z</time></trkpt><trkpt lat="43.3525767" lon="13.2678517"><ele>317.0</ele><time>2026-03-22T07:54:45.992Z</time></trkpt><trkpt lat="43.3527517" lon="13.2679683"><ele>317.0</ele><time>2026-03-22T07:54:46.992Z</time></trkpt><trkpt lat="43.35293" lon="13.2680883"><ele>317.0</ele><time>2026-03-22T07:54:47.992Z</time></trkpt><trkpt lat="43.353115" lon="13.2682083"><ele>316.33333333333337</ele><time>2026-03-22T07:54:48.991Z</time></trkpt><trkpt lat="43.3533067" lon="13.26834"><ele>315.6666666666667</ele><time>2026-03-22T07:54:49.995Z</time></trkpt><trkpt lat="43.3535033" lon="13.268475"><ele>315.0</ele><time>2026-03-22T07:54:50.995Z</time></trkpt><trkpt lat="43.353695" lon="13.2686083"><ele>314.6666666666667</ele><time>2026-03-22T07:54:51.992Z</time></trkpt><trkpt lat="43.3538933" lon="13.2687467"><ele>314.33333333333337</ele><time>2026-03-22T07:54:52.992Z</time></trkpt><trkpt lat="43.3540917" lon="13.26889"><ele>314.0</ele><time>2026-03-22T07:54:53.998Z</time></trkpt><trkpt lat="43.3542867" lon="13.2690367"><ele>313.0</ele><time>2026-03-22T07:54:54.995Z</time></trkpt><trkpt lat="43.3544917" lon="13.2691783"><ele>312.0</ele><time>2026-03-22T07:54:55.991Z</time></trkpt><trkpt lat="43.3546983" lon="13.26932"><ele>312.0</ele><time>2026-03-22T07:54:56.992Z</time></trkpt><trkpt lat="43.3549067" lon="13.2694583"><ele>312.0</ele><time>2026-03-22T07:54:57.992Z</time></trkpt><trkpt lat="43.355115" lon="13.2695983"><ele>312.0</ele><time>2026-03-22T07:54:58.99Z</time></trkpt><trkpt lat="43.355325" lon="13.2697383"><ele>312.0</ele><time>2026-03-22T07:54:59.993Z</time></trkpt><trkpt lat="43.355535" lon="13.2698783"><ele>310.0</ele><time>2026-03-22T07:55:00.993Z</time></trkpt><trkpt lat="43.3557433" lon="13.27002"><ele>308.0</ele><time>2026-03-22T07:55:01.995Z</time></trkpt><trkpt lat="43.3559533" lon="13.2701633"><ele>308.0</ele><time>2026-03-22T07:55:02.994Z</time></trkpt><trkpt lat="43.35616" lon="13.27031"><ele>308.0</ele><time>2026-03-22T07:55:03.992Z</time></trkpt><trkpt lat="43.3563717" lon="13.270455"><ele>307.5</ele><time>2026-03-22T07:55:04.99Z</time></trkpt><trkpt lat="43.3565833" lon="13.2706"><ele>307.0</ele><time>2026-03-22T07:55:05.994Z</time></trkpt><trkpt lat="43.3567917" lon="13.2707467"><ele>306.0</ele><time>2026-03-22T07:55:06.994Z</time></trkpt><trkpt lat="43.357" lon="13.2708883"><ele>305.0</ele><time>2026-03-22T07:55:07.994Z</time></trkpt><trkpt lat="43.3572083" lon="13.2710333"><ele>303.5</ele><time>2026-03-22T07:55:08.995Z</time></trkpt><trkpt lat="43.3574183" lon="13.271175"><ele>302.0</ele><time>2026-03-22T07:55:09.992Z</time></trkpt><trkpt lat="43.35762" lon="13.271315"><ele>302.0</ele><time>2026-03-22T07:55:10.992Z</time></trkpt><trkpt lat="43.3578217" lon="13.2714567"><ele>302.0</ele><time>2026-03-22T07:55:11.993Z</time></trkpt><trkpt lat="43.3580217" lon="13.2715983"><ele>301.0</ele><time>2026-03-22T07:55:12.994Z</time></trkpt><trkpt lat="43.35822" lon="13.2717383"><ele>300.0</ele><time>2026-03-22T07:55:13.993Z</time></trkpt><trkpt lat="43.3584133" lon="13.2718683"><ele>299.0</ele><time>2026-03-22T07:55:14.993Z</time></trkpt><trkpt lat="43.358605" lon="13.2719917"><ele>299.0</ele><time>2026-03-22T07:55:15.992Z</time></trkpt><trkpt lat="43.358795" lon="13.2721067"><ele>299.0</ele><time>2026-03-22T07:55:16.991Z</time></trkpt><trkpt lat="43.3589867" lon="13.27219"><ele>299.0</ele><time>2026-03-22T07:55:17.993Z</time></trkpt><trkpt lat="43.3591783" lon="13.2722183"><ele>299.0</ele><time>2026-03-22T07:55:18.995Z</time></trkpt><trkpt lat="43.3593717" lon="13.2722033"><ele>299.0</ele><time>2026-03-22T07:55:19.991Z</time></trkpt><trkpt lat="43.35955" lon="13.2721383"><ele>299.0</ele><time>2026-03-22T07:55:20.992Z</time></trkpt><trkpt lat="43.3597233" lon="13.2720333"><ele>299.0</ele><time>2026-03-22T07:55:21.992Z</time></trkpt><trkpt lat="43.3598833" lon="13.27188"><ele>299.0</ele><time>2026-03-22T07:55:22.993Z</time></trkpt><trkpt lat="43.360035" lon="13.2716933"><ele>299.0</ele><time>2026-03-22T07:55:23.994Z</time></trkpt><trkpt lat="43.3601833" lon="13.2714867"><ele>300.0</ele><time>2026-03-22T07:55:24.993Z</time></trkpt><trkpt lat="43.3603367" lon="13.2712733"><ele>301.0</ele><time>2026-03-22T07:55:25.994Z</time></trkpt><trkpt lat="43.3604883" lon="13.2710583"><ele>302.0</ele><time>2026-03-22T07:55:26.996Z</time></trkpt><trkpt lat="43.36064" lon="13.2708383"><ele>298.0</ele><time>2026-03-22T07:55:27.992Z</time></trkpt><trkpt lat="43.3607933" lon="13.2706183"><ele>294.0</ele><time>2026-03-22T07:55:28.992Z</time></trkpt><trkpt lat="43.3609417" lon="13.2703933"><ele>290.0</ele><time>2026-03-22T07:55:29.993Z</time></trkpt><trkpt lat="43.3610967" lon="13.2701717"><ele>290.0</ele><time>2026-03-22T07:55:30.992Z</time></trkpt><trkpt lat="43.3612533" lon="13.2699483"><ele>290.0</ele><time>2026-03-22T07:55:31.993Z</time></trkpt><trkpt lat="43.3614083" lon="13.2697217"><ele>287.6666666666667</ele><time>2026-03-22T07:55:32.993Z</time></trkpt><trkpt lat="43.36156" lon="13.2694983"><ele>285.3333333333333</ele><time>2026-03-22T07:55:33.991Z</time></trkpt><trkpt lat="43.3617133" lon="13.269275"><ele>283.0</ele><time>2026-03-22T07:55:34.991Z</time></trkpt><trkpt lat="43.361865" lon="13.26905"><ele>283.0</ele><time>2026-03-22T07:55:35.992Z</time></trkpt><trkpt lat="43.3620217" lon="13.2688283"><ele>283.0</ele><time>2026-03-22T07:55:36.997Z</time></trkpt><trkpt lat="43.3621783" lon="13.2686083"><ele>283.0</ele><time>2026-03-22T07:55:37.991Z</time></trkpt><trkpt lat="43.3623267" lon="13.2683883"><ele>280.0</ele><time>2026-03-22T07:55:38.991Z</time></trkpt><trkpt lat="43.36248" lon="13.2681683"><ele>277.0</ele><time>2026-03-22T07:55:39.988Z</time></trkpt><trkpt lat="43.3626367" lon="13.2679517"><ele>274.0</ele><time>2026-03-22T07:55:40.986Z</time></trkpt><trkpt lat="43.3628017" lon="13.267745"><ele>272.66666666666663</ele><time>2026-03-22T07:55:41.992Z</time></trkpt><trkpt lat="43.3629733" lon="13.267555"><ele>271.3333333333333</ele><time>2026-03-22T07:55:42.994Z</time></trkpt><trkpt lat="43.3631517" lon="13.2673867"><ele>270.0</ele><time>2026-03-22T07:55:43.993Z</time></trkpt><trkpt lat="43.36334" lon="13.2672317"><ele>266.6666666666667</ele><time>2026-03-22T07:55:44.996Z</time></trkpt><trkpt lat="43.3635367" lon="13.2671033"><ele>263.33333333333337</ele><time>2026-03-22T07:55:45.992Z</time></trkpt><trkpt lat="43.3637383" lon="13.2670033"><ele>260.0</ele><time>2026-03-22T07:55:46.991Z</time></trkpt><trkpt lat="43.363945" lon="13.2669367"><ele>259.0</ele><time>2026-03-22T07:55:47.992Z</time></trkpt><trkpt lat="43.3641567" lon="13.2669017"><ele>258.0</ele><time>2026-03-22T07:55:48.992Z</time></trkpt><trkpt lat="43.36437" lon="13.26688"><ele>257.0</ele><time>2026-03-22T07:55:49.991Z</time></trkpt><trkpt lat="43.3645817" lon="13.2668517"><ele>256.33333333333337</ele><time>2026-03-22T07:55:50.995Z</time></trkpt><trkpt lat="43.3647933" lon="13.2668017"><ele>255.66666666666669</ele><time>2026-03-22T07:55:51.989Z</time></trkpt><trkpt lat="43.3649933" lon="13.2667217"><ele>255.0</ele><time>2026-03-22T07:55:52.991Z</time></trkpt><trkpt lat="43.3651933" lon="13.2666117"><ele>255.0</ele><time>2026-03-22T07:55:53.994Z</time></trkpt><trkpt lat="43.3653967" lon="13.2664733"><ele>255.0</ele><time>2026-03-22T07:55:54.991Z</time></trkpt><trkpt lat="43.3656" lon="13.2663517"><ele>255.0</ele><time>2026-03-22T07:55:55.992Z</time></trkpt><trkpt lat="43.3658067" lon="13.2662583"><ele>251.0</ele><time>2026-03-22T07:55:56.995Z</time></trkpt><trkpt lat="43.366005" lon="13.2661767"><ele>247.0</ele><time>2026-03-22T07:55:57.993Z</time></trkpt><trkpt lat="43.366205" lon="13.2660967"><ele>243.0</ele><time>2026-03-22T07:55:58.99Z</time></trkpt><trkpt lat="43.3664067" lon="13.2660183"><ele>243.0</ele><time>2026-03-22T07:55:59.991Z</time></trkpt><trkpt lat="43.3666117" lon="13.2659433"><ele>243.0</ele><time>2026-03-22T07:56:00.991Z</time></trkpt><trkpt lat="43.3668233" lon="13.2658683"><ele>243.0</ele><time>2026-03-22T07:56:01.992Z</time></trkpt><trkpt lat="43.3670317" lon="13.2658033"><ele>241.66666666666669</ele><time>2026-03-22T07:56:02.994Z</time></trkpt><trkpt lat="43.3672367" lon="13.26577"><ele>240.33333333333334</ele><time>2026-03-22T07:56:03.992Z</time></trkpt><trkpt lat="43.36745" lon="13.26577"><ele>239.0</ele><time>2026-03-22T07:56:04.992Z</time></trkpt><trkpt lat="43.3676667" lon="13.2657883"><ele>239.0</ele><time>2026-03-22T07:56:05.99Z</time></trkpt><trkpt lat="43.367895" lon="13.265805"><ele>239.0</ele><time>2026-03-22T07:56:06.993Z</time></trkpt><trkpt lat="43.3681217" lon="13.2658183"><ele>237.0</ele><time>2026-03-22T07:56:07.991Z</time></trkpt><trkpt lat="43.3683483" lon="13.2658267"><ele>235.0</ele><time>2026-03-22T07:56:08.993Z</time></trkpt><trkpt lat="43.36858" lon="13.2658333"><ele>235.0</ele><time>2026-03-22T07:56:09.993Z</time></trkpt><trkpt lat="43.36881" lon="13.2658483"><ele>235.0</ele><time>2026-03-22T07:56:10.992Z</time></trkpt><trkpt lat="43.369035" lon="13.2658733"><ele>234.66666666666666</ele><time>2026-03-22T07:56:11.989Z</time></trkpt><trkpt lat="43.3692567" lon="13.2658933"><ele>234.33333333333331</ele><time>2026-03-22T07:56:12.997Z</time></trkpt><trkpt lat="43.36947" lon="13.2659133"><ele>234.0</ele><time>2026-03-22T07:56:13.993Z</time></trkpt><trkpt lat="43.369675" lon="13.2659233"><ele>232.66666666666669</ele><time>2026-03-22T07:56:14.993Z</time></trkpt><trkpt lat="43.36987" lon="13.2659267"><ele>231.33333333333334</ele><time>2026-03-22T07:56:15.992Z</time></trkpt><trkpt lat="43.3700483" lon="13.2658917"><ele>230.0</ele><time>2026-03-22T07:56:16.991Z</time></trkpt><trkpt lat="43.3702267" lon="13.265815"><ele>230.0</ele><time>2026-03-22T07:56:17.992Z</time></trkpt><trkpt lat="43.3704167" lon="13.2657017"><ele>230.0</ele><time>2026-03-22T07:56:18.993Z</time></trkpt><trkpt lat="43.3706033" lon="13.26557"><ele>230.0</ele><time>2026-03-22T07:56:19.993Z</time></trkpt><trkpt lat="43.370785" lon="13.265445"><ele>229.33333333333334</ele><time>2026-03-22T07:56:20.995Z</time></trkpt><trkpt lat="43.370965" lon="13.2653183"><ele>228.66666666666669</ele><time>2026-03-22T07:56:21.99Z</time></trkpt><trkpt lat="43.3711467" lon="13.265195"><ele>228.0</ele><time>2026-03-22T07:56:22.991Z</time></trkpt><trkpt lat="43.3713267" lon="13.2650733"><ele>226.0</ele><time>2026-03-22T07:56:23.992Z</time></trkpt><trkpt lat="43.37151" lon="13.264955"><ele>224.0</ele><time>2026-03-22T07:56:24.993Z</time></trkpt><trkpt lat="43.3716833" lon="13.2648333"><ele>222.0</ele><time>2026-03-22T07:56:25.993Z</time></trkpt><trkpt lat="43.3718517" lon="13.264715"><ele>222.0</ele><time>2026-03-22T07:56:26.994Z</time></trkpt><trkpt lat="43.3720067" lon="13.2646033"><ele>222.0</ele><time>2026-03-22T07:56:27.992Z</time></trkpt><trkpt lat="43.3721467" lon="13.2644967"><ele>222.0</ele><time>2026-03-22T07:56:28.991Z</time></trkpt><trkpt lat="43.37225" lon="13.2643783"><ele>220.39999999999998</ele><time>2026-03-22T07:56:29.993Z</time></trkpt><trkpt lat="43.3723183" lon="13.2642483"><ele>218.79999999999998</ele><time>2026-03-22T07:56:30.993Z</time></trkpt><trkpt lat="43.3723567" lon="13.26412"><ele>217.2</ele><time>2026-03-22T07:56:31.991Z</time></trkpt><trkpt lat="43.372365" lon="13.2639833"><ele>215.6</ele><time>2026-03-22T07:56:32.992Z</time></trkpt><trkpt lat="43.372335" lon="13.2638533"><ele>214.0</ele><time>2026-03-22T07:56:33.989Z</time></trkpt><trkpt lat="43.3722683" lon="13.2637333"><ele>213.75</ele><time>2026-03-22T07:56:34.99Z</time></trkpt><trkpt lat="43.3721733" lon="13.2636217"><ele>213.5</ele><time>2026-03-22T07:56:35.989Z</time></trkpt><trkpt lat="43.3720533" lon="13.26352"><ele>213.25</ele><time>2026-03-22T07:56:36.998Z</time></trkpt><trkpt lat="43.37192" lon="13.26341"><ele>213.0</ele><time>2026-03-22T07:56:37.995Z</time></trkpt><trkpt lat="43.3717767" lon="13.2632933"><ele>213.0</ele><time>2026-03-22T07:56:38.992Z</time></trkpt><trkpt lat="43.3716333" lon="13.2631767"><ele>213.0</ele><time>2026-03-22T07:56:39.991Z</time></trkpt><trkpt lat="43.3714917" lon="13.263055"><ele>213.0</ele><time>2026-03-22T07:56:40.992Z</time></trkpt><trkpt lat="43.3713483" lon="13.262935"><ele>211.33333333333331</ele><time>2026-03-22T07:56:41.99Z</time></trkpt><trkpt lat="43.371205" lon="13.26281"><ele>209.66666666666666</ele><time>2026-03-22T07:56:42.993Z</time></trkpt><trkpt lat="43.3710633" lon="13.26269"><ele>208.0</ele><time>2026-03-22T07:56:43.992Z</time></trkpt><trkpt lat="43.3709283" lon="13.26257"><ele>208.0</ele><time>2026-03-22T07:56:44.991Z</time></trkpt><trkpt lat="43.3708067" lon="13.2624467"><ele>208.0</ele><time>2026-03-22T07:56:45.99Z</time></trkpt><trkpt lat="43.3707" lon="13.2623067"><ele>208.0</ele><time>2026-03-22T07:56:46.991Z</time></trkpt><trkpt lat="43.37061" lon="13.2621367"><ele>207.66666666666666</ele><time>2026-03-22T07:56:47.992Z</time></trkpt><trkpt lat="43.370545" lon="13.2619383"><ele>207.33333333333331</ele><time>2026-03-22T07:56:48.994Z</time></trkpt><trkpt lat="43.370485" lon="13.2617333"><ele>207.0</ele><time>2026-03-22T07:56:49.989Z</time></trkpt><trkpt lat="43.3704383" lon="13.261525"><ele>211.0</ele><time>2026-03-22T07:56:50.991Z</time></trkpt><trkpt lat="43.370405" lon="13.2613133"><ele>215.0</ele><time>2026-03-22T07:56:51.991Z</time></trkpt><trkpt lat="43.3704" lon="13.2611017"><ele>219.0</ele><time>2026-03-22T07:56:52.992Z</time></trkpt><trkpt lat="43.3704317" lon="13.2608817"><ele>219.0</ele><time>2026-03-22T07:56:53.992Z</time></trkpt><trkpt lat="43.3704767" lon="13.26067"><ele>219.0</ele><time>2026-03-22T07:56:54.991Z</time></trkpt><trkpt lat="43.3705233" lon="13.2604567"><ele>219.0</ele><time>2026-03-22T07:56:55.991Z</time></trkpt><trkpt lat="43.3705733" lon="13.2602533"><ele>218.66666666666669</ele><time>2026-03-22T07:56:56.989Z</time></trkpt><trkpt lat="43.37063" lon="13.2600467"><ele>218.33333333333334</ele><time>2026-03-22T07:56:57.992Z</time></trkpt><trkpt lat="43.370685" lon="13.25983"><ele>218.0</ele><time>2026-03-22T07:56:58.993Z</time></trkpt><trkpt lat="43.37074" lon="13.259615"><ele>220.0</ele><time>2026-03-22T07:56:59.991Z</time></trkpt><trkpt lat="43.370805" lon="13.2594017"><ele>222.0</ele><time>2026-03-22T07:57:00.992Z</time></trkpt><trkpt lat="43.3708733" lon="13.259195"><ele>224.0</ele><time>2026-03-22T07:57:01.993Z</time></trkpt><trkpt lat="43.3709533" lon="13.259005"><ele>225.33333333333334</ele><time>2026-03-22T07:57:02.993Z</time></trkpt><trkpt lat="43.3710433" lon="13.258825"><ele>226.66666666666669</ele><time>2026-03-22T07:57:03.991Z</time></trkpt><trkpt lat="43.371145" lon="13.258655"><ele>228.0</ele><time>2026-03-22T07:57:04.993Z</time></trkpt><trkpt lat="43.371255" lon="13.2584867"><ele>226.66666666666669</ele><time>2026-03-22T07:57:05.989Z</time></trkpt><trkpt lat="43.3713717" lon="13.25833"><ele>225.33333333333334</ele><time>2026-03-22T07:57:06.991Z</time></trkpt><trkpt lat="43.3714933" lon="13.2581833"><ele>224.0</ele><time>2026-03-22T07:57:07.994Z</time></trkpt><trkpt lat="43.371625" lon="13.2580533"><ele>227.0</ele><time>2026-03-22T07:57:08.992Z</time></trkpt><trkpt lat="43.3717633" lon="13.2579317"><ele>230.0</ele><time>2026-03-22T07:57:09.993Z</time></trkpt><trkpt lat="43.3719067" lon="13.257805"><ele>233.0</ele><time>2026-03-22T07:57:10.993Z</time></trkpt><trkpt lat="43.372045" lon="13.2576817"><ele>233.0</ele><time>2026-03-22T07:57:11.992Z</time></trkpt><trkpt lat="43.3721717" lon="13.2575567"><ele>233.0</ele><time>2026-03-22T07:57:12.992Z</time></trkpt><trkpt lat="43.3722783" lon="13.2574233"><ele>233.0</ele><time>2026-03-22T07:57:13.989Z</time></trkpt><trkpt lat="43.372365" lon="13.2572767"><ele>233.0</ele><time>2026-03-22T07:57:14.991Z</time></trkpt><trkpt lat="43.372435" lon="13.25712"><ele>232.8</ele><time>2026-03-22T07:57:15.991Z</time></trkpt><trkpt lat="43.372495" lon="13.256975"><ele>232.60000000000002</ele><time>2026-03-22T07:57:16.994Z</time></trkpt><trkpt lat="43.372555" lon="13.2568483"><ele>232.39999999999998</ele><time>2026-03-22T07:57:17.988Z</time></trkpt><trkpt lat="43.3726233" lon="13.2567517"><ele>232.2</ele><time>2026-03-22T07:57:18.993Z</time></trkpt><trkpt lat="43.3727033" lon="13.2566983"><ele>232.0</ele><time>2026-03-22T07:57:19.984Z</time></trkpt><trkpt lat="43.372795" lon="13.2566767"><ele>232.0</ele><time>2026-03-22T07:57:20.993Z</time></trkpt><trkpt lat="43.3728867" lon="13.2567233"><ele>232.0</ele><time>2026-03-22T07:57:21.99Z</time></trkpt><trkpt lat="43.3729683" lon="13.2568033"><ele>232.0</ele><time>2026-03-22T07:57:22.991Z</time></trkpt><trkpt lat="43.3730417" lon="13.25692"><ele>232.0</ele><time>2026-03-22T07:57:23.989Z</time></trkpt><trkpt lat="43.373105" lon="13.2570533"><ele>232.0</ele><time>2026-03-22T07:57:24.99Z</time></trkpt><trkpt lat="43.37317" lon="13.2571917"><ele>231.75</ele><time>2026-03-22T07:57:25.991Z</time></trkpt><trkpt lat="43.3732433" lon="13.257335"><ele>231.5</ele><time>2026-03-22T07:57:26.991Z</time></trkpt><trkpt lat="43.3733217" lon="13.2574733"><ele>231.25</ele><time>2026-03-22T07:57:27.991Z</time></trkpt><trkpt lat="43.3733933" lon="13.2576183"><ele>231.0</ele><time>2026-03-22T07:57:28.989Z</time></trkpt><trkpt lat="43.3734633" lon="13.25777"><ele>231.0</ele><time>2026-03-22T07:57:29.991Z</time></trkpt><trkpt lat="43.3735367" lon="13.257915"><ele>231.0</ele><time>2026-03-22T07:57:30.991Z</time></trkpt><trkpt lat="43.3736133" lon="13.258045"><ele>231.0</ele><time>2026-03-22T07:57:31.99Z</time></trkpt><trkpt lat="43.3736967" lon="13.25815"><ele>231.0</ele><time>2026-03-22T07:57:32.99Z</time></trkpt><trkpt lat="43.3737983" lon="13.2582367"><ele>232.5</ele><time>2026-03-22T07:57:33.992Z</time></trkpt><trkpt lat="43.3739133" lon="13.2583017"><ele>234.0</ele><time>2026-03-22T07:57:34.99Z</time></trkpt><trkpt lat="43.374035" lon="13.2583583"><ele>235.5</ele><time>2026-03-22T07:57:35.992Z</time></trkpt><trkpt lat="43.37416" lon="13.258415"><ele>237.0</ele><time>2026-03-22T07:57:36.99Z</time></trkpt><trkpt lat="43.3742917" lon="13.2584717"><ele>237.0</ele><time>2026-03-22T07:57:37.992Z</time></trkpt><trkpt lat="43.3744233" lon="13.258525"><ele>237.0</ele><time>2026-03-22T07:57:38.991Z</time></trkpt><trkpt lat="43.37455" lon="13.2585717"><ele>237.0</ele><time>2026-03-22T07:57:39.996Z</time></trkpt><trkpt lat="43.3746817" lon="13.2586017"><ele>237.0</ele><time>2026-03-22T07:57:40.992Z</time></trkpt><trkpt lat="43.3748017" lon="13.25859"><ele>238.6</ele><time>2026-03-22T07:57:41.993Z</time></trkpt><trkpt lat="43.3749067" lon="13.25855"><ele>240.2</ele><time>2026-03-22T07:57:42.992Z</time></trkpt><trkpt lat="43.3749933" lon="13.2584717"><ele>241.8</ele><time>2026-03-22T07:57:43.992Z</time></trkpt><trkpt lat="43.375075" lon="13.258375"><ele>243.4</ele><time>2026-03-22T07:57:44.99Z</time></trkpt><trkpt lat="43.3751567" lon="13.258275"><ele>245.0</ele><time>2026-03-22T07:57:45.988Z</time></trkpt><trkpt lat="43.3752433" lon="13.2581733"><ele>246.6</ele><time>2026-03-22T07:57:46.989Z</time></trkpt><trkpt lat="43.3753367" lon="13.25808"><ele>248.2</ele><time>2026-03-22T07:57:47.991Z</time></trkpt><trkpt lat="43.3754383" lon="13.2580033"><ele>249.8</ele><time>2026-03-22T07:57:48.993Z</time></trkpt><trkpt lat="43.3755417" lon="13.2579483"><ele>251.4</ele><time>2026-03-22T07:57:49.993Z</time></trkpt><trkpt lat="43.375645" lon="13.2579167"><ele>253.0</ele><time>2026-03-22T07:57:50.992Z</time></trkpt><trkpt lat="43.37576" lon="13.257915"><ele>253.5</ele><time>2026-03-22T07:57:51.991Z</time></trkpt><trkpt lat="43.37588" lon="13.2579583"><ele>254.0</ele><time>2026-03-22T07:57:52.993Z</time></trkpt><trkpt lat="43.3759883" lon="13.258045"><ele>254.5</ele><time>2026-03-22T07:57:53.993Z</time></trkpt><trkpt lat="43.3760767" lon="13.2581567"><ele>255.0</ele><time>2026-03-22T07:57:54.988Z</time></trkpt><trkpt lat="43.3761567" lon="13.258265"><ele>254.5</ele><time>2026-03-22T07:57:55.99Z</time></trkpt><trkpt lat="43.3762333" lon="13.2583533"><ele>254.0</ele><time>2026-03-22T07:57:56.993Z</time></trkpt><trkpt lat="43.3763117" lon="13.2584117"><ele>253.5</ele><time>2026-03-22T07:57:57.99Z</time></trkpt><trkpt lat="43.3763933" lon="13.25844"><ele>253.0</ele><time>2026-03-22T07:57:58.992Z</time></trkpt><trkpt lat="43.376475" lon="13.2584417"><ele>252.5</ele><time>2026-03-22T07:57:59.989Z</time></trkpt><trkpt lat="43.3765567" lon="13.2584217"><ele>252.0</ele><time>2026-03-22T07:58:00.992Z</time></trkpt><trkpt lat="43.3766383" lon="13.2584017"><ele>252.0</ele><time>2026-03-22T07:58:01.992Z</time></trkpt><trkpt lat="43.3767217" lon="13.2583667"><ele>252.0</ele><time>2026-03-22T07:58:02.992Z</time></trkpt><trkpt lat="43.3768083" lon="13.25829"><ele>252.0</ele><time>2026-03-22T07:58:03.995Z</time></trkpt><trkpt lat="43.3768733" lon="13.2581667"><ele>252.0</ele><time>2026-03-22T07:58:04.99Z</time></trkpt><trkpt lat="43.3769133" lon="13.25801"><ele>252.0</ele><time>2026-03-22T07:58:05.993Z</time></trkpt><trkpt lat="43.376935" lon="13.2578217"><ele>252.25</ele><time>2026-03-22T07:58:06.993Z</time></trkpt><trkpt lat="43.3769633" lon="13.257625"><ele>252.5</ele><time>2026-03-22T07:58:07.994Z</time></trkpt><trkpt lat="43.3770067" lon="13.2574317"><ele>252.75</ele><time>2026-03-22T07:58:08.993Z</time></trkpt><trkpt lat="43.3770633" lon="13.2572333"><ele>253.0</ele><time>2026-03-22T07:58:09.992Z</time></trkpt><trkpt lat="43.3771217" lon="13.2570367"><ele>254.66666666666666</ele><time>2026-03-22T07:58:10.993Z</time></trkpt><trkpt lat="43.3771833" lon="13.2568417"><ele>256.3333333333333</ele><time>2026-03-22T07:58:11.99Z</time></trkpt><trkpt lat="43.3772517" lon="13.2566417"><ele>258.0</ele><time>2026-03-22T07:58:12.986Z</time></trkpt><trkpt lat="43.3773417" lon="13.2564433"><ele>254.33333333333331</ele><time>2026-03-22T07:58:13.986Z</time></trkpt><trkpt lat="43.3774317" lon="13.2562583"><ele>250.66666666666666</ele><time>2026-03-22T07:58:14.994Z</time></trkpt><trkpt lat="43.3775317" lon="13.2560667"><ele>247.0</ele><time>2026-03-22T07:58:15.993Z</time></trkpt><trkpt lat="43.37763" lon="13.255875"><ele>247.0</ele><time>2026-03-22T07:58:16.993Z</time></trkpt><trkpt lat="43.3777283" lon="13.2556917"><ele>247.0</ele><time>2026-03-22T07:58:17.995Z</time></trkpt><trkpt lat="43.37783" lon="13.25552"><ele>247.0</ele><time>2026-03-22T07:58:18.997Z</time></trkpt><trkpt lat="43.3779283" lon="13.2553533"><ele>245.33333333333331</ele><time>2026-03-22T07:58:19.989Z</time></trkpt><trkpt lat="43.3780233" lon="13.255185"><ele>243.66666666666669</ele><time>2026-03-22T07:58:20.991Z</time></trkpt><trkpt lat="43.378115" lon="13.25502"><ele>242.0</ele><time>2026-03-22T07:58:21.991Z</time></trkpt><trkpt lat="43.37821" lon="13.2548567"><ele>242.5</ele><time>2026-03-22T07:58:22.992Z</time></trkpt><trkpt lat="43.3783033" lon="13.2546967"><ele>243.0</ele><time>2026-03-22T07:58:23.991Z</time></trkpt><trkpt lat="43.378395" lon="13.2545433"><ele>243.5</ele><time>2026-03-22T07:58:24.994Z</time></trkpt><trkpt lat="43.3784817" lon="13.25439"><ele>244.0</ele><time>2026-03-22T07:58:25.993Z</time></trkpt><trkpt lat="43.3785717" lon="13.254235"><ele>244.0</ele><time>2026-03-22T07:58:26.991Z</time></trkpt><trkpt lat="43.3786667" lon="13.2540817"><ele>244.0</ele><time>2026-03-22T07:58:27.986Z</time></trkpt><trkpt lat="43.3787617" lon="13.2539267"><ele>244.0</ele><time>2026-03-22T07:58:28.989Z</time></trkpt><trkpt lat="43.37886" lon="13.2537617"><ele>244.0</ele><time>2026-03-22T07:58:29.987Z</time></trkpt><trkpt lat="43.3789567" lon="13.2535967"><ele>242.33333333333331</ele><time>2026-03-22T07:58:30.99Z</time></trkpt><trkpt lat="43.3790317" lon="13.2534183"><ele>240.66666666666669</ele><time>2026-03-22T07:58:31.994Z</time></trkpt><trkpt lat="43.3790767" lon="13.25321"><ele>239.0</ele><time>2026-03-22T07:58:32.992Z</time></trkpt><trkpt lat="43.3791" lon="13.2529533"><ele>237.66666666666669</ele><time>2026-03-22T07:58:33.991Z</time></trkpt><trkpt lat="43.3791167" lon="13.2526633"><ele>236.33333333333331</ele><time>2026-03-22T07:58:34.993Z</time></trkpt><trkpt lat="43.3791383" lon="13.252365"><ele>235.0</ele><time>2026-03-22T07:58:35.991Z</time></trkpt><trkpt lat="43.379165" lon="13.2520833"><ele>234.0</ele><time>2026-03-22T07:58:36.992Z</time></trkpt><trkpt lat="43.37919" lon="13.2518133"><ele>233.0</ele><time>2026-03-22T07:58:37.992Z</time></trkpt><trkpt lat="43.3792117" lon="13.2515533"><ele>232.0</ele><time>2026-03-22T07:58:38.994Z</time></trkpt><trkpt lat="43.3792367" lon="13.2513"><ele>231.66666666666666</ele><time>2026-03-22T07:58:40.003Z</time></trkpt><trkpt lat="43.37927" lon="13.25106"><ele>231.33333333333331</ele><time>2026-03-22T07:58:40.99Z</time></trkpt><trkpt lat="43.3793167" lon="13.2508233"><ele>231.0</ele><time>2026-03-22T07:58:41.991Z</time></trkpt><trkpt lat="43.3793667" lon="13.2505933"><ele>233.33333333333331</ele><time>2026-03-22T07:58:42.991Z</time></trkpt><trkpt lat="43.3794167" lon="13.250375"><ele>235.66666666666666</ele><time>2026-03-22T07:58:43.993Z</time></trkpt><trkpt lat="43.3794583" lon="13.2501633"><ele>238.0</ele><time>2026-03-22T07:58:44.991Z</time></trkpt><trkpt lat="43.3794933" lon="13.249955"><ele>238.33333333333331</ele><time>2026-03-22T07:58:45.99Z</time></trkpt><trkpt lat="43.3795083" lon="13.249745"><ele>238.66666666666669</ele><time>2026-03-22T07:58:46.993Z</time></trkpt><trkpt lat="43.3794867" lon="13.2495383"><ele>239.0</ele><time>2026-03-22T07:58:47.994Z</time></trkpt><trkpt lat="43.3794383" lon="13.24934"><ele>239.0</ele><time>2026-03-22T07:58:48.991Z</time></trkpt><trkpt lat="43.3793733" lon="13.2491633"><ele>239.0</ele><time>2026-03-22T07:58:49.99Z</time></trkpt><trkpt lat="43.3793067" lon="13.2489833"><ele>239.0</ele><time>2026-03-22T07:58:50.992Z</time></trkpt><trkpt lat="43.3792467" lon="13.2488083"><ele>239.0</ele><time>2026-03-22T07:58:51.99Z</time></trkpt><trkpt lat="43.3792033" lon="13.2486417"><ele>239.25</ele><time>2026-03-22T07:58:52.997Z</time></trkpt><trkpt lat="43.37919" lon="13.2484767"><ele>239.5</ele><time>2026-03-22T07:58:53.994Z</time></trkpt><trkpt lat="43.3792117" lon="13.24832"><ele>239.75</ele><time>2026-03-22T07:58:54.994Z</time></trkpt><trkpt lat="43.37927" lon="13.2481767"><ele>240.0</ele><time>2026-03-22T07:58:55.992Z</time></trkpt><trkpt lat="43.3793467" lon="13.2480367"><ele>240.25</ele><time>2026-03-22T07:58:56.994Z</time></trkpt><trkpt lat="43.37941" lon="13.2478767"><ele>240.5</ele><time>2026-03-22T07:58:57.993Z</time></trkpt><trkpt lat="43.379465" lon="13.247705"><ele>240.75</ele><time>2026-03-22T07:58:58.994Z</time></trkpt><trkpt lat="43.379505" lon="13.2475267"><ele>241.0</ele><time>2026-03-22T07:58:59.99Z</time></trkpt><trkpt lat="43.37954" lon="13.2473433"><ele>242.0</ele><time>2026-03-22T07:59:00.992Z</time></trkpt><trkpt lat="43.3795667" lon="13.24715"><ele>243.0</ele><time>2026-03-22T07:59:01.997Z</time></trkpt><trkpt lat="43.3795933" lon="13.2469567"><ele>244.0</ele><time>2026-03-22T07:59:02.993Z</time></trkpt><trkpt lat="43.3796083" lon="13.2467733"><ele>245.0</ele><time>2026-03-22T07:59:03.993Z</time></trkpt><trkpt lat="43.3796" lon="13.2465967"><ele>246.25</ele><time>2026-03-22T07:59:04.995Z</time></trkpt><trkpt lat="43.3795617" lon="13.246425"><ele>247.5</ele><time>2026-03-22T07:59:05.993Z</time></trkpt><trkpt lat="43.379505" lon="13.24626"><ele>248.75</ele><time>2026-03-22T07:59:06.991Z</time></trkpt><trkpt lat="43.37943" lon="13.2461083"><ele>250.0</ele><time>2026-03-22T07:59:07.991Z</time></trkpt><trkpt lat="43.379365" lon="13.2459633"><ele>250.0</ele><time>2026-03-22T07:59:08.995Z</time></trkpt><trkpt lat="43.379325" lon="13.2458183"><ele>250.0</ele><time>2026-03-22T07:59:09.992Z</time></trkpt><trkpt lat="43.379325" lon="13.2456733"><ele>250.0</ele><time>2026-03-22T07:59:10.991Z</time></trkpt><trkpt lat="43.37937" lon="13.2455417"><ele>250.0</ele><time>2026-03-22T07:59:11.994Z</time></trkpt><trkpt lat="43.3794383" lon="13.2454417"><ele>250.0</ele><time>2026-03-22T07:59:12.992Z</time></trkpt><trkpt lat="43.3795383" lon="13.2453783"><ele>249.75</ele><time>2026-03-22T07:59:13.991Z</time></trkpt><trkpt lat="43.3796533" lon="13.2453567"><ele>249.5</ele><time>2026-03-22T07:59:14.991Z</time></trkpt><trkpt lat="43.379775" lon="13.2453683"><ele>249.25</ele><time>2026-03-22T07:59:15.992Z</time></trkpt><trkpt lat="43.3799117" lon="13.2454083"><ele>249.0</ele><time>2026-03-22T07:59:16.989Z</time></trkpt><trkpt lat="43.38007" lon="13.245465"><ele>252.33333333333331</ele><time>2026-03-22T07:59:17.99Z</time></trkpt><trkpt lat="43.3802417" lon="13.2455617"><ele>255.66666666666666</ele><time>2026-03-22T07:59:18.989Z</time></trkpt><trkpt lat="43.380415" lon="13.245685"><ele>259.0</ele><time>2026-03-22T07:59:19.991Z</time></trkpt><trkpt lat="43.380575" lon="13.2458117"><ele>261.5</ele><time>2026-03-22T07:59:20.996Z</time></trkpt><trkpt lat="43.38072" lon="13.2459233"><ele>264.0</ele><time>2026-03-22T07:59:21.99Z</time></trkpt><trkpt lat="43.3808517" lon="13.246015"><ele>266.5</ele><time>2026-03-22T07:59:22.992Z</time></trkpt><trkpt lat="43.3809717" lon="13.2460883"><ele>269.0</ele><time>2026-03-22T07:59:23.991Z</time></trkpt><trkpt lat="43.3810817" lon="13.2461333"><ele>269.0</ele><time>2026-03-22T07:59:24.99Z</time></trkpt><trkpt lat="43.3811817" lon="13.246125"><ele>269.0</ele><time>2026-03-22T07:59:25.993Z</time></trkpt><trkpt lat="43.381255" lon="13.24606"><ele>269.0</ele><time>2026-03-22T07:59:26.992Z</time></trkpt><trkpt lat="43.3813083" lon="13.2459733"><ele>269.0</ele><time>2026-03-22T07:59:27.99Z</time></trkpt><trkpt lat="43.3813333" lon="13.245875"><ele>269.0</ele><time>2026-03-22T07:59:28.992Z</time></trkpt><trkpt lat="43.3812583" lon="13.2457167"><ele>271.33333333333337</ele><time>2026-03-22T07:59:29.994Z</time></trkpt><trkpt lat="43.3811667" lon="13.2455333"><ele>273.6666666666667</ele><time>2026-03-22T07:59:30.992Z</time></trkpt><trkpt lat="43.3810633" lon="13.2453417"><ele>276.0</ele><time>2026-03-22T07:59:31.993Z</time></trkpt><trkpt lat="43.380955" lon="13.2451367"><ele>276.0</ele><time>2026-03-22T07:59:32.994Z</time></trkpt><trkpt lat="43.3808417" lon="13.2449183"><ele>276.0</ele><time>2026-03-22T07:59:33.993Z</time></trkpt><trkpt lat="43.3807267" lon="13.2446933"><ele>276.0</ele><time>2026-03-22T07:59:34.996Z</time></trkpt><trkpt lat="43.38061" lon="13.2444583"><ele>277.3333333333333</ele><time>2026-03-22T07:59:35.995Z</time></trkpt><trkpt lat="43.3805083" lon="13.244205"><ele>278.66666666666663</ele><time>2026-03-22T07:59:36.991Z</time></trkpt><trkpt lat="43.3804233" lon="13.2439333"><ele>280.0</ele><time>2026-03-22T07:59:37.992Z</time></trkpt><trkpt lat="43.3803567" lon="13.2436383"><ele>280.0</ele><time>2026-03-22T07:59:38.994Z</time></trkpt><trkpt lat="43.3803" lon="13.2433317"><ele>280.0</ele><time>2026-03-22T07:59:39.992Z</time></trkpt><trkpt lat="43.380255" lon="13.243015"><ele>283.66666666666663</ele><time>2026-03-22T07:59:40.992Z</time></trkpt><trkpt lat="43.3802217" lon="13.242715"><ele>287.3333333333333</ele><time>2026-03-22T07:59:41.994Z</time></trkpt><trkpt lat="43.3801867" lon="13.24244"><ele>291.0</ele><time>2026-03-22T07:59:42.994Z</time></trkpt><trkpt lat="43.3801317" lon="13.2421983"><ele>293.0</ele><time>2026-03-22T07:59:43.993Z</time></trkpt><trkpt lat="43.3800567" lon="13.2419967"><ele>295.0</ele><time>2026-03-22T07:59:44.992Z</time></trkpt><trkpt lat="43.3799583" lon="13.241825"><ele>297.0</ele><time>2026-03-22T07:59:45.992Z</time></trkpt><trkpt lat="43.3798383" lon="13.2416517"><ele>297.6666666666667</ele><time>2026-03-22T07:59:46.993Z</time></trkpt><trkpt lat="43.3797033" lon="13.2414633"><ele>298.33333333333337</ele><time>2026-03-22T07:59:47.992Z</time></trkpt><trkpt lat="43.3795617" lon="13.2412417"><ele>299.0</ele><time>2026-03-22T07:59:48.992Z</time></trkpt><trkpt lat="43.3794283" lon="13.2410283"><ele>300.6666666666667</ele><time>2026-03-22T07:59:49.995Z</time></trkpt><trkpt lat="43.3793067" lon="13.2408333"><ele>302.3333333333333</ele><time>2026-03-22T07:59:50.993Z</time></trkpt><trkpt lat="43.3792017" lon="13.2406567"><ele>304.0</ele><time>2026-03-22T07:59:51.993Z</time></trkpt><trkpt lat="43.3791233" lon="13.2404733"><ele>306.0</ele><time>2026-03-22T07:59:52.99Z</time></trkpt><trkpt lat="43.37908" lon="13.2402783"><ele>308.0</ele><time>2026-03-22T07:59:53.991Z</time></trkpt><trkpt lat="43.3790533" lon="13.2400717"><ele>310.0</ele><time>2026-03-22T07:59:54.992Z</time></trkpt><trkpt lat="43.3790483" lon="13.2398417"><ele>311.5</ele><time>2026-03-22T07:59:55.989Z</time></trkpt><trkpt lat="43.379045" lon="13.2396"><ele>313.0</ele><time>2026-03-22T07:59:56.99Z</time></trkpt><trkpt lat="43.379025" lon="13.2394033"><ele>314.5</ele><time>2026-03-22T07:59:57.991Z</time></trkpt><trkpt lat="43.3790083" lon="13.2392433"><ele>316.0</ele><time>2026-03-22T07:59:58.992Z</time></trkpt><trkpt lat="43.379" lon="13.2391167"><ele>316.00000000000006</ele><time>2026-03-22T07:59:59.995Z</time></trkpt><trkpt lat="43.37899" lon="13.239015"><ele>316.0</ele><time>2026-03-22T08:00:00.987Z</time></trkpt><trkpt lat="43.3789783" lon="13.2389283"><ele>316.0</ele><time>2026-03-22T08:00:01.988Z</time></trkpt><trkpt lat="43.378935" lon="13.239005"><ele>316.0</ele><time>2026-03-22T08:11:23.988Z</time></trkpt><trkpt lat="43.378955" lon="13.2391317"><ele>316.0</ele><time>2026-03-22T08:11:25.991Z</time></trkpt><trkpt lat="43.3789683" lon="13.2392167"><ele>316.00000000000006</ele><time>2026-03-22T08:11:26.993Z</time></trkpt><trkpt lat="43.3789783" lon="13.2393133"><ele>316.0</ele><time>2026-03-22T08:11:27.99Z</time></trkpt><trkpt lat="43.37899" lon="13.2394233"><ele>316.0</ele><time>2026-03-22T08:11:28.99Z</time></trkpt><trkpt lat="43.3790033" lon="13.2395417"><ele>316.0</ele><time>2026-03-22T08:11:29.99Z</time></trkpt><trkpt lat="43.3790183" lon="13.2396617"><ele>316.0</ele><time>2026-03-22T08:11:30.991Z</time></trkpt><trkpt lat="43.3790283" lon="13.2397717"><ele>316.0</ele><time>2026-03-22T08:11:31.991Z</time></trkpt><trkpt lat="43.3790367" lon="13.2398767"><ele>316.0</ele><time>2026-03-22T08:11:32.992Z</time></trkpt><trkpt lat="43.3790483" lon="13.2399883"><ele>316.0</ele><time>2026-03-22T08:11:33.992Z</time></trkpt><trkpt lat="43.3790533" lon="13.24011"><ele>314.8</ele><time>2026-03-22T08:11:34.99Z</time></trkpt><trkpt lat="43.3790717" lon="13.2402417"><ele>313.6</ele><time>2026-03-22T08:11:35.989Z</time></trkpt><trkpt lat="43.3790867" lon="13.2403833"><ele>312.4</ele><time>2026-03-22T08:11:36.991Z</time></trkpt><trkpt lat="43.3791217" lon="13.2405317"><ele>311.2</ele><time>2026-03-22T08:11:37.993Z</time></trkpt><trkpt lat="43.3791767" lon="13.2406733"><ele>310.0</ele><time>2026-03-22T08:11:38.996Z</time></trkpt><trkpt lat="43.3792517" lon="13.2408083"><ele>308.5</ele><time>2026-03-22T08:11:39.992Z</time></trkpt><trkpt lat="43.3793383" lon="13.2409383"><ele>307.0</ele><time>2026-03-22T08:11:40.992Z</time></trkpt><trkpt lat="43.379425" lon="13.2410733"><ele>305.5</ele><time>2026-03-22T08:11:41.992Z</time></trkpt><trkpt lat="43.3795133" lon="13.2412117"><ele>304.0</ele><time>2026-03-22T08:11:42.988Z</time></trkpt><trkpt lat="43.3796067" lon="13.2413483"><ele>302.25</ele><time>2026-03-22T08:11:43.994Z</time></trkpt><trkpt lat="43.3797" lon="13.241485"><ele>300.5</ele><time>2026-03-22T08:11:44.991Z</time></trkpt><trkpt lat="43.37979" lon="13.24162"><ele>298.75</ele><time>2026-03-22T08:11:45.992Z</time></trkpt><trkpt lat="43.3798833" lon="13.24176"><ele>297.0</ele><time>2026-03-22T08:11:46.996Z</time></trkpt><trkpt lat="43.3799783" lon="13.2419"><ele>297.0</ele><time>2026-03-22T08:11:47.988Z</time></trkpt><trkpt lat="43.3800667" lon="13.2420517"><ele>297.0</ele><time>2026-03-22T08:11:48.992Z</time></trkpt><trkpt lat="43.38012" lon="13.24222"><ele>297.0</ele><time>2026-03-22T08:11:49.991Z</time></trkpt><trkpt lat="43.3801567" lon="13.24241"><ele>297.0</ele><time>2026-03-22T08:11:50.993Z</time></trkpt><trkpt lat="43.3801833" lon="13.2426117"><ele>295.0</ele><time>2026-03-22T08:11:51.991Z</time></trkpt><trkpt lat="43.38021" lon="13.242815"><ele>293.0</ele><time>2026-03-22T08:11:52.99Z</time></trkpt><trkpt lat="43.3802383" lon="13.2430283"><ele>291.0</ele><time>2026-03-22T08:11:53.99Z</time></trkpt><trkpt lat="43.3802733" lon="13.2432367"><ele>287.3333333333333</ele><time>2026-03-22T08:11:54.991Z</time></trkpt><trkpt lat="43.380315" lon="13.2434467"><ele>283.66666666666663</ele><time>2026-03-22T08:11:55.992Z</time></trkpt><trkpt lat="43.3803567" lon="13.2436517"><ele>280.0</ele><time>2026-03-22T08:11:56.994Z</time></trkpt><trkpt lat="43.3803983" lon="13.2438567"><ele>282.3333333333333</ele><time>2026-03-22T08:11:57.991Z</time></trkpt><trkpt lat="43.3804433" lon="13.2440633"><ele>284.6666666666667</ele><time>2026-03-22T08:11:58.993Z</time></trkpt><trkpt lat="43.3805017" lon="13.2442783"><ele>287.0</ele><time>2026-03-22T08:11:59.993Z</time></trkpt><trkpt lat="43.3805733" lon="13.24448"><ele>287.0</ele><time>2026-03-22T08:12:00.992Z</time></trkpt><trkpt lat="43.3806617" lon="13.2446683"><ele>287.0</ele><time>2026-03-22T08:12:01.992Z</time></trkpt><trkpt lat="43.3807567" lon="13.24484"><ele>287.0</ele><time>2026-03-22T08:12:02.994Z</time></trkpt><trkpt lat="43.3808517" lon="13.2450133"><ele>284.25</ele><time>2026-03-22T08:12:03.993Z</time></trkpt><trkpt lat="43.38094" lon="13.245185"><ele>281.5</ele><time>2026-03-22T08:12:04.99Z</time></trkpt><trkpt lat="43.3810233" lon="13.2453533"><ele>278.75</ele><time>2026-03-22T08:12:05.993Z</time></trkpt><trkpt lat="43.3811" lon="13.2455083"><ele>276.0</ele><time>2026-03-22T08:12:06.994Z</time></trkpt><trkpt lat="43.38117" lon="13.245645"><ele>276.2</ele><time>2026-03-22T08:12:07.992Z</time></trkpt><trkpt lat="43.381225" lon="13.2457667"><ele>276.40000000000003</ele><time>2026-03-22T08:12:08.992Z</time></trkpt><trkpt lat="43.3812667" lon="13.2458833"><ele>276.6</ele><time>2026-03-22T08:12:09.992Z</time></trkpt><trkpt lat="43.3813033" lon="13.246"><ele>276.8</ele><time>2026-03-22T08:12:10.992Z</time></trkpt><trkpt lat="43.38135" lon="13.24612"><ele>277.0</ele><time>2026-03-22T08:12:11.992Z</time></trkpt><trkpt lat="43.381425" lon="13.2462333"><ele>277.0</ele><time>2026-03-22T08:12:12.988Z</time></trkpt><trkpt lat="43.3815083" lon="13.2463483"><ele>277.0</ele><time>2026-03-22T08:12:13.993Z</time></trkpt><trkpt lat="43.3815817" lon="13.2464717"><ele>277.0</ele><time>2026-03-22T08:12:14.992Z</time></trkpt><trkpt lat="43.3816333" lon="13.2466217"><ele>277.0</ele><time>2026-03-22T08:12:15.989Z</time></trkpt><trkpt lat="43.3816733" lon="13.2467967"><ele>274.66666666666663</ele><time>2026-03-22T08:12:16.99Z</time></trkpt><trkpt lat="43.3817083" lon="13.2469917"><ele>272.3333333333333</ele><time>2026-03-22T08:12:17.994Z</time></trkpt><trkpt lat="43.3817417" lon="13.2472033"><ele>270.0</ele><time>2026-03-22T08:12:18.992Z</time></trkpt><trkpt lat="43.3817783" lon="13.2474217"><ele>269.0</ele><time>2026-03-22T08:12:19.992Z</time></trkpt><trkpt lat="43.3818117" lon="13.2476533"><ele>268.0</ele><time>2026-03-22T08:12:20.993Z</time></trkpt><trkpt lat="43.3818533" lon="13.2478967"><ele>267.0</ele><time>2026-03-22T08:12:21.99Z</time></trkpt><trkpt lat="43.3819033" lon="13.2481483"><ele>265.6666666666667</ele><time>2026-03-22T08:12:22.99Z</time></trkpt><trkpt lat="43.381955" lon="13.2483967"><ele>264.33333333333337</ele><time>2026-03-22T08:12:23.992Z</time></trkpt><trkpt lat="43.38201" lon="13.248655"><ele>263.0</ele><time>2026-03-22T08:12:24.994Z</time></trkpt><trkpt lat="43.3820683" lon="13.24891"><ele>261.6666666666667</ele><time>2026-03-22T08:12:25.992Z</time></trkpt><trkpt lat="43.3821333" lon="13.24916"><ele>260.3333333333333</ele><time>2026-03-22T08:12:26.992Z</time></trkpt><trkpt lat="43.3821833" lon="13.24941"><ele>259.0</ele><time>2026-03-22T08:12:27.99Z</time></trkpt><trkpt lat="43.3822317" lon="13.2496633"><ele>258.0</ele><time>2026-03-22T08:12:28.99Z</time></trkpt><trkpt lat="43.382275" lon="13.2499183"><ele>257.0</ele><time>2026-03-22T08:12:29.99Z</time></trkpt><trkpt lat="43.38231" lon="13.2501767"><ele>256.0</ele><time>2026-03-22T08:12:30.99Z</time></trkpt><trkpt lat="43.3823467" lon="13.2504367"><ele>257.0</ele><time>2026-03-22T08:12:31.99Z</time></trkpt><trkpt lat="43.382385" lon="13.2507"><ele>258.0</ele><time>2026-03-22T08:12:32.993Z</time></trkpt><trkpt lat="43.3824233" lon="13.250965"><ele>259.0</ele><time>2026-03-22T08:12:33.991Z</time></trkpt><trkpt lat="43.3824617" lon="13.2512267"><ele>259.66666666666663</ele><time>2026-03-22T08:12:34.995Z</time></trkpt><trkpt lat="43.3825" lon="13.2514867"><ele>260.3333333333333</ele><time>2026-03-22T08:12:35.991Z</time></trkpt><trkpt lat="43.3825367" lon="13.2517417"><ele>261.0</ele><time>2026-03-22T08:12:36.991Z</time></trkpt><trkpt lat="43.3825667" lon="13.2520017"><ele>261.0</ele><time>2026-03-22T08:12:37.995Z</time></trkpt><trkpt lat="43.382585" lon="13.25226"><ele>261.0</ele><time>2026-03-22T08:12:38.994Z</time></trkpt><trkpt lat="43.3825817" lon="13.25252"><ele>261.0</ele><time>2026-03-22T08:12:39.991Z</time></trkpt><trkpt lat="43.382555" lon="13.2527733"><ele>260.0</ele><time>2026-03-22T08:12:40.986Z</time></trkpt><trkpt lat="43.382515" lon="13.253025"><ele>259.0</ele><time>2026-03-22T08:12:41.995Z</time></trkpt><trkpt lat="43.3824617" lon="13.2532733"><ele>258.0</ele><time>2026-03-22T08:12:42.99Z</time></trkpt><trkpt lat="43.3824017" lon="13.2535133"><ele>257.3333333333333</ele><time>2026-03-22T08:12:43.994Z</time></trkpt><trkpt lat="43.38234" lon="13.2537583"><ele>256.66666666666663</ele><time>2026-03-22T08:12:44.992Z</time></trkpt><trkpt lat="43.38227" lon="13.2540083"><ele>256.0</ele><time>2026-03-22T08:12:45.994Z</time></trkpt><trkpt lat="43.3822033" lon="13.2542633"><ele>252.0</ele><time>2026-03-22T08:12:46.993Z</time></trkpt><trkpt lat="43.3821383" lon="13.2545183"><ele>248.0</ele><time>2026-03-22T08:12:47.995Z</time></trkpt><trkpt lat="43.382085" lon="13.2547833"><ele>244.0</ele><time>2026-03-22T08:12:48.994Z</time></trkpt><trkpt lat="43.3820567" lon="13.2550533"><ele>242.66666666666666</ele><time>2026-03-22T08:12:49.991Z</time></trkpt><trkpt lat="43.3820567" lon="13.25532"><ele>241.33333333333331</ele><time>2026-03-22T08:12:50.997Z</time></trkpt><trkpt lat="43.38208" lon="13.2555867"><ele>240.0</ele><time>2026-03-22T08:12:51.992Z</time></trkpt><trkpt lat="43.3821133" lon="13.2558533"><ele>240.66666666666669</ele><time>2026-03-22T08:12:52.99Z</time></trkpt><trkpt lat="43.3821517" lon="13.256125"><ele>241.33333333333334</ele><time>2026-03-22T08:12:53.992Z</time></trkpt><trkpt lat="43.3821917" lon="13.2563983"><ele>242.0</ele><time>2026-03-22T08:12:54.987Z</time></trkpt><trkpt lat="43.3822317" lon="13.256675"><ele>240.66666666666669</ele><time>2026-03-22T08:12:55.991Z</time></trkpt><trkpt lat="43.38227" lon="13.2569533"><ele>239.33333333333331</ele><time>2026-03-22T08:12:56.995Z</time></trkpt><trkpt lat="43.3823067" lon="13.2572383"><ele>238.0</ele><time>2026-03-22T08:12:57.991Z</time></trkpt><trkpt lat="43.3823417" lon="13.2575217"><ele>236.33333333333331</ele><time>2026-03-22T08:12:58.991Z</time></trkpt><trkpt lat="43.3823833" lon="13.2578017"><ele>234.66666666666669</ele><time>2026-03-22T08:12:59.99Z</time></trkpt><trkpt lat="43.38242" lon="13.2580817"><ele>233.0</ele><time>2026-03-22T08:13:00.992Z</time></trkpt><trkpt lat="43.3824617" lon="13.2583617"><ele>232.33333333333334</ele><time>2026-03-22T08:13:01.994Z</time></trkpt><trkpt lat="43.3825" lon="13.258645"><ele>231.66666666666669</ele><time>2026-03-22T08:13:02.992Z</time></trkpt><trkpt lat="43.3825417" lon="13.258935"><ele>231.0</ele><time>2026-03-22T08:13:03.992Z</time></trkpt><trkpt lat="43.382585" lon="13.2592267"><ele>230.0</ele><time>2026-03-22T08:13:04.994Z</time></trkpt><trkpt lat="43.38263" lon="13.2595167"><ele>229.0</ele><time>2026-03-22T08:13:05.992Z</time></trkpt><trkpt lat="43.3826833" lon="13.2598067"><ele>228.0</ele><time>2026-03-22T08:13:06.988Z</time></trkpt><trkpt lat="43.3827567" lon="13.2600883"><ele>228.0</ele><time>2026-03-22T08:13:07.991Z</time></trkpt><trkpt lat="43.3828417" lon="13.2603667"><ele>228.0</ele><time>2026-03-22T08:13:08.994Z</time></trkpt><trkpt lat="43.38293" lon="13.260645"><ele>228.0</ele><time>2026-03-22T08:13:09.993Z</time></trkpt><trkpt lat="43.38302" lon="13.2609167"><ele>228.66666666666669</ele><time>2026-03-22T08:13:10.994Z</time></trkpt><trkpt lat="43.3831083" lon="13.2611933"><ele>229.33333333333334</ele><time>2026-03-22T08:13:11.99Z</time></trkpt><trkpt lat="43.3831983" lon="13.2614717"><ele>230.0</ele><time>2026-03-22T08:13:12.992Z</time></trkpt><trkpt lat="43.3832883" lon="13.26175"><ele>231.66666666666669</ele><time>2026-03-22T08:13:13.993Z</time></trkpt><trkpt lat="43.3833783" lon="13.2620283"><ele>233.33333333333331</ele><time>2026-03-22T08:13:14.992Z</time></trkpt><trkpt lat="43.3834683" lon="13.2623083"><ele>235.0</ele><time>2026-03-22T08:13:15.992Z</time></trkpt><trkpt lat="43.3835567" lon="13.2625883"><ele>235.0</ele><time>2026-03-22T08:13:16.992Z</time></trkpt><trkpt lat="43.3836467" lon="13.2628717"><ele>235.0</ele><time>2026-03-22T08:13:17.99Z</time></trkpt><trkpt lat="43.3837367" lon="13.26315"><ele>235.0</ele><time>2026-03-22T08:13:18.992Z</time></trkpt><trkpt lat="43.3838233" lon="13.2634317"><ele>233.0</ele><time>2026-03-22T08:13:19.991Z</time></trkpt><trkpt lat="43.3839117" lon="13.26371"><ele>231.0</ele><time>2026-03-22T08:13:20.994Z</time></trkpt><trkpt lat="43.3839983" lon="13.2639917"><ele>229.0</ele><time>2026-03-22T08:13:21.993Z</time></trkpt><trkpt lat="43.38409" lon="13.2642733"><ele>228.5</ele><time>2026-03-22T08:13:22.994Z</time></trkpt><trkpt lat="43.3841783" lon="13.2645567"><ele>228.0</ele><time>2026-03-22T08:13:23.992Z</time></trkpt><trkpt lat="43.3842683" lon="13.2648417"><ele>227.5</ele><time>2026-03-22T08:13:24.992Z</time></trkpt><trkpt lat="43.3843583" lon="13.2651267"><ele>227.0</ele><time>2026-03-22T08:13:25.992Z</time></trkpt><trkpt lat="43.38445" lon="13.26541"><ele>226.5</ele><time>2026-03-22T08:13:26.994Z</time></trkpt><trkpt lat="43.38454" lon="13.265695"><ele>226.0</ele><time>2026-03-22T08:13:27.992Z</time></trkpt><trkpt lat="43.38463" lon="13.26598"><ele>225.0</ele><time>2026-03-22T08:13:28.992Z</time></trkpt><trkpt lat="43.3847183" lon="13.2662633"><ele>224.0</ele><time>2026-03-22T08:13:29.995Z</time></trkpt><trkpt lat="43.384805" lon="13.2665467"><ele>223.0</ele><time>2026-03-22T08:13:30.993Z</time></trkpt><trkpt lat="43.3848917" lon="13.2668317"><ele>223.0</ele><time>2026-03-22T08:13:31.991Z</time></trkpt><trkpt lat="43.38498" lon="13.2671133"><ele>223.0</ele><time>2026-03-22T08:13:32.992Z</time></trkpt><trkpt lat="43.3850683" lon="13.2673967"><ele>223.0</ele><time>2026-03-22T08:13:33.992Z</time></trkpt><trkpt lat="43.3851567" lon="13.26768"><ele>223.0</ele><time>2026-03-22T08:13:34.991Z</time></trkpt><trkpt lat="43.385245" lon="13.267965"><ele>223.0</ele><time>2026-03-22T08:13:35.993Z</time></trkpt><trkpt lat="43.3853333" lon="13.2682433"><ele>223.0</ele><time>2026-03-22T08:13:36.992Z</time></trkpt><trkpt lat="43.38542" lon="13.2685267"><ele>222.33333333333331</ele><time>2026-03-22T08:13:37.992Z</time></trkpt><trkpt lat="43.3855083" lon="13.2688083"><ele>221.66666666666669</ele><time>2026-03-22T08:13:38.994Z</time></trkpt><trkpt lat="43.3855967" lon="13.2690883"><ele>221.0</ele><time>2026-03-22T08:13:39.995Z</time></trkpt><trkpt lat="43.385685" lon="13.2693683"><ele>220.33333333333334</ele><time>2026-03-22T08:13:40.991Z</time></trkpt><trkpt lat="43.385775" lon="13.26965"><ele>219.66666666666669</ele><time>2026-03-22T08:13:41.993Z</time></trkpt><trkpt lat="43.385865" lon="13.2699317"><ele>219.0</ele><time>2026-03-22T08:13:42.994Z</time></trkpt><trkpt lat="43.3859533" lon="13.27021"><ele>218.33333333333331</ele><time>2026-03-22T08:13:43.995Z</time></trkpt><trkpt lat="43.38604" lon="13.27049"><ele>217.66666666666666</ele><time>2026-03-22T08:13:44.995Z</time></trkpt><trkpt lat="43.3861267" lon="13.2707733"><ele>217.0</ele><time>2026-03-22T08:13:45.992Z</time></trkpt><trkpt lat="43.386215" lon="13.2710583"><ele>216.0</ele><time>2026-03-22T08:13:46.992Z</time></trkpt><trkpt lat="43.386305" lon="13.2713467"><ele>215.0</ele><time>2026-03-22T08:13:47.992Z</time></trkpt><trkpt lat="43.386395" lon="13.271635"><ele>213.66666666666669</ele><time>2026-03-22T08:13:48.998Z</time></trkpt><trkpt lat="43.3864833" lon="13.27192"><ele>212.33333333333331</ele><time>2026-03-22T08:13:49.991Z</time></trkpt><trkpt lat="43.3865783" lon="13.2721983"><ele>211.0</ele><time>2026-03-22T08:13:50.997Z</time></trkpt><trkpt lat="43.3866867" lon="13.2724683"><ele>209.33333333333331</ele><time>2026-03-22T08:13:51.995Z</time></trkpt><trkpt lat="43.3868083" lon="13.272725"><ele>207.66666666666669</ele><time>2026-03-22T08:13:52.991Z</time></trkpt><trkpt lat="43.3869367" lon="13.2729733"><ele>206.0</ele><time>2026-03-22T08:13:53.993Z</time></trkpt><trkpt lat="43.3870667" lon="13.2732083"><ele>205.33333333333334</ele><time>2026-03-22T08:13:54.993Z</time></trkpt><trkpt lat="43.3871983" lon="13.273435"><ele>204.66666666666669</ele><time>2026-03-22T08:13:55.993Z</time></trkpt><trkpt lat="43.3873383" lon="13.2736483"><ele>204.0</ele><time>2026-03-22T08:13:56.994Z</time></trkpt><trkpt lat="43.3875033" lon="13.2738383"><ele>201.66666666666669</ele><time>2026-03-22T08:13:57.995Z</time></trkpt><trkpt lat="43.3876883" lon="13.2739983"><ele>199.33333333333334</ele><time>2026-03-22T08:13:58.993Z</time></trkpt><trkpt lat="43.3878833" lon="13.2741367"><ele>197.0</ele><time>2026-03-22T08:13:59.994Z</time></trkpt><trkpt lat="43.38808" lon="13.2742717"><ele>197.0</ele><time>2026-03-22T08:14:00.993Z</time></trkpt><trkpt lat="43.3882767" lon="13.2744033"><ele>197.0</ele><time>2026-03-22T08:14:01.992Z</time></trkpt><trkpt lat="43.3884783" lon="13.274535"><ele>197.0</ele><time>2026-03-22T08:14:02.995Z</time></trkpt><trkpt lat="43.3886733" lon="13.2746633"><ele>195.33333333333334</ele><time>2026-03-22T08:14:03.99Z</time></trkpt><trkpt lat="43.3888667" lon="13.27479"><ele>193.66666666666669</ele><time>2026-03-22T08:14:04.992Z</time></trkpt><trkpt lat="43.38905" lon="13.2749317"><ele>192.0</ele><time>2026-03-22T08:14:05.993Z</time></trkpt><trkpt lat="43.3892217" lon="13.2750917"><ele>192.0</ele><time>2026-03-22T08:14:06.994Z</time></trkpt><trkpt lat="43.3893617" lon="13.27529"><ele>192.0</ele><time>2026-03-22T08:14:07.994Z</time></trkpt><trkpt lat="43.3894883" lon="13.2755183"><ele>192.0</ele><time>2026-03-22T08:14:08.994Z</time></trkpt><trkpt lat="43.3896" lon="13.2757667"><ele>190.66666666666666</ele><time>2026-03-22T08:14:09.993Z</time></trkpt><trkpt lat="43.38972" lon="13.27602"><ele>189.33333333333331</ele><time>2026-03-22T08:14:10.992Z</time></trkpt><trkpt lat="43.3898583" lon="13.276265"><ele>188.0</ele><time>2026-03-22T08:14:11.996Z</time></trkpt><trkpt lat="43.390005" lon="13.2765033"><ele>185.0</ele><time>2026-03-22T08:14:12.992Z</time></trkpt><trkpt lat="43.3901533" lon="13.276735"><ele>182.0</ele><time>2026-03-22T08:14:13.992Z</time></trkpt><trkpt lat="43.3903117" lon="13.276945"><ele>179.0</ele><time>2026-03-22T08:14:14.992Z</time></trkpt><trkpt lat="43.3904633" lon="13.2771267"><ele>177.0</ele><time>2026-03-22T08:14:15.993Z</time></trkpt><trkpt lat="43.3906083" lon="13.2772767"><ele>175.0</ele><time>2026-03-22T08:14:16.992Z</time></trkpt><trkpt lat="43.3907533" lon="13.2774017"><ele>173.0</ele><time>2026-03-22T08:14:17.988Z</time></trkpt><trkpt lat="43.3909033" lon="13.2775267"><ele>173.0</ele><time>2026-03-22T08:14:18.992Z</time></trkpt><trkpt lat="43.3910533" lon="13.2776733"><ele>173.0</ele><time>2026-03-22T08:14:19.991Z</time></trkpt><trkpt lat="43.3912" lon="13.2778467"><ele>173.0</ele><time>2026-03-22T08:14:20.995Z</time></trkpt><trkpt lat="43.391345" lon="13.2780383"><ele>171.66666666666666</ele><time>2026-03-22T08:14:21.99Z</time></trkpt><trkpt lat="43.39149" lon="13.2782417"><ele>170.33333333333334</ele><time>2026-03-22T08:14:22.991Z</time></trkpt><trkpt lat="43.3916333" lon="13.2784517"><ele>169.0</ele><time>2026-03-22T08:14:23.994Z</time></trkpt><trkpt lat="43.3917783" lon="13.2786617"><ele>169.0</ele><time>2026-03-22T08:14:24.995Z</time></trkpt><trkpt lat="43.39192" lon="13.278885"><ele>169.0</ele><time>2026-03-22T08:14:25.995Z</time></trkpt><trkpt lat="43.3920417" lon="13.2791217"><ele>169.0</ele><time>2026-03-22T08:14:26.995Z</time></trkpt><trkpt lat="43.3921417" lon="13.2793833"><ele>167.33333333333334</ele><time>2026-03-22T08:14:27.993Z</time></trkpt><trkpt lat="43.3922383" lon="13.2796533"><ele>165.66666666666666</ele><time>2026-03-22T08:14:28.989Z</time></trkpt><trkpt lat="43.3923467" lon="13.2799217"><ele>164.0</ele><time>2026-03-22T08:14:29.993Z</time></trkpt><trkpt lat="43.39246" lon="13.2801883"><ele>163.5</ele><time>2026-03-22T08:14:30.992Z</time></trkpt><trkpt lat="43.3925817" lon="13.2804517"><ele>163.0</ele><time>2026-03-22T08:14:31.993Z</time></trkpt><trkpt lat="43.3927033" lon="13.2807133"><ele>162.5</ele><time>2026-03-22T08:14:32.991Z</time></trkpt><trkpt lat="43.39283" lon="13.28098"><ele>162.0</ele><time>2026-03-22T08:14:33.992Z</time></trkpt><trkpt lat="43.3929583" lon="13.2812483"><ele>159.0</ele><time>2026-03-22T08:14:34.991Z</time></trkpt><trkpt lat="43.393085" lon="13.2815183"><ele>156.0</ele><time>2026-03-22T08:14:35.993Z</time></trkpt><trkpt lat="43.3932117" lon="13.2817817"><ele>156.0</ele><time>2026-03-22T08:14:36.992Z</time></trkpt><trkpt lat="43.39334" lon="13.2820467"><ele>156.0</ele><time>2026-03-22T08:14:37.993Z</time></trkpt><trkpt lat="43.3934667" lon="13.28231"><ele>156.0</ele><time>2026-03-22T08:14:38.995Z</time></trkpt><trkpt lat="43.3935917" lon="13.2825733"><ele>156.0</ele><time>2026-03-22T08:14:39.993Z</time></trkpt><trkpt lat="43.3937167" lon="13.2828333"><ele>156.0</ele><time>2026-03-22T08:14:40.991Z</time></trkpt><trkpt lat="43.3938367" lon="13.2830917"><ele>156.0</ele><time>2026-03-22T08:14:41.992Z</time></trkpt><trkpt lat="43.3939583" lon="13.2833517"><ele>156.0</ele><time>2026-03-22T08:14:42.995Z</time></trkpt><trkpt lat="43.3940833" lon="13.28361"><ele>155.0</ele><time>2026-03-22T08:14:43.994Z</time></trkpt><trkpt lat="43.3942067" lon="13.28387"><ele>154.0</ele><time>2026-03-22T08:14:44.99Z</time></trkpt><trkpt lat="43.39433" lon="13.28413"><ele>153.5</ele><time>2026-03-22T08:14:45.993Z</time></trkpt><trkpt lat="43.3944567" lon="13.2843917"><ele>153.0</ele><time>2026-03-22T08:14:46.993Z</time></trkpt><trkpt lat="43.3945817" lon="13.2846533"><ele>152.0</ele><time>2026-03-22T08:14:47.993Z</time></trkpt><trkpt lat="43.394705" lon="13.2849167"><ele>151.0</ele><time>2026-03-22T08:14:48.991Z</time></trkpt><trkpt lat="43.3948283" lon="13.2851783"><ele>151.0</ele><time>2026-03-22T08:14:49.991Z</time></trkpt><trkpt lat="43.3949483" lon="13.285435"><ele>151.0</ele><time>2026-03-22T08:14:50.994Z</time></trkpt><trkpt lat="43.3950533" lon="13.2857"><ele>151.0</ele><time>2026-03-22T08:14:51.992Z</time></trkpt><trkpt lat="43.395125" lon="13.2859733"><ele>149.66666666666669</ele><time>2026-03-22T08:14:52.993Z</time></trkpt><trkpt lat="43.3951733" lon="13.286255"><ele>148.33333333333334</ele><time>2026-03-22T08:14:53.991Z</time></trkpt><trkpt lat="43.3952183" lon="13.286545"><ele>147.0</ele><time>2026-03-22T08:14:54.991Z</time></trkpt><trkpt lat="43.3952633" lon="13.28684"><ele>147.0</ele><time>2026-03-22T08:14:55.992Z</time></trkpt><trkpt lat="43.3953117" lon="13.2871417"><ele>147.0</ele><time>2026-03-22T08:14:56.994Z</time></trkpt><trkpt lat="43.39536" lon="13.2874467"><ele>145.5</ele><time>2026-03-22T08:14:57.991Z</time></trkpt><trkpt lat="43.3954083" lon="13.287755"><ele>144.0</ele><time>2026-03-22T08:14:58.991Z</time></trkpt><trkpt lat="43.39546" lon="13.28806"><ele>146.5</ele><time>2026-03-22T08:14:59.994Z</time></trkpt><trkpt lat="43.3955117" lon="13.2883667"><ele>149.0</ele><time>2026-03-22T08:15:00.991Z</time></trkpt><trkpt lat="43.39556" lon="13.288675"><ele>147.0</ele><time>2026-03-22T08:15:01.993Z</time></trkpt><trkpt lat="43.39561" lon="13.288985"><ele>145.0</ele><time>2026-03-22T08:15:02.994Z</time></trkpt><trkpt lat="43.3956633" lon="13.2892983"><ele>145.0</ele><time>2026-03-22T08:15:03.992Z</time></trkpt><trkpt lat="43.3957167" lon="13.2896083"><ele>145.0</ele><time>2026-03-22T08:15:04.99Z</time></trkpt><trkpt lat="43.3957733" lon="13.28992"><ele>145.0</ele><time>2026-03-22T08:15:05.993Z</time></trkpt><trkpt lat="43.3958383" lon="13.2902283"><ele>145.0</ele><time>2026-03-22T08:15:06.994Z</time></trkpt><trkpt lat="43.3959017" lon="13.2905317"><ele>143.0</ele><time>2026-03-22T08:15:07.991Z</time></trkpt><trkpt lat="43.395965" lon="13.290835"><ele>141.0</ele><time>2026-03-22T08:15:08.994Z</time></trkpt><trkpt lat="43.3960267" lon="13.2911333"><ele>141.0</ele><time>2026-03-22T08:15:09.993Z</time></trkpt><trkpt lat="43.3960867" lon="13.2914233"><ele>141.0</ele><time>2026-03-22T08:15:10.992Z</time></trkpt><trkpt lat="43.3961483" lon="13.2917083"><ele>141.0</ele><time>2026-03-22T08:15:11.993Z</time></trkpt><trkpt lat="43.3962083" lon="13.2919917"><ele>140.33333333333334</ele><time>2026-03-22T08:15:12.991Z</time></trkpt><trkpt lat="43.39627" lon="13.292275"><ele>139.66666666666669</ele><time>2026-03-22T08:15:13.995Z</time></trkpt><trkpt lat="43.3963317" lon="13.2925633"><ele>139.0</ele><time>2026-03-22T08:15:14.994Z</time></trkpt><trkpt lat="43.396395" lon="13.29285"><ele>137.33333333333334</ele><time>2026-03-22T08:15:15.991Z</time></trkpt><trkpt lat="43.3964583" lon="13.2931267"><ele>135.66666666666666</ele><time>2026-03-22T08:15:16.992Z</time></trkpt><trkpt lat="43.3965183" lon="13.293395"><ele>134.0</ele><time>2026-03-22T08:15:17.991Z</time></trkpt><trkpt lat="43.3965767" lon="13.293655"><ele>134.0</ele><time>2026-03-22T08:15:18.991Z</time></trkpt><trkpt lat="43.39663" lon="13.2939067"><ele>134.0</ele><time>2026-03-22T08:15:19.996Z</time></trkpt><trkpt lat="43.396685" lon="13.2941533"><ele>134.0</ele><time>2026-03-22T08:15:20.992Z</time></trkpt><trkpt lat="43.396745" lon="13.29439"><ele>132.66666666666666</ele><time>2026-03-22T08:15:22Z</time></trkpt><trkpt lat="43.3968267" lon="13.294615"><ele>131.33333333333334</ele><time>2026-03-22T08:15:22.991Z</time></trkpt><trkpt lat="43.3969333" lon="13.2948217"><ele>130.0</ele><time>2026-03-22T08:15:23.993Z</time></trkpt><trkpt lat="43.3970617" lon="13.2949933"><ele>128.0</ele><time>2026-03-22T08:15:24.992Z</time></trkpt><trkpt lat="43.397195" lon="13.29514"><ele>126.0</ele><time>2026-03-22T08:15:25.991Z</time></trkpt><trkpt lat="43.3973267" lon="13.295275"><ele>124.0</ele><time>2026-03-22T08:15:26.992Z</time></trkpt><trkpt lat="43.39745" lon="13.2954067"><ele>124.0</ele><time>2026-03-22T08:15:27.992Z</time></trkpt><trkpt lat="43.3975683" lon="13.2955417"><ele>124.0</ele><time>2026-03-22T08:15:28.991Z</time></trkpt><trkpt lat="43.397665" lon="13.29569"><ele>124.0</ele><time>2026-03-22T08:15:29.992Z</time></trkpt><trkpt lat="43.397725" lon="13.2958533"><ele>124.0</ele><time>2026-03-22T08:15:30.99Z</time></trkpt><trkpt lat="43.397725" lon="13.2960317"><ele>124.0</ele><time>2026-03-22T08:15:31.992Z</time></trkpt><trkpt lat="43.3976817" lon="13.296235"><ele>124.0</ele><time>2026-03-22T08:15:32.991Z</time></trkpt><trkpt lat="43.3976167" lon="13.2964533"><ele>124.0</ele><time>2026-03-22T08:15:33.992Z</time></trkpt><trkpt lat="43.3975433" lon="13.2966817"><ele>125.66666666666667</ele><time>2026-03-22T08:15:34.989Z</time></trkpt><trkpt lat="43.3974617" lon="13.2969167"><ele>127.33333333333334</ele><time>2026-03-22T08:15:35.992Z</time></trkpt><trkpt lat="43.3973817" lon="13.2971567"><ele>129.0</ele><time>2026-03-22T08:15:36.995Z</time></trkpt><trkpt lat="43.3972983" lon="13.2973933"><ele>129.33333333333334</ele><time>2026-03-22T08:15:37.992Z</time></trkpt><trkpt lat="43.3972183" lon="13.2976283"><ele>129.66666666666669</ele><time>2026-03-22T08:15:38.992Z</time></trkpt><trkpt lat="43.3971283" lon="13.2978583"><ele>130.0</ele><time>2026-03-22T08:15:39.991Z</time></trkpt><trkpt lat="43.397045" lon="13.2981"><ele>130.0</ele><time>2026-03-22T08:15:40.989Z</time></trkpt><trkpt lat="43.3969567" lon="13.2983417"><ele>130.0</ele><time>2026-03-22T08:15:41.993Z</time></trkpt><trkpt lat="43.3968767" lon="13.298595"><ele>130.0</ele><time>2026-03-22T08:15:42.993Z</time></trkpt><trkpt lat="43.3967983" lon="13.2988383"><ele>130.66666666666669</ele><time>2026-03-22T08:15:43.994Z</time></trkpt><trkpt lat="43.39673" lon="13.2990933"><ele>131.33333333333334</ele><time>2026-03-22T08:15:44.993Z</time></trkpt><trkpt lat="43.39667" lon="13.29936"><ele>132.0</ele><time>2026-03-22T08:15:45.992Z</time></trkpt><trkpt lat="43.396615" lon="13.2996383"><ele>132.33333333333334</ele><time>2026-03-22T08:15:46.993Z</time></trkpt><trkpt lat="43.3965683" lon="13.2999233"><ele>132.66666666666669</ele><time>2026-03-22T08:15:47.995Z</time></trkpt><trkpt lat="43.3965217" lon="13.300205"><ele>133.0</ele><time>2026-03-22T08:15:48.992Z</time></trkpt><trkpt lat="43.3964733" lon="13.3004833"><ele>132.66666666666669</ele><time>2026-03-22T08:15:49.992Z</time></trkpt><trkpt lat="43.3964267" lon="13.3007617"><ele>132.33333333333334</ele><time>2026-03-22T08:15:50.99Z</time></trkpt><trkpt lat="43.3963833" lon="13.301045"><ele>132.0</ele><time>2026-03-22T08:15:51.993Z</time></trkpt><trkpt lat="43.3963417" lon="13.3013317"><ele>129.66666666666666</ele><time>2026-03-22T08:15:52.991Z</time></trkpt><trkpt lat="43.3963017" lon="13.3016183"><ele>127.33333333333333</ele><time>2026-03-22T08:15:53.99Z</time></trkpt><trkpt lat="43.3962717" lon="13.3019083"><ele>125.0</ele><time>2026-03-22T08:15:54.991Z</time></trkpt><trkpt lat="43.3962467" lon="13.3022017"><ele>124.66666666666666</ele><time>2026-03-22T08:15:55.992Z</time></trkpt><trkpt lat="43.3962233" lon="13.3024883"><ele>124.33333333333334</ele><time>2026-03-22T08:15:56.994Z</time></trkpt><trkpt lat="43.396205" lon="13.3027867"><ele>124.0</ele><time>2026-03-22T08:15:57.992Z</time></trkpt><trkpt lat="43.396185" lon="13.303075"><ele>124.33333333333334</ele><time>2026-03-22T08:15:58.992Z</time></trkpt><trkpt lat="43.3961617" lon="13.303365"><ele>124.66666666666666</ele><time>2026-03-22T08:15:59.993Z</time></trkpt><trkpt lat="43.396145" lon="13.3036617"><ele>125.0</ele><time>2026-03-22T08:16:00.993Z</time></trkpt><trkpt lat="43.396125" lon="13.3039583"><ele>126.0</ele><time>2026-03-22T08:16:01.991Z</time></trkpt><trkpt lat="43.3961" lon="13.30425"><ele>127.0</ele><time>2026-03-22T08:16:02.992Z</time></trkpt><trkpt lat="43.3960767" lon="13.3045417"><ele>128.0</ele><time>2026-03-22T08:16:03.997Z</time></trkpt><trkpt lat="43.3960533" lon="13.3048367"><ele>128.33333333333331</ele><time>2026-03-22T08:16:04.991Z</time></trkpt><trkpt lat="43.3960317" lon="13.3051267"><ele>128.66666666666666</ele><time>2026-03-22T08:16:05.993Z</time></trkpt><trkpt lat="43.3960133" lon="13.3054167"><ele>129.0</ele><time>2026-03-22T08:16:06.996Z</time></trkpt><trkpt lat="43.395995" lon="13.3057133"><ele>128.33333333333334</ele><time>2026-03-22T08:16:07.992Z</time></trkpt><trkpt lat="43.3959733" lon="13.3060133"><ele>127.66666666666667</ele><time>2026-03-22T08:16:08.998Z</time></trkpt><trkpt lat="43.3959567" lon="13.3063117"><ele>127.0</ele><time>2026-03-22T08:16:09.991Z</time></trkpt><trkpt lat="43.395935" lon="13.3066067"><ele>126.33333333333334</ele><time>2026-03-22T08:16:10.991Z</time></trkpt><trkpt lat="43.3959117" lon="13.3069017"><ele>125.66666666666666</ele><time>2026-03-22T08:16:11.992Z</time></trkpt><trkpt lat="43.3958867" lon="13.3072"><ele>125.0</ele><time>2026-03-22T08:16:12.993Z</time></trkpt><trkpt lat="43.3958583" lon="13.3074983"><ele>124.0</ele><time>2026-03-22T08:16:13.994Z</time></trkpt><trkpt lat="43.395835" lon="13.3078"><ele>123.0</ele><time>2026-03-22T08:16:14.994Z</time></trkpt><trkpt lat="43.395815" lon="13.3080967"><ele>122.0</ele><time>2026-03-22T08:16:15.99Z</time></trkpt><trkpt lat="43.3957967" lon="13.3083933"><ele>122.0</ele><time>2026-03-22T08:16:16.993Z</time></trkpt><trkpt lat="43.3957783" lon="13.3086933"><ele>122.0</ele><time>2026-03-22T08:16:17.994Z</time></trkpt><trkpt lat="43.39576" lon="13.3089917"><ele>122.0</ele><time>2026-03-22T08:16:18.991Z</time></trkpt><trkpt lat="43.3957383" lon="13.3092883"><ele>122.0</ele><time>2026-03-22T08:16:19.99Z</time></trkpt><trkpt lat="43.3957117" lon="13.3095817"><ele>122.0</ele><time>2026-03-22T08:16:20.994Z</time></trkpt><trkpt lat="43.3956667" lon="13.309865"><ele>122.0</ele><time>2026-03-22T08:16:21.992Z</time></trkpt><trkpt lat="43.3956117" lon="13.310145"><ele>121.66666666666666</ele><time>2026-03-22T08:16:22.995Z</time></trkpt><trkpt lat="43.39554" lon="13.3104267"><ele>121.33333333333334</ele><time>2026-03-22T08:16:23.994Z</time></trkpt><trkpt lat="43.3954667" lon="13.3107083"><ele>121.0</ele><time>2026-03-22T08:16:24.993Z</time></trkpt><trkpt lat="43.3954017" lon="13.3109883"><ele>119.33333333333334</ele><time>2026-03-22T08:16:25.992Z</time></trkpt><trkpt lat="43.3953383" lon="13.3112633"><ele>117.66666666666666</ele><time>2026-03-22T08:16:26.996Z</time></trkpt><trkpt lat="43.3952833" lon="13.3115383"><ele>116.0</ele><time>2026-03-22T08:16:27.991Z</time></trkpt><trkpt lat="43.3952267" lon="13.3118133"><ele>116.0</ele><time>2026-03-22T08:16:28.993Z</time></trkpt><trkpt lat="43.3951717" lon="13.31209"><ele>116.0</ele><time>2026-03-22T08:16:29.993Z</time></trkpt><trkpt lat="43.3951117" lon="13.3123583"><ele>116.0</ele><time>2026-03-22T08:16:30.991Z</time></trkpt><trkpt lat="43.3950383" lon="13.3126267"><ele>115.66666666666666</ele><time>2026-03-22T08:16:31.99Z</time></trkpt><trkpt lat="43.39496" lon="13.3128883"><ele>115.33333333333334</ele><time>2026-03-22T08:16:32.993Z</time></trkpt><trkpt lat="43.3948817" lon="13.3131533"><ele>115.0</ele><time>2026-03-22T08:16:33.99Z</time></trkpt><trkpt lat="43.3948183" lon="13.3134217"><ele>115.0</ele><time>2026-03-22T08:16:34.996Z</time></trkpt><trkpt lat="43.3947783" lon="13.3136967"><ele>115.0</ele><time>2026-03-22T08:16:35.993Z</time></trkpt><trkpt lat="43.394765" lon="13.31398"><ele>115.0</ele><time>2026-03-22T08:16:36.992Z</time></trkpt><trkpt lat="43.3947683" lon="13.3142583"><ele>114.0</ele><time>2026-03-22T08:16:37.993Z</time></trkpt><trkpt lat="43.3947767" lon="13.3145317"><ele>113.0</ele><time>2026-03-22T08:16:38.991Z</time></trkpt><trkpt lat="43.3947833" lon="13.3147883"><ele>112.0</ele><time>2026-03-22T08:16:39.993Z</time></trkpt><trkpt lat="43.3947983" lon="13.3150317"><ele>111.66666666666667</ele><time>2026-03-22T08:16:40.99Z</time></trkpt><trkpt lat="43.394835" lon="13.3152567"><ele>111.33333333333334</ele><time>2026-03-22T08:16:41.991Z</time></trkpt><trkpt lat="43.3949067" lon="13.315455"><ele>111.0</ele><time>2026-03-22T08:16:42.993Z</time></trkpt><trkpt lat="43.3950183" lon="13.3156317"><ele>110.0</ele><time>2026-03-22T08:16:43.99Z</time></trkpt><trkpt lat="43.3951583" lon="13.3157967"><ele>109.0</ele><time>2026-03-22T08:16:44.992Z</time></trkpt><trkpt lat="43.395305" lon="13.31597"><ele>108.0</ele><time>2026-03-22T08:16:45.994Z</time></trkpt><trkpt lat="43.3954467" lon="13.3161633"><ele>108.66666666666666</ele><time>2026-03-22T08:16:46.991Z</time></trkpt><trkpt lat="43.39559" lon="13.316365"><ele>109.33333333333333</ele><time>2026-03-22T08:16:47.993Z</time></trkpt><trkpt lat="43.395735" lon="13.3165683"><ele>110.0</ele><time>2026-03-22T08:16:48.994Z</time></trkpt><trkpt lat="43.395885" lon="13.31677"><ele>110.0</ele><time>2026-03-22T08:16:49.992Z</time></trkpt><trkpt lat="43.3960367" lon="13.3169733"><ele>110.0</ele><time>2026-03-22T08:16:50.993Z</time></trkpt><trkpt lat="43.3961883" lon="13.317175"><ele>110.0</ele><time>2026-03-22T08:16:51.995Z</time></trkpt><trkpt lat="43.3963433" lon="13.317375"><ele>109.0</ele><time>2026-03-22T08:16:52.993Z</time></trkpt><trkpt lat="43.3964983" lon="13.3175733"><ele>108.0</ele><time>2026-03-22T08:16:53.994Z</time></trkpt><trkpt lat="43.3966483" lon="13.3177683"><ele>107.0</ele><time>2026-03-22T08:16:54.993Z</time></trkpt><trkpt lat="43.39679" lon="13.31796"><ele>106.0</ele><time>2026-03-22T08:16:55.995Z</time></trkpt><trkpt lat="43.3969183" lon="13.3181433"><ele>105.0</ele><time>2026-03-22T08:16:56.992Z</time></trkpt><trkpt lat="43.39703" lon="13.3183233"><ele>104.0</ele><time>2026-03-22T08:16:57.993Z</time></trkpt><trkpt lat="43.3971267" lon="13.3185083"><ele>104.0</ele><time>2026-03-22T08:16:58.993Z</time></trkpt><trkpt lat="43.3972067" lon="13.318685"><ele>104.0</ele><time>2026-03-22T08:16:59.991Z</time></trkpt><trkpt lat="43.397275" lon="13.318845"><ele>104.0</ele><time>2026-03-22T08:17:00.993Z</time></trkpt><trkpt lat="43.3973367" lon="13.318995"><ele>104.0</ele><time>2026-03-22T08:17:01.991Z</time></trkpt><trkpt lat="43.3973933" lon="13.3191317"><ele>104.4</ele><time>2026-03-22T08:17:02.992Z</time></trkpt><trkpt lat="43.397445" lon="13.3192533"><ele>104.80000000000001</ele><time>2026-03-22T08:17:03.986Z</time></trkpt><trkpt lat="43.3975017" lon="13.3193567"><ele>105.19999999999999</ele><time>2026-03-22T08:17:04.988Z</time></trkpt><trkpt lat="43.397575" lon="13.3194383"><ele>105.6</ele><time>2026-03-22T08:17:05.989Z</time></trkpt><trkpt lat="43.3976733" lon="13.3194867"><ele>106.0</ele><time>2026-03-22T08:17:06.991Z</time></trkpt><trkpt lat="43.39779" lon="13.3195083"><ele>106.0</ele><time>2026-03-22T08:17:07.992Z</time></trkpt><trkpt lat="43.3979283" lon="13.3195283"><ele>106.0</ele><time>2026-03-22T08:17:08.992Z</time></trkpt><trkpt lat="43.3980833" lon="13.31957"><ele>106.0</ele><time>2026-03-22T08:17:09.994Z</time></trkpt><trkpt lat="43.3982417" lon="13.3196267"><ele>107.0</ele><time>2026-03-22T08:17:10.998Z</time></trkpt><trkpt lat="43.39841" lon="13.3196967"><ele>108.0</ele><time>2026-03-22T08:17:11.989Z</time></trkpt><trkpt lat="43.3985933" lon="13.3197733"><ele>109.0</ele><time>2026-03-22T08:17:12.991Z</time></trkpt><trkpt lat="43.3987817" lon="13.319855"><ele>110.66666666666667</ele><time>2026-03-22T08:17:13.991Z</time></trkpt><trkpt lat="43.3989733" lon="13.3199333"><ele>112.33333333333334</ele><time>2026-03-22T08:17:14.994Z</time></trkpt><trkpt lat="43.3991683" lon="13.32001"><ele>114.0</ele><time>2026-03-22T08:17:15.994Z</time></trkpt><trkpt lat="43.399365" lon="13.320075"><ele>114.0</ele><time>2026-03-22T08:17:16.99Z</time></trkpt><trkpt lat="43.399565" lon="13.3201117"><ele>114.0</ele><time>2026-03-22T08:17:17.992Z</time></trkpt><trkpt lat="43.399775" lon="13.3201283"><ele>114.0</ele><time>2026-03-22T08:17:18.994Z</time></trkpt><trkpt lat="43.3999817" lon="13.3201267"><ele>116.66666666666666</ele><time>2026-03-22T08:17:19.992Z</time></trkpt><trkpt lat="43.40019" lon="13.32012"><ele>119.33333333333333</ele><time>2026-03-22T08:17:20.994Z</time></trkpt><trkpt lat="43.4003967" lon="13.3201167"><ele>122.0</ele><time>2026-03-22T08:17:21.994Z</time></trkpt><trkpt lat="43.400595" lon="13.3201117"><ele>126.66666666666666</ele><time>2026-03-22T08:17:22.992Z</time></trkpt><trkpt lat="43.4007883" lon="13.3201017"><ele>131.33333333333334</ele><time>2026-03-22T08:17:23.996Z</time></trkpt><trkpt lat="43.400975" lon="13.320085"><ele>136.0</ele><time>2026-03-22T08:17:24.994Z</time></trkpt><trkpt lat="43.4011483" lon="13.320065"><ele>136.0</ele><time>2026-03-22T08:17:25.992Z</time></trkpt><trkpt lat="43.40132" lon="13.32005"><ele>136.0</ele><time>2026-03-22T08:17:26.994Z</time></trkpt><trkpt lat="43.4015" lon="13.3200333"><ele>136.0</ele><time>2026-03-22T08:17:27.991Z</time></trkpt><trkpt lat="43.40169" lon="13.3200217"><ele>138.66666666666669</ele><time>2026-03-22T08:17:28.994Z</time></trkpt><trkpt lat="43.4018833" lon="13.320015"><ele>141.33333333333334</ele><time>2026-03-22T08:17:29.989Z</time></trkpt><trkpt lat="43.40208" lon="13.3200083"><ele>144.0</ele><time>2026-03-22T08:17:30.992Z</time></trkpt><trkpt lat="43.40228" lon="13.3199967"><ele>145.33333333333334</ele><time>2026-03-22T08:17:31.993Z</time></trkpt><trkpt lat="43.40248" lon="13.3199867"><ele>146.66666666666669</ele><time>2026-03-22T08:17:32.994Z</time></trkpt><trkpt lat="43.4026783" lon="13.319975"><ele>148.0</ele><time>2026-03-22T08:17:33.992Z</time></trkpt><trkpt lat="43.402875" lon="13.3199583"><ele>148.0</ele><time>2026-03-22T08:17:34.992Z</time></trkpt><trkpt lat="43.4030717" lon="13.3199417"><ele>148.0</ele><time>2026-03-22T08:17:35.993Z</time></trkpt><trkpt lat="43.403265" lon="13.319925"><ele>148.0</ele><time>2026-03-22T08:17:36.993Z</time></trkpt><trkpt lat="43.4034617" lon="13.3199133"><ele>148.0</ele><time>2026-03-22T08:17:37.993Z</time></trkpt><trkpt lat="43.40366" lon="13.3199033"><ele>148.0</ele><time>2026-03-22T08:17:38.997Z</time></trkpt><trkpt lat="43.403855" lon="13.3198933"><ele>148.0</ele><time>2026-03-22T08:17:39.992Z</time></trkpt><trkpt lat="43.4040517" lon="13.3198817"><ele>148.33333333333334</ele><time>2026-03-22T08:17:40.99Z</time></trkpt><trkpt lat="43.404245" lon="13.31987"><ele>148.66666666666666</ele><time>2026-03-22T08:17:41.99Z</time></trkpt><trkpt lat="43.4044383" lon="13.31986"><ele>149.0</ele><time>2026-03-22T08:17:42.993Z</time></trkpt><trkpt lat="43.4046383" lon="13.3198517"><ele>150.0</ele><time>2026-03-22T08:17:43.994Z</time></trkpt><trkpt lat="43.404845" lon="13.31984"><ele>151.0</ele><time>2026-03-22T08:17:44.992Z</time></trkpt><trkpt lat="43.405055" lon="13.31983"><ele>152.0</ele><time>2026-03-22T08:17:45.993Z</time></trkpt><trkpt lat="43.405265" lon="13.3198217"><ele>152.0</ele><time>2026-03-22T08:17:46.995Z</time></trkpt><trkpt lat="43.40547" lon="13.3198117"><ele>152.0</ele><time>2026-03-22T08:17:47.994Z</time></trkpt><trkpt lat="43.4056717" lon="13.3198"><ele>152.0</ele><time>2026-03-22T08:17:48.994Z</time></trkpt><trkpt lat="43.4058717" lon="13.319785"><ele>152.66666666666666</ele><time>2026-03-22T08:17:49.987Z</time></trkpt><trkpt lat="43.406075" lon="13.3197667"><ele>153.33333333333334</ele><time>2026-03-22T08:17:50.991Z</time></trkpt><trkpt lat="43.406275" lon="13.3197433"><ele>154.0</ele><time>2026-03-22T08:17:51.987Z</time></trkpt><trkpt lat="43.4064817" lon="13.31972"><ele>154.0</ele><time>2026-03-22T08:17:52.99Z</time></trkpt><trkpt lat="43.4066917" lon="13.319695"><ele>154.0</ele><time>2026-03-22T08:17:53.992Z</time></trkpt><trkpt lat="43.4069017" lon="13.31967"><ele>154.0</ele><time>2026-03-22T08:17:54.991Z</time></trkpt><trkpt lat="43.4071083" lon="13.3196433"><ele>156.0</ele><time>2026-03-22T08:17:55.993Z</time></trkpt><trkpt lat="43.4073167" lon="13.3196167"><ele>158.0</ele><time>2026-03-22T08:17:56.996Z</time></trkpt><trkpt lat="43.4075167" lon="13.3195883"><ele>160.0</ele><time>2026-03-22T08:17:57.998Z</time></trkpt><trkpt lat="43.4077167" lon="13.3195617"><ele>160.0</ele><time>2026-03-22T08:17:58.99Z</time></trkpt><trkpt lat="43.4079033" lon="13.319535"><ele>160.0</ele><time>2026-03-22T08:17:59.993Z</time></trkpt><trkpt lat="43.40808" lon="13.31951"><ele>160.0</ele><time>2026-03-22T08:18:00.995Z</time></trkpt><trkpt lat="43.4082483" lon="13.3194867"><ele>162.66666666666669</ele><time>2026-03-22T08:18:01.991Z</time></trkpt><trkpt lat="43.4084167" lon="13.3194567"><ele>165.33333333333334</ele><time>2026-03-22T08:18:02.993Z</time></trkpt><trkpt lat="43.4085867" lon="13.3194233"><ele>168.0</ele><time>2026-03-22T08:18:03.988Z</time></trkpt><trkpt lat="43.40877" lon="13.31939"><ele>167.66666666666666</ele><time>2026-03-22T08:18:04.992Z</time></trkpt><trkpt lat="43.4089633" lon="13.31935"><ele>167.33333333333331</ele><time>2026-03-22T08:18:06.001Z</time></trkpt><trkpt lat="43.4091667" lon="13.3193"><ele>167.0</ele><time>2026-03-22T08:18:06.994Z</time></trkpt><trkpt lat="43.40938" lon="13.31925"><ele>167.0</ele><time>2026-03-22T08:18:07.993Z</time></trkpt><trkpt lat="43.409595" lon="13.3192"><ele>167.0</ele><time>2026-03-22T08:18:08.995Z</time></trkpt><trkpt lat="43.409815" lon="13.3191467"><ele>167.0</ele><time>2026-03-22T08:18:09.995Z</time></trkpt><trkpt lat="43.410035" lon="13.31909"><ele>166.66666666666666</ele><time>2026-03-22T08:18:10.994Z</time></trkpt><trkpt lat="43.4102533" lon="13.3190333"><ele>166.33333333333334</ele><time>2026-03-22T08:18:11.994Z</time></trkpt><trkpt lat="43.4104683" lon="13.3189783"><ele>166.0</ele><time>2026-03-22T08:18:12.993Z</time></trkpt><trkpt lat="43.4106783" lon="13.3189267"><ele>165.33333333333334</ele><time>2026-03-22T08:18:13.993Z</time></trkpt><trkpt lat="43.4108867" lon="13.3188783"><ele>164.66666666666666</ele><time>2026-03-22T08:18:14.998Z</time></trkpt><trkpt lat="43.4110883" lon="13.31883"><ele>164.0</ele><time>2026-03-22T08:18:15.994Z</time></trkpt><trkpt lat="43.4112883" lon="13.3187767"><ele>166.66666666666666</ele><time>2026-03-22T08:18:16.992Z</time></trkpt><trkpt lat="43.41148" lon="13.3187167"><ele>169.33333333333334</ele><time>2026-03-22T08:18:17.99Z</time></trkpt><trkpt lat="43.4116633" lon="13.3186267"><ele>172.0</ele><time>2026-03-22T08:18:18.993Z</time></trkpt><trkpt lat="43.4118333" lon="13.31851"><ele>172.0</ele><time>2026-03-22T08:18:19.989Z</time></trkpt><trkpt lat="43.4119967" lon="13.3183967"><ele>172.0</ele><time>2026-03-22T08:18:20.993Z</time></trkpt><trkpt lat="43.412155" lon="13.3182983"><ele>172.0</ele><time>2026-03-22T08:18:21.993Z</time></trkpt><trkpt lat="43.4123083" lon="13.3182183"><ele>173.5</ele><time>2026-03-22T08:18:22.994Z</time></trkpt><trkpt lat="43.4124583" lon="13.3181583"><ele>175.0</ele><time>2026-03-22T08:18:23.995Z</time></trkpt><trkpt lat="43.412605" lon="13.31812"><ele>176.5</ele><time>2026-03-22T08:18:24.994Z</time></trkpt><trkpt lat="43.4127483" lon="13.3181267"><ele>178.0</ele><time>2026-03-22T08:18:25.991Z</time></trkpt><trkpt lat="43.4128833" lon="13.3181867"><ele>177.66666666666669</ele><time>2026-03-22T08:18:26.992Z</time></trkpt><trkpt lat="43.4130167" lon="13.3183217"><ele>177.33333333333334</ele><time>2026-03-22T08:18:27.99Z</time></trkpt><trkpt lat="43.4131433" lon="13.3185083"><ele>177.0</ele><time>2026-03-22T08:18:28.989Z</time></trkpt><trkpt lat="43.4132717" lon="13.3187"><ele>177.0</ele><time>2026-03-22T08:18:29.995Z</time></trkpt><trkpt lat="43.4134067" lon="13.3188933"><ele>177.0</ele><time>2026-03-22T08:18:30.993Z</time></trkpt><trkpt lat="43.4135433" lon="13.31908"><ele>177.0</ele><time>2026-03-22T08:18:31.994Z</time></trkpt><trkpt lat="43.4136783" lon="13.3192667"><ele>179.0</ele><time>2026-03-22T08:18:32.994Z</time></trkpt><trkpt lat="43.4138183" lon="13.3194567"><ele>181.0</ele><time>2026-03-22T08:18:33.99Z</time></trkpt><trkpt lat="43.4139683" lon="13.319645"><ele>183.0</ele><time>2026-03-22T08:18:34.991Z</time></trkpt><trkpt lat="43.4141183" lon="13.319835"><ele>183.33333333333334</ele><time>2026-03-22T08:18:35.993Z</time></trkpt><trkpt lat="43.4142733" lon="13.3200233"><ele>183.66666666666669</ele><time>2026-03-22T08:18:36.993Z</time></trkpt><trkpt lat="43.4144283" lon="13.3202133"><ele>184.0</ele><time>2026-03-22T08:18:37.997Z</time></trkpt><trkpt lat="43.4145817" lon="13.3204"><ele>185.33333333333334</ele><time>2026-03-22T08:18:38.994Z</time></trkpt><trkpt lat="43.4147333" lon="13.3205667"><ele>186.66666666666666</ele><time>2026-03-22T08:18:39.991Z</time></trkpt><trkpt lat="43.4148867" lon="13.3207067"><ele>188.0</ele><time>2026-03-22T08:18:40.991Z</time></trkpt><trkpt lat="43.4150517" lon="13.3208217"><ele>188.0</ele><time>2026-03-22T08:18:41.993Z</time></trkpt><trkpt lat="43.4152283" lon="13.3209283"><ele>188.0</ele><time>2026-03-22T08:18:42.99Z</time></trkpt><trkpt lat="43.4154117" lon="13.3210333"><ele>188.0</ele><time>2026-03-22T08:18:43.989Z</time></trkpt><trkpt lat="43.4156" lon="13.321135"><ele>187.0</ele><time>2026-03-22T08:18:44.992Z</time></trkpt><trkpt lat="43.4157817" lon="13.3212333"><ele>186.0</ele><time>2026-03-22T08:18:45.992Z</time></trkpt><trkpt lat="43.4159683" lon="13.3213367"><ele>185.0</ele><time>2026-03-22T08:18:46.991Z</time></trkpt><trkpt lat="43.41615" lon="13.3214383"><ele>184.33333333333331</ele><time>2026-03-22T08:18:47.995Z</time></trkpt><trkpt lat="43.4163333" lon="13.3215383"><ele>183.66666666666666</ele><time>2026-03-22T08:18:48.994Z</time></trkpt><trkpt lat="43.416525" lon="13.3216267"><ele>183.0</ele><time>2026-03-22T08:18:49.993Z</time></trkpt><trkpt lat="43.4167233" lon="13.3217"><ele>183.0</ele><time>2026-03-22T08:18:50.995Z</time></trkpt><trkpt lat="43.416925" lon="13.3217567"><ele>183.0</ele><time>2026-03-22T08:18:51.994Z</time></trkpt><trkpt lat="43.41713" lon="13.321805"><ele>183.0</ele><time>2026-03-22T08:18:52.996Z</time></trkpt><trkpt lat="43.4173383" lon="13.3218483"><ele>182.33333333333334</ele><time>2026-03-22T08:18:53.995Z</time></trkpt><trkpt lat="43.4175517" lon="13.3218783"><ele>181.66666666666669</ele><time>2026-03-22T08:18:54.994Z</time></trkpt><trkpt lat="43.4177667" lon="13.3218917"><ele>181.0</ele><time>2026-03-22T08:18:55.994Z</time></trkpt><trkpt lat="43.4179817" lon="13.3218883"><ele>181.33333333333334</ele><time>2026-03-22T08:18:56.991Z</time></trkpt><trkpt lat="43.4182" lon="13.321875"><ele>181.66666666666666</ele><time>2026-03-22T08:18:57.99Z</time></trkpt><trkpt lat="43.4184183" lon="13.3218583"><ele>182.0</ele><time>2026-03-22T08:18:58.989Z</time></trkpt><trkpt lat="43.418635" lon="13.3218383"><ele>182.66666666666666</ele><time>2026-03-22T08:18:59.993Z</time></trkpt><trkpt lat="43.41885" lon="13.3218117"><ele>183.33333333333334</ele><time>2026-03-22T08:19:00.993Z</time></trkpt><trkpt lat="43.4190533" lon="13.321775"><ele>184.0</ele><time>2026-03-22T08:19:01.993Z</time></trkpt><trkpt lat="43.4192517" lon="13.321735"><ele>184.0</ele><time>2026-03-22T08:19:02.989Z</time></trkpt><trkpt lat="43.4194483" lon="13.3216917"><ele>184.0</ele><time>2026-03-22T08:19:03.99Z</time></trkpt><trkpt lat="43.41964" lon="13.3216383"><ele>184.0</ele><time>2026-03-22T08:19:04.991Z</time></trkpt><trkpt lat="43.41982" lon="13.3215833"><ele>184.66666666666669</ele><time>2026-03-22T08:19:05.994Z</time></trkpt><trkpt lat="43.4199917" lon="13.321525"><ele>185.33333333333334</ele><time>2026-03-22T08:19:06.993Z</time></trkpt><trkpt lat="43.4201617" lon="13.3214683"><ele>186.0</ele><time>2026-03-22T08:19:07.991Z</time></trkpt><trkpt lat="43.4203267" lon="13.3214083"><ele>187.33333333333334</ele><time>2026-03-22T08:19:08.995Z</time></trkpt><trkpt lat="43.420495" lon="13.3213383"><ele>188.66666666666669</ele><time>2026-03-22T08:19:09.992Z</time></trkpt><trkpt lat="43.420665" lon="13.3212517"><ele>190.0</ele><time>2026-03-22T08:19:10.991Z</time></trkpt><trkpt lat="43.4208383" lon="13.3211517"><ele>190.0</ele><time>2026-03-22T08:19:11.993Z</time></trkpt><trkpt lat="43.4210117" lon="13.321045"><ele>190.0</ele><time>2026-03-22T08:19:12.994Z</time></trkpt><trkpt lat="43.421185" lon="13.320935"><ele>190.0</ele><time>2026-03-22T08:19:13.993Z</time></trkpt><trkpt lat="43.4213583" lon="13.3208233"><ele>189.33333333333334</ele><time>2026-03-22T08:19:14.994Z</time></trkpt><trkpt lat="43.4215267" lon="13.3207133"><ele>188.66666666666666</ele><time>2026-03-22T08:19:15.991Z</time></trkpt><trkpt lat="43.42168" lon="13.320605"><ele>188.0</ele><time>2026-03-22T08:19:16.989Z</time></trkpt><trkpt lat="43.4218267" lon="13.320505"><ele>189.0</ele><time>2026-03-22T08:19:17.991Z</time></trkpt><trkpt lat="43.4219633" lon="13.320415"><ele>190.0</ele><time>2026-03-22T08:19:18.993Z</time></trkpt><trkpt lat="43.4220867" lon="13.3203433"><ele>191.0</ele><time>2026-03-22T08:19:19.992Z</time></trkpt><trkpt lat="43.4222117" lon="13.3202983"><ele>192.0</ele><time>2026-03-22T08:19:20.994Z</time></trkpt><trkpt lat="43.42234" lon="13.3203"><ele>192.25</ele><time>2026-03-22T08:19:21.99Z</time></trkpt><trkpt lat="43.422465" lon="13.3203433"><ele>192.5</ele><time>2026-03-22T08:19:22.99Z</time></trkpt><trkpt lat="43.4225917" lon="13.32044"><ele>192.75</ele><time>2026-03-22T08:19:23.995Z</time></trkpt><trkpt lat="43.422725" lon="13.3205867"><ele>193.0</ele><time>2026-03-22T08:19:24.995Z</time></trkpt><trkpt lat="43.4228667" lon="13.3207567"><ele>195.33333333333331</ele><time>2026-03-22T08:19:25.992Z</time></trkpt><trkpt lat="43.42302" lon="13.3209083"><ele>197.66666666666669</ele><time>2026-03-22T08:19:26.995Z</time></trkpt><trkpt lat="43.4231767" lon="13.3210483"><ele>200.0</ele><time>2026-03-22T08:19:27.992Z</time></trkpt><trkpt lat="43.4233333" lon="13.3211883"><ele>200.0</ele><time>2026-03-22T08:19:28.993Z</time></trkpt><trkpt lat="43.4234917" lon="13.3213267"><ele>200.0</ele><time>2026-03-22T08:19:29.997Z</time></trkpt><trkpt lat="43.4236517" lon="13.321455"><ele>200.0</ele><time>2026-03-22T08:19:30.993Z</time></trkpt><trkpt lat="43.4238133" lon="13.32158"><ele>200.33333333333334</ele><time>2026-03-22T08:19:31.995Z</time></trkpt><trkpt lat="43.4239783" lon="13.3216833"><ele>200.66666666666669</ele><time>2026-03-22T08:19:32.994Z</time></trkpt><trkpt lat="43.4241517" lon="13.3217617"><ele>201.0</ele><time>2026-03-22T08:19:33.996Z</time></trkpt><trkpt lat="43.42433" lon="13.3218133"><ele>201.0</ele><time>2026-03-22T08:19:34.991Z</time></trkpt><trkpt lat="43.42451" lon="13.32184"><ele>201.0</ele><time>2026-03-22T08:19:35.992Z</time></trkpt><trkpt lat="43.424685" lon="13.32183"><ele>201.0</ele><time>2026-03-22T08:19:36.992Z</time></trkpt><trkpt lat="43.4248567" lon="13.3217867"><ele>202.0</ele><time>2026-03-22T08:19:37.994Z</time></trkpt><trkpt lat="43.4250333" lon="13.32172"><ele>203.0</ele><time>2026-03-22T08:19:38.993Z</time></trkpt><trkpt lat="43.4252133" lon="13.321645"><ele>204.0</ele><time>2026-03-22T08:19:39.991Z</time></trkpt><trkpt lat="43.4253933" lon="13.3215683"><ele>205.33333333333331</ele><time>2026-03-22T08:19:40.993Z</time></trkpt><trkpt lat="43.425575" lon="13.3214983"><ele>206.66666666666666</ele><time>2026-03-22T08:19:41.997Z</time></trkpt><trkpt lat="43.4257517" lon="13.321435"><ele>208.0</ele><time>2026-03-22T08:19:42.988Z</time></trkpt><trkpt lat="43.4259317" lon="13.3213667"><ele>208.33333333333331</ele><time>2026-03-22T08:19:43.988Z</time></trkpt><trkpt lat="43.4261083" lon="13.3213033"><ele>208.66666666666669</ele><time>2026-03-22T08:19:44.998Z</time></trkpt><trkpt lat="43.426285" lon="13.3212483"><ele>209.0</ele><time>2026-03-22T08:19:45.992Z</time></trkpt><trkpt lat="43.4264583" lon="13.3211867"><ele>210.66666666666669</ele><time>2026-03-22T08:19:46.992Z</time></trkpt><trkpt lat="43.4266317" lon="13.3211167"><ele>212.33333333333331</ele><time>2026-03-22T08:19:47.995Z</time></trkpt><trkpt lat="43.4268067" lon="13.321055"><ele>214.0</ele><time>2026-03-22T08:19:48.991Z</time></trkpt><trkpt lat="43.4269867" lon="13.32101"><ele>213.66666666666666</ele><time>2026-03-22T08:19:49.992Z</time></trkpt><trkpt lat="43.4271617" lon="13.3209983"><ele>213.33333333333331</ele><time>2026-03-22T08:19:50.995Z</time></trkpt><trkpt lat="43.42733" lon="13.3210267"><ele>213.0</ele><time>2026-03-22T08:19:51.991Z</time></trkpt><trkpt lat="43.4274983" lon="13.32109"><ele>213.0</ele><time>2026-03-22T08:19:52.993Z</time></trkpt><trkpt lat="43.4276683" lon="13.3211833"><ele>213.0</ele><time>2026-03-22T08:19:53.989Z</time></trkpt><trkpt lat="43.427835" lon="13.321285"><ele>213.0</ele><time>2026-03-22T08:19:54.995Z</time></trkpt><trkpt lat="43.427995" lon="13.3214083"><ele>213.0</ele><time>2026-03-22T08:19:55.994Z</time></trkpt><trkpt lat="43.4281533" lon="13.3215433"><ele>213.0</ele><time>2026-03-22T08:19:56.992Z</time></trkpt><trkpt lat="43.4283083" lon="13.321685"><ele>213.0</ele><time>2026-03-22T08:19:57.994Z</time></trkpt><trkpt lat="43.428465" lon="13.3218367"><ele>213.0</ele><time>2026-03-22T08:19:58.991Z</time></trkpt><trkpt lat="43.4286067" lon="13.3219983"><ele>213.0</ele><time>2026-03-22T08:19:59.993Z</time></trkpt><trkpt lat="43.4287367" lon="13.32217"><ele>213.0</ele><time>2026-03-22T08:20:00.991Z</time></trkpt><trkpt lat="43.42885" lon="13.322365"><ele>213.33333333333331</ele><time>2026-03-22T08:20:01.99Z</time></trkpt><trkpt lat="43.42895" lon="13.3225667"><ele>213.66666666666666</ele><time>2026-03-22T08:20:02.995Z</time></trkpt><trkpt lat="43.4290383" lon="13.3227567"><ele>214.0</ele><time>2026-03-22T08:20:03.991Z</time></trkpt><trkpt lat="43.4291283" lon="13.3229383"><ele>212.5</ele><time>2026-03-22T08:20:04.993Z</time></trkpt><trkpt lat="43.4292267" lon="13.3231"><ele>211.0</ele><time>2026-03-22T08:20:05.99Z</time></trkpt><trkpt lat="43.4293367" lon="13.323225"><ele>209.5</ele><time>2026-03-22T08:20:06.991Z</time></trkpt><trkpt lat="43.4294667" lon="13.3233217"><ele>208.0</ele><time>2026-03-22T08:20:07.989Z</time></trkpt><trkpt lat="43.4296267" lon="13.3233817"><ele>210.0</ele><time>2026-03-22T08:20:08.993Z</time></trkpt><trkpt lat="43.4298083" lon="13.3234267"><ele>212.0</ele><time>2026-03-22T08:20:09.989Z</time></trkpt><trkpt lat="43.4299983" lon="13.323475"><ele>214.0</ele><time>2026-03-22T08:20:10.992Z</time></trkpt><trkpt lat="43.4301933" lon="13.3235233"><ele>214.0</ele><time>2026-03-22T08:20:11.989Z</time></trkpt><trkpt lat="43.4303867" lon="13.3235717"><ele>214.0</ele><time>2026-03-22T08:20:12.991Z</time></trkpt><trkpt lat="43.4305717" lon="13.3236117"><ele>214.0</ele><time>2026-03-22T08:20:13.989Z</time></trkpt><trkpt lat="43.4307583" lon="13.323645"><ele>216.33333333333331</ele><time>2026-03-22T08:20:14.989Z</time></trkpt><trkpt lat="43.4309483" lon="13.3236817"><ele>218.66666666666669</ele><time>2026-03-22T08:20:15.992Z</time></trkpt><trkpt lat="43.43114" lon="13.3237183"><ele>221.0</ele><time>2026-03-22T08:20:16.992Z</time></trkpt><trkpt lat="43.4313333" lon="13.3237483"><ele>224.0</ele><time>2026-03-22T08:20:17.991Z</time></trkpt><trkpt lat="43.4315233" lon="13.323775"><ele>227.0</ele><time>2026-03-22T08:20:18.99Z</time></trkpt><trkpt lat="43.43172" lon="13.3238067"><ele>230.0</ele><time>2026-03-22T08:20:19.994Z</time></trkpt><trkpt lat="43.4319183" lon="13.3238383"><ele>230.0</ele><time>2026-03-22T08:20:20.995Z</time></trkpt><trkpt lat="43.4321033" lon="13.3238717"><ele>230.0</ele><time>2026-03-22T08:20:21.993Z</time></trkpt><trkpt lat="43.4322717" lon="13.32391"><ele>230.0</ele><time>2026-03-22T08:20:22.991Z</time></trkpt><trkpt lat="43.4324167" lon="13.3239633"><ele>231.75</ele><time>2026-03-22T08:20:23.994Z</time></trkpt><trkpt lat="43.4325383" lon="13.32404"><ele>233.5</ele><time>2026-03-22T08:20:24.991Z</time></trkpt><trkpt lat="43.43266" lon="13.3241383"><ele>235.25</ele><time>2026-03-22T08:20:25.99Z</time></trkpt><trkpt lat="43.4327817" lon="13.32424"><ele>237.0</ele><time>2026-03-22T08:20:26.992Z</time></trkpt><trkpt lat="43.4329017" lon="13.3243417"><ele>237.5</ele><time>2026-03-22T08:20:27.992Z</time></trkpt><trkpt lat="43.4330117" lon="13.324435"><ele>238.0</ele><time>2026-03-22T08:20:28.991Z</time></trkpt><trkpt lat="43.4331133" lon="13.32452"><ele>238.5</ele><time>2026-03-22T08:20:29.994Z</time></trkpt><trkpt lat="43.43321" lon="13.3246"><ele>239.0</ele><time>2026-03-22T08:20:30.991Z</time></trkpt><trkpt lat="43.4332933" lon="13.3246683"><ele>239.0</ele><time>2026-03-22T08:20:31.989Z</time></trkpt><trkpt lat="43.4333667" lon="13.3247183"><ele>238.99999999999997</ele><time>2026-03-22T08:20:32.992Z</time></trkpt><trkpt lat="43.4334267" lon="13.3247617"><ele>238.99999999999997</ele><time>2026-03-22T08:20:33.992Z</time></trkpt><trkpt lat="43.43351" lon="13.324845"><ele>239.0</ele><time>2026-03-22T08:20:35.994Z</time></trkpt><trkpt lat="43.43356" lon="13.325045"><ele>239.0</ele><time>2026-03-22T08:20:37.993Z</time></trkpt><trkpt lat="43.433585" lon="13.3252117"><ele>237.25</ele><time>2026-03-22T08:20:38.991Z</time></trkpt><trkpt lat="43.433615" lon="13.3253917"><ele>235.5</ele><time>2026-03-22T08:20:39.991Z</time></trkpt><trkpt lat="43.4336567" lon="13.3255867"><ele>233.75</ele><time>2026-03-22T08:20:40.991Z</time></trkpt><trkpt lat="43.4337033" lon="13.32579"><ele>232.0</ele><time>2026-03-22T08:20:41.988Z</time></trkpt><trkpt lat="43.4337533" lon="13.3260067"><ele>227.0</ele><time>2026-03-22T08:20:42.991Z</time></trkpt><trkpt lat="43.4338067" lon="13.3262333"><ele>222.0</ele><time>2026-03-22T08:20:43.991Z</time></trkpt><trkpt lat="43.43386" lon="13.326465"><ele>217.0</ele><time>2026-03-22T08:20:44.994Z</time></trkpt><trkpt lat="43.43391" lon="13.3266983"><ele>215.66666666666666</ele><time>2026-03-22T08:20:45.989Z</time></trkpt><trkpt lat="43.4339583" lon="13.3269383"><ele>214.33333333333331</ele><time>2026-03-22T08:20:46.991Z</time></trkpt><trkpt lat="43.4340083" lon="13.3271833"><ele>213.0</ele><time>2026-03-22T08:20:47.992Z</time></trkpt><trkpt lat="43.434045" lon="13.3274333"><ele>213.0</ele><time>2026-03-22T08:20:48.993Z</time></trkpt><trkpt lat="43.4340633" lon="13.3276833"><ele>213.0</ele><time>2026-03-22T08:20:49.993Z</time></trkpt><trkpt lat="43.4340717" lon="13.3279333"><ele>213.0</ele><time>2026-03-22T08:20:50.994Z</time></trkpt><trkpt lat="43.4340783" lon="13.32819"><ele>214.0</ele><time>2026-03-22T08:20:51.993Z</time></trkpt><trkpt lat="43.43408" lon="13.328445"><ele>215.0</ele><time>2026-03-22T08:20:52.989Z</time></trkpt><trkpt lat="43.434085" lon="13.3286917"><ele>216.0</ele><time>2026-03-22T08:20:53.99Z</time></trkpt><trkpt lat="43.4340817" lon="13.32893"><ele>216.0</ele><time>2026-03-22T08:20:54.99Z</time></trkpt><trkpt lat="43.4340767" lon="13.3291583"><ele>216.0</ele><time>2026-03-22T08:20:55.991Z</time></trkpt><trkpt lat="43.4340717" lon="13.3293883"><ele>216.0</ele><time>2026-03-22T08:20:56.992Z</time></trkpt><trkpt lat="43.434065" lon="13.32962"><ele>216.0</ele><time>2026-03-22T08:20:57.985Z</time></trkpt><trkpt lat="43.43405" lon="13.3298483"><ele>216.0</ele><time>2026-03-22T08:20:58.991Z</time></trkpt><trkpt lat="43.4340183" lon="13.33007"><ele>216.0</ele><time>2026-03-22T08:20:59.994Z</time></trkpt><trkpt lat="43.4339733" lon="13.33029"><ele>216.0</ele><time>2026-03-22T08:21:00.995Z</time></trkpt><trkpt lat="43.4339217" lon="13.3305133"><ele>216.0</ele><time>2026-03-22T08:21:01.99Z</time></trkpt><trkpt lat="43.43386" lon="13.3307267"><ele>216.0</ele><time>2026-03-22T08:21:02.994Z</time></trkpt><trkpt lat="43.4338" lon="13.3309417"><ele>216.0</ele><time>2026-03-22T08:21:03.993Z</time></trkpt><trkpt lat="43.43376" lon="13.3311683"><ele>216.0</ele><time>2026-03-22T08:21:04.994Z</time></trkpt><trkpt lat="43.43374" lon="13.3314067"><ele>216.0</ele><time>2026-03-22T08:21:05.993Z</time></trkpt><trkpt lat="43.4337383" lon="13.3316567"><ele>216.0</ele><time>2026-03-22T08:21:06.998Z</time></trkpt><trkpt lat="43.4337483" lon="13.331915"><ele>216.0</ele><time>2026-03-22T08:21:07.995Z</time></trkpt><trkpt lat="43.433755" lon="13.332175"><ele>216.0</ele><time>2026-03-22T08:21:08.991Z</time></trkpt><trkpt lat="43.43377" lon="13.3324317"><ele>217.0</ele><time>2026-03-22T08:21:09.995Z</time></trkpt><trkpt lat="43.43379" lon="13.3326833"><ele>218.0</ele><time>2026-03-22T08:21:10.992Z</time></trkpt><trkpt lat="43.4338183" lon="13.3329333"><ele>219.0</ele><time>2026-03-22T08:21:11.994Z</time></trkpt><trkpt lat="43.4338467" lon="13.3331817"><ele>221.0</ele><time>2026-03-22T08:21:12.996Z</time></trkpt><trkpt lat="43.4338767" lon="13.3334317"><ele>223.0</ele><time>2026-03-22T08:21:13.993Z</time></trkpt><trkpt lat="43.4339083" lon="13.33368"><ele>225.0</ele><time>2026-03-22T08:21:14.994Z</time></trkpt><trkpt lat="43.433935" lon="13.3339283"><ele>227.0</ele><time>2026-03-22T08:21:15.99Z</time></trkpt><trkpt lat="43.43396" lon="13.3341717"><ele>229.0</ele><time>2026-03-22T08:21:16.993Z</time></trkpt><trkpt lat="43.4339817" lon="13.3344133"><ele>231.0</ele><time>2026-03-22T08:21:17.991Z</time></trkpt><trkpt lat="43.433995" lon="13.334655"><ele>230.66666666666669</ele><time>2026-03-22T08:21:18.991Z</time></trkpt><trkpt lat="43.4340067" lon="13.3348933"><ele>230.33333333333334</ele><time>2026-03-22T08:21:19.993Z</time></trkpt><trkpt lat="43.4340233" lon="13.3351283"><ele>230.0</ele><time>2026-03-22T08:21:20.996Z</time></trkpt><trkpt lat="43.43404" lon="13.3353717"><ele>229.33333333333334</ele><time>2026-03-22T08:21:21.994Z</time></trkpt><trkpt lat="43.434055" lon="13.3356183"><ele>228.66666666666669</ele><time>2026-03-22T08:21:22.992Z</time></trkpt><trkpt lat="43.4340783" lon="13.3358633"><ele>228.0</ele><time>2026-03-22T08:21:23.996Z</time></trkpt><trkpt lat="43.4341033" lon="13.3361083"><ele>228.0</ele><time>2026-03-22T08:21:24.996Z</time></trkpt><trkpt lat="43.434135" lon="13.3363567"><ele>228.0</ele><time>2026-03-22T08:21:25.993Z</time></trkpt><trkpt lat="43.4341733" lon="13.336615"><ele>228.0</ele><time>2026-03-22T08:21:26.995Z</time></trkpt><trkpt lat="43.4342167" lon="13.3368733"><ele>226.66666666666669</ele><time>2026-03-22T08:21:27.993Z</time></trkpt><trkpt lat="43.434275" lon="13.3371283"><ele>225.33333333333334</ele><time>2026-03-22T08:21:28.991Z</time></trkpt><trkpt lat="43.4343417" lon="13.3373733"><ele>224.0</ele><time>2026-03-22T08:21:29.995Z</time></trkpt><trkpt lat="43.4344117" lon="13.3376083"><ele>222.33333333333334</ele><time>2026-03-22T08:21:30.993Z</time></trkpt><trkpt lat="43.4344783" lon="13.33783"><ele>220.66666666666669</ele><time>2026-03-22T08:21:31.992Z</time></trkpt><trkpt lat="43.4345433" lon="13.33804"><ele>219.0</ele><time>2026-03-22T08:21:32.995Z</time></trkpt><trkpt lat="43.4346083" lon="13.3382467"><ele>220.66666666666669</ele><time>2026-03-22T08:21:33.991Z</time></trkpt><trkpt lat="43.4346867" lon="13.33846"><ele>222.33333333333334</ele><time>2026-03-22T08:21:34.991Z</time></trkpt><trkpt lat="43.4347633" lon="13.3386783"><ele>224.0</ele><time>2026-03-22T08:21:35.996Z</time></trkpt><trkpt lat="43.4348183" lon="13.3389017"><ele>224.0</ele><time>2026-03-22T08:21:36.994Z</time></trkpt><trkpt lat="43.4348483" lon="13.3391367"><ele>224.0</ele><time>2026-03-22T08:21:37.991Z</time></trkpt><trkpt lat="43.4348517" lon="13.339375"><ele>224.0</ele><time>2026-03-22T08:21:38.989Z</time></trkpt><trkpt lat="43.434835" lon="13.3396233"><ele>223.66666666666669</ele><time>2026-03-22T08:21:39.994Z</time></trkpt><trkpt lat="43.4348033" lon="13.339875"><ele>223.33333333333331</ele><time>2026-03-22T08:21:40.99Z</time></trkpt><trkpt lat="43.434765" lon="13.3401283"><ele>223.0</ele><time>2026-03-22T08:21:41.994Z</time></trkpt><trkpt lat="43.4347117" lon="13.34039"><ele>222.66666666666666</ele><time>2026-03-22T08:21:42.994Z</time></trkpt><trkpt lat="43.4346533" lon="13.3406533"><ele>222.33333333333331</ele><time>2026-03-22T08:21:43.996Z</time></trkpt><trkpt lat="43.434595" lon="13.3409133"><ele>222.0</ele><time>2026-03-22T08:21:44.992Z</time></trkpt><trkpt lat="43.4345417" lon="13.341165"><ele>222.66666666666669</ele><time>2026-03-22T08:21:46Z</time></trkpt><trkpt lat="43.434495" lon="13.3414017"><ele>223.33333333333334</ele><time>2026-03-22T08:21:46.992Z</time></trkpt><trkpt lat="43.4344517" lon="13.3416167"><ele>224.0</ele><time>2026-03-22T08:21:47.991Z</time></trkpt><trkpt lat="43.4344133" lon="13.3418167"><ele>224.0</ele><time>2026-03-22T08:21:48.991Z</time></trkpt><trkpt lat="43.434385" lon="13.3420183"><ele>224.0</ele><time>2026-03-22T08:21:49.991Z</time></trkpt><trkpt lat="43.4343633" lon="13.3422367"><ele>224.0</ele><time>2026-03-22T08:21:50.996Z</time></trkpt><trkpt lat="43.4343483" lon="13.3424733"><ele>225.66666666666669</ele><time>2026-03-22T08:21:51.99Z</time></trkpt><trkpt lat="43.43433" lon="13.342715"><ele>227.33333333333331</ele><time>2026-03-22T08:21:52.993Z</time></trkpt><trkpt lat="43.434315" lon="13.342955"><ele>229.0</ele><time>2026-03-22T08:21:53.99Z</time></trkpt><trkpt lat="43.4343017" lon="13.34319"><ele>230.0</ele><time>2026-03-22T08:21:54.993Z</time></trkpt><trkpt lat="43.43429" lon="13.3434267"><ele>231.0</ele><time>2026-03-22T08:21:55.989Z</time></trkpt><trkpt lat="43.4342733" lon="13.343665"><ele>232.0</ele><time>2026-03-22T08:21:56.994Z</time></trkpt><trkpt lat="43.4342433" lon="13.3439067"><ele>233.0</ele><time>2026-03-22T08:21:57.992Z</time></trkpt><trkpt lat="43.4342183" lon="13.34415"><ele>234.0</ele><time>2026-03-22T08:21:58.991Z</time></trkpt><trkpt lat="43.434195" lon="13.3443917"><ele>235.0</ele><time>2026-03-22T08:21:59.995Z</time></trkpt><trkpt lat="43.4341767" lon="13.3446317"><ele>235.75</ele><time>2026-03-22T08:22:00.995Z</time></trkpt><trkpt lat="43.4341683" lon="13.3448533"><ele>236.5</ele><time>2026-03-22T08:22:01.995Z</time></trkpt><trkpt lat="43.4341583" lon="13.3450517"><ele>237.25</ele><time>2026-03-22T08:22:02.995Z</time></trkpt><trkpt lat="43.434155" lon="13.345225"><ele>238.0</ele><time>2026-03-22T08:22:03.991Z</time></trkpt><trkpt lat="43.4341517" lon="13.3453767"><ele>238.0</ele><time>2026-03-22T08:22:04.993Z</time></trkpt><trkpt lat="43.4341517" lon="13.3455083"><ele>238.0</ele><time>2026-03-22T08:22:05.992Z</time></trkpt><trkpt lat="43.4341483" lon="13.3456167"><ele>238.0</ele><time>2026-03-22T08:22:06.993Z</time></trkpt><trkpt lat="43.4341367" lon="13.3457717"><ele>238.0</ele><time>2026-03-22T08:22:08.991Z</time></trkpt><trkpt lat="43.43413" lon="13.3458683"><ele>238.0</ele><time>2026-03-22T08:22:10.993Z</time></trkpt><trkpt lat="43.4341483" lon="13.345995"><ele>239.2</ele><time>2026-03-22T08:22:50.993Z</time></trkpt><trkpt lat="43.43415" lon="13.3460933"><ele>240.4</ele><time>2026-03-22T08:22:51.991Z</time></trkpt><trkpt lat="43.4341517" lon="13.3462333"><ele>241.59999999999997</ele><time>2026-03-22T08:22:52.993Z</time></trkpt><trkpt lat="43.4341483" lon="13.3463733"><ele>242.79999999999998</ele><time>2026-03-22T08:22:53.992Z</time></trkpt><trkpt lat="43.434145" lon="13.34652"><ele>244.0</ele><time>2026-03-22T08:22:54.991Z</time></trkpt><trkpt lat="43.4341367" lon="13.3466783"><ele>245.25</ele><time>2026-03-22T08:22:55.99Z</time></trkpt><trkpt lat="43.4341233" lon="13.346845"><ele>246.5</ele><time>2026-03-22T08:22:56.991Z</time></trkpt><trkpt lat="43.43411" lon="13.3470083"><ele>247.75</ele><time>2026-03-22T08:22:57.992Z</time></trkpt><trkpt lat="43.4341017" lon="13.3471633"><ele>249.0</ele><time>2026-03-22T08:22:58.993Z</time></trkpt><trkpt lat="43.4340933" lon="13.3473"><ele>249.83333333333334</ele><time>2026-03-22T08:22:59.992Z</time></trkpt><trkpt lat="43.4340933" lon="13.3474183"><ele>250.66666666666669</ele><time>2026-03-22T08:23:00.993Z</time></trkpt><trkpt lat="43.4341083" lon="13.3475217"><ele>251.5</ele><time>2026-03-22T08:23:01.99Z</time></trkpt><trkpt lat="43.434135" lon="13.3476217"><ele>252.33333333333334</ele><time>2026-03-22T08:23:02.992Z</time></trkpt><trkpt lat="43.434175" lon="13.34771"><ele>253.16666666666669</ele><time>2026-03-22T08:23:03.991Z</time></trkpt><trkpt lat="43.4342367" lon="13.3477733"><ele>254.0</ele><time>2026-03-22T08:23:04.993Z</time></trkpt><trkpt lat="43.4343083" lon="13.3478383"><ele>254.0</ele><time>2026-03-22T08:23:05.995Z</time></trkpt><trkpt lat="43.4344067" lon="13.3479183"><ele>254.0</ele><time>2026-03-22T08:23:06.989Z</time></trkpt><trkpt lat="43.43452" lon="13.348045"><ele>254.0</ele><time>2026-03-22T08:23:07.992Z</time></trkpt><trkpt lat="43.4346133" lon="13.3481783"><ele>254.0</ele><time>2026-03-22T08:23:08.989Z</time></trkpt><trkpt lat="43.434705" lon="13.348335"><ele>255.0</ele><time>2026-03-22T08:23:09.993Z</time></trkpt><trkpt lat="43.434805" lon="13.3485033"><ele>256.0</ele><time>2026-03-22T08:23:10.991Z</time></trkpt><trkpt lat="43.4349083" lon="13.3486783"><ele>257.0</ele><time>2026-03-22T08:23:11.994Z</time></trkpt><trkpt lat="43.4350117" lon="13.3488517"><ele>259.25</ele><time>2026-03-22T08:23:12.991Z</time></trkpt><trkpt lat="43.435125" lon="13.3490117"><ele>261.5</ele><time>2026-03-22T08:23:13.989Z</time></trkpt><trkpt lat="43.4352167" lon="13.3491567"><ele>263.75</ele><time>2026-03-22T08:23:14.993Z</time></trkpt><trkpt lat="43.4352967" lon="13.3492917"><ele>266.0</ele><time>2026-03-22T08:23:15.993Z</time></trkpt><trkpt lat="43.43537" lon="13.3494133"><ele>266.0</ele><time>2026-03-22T08:23:16.992Z</time></trkpt><trkpt lat="43.4354583" lon="13.3495383"><ele>266.0</ele><time>2026-03-22T08:23:17.992Z</time></trkpt><trkpt lat="43.4355333" lon="13.349655"><ele>266.0</ele><time>2026-03-22T08:23:18.994Z</time></trkpt><trkpt lat="43.435605" lon="13.3497567"><ele>266.0</ele><time>2026-03-22T08:23:19.998Z</time></trkpt><trkpt lat="43.4356583" lon="13.34984"><ele>266.0</ele><time>2026-03-22T08:23:20.995Z</time></trkpt><trkpt lat="43.4357317" lon="13.349945"><ele>266.0</ele><time>2026-03-22T08:23:22.993Z</time></trkpt><trkpt lat="43.4357817" lon="13.3500067"><ele>266.0</ele><time>2026-03-22T08:23:24.99Z</time></trkpt><trkpt lat="43.4358117" lon="13.350085"><ele>266.0</ele><time>2026-03-22T08:23:26.994Z</time></trkpt><trkpt lat="43.4359017" lon="13.3502083"><ele>266.0</ele><time>2026-03-22T08:23:28.991Z</time></trkpt><trkpt lat="43.4359467" lon="13.350305"><ele>266.0</ele><time>2026-03-22T08:23:29.994Z</time></trkpt><trkpt lat="43.435995" lon="13.35042"><ele>266.0</ele><time>2026-03-22T08:23:30.993Z</time></trkpt><trkpt lat="43.4360617" lon="13.3505417"><ele>268.5</ele><time>2026-03-22T08:23:31.992Z</time></trkpt><trkpt lat="43.436125" lon="13.3506717"><ele>271.0</ele><time>2026-03-22T08:23:32.993Z</time></trkpt><trkpt lat="43.43617" lon="13.350815"><ele>273.5</ele><time>2026-03-22T08:23:33.991Z</time></trkpt><trkpt lat="43.4362117" lon="13.35097"><ele>276.0</ele><time>2026-03-22T08:23:34.993Z</time></trkpt><trkpt lat="43.4362433" lon="13.351125"><ele>276.0</ele><time>2026-03-22T08:23:35.994Z</time></trkpt><trkpt lat="43.4362883" lon="13.3512717"><ele>276.0</ele><time>2026-03-22T08:23:36.995Z</time></trkpt><trkpt lat="43.436305" lon="13.3514083"><ele>276.0</ele><time>2026-03-22T08:23:37.997Z</time></trkpt><trkpt lat="43.4363167" lon="13.35153"><ele>276.0</ele><time>2026-03-22T08:23:38.994Z</time></trkpt><trkpt lat="43.4363267" lon="13.3516333"><ele>276.0</ele><time>2026-03-22T08:23:39.993Z</time></trkpt><trkpt lat="43.4363283" lon="13.3518033"><ele>274.0</ele><time>2026-03-22T08:23:41.994Z</time></trkpt><trkpt lat="43.4363717" lon="13.3519467"><ele>272.0</ele><time>2026-03-22T08:23:43.993Z</time></trkpt><trkpt lat="43.436455" lon="13.3520733"><ele>270.0</ele><time>2026-03-22T08:23:45.991Z</time></trkpt><trkpt lat="43.4365117" lon="13.35214"><ele>268.0</ele><time>2026-03-22T08:23:46.994Z</time></trkpt><trkpt lat="43.4365717" lon="13.352205"><ele>266.0</ele><time>2026-03-22T08:23:47.993Z</time></trkpt><trkpt lat="43.436645" lon="13.35227"><ele>266.0</ele><time>2026-03-22T08:23:48.993Z</time></trkpt><trkpt lat="43.4367333" lon="13.352325"><ele>266.0</ele><time>2026-03-22T08:23:49.993Z</time></trkpt><trkpt lat="43.4368217" lon="13.3523367"><ele>266.0</ele><time>2026-03-22T08:23:50.993Z</time></trkpt><trkpt lat="43.4369233" lon="13.352315"><ele>266.0</ele><time>2026-03-22T08:23:51.996Z</time></trkpt><trkpt lat="43.43703" lon="13.3522983"><ele>266.0</ele><time>2026-03-22T08:23:52.993Z</time></trkpt><trkpt lat="43.4371433" lon="13.3522883"><ele>265.75</ele><time>2026-03-22T08:23:53.991Z</time></trkpt><trkpt lat="43.4372717" lon="13.3523017"><ele>265.5</ele><time>2026-03-22T08:23:54.991Z</time></trkpt><trkpt lat="43.4373967" lon="13.35233"><ele>265.25</ele><time>2026-03-22T08:23:55.996Z</time></trkpt><trkpt lat="43.437495" lon="13.352385"><ele>265.0</ele><time>2026-03-22T08:23:56.994Z</time></trkpt><trkpt lat="43.4375867" lon="13.3524733"><ele>265.0</ele><time>2026-03-22T08:23:57.993Z</time></trkpt><trkpt lat="43.4376683" lon="13.3525983"><ele>265.0</ele><time>2026-03-22T08:23:58.991Z</time></trkpt><trkpt lat="43.4377467" lon="13.3527433"><ele>265.0</ele><time>2026-03-22T08:23:59.993Z</time></trkpt><trkpt lat="43.4378167" lon="13.3528967"><ele>265.0</ele><time>2026-03-22T08:24:00.994Z</time></trkpt><trkpt lat="43.437875" lon="13.35306"><ele>263.75</ele><time>2026-03-22T08:24:01.992Z</time></trkpt><trkpt lat="43.4379067" lon="13.35323"><ele>262.5</ele><time>2026-03-22T08:24:02.994Z</time></trkpt><trkpt lat="43.4379183" lon="13.3534033"><ele>261.25</ele><time>2026-03-22T08:24:03.992Z</time></trkpt><trkpt lat="43.4379117" lon="13.35358"><ele>260.0</ele><time>2026-03-22T08:24:04.993Z</time></trkpt><trkpt lat="43.4379" lon="13.3537583"><ele>257.5</ele><time>2026-03-22T08:24:05.994Z</time></trkpt><trkpt lat="43.4378917" lon="13.3539317"><ele>255.0</ele><time>2026-03-22T08:24:06.991Z</time></trkpt><trkpt lat="43.4378917" lon="13.3541083"><ele>252.5</ele><time>2026-03-22T08:24:07.989Z</time></trkpt><trkpt lat="43.4378983" lon="13.35428"><ele>250.0</ele><time>2026-03-22T08:24:08.99Z</time></trkpt><trkpt lat="43.4379033" lon="13.3544333"><ele>249.99999999999997</ele><time>2026-03-22T08:24:09.996Z</time></trkpt><trkpt lat="43.4379067" lon="13.35457"><ele>250.0</ele><time>2026-03-22T08:24:10.992Z</time></trkpt><trkpt lat="43.43791" lon="13.35469"><ele>250.0</ele><time>2026-03-22T08:24:11.989Z</time></trkpt><trkpt lat="43.4379133" lon="13.3547933"><ele>250.0</ele><time>2026-03-22T08:24:12.989Z</time></trkpt><trkpt lat="43.43791" lon="13.3548817"><ele>249.99999999999997</ele><time>2026-03-22T08:24:13.99Z</time></trkpt><trkpt lat="43.4378783" lon="13.3550133"><ele>250.0</ele><time>2026-03-22T08:24:15.99Z</time></trkpt><trkpt lat="43.4378183" lon="13.355145"><ele>248.0</ele><time>2026-03-22T08:24:17.996Z</time></trkpt><trkpt lat="43.4378017" lon="13.3552867"><ele>246.0</ele><time>2026-03-22T08:24:19.992Z</time></trkpt><trkpt lat="43.4378267" lon="13.3553933"><ele>244.0</ele><time>2026-03-22T08:24:20.994Z</time></trkpt><trkpt lat="43.4378717" lon="13.3555367"><ele>242.0</ele><time>2026-03-22T08:24:21.993Z</time></trkpt><trkpt lat="43.4379083" lon="13.3557033"><ele>240.0</ele><time>2026-03-22T08:24:22.993Z</time></trkpt><trkpt lat="43.4379333" lon="13.35589"><ele>238.0</ele><time>2026-03-22T08:24:23.993Z</time></trkpt><trkpt lat="43.43794" lon="13.35608"><ele>236.0</ele><time>2026-03-22T08:24:24.99Z</time></trkpt><trkpt lat="43.4379383" lon="13.35627"><ele>234.0</ele><time>2026-03-22T08:24:25.991Z</time></trkpt><trkpt lat="43.4379283" lon="13.3564567"><ele>232.0</ele><time>2026-03-22T08:24:26.99Z</time></trkpt><trkpt lat="43.437915" lon="13.3566467"><ele>232.25</ele><time>2026-03-22T08:24:27.993Z</time></trkpt><trkpt lat="43.4378867" lon="13.3568383"><ele>232.5</ele><time>2026-03-22T08:24:28.992Z</time></trkpt><trkpt lat="43.4378667" lon="13.3570317"><ele>232.75</ele><time>2026-03-22T08:24:29.994Z</time></trkpt><trkpt lat="43.4378533" lon="13.3572133"><ele>233.0</ele><time>2026-03-22T08:24:30.991Z</time></trkpt><trkpt lat="43.4378467" lon="13.35738"><ele>233.0</ele><time>2026-03-22T08:24:31.995Z</time></trkpt><trkpt lat="43.4378417" lon="13.3575283"><ele>233.0</ele><time>2026-03-22T08:24:32.997Z</time></trkpt><trkpt lat="43.437835" lon="13.3576533"><ele>233.0</ele><time>2026-03-22T08:24:33.994Z</time></trkpt><trkpt lat="43.4378417" lon="13.3577817"><ele>233.0</ele><time>2026-03-22T08:24:34.996Z</time></trkpt><trkpt lat="43.437855" lon="13.3579083"><ele>233.0</ele><time>2026-03-22T08:24:35.995Z</time></trkpt><trkpt lat="43.437865" lon="13.3580433"><ele>233.25</ele><time>2026-03-22T08:24:36.992Z</time></trkpt><trkpt lat="43.4378767" lon="13.3581933"><ele>233.5</ele><time>2026-03-22T08:24:37.991Z</time></trkpt><trkpt lat="43.4378933" lon="13.35835"><ele>233.75</ele><time>2026-03-22T08:24:38.994Z</time></trkpt><trkpt lat="43.43791" lon="13.3585067"><ele>234.0</ele><time>2026-03-22T08:24:39.996Z</time></trkpt><trkpt lat="43.43793" lon="13.35867"><ele>234.0</ele><time>2026-03-22T08:24:40.992Z</time></trkpt><trkpt lat="43.43795" lon="13.3588367"><ele>234.0</ele><time>2026-03-22T08:24:41.993Z</time></trkpt><trkpt lat="43.43798" lon="13.3590067"><ele>234.0</ele><time>2026-03-22T08:24:42.993Z</time></trkpt><trkpt lat="43.4380167" lon="13.359185"><ele>234.0</ele><time>2026-03-22T08:24:43.992Z</time></trkpt><trkpt lat="43.4380583" lon="13.3593633"><ele>233.0</ele><time>2026-03-22T08:24:44.99Z</time></trkpt><trkpt lat="43.43811" lon="13.359535"><ele>232.0</ele><time>2026-03-22T08:24:45.993Z</time></trkpt><trkpt lat="43.4381733" lon="13.3597067"><ele>231.0</ele><time>2026-03-22T08:24:46.993Z</time></trkpt><trkpt lat="43.4382333" lon="13.359885"><ele>230.0</ele><time>2026-03-22T08:24:47.994Z</time></trkpt><trkpt lat="43.4382917" lon="13.360065"><ele>229.0</ele><time>2026-03-22T08:24:48.993Z</time></trkpt><trkpt lat="43.4383383" lon="13.36025"><ele>228.0</ele><time>2026-03-22T08:24:49.994Z</time></trkpt><trkpt lat="43.4383733" lon="13.3604433"><ele>227.0</ele><time>2026-03-22T08:24:50.993Z</time></trkpt><trkpt lat="43.4384033" lon="13.360645"><ele>226.0</ele><time>2026-03-22T08:24:51.994Z</time></trkpt><trkpt lat="43.4384317" lon="13.36085"><ele>225.0</ele><time>2026-03-22T08:24:52.992Z</time></trkpt><trkpt lat="43.4384617" lon="13.36105"><ele>224.0</ele><time>2026-03-22T08:24:53.993Z</time></trkpt><trkpt lat="43.4384867" lon="13.3612483"><ele>223.0</ele><time>2026-03-22T08:24:54.991Z</time></trkpt><trkpt lat="43.4385133" lon="13.3614433"><ele>222.0</ele><time>2026-03-22T08:24:55.994Z</time></trkpt><trkpt lat="43.4385333" lon="13.36164"><ele>220.5</ele><time>2026-03-22T08:24:56.994Z</time></trkpt><trkpt lat="43.4385467" lon="13.3618367"><ele>219.0</ele><time>2026-03-22T08:24:57.992Z</time></trkpt><trkpt lat="43.4385517" lon="13.36203"><ele>217.5</ele><time>2026-03-22T08:24:58.991Z</time></trkpt><trkpt lat="43.4385517" lon="13.3622217"><ele>216.0</ele><time>2026-03-22T08:24:59.995Z</time></trkpt><trkpt lat="43.438555" lon="13.3624183"><ele>215.0</ele><time>2026-03-22T08:25:00.991Z</time></trkpt><trkpt lat="43.4385633" lon="13.362615"><ele>214.0</ele><time>2026-03-22T08:25:01.995Z</time></trkpt><trkpt lat="43.4385833" lon="13.3628133"><ele>213.0</ele><time>2026-03-22T08:25:02.994Z</time></trkpt><trkpt lat="43.4386183" lon="13.3630083"><ele>212.0</ele><time>2026-03-22T08:25:03.998Z</time></trkpt><trkpt lat="43.4386733" lon="13.3632"><ele>213.0</ele><time>2026-03-22T08:25:04.994Z</time></trkpt><trkpt lat="43.4387383" lon="13.363385"><ele>214.0</ele><time>2026-03-22T08:25:05.993Z</time></trkpt><trkpt lat="43.438815" lon="13.3635583"><ele>215.0</ele><time>2026-03-22T08:25:06.991Z</time></trkpt><trkpt lat="43.4388967" lon="13.3637383"><ele>213.33333333333334</ele><time>2026-03-22T08:25:07.989Z</time></trkpt><trkpt lat="43.438975" lon="13.3639183"><ele>211.66666666666669</ele><time>2026-03-22T08:25:08.988Z</time></trkpt><trkpt lat="43.4390467" lon="13.3641083"><ele>210.0</ele><time>2026-03-22T08:25:09.995Z</time></trkpt><trkpt lat="43.439105" lon="13.3643117"><ele>210.0</ele><time>2026-03-22T08:25:10.99Z</time></trkpt><trkpt lat="43.43916" lon="13.3645183"><ele>210.0</ele><time>2026-03-22T08:25:11.991Z</time></trkpt><trkpt lat="43.4392183" lon="13.3647283"><ele>210.0</ele><time>2026-03-22T08:25:12.992Z</time></trkpt><trkpt lat="43.439275" lon="13.3649417"><ele>209.33333333333331</ele><time>2026-03-22T08:25:13.991Z</time></trkpt><trkpt lat="43.43933" lon="13.365155"><ele>208.66666666666666</ele><time>2026-03-22T08:25:14.993Z</time></trkpt><trkpt lat="43.43937" lon="13.3653717"><ele>208.0</ele><time>2026-03-22T08:25:15.995Z</time></trkpt><trkpt lat="43.4394067" lon="13.3655867"><ele>207.33333333333331</ele><time>2026-03-22T08:25:16.994Z</time></trkpt><trkpt lat="43.4394533" lon="13.3658"><ele>206.66666666666669</ele><time>2026-03-22T08:25:17.992Z</time></trkpt><trkpt lat="43.43952" lon="13.3660067"><ele>206.0</ele><time>2026-03-22T08:25:18.995Z</time></trkpt><trkpt lat="43.4396033" lon="13.3662067"><ele>206.0</ele><time>2026-03-22T08:25:19.992Z</time></trkpt><trkpt lat="43.4397" lon="13.36639"><ele>206.0</ele><time>2026-03-22T08:25:20.993Z</time></trkpt><trkpt lat="43.4398033" lon="13.36658"><ele>206.0</ele><time>2026-03-22T08:25:21.992Z</time></trkpt><trkpt lat="43.4399" lon="13.3667783"><ele>206.0</ele><time>2026-03-22T08:25:22.992Z</time></trkpt><trkpt lat="43.4399783" lon="13.3669883"><ele>206.0</ele><time>2026-03-22T08:25:23.992Z</time></trkpt><trkpt lat="43.4400383" lon="13.367215"><ele>206.0</ele><time>2026-03-22T08:25:24.991Z</time></trkpt><trkpt lat="43.440105" lon="13.367455"><ele>206.33333333333334</ele><time>2026-03-22T08:25:25.991Z</time></trkpt><trkpt lat="43.4401783" lon="13.3676933"><ele>206.66666666666669</ele><time>2026-03-22T08:25:26.994Z</time></trkpt><trkpt lat="43.4402617" lon="13.367925"><ele>207.0</ele><time>2026-03-22T08:25:27.996Z</time></trkpt><trkpt lat="43.440345" lon="13.3681417"><ele>207.0</ele><time>2026-03-22T08:25:28.996Z</time></trkpt><trkpt lat="43.440425" lon="13.3683433"><ele>207.0</ele><time>2026-03-22T08:25:29.994Z</time></trkpt><trkpt lat="43.4404933" lon="13.368535"><ele>207.0</ele><time>2026-03-22T08:25:30.993Z</time></trkpt><trkpt lat="43.4405483" lon="13.3687367"><ele>207.0</ele><time>2026-03-22T08:25:31.991Z</time></trkpt><trkpt lat="43.4406017" lon="13.368945"><ele>207.0</ele><time>2026-03-22T08:25:32.992Z</time></trkpt><trkpt lat="43.44065" lon="13.369155"><ele>207.0</ele><time>2026-03-22T08:25:33.992Z</time></trkpt><trkpt lat="43.4407" lon="13.3693583"><ele>207.0</ele><time>2026-03-22T08:25:34.993Z</time></trkpt><trkpt lat="43.4407533" lon="13.3695567"><ele>207.0</ele><time>2026-03-22T08:25:35.996Z</time></trkpt><trkpt lat="43.44082" lon="13.36976"><ele>207.0</ele><time>2026-03-22T08:25:36.993Z</time></trkpt><trkpt lat="43.440895" lon="13.369965"><ele>205.33333333333331</ele><time>2026-03-22T08:25:37.989Z</time></trkpt><trkpt lat="43.4409833" lon="13.3701767"><ele>203.66666666666666</ele><time>2026-03-22T08:25:38.992Z</time></trkpt><trkpt lat="43.4410817" lon="13.3703833"><ele>202.0</ele><time>2026-03-22T08:25:39.993Z</time></trkpt><trkpt lat="43.4411833" lon="13.3705933"><ele>204.66666666666666</ele><time>2026-03-22T08:25:40.995Z</time></trkpt><trkpt lat="43.4412867" lon="13.3708067"><ele>207.33333333333331</ele><time>2026-03-22T08:25:41.992Z</time></trkpt><trkpt lat="43.4413783" lon="13.371025"><ele>210.0</ele><time>2026-03-22T08:25:42.991Z</time></trkpt><trkpt lat="43.44146" lon="13.3712533"><ele>207.33333333333331</ele><time>2026-03-22T08:25:43.993Z</time></trkpt><trkpt lat="43.4415367" lon="13.3714833"><ele>204.66666666666666</ele><time>2026-03-22T08:25:44.994Z</time></trkpt><trkpt lat="43.44161" lon="13.37171"><ele>202.0</ele><time>2026-03-22T08:25:45.992Z</time></trkpt><trkpt lat="43.441665" lon="13.3719467"><ele>201.0</ele><time>2026-03-22T08:25:46.995Z</time></trkpt><trkpt lat="43.4417167" lon="13.37219"><ele>200.0</ele><time>2026-03-22T08:25:47.993Z</time></trkpt><trkpt lat="43.4417683" lon="13.3724367"><ele>199.0</ele><time>2026-03-22T08:25:48.994Z</time></trkpt><trkpt lat="43.4418217" lon="13.3726783"><ele>199.0</ele><time>2026-03-22T08:25:49.992Z</time></trkpt><trkpt lat="43.4418733" lon="13.3729133"><ele>199.0</ele><time>2026-03-22T08:25:50.999Z</time></trkpt><trkpt lat="43.4419183" lon="13.373135"><ele>199.0</ele><time>2026-03-22T08:25:51.993Z</time></trkpt><trkpt lat="43.44195" lon="13.37335"><ele>198.0</ele><time>2026-03-22T08:25:52.992Z</time></trkpt><trkpt lat="43.4419667" lon="13.3735667"><ele>197.0</ele><time>2026-03-22T08:25:53.995Z</time></trkpt><trkpt lat="43.44198" lon="13.3737883"><ele>196.0</ele><time>2026-03-22T08:25:54.994Z</time></trkpt><trkpt lat="43.4419883" lon="13.37401"><ele>195.0</ele><time>2026-03-22T08:25:55.991Z</time></trkpt><trkpt lat="43.4419967" lon="13.37424"><ele>194.0</ele><time>2026-03-22T08:25:56.993Z</time></trkpt><trkpt lat="43.4420083" lon="13.3744683"><ele>193.0</ele><time>2026-03-22T08:25:57.992Z</time></trkpt><trkpt lat="43.442025" lon="13.374685"><ele>193.5</ele><time>2026-03-22T08:25:58.99Z</time></trkpt><trkpt lat="43.4420383" lon="13.3748867"><ele>194.0</ele><time>2026-03-22T08:25:59.991Z</time></trkpt><trkpt lat="43.4420467" lon="13.3750733"><ele>194.5</ele><time>2026-03-22T08:26:00.993Z</time></trkpt><trkpt lat="43.4420617" lon="13.3752533"><ele>195.0</ele><time>2026-03-22T08:26:01.993Z</time></trkpt><trkpt lat="43.4420767" lon="13.3754433"><ele>195.0</ele><time>2026-03-22T08:26:02.991Z</time></trkpt><trkpt lat="43.4420833" lon="13.375635"><ele>195.0</ele><time>2026-03-22T08:26:03.993Z</time></trkpt><trkpt lat="43.4420867" lon="13.3758333"><ele>195.0</ele><time>2026-03-22T08:26:04.99Z</time></trkpt><trkpt lat="43.4420967" lon="13.3760417"><ele>195.0</ele><time>2026-03-22T08:26:05.991Z</time></trkpt><trkpt lat="43.4421033" lon="13.3762583"><ele>194.33333333333331</ele><time>2026-03-22T08:26:06.994Z</time></trkpt><trkpt lat="43.4421067" lon="13.3764817"><ele>193.66666666666666</ele><time>2026-03-22T08:26:07.992Z</time></trkpt><trkpt lat="43.4421067" lon="13.3767133"><ele>193.0</ele><time>2026-03-22T08:26:08.995Z</time></trkpt><trkpt lat="43.4421" lon="13.3769483"><ele>193.0</ele><time>2026-03-22T08:26:09.992Z</time></trkpt><trkpt lat="43.4420883" lon="13.377185"><ele>193.0</ele><time>2026-03-22T08:26:10.99Z</time></trkpt><trkpt lat="43.4420733" lon="13.37742"><ele>193.0</ele><time>2026-03-22T08:26:11.99Z</time></trkpt><trkpt lat="43.44206" lon="13.3776583"><ele>193.66666666666666</ele><time>2026-03-22T08:26:12.991Z</time></trkpt><trkpt lat="43.4420533" lon="13.377905"><ele>194.33333333333331</ele><time>2026-03-22T08:26:13.999Z</time></trkpt><trkpt lat="43.4420567" lon="13.378155"><ele>195.0</ele><time>2026-03-22T08:26:14.992Z</time></trkpt><trkpt lat="43.442075" lon="13.3784033"><ele>195.33333333333331</ele><time>2026-03-22T08:26:15.993Z</time></trkpt><trkpt lat="43.4421033" lon="13.3786467"><ele>195.66666666666666</ele><time>2026-03-22T08:26:16.991Z</time></trkpt><trkpt lat="43.44213" lon="13.3788917"><ele>196.0</ele><time>2026-03-22T08:26:17.991Z</time></trkpt><trkpt lat="43.44216" lon="13.37914"><ele>199.66666666666666</ele><time>2026-03-22T08:26:18.989Z</time></trkpt><trkpt lat="43.4421933" lon="13.379385"><ele>203.33333333333331</ele><time>2026-03-22T08:26:19.993Z</time></trkpt><trkpt lat="43.442235" lon="13.379625"><ele>207.0</ele><time>2026-03-22T08:26:20.996Z</time></trkpt><trkpt lat="43.4422783" lon="13.3798617"><ele>209.0</ele><time>2026-03-22T08:26:21.989Z</time></trkpt><trkpt lat="43.4423233" lon="13.3800983"><ele>211.0</ele><time>2026-03-22T08:26:22.993Z</time></trkpt><trkpt lat="43.4423667" lon="13.380335"><ele>213.0</ele><time>2026-03-22T08:26:23.99Z</time></trkpt><trkpt lat="43.442395" lon="13.3805733"><ele>215.0</ele><time>2026-03-22T08:26:24.994Z</time></trkpt><trkpt lat="43.442405" lon="13.3808117"><ele>217.0</ele><time>2026-03-22T08:26:25.991Z</time></trkpt><trkpt lat="43.4424067" lon="13.3810517"><ele>219.0</ele><time>2026-03-22T08:26:26.994Z</time></trkpt><trkpt lat="43.4423967" lon="13.38129"><ele>220.66666666666669</ele><time>2026-03-22T08:26:27.992Z</time></trkpt><trkpt lat="43.4423867" lon="13.381535"><ele>222.33333333333334</ele><time>2026-03-22T08:26:28.991Z</time></trkpt><trkpt lat="43.442375" lon="13.3817717"><ele>224.0</ele><time>2026-03-22T08:26:29.991Z</time></trkpt><trkpt lat="43.442375" lon="13.3820033"><ele>223.33333333333334</ele><time>2026-03-22T08:26:30.993Z</time></trkpt><trkpt lat="43.4424133" lon="13.38223"><ele>222.66666666666669</ele><time>2026-03-22T08:26:31.993Z</time></trkpt><trkpt lat="43.44249" lon="13.3824533"><ele>222.0</ele><time>2026-03-22T08:26:32.992Z</time></trkpt><trkpt lat="43.4425917" lon="13.3826817"><ele>222.0</ele><time>2026-03-22T08:26:33.993Z</time></trkpt><trkpt lat="43.4426833" lon="13.3829367"><ele>222.0</ele><time>2026-03-22T08:26:34.995Z</time></trkpt><trkpt lat="43.4427517" lon="13.38321"><ele>222.0</ele><time>2026-03-22T08:26:35.991Z</time></trkpt><trkpt lat="43.4428067" lon="13.3834933"><ele>222.0</ele><time>2026-03-22T08:26:36.995Z</time></trkpt><trkpt lat="43.4428617" lon="13.38378"><ele>222.0</ele><time>2026-03-22T08:26:37.993Z</time></trkpt><trkpt lat="43.442915" lon="13.38407"><ele>222.0</ele><time>2026-03-22T08:26:38.993Z</time></trkpt><trkpt lat="43.4429733" lon="13.384365"><ele>217.66666666666669</ele><time>2026-03-22T08:26:39.992Z</time></trkpt><trkpt lat="43.443035" lon="13.3846517"><ele>213.33333333333334</ele><time>2026-03-22T08:26:40.993Z</time></trkpt><trkpt lat="43.4431083" lon="13.3849317"><ele>209.0</ele><time>2026-03-22T08:26:41.994Z</time></trkpt><trkpt lat="43.4432033" lon="13.3852067"><ele>209.0</ele><time>2026-03-22T08:26:42.991Z</time></trkpt><trkpt lat="43.4432983" lon="13.38547"><ele>209.0</ele><time>2026-03-22T08:26:43.993Z</time></trkpt><trkpt lat="43.4433983" lon="13.3857183"><ele>209.0</ele><time>2026-03-22T08:26:44.993Z</time></trkpt><trkpt lat="43.4435167" lon="13.38595"><ele>207.0</ele><time>2026-03-22T08:26:45.992Z</time></trkpt><trkpt lat="43.44366" lon="13.386155"><ele>205.0</ele><time>2026-03-22T08:26:46.992Z</time></trkpt><trkpt lat="43.4438183" lon="13.3863383"><ele>203.0</ele><time>2026-03-22T08:26:47.993Z</time></trkpt><trkpt lat="43.443975" lon="13.3865133"><ele>201.0</ele><time>2026-03-22T08:26:48.992Z</time></trkpt><trkpt lat="43.44413" lon="13.38669"><ele>199.0</ele><time>2026-03-22T08:26:49.992Z</time></trkpt><trkpt lat="43.4442967" lon="13.386865"><ele>197.0</ele><time>2026-03-22T08:26:50.995Z</time></trkpt><trkpt lat="43.444465" lon="13.387035"><ele>196.33333333333334</ele><time>2026-03-22T08:26:51.991Z</time></trkpt><trkpt lat="43.4446367" lon="13.387195"><ele>195.66666666666669</ele><time>2026-03-22T08:26:52.991Z</time></trkpt><trkpt lat="43.4448133" lon="13.3873433"><ele>195.0</ele><time>2026-03-22T08:26:53.991Z</time></trkpt><trkpt lat="43.4449917" lon="13.3874883"><ele>195.0</ele><time>2026-03-22T08:26:54.993Z</time></trkpt><trkpt lat="43.445175" lon="13.3876283"><ele>195.0</ele><time>2026-03-22T08:26:55.99Z</time></trkpt><trkpt lat="43.4453517" lon="13.3877533"><ele>195.0</ele><time>2026-03-22T08:26:56.993Z</time></trkpt><trkpt lat="43.4455417" lon="13.3878717"><ele>195.33333333333331</ele><time>2026-03-22T08:26:57.992Z</time></trkpt><trkpt lat="43.44573" lon="13.3879817"><ele>195.66666666666666</ele><time>2026-03-22T08:26:58.995Z</time></trkpt><trkpt lat="43.4459217" lon="13.38808"><ele>196.0</ele><time>2026-03-22T08:26:59.993Z</time></trkpt><trkpt lat="43.446125" lon="13.3881583"><ele>195.33333333333331</ele><time>2026-03-22T08:27:00.993Z</time></trkpt><trkpt lat="43.4463217" lon="13.3882"><ele>194.66666666666669</ele><time>2026-03-22T08:27:01.996Z</time></trkpt><trkpt lat="43.4465283" lon="13.3882433"><ele>194.0</ele><time>2026-03-22T08:27:02.994Z</time></trkpt><trkpt lat="43.446735" lon="13.3882817"><ele>194.0</ele><time>2026-03-22T08:27:03.991Z</time></trkpt><trkpt lat="43.446935" lon="13.3883317"><ele>194.0</ele><time>2026-03-22T08:27:04.991Z</time></trkpt><trkpt lat="43.44712" lon="13.3883833"><ele>194.0</ele><time>2026-03-22T08:27:05.991Z</time></trkpt><trkpt lat="43.4473117" lon="13.3884533"><ele>194.66666666666669</ele><time>2026-03-22T08:27:06.992Z</time></trkpt><trkpt lat="43.4475033" lon="13.38854"><ele>195.33333333333331</ele><time>2026-03-22T08:27:07.993Z</time></trkpt><trkpt lat="43.4476933" lon="13.3886467"><ele>196.0</ele><time>2026-03-22T08:27:08.994Z</time></trkpt><trkpt lat="43.4478833" lon="13.388775"><ele>196.5</ele><time>2026-03-22T08:27:09.989Z</time></trkpt><trkpt lat="43.448075" lon="13.3889383"><ele>197.0</ele><time>2026-03-22T08:27:10.992Z</time></trkpt><trkpt lat="43.4482667" lon="13.3891067"><ele>197.0</ele><time>2026-03-22T08:27:11.991Z</time></trkpt><trkpt lat="43.448455" lon="13.389285"><ele>197.0</ele><time>2026-03-22T08:27:12.991Z</time></trkpt><trkpt lat="43.448645" lon="13.3894617"><ele>197.0</ele><time>2026-03-22T08:27:13.991Z</time></trkpt><trkpt lat="43.44883" lon="13.38964"><ele>197.0</ele><time>2026-03-22T08:27:15.006Z</time></trkpt><trkpt lat="43.4490083" lon="13.38982"><ele>197.0</ele><time>2026-03-22T08:27:15.992Z</time></trkpt><trkpt lat="43.449185" lon="13.389985"><ele>197.0</ele><time>2026-03-22T08:27:16.991Z</time></trkpt><trkpt lat="43.4493617" lon="13.3901517"><ele>197.0</ele><time>2026-03-22T08:27:17.991Z</time></trkpt><trkpt lat="43.4495317" lon="13.3903133"><ele>197.0</ele><time>2026-03-22T08:27:18.996Z</time></trkpt><trkpt lat="43.4497" lon="13.390485"><ele>197.66666666666669</ele><time>2026-03-22T08:27:19.991Z</time></trkpt><trkpt lat="43.449855" lon="13.3906767"><ele>198.33333333333331</ele><time>2026-03-22T08:27:20.993Z</time></trkpt><trkpt lat="43.4499933" lon="13.3909017"><ele>199.0</ele><time>2026-03-22T08:27:21.992Z</time></trkpt><trkpt lat="43.450125" lon="13.3911433"><ele>197.33333333333331</ele><time>2026-03-22T08:27:22.992Z</time></trkpt><trkpt lat="43.4502417" lon="13.3913967"><ele>195.66666666666669</ele><time>2026-03-22T08:27:23.993Z</time></trkpt><trkpt lat="43.4503417" lon="13.3916667"><ele>194.0</ele><time>2026-03-22T08:27:24.989Z</time></trkpt><trkpt lat="43.4504517" lon="13.39193"><ele>196.33333333333334</ele><time>2026-03-22T08:27:25.992Z</time></trkpt><trkpt lat="43.4505767" lon="13.3921783"><ele>198.66666666666669</ele><time>2026-03-22T08:27:26.994Z</time></trkpt><trkpt lat="43.45072" lon="13.3924067"><ele>201.0</ele><time>2026-03-22T08:27:27.993Z</time></trkpt><trkpt lat="43.4508767" lon="13.392625"><ele>201.0</ele><time>2026-03-22T08:27:28.992Z</time></trkpt><trkpt lat="43.4510267" lon="13.3928567"><ele>201.0</ele><time>2026-03-22T08:27:29.992Z</time></trkpt><trkpt lat="43.4511667" lon="13.39311"><ele>200.0</ele><time>2026-03-22T08:27:30.993Z</time></trkpt><trkpt lat="43.4513" lon="13.39337"><ele>199.0</ele><time>2026-03-22T08:27:31.993Z</time></trkpt><trkpt lat="43.451435" lon="13.3936283"><ele>192.5</ele><time>2026-03-22T08:27:32.994Z</time></trkpt><trkpt lat="43.4515667" lon="13.3938883"><ele>186.0</ele><time>2026-03-22T08:27:33.99Z</time></trkpt><trkpt lat="43.4516867" lon="13.3941617"><ele>186.0</ele><time>2026-03-22T08:27:34.993Z</time></trkpt><trkpt lat="43.4517967" lon="13.3944367"><ele>186.0</ele><time>2026-03-22T08:27:35.991Z</time></trkpt><trkpt lat="43.451895" lon="13.3947117"><ele>186.0</ele><time>2026-03-22T08:27:36.994Z</time></trkpt><trkpt lat="43.4519883" lon="13.3949817"><ele>186.0</ele><time>2026-03-22T08:27:37.993Z</time></trkpt><trkpt lat="43.452075" lon="13.3952617"><ele>186.0</ele><time>2026-03-22T08:27:38.994Z</time></trkpt><trkpt lat="43.4521533" lon="13.3955533"><ele>186.0</ele><time>2026-03-22T08:27:39.993Z</time></trkpt><trkpt lat="43.4522183" lon="13.395855"><ele>186.0</ele><time>2026-03-22T08:27:40.991Z</time></trkpt><trkpt lat="43.452265" lon="13.3961583"><ele>188.0</ele><time>2026-03-22T08:27:41.992Z</time></trkpt><trkpt lat="43.4523133" lon="13.3964683"><ele>190.0</ele><time>2026-03-22T08:27:42.992Z</time></trkpt><trkpt lat="43.4523867" lon="13.39676"><ele>190.0</ele><time>2026-03-22T08:27:43.991Z</time></trkpt><trkpt lat="43.4524783" lon="13.39704"><ele>190.0</ele><time>2026-03-22T08:27:44.995Z</time></trkpt><trkpt lat="43.4525783" lon="13.397315"><ele>190.0</ele><time>2026-03-22T08:27:45.99Z</time></trkpt><trkpt lat="43.4526833" lon="13.3975867"><ele>190.33333333333334</ele><time>2026-03-22T08:27:46.991Z</time></trkpt><trkpt lat="43.4527833" lon="13.3978567"><ele>190.66666666666666</ele><time>2026-03-22T08:27:47.993Z</time></trkpt><trkpt lat="43.4528767" lon="13.3981317"><ele>191.0</ele><time>2026-03-22T08:27:48.995Z</time></trkpt><trkpt lat="43.4529533" lon="13.3984117"><ele>190.33333333333331</ele><time>2026-03-22T08:27:49.99Z</time></trkpt><trkpt lat="43.4530183" lon="13.3987017"><ele>189.66666666666666</ele><time>2026-03-22T08:27:50.997Z</time></trkpt><trkpt lat="43.4530817" lon="13.3989967"><ele>189.0</ele><time>2026-03-22T08:27:51.993Z</time></trkpt><trkpt lat="43.4531367" lon="13.3992967"><ele>189.0</ele><time>2026-03-22T08:27:52.993Z</time></trkpt><trkpt lat="43.453185" lon="13.3995983"><ele>189.0</ele><time>2026-03-22T08:27:53.996Z</time></trkpt><trkpt lat="43.4532267" lon="13.3999033"><ele>189.0</ele><time>2026-03-22T08:27:54.994Z</time></trkpt><trkpt lat="43.453255" lon="13.4002083"><ele>191.0</ele><time>2026-03-22T08:27:55.993Z</time></trkpt><trkpt lat="43.45328" lon="13.400515"><ele>193.0</ele><time>2026-03-22T08:27:56.995Z</time></trkpt><trkpt lat="43.4533" lon="13.4008183"><ele>195.0</ele><time>2026-03-22T08:27:57.995Z</time></trkpt><trkpt lat="43.4533167" lon="13.4011217"><ele>195.66666666666669</ele><time>2026-03-22T08:27:58.993Z</time></trkpt><trkpt lat="43.4533283" lon="13.4014133"><ele>196.33333333333334</ele><time>2026-03-22T08:27:59.995Z</time></trkpt><trkpt lat="43.4533417" lon="13.4016883"><ele>197.0</ele><time>2026-03-22T08:28:00.992Z</time></trkpt><trkpt lat="43.4533533" lon="13.4019533"><ele>196.33333333333334</ele><time>2026-03-22T08:28:01.992Z</time></trkpt><trkpt lat="43.45337" lon="13.402215"><ele>195.66666666666669</ele><time>2026-03-22T08:28:02.993Z</time></trkpt><trkpt lat="43.4534017" lon="13.402475"><ele>195.0</ele><time>2026-03-22T08:28:03.993Z</time></trkpt><trkpt lat="43.453455" lon="13.40273"><ele>195.0</ele><time>2026-03-22T08:28:04.993Z</time></trkpt><trkpt lat="43.453515" lon="13.4029783"><ele>195.0</ele><time>2026-03-22T08:28:05.993Z</time></trkpt><trkpt lat="43.45359" lon="13.403225"><ele>195.0</ele><time>2026-03-22T08:28:06.993Z</time></trkpt><trkpt lat="43.453665" lon="13.4034717"><ele>194.0</ele><time>2026-03-22T08:28:07.992Z</time></trkpt><trkpt lat="43.453745" lon="13.40372"><ele>193.0</ele><time>2026-03-22T08:28:08.995Z</time></trkpt><trkpt lat="43.4538283" lon="13.4039683"><ele>192.0</ele><time>2026-03-22T08:28:09.991Z</time></trkpt><trkpt lat="43.4539133" lon="13.40422"><ele>192.66666666666669</ele><time>2026-03-22T08:28:10.993Z</time></trkpt><trkpt lat="43.4539983" lon="13.404465"><ele>193.33333333333334</ele><time>2026-03-22T08:28:11.992Z</time></trkpt><trkpt lat="43.454095" lon="13.404715"><ele>194.0</ele><time>2026-03-22T08:28:12.993Z</time></trkpt><trkpt lat="43.4541967" lon="13.404965"><ele>194.0</ele><time>2026-03-22T08:28:13.992Z</time></trkpt><trkpt lat="43.4543033" lon="13.4052083"><ele>194.0</ele><time>2026-03-22T08:28:14.992Z</time></trkpt><trkpt lat="43.4543983" lon="13.40544"><ele>194.0</ele><time>2026-03-22T08:28:16.001Z</time></trkpt><trkpt lat="43.4544933" lon="13.4056633"><ele>192.0</ele><time>2026-03-22T08:28:16.992Z</time></trkpt><trkpt lat="43.4546033" lon="13.4058767"><ele>190.0</ele><time>2026-03-22T08:28:17.996Z</time></trkpt><trkpt lat="43.45473" lon="13.40608"><ele>188.0</ele><time>2026-03-22T08:28:18.991Z</time></trkpt><trkpt lat="43.4548683" lon="13.4062767"><ele>186.33333333333331</ele><time>2026-03-22T08:28:19.991Z</time></trkpt><trkpt lat="43.45501" lon="13.4064717"><ele>184.66666666666666</ele><time>2026-03-22T08:28:20.996Z</time></trkpt><trkpt lat="43.45515" lon="13.4066617"><ele>183.0</ele><time>2026-03-22T08:28:21.992Z</time></trkpt><trkpt lat="43.4552867" lon="13.4068417"><ele>183.0</ele><time>2026-03-22T08:28:22.995Z</time></trkpt><trkpt lat="43.455415" lon="13.4070167"><ele>183.0</ele><time>2026-03-22T08:28:23.995Z</time></trkpt><trkpt lat="43.455545" lon="13.407185"><ele>183.0</ele><time>2026-03-22T08:28:24.993Z</time></trkpt><trkpt lat="43.455675" lon="13.407355"><ele>184.66666666666666</ele><time>2026-03-22T08:28:25.993Z</time></trkpt><trkpt lat="43.455805" lon="13.4075317"><ele>186.33333333333331</ele><time>2026-03-22T08:28:26.993Z</time></trkpt><trkpt lat="43.455925" lon="13.407725"><ele>188.0</ele><time>2026-03-22T08:28:27.994Z</time></trkpt><trkpt lat="43.4560217" lon="13.4079367"><ele>187.66666666666666</ele><time>2026-03-22T08:28:28.997Z</time></trkpt><trkpt lat="43.4560983" lon="13.4081733"><ele>187.33333333333334</ele><time>2026-03-22T08:28:29.994Z</time></trkpt><trkpt lat="43.4561433" lon="13.40842"><ele>187.0</ele><time>2026-03-22T08:28:30.993Z</time></trkpt><trkpt lat="43.4561683" lon="13.4086617"><ele>187.66666666666669</ele><time>2026-03-22T08:28:31.994Z</time></trkpt><trkpt lat="43.4561733" lon="13.408905"><ele>188.33333333333334</ele><time>2026-03-22T08:28:32.992Z</time></trkpt><trkpt lat="43.4561567" lon="13.40914"><ele>189.0</ele><time>2026-03-22T08:28:33.99Z</time></trkpt><trkpt lat="43.4561167" lon="13.40938"><ele>189.0</ele><time>2026-03-22T08:28:34.992Z</time></trkpt><trkpt lat="43.4560517" lon="13.40961"><ele>189.0</ele><time>2026-03-22T08:28:35.994Z</time></trkpt><trkpt lat="43.455985" lon="13.40983"><ele>189.0</ele><time>2026-03-22T08:28:36.994Z</time></trkpt><trkpt lat="43.4559167" lon="13.4100433"><ele>190.66666666666669</ele><time>2026-03-22T08:28:37.991Z</time></trkpt><trkpt lat="43.45585" lon="13.41025"><ele>192.33333333333334</ele><time>2026-03-22T08:28:38.993Z</time></trkpt><trkpt lat="43.4557883" lon="13.4104533"><ele>194.0</ele><time>2026-03-22T08:28:39.991Z</time></trkpt><trkpt lat="43.4557317" lon="13.4106533"><ele>194.0</ele><time>2026-03-22T08:28:40.993Z</time></trkpt><trkpt lat="43.4556767" lon="13.4108567"><ele>194.0</ele><time>2026-03-22T08:28:41.989Z</time></trkpt><trkpt lat="43.4556117" lon="13.4110583"><ele>194.0</ele><time>2026-03-22T08:28:42.991Z</time></trkpt><trkpt lat="43.45555" lon="13.41127"><ele>193.66666666666669</ele><time>2026-03-22T08:28:43.993Z</time></trkpt><trkpt lat="43.4554833" lon="13.4114967"><ele>193.33333333333331</ele><time>2026-03-22T08:28:44.995Z</time></trkpt><trkpt lat="43.45542" lon="13.4117433"><ele>193.0</ele><time>2026-03-22T08:28:45.996Z</time></trkpt><trkpt lat="43.4553533" lon="13.411995"><ele>189.33333333333331</ele><time>2026-03-22T08:28:46.992Z</time></trkpt><trkpt lat="43.4552917" lon="13.4122467"><ele>185.66666666666666</ele><time>2026-03-22T08:28:47.988Z</time></trkpt><trkpt lat="43.4552317" lon="13.4124883"><ele>182.0</ele><time>2026-03-22T08:28:48.993Z</time></trkpt><trkpt lat="43.4551683" lon="13.4127317"><ele>182.0</ele><time>2026-03-22T08:28:49.994Z</time></trkpt><trkpt lat="43.455105" lon="13.41298"><ele>182.0</ele><time>2026-03-22T08:28:50.993Z</time></trkpt><trkpt lat="43.45505" lon="13.413235"><ele>182.0</ele><time>2026-03-22T08:28:51.995Z</time></trkpt><trkpt lat="43.4550067" lon="13.413495"><ele>182.0</ele><time>2026-03-22T08:28:52.99Z</time></trkpt><trkpt lat="43.4549767" lon="13.4137667"><ele>182.0</ele><time>2026-03-22T08:28:53.994Z</time></trkpt><trkpt lat="43.4549533" lon="13.414055"><ele>182.0</ele><time>2026-03-22T08:28:54.994Z</time></trkpt><trkpt lat="43.4549433" lon="13.4143367"><ele>182.0</ele><time>2026-03-22T08:28:55.994Z</time></trkpt><trkpt lat="43.45494" lon="13.414605"><ele>182.0</ele><time>2026-03-22T08:28:56.993Z</time></trkpt><trkpt lat="43.454935" lon="13.4148667"><ele>182.0</ele><time>2026-03-22T08:28:57.991Z</time></trkpt><trkpt lat="43.45493" lon="13.4151167"><ele>182.33333333333331</ele><time>2026-03-22T08:28:58.993Z</time></trkpt><trkpt lat="43.45492" lon="13.4153583"><ele>182.66666666666666</ele><time>2026-03-22T08:28:59.994Z</time></trkpt><trkpt lat="43.4549" lon="13.4155933"><ele>183.0</ele><time>2026-03-22T08:29:00.99Z</time></trkpt><trkpt lat="43.4548733" lon="13.4158167"><ele>183.75</ele><time>2026-03-22T08:29:01.994Z</time></trkpt><trkpt lat="43.4548417" lon="13.4160233"><ele>184.5</ele><time>2026-03-22T08:29:02.994Z</time></trkpt><trkpt lat="43.4548117" lon="13.4162167"><ele>185.25</ele><time>2026-03-22T08:29:03.99Z</time></trkpt><trkpt lat="43.4547833" lon="13.416395"><ele>186.0</ele><time>2026-03-22T08:29:04.992Z</time></trkpt><trkpt lat="43.4547533" lon="13.416555"><ele>186.0</ele><time>2026-03-22T08:29:05.992Z</time></trkpt><trkpt lat="43.4547333" lon="13.4167017"><ele>186.0</ele><time>2026-03-22T08:29:06.991Z</time></trkpt><trkpt lat="43.4547117" lon="13.4168283"><ele>186.0</ele><time>2026-03-22T08:29:07.992Z</time></trkpt><trkpt lat="43.4546933" lon="13.41694"><ele>186.0</ele><time>2026-03-22T08:29:08.993Z</time></trkpt><trkpt lat="43.454675" lon="13.417035"><ele>186.0</ele><time>2026-03-22T08:29:09.991Z</time></trkpt><trkpt lat="43.4546467" lon="13.4172017"><ele>186.33333333333334</ele><time>2026-03-22T08:29:11.991Z</time></trkpt><trkpt lat="43.4546267" lon="13.4173"><ele>186.66666666666666</ele><time>2026-03-22T08:29:12.991Z</time></trkpt><trkpt lat="43.4546083" lon="13.4173933"><ele>187.0</ele><time>2026-03-22T08:29:13.99Z</time></trkpt><trkpt lat="43.4545917" lon="13.4175067"><ele>187.33333333333331</ele><time>2026-03-22T08:29:15.989Z</time></trkpt><trkpt lat="43.45457" lon="13.4176233"><ele>187.66666666666666</ele><time>2026-03-22T08:29:35.989Z</time></trkpt><trkpt lat="43.4545367" lon="13.4178"><ele>188.0</ele><time>2026-03-22T08:29:37.991Z</time></trkpt><trkpt lat="43.454515" lon="13.41792"><ele>188.25</ele><time>2026-03-22T08:29:38.992Z</time></trkpt><trkpt lat="43.454485" lon="13.4180617"><ele>188.5</ele><time>2026-03-22T08:29:39.992Z</time></trkpt><trkpt lat="43.4544417" lon="13.4182167"><ele>188.75</ele><time>2026-03-22T08:29:40.991Z</time></trkpt><trkpt lat="43.4543767" lon="13.4183633"><ele>189.0</ele><time>2026-03-22T08:29:41.99Z</time></trkpt><trkpt lat="43.4542833" lon="13.4185017"><ele>189.0</ele><time>2026-03-22T08:29:42.991Z</time></trkpt><trkpt lat="43.45418" lon="13.41863"><ele>189.0</ele><time>2026-03-22T08:29:43.992Z</time></trkpt><trkpt lat="43.4540683" lon="13.4187617"><ele>189.0</ele><time>2026-03-22T08:29:44.993Z</time></trkpt><trkpt lat="43.4539533" lon="13.418895"><ele>189.0</ele><time>2026-03-22T08:29:45.992Z</time></trkpt><trkpt lat="43.4538483" lon="13.41903"><ele>187.0</ele><time>2026-03-22T08:29:46.993Z</time></trkpt><trkpt lat="43.453745" lon="13.4191783"><ele>185.0</ele><time>2026-03-22T08:29:47.991Z</time></trkpt><trkpt lat="43.4536417" lon="13.4193383"><ele>183.0</ele><time>2026-03-22T08:29:48.99Z</time></trkpt><trkpt lat="43.45354" lon="13.419515"><ele>179.66666666666666</ele><time>2026-03-22T08:29:49.992Z</time></trkpt><trkpt lat="43.4534417" lon="13.4197"><ele>176.33333333333331</ele><time>2026-03-22T08:29:50.993Z</time></trkpt><trkpt lat="43.4533483" lon="13.419895"><ele>173.0</ele><time>2026-03-22T08:29:51.991Z</time></trkpt><trkpt lat="43.45326" lon="13.4200917"><ele>173.0</ele><time>2026-03-22T08:29:52.99Z</time></trkpt><trkpt lat="43.45317" lon="13.4202833"><ele>173.0</ele><time>2026-03-22T08:29:53.992Z</time></trkpt><trkpt lat="43.4530733" lon="13.4204683"><ele>173.0</ele><time>2026-03-22T08:29:54.991Z</time></trkpt><trkpt lat="43.4529833" lon="13.4206617"><ele>173.66666666666666</ele><time>2026-03-22T08:29:55.994Z</time></trkpt><trkpt lat="43.4528917" lon="13.4208633"><ele>174.33333333333334</ele><time>2026-03-22T08:29:56.988Z</time></trkpt><trkpt lat="43.4528183" lon="13.4210817"><ele>175.0</ele><time>2026-03-22T08:29:57.991Z</time></trkpt><trkpt lat="43.45277" lon="13.4213117"><ele>174.0</ele><time>2026-03-22T08:29:58.992Z</time></trkpt><trkpt lat="43.4527383" lon="13.42155"><ele>173.0</ele><time>2026-03-22T08:29:59.992Z</time></trkpt><trkpt lat="43.4527217" lon="13.421795"><ele>172.0</ele><time>2026-03-22T08:30:00.992Z</time></trkpt><trkpt lat="43.4527183" lon="13.42203"><ele>172.0</ele><time>2026-03-22T08:30:01.992Z</time></trkpt><trkpt lat="43.452725" lon="13.4222533"><ele>172.0</ele><time>2026-03-22T08:30:02.991Z</time></trkpt><trkpt lat="43.4527333" lon="13.42247"><ele>172.0</ele><time>2026-03-22T08:30:03.992Z</time></trkpt><trkpt lat="43.4527433" lon="13.4226817"><ele>172.0</ele><time>2026-03-22T08:30:04.992Z</time></trkpt><trkpt lat="43.4527517" lon="13.422895"><ele>172.0</ele><time>2026-03-22T08:30:05.99Z</time></trkpt><trkpt lat="43.45276" lon="13.4231"><ele>172.0</ele><time>2026-03-22T08:30:06.991Z</time></trkpt><trkpt lat="43.4527533" lon="13.4233083"><ele>170.0</ele><time>2026-03-22T08:30:07.99Z</time></trkpt><trkpt lat="43.452705" lon="13.4235083"><ele>168.0</ele><time>2026-03-22T08:30:08.99Z</time></trkpt><trkpt lat="43.4526283" lon="13.42369"><ele>166.0</ele><time>2026-03-22T08:30:09.991Z</time></trkpt><trkpt lat="43.4525167" lon="13.4238383"><ele>163.0</ele><time>2026-03-22T08:30:10.991Z</time></trkpt><trkpt lat="43.4524017" lon="13.4239833"><ele>160.0</ele><time>2026-03-22T08:30:11.99Z</time></trkpt><trkpt lat="43.4523067" lon="13.4241483"><ele>157.0</ele><time>2026-03-22T08:30:12.991Z</time></trkpt><trkpt lat="43.45223" lon="13.424335"><ele>157.0</ele><time>2026-03-22T08:30:13.993Z</time></trkpt><trkpt lat="43.4521933" lon="13.4245433"><ele>157.0</ele><time>2026-03-22T08:30:14.992Z</time></trkpt><trkpt lat="43.452185" lon="13.4247733"><ele>157.0</ele><time>2026-03-22T08:30:15.992Z</time></trkpt><trkpt lat="43.4521833" lon="13.42501"><ele>154.33333333333334</ele><time>2026-03-22T08:30:16.991Z</time></trkpt><trkpt lat="43.4521833" lon="13.42525"><ele>151.66666666666666</ele><time>2026-03-22T08:30:17.992Z</time></trkpt><trkpt lat="43.45218" lon="13.425475"><ele>149.0</ele><time>2026-03-22T08:30:18.993Z</time></trkpt><trkpt lat="43.4521767" lon="13.4257"><ele>146.66666666666666</ele><time>2026-03-22T08:30:19.99Z</time></trkpt><trkpt lat="43.4521633" lon="13.4259333"><ele>144.33333333333334</ele><time>2026-03-22T08:30:20.991Z</time></trkpt><trkpt lat="43.452145" lon="13.4261767"><ele>142.0</ele><time>2026-03-22T08:30:21.991Z</time></trkpt><trkpt lat="43.4521283" lon="13.4264217"><ele>146.66666666666669</ele><time>2026-03-22T08:30:22.992Z</time></trkpt><trkpt lat="43.4521083" lon="13.4266633"><ele>151.33333333333334</ele><time>2026-03-22T08:30:23.991Z</time></trkpt><trkpt lat="43.4520867" lon="13.426905"><ele>156.0</ele><time>2026-03-22T08:30:24.993Z</time></trkpt><trkpt lat="43.4520683" lon="13.42716"><ele>156.0</ele><time>2026-03-22T08:30:25.991Z</time></trkpt><trkpt lat="43.45205" lon="13.4274167"><ele>156.0</ele><time>2026-03-22T08:30:26.991Z</time></trkpt><trkpt lat="43.4520283" lon="13.4276733"><ele>156.0</ele><time>2026-03-22T08:30:27.992Z</time></trkpt><trkpt lat="43.4520117" lon="13.4279267"><ele>155.0</ele><time>2026-03-22T08:30:28.991Z</time></trkpt><trkpt lat="43.452" lon="13.4281767"><ele>154.0</ele><time>2026-03-22T08:30:29.991Z</time></trkpt><trkpt lat="43.4519867" lon="13.42842"><ele>153.0</ele><time>2026-03-22T08:30:30.993Z</time></trkpt><trkpt lat="43.45197" lon="13.428655"><ele>152.66666666666666</ele><time>2026-03-22T08:30:31.993Z</time></trkpt><trkpt lat="43.4519583" lon="13.42888"><ele>152.33333333333331</ele><time>2026-03-22T08:30:32.994Z</time></trkpt><trkpt lat="43.4519583" lon="13.4290933"><ele>152.0</ele><time>2026-03-22T08:30:33.995Z</time></trkpt><trkpt lat="43.4519717" lon="13.429295"><ele>152.0</ele><time>2026-03-22T08:30:34.99Z</time></trkpt><trkpt lat="43.4519967" lon="13.42947"><ele>152.0</ele><time>2026-03-22T08:30:35.993Z</time></trkpt><trkpt lat="43.4520467" lon="13.4296217"><ele>152.0</ele><time>2026-03-22T08:30:36.993Z</time></trkpt><trkpt lat="43.4521233" lon="13.42974"><ele>152.0</ele><time>2026-03-22T08:30:37.994Z</time></trkpt><trkpt lat="43.4522383" lon="13.429795"><ele>148.75</ele><time>2026-03-22T08:30:38.994Z</time></trkpt><trkpt lat="43.4523567" lon="13.429775"><ele>145.5</ele><time>2026-03-22T08:30:39.992Z</time></trkpt><trkpt lat="43.4524717" lon="13.4296717"><ele>142.25</ele><time>2026-03-22T08:30:40.99Z</time></trkpt><trkpt lat="43.4525783" lon="13.4294967"><ele>139.0</ele><time>2026-03-22T08:30:41.993Z</time></trkpt><trkpt lat="43.4526633" lon="13.4293233"><ele>137.25</ele><time>2026-03-22T08:30:42.99Z</time></trkpt><trkpt lat="43.4527467" lon="13.429155"><ele>135.5</ele><time>2026-03-22T08:30:43.99Z</time></trkpt><trkpt lat="43.4528267" lon="13.4289883"><ele>133.75</ele><time>2026-03-22T08:30:44.991Z</time></trkpt><trkpt lat="43.45291" lon="13.4288217"><ele>132.0</ele><time>2026-03-22T08:30:45.994Z</time></trkpt><trkpt lat="43.4530017" lon="13.4286567"><ele>130.0</ele><time>2026-03-22T08:30:46.994Z</time></trkpt><trkpt lat="43.4531" lon="13.4285017"><ele>128.0</ele><time>2026-03-22T08:30:47.99Z</time></trkpt><trkpt lat="43.4532067" lon="13.4283567"><ele>126.0</ele><time>2026-03-22T08:30:48.991Z</time></trkpt><trkpt lat="43.4533167" lon="13.4282183"><ele>124.0</ele><time>2026-03-22T08:30:49.992Z</time></trkpt><trkpt lat="43.4534333" lon="13.4280867"><ele>124.0</ele><time>2026-03-22T08:30:50.991Z</time></trkpt><trkpt lat="43.4535617" lon="13.4279833"><ele>124.0</ele><time>2026-03-22T08:30:51.992Z</time></trkpt><trkpt lat="43.453705" lon="13.42792"><ele>124.0</ele><time>2026-03-22T08:30:52.992Z</time></trkpt><trkpt lat="43.4538583" lon="13.4279167"><ele>122.0</ele><time>2026-03-22T08:30:53.99Z</time></trkpt><trkpt lat="43.4540233" lon="13.42796"><ele>120.0</ele><time>2026-03-22T08:30:54.992Z</time></trkpt><trkpt lat="43.4541783" lon="13.4280517"><ele>118.0</ele><time>2026-03-22T08:30:55.994Z</time></trkpt><trkpt lat="43.4543133" lon="13.4281867"><ele>118.0</ele><time>2026-03-22T08:30:56.994Z</time></trkpt><trkpt lat="43.4544383" lon="13.4283467"><ele>118.0</ele><time>2026-03-22T08:30:57.989Z</time></trkpt><trkpt lat="43.4545667" lon="13.4285067"><ele>118.0</ele><time>2026-03-22T08:30:58.989Z</time></trkpt><trkpt lat="43.4547" lon="13.4286567"><ele>116.66666666666667</ele><time>2026-03-22T08:30:59.996Z</time></trkpt><trkpt lat="43.4548433" lon="13.42878"><ele>115.33333333333334</ele><time>2026-03-22T08:31:00.992Z</time></trkpt><trkpt lat="43.454995" lon="13.4288617"><ele>114.0</ele><time>2026-03-22T08:31:01.991Z</time></trkpt><trkpt lat="43.45515" lon="13.42892"><ele>114.0</ele><time>2026-03-22T08:31:02.991Z</time></trkpt><trkpt lat="43.4553083" lon="13.42897"><ele>114.0</ele><time>2026-03-22T08:31:03.992Z</time></trkpt><trkpt lat="43.4554667" lon="13.4290167"><ele>114.0</ele><time>2026-03-22T08:31:04.99Z</time></trkpt><trkpt lat="43.455615" lon="13.429065"><ele>111.75</ele><time>2026-03-22T08:31:05.994Z</time></trkpt><trkpt lat="43.4557583" lon="13.42911"><ele>109.5</ele><time>2026-03-22T08:31:06.994Z</time></trkpt><trkpt lat="43.45589" lon="13.4291533"><ele>107.25</ele><time>2026-03-22T08:31:07.993Z</time></trkpt><trkpt lat="43.4560183" lon="13.4291933"><ele>105.0</ele><time>2026-03-22T08:31:08.996Z</time></trkpt><trkpt lat="43.456155" lon="13.4292417"><ele>100.33333333333333</ele><time>2026-03-22T08:31:09.995Z</time></trkpt><trkpt lat="43.4562917" lon="13.42931"><ele>95.66666666666666</ele><time>2026-03-22T08:31:10.995Z</time></trkpt><trkpt lat="43.456425" lon="13.4294283"><ele>91.0</ele><time>2026-03-22T08:31:11.992Z</time></trkpt><trkpt lat="43.4565383" lon="13.4295883"><ele>94.33333333333333</ele><time>2026-03-22T08:31:12.994Z</time></trkpt><trkpt lat="43.4566367" lon="13.4297567"><ele>97.66666666666666</ele><time>2026-03-22T08:31:13.993Z</time></trkpt><trkpt lat="43.456755" lon="13.4298867"><ele>101.0</ele><time>2026-03-22T08:31:14.991Z</time></trkpt><trkpt lat="43.4568833" lon="13.42998"><ele>101.0</ele><time>2026-03-22T08:31:15.991Z</time></trkpt><trkpt lat="43.457025" lon="13.4300517"><ele>101.0</ele><time>2026-03-22T08:31:16.991Z</time></trkpt><trkpt lat="43.457165" lon="13.4301317"><ele>101.0</ele><time>2026-03-22T08:31:17.993Z</time></trkpt><trkpt lat="43.4572983" lon="13.4302283"><ele>99.66666666666666</ele><time>2026-03-22T08:31:18.993Z</time></trkpt><trkpt lat="43.457425" lon="13.4303467"><ele>98.33333333333334</ele><time>2026-03-22T08:31:19.994Z</time></trkpt><trkpt lat="43.4575467" lon="13.4304683"><ele>97.0</ele><time>2026-03-22T08:31:20.998Z</time></trkpt><trkpt lat="43.4576717" lon="13.4305883"><ele>97.0</ele><time>2026-03-22T08:31:21.991Z</time></trkpt><trkpt lat="43.4577983" lon="13.4307"><ele>97.0</ele><time>2026-03-22T08:31:22.995Z</time></trkpt><trkpt lat="43.4579233" lon="13.430785"><ele>97.0</ele><time>2026-03-22T08:31:23.991Z</time></trkpt><trkpt lat="43.458055" lon="13.4308517"><ele>97.0</ele><time>2026-03-22T08:31:24.993Z</time></trkpt><trkpt lat="43.4581933" lon="13.4309017"><ele>93.75</ele><time>2026-03-22T08:31:25.992Z</time></trkpt><trkpt lat="43.4583317" lon="13.430935"><ele>90.5</ele><time>2026-03-22T08:31:26.994Z</time></trkpt><trkpt lat="43.4584783" lon="13.4309617"><ele>87.25</ele><time>2026-03-22T08:31:27.993Z</time></trkpt><trkpt lat="43.45862" lon="13.4309917"><ele>84.0</ele><time>2026-03-22T08:31:28.994Z</time></trkpt><trkpt lat="43.4587633" lon="13.4310217"><ele>82.0</ele><time>2026-03-22T08:31:29.994Z</time></trkpt><trkpt lat="43.4589067" lon="13.4310533"><ele>80.0</ele><time>2026-03-22T08:31:30.997Z</time></trkpt><trkpt lat="43.4590417" lon="13.4310867"><ele>78.0</ele><time>2026-03-22T08:31:31.994Z</time></trkpt><trkpt lat="43.459175" lon="13.4311267"><ele>76.0</ele><time>2026-03-22T08:31:32.996Z</time></trkpt><trkpt lat="43.459305" lon="13.4311717"><ele>76.0</ele><time>2026-03-22T08:31:33.993Z</time></trkpt><trkpt lat="43.4594383" lon="13.4312367"><ele>76.0</ele><time>2026-03-22T08:31:34.993Z</time></trkpt><trkpt lat="43.4595617" lon="13.4313183"><ele>76.0</ele><time>2026-03-22T08:31:35.992Z</time></trkpt><trkpt lat="43.45968" lon="13.4314117"><ele>76.0</ele><time>2026-03-22T08:31:36.994Z</time></trkpt><trkpt lat="43.459785" lon="13.4315033"><ele>75.75</ele><time>2026-03-22T08:31:37.993Z</time></trkpt><trkpt lat="43.4598883" lon="13.4315933"><ele>75.5</ele><time>2026-03-22T08:31:38.996Z</time></trkpt><trkpt lat="43.4599867" lon="13.4316817"><ele>75.25</ele><time>2026-03-22T08:31:39.994Z</time></trkpt><trkpt lat="43.46009" lon="13.4317667"><ele>75.0</ele><time>2026-03-22T08:31:40.994Z</time></trkpt><trkpt lat="43.4602083" lon="13.4318567"><ele>75.0</ele><time>2026-03-22T08:31:41.99Z</time></trkpt><trkpt lat="43.460325" lon="13.431955"><ele>75.0</ele><time>2026-03-22T08:31:42.992Z</time></trkpt><trkpt lat="43.4604433" lon="13.4320483"><ele>75.0</ele><time>2026-03-22T08:31:43.992Z</time></trkpt><trkpt lat="43.4605583" lon="13.4321433"><ele>75.0</ele><time>2026-03-22T08:31:44.993Z</time></trkpt><trkpt lat="43.4606683" lon="13.4322317"><ele>74.0</ele><time>2026-03-22T08:31:45.992Z</time></trkpt><trkpt lat="43.4607617" lon="13.432305"><ele>73.0</ele><time>2026-03-22T08:31:46.995Z</time></trkpt><trkpt lat="43.46084" lon="13.432375"><ele>72.0</ele><time>2026-03-22T08:31:47.992Z</time></trkpt><trkpt lat="43.4609083" lon="13.4324317"><ele>71.0</ele><time>2026-03-22T08:31:48.994Z</time></trkpt><trkpt lat="43.46097" lon="13.4324833"><ele>70.0</ele><time>2026-03-22T08:31:49.994Z</time></trkpt><trkpt lat="43.4610283" lon="13.43253"><ele>69.0</ele><time>2026-03-22T08:31:50.993Z</time></trkpt><trkpt lat="43.46109" lon="13.4325833"><ele>69.0</ele><time>2026-03-22T08:31:51.993Z</time></trkpt><trkpt lat="43.4611533" lon="13.4326517"><ele>69.0</ele><time>2026-03-22T08:31:52.994Z</time></trkpt><trkpt lat="43.46121" lon="13.43273"><ele>69.0</ele><time>2026-03-22T08:31:53.993Z</time></trkpt><trkpt lat="43.4612533" lon="13.4328317"><ele>69.0</ele><time>2026-03-22T08:31:54.992Z</time></trkpt><trkpt lat="43.461305" lon="13.43301"><ele>69.0</ele><time>2026-03-22T08:31:55.992Z</time></trkpt><trkpt lat="43.4613533" lon="13.433245"><ele>68.33333333333333</ele><time>2026-03-22T08:31:56.993Z</time></trkpt><trkpt lat="43.4614" lon="13.43351"><ele>67.66666666666666</ele><time>2026-03-22T08:31:57.992Z</time></trkpt><trkpt lat="43.46145" lon="13.4338"><ele>67.0</ele><time>2026-03-22T08:31:58.994Z</time></trkpt><trkpt lat="43.46151" lon="13.4341017"><ele>66.0</ele><time>2026-03-22T08:31:59.991Z</time></trkpt><trkpt lat="43.46158" lon="13.4344183"><ele>65.0</ele><time>2026-03-22T08:32:00.992Z</time></trkpt><trkpt lat="43.4616533" lon="13.4347433"><ele>65.0</ele><time>2026-03-22T08:32:01.997Z</time></trkpt><trkpt lat="43.4617317" lon="13.435065"><ele>65.0</ele><time>2026-03-22T08:32:02.995Z</time></trkpt><trkpt lat="43.4618183" lon="13.4353917"><ele>65.0</ele><time>2026-03-22T08:32:03.991Z</time></trkpt><trkpt lat="43.4619183" lon="13.4357117"><ele>65.0</ele><time>2026-03-22T08:32:04.992Z</time></trkpt><trkpt lat="43.4620283" lon="13.4360317"><ele>64.5</ele><time>2026-03-22T08:32:05.99Z</time></trkpt><trkpt lat="43.46215" lon="13.436345"><ele>64.0</ele><time>2026-03-22T08:32:06.995Z</time></trkpt><trkpt lat="43.4622783" lon="13.4366483"><ele>64.0</ele><time>2026-03-22T08:32:07.997Z</time></trkpt><trkpt lat="43.46241" lon="13.436935"><ele>64.0</ele><time>2026-03-22T08:32:08.994Z</time></trkpt><trkpt lat="43.4625417" lon="13.437215"><ele>63.5</ele><time>2026-03-22T08:32:09.99Z</time></trkpt><trkpt lat="43.4626783" lon="13.437495"><ele>63.0</ele><time>2026-03-22T08:32:10.99Z</time></trkpt><trkpt lat="43.4628183" lon="13.4377767"><ele>62.5</ele><time>2026-03-22T08:32:11.994Z</time></trkpt><trkpt lat="43.4629583" lon="13.4380567"><ele>62.0</ele><time>2026-03-22T08:32:12.993Z</time></trkpt><trkpt lat="43.4630983" lon="13.4383367"><ele>62.0</ele><time>2026-03-22T08:32:13.991Z</time></trkpt><trkpt lat="43.4632383" lon="13.43862"><ele>62.0</ele><time>2026-03-22T08:32:14.993Z</time></trkpt><trkpt lat="43.4633733" lon="13.4389033"><ele>62.0</ele><time>2026-03-22T08:32:15.992Z</time></trkpt><trkpt lat="43.4635017" lon="13.4391917"><ele>62.0</ele><time>2026-03-22T08:32:16.991Z</time></trkpt><trkpt lat="43.463615" lon="13.4394883"><ele>62.5</ele><time>2026-03-22T08:32:17.994Z</time></trkpt><trkpt lat="43.46372" lon="13.439795"><ele>63.0</ele><time>2026-03-22T08:32:18.991Z</time></trkpt><trkpt lat="43.4638133" lon="13.4401017"><ele>62.33333333333333</ele><time>2026-03-22T08:32:19.993Z</time></trkpt><trkpt lat="43.4638917" lon="13.4403967"><ele>61.666666666666664</ele><time>2026-03-22T08:32:20.996Z</time></trkpt><trkpt lat="43.4639533" lon="13.44068"><ele>61.0</ele><time>2026-03-22T08:32:21.991Z</time></trkpt><trkpt lat="43.4640017" lon="13.44095"><ele>61.0</ele><time>2026-03-22T08:32:22.991Z</time></trkpt><trkpt lat="43.4640333" lon="13.4412067"><ele>61.0</ele><time>2026-03-22T08:32:23.993Z</time></trkpt><trkpt lat="43.46405" lon="13.4414617"><ele>61.0</ele><time>2026-03-22T08:32:24.991Z</time></trkpt><trkpt lat="43.464075" lon="13.4417283"><ele>61.0</ele><time>2026-03-22T08:32:25.994Z</time></trkpt><trkpt lat="43.4641067" lon="13.442015"><ele>61.0</ele><time>2026-03-22T08:32:26.993Z</time></trkpt><trkpt lat="43.4641433" lon="13.44231"><ele>61.0</ele><time>2026-03-22T08:32:27.995Z</time></trkpt><trkpt lat="43.4641867" lon="13.4426133"><ele>60.0</ele><time>2026-03-22T08:32:28.995Z</time></trkpt><trkpt lat="43.4642367" lon="13.4429233"><ele>59.0</ele><time>2026-03-22T08:32:29.993Z</time></trkpt><trkpt lat="43.4642933" lon="13.4432333"><ele>59.0</ele><time>2026-03-22T08:32:30.992Z</time></trkpt><trkpt lat="43.4643583" lon="13.4435433"><ele>59.0</ele><time>2026-03-22T08:32:31.993Z</time></trkpt><trkpt lat="43.4644333" lon="13.44386"><ele>59.0</ele><time>2026-03-22T08:32:32.993Z</time></trkpt><trkpt lat="43.4645117" lon="13.4441783"><ele>59.0</ele><time>2026-03-22T08:32:33.992Z</time></trkpt><trkpt lat="43.4645983" lon="13.4445017"><ele>58.5</ele><time>2026-03-22T08:32:34.992Z</time></trkpt><trkpt lat="43.4646883" lon="13.4448267"><ele>58.0</ele><time>2026-03-22T08:32:35.992Z</time></trkpt><trkpt lat="43.464785" lon="13.4451517"><ele>58.5</ele><time>2026-03-22T08:32:36.993Z</time></trkpt><trkpt lat="43.4648817" lon="13.4454733"><ele>59.0</ele><time>2026-03-22T08:32:37.994Z</time></trkpt><trkpt lat="43.4649733" lon="13.4458017"><ele>59.0</ele><time>2026-03-22T08:32:38.994Z</time></trkpt><trkpt lat="43.4650533" lon="13.446135"><ele>59.0</ele><time>2026-03-22T08:32:39.992Z</time></trkpt><trkpt lat="43.4651083" lon="13.4464733"><ele>59.0</ele><time>2026-03-22T08:32:40.992Z</time></trkpt><trkpt lat="43.46514" lon="13.4468217"><ele>59.0</ele><time>2026-03-22T08:32:41.994Z</time></trkpt><trkpt lat="43.4651533" lon="13.4471717"><ele>59.0</ele><time>2026-03-22T08:32:42.993Z</time></trkpt><trkpt lat="43.4651583" lon="13.4475217"><ele>59.0</ele><time>2026-03-22T08:32:43.994Z</time></trkpt><trkpt lat="43.4651667" lon="13.44787"><ele>59.0</ele><time>2026-03-22T08:32:44.993Z</time></trkpt><trkpt lat="43.46518" lon="13.4482217"><ele>59.0</ele><time>2026-03-22T08:32:45.991Z</time></trkpt><trkpt lat="43.4651933" lon="13.4485717"><ele>58.0</ele><time>2026-03-22T08:32:46.993Z</time></trkpt><trkpt lat="43.465205" lon="13.4489217"><ele>57.0</ele><time>2026-03-22T08:32:47.992Z</time></trkpt><trkpt lat="43.4652183" lon="13.4492717"><ele>57.0</ele><time>2026-03-22T08:32:48.994Z</time></trkpt><trkpt lat="43.4652333" lon="13.4496233"><ele>57.0</ele><time>2026-03-22T08:32:49.993Z</time></trkpt><trkpt lat="43.465245" lon="13.4499733"><ele>56.0</ele><time>2026-03-22T08:32:50.994Z</time></trkpt><trkpt lat="43.4652583" lon="13.4503233"><ele>55.0</ele><time>2026-03-22T08:32:51.993Z</time></trkpt><trkpt lat="43.46527" lon="13.4506733"><ele>54.0</ele><time>2026-03-22T08:32:52.992Z</time></trkpt><trkpt lat="43.465285" lon="13.4510267"><ele>53.0</ele><time>2026-03-22T08:32:53.994Z</time></trkpt><trkpt lat="43.4652967" lon="13.45138"><ele>53.0</ele><time>2026-03-22T08:32:54.995Z</time></trkpt><trkpt lat="43.465305" lon="13.4517283"><ele>53.0</ele><time>2026-03-22T08:32:55.991Z</time></trkpt><trkpt lat="43.465305" lon="13.452075"><ele>54.5</ele><time>2026-03-22T08:32:56.995Z</time></trkpt><trkpt lat="43.4653" lon="13.452425"><ele>56.0</ele><time>2026-03-22T08:32:57.993Z</time></trkpt><trkpt lat="43.4652917" lon="13.452775"><ele>56.5</ele><time>2026-03-22T08:32:58.991Z</time></trkpt><trkpt lat="43.4652833" lon="13.4531233"><ele>57.0</ele><time>2026-03-22T08:32:59.993Z</time></trkpt><trkpt lat="43.4652767" lon="13.45347"><ele>55.0</ele><time>2026-03-22T08:33:00.995Z</time></trkpt><trkpt lat="43.4652733" lon="13.4538133"><ele>53.0</ele><time>2026-03-22T08:33:01.992Z</time></trkpt><trkpt lat="43.4652683" lon="13.4541517"><ele>53.0</ele><time>2026-03-22T08:33:02.995Z</time></trkpt><trkpt lat="43.4652567" lon="13.4544867"><ele>53.0</ele><time>2026-03-22T08:33:03.992Z</time></trkpt><trkpt lat="43.465235" lon="13.4548183"><ele>53.0</ele><time>2026-03-22T08:33:04.99Z</time></trkpt><trkpt lat="43.4652017" lon="13.4551533"><ele>53.0</ele><time>2026-03-22T08:33:05.995Z</time></trkpt><trkpt lat="43.4651633" lon="13.455485"><ele>53.5</ele><time>2026-03-22T08:33:06.992Z</time></trkpt><trkpt lat="43.4651283" lon="13.4558233"><ele>54.0</ele><time>2026-03-22T08:33:07.995Z</time></trkpt><trkpt lat="43.4650967" lon="13.4561533"><ele>54.0</ele><time>2026-03-22T08:33:08.992Z</time></trkpt><trkpt lat="43.4650767" lon="13.4564717"><ele>54.0</ele><time>2026-03-22T08:33:09.992Z</time></trkpt><trkpt lat="43.4650667" lon="13.4567717"><ele>54.0</ele><time>2026-03-22T08:33:10.99Z</time></trkpt><trkpt lat="43.4650633" lon="13.4570417"><ele>54.0</ele><time>2026-03-22T08:33:11.991Z</time></trkpt><trkpt lat="43.46506" lon="13.4572817"><ele>54.0</ele><time>2026-03-22T08:33:12.994Z</time></trkpt><trkpt lat="43.4650583" lon="13.457485"><ele>54.2</ele><time>2026-03-22T08:33:13.992Z</time></trkpt><trkpt lat="43.4650567" lon="13.4576483"><ele>54.400000000000006</ele><time>2026-03-22T08:33:14.995Z</time></trkpt><trkpt lat="43.4650567" lon="13.4577667"><ele>54.6</ele><time>2026-03-22T08:33:15.991Z</time></trkpt><trkpt lat="43.4650567" lon="13.457865"><ele>54.8</ele><time>2026-03-22T08:33:16.989Z</time></trkpt><trkpt lat="43.4650717" lon="13.4579917"><ele>55.0</ele><time>2026-03-22T08:33:59.993Z</time></trkpt><trkpt lat="43.4651317" lon="13.4581167"><ele>55.0</ele><time>2026-03-22T08:34:01.991Z</time></trkpt><trkpt lat="43.4652417" lon="13.4581817"><ele>55.0</ele><time>2026-03-22T08:34:02.992Z</time></trkpt><trkpt lat="43.465375" lon="13.458225"><ele>55.0</ele><time>2026-03-22T08:34:03.993Z</time></trkpt><trkpt lat="43.4655167" lon="13.45825"><ele>55.0</ele><time>2026-03-22T08:34:04.993Z</time></trkpt><trkpt lat="43.4656817" lon="13.45827"><ele>54.666666666666664</ele><time>2026-03-22T08:34:05.993Z</time></trkpt><trkpt lat="43.46585" lon="13.4582867"><ele>54.33333333333333</ele><time>2026-03-22T08:34:06.993Z</time></trkpt><trkpt lat="43.4660067" lon="13.458305"><ele>54.0</ele><time>2026-03-22T08:34:07.993Z</time></trkpt><trkpt lat="43.4661483" lon="13.4583167"><ele>54.0</ele><time>2026-03-22T08:34:08.993Z</time></trkpt><trkpt lat="43.4662733" lon="13.4583267"><ele>54.00000000000001</ele><time>2026-03-22T08:34:09.994Z</time></trkpt><trkpt lat="43.4663883" lon="13.4583417"><ele>54.00000000000001</ele><time>2026-03-22T08:34:10.993Z</time></trkpt><trkpt lat="43.466495" lon="13.458355"><ele>54.0</ele><time>2026-03-22T08:34:11.989Z</time></trkpt><trkpt lat="43.4665933" lon="13.45837"><ele>54.0</ele><time>2026-03-22T08:34:12.993Z</time></trkpt><trkpt lat="43.4666867" lon="13.458405"><ele>54.0</ele><time>2026-03-22T08:34:13.991Z</time></trkpt><trkpt lat="43.4667817" lon="13.4584717"><ele>54.00000000000001</ele><time>2026-03-22T08:34:14.994Z</time></trkpt><trkpt lat="43.46688" lon="13.4585383"><ele>54.00000000000001</ele><time>2026-03-22T08:34:15.992Z</time></trkpt><trkpt lat="43.4669817" lon="13.45857"><ele>54.0</ele><time>2026-03-22T08:34:16.99Z</time></trkpt><trkpt lat="43.4670783" lon="13.45855"><ele>54.0</ele><time>2026-03-22T08:34:17.99Z</time></trkpt><trkpt lat="43.4672" lon="13.4584967"><ele>54.0</ele><time>2026-03-22T08:34:18.998Z</time></trkpt><trkpt lat="43.4673483" lon="13.4584617"><ele>54.0</ele><time>2026-03-22T08:34:19.992Z</time></trkpt><trkpt lat="43.46751" lon="13.4584683"><ele>54.0</ele><time>2026-03-22T08:34:20.992Z</time></trkpt><trkpt lat="43.467685" lon="13.4584983"><ele>54.0</ele><time>2026-03-22T08:34:21.991Z</time></trkpt><trkpt lat="43.467875" lon="13.4585317"><ele>54.0</ele><time>2026-03-22T08:34:22.992Z</time></trkpt><trkpt lat="43.468075" lon="13.4585667"><ele>54.0</ele><time>2026-03-22T08:34:23.995Z</time></trkpt><trkpt lat="43.4682767" lon="13.4586017"><ele>54.33333333333333</ele><time>2026-03-22T08:34:24.994Z</time></trkpt><trkpt lat="43.4684817" lon="13.4586383"><ele>54.666666666666664</ele><time>2026-03-22T08:34:25.993Z</time></trkpt><trkpt lat="43.46869" lon="13.4586767"><ele>55.0</ele><time>2026-03-22T08:34:26.996Z</time></trkpt><trkpt lat="43.4689017" lon="13.4587167"><ele>55.33333333333333</ele><time>2026-03-22T08:34:27.994Z</time></trkpt><trkpt lat="43.4691133" lon="13.458755"><ele>55.66666666666667</ele><time>2026-03-22T08:34:28.993Z</time></trkpt><trkpt lat="43.4693167" lon="13.45879"><ele>56.0</ele><time>2026-03-22T08:34:29.996Z</time></trkpt><trkpt lat="43.4695133" lon="13.4588217"><ele>56.333333333333336</ele><time>2026-03-22T08:34:30.994Z</time></trkpt><trkpt lat="43.469705" lon="13.4588517"><ele>56.66666666666667</ele><time>2026-03-22T08:34:31.994Z</time></trkpt><trkpt lat="43.4698783" lon="13.4588767"><ele>57.0</ele><time>2026-03-22T08:34:32.996Z</time></trkpt><trkpt lat="43.470035" lon="13.4589017"><ele>57.0</ele><time>2026-03-22T08:34:33.992Z</time></trkpt><trkpt lat="43.4701817" lon="13.4589233"><ele>57.0</ele><time>2026-03-22T08:34:34.993Z</time></trkpt><trkpt lat="43.4703183" lon="13.4589483"><ele>57.0</ele><time>2026-03-22T08:34:35.994Z</time></trkpt><trkpt lat="43.4704483" lon="13.4589717"><ele>57.0</ele><time>2026-03-22T08:34:36.995Z</time></trkpt><trkpt lat="43.4705717" lon="13.4590017"><ele>58.0</ele><time>2026-03-22T08:34:37.992Z</time></trkpt><trkpt lat="43.4706917" lon="13.4590483"><ele>59.0</ele><time>2026-03-22T08:34:38.994Z</time></trkpt><trkpt lat="43.4708133" lon="13.4591233"><ele>60.0</ele><time>2026-03-22T08:34:39.994Z</time></trkpt><trkpt lat="43.470935" lon="13.4592017"><ele>61.0</ele><time>2026-03-22T08:34:40.993Z</time></trkpt><trkpt lat="43.4710567" lon="13.4592683"><ele>61.0</ele><time>2026-03-22T08:34:41.993Z</time></trkpt><trkpt lat="43.47118" lon="13.459345"><ele>61.0</ele><time>2026-03-22T08:34:42.994Z</time></trkpt><trkpt lat="43.4712967" lon="13.4594633"><ele>61.0</ele><time>2026-03-22T08:34:43.992Z</time></trkpt><trkpt lat="43.4714117" lon="13.45963"><ele>61.0</ele><time>2026-03-22T08:34:44.995Z</time></trkpt><trkpt lat="43.4715267" lon="13.45983"><ele>62.33333333333333</ele><time>2026-03-22T08:34:45.993Z</time></trkpt><trkpt lat="43.47165" lon="13.4600467"><ele>63.66666666666667</ele><time>2026-03-22T08:34:46.993Z</time></trkpt><trkpt lat="43.4717733" lon="13.4602783"><ele>65.0</ele><time>2026-03-22T08:34:47.998Z</time></trkpt><trkpt lat="43.471895" lon="13.46052"><ele>65.0</ele><time>2026-03-22T08:34:48.995Z</time></trkpt><trkpt lat="43.4720117" lon="13.460775"><ele>65.0</ele><time>2026-03-22T08:34:49.993Z</time></trkpt><trkpt lat="43.472125" lon="13.4610417"><ele>65.0</ele><time>2026-03-22T08:34:50.992Z</time></trkpt><trkpt lat="43.4722317" lon="13.4613167"><ele>65.5</ele><time>2026-03-22T08:34:51.993Z</time></trkpt><trkpt lat="43.4723433" lon="13.4616017"><ele>66.0</ele><time>2026-03-22T08:34:52.994Z</time></trkpt><trkpt lat="43.4724517" lon="13.4618917"><ele>66.0</ele><time>2026-03-22T08:34:53.997Z</time></trkpt><trkpt lat="43.4725583" lon="13.46218"><ele>66.0</ele><time>2026-03-22T08:34:54.996Z</time></trkpt><trkpt lat="43.472665" lon="13.4624583"><ele>66.0</ele><time>2026-03-22T08:34:55.994Z</time></trkpt><trkpt lat="43.472775" lon="13.4627167"><ele>66.0</ele><time>2026-03-22T08:34:56.996Z</time></trkpt><trkpt lat="43.4728933" lon="13.4629633"><ele>66.0</ele><time>2026-03-22T08:34:57.993Z</time></trkpt><trkpt lat="43.4730217" lon="13.4632017"><ele>67.66666666666667</ele><time>2026-03-22T08:34:58.992Z</time></trkpt><trkpt lat="43.4731533" lon="13.4634383"><ele>69.33333333333334</ele><time>2026-03-22T08:34:59.995Z</time></trkpt><trkpt lat="43.4732767" lon="13.4636783"><ele>71.0</ele><time>2026-03-22T08:35:00.994Z</time></trkpt><trkpt lat="43.4733933" lon="13.4639217"><ele>72.0</ele><time>2026-03-22T08:35:01.994Z</time></trkpt><trkpt lat="43.4735067" lon="13.4641683"><ele>73.0</ele><time>2026-03-22T08:35:02.996Z</time></trkpt><trkpt lat="43.47361" lon="13.46442"><ele>74.0</ele><time>2026-03-22T08:35:03.994Z</time></trkpt><trkpt lat="43.4736917" lon="13.464685"><ele>75.33333333333334</ele><time>2026-03-22T08:35:04.995Z</time></trkpt><trkpt lat="43.4737483" lon="13.4649533"><ele>76.66666666666667</ele><time>2026-03-22T08:35:05.995Z</time></trkpt><trkpt lat="43.4737717" lon="13.4652333"><ele>78.0</ele><time>2026-03-22T08:35:06.995Z</time></trkpt><trkpt lat="43.4737483" lon="13.46552"><ele>79.66666666666667</ele><time>2026-03-22T08:35:07.994Z</time></trkpt><trkpt lat="43.4736883" lon="13.4658067"><ele>81.33333333333334</ele><time>2026-03-22T08:35:08.992Z</time></trkpt><trkpt lat="43.4736033" lon="13.4660883"><ele>83.0</ele><time>2026-03-22T08:35:09.995Z</time></trkpt><trkpt lat="43.4734983" lon="13.4663683"><ele>83.5</ele><time>2026-03-22T08:35:10.993Z</time></trkpt><trkpt lat="43.4733817" lon="13.46665"><ele>84.0</ele><time>2026-03-22T08:35:11.996Z</time></trkpt><trkpt lat="43.4732633" lon="13.4669183"><ele>84.66666666666667</ele><time>2026-03-22T08:35:12.996Z</time></trkpt><trkpt lat="43.473155" lon="13.4671733"><ele>85.33333333333334</ele><time>2026-03-22T08:35:13.993Z</time></trkpt><trkpt lat="43.4730617" lon="13.46741"><ele>86.0</ele><time>2026-03-22T08:35:14.993Z</time></trkpt><trkpt lat="43.47298" lon="13.4676217"><ele>84.75</ele><time>2026-03-22T08:35:15.994Z</time></trkpt><trkpt lat="43.4729183" lon="13.4678117"><ele>83.5</ele><time>2026-03-22T08:35:16.992Z</time></trkpt><trkpt lat="43.4728667" lon="13.4679783"><ele>82.25</ele><time>2026-03-22T08:35:17.99Z</time></trkpt><trkpt lat="43.4728233" lon="13.46812"><ele>81.0</ele><time>2026-03-22T08:35:18.993Z</time></trkpt><trkpt lat="43.4727817" lon="13.468235"><ele>81.0</ele><time>2026-03-22T08:35:19.994Z</time></trkpt><trkpt lat="43.4727383" lon="13.468335"><ele>81.0</ele><time>2026-03-22T08:35:20.993Z</time></trkpt><trkpt lat="43.47269" lon="13.4684233"><ele>81.0</ele><time>2026-03-22T08:35:21.995Z</time></trkpt><trkpt lat="43.4726417" lon="13.46852"><ele>81.0</ele><time>2026-03-22T08:35:22.993Z</time></trkpt><trkpt lat="43.4726017" lon="13.46862"><ele>81.0</ele><time>2026-03-22T08:35:23.994Z</time></trkpt><trkpt lat="43.4725783" lon="13.468725"><ele>81.0</ele><time>2026-03-22T08:35:24.993Z</time></trkpt><trkpt lat="43.472585" lon="13.468835"><ele>80.8</ele><time>2026-03-22T08:35:25.994Z</time></trkpt><trkpt lat="43.4726633" lon="13.4688883"><ele>80.6</ele><time>2026-03-22T08:35:26.993Z</time></trkpt><trkpt lat="43.4727383" lon="13.4689083"><ele>80.4</ele><time>2026-03-22T08:35:27.99Z</time></trkpt><trkpt lat="43.47284" lon="13.4688933"><ele>80.2</ele><time>2026-03-22T08:35:28.991Z</time></trkpt><trkpt lat="43.472965" lon="13.46887"><ele>80.0</ele><time>2026-03-22T08:35:29.989Z</time></trkpt><trkpt lat="43.47312" lon="13.46887"><ele>83.0</ele><time>2026-03-22T08:35:30.991Z</time></trkpt><trkpt lat="43.4732867" lon="13.4689033"><ele>86.0</ele><time>2026-03-22T08:35:31.993Z</time></trkpt><trkpt lat="43.473455" lon="13.4689633"><ele>89.0</ele><time>2026-03-22T08:35:32.991Z</time></trkpt><trkpt lat="43.4736333" lon="13.469025"><ele>92.33333333333334</ele><time>2026-03-22T08:35:33.991Z</time></trkpt><trkpt lat="43.473815" lon="13.4690767"><ele>95.66666666666667</ele><time>2026-03-22T08:35:34.989Z</time></trkpt><trkpt lat="43.47401" lon="13.4691367"><ele>99.0</ele><time>2026-03-22T08:35:35.993Z</time></trkpt><trkpt lat="43.4742067" lon="13.4692033"><ele>99.0</ele><time>2026-03-22T08:35:36.992Z</time></trkpt><trkpt lat="43.474405" lon="13.469275"><ele>99.0</ele><time>2026-03-22T08:35:37.995Z</time></trkpt><trkpt lat="43.4746083" lon="13.4693467"><ele>99.0</ele><time>2026-03-22T08:35:38.996Z</time></trkpt><trkpt lat="43.4748133" lon="13.46941"><ele>102.0</ele><time>2026-03-22T08:35:39.991Z</time></trkpt><trkpt lat="43.47502" lon="13.4694767"><ele>105.0</ele><time>2026-03-22T08:35:40.991Z</time></trkpt><trkpt lat="43.4752233" lon="13.4695533"><ele>108.0</ele><time>2026-03-22T08:35:41.992Z</time></trkpt><trkpt lat="43.4754233" lon="13.4696517"><ele>109.0</ele><time>2026-03-22T08:35:42.993Z</time></trkpt><trkpt lat="43.4756217" lon="13.4697683"><ele>110.0</ele><time>2026-03-22T08:35:43.994Z</time></trkpt><trkpt lat="43.4758233" lon="13.4698983"><ele>111.0</ele><time>2026-03-22T08:35:44.994Z</time></trkpt><trkpt lat="43.47601" lon="13.470045"><ele>111.0</ele><time>2026-03-22T08:35:45.996Z</time></trkpt><trkpt lat="43.476195" lon="13.470205"><ele>111.0</ele><time>2026-03-22T08:35:46.995Z</time></trkpt><trkpt lat="43.4763817" lon="13.4703783"><ele>111.0</ele><time>2026-03-22T08:35:47.993Z</time></trkpt><trkpt lat="43.47657" lon="13.4705667"><ele>113.0</ele><time>2026-03-22T08:35:48.994Z</time></trkpt><trkpt lat="43.4767533" lon="13.4707683"><ele>115.0</ele><time>2026-03-22T08:35:49.991Z</time></trkpt><trkpt lat="43.4769167" lon="13.4709833"><ele>115.0</ele><time>2026-03-22T08:35:50.994Z</time></trkpt><trkpt lat="43.477065" lon="13.471195"><ele>115.0</ele><time>2026-03-22T08:35:51.995Z</time></trkpt><trkpt lat="43.477195" lon="13.4713983"><ele>115.0</ele><time>2026-03-22T08:35:52.992Z</time></trkpt><trkpt lat="43.477315" lon="13.4715883"><ele>116.0</ele><time>2026-03-22T08:35:53.991Z</time></trkpt><trkpt lat="43.4774183" lon="13.4717683"><ele>117.0</ele><time>2026-03-22T08:35:54.991Z</time></trkpt><trkpt lat="43.4775083" lon="13.471935"><ele>118.0</ele><time>2026-03-22T08:35:55.992Z</time></trkpt><trkpt lat="43.47759" lon="13.47208"><ele>118.4</ele><time>2026-03-22T08:35:56.992Z</time></trkpt><trkpt lat="43.477655" lon="13.4722033"><ele>118.80000000000001</ele><time>2026-03-22T08:35:57.996Z</time></trkpt><trkpt lat="43.4777017" lon="13.4723167"><ele>119.2</ele><time>2026-03-22T08:35:58.993Z</time></trkpt><trkpt lat="43.4777183" lon="13.472435"><ele>119.6</ele><time>2026-03-22T08:35:59.993Z</time></trkpt><trkpt lat="43.47773" lon="13.4725533"><ele>120.0</ele><time>2026-03-22T08:36:00.992Z</time></trkpt><trkpt lat="43.4777567" lon="13.4726633"><ele>120.0</ele><time>2026-03-22T08:36:01.994Z</time></trkpt><trkpt lat="43.4778" lon="13.4727583"><ele>120.0</ele><time>2026-03-22T08:36:02.991Z</time></trkpt><trkpt lat="43.4778733" lon="13.4728517"><ele>120.0</ele><time>2026-03-22T08:36:03.991Z</time></trkpt><trkpt lat="43.477945" lon="13.4729717"><ele>120.0</ele><time>2026-03-22T08:36:04.991Z</time></trkpt><trkpt lat="43.4780083" lon="13.47314"><ele>120.0</ele><time>2026-03-22T08:36:05.992Z</time></trkpt><trkpt lat="43.478065" lon="13.4733267"><ele>122.66666666666666</ele><time>2026-03-22T08:36:06.993Z</time></trkpt><trkpt lat="43.4781183" lon="13.473525"><ele>125.33333333333333</ele><time>2026-03-22T08:36:07.99Z</time></trkpt><trkpt lat="43.4781767" lon="13.4737283"><ele>128.0</ele><time>2026-03-22T08:36:08.993Z</time></trkpt><trkpt lat="43.4782417" lon="13.47393"><ele>129.0</ele><time>2026-03-22T08:36:09.991Z</time></trkpt><trkpt lat="43.4783017" lon="13.4741383"><ele>130.0</ele><time>2026-03-22T08:36:10.992Z</time></trkpt><trkpt lat="43.47836" lon="13.47436"><ele>131.0</ele><time>2026-03-22T08:36:11.994Z</time></trkpt><trkpt lat="43.4784167" lon="13.4745883"><ele>131.66666666666666</ele><time>2026-03-22T08:36:12.993Z</time></trkpt><trkpt lat="43.478475" lon="13.474815"><ele>132.33333333333334</ele><time>2026-03-22T08:36:13.995Z</time></trkpt><trkpt lat="43.4785367" lon="13.4750367"><ele>133.0</ele><time>2026-03-22T08:36:14.992Z</time></trkpt><trkpt lat="43.4786" lon="13.475265"><ele>134.66666666666669</ele><time>2026-03-22T08:36:15.994Z</time></trkpt><trkpt lat="43.47867" lon="13.47549"><ele>136.33333333333334</ele><time>2026-03-22T08:36:16.994Z</time></trkpt><trkpt lat="43.47874" lon="13.47572"><ele>138.0</ele><time>2026-03-22T08:36:17.994Z</time></trkpt><trkpt lat="43.47881" lon="13.4759517"><ele>139.33333333333334</ele><time>2026-03-22T08:36:18.993Z</time></trkpt><trkpt lat="43.47888" lon="13.4761817"><ele>140.66666666666669</ele><time>2026-03-22T08:36:19.992Z</time></trkpt><trkpt lat="43.4789533" lon="13.4763983"><ele>142.0</ele><time>2026-03-22T08:36:20.994Z</time></trkpt><trkpt lat="43.4790383" lon="13.476595"><ele>143.33333333333334</ele><time>2026-03-22T08:36:21.994Z</time></trkpt><trkpt lat="43.4791483" lon="13.4767667"><ele>144.66666666666666</ele><time>2026-03-22T08:36:22.993Z</time></trkpt><trkpt lat="43.4792867" lon="13.476915"><ele>146.0</ele><time>2026-03-22T08:36:23.993Z</time></trkpt><trkpt lat="43.4794333" lon="13.4770617"><ele>147.66666666666666</ele><time>2026-03-22T08:36:24.992Z</time></trkpt><trkpt lat="43.4795833" lon="13.4772117"><ele>149.33333333333334</ele><time>2026-03-22T08:36:25.994Z</time></trkpt><trkpt lat="43.47973" lon="13.4773583"><ele>151.0</ele><time>2026-03-22T08:36:26.994Z</time></trkpt><trkpt lat="43.47987" lon="13.4774967"><ele>152.0</ele><time>2026-03-22T08:36:27.994Z</time></trkpt><trkpt lat="43.480005" lon="13.4776383"><ele>153.0</ele><time>2026-03-22T08:36:28.993Z</time></trkpt><trkpt lat="43.4801383" lon="13.4777783"><ele>154.0</ele><time>2026-03-22T08:36:29.995Z</time></trkpt><trkpt lat="43.48027" lon="13.4779017"><ele>155.5</ele><time>2026-03-22T08:36:30.993Z</time></trkpt><trkpt lat="43.4804033" lon="13.478005"><ele>157.0</ele><time>2026-03-22T08:36:31.994Z</time></trkpt><trkpt lat="43.480545" lon="13.478085"><ele>158.5</ele><time>2026-03-22T08:36:32.993Z</time></trkpt><trkpt lat="43.48067" lon="13.4781467"><ele>160.0</ele><time>2026-03-22T08:36:33.99Z</time></trkpt><trkpt lat="43.4807833" lon="13.4782017"><ele>160.33333333333334</ele><time>2026-03-22T08:36:34.992Z</time></trkpt><trkpt lat="43.4808833" lon="13.478245"><ele>160.66666666666669</ele><time>2026-03-22T08:36:35.994Z</time></trkpt><trkpt lat="43.4809683" lon="13.4782917"><ele>161.0</ele><time>2026-03-22T08:36:36.993Z</time></trkpt><trkpt lat="43.48104" lon="13.4783267"><ele>161.33333333333334</ele><time>2026-03-22T08:36:37.992Z</time></trkpt><trkpt lat="43.4810983" lon="13.47836"><ele>161.66666666666666</ele><time>2026-03-22T08:36:38.996Z</time></trkpt><trkpt lat="43.48118" lon="13.478395"><ele>162.0</ele><time>2026-03-22T08:36:41.991Z</time></trkpt><trkpt lat="43.4812683" lon="13.4784317"><ele>162.33333333333334</ele><time>2026-03-22T08:36:43.993Z</time></trkpt><trkpt lat="43.481335" lon="13.47847"><ele>162.66666666666666</ele><time>2026-03-22T08:36:44.995Z</time></trkpt><trkpt lat="43.481395" lon="13.4785267"><ele>163.0</ele><time>2026-03-22T08:36:45.995Z</time></trkpt><trkpt lat="43.4814617" lon="13.47859"><ele>163.33333333333331</ele><time>2026-03-22T08:36:46.992Z</time></trkpt><trkpt lat="43.48154" lon="13.4786633"><ele>163.66666666666666</ele><time>2026-03-22T08:36:47.993Z</time></trkpt><trkpt lat="43.4816267" lon="13.4787333"><ele>164.0</ele><time>2026-03-22T08:36:48.994Z</time></trkpt><trkpt lat="43.4817117" lon="13.4788"><ele>165.39999999999998</ele><time>2026-03-22T08:36:49.997Z</time></trkpt><trkpt lat="43.4817967" lon="13.47887"><ele>166.8</ele><time>2026-03-22T08:36:50.994Z</time></trkpt><trkpt lat="43.48188" lon="13.4789517"><ele>168.2</ele><time>2026-03-22T08:36:51.996Z</time></trkpt><trkpt lat="43.48194" lon="13.4790417"><ele>169.60000000000002</ele><time>2026-03-22T08:36:52.993Z</time></trkpt><trkpt lat="43.4819833" lon="13.4791383"><ele>171.0</ele><time>2026-03-22T08:36:53.991Z</time></trkpt><trkpt lat="43.48202" lon="13.4792367"><ele>171.0</ele><time>2026-03-22T08:36:54.992Z</time></trkpt><trkpt lat="43.4820083" lon="13.4793267"><ele>171.0</ele><time>2026-03-22T08:36:55.993Z</time></trkpt><trkpt lat="43.4819817" lon="13.4794067"><ele>171.0</ele><time>2026-03-22T08:36:56.992Z</time></trkpt><trkpt lat="43.4819133" lon="13.4795167"><ele>171.0</ele><time>2026-03-22T08:36:58.993Z</time></trkpt><trkpt lat="43.4818483" lon="13.4795717"><ele>171.0</ele><time>2026-03-22T08:37:00.993Z</time></trkpt><trkpt lat="43.4817783" lon="13.47961"><ele>171.0</ele><time>2026-03-22T08:37:02.993Z</time></trkpt><trkpt lat="43.4816867" lon="13.4796667"><ele>170.83333333333334</ele><time>2026-03-22T08:37:04.99Z</time></trkpt><trkpt lat="43.48163" lon="13.4797783"><ele>170.66666666666666</ele><time>2026-03-22T08:37:06.994Z</time></trkpt><trkpt lat="43.4816267" lon="13.479875"><ele>170.5</ele><time>2026-03-22T08:37:07.991Z</time></trkpt><trkpt lat="43.481635" lon="13.4799883"><ele>170.33333333333331</ele><time>2026-03-22T08:37:08.992Z</time></trkpt><trkpt lat="43.4816467" lon="13.4800917"><ele>170.16666666666666</ele><time>2026-03-22T08:37:09.992Z</time></trkpt><trkpt lat="43.4816583" lon="13.48021"><ele>170.0</ele><time>2026-03-22T08:37:10.991Z</time></trkpt><trkpt lat="43.4816717" lon="13.4803167"><ele>170.0</ele><time>2026-03-22T08:37:11.991Z</time></trkpt><trkpt lat="43.4816833" lon="13.4804067"><ele>170.0</ele><time>2026-03-22T08:37:12.992Z</time></trkpt><trkpt lat="43.4816967" lon="13.4805"><ele>170.0</ele><time>2026-03-22T08:37:13.992Z</time></trkpt><trkpt lat="43.481705" lon="13.4805967"><ele>170.0</ele><time>2026-03-22T08:37:14.991Z</time></trkpt><trkpt lat="43.48172" lon="13.4806917"><ele>170.0</ele><time>2026-03-22T08:37:15.989Z</time></trkpt><trkpt lat="43.481745" lon="13.48079"><ele>170.0</ele><time>2026-03-22T08:37:16.995Z</time></trkpt><trkpt lat="43.4818483" lon="13.48088"><ele>169.8</ele><time>2026-03-22T08:37:18.992Z</time></trkpt><trkpt lat="43.4819367" lon="13.4808833"><ele>169.6</ele><time>2026-03-22T08:37:19.995Z</time></trkpt><trkpt lat="43.4820433" lon="13.48089"><ele>169.39999999999998</ele><time>2026-03-22T08:37:20.992Z</time></trkpt><trkpt lat="43.4821367" lon="13.48091"><ele>169.2</ele><time>2026-03-22T08:37:21.99Z</time></trkpt><trkpt lat="43.4822217" lon="13.4809317"><ele>169.0</ele><time>2026-03-22T08:37:22.995Z</time></trkpt><trkpt lat="43.4823067" lon="13.4809433"><ele>171.2</ele><time>2026-03-22T08:37:23.991Z</time></trkpt><trkpt lat="43.482395" lon="13.4809533"><ele>173.39999999999998</ele><time>2026-03-22T08:37:24.992Z</time></trkpt><trkpt lat="43.4824883" lon="13.4809733"><ele>175.6</ele><time>2026-03-22T08:37:26.001Z</time></trkpt><trkpt lat="43.4825883" lon="13.4810117"><ele>177.8</ele><time>2026-03-22T08:37:26.991Z</time></trkpt><trkpt lat="43.4826767" lon="13.4810633"><ele>180.0</ele><time>2026-03-22T08:37:27.994Z</time></trkpt><trkpt lat="43.4827517" lon="13.48113"><ele>180.0</ele><time>2026-03-22T08:37:28.991Z</time></trkpt><trkpt lat="43.482825" lon="13.4812133"><ele>180.0</ele><time>2026-03-22T08:37:29.994Z</time></trkpt><trkpt lat="43.482895" lon="13.4813133"><ele>180.0</ele><time>2026-03-22T08:37:30.991Z</time></trkpt><trkpt lat="43.4829667" lon="13.4814233"><ele>180.0</ele><time>2026-03-22T08:37:31.994Z</time></trkpt><trkpt lat="43.4830317" lon="13.4815333"><ele>180.0</ele><time>2026-03-22T08:37:32.991Z</time></trkpt><trkpt lat="43.4830967" lon="13.48164"><ele>181.4</ele><time>2026-03-22T08:37:33.989Z</time></trkpt><trkpt lat="43.48315" lon="13.4817583"><ele>182.8</ele><time>2026-03-22T08:37:34.993Z</time></trkpt><trkpt lat="43.483195" lon="13.4818783"><ele>184.2</ele><time>2026-03-22T08:37:35.993Z</time></trkpt><trkpt lat="43.4832367" lon="13.4819917"><ele>185.6</ele><time>2026-03-22T08:37:36.991Z</time></trkpt><trkpt lat="43.4832733" lon="13.48211"><ele>187.0</ele><time>2026-03-22T08:37:37.992Z</time></trkpt><trkpt lat="43.48331" lon="13.482235"><ele>187.0</ele><time>2026-03-22T08:37:38.995Z</time></trkpt><trkpt lat="43.483335" lon="13.4823617"><ele>187.0</ele><time>2026-03-22T08:37:39.992Z</time></trkpt><trkpt lat="43.4833633" lon="13.48249"><ele>187.0</ele><time>2026-03-22T08:37:40.992Z</time></trkpt><trkpt lat="43.48339" lon="13.4826233"><ele>187.0</ele><time>2026-03-22T08:37:41.995Z</time></trkpt><trkpt lat="43.483415" lon="13.48275"><ele>187.0</ele><time>2026-03-22T08:37:42.994Z</time></trkpt><trkpt lat="43.4834383" lon="13.4828667"><ele>186.33333333333334</ele><time>2026-03-22T08:37:43.991Z</time></trkpt><trkpt lat="43.4834567" lon="13.48297"><ele>185.66666666666669</ele><time>2026-03-22T08:37:44.994Z</time></trkpt><trkpt lat="43.4834783" lon="13.48307"><ele>185.0</ele><time>2026-03-22T08:37:45.993Z</time></trkpt><trkpt lat="43.4835" lon="13.48318"><ele>184.33333333333334</ele><time>2026-03-22T08:37:46.993Z</time></trkpt><trkpt lat="43.4835333" lon="13.483305"><ele>183.66666666666666</ele><time>2026-03-22T08:37:47.993Z</time></trkpt><trkpt lat="43.4835817" lon="13.4834367"><ele>183.0</ele><time>2026-03-22T08:37:48.992Z</time></trkpt><trkpt lat="43.4836433" lon="13.4835617"><ele>183.0</ele><time>2026-03-22T08:37:49.993Z</time></trkpt><trkpt lat="43.4837217" lon="13.4836733"><ele>183.0</ele><time>2026-03-22T08:37:50.991Z</time></trkpt><trkpt lat="43.483815" lon="13.4837633"><ele>183.0</ele><time>2026-03-22T08:37:51.995Z</time></trkpt><trkpt lat="43.4839083" lon="13.4838333"><ele>183.0</ele><time>2026-03-22T08:37:52.994Z</time></trkpt><trkpt lat="43.484005" lon="13.4838933"><ele>183.0</ele><time>2026-03-22T08:37:53.995Z</time></trkpt><trkpt lat="43.4841033" lon="13.4839483"><ele>185.2</ele><time>2026-03-22T08:37:54.993Z</time></trkpt><trkpt lat="43.4842017" lon="13.484"><ele>187.4</ele><time>2026-03-22T08:37:55.994Z</time></trkpt><trkpt lat="43.4842967" lon="13.484055"><ele>189.6</ele><time>2026-03-22T08:37:56.995Z</time></trkpt><trkpt lat="43.484385" lon="13.48412"><ele>191.79999999999998</ele><time>2026-03-22T08:37:57.993Z</time></trkpt><trkpt lat="43.4844683" lon="13.4842083"><ele>194.0</ele><time>2026-03-22T08:37:58.994Z</time></trkpt><trkpt lat="43.4845333" lon="13.48431"><ele>194.0</ele><time>2026-03-22T08:37:59.993Z</time></trkpt><trkpt lat="43.48455" lon="13.484425"><ele>194.0</ele><time>2026-03-22T08:38:00.992Z</time></trkpt><trkpt lat="43.4845583" lon="13.484545"><ele>194.0</ele><time>2026-03-22T08:38:01.992Z</time></trkpt><trkpt lat="43.4845383" lon="13.4846783"><ele>194.0</ele><time>2026-03-22T08:38:02.993Z</time></trkpt><trkpt lat="43.4844767" lon="13.4848117"><ele>194.0</ele><time>2026-03-22T08:38:03.992Z</time></trkpt><trkpt lat="43.4844133" lon="13.484935"><ele>194.0</ele><time>2026-03-22T08:38:04.994Z</time></trkpt><trkpt lat="43.4843683" lon="13.4850533"><ele>194.0</ele><time>2026-03-22T08:38:05.99Z</time></trkpt><trkpt lat="43.4843117" lon="13.4851783"><ele>194.0</ele><time>2026-03-22T08:38:06.993Z</time></trkpt><trkpt lat="43.48427" lon="13.4853083"><ele>194.0</ele><time>2026-03-22T08:38:07.995Z</time></trkpt><trkpt lat="43.4842317" lon="13.4854333"><ele>194.0</ele><time>2026-03-22T08:38:08.995Z</time></trkpt><trkpt lat="43.4841983" lon="13.4855567"><ele>194.83333333333334</ele><time>2026-03-22T08:38:09.992Z</time></trkpt><trkpt lat="43.484165" lon="13.4856717"><ele>195.66666666666669</ele><time>2026-03-22T08:38:10.993Z</time></trkpt><trkpt lat="43.4841317" lon="13.48578"><ele>196.5</ele><time>2026-03-22T08:38:11.993Z</time></trkpt><trkpt lat="43.4841" lon="13.4858833"><ele>197.33333333333331</ele><time>2026-03-22T08:38:12.991Z</time></trkpt><trkpt lat="43.48407" lon="13.4859867"><ele>198.16666666666666</ele><time>2026-03-22T08:38:13.99Z</time></trkpt><trkpt lat="43.484035" lon="13.4861033"><ele>199.0</ele><time>2026-03-22T08:38:14.993Z</time></trkpt><trkpt lat="43.4839967" lon="13.4862517"><ele>200.75</ele><time>2026-03-22T08:38:15.993Z</time></trkpt><trkpt lat="43.4839583" lon="13.4864167"><ele>202.5</ele><time>2026-03-22T08:38:16.991Z</time></trkpt><trkpt lat="43.4839283" lon="13.4865833"><ele>204.25</ele><time>2026-03-22T08:38:17.992Z</time></trkpt><trkpt lat="43.4838983" lon="13.4867433"><ele>206.0</ele><time>2026-03-22T08:38:18.989Z</time></trkpt><trkpt lat="43.4838733" lon="13.486895"><ele>206.0</ele><time>2026-03-22T08:38:19.991Z</time></trkpt><trkpt lat="43.48385" lon="13.48705"><ele>206.0</ele><time>2026-03-22T08:38:20.99Z</time></trkpt><trkpt lat="43.4838183" lon="13.4872"><ele>206.0</ele><time>2026-03-22T08:38:21.995Z</time></trkpt><trkpt lat="43.4837733" lon="13.4873517"><ele>206.0</ele><time>2026-03-22T08:38:22.993Z</time></trkpt><trkpt lat="43.4837183" lon="13.487485"><ele>201.25</ele><time>2026-03-22T08:38:23.994Z</time></trkpt><trkpt lat="43.4836467" lon="13.4875867"><ele>196.5</ele><time>2026-03-22T08:38:24.993Z</time></trkpt><trkpt lat="43.4835533" lon="13.487675"><ele>191.75</ele><time>2026-03-22T08:38:25.993Z</time></trkpt><trkpt lat="43.4834433" lon="13.48775"><ele>187.0</ele><time>2026-03-22T08:38:26.992Z</time></trkpt><trkpt lat="43.48334" lon="13.4878133"><ele>187.0</ele><time>2026-03-22T08:38:27.992Z</time></trkpt><trkpt lat="43.4832483" lon="13.4878817"><ele>187.0</ele><time>2026-03-22T08:38:28.994Z</time></trkpt><trkpt lat="43.4831583" lon="13.4879467"><ele>187.0</ele><time>2026-03-22T08:38:29.996Z</time></trkpt><trkpt lat="43.483075" lon="13.4880283"><ele>187.0</ele><time>2026-03-22T08:38:30.995Z</time></trkpt><trkpt lat="43.48301" lon="13.4881217"><ele>187.0</ele><time>2026-03-22T08:38:31.992Z</time></trkpt><trkpt lat="43.4829633" lon="13.488225"><ele>188.2</ele><time>2026-03-22T08:38:32.991Z</time></trkpt><trkpt lat="43.4829367" lon="13.4883283"><ele>189.39999999999998</ele><time>2026-03-22T08:38:33.992Z</time></trkpt><trkpt lat="43.4829217" lon="13.4884417"><ele>190.60000000000002</ele><time>2026-03-22T08:38:34.993Z</time></trkpt><trkpt lat="43.4829217" lon="13.4885583"><ele>191.8</ele><time>2026-03-22T08:38:35.993Z</time></trkpt><trkpt lat="43.4829367" lon="13.4886983"><ele>193.0</ele><time>2026-03-22T08:38:36.992Z</time></trkpt><trkpt lat="43.4829633" lon="13.4888417"><ele>193.0</ele><time>2026-03-22T08:38:37.994Z</time></trkpt><trkpt lat="43.4829933" lon="13.48898"><ele>193.0</ele><time>2026-03-22T08:38:38.994Z</time></trkpt><trkpt lat="43.4830217" lon="13.48911"><ele>193.0</ele><time>2026-03-22T08:38:39.994Z</time></trkpt><trkpt lat="43.483045" lon="13.4892317"><ele>193.0</ele><time>2026-03-22T08:38:40.992Z</time></trkpt><trkpt lat="43.4830633" lon="13.4893567"><ele>193.0</ele><time>2026-03-22T08:38:41.994Z</time></trkpt><trkpt lat="43.4830683" lon="13.4894867"><ele>192.60000000000002</ele><time>2026-03-22T08:38:42.993Z</time></trkpt><trkpt lat="43.48306" lon="13.4896233"><ele>192.20000000000002</ele><time>2026-03-22T08:38:43.991Z</time></trkpt><trkpt lat="43.4830317" lon="13.4897617"><ele>191.8</ele><time>2026-03-22T08:38:44.994Z</time></trkpt><trkpt lat="43.482975" lon="13.489895"><ele>191.4</ele><time>2026-03-22T08:38:45.991Z</time></trkpt><trkpt lat="43.48292" lon="13.4900233"><ele>191.0</ele><time>2026-03-22T08:38:46.994Z</time></trkpt><trkpt lat="43.482875" lon="13.4901517"><ele>187.60000000000002</ele><time>2026-03-22T08:38:47.991Z</time></trkpt><trkpt lat="43.4828333" lon="13.4902783"><ele>184.2</ele><time>2026-03-22T08:38:48.994Z</time></trkpt><trkpt lat="43.48281" lon="13.49041"><ele>180.8</ele><time>2026-03-22T08:38:49.994Z</time></trkpt><trkpt lat="43.4828017" lon="13.49055"><ele>177.39999999999998</ele><time>2026-03-22T08:38:50.992Z</time></trkpt><trkpt lat="43.482805" lon="13.4907033"><ele>174.0</ele><time>2026-03-22T08:38:51.993Z</time></trkpt><trkpt lat="43.4828133" lon="13.4908567"><ele>173.2</ele><time>2026-03-22T08:38:52.992Z</time></trkpt><trkpt lat="43.48282" lon="13.491005"><ele>172.39999999999998</ele><time>2026-03-22T08:38:53.994Z</time></trkpt><trkpt lat="43.4828233" lon="13.4911467"><ele>171.6</ele><time>2026-03-22T08:38:54.992Z</time></trkpt><trkpt lat="43.4828267" lon="13.491285"><ele>170.8</ele><time>2026-03-22T08:38:55.992Z</time></trkpt><trkpt lat="43.4828317" lon="13.49142"><ele>170.0</ele><time>2026-03-22T08:38:56.993Z</time></trkpt><trkpt lat="43.4828417" lon="13.4915517"><ele>170.25</ele><time>2026-03-22T08:38:57.991Z</time></trkpt><trkpt lat="43.4828633" lon="13.4916833"><ele>170.5</ele><time>2026-03-22T08:38:58.991Z</time></trkpt><trkpt lat="43.4829017" lon="13.4918283"><ele>170.75</ele><time>2026-03-22T08:38:59.994Z</time></trkpt><trkpt lat="43.4829533" lon="13.4919783"><ele>171.0</ele><time>2026-03-22T08:39:00.995Z</time></trkpt><trkpt lat="43.4830133" lon="13.4921317"><ele>171.0</ele><time>2026-03-22T08:39:01.991Z</time></trkpt><trkpt lat="43.483075" lon="13.49228"><ele>171.0</ele><time>2026-03-22T08:39:02.994Z</time></trkpt><trkpt lat="43.4831283" lon="13.4924217"><ele>171.0</ele><time>2026-03-22T08:39:03.994Z</time></trkpt><trkpt lat="43.4831767" lon="13.492555"><ele>171.0</ele><time>2026-03-22T08:39:04.997Z</time></trkpt><trkpt lat="43.483225" lon="13.49268"><ele>171.0</ele><time>2026-03-22T08:39:05.994Z</time></trkpt><trkpt lat="43.4832767" lon="13.4927983"><ele>171.0</ele><time>2026-03-22T08:39:06.994Z</time></trkpt><trkpt lat="43.4833317" lon="13.4929167"><ele>171.0</ele><time>2026-03-22T08:39:07.995Z</time></trkpt><trkpt lat="43.4833933" lon="13.4930317"><ele>171.0</ele><time>2026-03-22T08:39:08.993Z</time></trkpt><trkpt lat="43.483465" lon="13.4931367"><ele>171.0</ele><time>2026-03-22T08:39:09.994Z</time></trkpt><trkpt lat="43.4835367" lon="13.49324"><ele>170.8</ele><time>2026-03-22T08:39:10.993Z</time></trkpt><trkpt lat="43.4836117" lon="13.49334"><ele>170.60000000000002</ele><time>2026-03-22T08:39:11.992Z</time></trkpt><trkpt lat="43.4836817" lon="13.493435"><ele>170.4</ele><time>2026-03-22T08:39:12.992Z</time></trkpt><trkpt lat="43.4837467" lon="13.4935233"><ele>170.2</ele><time>2026-03-22T08:39:13.99Z</time></trkpt><trkpt lat="43.4838" lon="13.4936183"><ele>170.0</ele><time>2026-03-22T08:39:14.993Z</time></trkpt><trkpt lat="43.483845" lon="13.4937033"><ele>169.0</ele><time>2026-03-22T08:39:15.991Z</time></trkpt><trkpt lat="43.4838817" lon="13.4937783"><ele>168.0</ele><time>2026-03-22T08:39:16.991Z</time></trkpt><trkpt lat="43.4839433" lon="13.493915"><ele>167.0</ele><time>2026-03-22T08:39:18.993Z</time></trkpt><trkpt lat="43.4839933" lon="13.4939683"><ele>166.0</ele><time>2026-03-22T08:39:19.993Z</time></trkpt><trkpt lat="43.4841083" lon="13.4940117"><ele>165.0</ele><time>2026-03-22T08:39:21.992Z</time></trkpt><trkpt lat="43.4841867" lon="13.4940067"><ele>164.0</ele><time>2026-03-22T08:39:22.992Z</time></trkpt><trkpt lat="43.4842783" lon="13.494"><ele>164.0</ele><time>2026-03-22T08:39:23.992Z</time></trkpt><trkpt lat="43.4843967" lon="13.4940033"><ele>164.0</ele><time>2026-03-22T08:39:24.993Z</time></trkpt><trkpt lat="43.48456" lon="13.4940483"><ele>164.0</ele><time>2026-03-22T08:39:25.995Z</time></trkpt><trkpt lat="43.4847367" lon="13.49409"><ele>164.66666666666666</ele><time>2026-03-22T08:39:26.994Z</time></trkpt><trkpt lat="43.4849217" lon="13.4941467"><ele>165.33333333333334</ele><time>2026-03-22T08:39:27.994Z</time></trkpt><trkpt lat="43.4851033" lon="13.4942183"><ele>166.0</ele><time>2026-03-22T08:39:28.989Z</time></trkpt><trkpt lat="43.4852733" lon="13.49432"><ele>166.33333333333334</ele><time>2026-03-22T08:39:29.992Z</time></trkpt><trkpt lat="43.4854383" lon="13.49443"><ele>166.66666666666666</ele><time>2026-03-22T08:39:30.995Z</time></trkpt><trkpt lat="43.4856033" lon="13.4945483"><ele>167.0</ele><time>2026-03-22T08:39:31.994Z</time></trkpt><trkpt lat="43.4857567" lon="13.4946783"><ele>163.33333333333331</ele><time>2026-03-22T08:39:32.996Z</time></trkpt><trkpt lat="43.4858917" lon="13.49483"><ele>159.66666666666666</ele><time>2026-03-22T08:39:33.993Z</time></trkpt><trkpt lat="43.4860033" lon="13.494985"><ele>156.0</ele><time>2026-03-22T08:39:34.989Z</time></trkpt><trkpt lat="43.4861133" lon="13.4951583"><ele>156.0</ele><time>2026-03-22T08:39:35.993Z</time></trkpt><trkpt lat="43.4862167" lon="13.4953433"><ele>156.0</ele><time>2026-03-22T08:39:36.992Z</time></trkpt><trkpt lat="43.48632" lon="13.4955317"><ele>156.0</ele><time>2026-03-22T08:39:37.991Z</time></trkpt><trkpt lat="43.48642" lon="13.4957167"><ele>156.0</ele><time>2026-03-22T08:39:38.993Z</time></trkpt><trkpt lat="43.4865167" lon="13.4958917"><ele>156.0</ele><time>2026-03-22T08:39:39.992Z</time></trkpt><trkpt lat="43.4866017" lon="13.4960617"><ele>156.0</ele><time>2026-03-22T08:39:40.995Z</time></trkpt><trkpt lat="43.4866817" lon="13.49622"><ele>156.0</ele><time>2026-03-22T08:39:41.995Z</time></trkpt><trkpt lat="43.48677" lon="13.4963617"><ele>155.0</ele><time>2026-03-22T08:39:42.993Z</time></trkpt><trkpt lat="43.486875" lon="13.49648"><ele>154.0</ele><time>2026-03-22T08:39:43.993Z</time></trkpt><trkpt lat="43.48699" lon="13.4965733"><ele>153.0</ele><time>2026-03-22T08:39:44.994Z</time></trkpt><trkpt lat="43.48712" lon="13.4966433"><ele>152.0</ele><time>2026-03-22T08:39:45.994Z</time></trkpt><trkpt lat="43.4872483" lon="13.4966867"><ele>152.0</ele><time>2026-03-22T08:39:46.991Z</time></trkpt><trkpt lat="43.4873833" lon="13.496705"><ele>152.0</ele><time>2026-03-22T08:39:47.991Z</time></trkpt><trkpt lat="43.48752" lon="13.4966967"><ele>152.0</ele><time>2026-03-22T08:39:48.993Z</time></trkpt><trkpt lat="43.4876533" lon="13.4966667"><ele>152.0</ele><time>2026-03-22T08:39:49.991Z</time></trkpt><trkpt lat="43.48779" lon="13.49662"><ele>152.0</ele><time>2026-03-22T08:39:50.993Z</time></trkpt><trkpt lat="43.4879217" lon="13.4965583"><ele>152.0</ele><time>2026-03-22T08:39:51.992Z</time></trkpt><trkpt lat="43.4880483" lon="13.4964667"><ele>152.0</ele><time>2026-03-22T08:39:52.994Z</time></trkpt><trkpt lat="43.4881733" lon="13.4963433"><ele>152.0</ele><time>2026-03-22T08:39:53.995Z</time></trkpt><trkpt lat="43.4882783" lon="13.4961883"><ele>151.33333333333331</ele><time>2026-03-22T08:39:54.992Z</time></trkpt><trkpt lat="43.48837" lon="13.49602"><ele>150.66666666666666</ele><time>2026-03-22T08:39:55.991Z</time></trkpt><trkpt lat="43.4884467" lon="13.49583"><ele>150.0</ele><time>2026-03-22T08:39:56.994Z</time></trkpt><trkpt lat="43.488505" lon="13.4956217"><ele>150.0</ele><time>2026-03-22T08:39:57.99Z</time></trkpt><trkpt lat="43.4885633" lon="13.4954217"><ele>150.0</ele><time>2026-03-22T08:39:58.991Z</time></trkpt><trkpt lat="43.48862" lon="13.4952333"><ele>150.0</ele><time>2026-03-22T08:39:59.994Z</time></trkpt><trkpt lat="43.488675" lon="13.4950583"><ele>150.0</ele><time>2026-03-22T08:40:00.993Z</time></trkpt><trkpt lat="43.4887417" lon="13.494905"><ele>148.5</ele><time>2026-03-22T08:40:01.993Z</time></trkpt><trkpt lat="43.4888267" lon="13.4947783"><ele>147.0</ele><time>2026-03-22T08:40:02.993Z</time></trkpt><trkpt lat="43.4889267" lon="13.494695"><ele>145.5</ele><time>2026-03-22T08:40:03.993Z</time></trkpt><trkpt lat="43.4890333" lon="13.49467"><ele>144.0</ele><time>2026-03-22T08:40:04.993Z</time></trkpt><trkpt lat="43.4891417" lon="13.4947083"><ele>144.0</ele><time>2026-03-22T08:40:05.991Z</time></trkpt><trkpt lat="43.4892517" lon="13.4947967"><ele>144.0</ele><time>2026-03-22T08:40:06.991Z</time></trkpt><trkpt lat="43.48935" lon="13.4949183"><ele>144.0</ele><time>2026-03-22T08:40:07.994Z</time></trkpt><trkpt lat="43.489445" lon="13.4950567"><ele>144.0</ele><time>2026-03-22T08:40:08.995Z</time></trkpt><trkpt lat="43.4895417" lon="13.4952067"><ele>144.0</ele><time>2026-03-22T08:40:09.995Z</time></trkpt><trkpt lat="43.4896433" lon="13.4953567"><ele>144.0</ele><time>2026-03-22T08:40:10.993Z</time></trkpt><trkpt lat="43.4897383" lon="13.4955167"><ele>144.0</ele><time>2026-03-22T08:40:11.993Z</time></trkpt><trkpt lat="43.4898283" lon="13.4956783"><ele>144.0</ele><time>2026-03-22T08:40:12.993Z</time></trkpt><trkpt lat="43.4899217" lon="13.4958333"><ele>144.0</ele><time>2026-03-22T08:40:13.992Z</time></trkpt><trkpt lat="43.4900067" lon="13.4960033"><ele>144.0</ele><time>2026-03-22T08:40:14.994Z</time></trkpt><trkpt lat="43.4900733" lon="13.4961783"><ele>144.0</ele><time>2026-03-22T08:40:15.991Z</time></trkpt><trkpt lat="43.490135" lon="13.4963567"><ele>144.0</ele><time>2026-03-22T08:40:16.991Z</time></trkpt><trkpt lat="43.4901967" lon="13.4965417"><ele>142.0</ele><time>2026-03-22T08:40:17.992Z</time></trkpt><trkpt lat="43.4902617" lon="13.4967317"><ele>140.0</ele><time>2026-03-22T08:40:18.994Z</time></trkpt><trkpt lat="43.4903333" lon="13.49692"><ele>138.0</ele><time>2026-03-22T08:40:19.989Z</time></trkpt><trkpt lat="43.4903967" lon="13.4970967"><ele>139.5</ele><time>2026-03-22T08:40:20.995Z</time></trkpt><trkpt lat="43.4904517" lon="13.4972667"><ele>141.0</ele><time>2026-03-22T08:40:21.99Z</time></trkpt><trkpt lat="43.4904933" lon="13.49743"><ele>142.5</ele><time>2026-03-22T08:40:22.991Z</time></trkpt><trkpt lat="43.490525" lon="13.4975833"><ele>144.0</ele><time>2026-03-22T08:40:23.993Z</time></trkpt><trkpt lat="43.4905483" lon="13.4977267"><ele>144.0</ele><time>2026-03-22T08:40:24.991Z</time></trkpt><trkpt lat="43.49057" lon="13.4978517"><ele>144.0</ele><time>2026-03-22T08:40:25.992Z</time></trkpt><trkpt lat="43.4905883" lon="13.4979633"><ele>144.0</ele><time>2026-03-22T08:40:26.993Z</time></trkpt><trkpt lat="43.4906033" lon="13.4980633"><ele>144.0</ele><time>2026-03-22T08:40:27.99Z</time></trkpt><trkpt lat="43.4906183" lon="13.4981517"><ele>144.0</ele><time>2026-03-22T08:40:28.991Z</time></trkpt><trkpt lat="43.4906417" lon="13.49833"><ele>144.0</ele><time>2026-03-22T08:40:31Z</time></trkpt><trkpt lat="43.4906583" lon="13.4984467"><ele>143.0</ele><time>2026-03-22T08:40:31.993Z</time></trkpt><trkpt lat="43.49068" lon="13.49858"><ele>142.0</ele><time>2026-03-22T08:40:32.994Z</time></trkpt><trkpt lat="43.4907033" lon="13.4987117"><ele>141.0</ele><time>2026-03-22T08:40:33.99Z</time></trkpt><trkpt lat="43.4907233" lon="13.49884"><ele>140.0</ele><time>2026-03-22T08:40:34.991Z</time></trkpt><trkpt lat="43.4907467" lon="13.498965"><ele>139.0</ele><time>2026-03-22T08:40:35.992Z</time></trkpt><trkpt lat="43.49077" lon="13.4990933"><ele>138.0</ele><time>2026-03-22T08:40:36.988Z</time></trkpt><trkpt lat="43.490795" lon="13.4992183"><ele>137.0</ele><time>2026-03-22T08:40:37.994Z</time></trkpt><trkpt lat="43.4908167" lon="13.4993433"><ele>136.0</ele><time>2026-03-22T08:40:38.994Z</time></trkpt><trkpt lat="43.4908383" lon="13.4994733"><ele>135.0</ele><time>2026-03-22T08:40:39.994Z</time></trkpt><trkpt lat="43.4908683" lon="13.499605"><ele>134.0</ele><time>2026-03-22T08:40:40.992Z</time></trkpt><trkpt lat="43.49091" lon="13.4997467"><ele>133.6</ele><time>2026-03-22T08:40:41.992Z</time></trkpt><trkpt lat="43.4909583" lon="13.4998883"><ele>133.2</ele><time>2026-03-22T08:40:42.989Z</time></trkpt><trkpt lat="43.4910067" lon="13.5000283"><ele>132.79999999999998</ele><time>2026-03-22T08:40:43.993Z</time></trkpt><trkpt lat="43.49106" lon="13.50016"><ele>132.4</ele><time>2026-03-22T08:40:44.995Z</time></trkpt><trkpt lat="43.4911117" lon="13.500285"><ele>132.0</ele><time>2026-03-22T08:40:45.993Z</time></trkpt><trkpt lat="43.4911567" lon="13.5004117"><ele>132.2</ele><time>2026-03-22T08:40:46.99Z</time></trkpt><trkpt lat="43.4912" lon="13.500545"><ele>132.39999999999998</ele><time>2026-03-22T08:40:47.989Z</time></trkpt><trkpt lat="43.491245" lon="13.500665"><ele>132.60000000000002</ele><time>2026-03-22T08:40:48.991Z</time></trkpt><trkpt lat="43.49129" lon="13.5007817"><ele>132.8</ele><time>2026-03-22T08:40:49.992Z</time></trkpt><trkpt lat="43.49133" lon="13.500905"><ele>133.0</ele><time>2026-03-22T08:40:50.991Z</time></trkpt><trkpt lat="43.49137" lon="13.5010233"><ele>133.0</ele><time>2026-03-22T08:40:51.991Z</time></trkpt><trkpt lat="43.49142" lon="13.50115"><ele>133.0</ele><time>2026-03-22T08:40:52.991Z</time></trkpt><trkpt lat="43.4914683" lon="13.5012867"><ele>133.0</ele><time>2026-03-22T08:40:53.993Z</time></trkpt><trkpt lat="43.4915167" lon="13.5014183"><ele>133.0</ele><time>2026-03-22T08:40:54.992Z</time></trkpt><trkpt lat="43.4915517" lon="13.5015533"><ele>133.0</ele><time>2026-03-22T08:40:55.991Z</time></trkpt><trkpt lat="43.4915817" lon="13.50168"><ele>132.33333333333334</ele><time>2026-03-22T08:40:56.992Z</time></trkpt><trkpt lat="43.49161" lon="13.5018033"><ele>131.66666666666669</ele><time>2026-03-22T08:40:57.992Z</time></trkpt><trkpt lat="43.4916417" lon="13.5019167"><ele>131.0</ele><time>2026-03-22T08:40:58.991Z</time></trkpt><trkpt lat="43.4916717" lon="13.5020167"><ele>130.33333333333334</ele><time>2026-03-22T08:40:59.994Z</time></trkpt><trkpt lat="43.4917133" lon="13.502095"><ele>129.66666666666666</ele><time>2026-03-22T08:41:00.989Z</time></trkpt><trkpt lat="43.4917667" lon="13.502145"><ele>129.0</ele><time>2026-03-22T08:41:01.991Z</time></trkpt><trkpt lat="43.49183" lon="13.5021617"><ele>129.0</ele><time>2026-03-22T08:41:02.989Z</time></trkpt><trkpt lat="43.4919533" lon="13.5020833"><ele>129.0</ele><time>2026-03-22T08:41:04.995Z</time></trkpt><trkpt lat="43.4920267" lon="13.5019967"><ele>129.0</ele><time>2026-03-22T08:41:05.991Z</time></trkpt><trkpt lat="43.4921133" lon="13.5019217"><ele>129.0</ele><time>2026-03-22T08:41:06.989Z</time></trkpt><trkpt lat="43.4921983" lon="13.5018617"><ele>129.0</ele><time>2026-03-22T08:41:07.991Z</time></trkpt><trkpt lat="43.492305" lon="13.501795"><ele>129.0</ele><time>2026-03-22T08:41:08.99Z</time></trkpt><trkpt lat="43.49243" lon="13.5017167"><ele>129.0</ele><time>2026-03-22T08:41:09.991Z</time></trkpt><trkpt lat="43.49258" lon="13.5016233"><ele>129.0</ele><time>2026-03-22T08:41:10.992Z</time></trkpt><trkpt lat="43.4927467" lon="13.5015267"><ele>128.66666666666666</ele><time>2026-03-22T08:41:11.991Z</time></trkpt><trkpt lat="43.4929283" lon="13.5014317"><ele>128.33333333333331</ele><time>2026-03-22T08:41:12.993Z</time></trkpt><trkpt lat="43.4931183" lon="13.5013383"><ele>128.0</ele><time>2026-03-22T08:41:13.991Z</time></trkpt><trkpt lat="43.4933167" lon="13.5012433"><ele>125.66666666666666</ele><time>2026-03-22T08:41:14.987Z</time></trkpt><trkpt lat="43.4935133" lon="13.5011633"><ele>123.33333333333334</ele><time>2026-03-22T08:41:15.994Z</time></trkpt><trkpt lat="43.4937" lon="13.5011017"><ele>121.0</ele><time>2026-03-22T08:41:16.992Z</time></trkpt><trkpt lat="43.4938833" lon="13.5010667"><ele>120.0</ele><time>2026-03-22T08:41:17.991Z</time></trkpt><trkpt lat="43.4940633" lon="13.5010317"><ele>119.0</ele><time>2026-03-22T08:41:18.993Z</time></trkpt><trkpt lat="43.4942267" lon="13.5009683"><ele>118.0</ele><time>2026-03-22T08:41:19.994Z</time></trkpt><trkpt lat="43.49437" lon="13.500865"><ele>118.0</ele><time>2026-03-22T08:41:20.994Z</time></trkpt><trkpt lat="43.494505" lon="13.5007167"><ele>118.0</ele><time>2026-03-22T08:41:21.995Z</time></trkpt><trkpt lat="43.4945933" lon="13.5005167"><ele>118.0</ele><time>2026-03-22T08:41:22.994Z</time></trkpt><trkpt lat="43.4946517" lon="13.5002867"><ele>117.0</ele><time>2026-03-22T08:41:23.995Z</time></trkpt><trkpt lat="43.4946883" lon="13.5000483"><ele>116.0</ele><time>2026-03-22T08:41:24.994Z</time></trkpt><trkpt lat="43.494705" lon="13.4997983"><ele>115.0</ele><time>2026-03-22T08:41:25.994Z</time></trkpt><trkpt lat="43.494695" lon="13.49953"><ele>110.66666666666667</ele><time>2026-03-22T08:41:26.993Z</time></trkpt><trkpt lat="43.4946767" lon="13.49926"><ele>106.33333333333334</ele><time>2026-03-22T08:41:27.993Z</time></trkpt><trkpt lat="43.49466" lon="13.4989983"><ele>102.0</ele><time>2026-03-22T08:41:28.992Z</time></trkpt><trkpt lat="43.494645" lon="13.4987317"><ele>98.66666666666667</ele><time>2026-03-22T08:41:29.994Z</time></trkpt><trkpt lat="43.4946367" lon="13.4984667"><ele>95.33333333333334</ele><time>2026-03-22T08:41:30.992Z</time></trkpt><trkpt lat="43.4946467" lon="13.498205"><ele>92.0</ele><time>2026-03-22T08:41:31.992Z</time></trkpt><trkpt lat="43.494685" lon="13.4979517"><ele>91.0</ele><time>2026-03-22T08:41:32.992Z</time></trkpt><trkpt lat="43.4947633" lon="13.4977317"><ele>90.0</ele><time>2026-03-22T08:41:33.995Z</time></trkpt><trkpt lat="43.4948817" lon="13.4975533"><ele>89.0</ele><time>2026-03-22T08:41:34.994Z</time></trkpt><trkpt lat="43.49503" lon="13.497395"><ele>89.0</ele><time>2026-03-22T08:41:35.995Z</time></trkpt><trkpt lat="43.49519" lon="13.49725"><ele>89.0</ele><time>2026-03-22T08:41:36.994Z</time></trkpt><trkpt lat="43.4953483" lon="13.4971083"><ele>89.0</ele><time>2026-03-22T08:41:37.993Z</time></trkpt><trkpt lat="43.495505" lon="13.4969783"><ele>86.66666666666667</ele><time>2026-03-22T08:41:38.995Z</time></trkpt><trkpt lat="43.4956567" lon="13.496855"><ele>84.33333333333333</ele><time>2026-03-22T08:41:39.993Z</time></trkpt><trkpt lat="43.4957983" lon="13.4967283"><ele>82.0</ele><time>2026-03-22T08:41:40.992Z</time></trkpt><trkpt lat="43.495935" lon="13.4966117"><ele>82.0</ele><time>2026-03-22T08:41:41.991Z</time></trkpt><trkpt lat="43.4960667" lon="13.4964983"><ele>82.0</ele><time>2026-03-22T08:41:42.995Z</time></trkpt><trkpt lat="43.496195" lon="13.4963883"><ele>82.0</ele><time>2026-03-22T08:41:43.994Z</time></trkpt><trkpt lat="43.4963117" lon="13.4962833"><ele>82.0</ele><time>2026-03-22T08:41:44.993Z</time></trkpt><trkpt lat="43.49643" lon="13.4961833"><ele>80.0</ele><time>2026-03-22T08:41:45.993Z</time></trkpt><trkpt lat="43.4965433" lon="13.4960967"><ele>78.0</ele><time>2026-03-22T08:41:46.99Z</time></trkpt><trkpt lat="43.49666" lon="13.4960383"><ele>76.0</ele><time>2026-03-22T08:41:47.991Z</time></trkpt><trkpt lat="43.49678" lon="13.4960217"><ele>74.0</ele><time>2026-03-22T08:41:48.992Z</time></trkpt><trkpt lat="43.4968967" lon="13.4960483"><ele>74.0</ele><time>2026-03-22T08:41:49.993Z</time></trkpt><trkpt lat="43.49701" lon="13.4961067"><ele>74.0</ele><time>2026-03-22T08:41:50.991Z</time></trkpt><trkpt lat="43.4971367" lon="13.4961917"><ele>74.0</ele><time>2026-03-22T08:41:51.993Z</time></trkpt><trkpt lat="43.4972717" lon="13.4962683"><ele>74.0</ele><time>2026-03-22T08:41:52.993Z</time></trkpt><trkpt lat="43.497415" lon="13.496325"><ele>73.0</ele><time>2026-03-22T08:41:53.994Z</time></trkpt><trkpt lat="43.497565" lon="13.4963717"><ele>72.0</ele><time>2026-03-22T08:41:54.992Z</time></trkpt><trkpt lat="43.4977217" lon="13.4964133"><ele>71.0</ele><time>2026-03-22T08:41:55.992Z</time></trkpt><trkpt lat="43.4978817" lon="13.496445"><ele>68.33333333333334</ele><time>2026-03-22T08:41:56.994Z</time></trkpt><trkpt lat="43.4980383" lon="13.496475"><ele>65.66666666666667</ele><time>2026-03-22T08:41:57.99Z</time></trkpt><trkpt lat="43.4981933" lon="13.4965067"><ele>63.0</ele><time>2026-03-22T08:41:58.99Z</time></trkpt><trkpt lat="43.4983433" lon="13.4965367"><ele>63.0</ele><time>2026-03-22T08:41:59.991Z</time></trkpt><trkpt lat="43.4984933" lon="13.4965683"><ele>63.0</ele><time>2026-03-22T08:42:01.002Z</time></trkpt><trkpt lat="43.498645" lon="13.4965983"><ele>63.0</ele><time>2026-03-22T08:42:01.992Z</time></trkpt><trkpt lat="43.4988017" lon="13.49663"><ele>60.66666666666667</ele><time>2026-03-22T08:42:02.996Z</time></trkpt><trkpt lat="43.4989633" lon="13.4966583"><ele>58.333333333333336</ele><time>2026-03-22T08:42:03.991Z</time></trkpt><trkpt lat="43.4991267" lon="13.496685"><ele>56.0</ele><time>2026-03-22T08:42:04.993Z</time></trkpt><trkpt lat="43.4992867" lon="13.4967133"><ele>56.0</ele><time>2026-03-22T08:42:05.989Z</time></trkpt><trkpt lat="43.499445" lon="13.4967467"><ele>56.0</ele><time>2026-03-22T08:42:06.992Z</time></trkpt><trkpt lat="43.4995967" lon="13.496775"><ele>56.0</ele><time>2026-03-22T08:42:07.991Z</time></trkpt><trkpt lat="43.4997433" lon="13.496805"><ele>55.5</ele><time>2026-03-22T08:42:08.991Z</time></trkpt><trkpt lat="43.4998817" lon="13.4968333"><ele>55.0</ele><time>2026-03-22T08:42:09.993Z</time></trkpt><trkpt lat="43.5000167" lon="13.4968633"><ele>54.5</ele><time>2026-03-22T08:42:10.99Z</time></trkpt><trkpt lat="43.50015" lon="13.4968933"><ele>54.0</ele><time>2026-03-22T08:42:11.994Z</time></trkpt><trkpt lat="43.5002883" lon="13.4969317"><ele>52.66666666666667</ele><time>2026-03-22T08:42:12.992Z</time></trkpt><trkpt lat="43.5004433" lon="13.496985"><ele>51.333333333333336</ele><time>2026-03-22T08:42:13.99Z</time></trkpt><trkpt lat="43.5005967" lon="13.4970517"><ele>50.0</ele><time>2026-03-22T08:42:14.993Z</time></trkpt><trkpt lat="43.500745" lon="13.4971317"><ele>50.0</ele><time>2026-03-22T08:42:15.992Z</time></trkpt><trkpt lat="43.5008783" lon="13.497225"><ele>50.0</ele><time>2026-03-22T08:42:16.991Z</time></trkpt><trkpt lat="43.5010033" lon="13.4973217"><ele>50.0</ele><time>2026-03-22T08:42:17.991Z</time></trkpt><trkpt lat="43.501125" lon="13.4974133"><ele>50.0</ele><time>2026-03-22T08:42:18.993Z</time></trkpt><trkpt lat="43.5012483" lon="13.4974983"><ele>48.66666666666667</ele><time>2026-03-22T08:42:19.995Z</time></trkpt><trkpt lat="43.5013767" lon="13.4975883"><ele>47.333333333333336</ele><time>2026-03-22T08:42:20.991Z</time></trkpt><trkpt lat="43.5015133" lon="13.4976817"><ele>46.0</ele><time>2026-03-22T08:42:21.99Z</time></trkpt><trkpt lat="43.5016583" lon="13.4977783"><ele>46.0</ele><time>2026-03-22T08:42:22.994Z</time></trkpt><trkpt lat="43.5018017" lon="13.4978783"><ele>46.0</ele><time>2026-03-22T08:42:23.99Z</time></trkpt><trkpt lat="43.5019417" lon="13.497975"><ele>46.0</ele><time>2026-03-22T08:42:24.991Z</time></trkpt><trkpt lat="43.50208" lon="13.4980717"><ele>45.0</ele><time>2026-03-22T08:42:25.989Z</time></trkpt><trkpt lat="43.502215" lon="13.4981667"><ele>44.0</ele><time>2026-03-22T08:42:26.994Z</time></trkpt><trkpt lat="43.5023533" lon="13.4982617"><ele>43.0</ele><time>2026-03-22T08:42:27.991Z</time></trkpt><trkpt lat="43.5024933" lon="13.4983583"><ele>43.0</ele><time>2026-03-22T08:42:28.99Z</time></trkpt><trkpt lat="43.5026317" lon="13.4984517"><ele>43.0</ele><time>2026-03-22T08:42:29.991Z</time></trkpt><trkpt lat="43.50278" lon="13.49855"><ele>43.0</ele><time>2026-03-22T08:42:30.99Z</time></trkpt><trkpt lat="43.5029383" lon="13.4986533"><ele>42.66666666666667</ele><time>2026-03-22T08:42:31.989Z</time></trkpt><trkpt lat="43.5031" lon="13.498765"><ele>42.333333333333336</ele><time>2026-03-22T08:42:32.992Z</time></trkpt><trkpt lat="43.503265" lon="13.498875"><ele>42.0</ele><time>2026-03-22T08:42:33.99Z</time></trkpt><trkpt lat="43.5034267" lon="13.498985"><ele>42.0</ele><time>2026-03-22T08:42:34.992Z</time></trkpt><trkpt lat="43.50359" lon="13.499095"><ele>42.0</ele><time>2026-03-22T08:42:35.991Z</time></trkpt><trkpt lat="43.5037517" lon="13.4992083"><ele>42.0</ele><time>2026-03-22T08:42:36.994Z</time></trkpt><trkpt lat="43.5039083" lon="13.4993217"><ele>42.0</ele><time>2026-03-22T08:42:37.991Z</time></trkpt><trkpt lat="43.50406" lon="13.499425"><ele>42.0</ele><time>2026-03-22T08:42:38.992Z</time></trkpt><trkpt lat="43.5042067" lon="13.4995217"><ele>42.0</ele><time>2026-03-22T08:42:39.99Z</time></trkpt><trkpt lat="43.5043567" lon="13.49962"><ele>42.333333333333336</ele><time>2026-03-22T08:42:40.991Z</time></trkpt><trkpt lat="43.50451" lon="13.4997217"><ele>42.66666666666667</ele><time>2026-03-22T08:42:41.99Z</time></trkpt><trkpt lat="43.5046633" lon="13.499815"><ele>43.0</ele><time>2026-03-22T08:42:42.99Z</time></trkpt><trkpt lat="43.504825" lon="13.4998867"><ele>43.0</ele><time>2026-03-22T08:42:43.99Z</time></trkpt><trkpt lat="43.50499" lon="13.4999167"><ele>43.0</ele><time>2026-03-22T08:42:44.99Z</time></trkpt><trkpt lat="43.5051533" lon="13.4998983"><ele>43.0</ele><time>2026-03-22T08:42:45.992Z</time></trkpt><trkpt lat="43.5053167" lon="13.499855"><ele>42.66666666666667</ele><time>2026-03-22T08:42:46.99Z</time></trkpt><trkpt lat="43.5054733" lon="13.49979"><ele>42.333333333333336</ele><time>2026-03-22T08:42:47.991Z</time></trkpt><trkpt lat="43.5056217" lon="13.4997367"><ele>42.0</ele><time>2026-03-22T08:42:48.994Z</time></trkpt><trkpt lat="43.5057733" lon="13.4996967"><ele>42.0</ele><time>2026-03-22T08:42:49.99Z</time></trkpt><trkpt lat="43.505925" lon="13.4996483"><ele>42.0</ele><time>2026-03-22T08:42:50.991Z</time></trkpt><trkpt lat="43.5060733" lon="13.499595"><ele>42.0</ele><time>2026-03-22T08:42:51.993Z</time></trkpt><trkpt lat="43.50622" lon="13.499545"><ele>42.0</ele><time>2026-03-22T08:42:52.991Z</time></trkpt><trkpt lat="43.50637" lon="13.4994967"><ele>42.0</ele><time>2026-03-22T08:42:53.99Z</time></trkpt><trkpt lat="43.5065217" lon="13.4994467"><ele>42.0</ele><time>2026-03-22T08:42:54.993Z</time></trkpt><trkpt lat="43.5066733" lon="13.4993983"><ele>42.0</ele><time>2026-03-22T08:42:55.993Z</time></trkpt><trkpt lat="43.5068233" lon="13.4993483"><ele>42.0</ele><time>2026-03-22T08:42:56.994Z</time></trkpt><trkpt lat="43.5069733" lon="13.499295"><ele>42.0</ele><time>2026-03-22T08:42:57.992Z</time></trkpt><trkpt lat="43.507115" lon="13.4992433"><ele>42.25</ele><time>2026-03-22T08:42:58.993Z</time></trkpt><trkpt lat="43.5072583" lon="13.4991933"><ele>42.5</ele><time>2026-03-22T08:42:59.991Z</time></trkpt><trkpt lat="43.5074017" lon="13.4991483"><ele>42.75</ele><time>2026-03-22T08:43:00.991Z</time></trkpt><trkpt lat="43.5075467" lon="13.499105"><ele>43.0</ele><time>2026-03-22T08:43:01.998Z</time></trkpt><trkpt lat="43.50769" lon="13.4990617"><ele>43.0</ele><time>2026-03-22T08:43:02.992Z</time></trkpt><trkpt lat="43.5078333" lon="13.4990167"><ele>43.0</ele><time>2026-03-22T08:43:03.993Z</time></trkpt><trkpt lat="43.5079833" lon="13.4989717"><ele>43.0</ele><time>2026-03-22T08:43:04.995Z</time></trkpt><trkpt lat="43.5081333" lon="13.49892"><ele>43.333333333333336</ele><time>2026-03-22T08:43:05.993Z</time></trkpt><trkpt lat="43.5082933" lon="13.4988683"><ele>43.666666666666664</ele><time>2026-03-22T08:43:06.992Z</time></trkpt><trkpt lat="43.5084567" lon="13.49882"><ele>44.0</ele><time>2026-03-22T08:43:07.994Z</time></trkpt><trkpt lat="43.508625" lon="13.4987667"><ele>44.0</ele><time>2026-03-22T08:43:08.992Z</time></trkpt><trkpt lat="43.50879" lon="13.498715"><ele>44.0</ele><time>2026-03-22T08:43:09.993Z</time></trkpt><trkpt lat="43.5089483" lon="13.498665"><ele>44.0</ele><time>2026-03-22T08:43:10.995Z</time></trkpt><trkpt lat="43.509105" lon="13.4986217"><ele>44.0</ele><time>2026-03-22T08:43:11.994Z</time></trkpt><trkpt lat="43.5092617" lon="13.4985717"><ele>44.0</ele><time>2026-03-22T08:43:12.991Z</time></trkpt><trkpt lat="43.50941" lon="13.4985233"><ele>44.0</ele><time>2026-03-22T08:43:13.991Z</time></trkpt><trkpt lat="43.5095617" lon="13.49848"><ele>45.0</ele><time>2026-03-22T08:43:14.991Z</time></trkpt><trkpt lat="43.5097183" lon="13.4984333"><ele>46.0</ele><time>2026-03-22T08:43:15.995Z</time></trkpt><trkpt lat="43.5098717" lon="13.4983867"><ele>47.0</ele><time>2026-03-22T08:43:16.992Z</time></trkpt><trkpt lat="43.5100233" lon="13.4983433"><ele>47.0</ele><time>2026-03-22T08:43:17.994Z</time></trkpt><trkpt lat="43.5101783" lon="13.4983017"><ele>47.0</ele><time>2026-03-22T08:43:18.992Z</time></trkpt><trkpt lat="43.5103383" lon="13.49826"><ele>47.0</ele><time>2026-03-22T08:43:19.992Z</time></trkpt><trkpt lat="43.5104933" lon="13.4982183"><ele>47.0</ele><time>2026-03-22T08:43:20.992Z</time></trkpt><trkpt lat="43.51066" lon="13.4981867"><ele>47.0</ele><time>2026-03-22T08:43:21.991Z</time></trkpt><trkpt lat="43.5108283" lon="13.4981583"><ele>47.0</ele><time>2026-03-22T08:43:22.992Z</time></trkpt><trkpt lat="43.511" lon="13.4981417"><ele>47.0</ele><time>2026-03-22T08:43:23.994Z</time></trkpt><trkpt lat="43.511175" lon="13.49814"><ele>47.0</ele><time>2026-03-22T08:43:24.992Z</time></trkpt><trkpt lat="43.5113483" lon="13.4981417"><ele>47.0</ele><time>2026-03-22T08:43:25.993Z</time></trkpt><trkpt lat="43.5115217" lon="13.4981433"><ele>47.33333333333333</ele><time>2026-03-22T08:43:26.996Z</time></trkpt><trkpt lat="43.5116967" lon="13.4981383"><ele>47.666666666666664</ele><time>2026-03-22T08:43:27.99Z</time></trkpt><trkpt lat="43.5118733" lon="13.4981333"><ele>48.0</ele><time>2026-03-22T08:43:28.989Z</time></trkpt><trkpt lat="43.5120467" lon="13.4981317"><ele>49.0</ele><time>2026-03-22T08:43:29.995Z</time></trkpt><trkpt lat="43.5122167" lon="13.498125"><ele>50.0</ele><time>2026-03-22T08:43:30.996Z</time></trkpt><trkpt lat="43.512385" lon="13.4981217"><ele>51.0</ele><time>2026-03-22T08:43:31.991Z</time></trkpt><trkpt lat="43.5125467" lon="13.4981133"><ele>51.0</ele><time>2026-03-22T08:43:32.993Z</time></trkpt><trkpt lat="43.51271" lon="13.4981033"><ele>51.0</ele><time>2026-03-22T08:43:33.993Z</time></trkpt><trkpt lat="43.5128717" lon="13.4981017"><ele>51.0</ele><time>2026-03-22T08:43:34.99Z</time></trkpt><trkpt lat="43.5130217" lon="13.4981033"><ele>52.0</ele><time>2026-03-22T08:43:35.991Z</time></trkpt><trkpt lat="43.5131667" lon="13.498105"><ele>53.0</ele><time>2026-03-22T08:43:36.992Z</time></trkpt><trkpt lat="43.5133067" lon="13.4981067"><ele>54.0</ele><time>2026-03-22T08:43:37.995Z</time></trkpt><trkpt lat="43.51344" lon="13.4981083"><ele>55.0</ele><time>2026-03-22T08:43:38.992Z</time></trkpt><trkpt lat="43.5135667" lon="13.49811"><ele>55.0</ele><time>2026-03-22T08:43:39.994Z</time></trkpt><trkpt lat="43.5136867" lon="13.4981067"><ele>55.0</ele><time>2026-03-22T08:43:40.992Z</time></trkpt><trkpt lat="43.5138017" lon="13.498105"><ele>55.0</ele><time>2026-03-22T08:43:41.99Z</time></trkpt><trkpt lat="43.5139033" lon="13.4981017"><ele>55.0</ele><time>2026-03-22T08:43:42.993Z</time></trkpt><trkpt lat="43.5139967" lon="13.4981"><ele>55.0</ele><time>2026-03-22T08:43:43.99Z</time></trkpt><trkpt lat="43.5140717" lon="13.4981033"><ele>54.6</ele><time>2026-03-22T08:43:44.996Z</time></trkpt><trkpt lat="43.5141683" lon="13.4981183"><ele>54.2</ele><time>2026-03-22T08:43:46.991Z</time></trkpt><trkpt lat="43.5142417" lon="13.4981483"><ele>53.8</ele><time>2026-03-22T08:43:48.991Z</time></trkpt><trkpt lat="43.5143533" lon="13.4982117"><ele>53.4</ele><time>2026-03-22T08:43:50.993Z</time></trkpt><trkpt lat="43.514475" lon="13.4982367"><ele>53.0</ele><time>2026-03-22T08:43:52.992Z</time></trkpt><trkpt lat="43.51454" lon="13.4982"><ele>53.599999999999994</ele><time>2026-03-22T08:43:53.992Z</time></trkpt><trkpt lat="43.5146267" lon="13.4981467"><ele>54.199999999999996</ele><time>2026-03-22T08:43:54.987Z</time></trkpt><trkpt lat="43.514725" lon="13.4981117"><ele>54.8</ele><time>2026-03-22T08:43:55.987Z</time></trkpt><trkpt lat="43.5148267" lon="13.4981"><ele>55.4</ele><time>2026-03-22T08:43:56.989Z</time></trkpt><trkpt lat="43.5149317" lon="13.498095"><ele>56.0</ele><time>2026-03-22T08:43:57.993Z</time></trkpt><trkpt lat="43.5150333" lon="13.4980917"><ele>56.0</ele><time>2026-03-22T08:43:58.991Z</time></trkpt><trkpt lat="43.5151317" lon="13.4980883"><ele>55.99999999999999</ele><time>2026-03-22T08:43:59.991Z</time></trkpt><trkpt lat="43.51523" lon="13.4980833"><ele>55.99999999999999</ele><time>2026-03-22T08:44:00.99Z</time></trkpt><trkpt lat="43.5153433" lon="13.49808"><ele>56.0</ele><time>2026-03-22T08:44:01.993Z</time></trkpt><trkpt lat="43.51546" lon="13.4980733"><ele>56.0</ele><time>2026-03-22T08:44:02.995Z</time></trkpt><trkpt lat="43.5155817" lon="13.4980683"><ele>57.0</ele><time>2026-03-22T08:44:03.991Z</time></trkpt><trkpt lat="43.5157017" lon="13.4980617"><ele>58.0</ele><time>2026-03-22T08:44:04.992Z</time></trkpt><trkpt lat="43.51583" lon="13.498055"><ele>59.0</ele><time>2026-03-22T08:44:05.99Z</time></trkpt><trkpt lat="43.5159567" lon="13.4980517"><ele>60.0</ele><time>2026-03-22T08:44:06.988Z</time></trkpt><trkpt lat="43.5160833" lon="13.4980483"><ele>60.0</ele><time>2026-03-22T08:44:07.989Z</time></trkpt><trkpt lat="43.5162083" lon="13.4980433"><ele>60.0</ele><time>2026-03-22T08:44:08.99Z</time></trkpt><trkpt lat="43.5163317" lon="13.49804"><ele>60.0</ele><time>2026-03-22T08:44:09.99Z</time></trkpt><trkpt lat="43.5164483" lon="13.4980383"><ele>60.0</ele><time>2026-03-22T08:44:10.991Z</time></trkpt><trkpt lat="43.5165583" lon="13.4980367"><ele>60.25</ele><time>2026-03-22T08:44:11.993Z</time></trkpt><trkpt lat="43.5166783" lon="13.4980367"><ele>60.5</ele><time>2026-03-22T08:44:12.989Z</time></trkpt><trkpt lat="43.5168017" lon="13.498035"><ele>60.75</ele><time>2026-03-22T08:44:13.995Z</time></trkpt><trkpt lat="43.5169217" lon="13.4980317"><ele>61.0</ele><time>2026-03-22T08:44:14.994Z</time></trkpt><trkpt lat="43.5170483" lon="13.498025"><ele>62.0</ele><time>2026-03-22T08:44:15.995Z</time></trkpt><trkpt lat="43.5171733" lon="13.4980217"><ele>63.0</ele><time>2026-03-22T08:44:16.987Z</time></trkpt><trkpt lat="43.517295" lon="13.4980167"><ele>64.0</ele><time>2026-03-22T08:44:17.991Z</time></trkpt><trkpt lat="43.51742" lon="13.4980133"><ele>65.0</ele><time>2026-03-22T08:44:18.993Z</time></trkpt><trkpt lat="43.5175467" lon="13.4980133"><ele>65.0</ele><time>2026-03-22T08:44:19.99Z</time></trkpt><trkpt lat="43.517675" lon="13.4980167"><ele>65.0</ele><time>2026-03-22T08:44:20.992Z</time></trkpt><trkpt lat="43.517805" lon="13.4980167"><ele>65.0</ele><time>2026-03-22T08:44:21.993Z</time></trkpt><trkpt lat="43.5179383" lon="13.4980133"><ele>65.0</ele><time>2026-03-22T08:44:22.992Z</time></trkpt><trkpt lat="43.5180683" lon="13.49801"><ele>66.5</ele><time>2026-03-22T08:44:23.99Z</time></trkpt><trkpt lat="43.518195" lon="13.4980067"><ele>68.0</ele><time>2026-03-22T08:44:24.993Z</time></trkpt><trkpt lat="43.5183117" lon="13.498005"><ele>69.5</ele><time>2026-03-22T08:44:25.993Z</time></trkpt><trkpt lat="43.51842" lon="13.498"><ele>71.0</ele><time>2026-03-22T08:44:26.99Z</time></trkpt><trkpt lat="43.5185233" lon="13.4979967"><ele>71.0</ele><time>2026-03-22T08:44:27.993Z</time></trkpt><trkpt lat="43.51863" lon="13.4979933"><ele>71.0</ele><time>2026-03-22T08:44:28.99Z</time></trkpt><trkpt lat="43.51874" lon="13.4979917"><ele>71.0</ele><time>2026-03-22T08:44:29.99Z</time></trkpt><trkpt lat="43.5188517" lon="13.4979917"><ele>71.0</ele><time>2026-03-22T08:44:30.993Z</time></trkpt><trkpt lat="43.5189667" lon="13.497985"><ele>71.0</ele><time>2026-03-22T08:44:31.993Z</time></trkpt><trkpt lat="43.5190783" lon="13.497985"><ele>72.5</ele><time>2026-03-22T08:44:32.995Z</time></trkpt><trkpt lat="43.5191833" lon="13.4979867"><ele>74.0</ele><time>2026-03-22T08:44:33.994Z</time></trkpt><trkpt lat="43.5192933" lon="13.4979833"><ele>75.5</ele><time>2026-03-22T08:44:34.992Z</time></trkpt><trkpt lat="43.5194083" lon="13.4979817"><ele>77.0</ele><time>2026-03-22T08:44:35.995Z</time></trkpt><trkpt lat="43.5195317" lon="13.4979833"><ele>78.0</ele><time>2026-03-22T08:44:36.99Z</time></trkpt><trkpt lat="43.5196583" lon="13.4979817"><ele>79.0</ele><time>2026-03-22T08:44:37.992Z</time></trkpt><trkpt lat="43.5197783" lon="13.4979783"><ele>80.0</ele><time>2026-03-22T08:44:38.994Z</time></trkpt><trkpt lat="43.5199017" lon="13.4979767"><ele>81.0</ele><time>2026-03-22T08:44:39.991Z</time></trkpt><trkpt lat="43.520025" lon="13.4979767"><ele>81.0</ele><time>2026-03-22T08:44:40.992Z</time></trkpt><trkpt lat="43.5201483" lon="13.4979767"><ele>81.0</ele><time>2026-03-22T08:44:41.992Z</time></trkpt><trkpt lat="43.5202683" lon="13.4979733"><ele>81.0</ele><time>2026-03-22T08:44:42.995Z</time></trkpt><trkpt lat="43.5203867" lon="13.4979717"><ele>81.0</ele><time>2026-03-22T08:44:43.994Z</time></trkpt><trkpt lat="43.520505" lon="13.497975"><ele>81.75</ele><time>2026-03-22T08:44:44.992Z</time></trkpt><trkpt lat="43.5206283" lon="13.4979783"><ele>82.5</ele><time>2026-03-22T08:44:45.991Z</time></trkpt><trkpt lat="43.5207567" lon="13.4979783"><ele>83.25</ele><time>2026-03-22T08:44:46.994Z</time></trkpt><trkpt lat="43.5208733" lon="13.4979767"><ele>84.0</ele><time>2026-03-22T08:44:47.992Z</time></trkpt><trkpt lat="43.5209833" lon="13.4979733"><ele>84.0</ele><time>2026-03-22T08:44:48.991Z</time></trkpt><trkpt lat="43.5210867" lon="13.4979717"><ele>84.0</ele><time>2026-03-22T08:44:49.994Z</time></trkpt><trkpt lat="43.5211833" lon="13.4979733"><ele>84.0</ele><time>2026-03-22T08:44:50.995Z</time></trkpt><trkpt lat="43.5212817" lon="13.49797"><ele>84.0</ele><time>2026-03-22T08:44:51.992Z</time></trkpt><trkpt lat="43.5213833" lon="13.4979683"><ele>84.0</ele><time>2026-03-22T08:44:52.994Z</time></trkpt><trkpt lat="43.521485" lon="13.4979617"><ele>85.80000000000001</ele><time>2026-03-22T08:44:53.989Z</time></trkpt><trkpt lat="43.5215867" lon="13.497955"><ele>87.60000000000001</ele><time>2026-03-22T08:44:54.994Z</time></trkpt><trkpt lat="43.5216867" lon="13.4979517"><ele>89.4</ele><time>2026-03-22T08:44:55.989Z</time></trkpt><trkpt lat="43.5217883" lon="13.49795"><ele>91.2</ele><time>2026-03-22T08:44:56.997Z</time></trkpt><trkpt lat="43.5218917" lon="13.4979467"><ele>93.0</ele><time>2026-03-22T08:44:57.991Z</time></trkpt><trkpt lat="43.521995" lon="13.4979417"><ele>94.4</ele><time>2026-03-22T08:44:58.994Z</time></trkpt><trkpt lat="43.5220983" lon="13.4979383"><ele>95.80000000000001</ele><time>2026-03-22T08:44:59.991Z</time></trkpt><trkpt lat="43.5221983" lon="13.4979383"><ele>97.2</ele><time>2026-03-22T08:45:00.995Z</time></trkpt><trkpt lat="43.5222967" lon="13.4979433"><ele>98.6</ele><time>2026-03-22T08:45:01.994Z</time></trkpt><trkpt lat="43.522395" lon="13.49794"><ele>100.0</ele><time>2026-03-22T08:45:02.992Z</time></trkpt><trkpt lat="43.5224883" lon="13.49794"><ele>100.0</ele><time>2026-03-22T08:45:03.996Z</time></trkpt><trkpt lat="43.5225833" lon="13.4979367"><ele>100.0</ele><time>2026-03-22T08:45:04.993Z</time></trkpt><trkpt lat="43.522675" lon="13.49794"><ele>100.0</ele><time>2026-03-22T08:45:05.993Z</time></trkpt><trkpt lat="43.5227733" lon="13.497945"><ele>100.0</ele><time>2026-03-22T08:45:06.994Z</time></trkpt><trkpt lat="43.5228683" lon="13.4979517"><ele>100.0</ele><time>2026-03-22T08:45:07.993Z</time></trkpt><trkpt lat="43.52296" lon="13.4979583"><ele>100.8</ele><time>2026-03-22T08:45:08.995Z</time></trkpt><trkpt lat="43.5230517" lon="13.4979683"><ele>101.6</ele><time>2026-03-22T08:45:09.992Z</time></trkpt><trkpt lat="43.523145" lon="13.4979817"><ele>102.4</ele><time>2026-03-22T08:45:10.994Z</time></trkpt><trkpt lat="43.5232383" lon="13.4979933"><ele>103.2</ele><time>2026-03-22T08:45:11.993Z</time></trkpt><trkpt lat="43.5233433" lon="13.4980033"><ele>104.0</ele><time>2026-03-22T08:45:12.993Z</time></trkpt><trkpt lat="43.52345" lon="13.4980333"><ele>104.0</ele><time>2026-03-22T08:45:13.993Z</time></trkpt><trkpt lat="43.5235683" lon="13.498115"><ele>104.0</ele><time>2026-03-22T08:45:14.994Z</time></trkpt><trkpt lat="43.52368" lon="13.49823"><ele>104.0</ele><time>2026-03-22T08:45:15.993Z</time></trkpt><trkpt lat="43.5238" lon="13.4983583"><ele>104.0</ele><time>2026-03-22T08:45:16.991Z</time></trkpt><trkpt lat="43.5239233" lon="13.4984983"><ele>101.0</ele><time>2026-03-22T08:45:17.99Z</time></trkpt><trkpt lat="43.5240483" lon="13.49864"><ele>98.0</ele><time>2026-03-22T08:45:18.995Z</time></trkpt><trkpt lat="43.524165" lon="13.498785"><ele>95.0</ele><time>2026-03-22T08:45:19.992Z</time></trkpt><trkpt lat="43.5242833" lon="13.49893"><ele>95.0</ele><time>2026-03-22T08:45:20.99Z</time></trkpt><trkpt lat="43.5244017" lon="13.4990683"><ele>95.0</ele><time>2026-03-22T08:45:21.99Z</time></trkpt><trkpt lat="43.524525" lon="13.49921"><ele>95.0</ele><time>2026-03-22T08:45:22.991Z</time></trkpt><trkpt lat="43.5246417" lon="13.499345"><ele>92.0</ele><time>2026-03-22T08:45:23.992Z</time></trkpt><trkpt lat="43.52476" lon="13.49948"><ele>89.0</ele><time>2026-03-22T08:45:24.989Z</time></trkpt><trkpt lat="43.5248783" lon="13.4996133"><ele>86.0</ele><time>2026-03-22T08:45:25.99Z</time></trkpt><trkpt lat="43.524995" lon="13.4997417"><ele>86.0</ele><time>2026-03-22T08:45:26.991Z</time></trkpt><trkpt lat="43.52511" lon="13.49987"><ele>86.0</ele><time>2026-03-22T08:45:27.991Z</time></trkpt><trkpt lat="43.5252283" lon="13.49999"><ele>86.0</ele><time>2026-03-22T08:45:28.992Z</time></trkpt><trkpt lat="43.5253467" lon="13.500105"><ele>86.0</ele><time>2026-03-22T08:45:29.993Z</time></trkpt><trkpt lat="43.5254717" lon="13.5002183"><ele>84.66666666666667</ele><time>2026-03-22T08:45:30.993Z</time></trkpt><trkpt lat="43.5256067" lon="13.500325"><ele>83.33333333333333</ele><time>2026-03-22T08:45:31.993Z</time></trkpt><trkpt lat="43.525745" lon="13.500415"><ele>82.0</ele><time>2026-03-22T08:45:32.993Z</time></trkpt><trkpt lat="43.5258883" lon="13.5004667"><ele>82.0</ele><time>2026-03-22T08:45:33.991Z</time></trkpt><trkpt lat="43.5260433" lon="13.5004833"><ele>82.0</ele><time>2026-03-22T08:45:34.993Z</time></trkpt><trkpt lat="43.5261933" lon="13.5004683"><ele>82.0</ele><time>2026-03-22T08:45:35.993Z</time></trkpt><trkpt lat="43.5263333" lon="13.500445"><ele>82.0</ele><time>2026-03-22T08:45:36.995Z</time></trkpt><trkpt lat="43.5264767" lon="13.5004283"><ele>79.0</ele><time>2026-03-22T08:45:37.993Z</time></trkpt><trkpt lat="43.5266167" lon="13.5004267"><ele>76.0</ele><time>2026-03-22T08:45:38.993Z</time></trkpt><trkpt lat="43.5267583" lon="13.500425"><ele>73.0</ele><time>2026-03-22T08:45:39.991Z</time></trkpt><trkpt lat="43.5269033" lon="13.5004217"><ele>70.0</ele><time>2026-03-22T08:45:40.994Z</time></trkpt><trkpt lat="43.527055" lon="13.5004233"><ele>66.33333333333333</ele><time>2026-03-22T08:45:41.99Z</time></trkpt><trkpt lat="43.5272167" lon="13.500425"><ele>62.66666666666667</ele><time>2026-03-22T08:45:42.989Z</time></trkpt><trkpt lat="43.5273783" lon="13.50043"><ele>59.0</ele><time>2026-03-22T08:45:43.994Z</time></trkpt><trkpt lat="43.5275333" lon="13.50043"><ele>59.0</ele><time>2026-03-22T08:45:44.995Z</time></trkpt><trkpt lat="43.52768" lon="13.5004267"><ele>59.0</ele><time>2026-03-22T08:45:45.991Z</time></trkpt><trkpt lat="43.5278183" lon="13.5004183"><ele>59.0</ele><time>2026-03-22T08:45:46.99Z</time></trkpt><trkpt lat="43.5279483" lon="13.5004217"><ele>59.0</ele><time>2026-03-22T08:45:47.99Z</time></trkpt><trkpt lat="43.5280633" lon="13.50042"><ele>60.0</ele><time>2026-03-22T08:45:48.99Z</time></trkpt><trkpt lat="43.528165" lon="13.5004183"><ele>61.00000000000001</ele><time>2026-03-22T08:45:49.994Z</time></trkpt><trkpt lat="43.5282717" lon="13.5004117"><ele>62.00000000000001</ele><time>2026-03-22T08:45:50.995Z</time></trkpt><trkpt lat="43.5283817" lon="13.5004117"><ele>63.0</ele><time>2026-03-22T08:45:51.991Z</time></trkpt><trkpt lat="43.5284983" lon="13.500415"><ele>64.0</ele><time>2026-03-22T08:45:52.991Z</time></trkpt><trkpt lat="43.5286267" lon="13.5004167"><ele>62.25</ele><time>2026-03-22T08:45:53.99Z</time></trkpt><trkpt lat="43.52876" lon="13.5004117"><ele>60.5</ele><time>2026-03-22T08:45:54.99Z</time></trkpt><trkpt lat="43.5288983" lon="13.500405"><ele>58.75</ele><time>2026-03-22T08:45:55.99Z</time></trkpt><trkpt lat="43.52904" lon="13.5004083"><ele>57.0</ele><time>2026-03-22T08:45:56.993Z</time></trkpt><trkpt lat="43.5291833" lon="13.5004033"><ele>57.0</ele><time>2026-03-22T08:45:57.992Z</time></trkpt><trkpt lat="43.52933" lon="13.5003967"><ele>57.0</ele><time>2026-03-22T08:45:58.991Z</time></trkpt><trkpt lat="43.5294817" lon="13.5003967"><ele>57.0</ele><time>2026-03-22T08:45:59.992Z</time></trkpt><trkpt lat="43.52963" lon="13.500395"><ele>57.0</ele><time>2026-03-22T08:46:00.991Z</time></trkpt><trkpt lat="43.529775" lon="13.5003933"><ele>54.0</ele><time>2026-03-22T08:46:01.999Z</time></trkpt><trkpt lat="43.5299133" lon="13.5004"><ele>51.0</ele><time>2026-03-22T08:46:02.993Z</time></trkpt><trkpt lat="43.5300483" lon="13.5004117"><ele>48.0</ele><time>2026-03-22T08:46:03.987Z</time></trkpt><trkpt lat="43.5301783" lon="13.5004233"><ele>45.0</ele><time>2026-03-22T08:46:04.993Z</time></trkpt><trkpt lat="43.5303033" lon="13.500445"><ele>43.25</ele><time>2026-03-22T08:46:05.994Z</time></trkpt><trkpt lat="43.5304267" lon="13.5004667"><ele>41.5</ele><time>2026-03-22T08:46:06.992Z</time></trkpt><trkpt lat="43.5305467" lon="13.5004867"><ele>39.75</ele><time>2026-03-22T08:46:07.993Z</time></trkpt><trkpt lat="43.5306717" lon="13.50051"><ele>38.0</ele><time>2026-03-22T08:46:08.992Z</time></trkpt><trkpt lat="43.5307867" lon="13.5005317"><ele>38.0</ele><time>2026-03-22T08:46:09.991Z</time></trkpt><trkpt lat="43.5309067" lon="13.5005483"><ele>38.0</ele><time>2026-03-22T08:46:10.994Z</time></trkpt><trkpt lat="43.531025" lon="13.5005667"><ele>38.0</ele><time>2026-03-22T08:46:11.992Z</time></trkpt><trkpt lat="43.5311383" lon="13.5005783"><ele>38.0</ele><time>2026-03-22T08:46:12.992Z</time></trkpt><trkpt lat="43.531245" lon="13.5005767"><ele>37.5</ele><time>2026-03-22T08:46:13.992Z</time></trkpt><trkpt lat="43.5313517" lon="13.5005667"><ele>37.0</ele><time>2026-03-22T08:46:14.992Z</time></trkpt><trkpt lat="43.5314633" lon="13.5005567"><ele>36.5</ele><time>2026-03-22T08:46:15.992Z</time></trkpt><trkpt lat="43.531585" lon="13.500555"><ele>36.0</ele><time>2026-03-22T08:46:16.991Z</time></trkpt><trkpt lat="43.5317083" lon="13.5005617"><ele>36.0</ele><time>2026-03-22T08:46:17.991Z</time></trkpt><trkpt lat="43.5318333" lon="13.5005767"><ele>36.0</ele><time>2026-03-22T08:46:18.992Z</time></trkpt><trkpt lat="43.5319533" lon="13.5005917"><ele>36.0</ele><time>2026-03-22T08:46:19.99Z</time></trkpt><trkpt lat="43.532065" lon="13.5006067"><ele>36.0</ele><time>2026-03-22T08:46:20.994Z</time></trkpt><trkpt lat="43.5321783" lon="13.5006233"><ele>35.75</ele><time>2026-03-22T08:46:21.991Z</time></trkpt><trkpt lat="43.532295" lon="13.5006417"><ele>35.5</ele><time>2026-03-22T08:46:22.992Z</time></trkpt><trkpt lat="43.532395" lon="13.5006817"><ele>35.25</ele><time>2026-03-22T08:46:23.992Z</time></trkpt><trkpt lat="43.53251" lon="13.5007317"><ele>35.0</ele><time>2026-03-22T08:46:24.992Z</time></trkpt><trkpt lat="43.5326233" lon="13.500795"><ele>35.0</ele><time>2026-03-22T08:46:25.991Z</time></trkpt><trkpt lat="43.532715" lon="13.500855"><ele>35.0</ele><time>2026-03-22T08:46:26.993Z</time></trkpt><trkpt lat="43.5328017" lon="13.5009183"><ele>35.0</ele><time>2026-03-22T08:46:27.99Z</time></trkpt><trkpt lat="43.5328783" lon="13.50098"><ele>35.0</ele><time>2026-03-22T08:46:28.991Z</time></trkpt><trkpt lat="43.5329433" lon="13.50104"><ele>35.0</ele><time>2026-03-22T08:46:29.994Z</time></trkpt><trkpt lat="43.5330017" lon="13.5010917"><ele>35.0</ele><time>2026-03-22T08:46:30.991Z</time></trkpt><trkpt lat="43.5330833" lon="13.5011783"><ele>35.33333333333333</ele><time>2026-03-22T08:46:32.993Z</time></trkpt><trkpt lat="43.5331533" lon="13.5012517"><ele>35.666666666666664</ele><time>2026-03-22T08:46:34.992Z</time></trkpt><trkpt lat="43.533205" lon="13.5013033"><ele>36.0</ele><time>2026-03-22T08:46:35.994Z</time></trkpt><trkpt lat="43.53327" lon="13.5013717"><ele>36.333333333333336</ele><time>2026-03-22T08:46:36.992Z</time></trkpt><trkpt lat="43.5333417" lon="13.5014467"><ele>36.66666666666667</ele><time>2026-03-22T08:46:37.99Z</time></trkpt><trkpt lat="43.5334133" lon="13.5015233"><ele>37.0</ele><time>2026-03-22T08:46:38.992Z</time></trkpt><trkpt lat="43.53349" lon="13.5016033"><ele>37.0</ele><time>2026-03-22T08:46:39.994Z</time></trkpt><trkpt lat="43.5335683" lon="13.5016833"><ele>37.0</ele><time>2026-03-22T08:46:40.991Z</time></trkpt><trkpt lat="43.533645" lon="13.50176"><ele>37.0</ele><time>2026-03-22T08:46:41.99Z</time></trkpt><trkpt lat="43.5337117" lon="13.5018333"><ele>37.0</ele><time>2026-03-22T08:46:42.992Z</time></trkpt><trkpt lat="43.5337717" lon="13.5018983"><ele>37.0</ele><time>2026-03-22T08:46:43.991Z</time></trkpt><trkpt lat="43.5338667" lon="13.50201"><ele>37.333333333333336</ele><time>2026-03-22T08:46:45.992Z</time></trkpt><trkpt lat="43.53392" lon="13.5020717"><ele>37.66666666666667</ele><time>2026-03-22T08:46:46.994Z</time></trkpt><trkpt lat="43.533975" lon="13.50215"><ele>38.0</ele><time>2026-03-22T08:46:47.992Z</time></trkpt><trkpt lat="43.5340217" lon="13.50223"><ele>38.333333333333336</ele><time>2026-03-22T08:46:48.991Z</time></trkpt><trkpt lat="43.5340617" lon="13.50232"><ele>38.666666666666664</ele><time>2026-03-22T08:46:49.992Z</time></trkpt><trkpt lat="43.5340917" lon="13.5024183"><ele>39.0</ele><time>2026-03-22T08:46:50.992Z</time></trkpt><trkpt lat="43.5341083" lon="13.50254"><ele>39.4</ele><time>2026-03-22T08:46:51.992Z</time></trkpt><trkpt lat="43.5341183" lon="13.5026867"><ele>39.8</ele><time>2026-03-22T08:46:52.992Z</time></trkpt><trkpt lat="43.5341083" lon="13.50285"><ele>40.199999999999996</ele><time>2026-03-22T08:46:53.992Z</time></trkpt><trkpt lat="43.534095" lon="13.5030067"><ele>40.599999999999994</ele><time>2026-03-22T08:46:54.99Z</time></trkpt><trkpt lat="43.5340817" lon="13.503155"><ele>41.0</ele><time>2026-03-22T08:46:55.992Z</time></trkpt><trkpt lat="43.5340583" lon="13.5032983"><ele>41.8</ele><time>2026-03-22T08:46:56.992Z</time></trkpt><trkpt lat="43.5340383" lon="13.50344"><ele>42.599999999999994</ele><time>2026-03-22T08:46:57.99Z</time></trkpt><trkpt lat="43.534015" lon="13.503585"><ele>43.4</ele><time>2026-03-22T08:46:58.992Z</time></trkpt><trkpt lat="43.5339883" lon="13.5037283"><ele>44.2</ele><time>2026-03-22T08:46:59.991Z</time></trkpt><trkpt lat="43.5339617" lon="13.5038717"><ele>45.0</ele><time>2026-03-22T08:47:00.99Z</time></trkpt><trkpt lat="43.5339367" lon="13.504015"><ele>45.6</ele><time>2026-03-22T08:47:01.992Z</time></trkpt><trkpt lat="43.5339133" lon="13.5041583"><ele>46.2</ele><time>2026-03-22T08:47:02.993Z</time></trkpt><trkpt lat="43.5338833" lon="13.5042933"><ele>46.8</ele><time>2026-03-22T08:47:03.99Z</time></trkpt><trkpt lat="43.5338567" lon="13.5044217"><ele>47.4</ele><time>2026-03-22T08:47:04.989Z</time></trkpt><trkpt lat="43.533825" lon="13.5045367"><ele>48.0</ele><time>2026-03-22T08:47:05.991Z</time></trkpt><trkpt lat="43.533795" lon="13.504645"><ele>48.0</ele><time>2026-03-22T08:47:06.992Z</time></trkpt><trkpt lat="43.53376" lon="13.5047433"><ele>48.0</ele><time>2026-03-22T08:47:07.992Z</time></trkpt><trkpt lat="43.53372" lon="13.5048333"><ele>48.0</ele><time>2026-03-22T08:47:08.992Z</time></trkpt><trkpt lat="43.533675" lon="13.5049117"><ele>48.0</ele><time>2026-03-22T08:47:09.99Z</time></trkpt><trkpt lat="43.5336233" lon="13.5049833"><ele>48.0</ele><time>2026-03-22T08:47:10.991Z</time></trkpt><trkpt lat="43.5335683" lon="13.5050517"><ele>48.0</ele><time>2026-03-22T08:47:11.991Z</time></trkpt><trkpt lat="43.5335083" lon="13.5051317"><ele>47.833333333333336</ele><time>2026-03-22T08:47:12.992Z</time></trkpt><trkpt lat="43.5334583" lon="13.50523"><ele>47.666666666666664</ele><time>2026-03-22T08:47:13.992Z</time></trkpt><trkpt lat="43.53343" lon="13.5053383"><ele>47.5</ele><time>2026-03-22T08:47:14.994Z</time></trkpt><trkpt lat="43.5334833" lon="13.505435"><ele>47.33333333333333</ele><time>2026-03-22T08:47:15.99Z</time></trkpt><trkpt lat="43.53354" lon="13.5055117"><ele>47.166666666666664</ele><time>2026-03-22T08:47:16.989Z</time></trkpt><trkpt lat="43.5336383" lon="13.5055283"><ele>47.0</ele><time>2026-03-22T08:47:17.991Z</time></trkpt><trkpt lat="43.5337517" lon="13.5055333"><ele>47.0</ele><time>2026-03-22T08:47:18.992Z</time></trkpt><trkpt lat="43.533865" lon="13.50556"><ele>47.0</ele><time>2026-03-22T08:47:19.99Z</time></trkpt><trkpt lat="43.53397" lon="13.5056317"><ele>47.0</ele><time>2026-03-22T08:47:20.993Z</time></trkpt><trkpt lat="43.5340567" lon="13.5057633"><ele>47.0</ele><time>2026-03-22T08:47:21.991Z</time></trkpt><trkpt lat="43.5341333" lon="13.5059533"><ele>47.0</ele><time>2026-03-22T08:47:22.991Z</time></trkpt><trkpt lat="43.5341733" lon="13.506195"><ele>47.0</ele><time>2026-03-22T08:47:23.994Z</time></trkpt><trkpt lat="43.5342283" lon="13.5064483"><ele>47.0</ele><time>2026-03-22T08:47:24.99Z</time></trkpt><trkpt lat="43.5342767" lon="13.506715"><ele>46.33333333333333</ele><time>2026-03-22T08:47:25.992Z</time></trkpt><trkpt lat="43.53432" lon="13.5069667"><ele>45.666666666666664</ele><time>2026-03-22T08:47:26.991Z</time></trkpt><trkpt lat="43.534365" lon="13.507205"><ele>45.0</ele><time>2026-03-22T08:47:27.993Z</time></trkpt><trkpt lat="43.53441" lon="13.5074283"><ele>44.333333333333336</ele><time>2026-03-22T08:47:28.993Z</time></trkpt><trkpt lat="43.534465" lon="13.50765"><ele>43.66666666666667</ele><time>2026-03-22T08:47:29.992Z</time></trkpt><trkpt lat="43.5345317" lon="13.5078733"><ele>43.0</ele><time>2026-03-22T08:47:30.993Z</time></trkpt><trkpt lat="43.5345933" lon="13.5080917"><ele>44.66666666666667</ele><time>2026-03-22T08:47:31.993Z</time></trkpt><trkpt lat="43.5346633" lon="13.5083033"><ele>46.333333333333336</ele><time>2026-03-22T08:47:32.993Z</time></trkpt><trkpt lat="43.5347433" lon="13.508505"><ele>48.0</ele><time>2026-03-22T08:47:33.99Z</time></trkpt><trkpt lat="43.53483" lon="13.5086917"><ele>45.5</ele><time>2026-03-22T08:47:34.99Z</time></trkpt><trkpt lat="43.5349367" lon="13.50884"><ele>43.0</ele><time>2026-03-22T08:47:35.993Z</time></trkpt><trkpt lat="43.5350583" lon="13.5089567"><ele>40.5</ele><time>2026-03-22T08:47:36.991Z</time></trkpt><trkpt lat="43.5351833" lon="13.509045"><ele>38.0</ele><time>2026-03-22T08:47:37.989Z</time></trkpt><trkpt lat="43.53532" lon="13.50909"><ele>38.0</ele><time>2026-03-22T08:47:38.995Z</time></trkpt><trkpt lat="43.53546" lon="13.509105"><ele>38.0</ele><time>2026-03-22T08:47:39.991Z</time></trkpt><trkpt lat="43.535605" lon="13.50911"><ele>38.0</ele><time>2026-03-22T08:47:40.989Z</time></trkpt><trkpt lat="43.535755" lon="13.5091167"><ele>38.0</ele><time>2026-03-22T08:47:41.994Z</time></trkpt><trkpt lat="43.5359" lon="13.5091233"><ele>38.0</ele><time>2026-03-22T08:47:42.993Z</time></trkpt><trkpt lat="43.536035" lon="13.5091267"><ele>38.0</ele><time>2026-03-22T08:47:43.99Z</time></trkpt><trkpt lat="43.53617" lon="13.50913"><ele>38.0</ele><time>2026-03-22T08:47:44.993Z</time></trkpt><trkpt lat="43.5362983" lon="13.509135"><ele>38.0</ele><time>2026-03-22T08:47:45.989Z</time></trkpt><trkpt lat="43.536425" lon="13.5091417"><ele>37.5</ele><time>2026-03-22T08:47:46.995Z</time></trkpt><trkpt lat="43.5365467" lon="13.5091467"><ele>37.0</ele><time>2026-03-22T08:47:47.987Z</time></trkpt><trkpt lat="43.5366633" lon="13.5091517"><ele>36.5</ele><time>2026-03-22T08:47:48.992Z</time></trkpt><trkpt lat="43.536785" lon="13.5091583"><ele>36.0</ele><time>2026-03-22T08:47:49.993Z</time></trkpt><trkpt lat="43.536905" lon="13.5091617"><ele>36.0</ele><time>2026-03-22T08:47:50.993Z</time></trkpt><trkpt lat="43.53702" lon="13.5091683"><ele>36.0</ele><time>2026-03-22T08:47:51.989Z</time></trkpt><trkpt lat="43.53713" lon="13.5091733"><ele>36.0</ele><time>2026-03-22T08:47:52.993Z</time></trkpt><trkpt lat="43.5372333" lon="13.5091783"><ele>36.0</ele><time>2026-03-22T08:47:53.993Z</time></trkpt><trkpt lat="43.5373367" lon="13.50918"><ele>36.0</ele><time>2026-03-22T08:47:54.991Z</time></trkpt><trkpt lat="43.5374383" lon="13.5091867"><ele>35.4</ele><time>2026-03-22T08:47:55.99Z</time></trkpt><trkpt lat="43.5375383" lon="13.5092"><ele>34.8</ele><time>2026-03-22T08:47:56.994Z</time></trkpt><trkpt lat="43.537635" lon="13.5092217"><ele>34.199999999999996</ele><time>2026-03-22T08:47:57.99Z</time></trkpt><trkpt lat="43.53772" lon="13.509265"><ele>33.6</ele><time>2026-03-22T08:47:58.991Z</time></trkpt><trkpt lat="43.537795" lon="13.5093367"><ele>33.0</ele><time>2026-03-22T08:47:59.991Z</time></trkpt><trkpt lat="43.5378483" lon="13.5094333"><ele>33.0</ele><time>2026-03-22T08:48:00.992Z</time></trkpt><trkpt lat="43.5378833" lon="13.5095467"><ele>33.0</ele><time>2026-03-22T08:48:01.994Z</time></trkpt><trkpt lat="43.5378917" lon="13.509675"><ele>33.0</ele><time>2026-03-22T08:48:02.995Z</time></trkpt><trkpt lat="43.537885" lon="13.5098"><ele>33.0</ele><time>2026-03-22T08:48:03.991Z</time></trkpt><trkpt lat="43.537865" lon="13.5099133"><ele>33.0</ele><time>2026-03-22T08:48:04.99Z</time></trkpt><trkpt lat="43.5378267" lon="13.5100117"><ele>33.0</ele><time>2026-03-22T08:48:05.989Z</time></trkpt><trkpt lat="43.53778" lon="13.510095"><ele>32.5</ele><time>2026-03-22T08:48:06.992Z</time></trkpt><trkpt lat="43.5377267" lon="13.5101633"><ele>32.0</ele><time>2026-03-22T08:48:07.99Z</time></trkpt><trkpt lat="43.5376667" lon="13.51022"><ele>31.5</ele><time>2026-03-22T08:48:08.993Z</time></trkpt><trkpt lat="43.537605" lon="13.5102933"><ele>31.0</ele><time>2026-03-22T08:48:09.991Z</time></trkpt><trkpt lat="43.5375367" lon="13.5103833"><ele>30.5</ele><time>2026-03-22T08:48:10.991Z</time></trkpt><trkpt lat="43.5374583" lon="13.5104833"><ele>30.0</ele><time>2026-03-22T08:48:11.99Z</time></trkpt><trkpt lat="43.53737" lon="13.5105833"><ele>30.0</ele><time>2026-03-22T08:48:12.994Z</time></trkpt><trkpt lat="43.5372783" lon="13.5106817"><ele>30.0</ele><time>2026-03-22T08:48:13.993Z</time></trkpt><trkpt lat="43.5371767" lon="13.51078"><ele>30.0</ele><time>2026-03-22T08:48:14.993Z</time></trkpt><trkpt lat="43.5370483" lon="13.5108883"><ele>30.0</ele><time>2026-03-22T08:48:15.992Z</time></trkpt><trkpt lat="43.5369183" lon="13.5109983"><ele>30.25</ele><time>2026-03-22T08:48:16.994Z</time></trkpt><trkpt lat="43.5367967" lon="13.5110933"><ele>30.5</ele><time>2026-03-22T08:48:17.991Z</time></trkpt><trkpt lat="43.5366833" lon="13.51118"><ele>30.75</ele><time>2026-03-22T08:48:18.992Z</time></trkpt><trkpt lat="43.5365733" lon="13.5112533"><ele>31.0</ele><time>2026-03-22T08:48:19.992Z</time></trkpt><trkpt lat="43.5364633" lon="13.51131"><ele>31.0</ele><time>2026-03-22T08:48:20.993Z</time></trkpt><trkpt lat="43.5363567" lon="13.5113583"><ele>31.0</ele><time>2026-03-22T08:48:21.994Z</time></trkpt><trkpt lat="43.5362583" lon="13.5114133"><ele>31.0</ele><time>2026-03-22T08:48:22.99Z</time></trkpt><trkpt lat="43.5361767" lon="13.5114833"><ele>31.0</ele><time>2026-03-22T08:48:23.994Z</time></trkpt><trkpt lat="43.536115" lon="13.511575"><ele>31.0</ele><time>2026-03-22T08:48:24.991Z</time></trkpt><trkpt lat="43.5360717" lon="13.5116833"><ele>31.000000000000004</ele><time>2026-03-22T08:48:25.992Z</time></trkpt><trkpt lat="43.536045" lon="13.5118033"><ele>31.0</ele><time>2026-03-22T08:48:26.991Z</time></trkpt><trkpt lat="43.536045" lon="13.5119233"><ele>31.0</ele><time>2026-03-22T08:48:27.99Z</time></trkpt><trkpt lat="43.5360817" lon="13.5120267"><ele>31.0</ele><time>2026-03-22T08:48:28.99Z</time></trkpt><trkpt lat="43.5361683" lon="13.5120917"><ele>31.000000000000004</ele><time>2026-03-22T08:48:29.99Z</time></trkpt><trkpt lat="43.5362517" lon="13.5121333"><ele>31.0</ele><time>2026-03-22T08:48:30.991Z</time></trkpt><trkpt lat="43.5363467" lon="13.5121283"><ele>31.0</ele><time>2026-03-22T08:48:31.993Z</time></trkpt><trkpt lat="43.536455" lon="13.51211"><ele>31.0</ele><time>2026-03-22T08:48:32.991Z</time></trkpt><trkpt lat="43.5365883" lon="13.5120833"><ele>31.0</ele><time>2026-03-22T08:48:33.992Z</time></trkpt><trkpt lat="43.5367267" lon="13.512095"><ele>31.0</ele><time>2026-03-22T08:48:34.991Z</time></trkpt><trkpt lat="43.5368817" lon="13.5121267"><ele>31.0</ele><time>2026-03-22T08:48:35.995Z</time></trkpt><trkpt lat="43.5370367" lon="13.5121617"><ele>31.0</ele><time>2026-03-22T08:48:36.988Z</time></trkpt><trkpt lat="43.53721" lon="13.51219"><ele>31.0</ele><time>2026-03-22T08:48:37.99Z</time></trkpt><trkpt lat="43.5373883" lon="13.5122133"><ele>30.666666666666668</ele><time>2026-03-22T08:48:38.995Z</time></trkpt><trkpt lat="43.5375717" lon="13.5122317"><ele>30.333333333333336</ele><time>2026-03-22T08:48:39.991Z</time></trkpt><trkpt lat="43.5377583" lon="13.5122383"><ele>30.0</ele><time>2026-03-22T08:48:40.989Z</time></trkpt><trkpt lat="43.537935" lon="13.51221"><ele>30.333333333333336</ele><time>2026-03-22T08:48:41.99Z</time></trkpt><trkpt lat="43.5381083" lon="13.51213"><ele>30.666666666666668</ele><time>2026-03-22T08:48:42.991Z</time></trkpt><trkpt lat="43.538275" lon="13.5119933"><ele>31.0</ele><time>2026-03-22T08:48:43.994Z</time></trkpt><trkpt lat="43.5384433" lon="13.511835"><ele>31.0</ele><time>2026-03-22T08:48:44.992Z</time></trkpt><trkpt lat="43.5386067" lon="13.5116883"><ele>31.0</ele><time>2026-03-22T08:48:45.992Z</time></trkpt><trkpt lat="43.5387733" lon="13.51155"><ele>31.0</ele><time>2026-03-22T08:48:46.991Z</time></trkpt><trkpt lat="43.5389433" lon="13.5114033"><ele>31.333333333333336</ele><time>2026-03-22T08:48:47.99Z</time></trkpt><trkpt lat="43.539105" lon="13.511245"><ele>31.666666666666664</ele><time>2026-03-22T08:48:48.992Z</time></trkpt><trkpt lat="43.5392683" lon="13.5110867"><ele>32.0</ele><time>2026-03-22T08:48:49.992Z</time></trkpt><trkpt lat="43.5394283" lon="13.5109317"><ele>31.666666666666664</ele><time>2026-03-22T08:48:50.994Z</time></trkpt><trkpt lat="43.539585" lon="13.5107783"><ele>31.333333333333336</ele><time>2026-03-22T08:48:51.991Z</time></trkpt><trkpt lat="43.5397417" lon="13.51063"><ele>31.0</ele><time>2026-03-22T08:48:52.991Z</time></trkpt><trkpt lat="43.5399017" lon="13.5104783"><ele>31.333333333333336</ele><time>2026-03-22T08:48:53.993Z</time></trkpt><trkpt lat="43.5400617" lon="13.5103267"><ele>31.666666666666664</ele><time>2026-03-22T08:48:54.995Z</time></trkpt><trkpt lat="43.5402217" lon="13.510175"><ele>32.0</ele><time>2026-03-22T08:48:55.992Z</time></trkpt><trkpt lat="43.5403817" lon="13.510025"><ele>33.0</ele><time>2026-03-22T08:48:56.993Z</time></trkpt><trkpt lat="43.540545" lon="13.5098867"><ele>34.0</ele><time>2026-03-22T08:48:57.994Z</time></trkpt><trkpt lat="43.5407217" lon="13.5097833"><ele>35.0</ele><time>2026-03-22T08:48:58.993Z</time></trkpt><trkpt lat="43.5409117" lon="13.5097383"><ele>35.0</ele><time>2026-03-22T08:48:59.993Z</time></trkpt><trkpt lat="43.5411067" lon="13.50974"><ele>35.0</ele><time>2026-03-22T08:49:00.991Z</time></trkpt><trkpt lat="43.541305" lon="13.5097533"><ele>35.0</ele><time>2026-03-22T08:49:01.991Z</time></trkpt><trkpt lat="43.5414983" lon="13.50976"><ele>34.666666666666664</ele><time>2026-03-22T08:49:02.993Z</time></trkpt><trkpt lat="43.5416883" lon="13.50977"><ele>34.333333333333336</ele><time>2026-03-22T08:49:03.992Z</time></trkpt><trkpt lat="43.541865" lon="13.50978"><ele>34.0</ele><time>2026-03-22T08:49:04.991Z</time></trkpt><trkpt lat="43.542035" lon="13.5097933"><ele>33.66666666666667</ele><time>2026-03-22T08:49:05.991Z</time></trkpt><trkpt lat="43.5422017" lon="13.50981"><ele>33.333333333333336</ele><time>2026-03-22T08:49:06.994Z</time></trkpt><trkpt lat="43.5423617" lon="13.5098233"><ele>33.0</ele><time>2026-03-22T08:49:07.99Z</time></trkpt><trkpt lat="43.5425167" lon="13.509835"><ele>33.0</ele><time>2026-03-22T08:49:08.993Z</time></trkpt><trkpt lat="43.5426517" lon="13.5098367"><ele>33.0</ele><time>2026-03-22T08:49:09.993Z</time></trkpt><trkpt lat="43.5428" lon="13.509845"><ele>33.0</ele><time>2026-03-22T08:49:10.994Z</time></trkpt><trkpt lat="43.5429483" lon="13.5098567"><ele>33.0</ele><time>2026-03-22T08:49:11.994Z</time></trkpt><trkpt lat="43.5430933" lon="13.5098717"><ele>33.0</ele><time>2026-03-22T08:49:12.991Z</time></trkpt><trkpt lat="43.54324" lon="13.5098833"><ele>33.0</ele><time>2026-03-22T08:49:13.992Z</time></trkpt><trkpt lat="43.5433883" lon="13.5098933"><ele>33.0</ele><time>2026-03-22T08:49:14.992Z</time></trkpt><trkpt lat="43.5435417" lon="13.5098983"><ele>33.0</ele><time>2026-03-22T08:49:15.991Z</time></trkpt><trkpt lat="43.543705" lon="13.509905"><ele>32.666666666666664</ele><time>2026-03-22T08:49:16.991Z</time></trkpt><trkpt lat="43.5438833" lon="13.5099167"><ele>32.33333333333333</ele><time>2026-03-22T08:49:17.994Z</time></trkpt><trkpt lat="43.5440717" lon="13.50993"><ele>32.0</ele><time>2026-03-22T08:49:18.993Z</time></trkpt><trkpt lat="43.5442683" lon="13.5099433"><ele>32.0</ele><time>2026-03-22T08:49:19.992Z</time></trkpt><trkpt lat="43.54447" lon="13.5099583"><ele>32.0</ele><time>2026-03-22T08:49:20.994Z</time></trkpt><trkpt lat="43.5446683" lon="13.5099717"><ele>32.0</ele><time>2026-03-22T08:49:21.991Z</time></trkpt><trkpt lat="43.5448633" lon="13.5099833"><ele>31.666666666666664</ele><time>2026-03-22T08:49:22.993Z</time></trkpt><trkpt lat="43.54506" lon="13.509995"><ele>31.333333333333336</ele><time>2026-03-22T08:49:23.993Z</time></trkpt><trkpt lat="43.545255" lon="13.510005"><ele>31.0</ele><time>2026-03-22T08:49:24.992Z</time></trkpt><trkpt lat="43.5454533" lon="13.5100167"><ele>31.666666666666668</ele><time>2026-03-22T08:49:25.993Z</time></trkpt><trkpt lat="43.54564" lon="13.5100283"><ele>32.333333333333336</ele><time>2026-03-22T08:49:26.996Z</time></trkpt><trkpt lat="43.5458283" lon="13.5100417"><ele>33.0</ele><time>2026-03-22T08:49:27.995Z</time></trkpt><trkpt lat="43.54602" lon="13.5100567"><ele>33.0</ele><time>2026-03-22T08:49:28.994Z</time></trkpt><trkpt lat="43.5462083" lon="13.510065"><ele>33.0</ele><time>2026-03-22T08:49:29.994Z</time></trkpt><trkpt lat="43.5463967" lon="13.510075"><ele>33.0</ele><time>2026-03-22T08:49:30.992Z</time></trkpt><trkpt lat="43.546595" lon="13.510085"><ele>33.0</ele><time>2026-03-22T08:49:31.995Z</time></trkpt><trkpt lat="43.5467883" lon="13.5100967"><ele>33.0</ele><time>2026-03-22T08:49:32.993Z</time></trkpt><trkpt lat="43.5469783" lon="13.5101067"><ele>33.0</ele><time>2026-03-22T08:49:33.993Z</time></trkpt><trkpt lat="43.5471633" lon="13.51012"><ele>33.333333333333336</ele><time>2026-03-22T08:49:34.993Z</time></trkpt><trkpt lat="43.54735" lon="13.510135"><ele>33.66666666666667</ele><time>2026-03-22T08:49:35.996Z</time></trkpt><trkpt lat="43.5475383" lon="13.5101467"><ele>34.0</ele><time>2026-03-22T08:49:36.994Z</time></trkpt><trkpt lat="43.5477283" lon="13.5101567"><ele>34.0</ele><time>2026-03-22T08:49:37.996Z</time></trkpt><trkpt lat="43.5479183" lon="13.510165"><ele>34.0</ele><time>2026-03-22T08:49:38.994Z</time></trkpt><trkpt lat="43.5481133" lon="13.5101767"><ele>34.0</ele><time>2026-03-22T08:49:39.993Z</time></trkpt><trkpt lat="43.548305" lon="13.5101883"><ele>34.0</ele><time>2026-03-22T08:49:40.993Z</time></trkpt><trkpt lat="43.5484933" lon="13.510195"><ele>34.0</ele><time>2026-03-22T08:49:41.995Z</time></trkpt><trkpt lat="43.5486867" lon="13.5102017"><ele>34.0</ele><time>2026-03-22T08:49:42.992Z</time></trkpt><trkpt lat="43.5488783" lon="13.51021"><ele>33.66666666666667</ele><time>2026-03-22T08:49:43.997Z</time></trkpt><trkpt lat="43.549065" lon="13.5102417"><ele>33.333333333333336</ele><time>2026-03-22T08:49:44.994Z</time></trkpt><trkpt lat="43.54925" lon="13.5102983"><ele>33.0</ele><time>2026-03-22T08:49:45.992Z</time></trkpt><trkpt lat="43.5494367" lon="13.51036"><ele>33.333333333333336</ele><time>2026-03-22T08:49:46.993Z</time></trkpt><trkpt lat="43.549625" lon="13.510415"><ele>33.66666666666667</ele><time>2026-03-22T08:49:47.992Z</time></trkpt><trkpt lat="43.5498133" lon="13.5104567"><ele>34.0</ele><time>2026-03-22T08:49:48.993Z</time></trkpt><trkpt lat="43.55" lon="13.5104817"><ele>34.0</ele><time>2026-03-22T08:49:49.992Z</time></trkpt><trkpt lat="43.5501883" lon="13.510495"><ele>34.0</ele><time>2026-03-22T08:49:50.993Z</time></trkpt><trkpt lat="43.55038" lon="13.5105017"><ele>34.0</ele><time>2026-03-22T08:49:51.994Z</time></trkpt><trkpt lat="43.5505733" lon="13.5105083"><ele>34.0</ele><time>2026-03-22T08:49:52.99Z</time></trkpt><trkpt lat="43.5507633" lon="13.510515"><ele>34.0</ele><time>2026-03-22T08:49:53.997Z</time></trkpt><trkpt lat="43.55095" lon="13.510525"><ele>34.0</ele><time>2026-03-22T08:49:54.993Z</time></trkpt><trkpt lat="43.551125" lon="13.5105333"><ele>35.0</ele><time>2026-03-22T08:49:55.99Z</time></trkpt><trkpt lat="43.5512967" lon="13.5105417"><ele>36.0</ele><time>2026-03-22T08:49:56.993Z</time></trkpt><trkpt lat="43.5514667" lon="13.5105517"><ele>37.0</ele><time>2026-03-22T08:49:57.992Z</time></trkpt><trkpt lat="43.5516367" lon="13.5105683"><ele>37.0</ele><time>2026-03-22T08:49:58.992Z</time></trkpt><trkpt lat="43.5517983" lon="13.5105883"><ele>37.0</ele><time>2026-03-22T08:49:59.992Z</time></trkpt><trkpt lat="43.5519617" lon="13.5106083"><ele>37.0</ele><time>2026-03-22T08:50:00.995Z</time></trkpt><trkpt lat="43.55213" lon="13.5106267"><ele>36.66666666666667</ele><time>2026-03-22T08:50:01.993Z</time></trkpt><trkpt lat="43.5523017" lon="13.510645"><ele>36.333333333333336</ele><time>2026-03-22T08:50:02.992Z</time></trkpt><trkpt lat="43.5524767" lon="13.5106583"><ele>36.0</ele><time>2026-03-22T08:50:03.994Z</time></trkpt><trkpt lat="43.5526567" lon="13.51067"><ele>36.0</ele><time>2026-03-22T08:50:04.994Z</time></trkpt><trkpt lat="43.552835" lon="13.5106817"><ele>36.0</ele><time>2026-03-22T08:50:05.995Z</time></trkpt><trkpt lat="43.5530183" lon="13.5106967"><ele>36.0</ele><time>2026-03-22T08:50:06.991Z</time></trkpt><trkpt lat="43.5532083" lon="13.5107133"><ele>36.0</ele><time>2026-03-22T08:50:07.994Z</time></trkpt><trkpt lat="43.5534017" lon="13.5107283"><ele>36.0</ele><time>2026-03-22T08:50:08.992Z</time></trkpt><trkpt lat="43.5535983" lon="13.5107433"><ele>36.0</ele><time>2026-03-22T08:50:09.993Z</time></trkpt><trkpt lat="43.5538017" lon="13.5107583"><ele>36.333333333333336</ele><time>2026-03-22T08:50:10.994Z</time></trkpt><trkpt lat="43.554015" lon="13.5107733"><ele>36.66666666666667</ele><time>2026-03-22T08:50:11.992Z</time></trkpt><trkpt lat="43.5542317" lon="13.510785"><ele>37.0</ele><time>2026-03-22T08:50:12.992Z</time></trkpt><trkpt lat="43.5544417" lon="13.5107967"><ele>37.66666666666667</ele><time>2026-03-22T08:50:13.995Z</time></trkpt><trkpt lat="43.5546433" lon="13.51081"><ele>38.333333333333336</ele><time>2026-03-22T08:50:14.994Z</time></trkpt><trkpt lat="43.5548417" lon="13.510825"><ele>39.0</ele><time>2026-03-22T08:50:15.993Z</time></trkpt><trkpt lat="43.555035" lon="13.5108367"><ele>39.0</ele><time>2026-03-22T08:50:16.992Z</time></trkpt><trkpt lat="43.55523" lon="13.5108433"><ele>39.0</ele><time>2026-03-22T08:50:17.995Z</time></trkpt><trkpt lat="43.555425" lon="13.510845"><ele>39.0</ele><time>2026-03-22T08:50:18.998Z</time></trkpt><trkpt lat="43.5556183" lon="13.5108467"><ele>39.0</ele><time>2026-03-22T08:50:19.998Z</time></trkpt><trkpt lat="43.5558083" lon="13.51085"><ele>39.0</ele><time>2026-03-22T08:50:20.995Z</time></trkpt><trkpt lat="43.556005" lon="13.5108583"><ele>39.0</ele><time>2026-03-22T08:50:21.99Z</time></trkpt><trkpt lat="43.5561967" lon="13.5108683"><ele>38.666666666666664</ele><time>2026-03-22T08:50:22.995Z</time></trkpt><trkpt lat="43.5563883" lon="13.5108817"><ele>38.33333333333333</ele><time>2026-03-22T08:50:23.989Z</time></trkpt><trkpt lat="43.5565833" lon="13.510895"><ele>38.0</ele><time>2026-03-22T08:50:24.995Z</time></trkpt><trkpt lat="43.55678" lon="13.51092"><ele>38.0</ele><time>2026-03-22T08:50:25.995Z</time></trkpt><trkpt lat="43.5569817" lon="13.510945"><ele>38.0</ele><time>2026-03-22T08:50:26.993Z</time></trkpt><trkpt lat="43.5571767" lon="13.5109617"><ele>38.0</ele><time>2026-03-22T08:50:27.992Z</time></trkpt><trkpt lat="43.5573717" lon="13.5109683"><ele>38.33333333333333</ele><time>2026-03-22T08:50:28.992Z</time></trkpt><trkpt lat="43.5575733" lon="13.51097"><ele>38.666666666666664</ele><time>2026-03-22T08:50:29.992Z</time></trkpt><trkpt lat="43.5577817" lon="13.510975"><ele>39.0</ele><time>2026-03-22T08:50:30.994Z</time></trkpt><trkpt lat="43.5579883" lon="13.5109817"><ele>39.333333333333336</ele><time>2026-03-22T08:50:31.992Z</time></trkpt><trkpt lat="43.5581967" lon="13.5109917"><ele>39.66666666666667</ele><time>2026-03-22T08:50:32.994Z</time></trkpt><trkpt lat="43.5584017" lon="13.511005"><ele>40.0</ele><time>2026-03-22T08:50:33.992Z</time></trkpt><trkpt lat="43.5586117" lon="13.5110217"><ele>39.333333333333336</ele><time>2026-03-22T08:50:34.992Z</time></trkpt><trkpt lat="43.5588183" lon="13.5110317"><ele>38.666666666666664</ele><time>2026-03-22T08:50:35.992Z</time></trkpt><trkpt lat="43.5590233" lon="13.5110467"><ele>38.0</ele><time>2026-03-22T08:50:36.99Z</time></trkpt><trkpt lat="43.5592283" lon="13.5110583"><ele>38.0</ele><time>2026-03-22T08:50:37.992Z</time></trkpt><trkpt lat="43.5594283" lon="13.51107"><ele>38.0</ele><time>2026-03-22T08:50:38.994Z</time></trkpt><trkpt lat="43.55962" lon="13.5110817"><ele>38.0</ele><time>2026-03-22T08:50:39.995Z</time></trkpt><trkpt lat="43.5598033" lon="13.5110933"><ele>38.0</ele><time>2026-03-22T08:50:40.991Z</time></trkpt><trkpt lat="43.559975" lon="13.511105"><ele>38.0</ele><time>2026-03-22T08:50:41.992Z</time></trkpt><trkpt lat="43.560135" lon="13.51112"><ele>38.0</ele><time>2026-03-22T08:50:42.991Z</time></trkpt><trkpt lat="43.5602833" lon="13.5111333"><ele>38.75</ele><time>2026-03-22T08:50:43.994Z</time></trkpt><trkpt lat="43.56042" lon="13.5111417"><ele>39.5</ele><time>2026-03-22T08:50:44.994Z</time></trkpt><trkpt lat="43.560545" lon="13.51115"><ele>40.25</ele><time>2026-03-22T08:50:45.991Z</time></trkpt><trkpt lat="43.56066" lon="13.5111533"><ele>41.0</ele><time>2026-03-22T08:50:46.995Z</time></trkpt><trkpt lat="43.5607783" lon="13.5111567"><ele>41.0</ele><time>2026-03-22T08:50:47.99Z</time></trkpt><trkpt lat="43.560905" lon="13.5111617"><ele>41.0</ele><time>2026-03-22T08:50:48.991Z</time></trkpt><trkpt lat="43.5610417" lon="13.5111617"><ele>41.0</ele><time>2026-03-22T08:50:49.991Z</time></trkpt><trkpt lat="43.5611817" lon="13.5111617"><ele>41.0</ele><time>2026-03-22T08:50:50.994Z</time></trkpt><trkpt lat="43.5613217" lon="13.5111633"><ele>40.8</ele><time>2026-03-22T08:50:51.993Z</time></trkpt><trkpt lat="43.5614533" lon="13.5111633"><ele>40.599999999999994</ele><time>2026-03-22T08:50:52.992Z</time></trkpt><trkpt lat="43.5615717" lon="13.511165"><ele>40.4</ele><time>2026-03-22T08:50:53.991Z</time></trkpt><trkpt lat="43.56167" lon="13.5111783"><ele>40.2</ele><time>2026-03-22T08:50:54.992Z</time></trkpt><trkpt lat="43.5617567" lon="13.5112067"><ele>40.0</ele><time>2026-03-22T08:50:55.991Z</time></trkpt><trkpt lat="43.56183" lon="13.5112433"><ele>39.66666666666667</ele><time>2026-03-22T08:50:56.992Z</time></trkpt><trkpt lat="43.5618917" lon="13.5112833"><ele>39.333333333333336</ele><time>2026-03-22T08:50:57.993Z</time></trkpt><trkpt lat="43.5619933" lon="13.5113683"><ele>39.0</ele><time>2026-03-22T08:50:59.992Z</time></trkpt><trkpt lat="43.5620483" lon="13.51142"><ele>38.666666666666664</ele><time>2026-03-22T08:51:00.994Z</time></trkpt><trkpt lat="43.5620983" lon="13.5114867"><ele>38.33333333333333</ele><time>2026-03-22T08:51:01.991Z</time></trkpt><trkpt lat="43.56214" lon="13.5115683"><ele>38.0</ele><time>2026-03-22T08:51:02.992Z</time></trkpt><trkpt lat="43.5621717" lon="13.51166"><ele>38.83333333333333</ele><time>2026-03-22T08:51:03.992Z</time></trkpt><trkpt lat="43.56219" lon="13.5117617"><ele>39.666666666666664</ele><time>2026-03-22T08:51:04.993Z</time></trkpt><trkpt lat="43.5621883" lon="13.511865"><ele>40.5</ele><time>2026-03-22T08:51:05.994Z</time></trkpt><trkpt lat="43.5621817" lon="13.5119717"><ele>41.333333333333336</ele><time>2026-03-22T08:51:06.994Z</time></trkpt><trkpt lat="43.5621717" lon="13.51208"><ele>42.16666666666667</ele><time>2026-03-22T08:51:07.993Z</time></trkpt><trkpt lat="43.56216" lon="13.51219"><ele>43.0</ele><time>2026-03-22T08:51:08.995Z</time></trkpt><trkpt lat="43.56215" lon="13.5122983"><ele>43.0</ele><time>2026-03-22T08:51:09.991Z</time></trkpt><trkpt lat="43.5621367" lon="13.512395"><ele>43.0</ele><time>2026-03-22T08:51:10.991Z</time></trkpt><trkpt lat="43.562125" lon="13.5124817"><ele>43.0</ele><time>2026-03-22T08:51:11.989Z</time></trkpt><trkpt lat="43.562105" lon="13.51264"><ele>43.0</ele><time>2026-03-22T08:51:13.994Z</time></trkpt><trkpt lat="43.562085" lon="13.5128"><ele>43.0</ele><time>2026-03-22T08:51:15.989Z</time></trkpt><trkpt lat="43.5620733" lon="13.5129517"><ele>42.8</ele><time>2026-03-22T08:51:17.993Z</time></trkpt><trkpt lat="43.5620583" lon="13.5130767"><ele>42.599999999999994</ele><time>2026-03-22T08:51:19.992Z</time></trkpt><trkpt lat="43.5620533" lon="13.5131983"><ele>42.400000000000006</ele><time>2026-03-22T08:51:22.992Z</time></trkpt><trkpt lat="43.5620467" lon="13.5133283"><ele>42.2</ele><time>2026-03-22T08:51:24.995Z</time></trkpt><trkpt lat="43.5620233" lon="13.5134517"><ele>42.0</ele><time>2026-03-22T08:51:25.994Z</time></trkpt><trkpt lat="43.56199" lon="13.51364"><ele>41.25</ele><time>2026-03-22T08:51:26.997Z</time></trkpt><trkpt lat="43.5619733" lon="13.5138217"><ele>40.5</ele><time>2026-03-22T08:51:27.994Z</time></trkpt><trkpt lat="43.561955" lon="13.514"><ele>39.75</ele><time>2026-03-22T08:51:28.99Z</time></trkpt><trkpt lat="43.561945" lon="13.514175"><ele>39.0</ele><time>2026-03-22T08:51:29.99Z</time></trkpt><trkpt lat="43.5619333" lon="13.51434"><ele>39.0</ele><time>2026-03-22T08:51:30.993Z</time></trkpt><trkpt lat="43.5619217" lon="13.5145133"><ele>39.0</ele><time>2026-03-22T08:51:31.994Z</time></trkpt><trkpt lat="43.5619083" lon="13.51469"><ele>39.0</ele><time>2026-03-22T08:51:32.994Z</time></trkpt><trkpt lat="43.5619" lon="13.5148517"><ele>39.0</ele><time>2026-03-22T08:51:33.99Z</time></trkpt><trkpt lat="43.561895" lon="13.5149933"><ele>39.2</ele><time>2026-03-22T08:51:34.991Z</time></trkpt><trkpt lat="43.5618933" lon="13.5151183"><ele>39.4</ele><time>2026-03-22T08:51:35.993Z</time></trkpt><trkpt lat="43.561895" lon="13.5152417"><ele>39.6</ele><time>2026-03-22T08:51:36.993Z</time></trkpt><trkpt lat="43.5618917" lon="13.5153667"><ele>39.8</ele><time>2026-03-22T08:51:37.992Z</time></trkpt><trkpt lat="43.5618867" lon="13.5154983"><ele>40.0</ele><time>2026-03-22T08:51:38.992Z</time></trkpt><trkpt lat="43.5618767" lon="13.51564"><ele>40.25</ele><time>2026-03-22T08:51:39.993Z</time></trkpt><trkpt lat="43.5618583" lon="13.5158"><ele>40.5</ele><time>2026-03-22T08:51:40.993Z</time></trkpt><trkpt lat="43.5618383" lon="13.5159767"><ele>40.75</ele><time>2026-03-22T08:51:41.992Z</time></trkpt><trkpt lat="43.5618167" lon="13.5161567"><ele>41.0</ele><time>2026-03-22T08:51:42.992Z</time></trkpt><trkpt lat="43.56179" lon="13.5163283"><ele>41.0</ele><time>2026-03-22T08:51:44Z</time></trkpt><trkpt lat="43.56177" lon="13.5164933"><ele>41.0</ele><time>2026-03-22T08:51:44.994Z</time></trkpt><trkpt lat="43.56175" lon="13.516655"><ele>41.0</ele><time>2026-03-22T08:51:45.996Z</time></trkpt><trkpt lat="43.561735" lon="13.5168167"><ele>41.0</ele><time>2026-03-22T08:51:46.991Z</time></trkpt><trkpt lat="43.5617217" lon="13.5169883"><ele>41.199999999999996</ele><time>2026-03-22T08:51:47.992Z</time></trkpt><trkpt lat="43.561715" lon="13.517155"><ele>41.4</ele><time>2026-03-22T08:51:48.991Z</time></trkpt><trkpt lat="43.561705" lon="13.5173117"><ele>41.6</ele><time>2026-03-22T08:51:49.992Z</time></trkpt><trkpt lat="43.561695" lon="13.5174517"><ele>41.8</ele><time>2026-03-22T08:51:50.992Z</time></trkpt><trkpt lat="43.561685" lon="13.5175817"><ele>42.0</ele><time>2026-03-22T08:51:51.993Z</time></trkpt><trkpt lat="43.5616767" lon="13.5177067"><ele>42.0</ele><time>2026-03-22T08:51:52.994Z</time></trkpt><trkpt lat="43.5616733" lon="13.517835"><ele>42.0</ele><time>2026-03-22T08:51:53.994Z</time></trkpt><trkpt lat="43.56167" lon="13.5179617"><ele>42.0</ele><time>2026-03-22T08:51:54.993Z</time></trkpt><trkpt lat="43.5616633" lon="13.5180833"><ele>42.0</ele><time>2026-03-22T08:51:55.993Z</time></trkpt><trkpt lat="43.5616567" lon="13.51821"><ele>42.0</ele><time>2026-03-22T08:51:56.992Z</time></trkpt><trkpt lat="43.561645" lon="13.51835"><ele>42.25</ele><time>2026-03-22T08:51:57.991Z</time></trkpt><trkpt lat="43.5616317" lon="13.5184983"><ele>42.5</ele><time>2026-03-22T08:51:58.991Z</time></trkpt><trkpt lat="43.5616217" lon="13.518655"><ele>42.75</ele><time>2026-03-22T08:51:59.994Z</time></trkpt><trkpt lat="43.5616117" lon="13.5188133"><ele>43.0</ele><time>2026-03-22T08:52:00.993Z</time></trkpt><trkpt lat="43.5616117" lon="13.5189717"><ele>42.5</ele><time>2026-03-22T08:52:01.994Z</time></trkpt><trkpt lat="43.561605" lon="13.51914"><ele>42.0</ele><time>2026-03-22T08:52:02.995Z</time></trkpt><trkpt lat="43.5615933" lon="13.5193517"><ele>41.5</ele><time>2026-03-22T08:52:03.992Z</time></trkpt><trkpt lat="43.5615883" lon="13.5195333"><ele>41.0</ele><time>2026-03-22T08:52:04.99Z</time></trkpt><trkpt lat="43.5615917" lon="13.5197067"><ele>40.8</ele><time>2026-03-22T08:52:05.991Z</time></trkpt><trkpt lat="43.56159" lon="13.5198517"><ele>40.599999999999994</ele><time>2026-03-22T08:52:07.006Z</time></trkpt><trkpt lat="43.5615883" lon="13.519985"><ele>40.4</ele><time>2026-03-22T08:52:07.994Z</time></trkpt><trkpt lat="43.5615933" lon="13.5201267"><ele>40.2</ele><time>2026-03-22T08:52:08.991Z</time></trkpt><trkpt lat="43.5615867" lon="13.520265"><ele>40.0</ele><time>2026-03-22T08:52:09.993Z</time></trkpt><trkpt lat="43.5615783" lon="13.52041"><ele>40.0</ele><time>2026-03-22T08:52:10.991Z</time></trkpt><trkpt lat="43.5615617" lon="13.5205467"><ele>40.0</ele><time>2026-03-22T08:52:11.99Z</time></trkpt><trkpt lat="43.5615333" lon="13.5206767"><ele>40.0</ele><time>2026-03-22T08:52:12.992Z</time></trkpt><trkpt lat="43.5615" lon="13.5208017"><ele>40.0</ele><time>2026-03-22T08:52:13.991Z</time></trkpt><trkpt lat="43.561455" lon="13.5209233"><ele>40.0</ele><time>2026-03-22T08:52:14.992Z</time></trkpt><trkpt lat="43.5613983" lon="13.52104"><ele>40.0</ele><time>2026-03-22T08:52:15.991Z</time></trkpt><trkpt lat="43.5613383" lon="13.5211467"><ele>40.0</ele><time>2026-03-22T08:52:16.995Z</time></trkpt><trkpt lat="43.5612767" lon="13.5212517"><ele>40.0</ele><time>2026-03-22T08:52:17.996Z</time></trkpt><trkpt lat="43.56122" lon="13.52135"><ele>40.0</ele><time>2026-03-22T08:52:18.992Z</time></trkpt><trkpt lat="43.5611733" lon="13.5214617"><ele>40.0</ele><time>2026-03-22T08:52:19.994Z</time></trkpt><trkpt lat="43.5611383" lon="13.5215933"><ele>40.2</ele><time>2026-03-22T08:52:20.995Z</time></trkpt><trkpt lat="43.5611167" lon="13.5217333"><ele>40.4</ele><time>2026-03-22T08:52:21.994Z</time></trkpt><trkpt lat="43.56112" lon="13.5218733"><ele>40.599999999999994</ele><time>2026-03-22T08:52:22.991Z</time></trkpt><trkpt lat="43.5611417" lon="13.522005"><ele>40.8</ele><time>2026-03-22T08:52:23.994Z</time></trkpt><trkpt lat="43.5611883" lon="13.52213"><ele>41.0</ele><time>2026-03-22T08:52:24.991Z</time></trkpt><trkpt lat="43.561245" lon="13.5222417"><ele>41.666666666666664</ele><time>2026-03-22T08:52:25.993Z</time></trkpt><trkpt lat="43.5613" lon="13.522345"><ele>42.33333333333333</ele><time>2026-03-22T08:52:26.993Z</time></trkpt><trkpt lat="43.5613517" lon="13.5224367"><ele>43.0</ele><time>2026-03-22T08:52:27.992Z</time></trkpt><trkpt lat="43.5613967" lon="13.5225183"><ele>43.666666666666664</ele><time>2026-03-22T08:52:28.993Z</time></trkpt><trkpt lat="43.5614367" lon="13.52259"><ele>44.333333333333336</ele><time>2026-03-22T08:52:29.99Z</time></trkpt><trkpt lat="43.5615" lon="13.5227033"><ele>45.0</ele><time>2026-03-22T08:52:31.992Z</time></trkpt><trkpt lat="43.5615533" lon="13.5227833"><ele>45.0</ele><time>2026-03-22T08:52:33.986Z</time></trkpt><trkpt lat="43.5616067" lon="13.5228733"><ele>45.0</ele><time>2026-03-22T08:52:46.99Z</time></trkpt><trkpt lat="43.5616717" lon="13.5229"><ele>45.0</ele><time>2026-03-22T08:52:48.992Z</time></trkpt><trkpt lat="43.5617567" lon="13.5228533"><ele>45.0</ele><time>2026-03-22T08:52:49.994Z</time></trkpt><trkpt lat="43.5618617" lon="13.5227967"><ele>45.0</ele><time>2026-03-22T08:52:50.994Z</time></trkpt><trkpt lat="43.562005" lon="13.522735"><ele>46.66666666666667</ele><time>2026-03-22T08:52:51.99Z</time></trkpt><trkpt lat="43.56217" lon="13.52268"><ele>48.333333333333336</ele><time>2026-03-22T08:52:52.992Z</time></trkpt><trkpt lat="43.5623483" lon="13.5226283"><ele>50.0</ele><time>2026-03-22T08:52:53.996Z</time></trkpt><trkpt lat="43.5625167" lon="13.5225783"><ele>50.0</ele><time>2026-03-22T08:52:54.991Z</time></trkpt><trkpt lat="43.5626833" lon="13.522535"><ele>50.0</ele><time>2026-03-22T08:52:55.994Z</time></trkpt><trkpt lat="43.56285" lon="13.5225083"><ele>50.0</ele><time>2026-03-22T08:52:56.993Z</time></trkpt><trkpt lat="43.563015" lon="13.52249"><ele>48.66666666666667</ele><time>2026-03-22T08:52:57.991Z</time></trkpt><trkpt lat="43.5631883" lon="13.5224883"><ele>47.333333333333336</ele><time>2026-03-22T08:52:58.992Z</time></trkpt><trkpt lat="43.563365" lon="13.5224883"><ele>46.0</ele><time>2026-03-22T08:52:59.994Z</time></trkpt><trkpt lat="43.5635333" lon="13.52249"><ele>46.333333333333336</ele><time>2026-03-22T08:53:00.99Z</time></trkpt><trkpt lat="43.5637117" lon="13.5225083"><ele>46.666666666666664</ele><time>2026-03-22T08:53:01.992Z</time></trkpt><trkpt lat="43.563895" lon="13.522535"><ele>47.0</ele><time>2026-03-22T08:53:02.995Z</time></trkpt><trkpt lat="43.5640733" lon="13.522575"><ele>47.0</ele><time>2026-03-22T08:53:03.995Z</time></trkpt><trkpt lat="43.564255" lon="13.5226383"><ele>47.0</ele><time>2026-03-22T08:53:04.992Z</time></trkpt><trkpt lat="43.56443" lon="13.52271"><ele>47.0</ele><time>2026-03-22T08:53:05.994Z</time></trkpt><trkpt lat="43.5646017" lon="13.5227933"><ele>46.33333333333333</ele><time>2026-03-22T08:53:06.993Z</time></trkpt><trkpt lat="43.5647817" lon="13.5228867"><ele>45.666666666666664</ele><time>2026-03-22T08:53:07.992Z</time></trkpt><trkpt lat="43.5649617" lon="13.522985"><ele>45.0</ele><time>2026-03-22T08:53:08.995Z</time></trkpt><trkpt lat="43.565155" lon="13.5230867"><ele>45.333333333333336</ele><time>2026-03-22T08:53:09.993Z</time></trkpt><trkpt lat="43.5653517" lon="13.5231883"><ele>45.66666666666667</ele><time>2026-03-22T08:53:10.993Z</time></trkpt><trkpt lat="43.5655483" lon="13.5232933"><ele>46.0</ele><time>2026-03-22T08:53:11.991Z</time></trkpt><trkpt lat="43.5657483" lon="13.5233967"><ele>46.0</ele><time>2026-03-22T08:53:12.991Z</time></trkpt><trkpt lat="43.5659467" lon="13.5235017"><ele>46.0</ele><time>2026-03-22T08:53:13.993Z</time></trkpt><trkpt lat="43.5661433" lon="13.5236083"><ele>46.0</ele><time>2026-03-22T08:53:14.992Z</time></trkpt><trkpt lat="43.5663417" lon="13.5237133"><ele>47.333333333333336</ele><time>2026-03-22T08:53:15.994Z</time></trkpt><trkpt lat="43.5665417" lon="13.523815"><ele>48.66666666666667</ele><time>2026-03-22T08:53:16.992Z</time></trkpt><trkpt lat="43.566745" lon="13.5239117"><ele>50.0</ele><time>2026-03-22T08:53:17.993Z</time></trkpt><trkpt lat="43.5669467" lon="13.5240083"><ele>49.66666666666667</ele><time>2026-03-22T08:53:18.99Z</time></trkpt><trkpt lat="43.5671433" lon="13.5241"><ele>49.33333333333333</ele><time>2026-03-22T08:53:19.993Z</time></trkpt><trkpt lat="43.56734" lon="13.5241833"><ele>49.0</ele><time>2026-03-22T08:53:20.995Z</time></trkpt><trkpt lat="43.567535" lon="13.52426"><ele>49.0</ele><time>2026-03-22T08:53:21.991Z</time></trkpt><trkpt lat="43.5677333" lon="13.5243283"><ele>49.0</ele><time>2026-03-22T08:53:22.991Z</time></trkpt><trkpt lat="43.5679283" lon="13.52439"><ele>49.0</ele><time>2026-03-22T08:53:23.994Z</time></trkpt><trkpt lat="43.568125" lon="13.5244417"><ele>49.666666666666664</ele><time>2026-03-22T08:53:24.993Z</time></trkpt><trkpt lat="43.5683183" lon="13.524485"><ele>50.33333333333333</ele><time>2026-03-22T08:53:25.991Z</time></trkpt><trkpt lat="43.568515" lon="13.5245267"><ele>51.0</ele><time>2026-03-22T08:53:26.993Z</time></trkpt><trkpt lat="43.5687133" lon="13.5245683"><ele>52.0</ele><time>2026-03-22T08:53:27.992Z</time></trkpt><trkpt lat="43.56891" lon="13.5246033"><ele>53.0</ele><time>2026-03-22T08:53:28.992Z</time></trkpt><trkpt lat="43.5691083" lon="13.5246283"><ele>54.0</ele><time>2026-03-22T08:53:29.995Z</time></trkpt><trkpt lat="43.56931" lon="13.52465"><ele>54.0</ele><time>2026-03-22T08:53:30.995Z</time></trkpt><trkpt lat="43.5695133" lon="13.524665"><ele>54.0</ele><time>2026-03-22T08:53:31.995Z</time></trkpt><trkpt lat="43.5697183" lon="13.5246767"><ele>54.0</ele><time>2026-03-22T08:53:32.993Z</time></trkpt><trkpt lat="43.5699233" lon="13.524685"><ele>53.66666666666667</ele><time>2026-03-22T08:53:33.995Z</time></trkpt><trkpt lat="43.5701233" lon="13.524685"><ele>53.333333333333336</ele><time>2026-03-22T08:53:34.996Z</time></trkpt><trkpt lat="43.5703233" lon="13.5246833"><ele>53.0</ele><time>2026-03-22T08:53:35.994Z</time></trkpt><trkpt lat="43.5705217" lon="13.5246817"><ele>53.0</ele><time>2026-03-22T08:53:36.991Z</time></trkpt><trkpt lat="43.5707167" lon="13.52468"><ele>53.0</ele><time>2026-03-22T08:53:37.997Z</time></trkpt><trkpt lat="43.57091" lon="13.5246817"><ele>53.0</ele><time>2026-03-22T08:53:38.997Z</time></trkpt><trkpt lat="43.5710983" lon="13.5246833"><ele>53.0</ele><time>2026-03-22T08:53:39.993Z</time></trkpt><trkpt lat="43.5712883" lon="13.524685"><ele>53.0</ele><time>2026-03-22T08:53:40.994Z</time></trkpt><trkpt lat="43.571475" lon="13.524685"><ele>53.0</ele><time>2026-03-22T08:53:41.996Z</time></trkpt><trkpt lat="43.5716583" lon="13.5246883"><ele>53.0</ele><time>2026-03-22T08:53:42.991Z</time></trkpt><trkpt lat="43.5718433" lon="13.5246883"><ele>53.0</ele><time>2026-03-22T08:53:43.993Z</time></trkpt><trkpt lat="43.5720267" lon="13.5246867"><ele>53.0</ele><time>2026-03-22T08:53:44.995Z</time></trkpt><trkpt lat="43.5722017" lon="13.524685"><ele>54.0</ele><time>2026-03-22T08:53:45.994Z</time></trkpt><trkpt lat="43.5723717" lon="13.5246867"><ele>55.0</ele><time>2026-03-22T08:53:46.994Z</time></trkpt><trkpt lat="43.57254" lon="13.5246867"><ele>56.0</ele><time>2026-03-22T08:53:47.993Z</time></trkpt><trkpt lat="43.5727033" lon="13.524685"><ele>56.0</ele><time>2026-03-22T08:53:48.991Z</time></trkpt><trkpt lat="43.572855" lon="13.524685"><ele>56.0</ele><time>2026-03-22T08:53:49.994Z</time></trkpt><trkpt lat="43.572995" lon="13.5246867"><ele>56.0</ele><time>2026-03-22T08:53:50.993Z</time></trkpt><trkpt lat="43.5731283" lon="13.5246867"><ele>56.0</ele><time>2026-03-22T08:53:51.992Z</time></trkpt><trkpt lat="43.57325" lon="13.5246833"><ele>56.599999999999994</ele><time>2026-03-22T08:53:52.993Z</time></trkpt><trkpt lat="43.5733667" lon="13.5246833"><ele>57.199999999999996</ele><time>2026-03-22T08:53:53.995Z</time></trkpt><trkpt lat="43.5734767" lon="13.5246833"><ele>57.800000000000004</ele><time>2026-03-22T08:53:54.994Z</time></trkpt><trkpt lat="43.5735817" lon="13.5246867"><ele>58.400000000000006</ele><time>2026-03-22T08:53:55.996Z</time></trkpt><trkpt lat="43.573675" lon="13.5246933"><ele>59.0</ele><time>2026-03-22T08:53:56.994Z</time></trkpt><trkpt lat="43.5737633" lon="13.5247017"><ele>59.333333333333336</ele><time>2026-03-22T08:53:57.995Z</time></trkpt><trkpt lat="43.5738417" lon="13.5247167"><ele>59.66666666666667</ele><time>2026-03-22T08:53:58.988Z</time></trkpt><trkpt lat="43.5739017" lon="13.5247483"><ele>60.0</ele><time>2026-03-22T08:53:59.995Z</time></trkpt><trkpt lat="43.5739283" lon="13.5248633"><ele>60.33333333333333</ele><time>2026-03-22T08:54:01.994Z</time></trkpt><trkpt lat="43.5738817" lon="13.5249817"><ele>60.666666666666664</ele><time>2026-03-22T08:54:03.991Z</time></trkpt><trkpt lat="43.5738067" lon="13.52504"><ele>61.0</ele><time>2026-03-22T08:54:04.994Z</time></trkpt><trkpt lat="43.5737217" lon="13.5250983"><ele>60.71428571428571</ele><time>2026-03-22T08:54:05.996Z</time></trkpt><trkpt lat="43.5736617" lon="13.525165"><ele>60.42857142857143</ele><time>2026-03-22T08:54:06.995Z</time></trkpt><trkpt lat="43.5736017" lon="13.5252217"><ele>60.14285714285714</ele><time>2026-03-22T08:54:07.991Z</time></trkpt><trkpt lat="43.5735517" lon="13.5252783"><ele>59.857142857142854</ele><time>2026-03-22T08:54:08.993Z</time></trkpt><trkpt lat="43.5735133" lon="13.5253583"><ele>59.57142857142857</ele><time>2026-03-22T08:54:09.992Z</time></trkpt><trkpt lat="43.573475" lon="13.52544"><ele>59.285714285714285</ele><time>2026-03-22T08:54:10.99Z</time></trkpt><trkpt lat="43.573455" lon="13.5255317"><ele>59.0</ele><time>2026-03-22T08:54:11.99Z</time></trkpt><trkpt lat="43.5734417" lon="13.5256317"><ele>60.0</ele><time>2026-03-22T08:54:12.99Z</time></trkpt><trkpt lat="43.5734367" lon="13.5257433"><ele>61.00000000000001</ele><time>2026-03-22T08:54:13.991Z</time></trkpt><trkpt lat="43.573445" lon="13.5258617"><ele>62.00000000000001</ele><time>2026-03-22T08:54:14.995Z</time></trkpt><trkpt lat="43.5734633" lon="13.525985"><ele>63.0</ele><time>2026-03-22T08:54:15.994Z</time></trkpt><trkpt lat="43.57351" lon="13.52614"><ele>64.0</ele><time>2026-03-22T08:54:16.993Z</time></trkpt><trkpt lat="43.5735617" lon="13.5263067"><ele>64.66666666666666</ele><time>2026-03-22T08:54:17.993Z</time></trkpt><trkpt lat="43.57362" lon="13.52649"><ele>65.33333333333333</ele><time>2026-03-22T08:54:18.994Z</time></trkpt><trkpt lat="43.57368" lon="13.5267"><ele>66.0</ele><time>2026-03-22T08:54:19.992Z</time></trkpt><trkpt lat="43.5737433" lon="13.5269217"><ele>73.33333333333333</ele><time>2026-03-22T08:54:20.994Z</time></trkpt><trkpt lat="43.5738017" lon="13.52713"><ele>80.66666666666666</ele><time>2026-03-22T08:54:21.994Z</time></trkpt><trkpt lat="43.5738667" lon="13.5273317"><ele>88.0</ele><time>2026-03-22T08:54:22.991Z</time></trkpt><trkpt lat="43.5739533" lon="13.5275233"><ele>88.0</ele><time>2026-03-22T08:54:23.99Z</time></trkpt><trkpt lat="43.5740617" lon="13.527715"><ele>88.0</ele><time>2026-03-22T08:54:24.993Z</time></trkpt><trkpt lat="43.574175" lon="13.5279067"><ele>88.0</ele><time>2026-03-22T08:54:25.992Z</time></trkpt><trkpt lat="43.57429" lon="13.5281067"><ele>87.66666666666666</ele><time>2026-03-22T08:54:26.989Z</time></trkpt><trkpt lat="43.5744017" lon="13.5283117"><ele>87.33333333333333</ele><time>2026-03-22T08:54:27.99Z</time></trkpt><trkpt lat="43.5745117" lon="13.528515"><ele>87.0</ele><time>2026-03-22T08:54:28.99Z</time></trkpt><trkpt lat="43.57462" lon="13.5287083"><ele>92.0</ele><time>2026-03-22T08:54:29.989Z</time></trkpt><trkpt lat="43.57473" lon="13.5288883"><ele>97.0</ele><time>2026-03-22T08:54:30.992Z</time></trkpt><trkpt lat="43.5748383" lon="13.5290517"><ele>102.0</ele><time>2026-03-22T08:54:31.991Z</time></trkpt><trkpt lat="43.5749433" lon="13.5292067"><ele>102.0</ele><time>2026-03-22T08:54:32.992Z</time></trkpt><trkpt lat="43.5750383" lon="13.5293683"><ele>102.0</ele><time>2026-03-22T08:54:33.992Z</time></trkpt><trkpt lat="43.5751283" lon="13.5295367"><ele>102.0</ele><time>2026-03-22T08:54:34.992Z</time></trkpt><trkpt lat="43.5752167" lon="13.5297083"><ele>102.0</ele><time>2026-03-22T08:54:35.994Z</time></trkpt><trkpt lat="43.5753017" lon="13.5298767"><ele>102.0</ele><time>2026-03-22T08:54:36.996Z</time></trkpt><trkpt lat="43.575385" lon="13.5300467"><ele>102.0</ele><time>2026-03-22T08:54:37.992Z</time></trkpt><trkpt lat="43.5754633" lon="13.53021"><ele>102.0</ele><time>2026-03-22T08:54:38.995Z</time></trkpt><trkpt lat="43.5755567" lon="13.5303633"><ele>106.33333333333334</ele><time>2026-03-22T08:54:39.992Z</time></trkpt><trkpt lat="43.57566" lon="13.5305117"><ele>110.66666666666667</ele><time>2026-03-22T08:54:40.994Z</time></trkpt><trkpt lat="43.5757667" lon="13.5306617"><ele>115.0</ele><time>2026-03-22T08:54:41.993Z</time></trkpt><trkpt lat="43.57586" lon="13.5308217"><ele>115.0</ele><time>2026-03-22T08:54:42.995Z</time></trkpt><trkpt lat="43.575945" lon="13.530985"><ele>115.0</ele><time>2026-03-22T08:54:43.991Z</time></trkpt><trkpt lat="43.576015" lon="13.5311533"><ele>115.0</ele><time>2026-03-22T08:54:44.991Z</time></trkpt><trkpt lat="43.5760583" lon="13.5313"><ele>115.0</ele><time>2026-03-22T08:54:45.993Z</time></trkpt><trkpt lat="43.576105" lon="13.5314367"><ele>113.8</ele><time>2026-03-22T08:54:46.992Z</time></trkpt><trkpt lat="43.576145" lon="13.531565"><ele>112.6</ele><time>2026-03-22T08:54:47.993Z</time></trkpt><trkpt lat="43.5761933" lon="13.5316767"><ele>111.4</ele><time>2026-03-22T08:54:48.992Z</time></trkpt><trkpt lat="43.5762583" lon="13.5317733"><ele>110.2</ele><time>2026-03-22T08:54:49.994Z</time></trkpt><trkpt lat="43.576335" lon="13.5318717"><ele>109.0</ele><time>2026-03-22T08:54:50.994Z</time></trkpt><trkpt lat="43.5764333" lon="13.5319567"><ele>110.5</ele><time>2026-03-22T08:54:51.994Z</time></trkpt><trkpt lat="43.5765417" lon="13.5320417"><ele>112.0</ele><time>2026-03-22T08:54:52.995Z</time></trkpt><trkpt lat="43.576675" lon="13.5321267"><ele>113.5</ele><time>2026-03-22T08:54:53.993Z</time></trkpt><trkpt lat="43.57681" lon="13.5322367"><ele>115.0</ele><time>2026-03-22T08:54:54.993Z</time></trkpt><trkpt lat="43.5769483" lon="13.532375"><ele>114.66666666666667</ele><time>2026-03-22T08:54:55.994Z</time></trkpt><trkpt lat="43.5770767" lon="13.53253"><ele>114.33333333333334</ele><time>2026-03-22T08:54:56.99Z</time></trkpt><trkpt lat="43.5771933" lon="13.5326733"><ele>114.0</ele><time>2026-03-22T08:54:57.994Z</time></trkpt><trkpt lat="43.57731" lon="13.5328033"><ele>113.25</ele><time>2026-03-22T08:54:58.998Z</time></trkpt><trkpt lat="43.5774317" lon="13.5329083"><ele>112.5</ele><time>2026-03-22T08:54:59.994Z</time></trkpt><trkpt lat="43.5775583" lon="13.5329983"><ele>111.75</ele><time>2026-03-22T08:55:00.992Z</time></trkpt><trkpt lat="43.577685" lon="13.5330617"><ele>111.0</ele><time>2026-03-22T08:55:01.994Z</time></trkpt><trkpt lat="43.577815" lon="13.533115"><ele>111.5</ele><time>2026-03-22T08:55:02.995Z</time></trkpt><trkpt lat="43.5779567" lon="13.5331533"><ele>112.0</ele><time>2026-03-22T08:55:03.993Z</time></trkpt><trkpt lat="43.5781" lon="13.5331717"><ele>112.5</ele><time>2026-03-22T08:55:04.991Z</time></trkpt><trkpt lat="43.578245" lon="13.5331717"><ele>113.0</ele><time>2026-03-22T08:55:05.991Z</time></trkpt><trkpt lat="43.57839" lon="13.533165"><ele>113.0</ele><time>2026-03-22T08:55:06.991Z</time></trkpt><trkpt lat="43.578545" lon="13.53316"><ele>113.0</ele><time>2026-03-22T08:55:07.994Z</time></trkpt><trkpt lat="43.5787067" lon="13.5331617"><ele>113.0</ele><time>2026-03-22T08:55:08.991Z</time></trkpt><trkpt lat="43.5788717" lon="13.533165"><ele>114.5</ele><time>2026-03-22T08:55:09.993Z</time></trkpt><trkpt lat="43.57903" lon="13.5331667"><ele>116.0</ele><time>2026-03-22T08:55:10.992Z</time></trkpt><trkpt lat="43.579175" lon="13.5331617"><ele>117.5</ele><time>2026-03-22T08:55:12.004Z</time></trkpt><trkpt lat="43.57931" lon="13.53314"><ele>119.0</ele><time>2026-03-22T08:55:12.992Z</time></trkpt><trkpt lat="43.5794367" lon="13.53309"><ele>121.0</ele><time>2026-03-22T08:55:13.995Z</time></trkpt><trkpt lat="43.579575" lon="13.533025"><ele>123.0</ele><time>2026-03-22T08:55:14.994Z</time></trkpt><trkpt lat="43.5797067" lon="13.5329517"><ele>125.0</ele><time>2026-03-22T08:55:15.992Z</time></trkpt><trkpt lat="43.5798233" lon="13.5328783"><ele>127.0</ele><time>2026-03-22T08:55:16.992Z</time></trkpt><trkpt lat="43.5799383" lon="13.5328133"><ele>127.0</ele><time>2026-03-22T08:55:17.995Z</time></trkpt><trkpt lat="43.5800533" lon="13.5327583"><ele>126.99999999999999</ele><time>2026-03-22T08:55:18.993Z</time></trkpt><trkpt lat="43.5801517" lon="13.532715"><ele>126.99999999999999</ele><time>2026-03-22T08:55:19.995Z</time></trkpt><trkpt lat="43.5802367" lon="13.5326833"><ele>127.0</ele><time>2026-03-22T08:55:20.993Z</time></trkpt><trkpt lat="43.58032" lon="13.532655"><ele>127.0</ele><time>2026-03-22T08:55:21.992Z</time></trkpt><trkpt lat="43.5804067" lon="13.5326417"><ele>126.39999999999999</ele><time>2026-03-22T08:55:22.992Z</time></trkpt><trkpt lat="43.5804867" lon="13.5326367"><ele>125.79999999999998</ele><time>2026-03-22T08:55:23.993Z</time></trkpt><trkpt lat="43.5805667" lon="13.532655"><ele>125.2</ele><time>2026-03-22T08:55:24.993Z</time></trkpt><trkpt lat="43.580655" lon="13.532695"><ele>124.6</ele><time>2026-03-22T08:55:25.992Z</time></trkpt><trkpt lat="43.5807533" lon="13.5327883"><ele>124.0</ele><time>2026-03-22T08:55:26.995Z</time></trkpt><trkpt lat="43.58086" lon="13.5329133"><ele>124.0</ele><time>2026-03-22T08:55:27.992Z</time></trkpt><trkpt lat="43.5809667" lon="13.5330467"><ele>124.0</ele><time>2026-03-22T08:55:28.994Z</time></trkpt><trkpt lat="43.5810767" lon="13.5331833"><ele>124.0</ele><time>2026-03-22T08:55:29.991Z</time></trkpt><trkpt lat="43.5811783" lon="13.53333"><ele>124.0</ele><time>2026-03-22T08:55:30.993Z</time></trkpt><trkpt lat="43.5812833" lon="13.533475"><ele>123.75</ele><time>2026-03-22T08:55:31.993Z</time></trkpt><trkpt lat="43.5813833" lon="13.5336183"><ele>123.5</ele><time>2026-03-22T08:55:32.994Z</time></trkpt><trkpt lat="43.581485" lon="13.53376"><ele>123.25</ele><time>2026-03-22T08:55:33.993Z</time></trkpt><trkpt lat="43.581575" lon="13.5339117"><ele>123.0</ele><time>2026-03-22T08:55:34.995Z</time></trkpt><trkpt lat="43.5816467" lon="13.5340767"><ele>123.0</ele><time>2026-03-22T08:55:35.993Z</time></trkpt><trkpt lat="43.5817133" lon="13.534245"><ele>123.0</ele><time>2026-03-22T08:55:36.993Z</time></trkpt><trkpt lat="43.5817717" lon="13.534405"><ele>123.0</ele><time>2026-03-22T08:55:37.992Z</time></trkpt><trkpt lat="43.581825" lon="13.5345633"><ele>123.0</ele><time>2026-03-22T08:55:38.995Z</time></trkpt><trkpt lat="43.581875" lon="13.5347167"><ele>123.0</ele><time>2026-03-22T08:55:39.989Z</time></trkpt><trkpt lat="43.58192" lon="13.5348583"><ele>123.00000000000001</ele><time>2026-03-22T08:55:40.994Z</time></trkpt><trkpt lat="43.5819633" lon="13.534995"><ele>123.00000000000001</ele><time>2026-03-22T08:55:41.992Z</time></trkpt><trkpt lat="43.5820083" lon="13.5351233"><ele>123.0</ele><time>2026-03-22T08:55:42.994Z</time></trkpt><trkpt lat="43.5820467" lon="13.5352467"><ele>123.0</ele><time>2026-03-22T08:55:43.992Z</time></trkpt><trkpt lat="43.5820867" lon="13.5353817"><ele>121.0</ele><time>2026-03-22T08:55:44.994Z</time></trkpt><trkpt lat="43.5821267" lon="13.5355283"><ele>119.0</ele><time>2026-03-22T08:55:45.994Z</time></trkpt><trkpt lat="43.5821683" lon="13.5356783"><ele>117.0</ele><time>2026-03-22T08:55:46.997Z</time></trkpt><trkpt lat="43.582215" lon="13.5358383"><ele>115.0</ele><time>2026-03-22T08:55:47.991Z</time></trkpt><trkpt lat="43.5822667" lon="13.5360067"><ele>115.0</ele><time>2026-03-22T08:55:48.991Z</time></trkpt><trkpt lat="43.5823183" lon="13.53618"><ele>115.0</ele><time>2026-03-22T08:55:49.99Z</time></trkpt><trkpt lat="43.5823683" lon="13.5363533"><ele>115.0</ele><time>2026-03-22T08:55:50.995Z</time></trkpt><trkpt lat="43.5824233" lon="13.53653"><ele>115.0</ele><time>2026-03-22T08:55:51.99Z</time></trkpt><trkpt lat="43.5824783" lon="13.536705"><ele>116.25</ele><time>2026-03-22T08:55:52.99Z</time></trkpt><trkpt lat="43.58253" lon="13.5368733"><ele>117.5</ele><time>2026-03-22T08:55:53.99Z</time></trkpt><trkpt lat="43.58258" lon="13.5370367"><ele>118.75</ele><time>2026-03-22T08:55:54.993Z</time></trkpt><trkpt lat="43.58263" lon="13.5371933"><ele>120.0</ele><time>2026-03-22T08:55:55.992Z</time></trkpt><trkpt lat="43.5826817" lon="13.537345"><ele>120.0</ele><time>2026-03-22T08:55:56.992Z</time></trkpt><trkpt lat="43.5827433" lon="13.5374967"><ele>120.0</ele><time>2026-03-22T08:55:57.992Z</time></trkpt><trkpt lat="43.5828033" lon="13.5376467"><ele>120.0</ele><time>2026-03-22T08:55:58.99Z</time></trkpt><trkpt lat="43.5828517" lon="13.5377833"><ele>120.0</ele><time>2026-03-22T08:55:59.991Z</time></trkpt><trkpt lat="43.5828983" lon="13.537915"><ele>119.4</ele><time>2026-03-22T08:56:00.991Z</time></trkpt><trkpt lat="43.5829383" lon="13.538045"><ele>118.8</ele><time>2026-03-22T08:56:01.992Z</time></trkpt><trkpt lat="43.58298" lon="13.5381817"><ele>118.19999999999999</ele><time>2026-03-22T08:56:02.995Z</time></trkpt><trkpt lat="43.5830317" lon="13.5383267"><ele>117.6</ele><time>2026-03-22T08:56:03.991Z</time></trkpt><trkpt lat="43.5830767" lon="13.5384667"><ele>117.0</ele><time>2026-03-22T08:56:04.993Z</time></trkpt><trkpt lat="43.5831267" lon="13.5386183"><ele>117.5</ele><time>2026-03-22T08:56:05.994Z</time></trkpt><trkpt lat="43.5831817" lon="13.5387733"><ele>118.0</ele><time>2026-03-22T08:56:06.992Z</time></trkpt><trkpt lat="43.583235" lon="13.5389317"><ele>118.5</ele><time>2026-03-22T08:56:07.991Z</time></trkpt><trkpt lat="43.5832833" lon="13.539095"><ele>119.0</ele><time>2026-03-22T08:56:08.993Z</time></trkpt><trkpt lat="43.5833267" lon="13.5392667"><ele>119.0</ele><time>2026-03-22T08:56:09.991Z</time></trkpt><trkpt lat="43.5833683" lon="13.539455"><ele>119.0</ele><time>2026-03-22T08:56:10.99Z</time></trkpt><trkpt lat="43.5834" lon="13.53965"><ele>119.0</ele><time>2026-03-22T08:56:11.989Z</time></trkpt><trkpt lat="43.583425" lon="13.53985"><ele>119.0</ele><time>2026-03-22T08:56:12.999Z</time></trkpt><trkpt lat="43.58344" lon="13.5400517"><ele>119.66666666666666</ele><time>2026-03-22T08:56:13.992Z</time></trkpt><trkpt lat="43.5834567" lon="13.5402567"><ele>120.33333333333334</ele><time>2026-03-22T08:56:14.993Z</time></trkpt><trkpt lat="43.5834683" lon="13.5404617"><ele>121.0</ele><time>2026-03-22T08:56:15.993Z</time></trkpt><trkpt lat="43.58348" lon="13.54068"><ele>121.0</ele><time>2026-03-22T08:56:16.99Z</time></trkpt><trkpt lat="43.5834967" lon="13.5409017"><ele>121.0</ele><time>2026-03-22T08:56:17.992Z</time></trkpt><trkpt lat="43.58351" lon="13.5411133"><ele>121.0</ele><time>2026-03-22T08:56:18.994Z</time></trkpt><trkpt lat="43.58352" lon="13.5413133"><ele>121.0</ele><time>2026-03-22T08:56:19.992Z</time></trkpt><trkpt lat="43.5835267" lon="13.5415083"><ele>121.0</ele><time>2026-03-22T08:56:20.994Z</time></trkpt><trkpt lat="43.58353" lon="13.5417"><ele>121.0</ele><time>2026-03-22T08:56:21.991Z</time></trkpt><trkpt lat="43.58353" lon="13.5418933"><ele>121.0</ele><time>2026-03-22T08:56:22.992Z</time></trkpt><trkpt lat="43.5835383" lon="13.5420883"><ele>121.25</ele><time>2026-03-22T08:56:23.993Z</time></trkpt><trkpt lat="43.5835617" lon="13.5422833"><ele>121.5</ele><time>2026-03-22T08:56:24.99Z</time></trkpt><trkpt lat="43.5835983" lon="13.54248"><ele>121.75</ele><time>2026-03-22T08:56:25.992Z</time></trkpt><trkpt lat="43.5836333" lon="13.5426767"><ele>122.0</ele><time>2026-03-22T08:56:26.991Z</time></trkpt><trkpt lat="43.5836733" lon="13.5428833"><ele>122.0</ele><time>2026-03-22T08:56:27.994Z</time></trkpt><trkpt lat="43.5837167" lon="13.543095"><ele>122.0</ele><time>2026-03-22T08:56:28.993Z</time></trkpt><trkpt lat="43.5837467" lon="13.5432983"><ele>122.0</ele><time>2026-03-22T08:56:29.99Z</time></trkpt><trkpt lat="43.5837733" lon="13.543505"><ele>122.0</ele><time>2026-03-22T08:56:30.998Z</time></trkpt><trkpt lat="43.5837983" lon="13.5437117"><ele>122.0</ele><time>2026-03-22T08:56:31.993Z</time></trkpt><trkpt lat="43.5838183" lon="13.5439283"><ele>122.0</ele><time>2026-03-22T08:56:32.993Z</time></trkpt><trkpt lat="43.583825" lon="13.5441483"><ele>125.66666666666666</ele><time>2026-03-22T08:56:33.993Z</time></trkpt><trkpt lat="43.5838167" lon="13.5443717"><ele>129.33333333333334</ele><time>2026-03-22T08:56:34.993Z</time></trkpt><trkpt lat="43.5838033" lon="13.544595"><ele>133.0</ele><time>2026-03-22T08:56:35.992Z</time></trkpt><trkpt lat="43.58378" lon="13.5448167"><ele>137.33333333333334</ele><time>2026-03-22T08:56:36.991Z</time></trkpt><trkpt lat="43.5837533" lon="13.5450417"><ele>141.66666666666666</ele><time>2026-03-22T08:56:37.994Z</time></trkpt><trkpt lat="43.5837283" lon="13.5452617"><ele>146.0</ele><time>2026-03-22T08:56:38.991Z</time></trkpt><trkpt lat="43.5837" lon="13.54546"><ele>145.6</ele><time>2026-03-22T08:56:39.997Z</time></trkpt><trkpt lat="43.5836783" lon="13.5456317"><ele>145.2</ele><time>2026-03-22T08:56:40.994Z</time></trkpt><trkpt lat="43.58366" lon="13.545775"><ele>144.8</ele><time>2026-03-22T08:56:41.992Z</time></trkpt><trkpt lat="43.583645" lon="13.5459083"><ele>144.4</ele><time>2026-03-22T08:56:42.994Z</time></trkpt><trkpt lat="43.58364" lon="13.54603"><ele>144.0</ele><time>2026-03-22T08:56:43.993Z</time></trkpt><trkpt lat="43.5836283" lon="13.5461383"><ele>144.33333333333334</ele><time>2026-03-22T08:56:44.993Z</time></trkpt><trkpt lat="43.58361" lon="13.5462433"><ele>144.66666666666666</ele><time>2026-03-22T08:56:45.994Z</time></trkpt><trkpt lat="43.5835933" lon="13.5463517"><ele>145.0</ele><time>2026-03-22T08:56:46.994Z</time></trkpt><trkpt lat="43.5835733" lon="13.5464617"><ele>145.33333333333331</ele><time>2026-03-22T08:56:47.996Z</time></trkpt><trkpt lat="43.5835633" lon="13.5465883"><ele>145.66666666666666</ele><time>2026-03-22T08:56:48.995Z</time></trkpt><trkpt lat="43.583555" lon="13.5467217"><ele>146.0</ele><time>2026-03-22T08:56:49.993Z</time></trkpt><trkpt lat="43.5835633" lon="13.5468517"><ele>146.0</ele><time>2026-03-22T08:56:50.995Z</time></trkpt><trkpt lat="43.5835917" lon="13.546975"><ele>146.0</ele><time>2026-03-22T08:56:51.992Z</time></trkpt><trkpt lat="43.58364" lon="13.5470867"><ele>146.0</ele><time>2026-03-22T08:56:52.991Z</time></trkpt><trkpt lat="43.5837017" lon="13.5471883"><ele>146.0</ele><time>2026-03-22T08:56:53.991Z</time></trkpt><trkpt lat="43.5837767" lon="13.547275"><ele>146.0</ele><time>2026-03-22T08:56:54.993Z</time></trkpt><trkpt lat="43.5838617" lon="13.547355"><ele>148.75</ele><time>2026-03-22T08:56:55.991Z</time></trkpt><trkpt lat="43.5839567" lon="13.5474367"><ele>151.5</ele><time>2026-03-22T08:56:56.991Z</time></trkpt><trkpt lat="43.584055" lon="13.5475283"><ele>154.25</ele><time>2026-03-22T08:56:57.991Z</time></trkpt><trkpt lat="43.584165" lon="13.5476233"><ele>157.0</ele><time>2026-03-22T08:56:58.994Z</time></trkpt><trkpt lat="43.58428" lon="13.54773"><ele>157.0</ele><time>2026-03-22T08:56:59.992Z</time></trkpt><trkpt lat="43.584395" lon="13.54785"><ele>157.0</ele><time>2026-03-22T08:57:00.993Z</time></trkpt><trkpt lat="43.5845167" lon="13.5479617"><ele>157.0</ele><time>2026-03-22T08:57:01.99Z</time></trkpt><trkpt lat="43.5846483" lon="13.5480583"><ele>157.0</ele><time>2026-03-22T08:57:02.993Z</time></trkpt><trkpt lat="43.58478" lon="13.5481517"><ele>159.66666666666669</ele><time>2026-03-22T08:57:03.99Z</time></trkpt><trkpt lat="43.5849083" lon="13.5482617"><ele>162.33333333333334</ele><time>2026-03-22T08:57:04.991Z</time></trkpt><trkpt lat="43.5850367" lon="13.5483833"><ele>165.0</ele><time>2026-03-22T08:57:05.993Z</time></trkpt><trkpt lat="43.5851667" lon="13.548515"><ele>165.0</ele><time>2026-03-22T08:57:06.989Z</time></trkpt><trkpt lat="43.5853083" lon="13.5486617"><ele>165.0</ele><time>2026-03-22T08:57:07.992Z</time></trkpt><trkpt lat="43.5854483" lon="13.5488267"><ele>165.0</ele><time>2026-03-22T08:57:08.993Z</time></trkpt><trkpt lat="43.58558" lon="13.5489967"><ele>169.0</ele><time>2026-03-22T08:57:09.993Z</time></trkpt><trkpt lat="43.58569" lon="13.5491517"><ele>173.0</ele><time>2026-03-22T08:57:10.993Z</time></trkpt><trkpt lat="43.5857817" lon="13.5492817"><ele>177.0</ele><time>2026-03-22T08:57:11.992Z</time></trkpt><trkpt lat="43.5858567" lon="13.549415"><ele>181.0</ele><time>2026-03-22T08:57:12.993Z</time></trkpt><trkpt lat="43.585935" lon="13.5495617"><ele>181.5</ele><time>2026-03-22T08:57:13.992Z</time></trkpt><trkpt lat="43.58602" lon="13.5497133"><ele>182.0</ele><time>2026-03-22T08:57:14.994Z</time></trkpt><trkpt lat="43.58612" lon="13.5498717"><ele>182.5</ele><time>2026-03-22T08:57:16Z</time></trkpt><trkpt lat="43.5862183" lon="13.5500283"><ele>183.0</ele><time>2026-03-22T08:57:16.991Z</time></trkpt><trkpt lat="43.5863233" lon="13.55019"><ele>185.66666666666666</ele><time>2026-03-22T08:57:17.99Z</time></trkpt><trkpt lat="43.5864317" lon="13.5503567"><ele>188.33333333333331</ele><time>2026-03-22T08:57:18.986Z</time></trkpt><trkpt lat="43.58654" lon="13.5505283"><ele>191.0</ele><time>2026-03-22T08:57:19.986Z</time></trkpt><trkpt lat="43.5866483" lon="13.5507017"><ele>193.33333333333331</ele><time>2026-03-22T08:57:20.99Z</time></trkpt><trkpt lat="43.586755" lon="13.5508767"><ele>195.66666666666666</ele><time>2026-03-22T08:57:21.99Z</time></trkpt><trkpt lat="43.5868567" lon="13.5510517"><ele>198.0</ele><time>2026-03-22T08:57:22.994Z</time></trkpt><trkpt lat="43.58696" lon="13.551225"><ele>203.66666666666669</ele><time>2026-03-22T08:57:23.994Z</time></trkpt><trkpt lat="43.5870633" lon="13.5513967"><ele>209.33333333333334</ele><time>2026-03-22T08:57:24.993Z</time></trkpt><trkpt lat="43.5871617" lon="13.5515683"><ele>215.0</ele><time>2026-03-22T08:57:25.99Z</time></trkpt><trkpt lat="43.587265" lon="13.5517383"><ele>215.0</ele><time>2026-03-22T08:57:26.994Z</time></trkpt><trkpt lat="43.5873667" lon="13.5519"><ele>215.0</ele><time>2026-03-22T08:57:27.99Z</time></trkpt><trkpt lat="43.587455" lon="13.5520467"><ele>215.0</ele><time>2026-03-22T08:57:28.999Z</time></trkpt><trkpt lat="43.58753" lon="13.5521783"><ele>215.0</ele><time>2026-03-22T08:57:30.003Z</time></trkpt><trkpt lat="43.58759" lon="13.5522967"><ele>215.50000000000003</ele><time>2026-03-22T08:57:30.989Z</time></trkpt><trkpt lat="43.5876367" lon="13.5524017"><ele>216.0</ele><time>2026-03-22T08:57:31.991Z</time></trkpt><trkpt lat="43.587675" lon="13.5524967"><ele>216.5</ele><time>2026-03-22T08:57:32.998Z</time></trkpt><trkpt lat="43.587705" lon="13.5525783"><ele>217.0</ele><time>2026-03-22T08:57:33.992Z</time></trkpt><trkpt lat="43.58775" lon="13.5527317"><ele>217.50000000000003</ele><time>2026-03-22T08:57:35.99Z</time></trkpt><trkpt lat="43.587765" lon="13.55283"><ele>218.0</ele><time>2026-03-22T08:57:36.991Z</time></trkpt><trkpt lat="43.5877617" lon="13.5529383"><ele>218.0</ele><time>2026-03-22T08:57:37.991Z</time></trkpt><trkpt lat="43.587755" lon="13.5530783"><ele>218.0</ele><time>2026-03-22T08:57:38.993Z</time></trkpt><trkpt lat="43.5877567" lon="13.5532367"><ele>218.0</ele><time>2026-03-22T08:57:39.992Z</time></trkpt><trkpt lat="43.58778" lon="13.5533933"><ele>218.0</ele><time>2026-03-22T08:57:40.996Z</time></trkpt><trkpt lat="43.587825" lon="13.55355"><ele>217.0</ele><time>2026-03-22T08:57:41.992Z</time></trkpt><trkpt lat="43.5878767" lon="13.5537017"><ele>216.0</ele><time>2026-03-22T08:57:42.994Z</time></trkpt><trkpt lat="43.58793" lon="13.5538433"><ele>215.0</ele><time>2026-03-22T08:57:43.993Z</time></trkpt><trkpt lat="43.5879817" lon="13.553975"><ele>214.0</ele><time>2026-03-22T08:57:44.995Z</time></trkpt><trkpt lat="43.5880367" lon="13.5540983"><ele>213.99999999999997</ele><time>2026-03-22T08:57:45.993Z</time></trkpt><trkpt lat="43.5880967" lon="13.554215"><ele>214.0</ele><time>2026-03-22T08:57:46.992Z</time></trkpt><trkpt lat="43.5881583" lon="13.5543183"><ele>214.0</ele><time>2026-03-22T08:57:47.991Z</time></trkpt><trkpt lat="43.58822" lon="13.5544033"><ele>214.0</ele><time>2026-03-22T08:57:48.994Z</time></trkpt><trkpt lat="43.5882817" lon="13.5544683"><ele>213.99999999999997</ele><time>2026-03-22T08:57:49.994Z</time></trkpt><trkpt lat="43.5883417" lon="13.554515"><ele>214.0</ele><time>2026-03-22T08:57:50.991Z</time></trkpt><trkpt lat="43.58841" lon="13.5545817"><ele>213.6</ele><time>2026-03-22T08:57:52.991Z</time></trkpt><trkpt lat="43.58845" lon="13.5546717"><ele>213.2</ele><time>2026-03-22T08:57:54.987Z</time></trkpt><trkpt lat="43.5884567" lon="13.55486"><ele>212.79999999999998</ele><time>2026-03-22T08:57:56.988Z</time></trkpt><trkpt lat="43.5884533" lon="13.5550033"><ele>212.39999999999998</ele><time>2026-03-22T08:57:57.989Z</time></trkpt><trkpt lat="43.5884417" lon="13.55517"><ele>212.0</ele><time>2026-03-22T08:57:58.992Z</time></trkpt><trkpt lat="43.5884283" lon="13.5553383"><ele>211.5</ele><time>2026-03-22T08:57:59.992Z</time></trkpt><trkpt lat="43.5884083" lon="13.555515"><ele>211.0</ele><time>2026-03-22T08:58:00.994Z</time></trkpt><trkpt lat="43.5883833" lon="13.555695"><ele>210.5</ele><time>2026-03-22T08:58:01.99Z</time></trkpt><trkpt lat="43.5883567" lon="13.5558633"><ele>210.0</ele><time>2026-03-22T08:58:02.994Z</time></trkpt><trkpt lat="43.58833" lon="13.5560333"><ele>210.0</ele><time>2026-03-22T08:58:03.993Z</time></trkpt><trkpt lat="43.588305" lon="13.55621"><ele>210.0</ele><time>2026-03-22T08:58:04.991Z</time></trkpt><trkpt lat="43.5882767" lon="13.556385"><ele>210.0</ele><time>2026-03-22T08:58:05.992Z</time></trkpt><trkpt lat="43.588245" lon="13.5565633"><ele>210.0</ele><time>2026-03-22T08:58:06.996Z</time></trkpt><trkpt lat="43.5882167" lon="13.5567333"><ele>210.0</ele><time>2026-03-22T08:58:07.992Z</time></trkpt><trkpt lat="43.5881883" lon="13.5569033"><ele>210.0</ele><time>2026-03-22T08:58:08.994Z</time></trkpt><trkpt lat="43.58816" lon="13.557075"><ele>210.0</ele><time>2026-03-22T08:58:09.991Z</time></trkpt><trkpt lat="43.5881283" lon="13.557265"><ele>210.0</ele><time>2026-03-22T08:58:10.994Z</time></trkpt><trkpt lat="43.588095" lon="13.5574567"><ele>210.5</ele><time>2026-03-22T08:58:11.991Z</time></trkpt><trkpt lat="43.5880617" lon="13.55765"><ele>211.0</ele><time>2026-03-22T08:58:12.994Z</time></trkpt><trkpt lat="43.5880233" lon="13.5578483"><ele>211.5</ele><time>2026-03-22T08:58:13.995Z</time></trkpt><trkpt lat="43.587985" lon="13.5580567"><ele>212.0</ele><time>2026-03-22T08:58:14.993Z</time></trkpt><trkpt lat="43.587945" lon="13.5582717"><ele>212.0</ele><time>2026-03-22T08:58:15.993Z</time></trkpt><trkpt lat="43.58791" lon="13.558485"><ele>212.0</ele><time>2026-03-22T08:58:16.992Z</time></trkpt><trkpt lat="43.58787" lon="13.5587"><ele>212.0</ele><time>2026-03-22T08:58:17.993Z</time></trkpt><trkpt lat="43.58783" lon="13.5589117"><ele>211.33333333333334</ele><time>2026-03-22T08:58:18.994Z</time></trkpt><trkpt lat="43.5877733" lon="13.5591333"><ele>210.66666666666669</ele><time>2026-03-22T08:58:19.992Z</time></trkpt><trkpt lat="43.5877067" lon="13.5593517"><ele>210.0</ele><time>2026-03-22T08:58:20.995Z</time></trkpt><trkpt lat="43.5876117" lon="13.5595417"><ele>210.0</ele><time>2026-03-22T08:58:21.992Z</time></trkpt><trkpt lat="43.5874967" lon="13.5597133"><ele>210.0</ele><time>2026-03-22T08:58:22.991Z</time></trkpt><trkpt lat="43.5873617" lon="13.5598683"><ele>210.0</ele><time>2026-03-22T08:58:23.994Z</time></trkpt><trkpt lat="43.587225" lon="13.5600217"><ele>210.0</ele><time>2026-03-22T08:58:24.996Z</time></trkpt><trkpt lat="43.5870783" lon="13.560155"><ele>210.0</ele><time>2026-03-22T08:58:25.995Z</time></trkpt><trkpt lat="43.5869267" lon="13.5602817"><ele>210.0</ele><time>2026-03-22T08:58:26.998Z</time></trkpt><trkpt lat="43.5867667" lon="13.5603933"><ele>209.66666666666669</ele><time>2026-03-22T08:58:27.993Z</time></trkpt><trkpt lat="43.5865967" lon="13.5604967"><ele>209.33333333333334</ele><time>2026-03-22T08:58:28.993Z</time></trkpt><trkpt lat="43.5864217" lon="13.56059"><ele>209.0</ele><time>2026-03-22T08:58:29.993Z</time></trkpt><trkpt lat="43.5862467" lon="13.5606833"><ele>205.66666666666669</ele><time>2026-03-22T08:58:30.995Z</time></trkpt><trkpt lat="43.58606" lon="13.56076"><ele>202.33333333333331</ele><time>2026-03-22T08:58:31.996Z</time></trkpt><trkpt lat="43.5858783" lon="13.5608283"><ele>199.0</ele><time>2026-03-22T08:58:32.994Z</time></trkpt><trkpt lat="43.5857083" lon="13.5608917"><ele>199.0</ele><time>2026-03-22T08:58:33.993Z</time></trkpt><trkpt lat="43.585545" lon="13.5609417"><ele>199.0</ele><time>2026-03-22T08:58:34.993Z</time></trkpt><trkpt lat="43.5853783" lon="13.5609733"><ele>199.0</ele><time>2026-03-22T08:58:35.992Z</time></trkpt><trkpt lat="43.5852033" lon="13.5609683"><ele>198.33333333333331</ele><time>2026-03-22T08:58:36.992Z</time></trkpt><trkpt lat="43.58503" lon="13.5609183"><ele>197.66666666666669</ele><time>2026-03-22T08:58:37.992Z</time></trkpt><trkpt lat="43.5848633" lon="13.560825"><ele>197.0</ele><time>2026-03-22T08:58:39Z</time></trkpt><trkpt lat="43.5847033" lon="13.560695"><ele>197.0</ele><time>2026-03-22T08:58:39.993Z</time></trkpt><trkpt lat="43.5845433" lon="13.5605533"><ele>197.0</ele><time>2026-03-22T08:58:40.993Z</time></trkpt><trkpt lat="43.584385" lon="13.56041"><ele>197.0</ele><time>2026-03-22T08:58:41.993Z</time></trkpt><trkpt lat="43.5842267" lon="13.56028"><ele>195.33333333333334</ele><time>2026-03-22T08:58:42.994Z</time></trkpt><trkpt lat="43.5840633" lon="13.5601783"><ele>193.66666666666669</ele><time>2026-03-22T08:58:43.995Z</time></trkpt><trkpt lat="43.583895" lon="13.5601083"><ele>192.0</ele><time>2026-03-22T08:58:44.992Z</time></trkpt><trkpt lat="43.5837217" lon="13.56007"><ele>191.66666666666666</ele><time>2026-03-22T08:58:45.993Z</time></trkpt><trkpt lat="43.5835433" lon="13.56003"><ele>191.33333333333331</ele><time>2026-03-22T08:58:46.994Z</time></trkpt><trkpt lat="43.5833683" lon="13.559995"><ele>191.0</ele><time>2026-03-22T08:58:47.994Z</time></trkpt><trkpt lat="43.5831983" lon="13.5599533"><ele>191.0</ele><time>2026-03-22T08:58:48.994Z</time></trkpt><trkpt lat="43.5830267" lon="13.5599133"><ele>191.0</ele><time>2026-03-22T08:58:49.993Z</time></trkpt><trkpt lat="43.5828617" lon="13.5598683"><ele>191.0</ele><time>2026-03-22T08:58:50.991Z</time></trkpt><trkpt lat="43.58271" lon="13.559815"><ele>190.5</ele><time>2026-03-22T08:58:51.994Z</time></trkpt><trkpt lat="43.582565" lon="13.5597533"><ele>190.0</ele><time>2026-03-22T08:58:52.991Z</time></trkpt><trkpt lat="43.582425" lon="13.55968"><ele>189.5</ele><time>2026-03-22T08:58:53.992Z</time></trkpt><trkpt lat="43.5822933" lon="13.5596017"><ele>189.0</ele><time>2026-03-22T08:58:54.993Z</time></trkpt><trkpt lat="43.5821583" lon="13.559525"><ele>187.25</ele><time>2026-03-22T08:58:55.992Z</time></trkpt><trkpt lat="43.58203" lon="13.5594517"><ele>185.5</ele><time>2026-03-22T08:58:56.994Z</time></trkpt><trkpt lat="43.5818983" lon="13.5593867"><ele>183.75</ele><time>2026-03-22T08:58:57.994Z</time></trkpt><trkpt lat="43.5817733" lon="13.5593267"><ele>182.0</ele><time>2026-03-22T08:58:58.991Z</time></trkpt><trkpt lat="43.5816533" lon="13.559295"><ele>182.0</ele><time>2026-03-22T08:58:59.994Z</time></trkpt><trkpt lat="43.5815333" lon="13.559315"><ele>182.0</ele><time>2026-03-22T08:59:00.993Z</time></trkpt><trkpt lat="43.58142" lon="13.559385"><ele>182.0</ele><time>2026-03-22T08:59:01.99Z</time></trkpt><trkpt lat="43.5813233" lon="13.5595033"><ele>182.0</ele><time>2026-03-22T08:59:02.991Z</time></trkpt><trkpt lat="43.5812567" lon="13.5596667"><ele>182.33333333333331</ele><time>2026-03-22T08:59:03.991Z</time></trkpt><trkpt lat="43.5812333" lon="13.55986"><ele>182.66666666666666</ele><time>2026-03-22T08:59:04.993Z</time></trkpt><trkpt lat="43.5812667" lon="13.5600633"><ele>183.0</ele><time>2026-03-22T08:59:05.99Z</time></trkpt><trkpt lat="43.5813383" lon="13.5602567"><ele>180.66666666666666</ele><time>2026-03-22T08:59:06.992Z</time></trkpt><trkpt lat="43.5814367" lon="13.56044"><ele>178.33333333333331</ele><time>2026-03-22T08:59:07.994Z</time></trkpt><trkpt lat="43.5815317" lon="13.5606233"><ele>176.0</ele><time>2026-03-22T08:59:08.995Z</time></trkpt><trkpt lat="43.581625" lon="13.5608117"><ele>176.0</ele><time>2026-03-22T08:59:09.991Z</time></trkpt><trkpt lat="43.5817183" lon="13.5610017"><ele>176.0</ele><time>2026-03-22T08:59:10.992Z</time></trkpt><trkpt lat="43.581805" lon="13.5612"><ele>176.0</ele><time>2026-03-22T08:59:11.993Z</time></trkpt><trkpt lat="43.5818633" lon="13.561415"><ele>173.66666666666666</ele><time>2026-03-22T08:59:12.993Z</time></trkpt><trkpt lat="43.5818933" lon="13.56164"><ele>171.33333333333334</ele><time>2026-03-22T08:59:13.991Z</time></trkpt><trkpt lat="43.5818867" lon="13.5618583"><ele>169.0</ele><time>2026-03-22T08:59:14.994Z</time></trkpt><trkpt lat="43.5818333" lon="13.5620683"><ele>169.0</ele><time>2026-03-22T08:59:15.992Z</time></trkpt><trkpt lat="43.5817367" lon="13.562255"><ele>169.0</ele><time>2026-03-22T08:59:16.989Z</time></trkpt><trkpt lat="43.5816117" lon="13.56241"><ele>169.0</ele><time>2026-03-22T08:59:17.993Z</time></trkpt><trkpt lat="43.5814683" lon="13.562545"><ele>169.0</ele><time>2026-03-22T08:59:18.992Z</time></trkpt><trkpt lat="43.5813133" lon="13.562665"><ele>169.0</ele><time>2026-03-22T08:59:19.994Z</time></trkpt><trkpt lat="43.5811467" lon="13.56277"><ele>169.0</ele><time>2026-03-22T08:59:20.993Z</time></trkpt><trkpt lat="43.58097" lon="13.5628383"><ele>169.33333333333334</ele><time>2026-03-22T08:59:21.998Z</time></trkpt><trkpt lat="43.5807867" lon="13.56287"><ele>169.66666666666666</ele><time>2026-03-22T08:59:22.993Z</time></trkpt><trkpt lat="43.5805983" lon="13.5628917"><ele>170.0</ele><time>2026-03-22T08:59:23.993Z</time></trkpt><trkpt lat="43.580405" lon="13.5629283"><ele>168.0</ele><time>2026-03-22T08:59:24.994Z</time></trkpt><trkpt lat="43.5802017" lon="13.56299"><ele>166.0</ele><time>2026-03-22T08:59:25.992Z</time></trkpt><trkpt lat="43.5799983" lon="13.563085"><ele>164.0</ele><time>2026-03-22T08:59:26.994Z</time></trkpt><trkpt lat="43.57979" lon="13.5631917"><ele>164.0</ele><time>2026-03-22T08:59:27.992Z</time></trkpt><trkpt lat="43.5795767" lon="13.5633"><ele>164.0</ele><time>2026-03-22T08:59:28.993Z</time></trkpt><trkpt lat="43.5793617" lon="13.5634033"><ele>158.5</ele><time>2026-03-22T08:59:29.995Z</time></trkpt><trkpt lat="43.5791367" lon="13.5635"><ele>153.0</ele><time>2026-03-22T08:59:30.992Z</time></trkpt><trkpt lat="43.5789167" lon="13.5636083"><ele>151.0</ele><time>2026-03-22T08:59:31.993Z</time></trkpt><trkpt lat="43.5786967" lon="13.563715"><ele>149.0</ele><time>2026-03-22T08:59:32.992Z</time></trkpt><trkpt lat="43.5784767" lon="13.5638217"><ele>149.0</ele><time>2026-03-22T08:59:33.994Z</time></trkpt><trkpt lat="43.57826" lon="13.5639167"><ele>149.0</ele><time>2026-03-22T08:59:34.994Z</time></trkpt><trkpt lat="43.578045" lon="13.5640117"><ele>145.66666666666666</ele><time>2026-03-22T08:59:35.997Z</time></trkpt><trkpt lat="43.5778333" lon="13.5641033"><ele>142.33333333333334</ele><time>2026-03-22T08:59:36.996Z</time></trkpt><trkpt lat="43.5776267" lon="13.56418"><ele>139.0</ele><time>2026-03-22T08:59:37.993Z</time></trkpt><trkpt lat="43.57741" lon="13.56423"><ele>139.0</ele><time>2026-03-22T08:59:38.996Z</time></trkpt><trkpt lat="43.5771917" lon="13.56425"><ele>139.0</ele><time>2026-03-22T08:59:39.99Z</time></trkpt><trkpt lat="43.57697" lon="13.5642367"><ele>139.0</ele><time>2026-03-22T08:59:40.992Z</time></trkpt><trkpt lat="43.5767533" lon="13.564195"><ele>138.33333333333334</ele><time>2026-03-22T08:59:41.993Z</time></trkpt><trkpt lat="43.5765383" lon="13.56413"><ele>137.66666666666666</ele><time>2026-03-22T08:59:42.996Z</time></trkpt><trkpt lat="43.5763333" lon="13.5640633"><ele>137.0</ele><time>2026-03-22T08:59:43.993Z</time></trkpt><trkpt lat="43.5761217" lon="13.5639967"><ele>137.0</ele><time>2026-03-22T08:59:44.993Z</time></trkpt><trkpt lat="43.575905" lon="13.5639283"><ele>137.0</ele><time>2026-03-22T08:59:45.994Z</time></trkpt><trkpt lat="43.5756883" lon="13.56386"><ele>137.0</ele><time>2026-03-22T08:59:46.994Z</time></trkpt><trkpt lat="43.575475" lon="13.56379"><ele>137.33333333333331</ele><time>2026-03-22T08:59:47.99Z</time></trkpt><trkpt lat="43.5752683" lon="13.5637233"><ele>137.66666666666666</ele><time>2026-03-22T08:59:48.993Z</time></trkpt><trkpt lat="43.57507" lon="13.56368"><ele>138.0</ele><time>2026-03-22T08:59:49.995Z</time></trkpt><trkpt lat="43.57487" lon="13.5636917"><ele>138.0</ele><time>2026-03-22T08:59:50.992Z</time></trkpt><trkpt lat="43.5746767" lon="13.56376"><ele>138.0</ele><time>2026-03-22T08:59:51.993Z</time></trkpt><trkpt lat="43.5744933" lon="13.5639"><ele>138.0</ele><time>2026-03-22T08:59:52.992Z</time></trkpt><trkpt lat="43.5743233" lon="13.5640867"><ele>136.33333333333334</ele><time>2026-03-22T08:59:53.994Z</time></trkpt><trkpt lat="43.5741667" lon="13.5642817"><ele>134.66666666666669</ele><time>2026-03-22T08:59:54.991Z</time></trkpt><trkpt lat="43.5740183" lon="13.5644767"><ele>133.0</ele><time>2026-03-22T08:59:55.989Z</time></trkpt><trkpt lat="43.5738683" lon="13.564665"><ele>133.0</ele><time>2026-03-22T08:59:56.991Z</time></trkpt><trkpt lat="43.5737083" lon="13.56483"><ele>133.0</ele><time>2026-03-22T08:59:57.99Z</time></trkpt><trkpt lat="43.573535" lon="13.56494"><ele>133.0</ele><time>2026-03-22T08:59:58.993Z</time></trkpt><trkpt lat="43.5733433" lon="13.5649883"><ele>132.33333333333334</ele><time>2026-03-22T08:59:59.994Z</time></trkpt><trkpt lat="43.57315" lon="13.5649783"><ele>131.66666666666666</ele><time>2026-03-22T09:00:00.991Z</time></trkpt><trkpt lat="43.5729533" lon="13.5649183"><ele>131.0</ele><time>2026-03-22T09:00:01.99Z</time></trkpt><trkpt lat="43.57277" lon="13.5648"><ele>131.0</ele><time>2026-03-22T09:00:02.99Z</time></trkpt><trkpt lat="43.5726067" lon="13.56463"><ele>131.0</ele><time>2026-03-22T09:00:03.994Z</time></trkpt><trkpt lat="43.5724567" lon="13.5644467"><ele>131.0</ele><time>2026-03-22T09:00:04.99Z</time></trkpt><trkpt lat="43.5723183" lon="13.5642783"><ele>132.33333333333331</ele><time>2026-03-22T09:00:05.987Z</time></trkpt><trkpt lat="43.5721883" lon="13.5641167"><ele>133.66666666666666</ele><time>2026-03-22T09:00:06.986Z</time></trkpt><trkpt lat="43.5720633" lon="13.5639617"><ele>135.0</ele><time>2026-03-22T09:00:07.995Z</time></trkpt><trkpt lat="43.5719367" lon="13.5638217"><ele>135.0</ele><time>2026-03-22T09:00:08.992Z</time></trkpt><trkpt lat="43.57179" lon="13.56372"><ele>135.0</ele><time>2026-03-22T09:00:09.993Z</time></trkpt><trkpt lat="43.5716333" lon="13.563665"><ele>135.0</ele><time>2026-03-22T09:00:10.994Z</time></trkpt><trkpt lat="43.5714767" lon="13.5636533"><ele>133.33333333333334</ele><time>2026-03-22T09:00:11.994Z</time></trkpt><trkpt lat="43.5713233" lon="13.5636833"><ele>131.66666666666669</ele><time>2026-03-22T09:00:12.991Z</time></trkpt><trkpt lat="43.571175" lon="13.5637617"><ele>130.0</ele><time>2026-03-22T09:00:13.993Z</time></trkpt><trkpt lat="43.5710333" lon="13.563885"><ele>130.0</ele><time>2026-03-22T09:00:14.994Z</time></trkpt><trkpt lat="43.5708883" lon="13.5640233"><ele>130.0</ele><time>2026-03-22T09:00:15.994Z</time></trkpt><trkpt lat="43.570745" lon="13.5641717"><ele>130.0</ele><time>2026-03-22T09:00:16.991Z</time></trkpt><trkpt lat="43.5705883" lon="13.5643183"><ele>130.0</ele><time>2026-03-22T09:00:17.994Z</time></trkpt><trkpt lat="43.57043" lon="13.5644767"><ele>130.0</ele><time>2026-03-22T09:00:18.992Z</time></trkpt><trkpt lat="43.57028" lon="13.5646283"><ele>130.0</ele><time>2026-03-22T09:00:19.988Z</time></trkpt><trkpt lat="43.5701267" lon="13.5647867"><ele>129.66666666666669</ele><time>2026-03-22T09:00:20.986Z</time></trkpt><trkpt lat="43.569985" lon="13.56493"><ele>129.33333333333334</ele><time>2026-03-22T09:00:21.992Z</time></trkpt><trkpt lat="43.5698567" lon="13.5650583"><ele>129.0</ele><time>2026-03-22T09:00:22.995Z</time></trkpt><trkpt lat="43.5697383" lon="13.5651717"><ele>129.0</ele><time>2026-03-22T09:00:23.992Z</time></trkpt><trkpt lat="43.569635" lon="13.56528"><ele>129.0</ele><time>2026-03-22T09:00:24.991Z</time></trkpt><trkpt lat="43.5695367" lon="13.56538"><ele>129.0</ele><time>2026-03-22T09:00:25.99Z</time></trkpt><trkpt lat="43.569445" lon="13.5654733"><ele>129.0</ele><time>2026-03-22T09:00:26.996Z</time></trkpt><trkpt lat="43.56936" lon="13.5655633"><ele>130.4</ele><time>2026-03-22T09:00:27.991Z</time></trkpt><trkpt lat="43.5692783" lon="13.5656483"><ele>131.8</ele><time>2026-03-22T09:00:28.993Z</time></trkpt><trkpt lat="43.5692033" lon="13.5657267"><ele>133.2</ele><time>2026-03-22T09:00:29.991Z</time></trkpt><trkpt lat="43.5691283" lon="13.5657983"><ele>134.6</ele><time>2026-03-22T09:00:30.992Z</time></trkpt><trkpt lat="43.5690483" lon="13.5658733"><ele>136.0</ele><time>2026-03-22T09:00:31.994Z</time></trkpt><trkpt lat="43.5689583" lon="13.5659533"><ele>136.0</ele><time>2026-03-22T09:00:32.991Z</time></trkpt><trkpt lat="43.5688667" lon="13.5660483"><ele>136.0</ele><time>2026-03-22T09:00:33.991Z</time></trkpt><trkpt lat="43.568765" lon="13.566145"><ele>136.0</ele><time>2026-03-22T09:00:34.99Z</time></trkpt><trkpt lat="43.56866" lon="13.56625"><ele>136.0</ele><time>2026-03-22T09:00:35.991Z</time></trkpt><trkpt lat="43.5685483" lon="13.566365"><ele>135.25</ele><time>2026-03-22T09:00:36.995Z</time></trkpt><trkpt lat="43.56845" lon="13.566505"><ele>134.5</ele><time>2026-03-22T09:00:37.994Z</time></trkpt><trkpt lat="43.5683667" lon="13.5666583"><ele>133.75</ele><time>2026-03-22T09:00:38.993Z</time></trkpt><trkpt lat="43.5683033" lon="13.5668267"><ele>133.0</ele><time>2026-03-22T09:00:39.994Z</time></trkpt><trkpt lat="43.5682517" lon="13.5670033"><ele>133.75</ele><time>2026-03-22T09:00:40.992Z</time></trkpt><trkpt lat="43.5682233" lon="13.5671917"><ele>134.5</ele><time>2026-03-22T09:00:41.991Z</time></trkpt><trkpt lat="43.568225" lon="13.5673867"><ele>135.25</ele><time>2026-03-22T09:00:42.991Z</time></trkpt><trkpt lat="43.568255" lon="13.5675833"><ele>136.0</ele><time>2026-03-22T09:00:43.99Z</time></trkpt><trkpt lat="43.5683033" lon="13.5677817"><ele>135.66666666666669</ele><time>2026-03-22T09:00:44.992Z</time></trkpt><trkpt lat="43.5683583" lon="13.5679767"><ele>135.33333333333334</ele><time>2026-03-22T09:00:45.99Z</time></trkpt><trkpt lat="43.56841" lon="13.5681783"><ele>135.0</ele><time>2026-03-22T09:00:46.995Z</time></trkpt><trkpt lat="43.5684617" lon="13.5683783"><ele>135.0</ele><time>2026-03-22T09:00:47.992Z</time></trkpt><trkpt lat="43.5685067" lon="13.5685817"><ele>135.0</ele><time>2026-03-22T09:00:48.992Z</time></trkpt><trkpt lat="43.56855" lon="13.5687967"><ele>135.0</ele><time>2026-03-22T09:00:49.993Z</time></trkpt><trkpt lat="43.5685767" lon="13.5690283"><ele>135.0</ele><time>2026-03-22T09:00:50.995Z</time></trkpt><trkpt lat="43.5685783" lon="13.5692933"><ele>135.0</ele><time>2026-03-22T09:00:51.992Z</time></trkpt><trkpt lat="43.5685533" lon="13.569575"><ele>135.0</ele><time>2026-03-22T09:00:52.992Z</time></trkpt><trkpt lat="43.5684983" lon="13.5698533"><ele>137.33333333333334</ele><time>2026-03-22T09:00:53.994Z</time></trkpt><trkpt lat="43.5684267" lon="13.5701367"><ele>139.66666666666669</ele><time>2026-03-22T09:00:54.992Z</time></trkpt><trkpt lat="43.56836" lon="13.5704117"><ele>142.0</ele><time>2026-03-22T09:00:55.992Z</time></trkpt><trkpt lat="43.5683" lon="13.5706783"><ele>142.66666666666669</ele><time>2026-03-22T09:00:56.991Z</time></trkpt><trkpt lat="43.5682333" lon="13.5709417"><ele>143.33333333333334</ele><time>2026-03-22T09:00:57.993Z</time></trkpt><trkpt lat="43.5681533" lon="13.5711967"><ele>144.0</ele><time>2026-03-22T09:00:58.996Z</time></trkpt><trkpt lat="43.56805" lon="13.5714317"><ele>144.0</ele><time>2026-03-22T09:00:59.994Z</time></trkpt><trkpt lat="43.567915" lon="13.57163"><ele>144.0</ele><time>2026-03-22T09:01:00.99Z</time></trkpt><trkpt lat="43.5677517" lon="13.5718"><ele>144.0</ele><time>2026-03-22T09:01:01.991Z</time></trkpt><trkpt lat="43.56757" lon="13.5719583"><ele>139.0</ele><time>2026-03-22T09:01:02.993Z</time></trkpt><trkpt lat="43.56739" lon="13.5721133"><ele>134.0</ele><time>2026-03-22T09:01:03.994Z</time></trkpt><trkpt lat="43.5672117" lon="13.5722733"><ele>129.0</ele><time>2026-03-22T09:01:04.986Z</time></trkpt><trkpt lat="43.567045" lon="13.5724183"><ele>132.66666666666666</ele><time>2026-03-22T09:01:05.99Z</time></trkpt><trkpt lat="43.5668883" lon="13.5725567"><ele>136.33333333333331</ele><time>2026-03-22T09:01:06.991Z</time></trkpt><trkpt lat="43.5667367" lon="13.5726833"><ele>140.0</ele><time>2026-03-22T09:01:07.986Z</time></trkpt><trkpt lat="43.5665833" lon="13.5728267"><ele>137.0</ele><time>2026-03-22T09:01:08.987Z</time></trkpt><trkpt lat="43.5664417" lon="13.572995"><ele>134.0</ele><time>2026-03-22T09:01:09.99Z</time></trkpt><trkpt lat="43.5663133" lon="13.5732"><ele>131.0</ele><time>2026-03-22T09:01:10.988Z</time></trkpt><trkpt lat="43.5662083" lon="13.57344"><ele>133.0</ele><time>2026-03-22T09:01:11.993Z</time></trkpt><trkpt lat="43.5661183" lon="13.57369"><ele>135.0</ele><time>2026-03-22T09:01:12.991Z</time></trkpt><trkpt lat="43.5660367" lon="13.5739517"><ele>137.0</ele><time>2026-03-22T09:01:13.993Z</time></trkpt><trkpt lat="43.5659567" lon="13.5742133"><ele>137.0</ele><time>2026-03-22T09:01:14.992Z</time></trkpt><trkpt lat="43.5658783" lon="13.574475"><ele>137.0</ele><time>2026-03-22T09:01:15.991Z</time></trkpt><trkpt lat="43.5657917" lon="13.574735"><ele>137.0</ele><time>2026-03-22T09:01:16.987Z</time></trkpt><trkpt lat="43.5657" lon="13.5749867"><ele>135.0</ele><time>2026-03-22T09:01:17.988Z</time></trkpt><trkpt lat="43.5656017" lon="13.5752183"><ele>133.0</ele><time>2026-03-22T09:01:18.992Z</time></trkpt><trkpt lat="43.5654983" lon="13.5754267"><ele>131.0</ele><time>2026-03-22T09:01:19.992Z</time></trkpt><trkpt lat="43.5653833" lon="13.5756183"><ele>133.33333333333331</ele><time>2026-03-22T09:01:20.992Z</time></trkpt><trkpt lat="43.5652583" lon="13.5757967"><ele>135.66666666666666</ele><time>2026-03-22T09:01:21.992Z</time></trkpt><trkpt lat="43.5651267" lon="13.5759567"><ele>138.0</ele><time>2026-03-22T09:01:22.99Z</time></trkpt><trkpt lat="43.565" lon="13.5761017"><ele>134.75</ele><time>2026-03-22T09:01:23.99Z</time></trkpt><trkpt lat="43.56488" lon="13.576235"><ele>131.5</ele><time>2026-03-22T09:01:24.998Z</time></trkpt><trkpt lat="43.5647633" lon="13.576365"><ele>128.25</ele><time>2026-03-22T09:01:25.993Z</time></trkpt><trkpt lat="43.564655" lon="13.5764883"><ele>125.0</ele><time>2026-03-22T09:01:26.994Z</time></trkpt><trkpt lat="43.56456" lon="13.576585"><ele>126.49999999999999</ele><time>2026-03-22T09:01:27.995Z</time></trkpt><trkpt lat="43.5644767" lon="13.5766617"><ele>128.0</ele><time>2026-03-22T09:01:28.994Z</time></trkpt><trkpt lat="43.5643983" lon="13.576735"><ele>129.5</ele><time>2026-03-22T09:01:29.994Z</time></trkpt><trkpt lat="43.5643283" lon="13.5767883"><ele>131.0</ele><time>2026-03-22T09:01:31.004Z</time></trkpt><trkpt lat="43.5642567" lon="13.5768333"><ele>132.5</ele><time>2026-03-22T09:01:31.99Z</time></trkpt><trkpt lat="43.5641833" lon="13.576865"><ele>134.0</ele><time>2026-03-22T09:01:32.993Z</time></trkpt><trkpt lat="43.564105" lon="13.5769117"><ele>134.0</ele><time>2026-03-22T09:01:33.991Z</time></trkpt><trkpt lat="43.564035" lon="13.5769717"><ele>134.0</ele><time>2026-03-22T09:01:34.991Z</time></trkpt><trkpt lat="43.5639833" lon="13.5770517"><ele>134.0</ele><time>2026-03-22T09:01:35.991Z</time></trkpt><trkpt lat="43.5639683" lon="13.577155"><ele>134.0</ele><time>2026-03-22T09:01:36.987Z</time></trkpt><trkpt lat="43.56402" lon="13.5772683"><ele>134.0</ele><time>2026-03-22T09:01:37.989Z</time></trkpt><trkpt lat="43.56408" lon="13.57738"><ele>134.0</ele><time>2026-03-22T09:01:38.998Z</time></trkpt><trkpt lat="43.5641483" lon="13.5775183"><ele>133.25</ele><time>2026-03-22T09:01:39.991Z</time></trkpt><trkpt lat="43.5641917" lon="13.5776767"><ele>132.5</ele><time>2026-03-22T09:01:40.992Z</time></trkpt><trkpt lat="43.564225" lon="13.5778333"><ele>131.75</ele><time>2026-03-22T09:01:41.992Z</time></trkpt><trkpt lat="43.5642433" lon="13.5779817"><ele>131.0</ele><time>2026-03-22T09:01:42.994Z</time></trkpt><trkpt lat="43.5642533" lon="13.5781333"><ele>130.8</ele><time>2026-03-22T09:01:43.987Z</time></trkpt><trkpt lat="43.5642583" lon="13.5782833"><ele>130.6</ele><time>2026-03-22T09:01:44.993Z</time></trkpt><trkpt lat="43.5642583" lon="13.5784317"><ele>130.4</ele><time>2026-03-22T09:01:45.989Z</time></trkpt><trkpt lat="43.5642583" lon="13.578585"><ele>130.2</ele><time>2026-03-22T09:01:46.992Z</time></trkpt><trkpt lat="43.5642567" lon="13.5787333"><ele>130.0</ele><time>2026-03-22T09:01:47.987Z</time></trkpt><trkpt lat="43.56425" lon="13.5788683"><ele>130.0</ele><time>2026-03-22T09:01:48.991Z</time></trkpt><trkpt lat="43.5642483" lon="13.578995"><ele>130.0</ele><time>2026-03-22T09:01:49.993Z</time></trkpt><trkpt lat="43.5642433" lon="13.579105"><ele>130.0</ele><time>2026-03-22T09:01:50.992Z</time></trkpt><trkpt lat="43.56424" lon="13.5792"><ele>130.0</ele><time>2026-03-22T09:01:51.992Z</time></trkpt><trkpt lat="43.5642483" lon="13.5793533"><ele>130.0</ele><time>2026-03-22T09:01:53.988Z</time></trkpt></trkseg><trkseg><trkpt lat="43.5643" lon="13.5792917"><ele>130.0</ele><time>2026-03-22T09:42:47.99Z</time></trkpt><trkpt lat="43.5642833" lon="13.57917"><ele>130.0</ele><time>2026-03-22T09:42:50.993Z</time></trkpt><trkpt lat="43.5642833" lon="13.579075"><ele>130.0</ele><time>2026-03-22T09:42:52.993Z</time></trkpt><trkpt lat="43.5642867" lon="13.5789667"><ele>130.0</ele><time>2026-03-22T09:42:54.997Z</time></trkpt><trkpt lat="43.564285" lon="13.57881"><ele>130.0</ele><time>2026-03-22T09:42:56.988Z</time></trkpt><trkpt lat="43.564285" lon="13.5787"><ele>130.0</ele><time>2026-03-22T09:42:58.007Z</time></trkpt><trkpt lat="43.5642883" lon="13.5785783"><ele>130.0</ele><time>2026-03-22T09:42:58.991Z</time></trkpt><trkpt lat="43.5642933" lon="13.5784617"><ele>130.0</ele><time>2026-03-22T09:42:59.986Z</time></trkpt><trkpt lat="43.5642983" lon="13.5783417"><ele>130.0</ele><time>2026-03-22T09:43:01.001Z</time></trkpt><trkpt lat="43.564305" lon="13.5782133"><ele>130.0</ele><time>2026-03-22T09:43:01.987Z</time></trkpt><trkpt lat="43.5643067" lon="13.5780833"><ele>130.0</ele><time>2026-03-22T09:43:02.995Z</time></trkpt><trkpt lat="43.5643067" lon="13.577955"><ele>130.16666666666669</ele><time>2026-03-22T09:43:03.998Z</time></trkpt><trkpt lat="43.5643033" lon="13.5778283"><ele>130.33333333333334</ele><time>2026-03-22T09:43:04.994Z</time></trkpt><trkpt lat="43.5643" lon="13.577705"><ele>130.5</ele><time>2026-03-22T09:43:05.993Z</time></trkpt><trkpt lat="43.5642933" lon="13.5775917"><ele>130.66666666666666</ele><time>2026-03-22T09:43:06.991Z</time></trkpt><trkpt lat="43.5642917" lon="13.5774883"><ele>130.83333333333331</ele><time>2026-03-22T09:43:07.996Z</time></trkpt><trkpt lat="43.5642967" lon="13.5773883"><ele>131.0</ele><time>2026-03-22T09:43:08.995Z</time></trkpt><trkpt lat="43.564305" lon="13.5772833"><ele>131.0</ele><time>2026-03-22T09:43:09.994Z</time></trkpt><trkpt lat="43.5643133" lon="13.5771683"><ele>131.0</ele><time>2026-03-22T09:43:10.991Z</time></trkpt><trkpt lat="43.564315" lon="13.5770583"><ele>131.0</ele><time>2026-03-22T09:43:11.985Z</time></trkpt><trkpt lat="43.5643033" lon="13.5769667"><ele>131.0</ele><time>2026-03-22T09:43:12.989Z</time></trkpt><trkpt lat="43.5642267" lon="13.5768567"><ele>131.0</ele><time>2026-03-22T09:43:14.989Z</time></trkpt><trkpt lat="43.5641283" lon="13.5768867"><ele>131.0</ele><time>2026-03-22T09:43:16.993Z</time></trkpt><trkpt lat="43.564065" lon="13.5769683"><ele>131.0</ele><time>2026-03-22T09:43:18.993Z</time></trkpt><trkpt lat="43.5639733" lon="13.5771533"><ele>131.0</ele><time>2026-03-22T09:43:20.99Z</time></trkpt><trkpt lat="43.563915" lon="13.5772667"><ele>131.0</ele><time>2026-03-22T09:43:21.991Z</time></trkpt><trkpt lat="43.5638083" lon="13.577415"><ele>131.0</ele><time>2026-03-22T09:43:22.987Z</time></trkpt><trkpt lat="43.56369" lon="13.57755"><ele>131.0</ele><time>2026-03-22T09:43:23.994Z</time></trkpt><trkpt lat="43.5635667" lon="13.577685"><ele>131.0</ele><time>2026-03-22T09:43:24.993Z</time></trkpt><trkpt lat="43.56343" lon="13.577825"><ele>131.0</ele><time>2026-03-22T09:43:25.99Z</time></trkpt><trkpt lat="43.5632883" lon="13.5779767"><ele>132.0</ele><time>2026-03-22T09:43:26.992Z</time></trkpt><trkpt lat="43.563145" lon="13.5781417"><ele>133.0</ele><time>2026-03-22T09:43:27.986Z</time></trkpt><trkpt lat="43.56301" lon="13.57832"><ele>134.0</ele><time>2026-03-22T09:43:28.99Z</time></trkpt><trkpt lat="43.5628883" lon="13.5785133"><ele>133.66666666666666</ele><time>2026-03-22T09:43:29.99Z</time></trkpt><trkpt lat="43.5627833" lon="13.5787267"><ele>133.33333333333334</ele><time>2026-03-22T09:43:30.995Z</time></trkpt><trkpt lat="43.5627" lon="13.5789517"><ele>133.0</ele><time>2026-03-22T09:43:31.994Z</time></trkpt><trkpt lat="43.5626317" lon="13.5791883"><ele>133.0</ele><time>2026-03-22T09:43:32.992Z</time></trkpt><trkpt lat="43.56258" lon="13.5794433"><ele>133.0</ele><time>2026-03-22T09:43:33.995Z</time></trkpt><trkpt lat="43.5625367" lon="13.579705"><ele>133.0</ele><time>2026-03-22T09:43:34.999Z</time></trkpt><trkpt lat="43.5624817" lon="13.5799583"><ele>134.0</ele><time>2026-03-22T09:43:35.998Z</time></trkpt><trkpt lat="43.5624033" lon="13.5801933"><ele>135.0</ele><time>2026-03-22T09:43:36.993Z</time></trkpt><trkpt lat="43.5622983" lon="13.5804"><ele>136.0</ele><time>2026-03-22T09:43:37.995Z</time></trkpt><trkpt lat="43.5621533" lon="13.58058"><ele>137.33333333333334</ele><time>2026-03-22T09:43:38.995Z</time></trkpt><trkpt lat="43.5619817" lon="13.58072"><ele>138.66666666666666</ele><time>2026-03-22T09:43:39.993Z</time></trkpt><trkpt lat="43.5617933" lon="13.5808117"><ele>140.0</ele><time>2026-03-22T09:43:40.991Z</time></trkpt><trkpt lat="43.561615" lon="13.580855"><ele>140.0</ele><time>2026-03-22T09:43:41.996Z</time></trkpt><trkpt lat="43.561435" lon="13.5808667"><ele>140.0</ele><time>2026-03-22T09:43:42.994Z</time></trkpt><trkpt lat="43.56125" lon="13.580855"><ele>140.0</ele><time>2026-03-22T09:43:43.992Z</time></trkpt><trkpt lat="43.561055" lon="13.5808433"><ele>143.33333333333331</ele><time>2026-03-22T09:43:44.995Z</time></trkpt><trkpt lat="43.56085" lon="13.5808517"><ele>146.66666666666666</ele><time>2026-03-22T09:43:45.994Z</time></trkpt><trkpt lat="43.5606417" lon="13.58084"><ele>150.0</ele><time>2026-03-22T09:43:46.991Z</time></trkpt><trkpt lat="43.5604283" lon="13.5808083"><ele>152.0</ele><time>2026-03-22T09:43:47.997Z</time></trkpt><trkpt lat="43.5602133" lon="13.5807783"><ele>154.0</ele><time>2026-03-22T09:43:48.995Z</time></trkpt><trkpt lat="43.5599983" lon="13.580765"><ele>156.0</ele><time>2026-03-22T09:43:49.993Z</time></trkpt><trkpt lat="43.5597817" lon="13.5807483"><ele>156.0</ele><time>2026-03-22T09:43:50.992Z</time></trkpt><trkpt lat="43.5595683" lon="13.5807217"><ele>156.0</ele><time>2026-03-22T09:43:51.993Z</time></trkpt><trkpt lat="43.5593617" lon="13.5806667"><ele>156.0</ele><time>2026-03-22T09:43:52.992Z</time></trkpt><trkpt lat="43.55917" lon="13.5805817"><ele>157.0</ele><time>2026-03-22T09:43:53.993Z</time></trkpt><trkpt lat="43.5589883" lon="13.5804683"><ele>158.0</ele><time>2026-03-22T09:43:54.997Z</time></trkpt><trkpt lat="43.5588133" lon="13.580335"><ele>159.0</ele><time>2026-03-22T09:43:55.993Z</time></trkpt><trkpt lat="43.5586433" lon="13.5801733"><ele>163.33333333333334</ele><time>2026-03-22T09:43:56.997Z</time></trkpt><trkpt lat="43.5584717" lon="13.5799933"><ele>167.66666666666669</ele><time>2026-03-22T09:43:57.992Z</time></trkpt><trkpt lat="43.5583" lon="13.5798083"><ele>172.0</ele><time>2026-03-22T09:43:58.994Z</time></trkpt><trkpt lat="43.558125" lon="13.5796217"><ele>172.66666666666669</ele><time>2026-03-22T09:43:59.996Z</time></trkpt><trkpt lat="43.5579517" lon="13.5794333"><ele>173.33333333333334</ele><time>2026-03-22T09:44:00.997Z</time></trkpt><trkpt lat="43.557785" lon="13.5792467"><ele>174.0</ele><time>2026-03-22T09:44:01.996Z</time></trkpt><trkpt lat="43.557625" lon="13.5790717"><ele>174.0</ele><time>2026-03-22T09:44:02.998Z</time></trkpt><trkpt lat="43.557485" lon="13.578885"><ele>174.0</ele><time>2026-03-22T09:44:03.998Z</time></trkpt><trkpt lat="43.5573583" lon="13.5786783"><ele>174.0</ele><time>2026-03-22T09:44:04.988Z</time></trkpt><trkpt lat="43.5572483" lon="13.57845"><ele>173.0</ele><time>2026-03-22T09:44:05.992Z</time></trkpt><trkpt lat="43.5571517" lon="13.578205"><ele>172.0</ele><time>2026-03-22T09:44:06.991Z</time></trkpt><trkpt lat="43.5570767" lon="13.577945"><ele>171.0</ele><time>2026-03-22T09:44:07.995Z</time></trkpt><trkpt lat="43.5570283" lon="13.57768"><ele>178.33333333333331</ele><time>2026-03-22T09:44:08.996Z</time></trkpt><trkpt lat="43.5569983" lon="13.57741"><ele>185.66666666666666</ele><time>2026-03-22T09:44:09.998Z</time></trkpt><trkpt lat="43.556995" lon="13.577135"><ele>193.0</ele><time>2026-03-22T09:44:10.991Z</time></trkpt><trkpt lat="43.5570133" lon="13.5768533"><ele>189.33333333333331</ele><time>2026-03-22T09:44:11.991Z</time></trkpt><trkpt lat="43.5570567" lon="13.5765783"><ele>185.66666666666666</ele><time>2026-03-22T09:44:12.995Z</time></trkpt><trkpt lat="43.557125" lon="13.576315"><ele>182.0</ele><time>2026-03-22T09:44:13.996Z</time></trkpt><trkpt lat="43.5572083" lon="13.57606"><ele>182.0</ele><time>2026-03-22T09:44:14.996Z</time></trkpt><trkpt lat="43.5572983" lon="13.5758083"><ele>182.0</ele><time>2026-03-22T09:44:15.99Z</time></trkpt><trkpt lat="43.5573917" lon="13.5755583"><ele>182.0</ele><time>2026-03-22T09:44:16.99Z</time></trkpt><trkpt lat="43.5574817" lon="13.5753083"><ele>186.33333333333331</ele><time>2026-03-22T09:44:17.992Z</time></trkpt><trkpt lat="43.5575733" lon="13.57506"><ele>190.66666666666666</ele><time>2026-03-22T09:44:18.991Z</time></trkpt><trkpt lat="43.557665" lon="13.5748133"><ele>195.0</ele><time>2026-03-22T09:44:19.996Z</time></trkpt><trkpt lat="43.5577567" lon="13.5745633"><ele>199.33333333333331</ele><time>2026-03-22T09:44:21Z</time></trkpt><trkpt lat="43.5578417" lon="13.57431"><ele>203.66666666666666</ele><time>2026-03-22T09:44:21.994Z</time></trkpt><trkpt lat="43.557915" lon="13.57405"><ele>208.0</ele><time>2026-03-22T09:44:22.992Z</time></trkpt><trkpt lat="43.557965" lon="13.5737933"><ele>201.33333333333331</ele><time>2026-03-22T09:44:23.992Z</time></trkpt><trkpt lat="43.55799" lon="13.573535"><ele>194.66666666666666</ele><time>2026-03-22T09:44:24.996Z</time></trkpt><trkpt lat="43.5579967" lon="13.5732767"><ele>188.0</ele><time>2026-03-22T09:44:25.992Z</time></trkpt><trkpt lat="43.5579867" lon="13.5730333"><ele>188.0</ele><time>2026-03-22T09:44:26.998Z</time></trkpt><trkpt lat="43.5579633" lon="13.5728033"><ele>188.0</ele><time>2026-03-22T09:44:27.99Z</time></trkpt><trkpt lat="43.55794" lon="13.5725867"><ele>188.0</ele><time>2026-03-22T09:44:28.991Z</time></trkpt><trkpt lat="43.5579133" lon="13.57238"><ele>193.0</ele><time>2026-03-22T09:44:29.997Z</time></trkpt><trkpt lat="43.5578683" lon="13.57219"><ele>198.0</ele><time>2026-03-22T09:44:30.999Z</time></trkpt><trkpt lat="43.5578067" lon="13.5720217"><ele>203.0</ele><time>2026-03-22T09:44:31.997Z</time></trkpt><trkpt lat="43.5577333" lon="13.5718817"><ele>208.0</ele><time>2026-03-22T09:44:33.001Z</time></trkpt><trkpt lat="43.55764" lon="13.571765"><ele>208.0</ele><time>2026-03-22T09:44:33.995Z</time></trkpt><trkpt lat="43.557535" lon="13.5716717"><ele>208.0</ele><time>2026-03-22T09:44:34.995Z</time></trkpt><trkpt lat="43.5574233" lon="13.5716067"><ele>208.0</ele><time>2026-03-22T09:44:35.992Z</time></trkpt><trkpt lat="43.5573" lon="13.571565"><ele>208.0</ele><time>2026-03-22T09:44:36.993Z</time></trkpt><trkpt lat="43.557165" lon="13.5715567"><ele>207.5</ele><time>2026-03-22T09:44:37.995Z</time></trkpt><trkpt lat="43.55703" lon="13.5715867"><ele>207.0</ele><time>2026-03-22T09:44:38.994Z</time></trkpt><trkpt lat="43.5568983" lon="13.57164"><ele>206.5</ele><time>2026-03-22T09:44:39.992Z</time></trkpt><trkpt lat="43.556785" lon="13.5717217"><ele>206.0</ele><time>2026-03-22T09:44:40.995Z</time></trkpt><trkpt lat="43.5566783" lon="13.5718283"><ele>206.0</ele><time>2026-03-22T09:44:41.994Z</time></trkpt><trkpt lat="43.5565883" lon="13.57196"><ele>206.0</ele><time>2026-03-22T09:44:43Z</time></trkpt><trkpt lat="43.556515" lon="13.5721067"><ele>206.0</ele><time>2026-03-22T09:44:43.995Z</time></trkpt><trkpt lat="43.5564517" lon="13.5722667"><ele>206.0</ele><time>2026-03-22T09:44:44.998Z</time></trkpt><trkpt lat="43.5563833" lon="13.5724283"><ele>204.25</ele><time>2026-03-22T09:44:45.996Z</time></trkpt><trkpt lat="43.556305" lon="13.5725783"><ele>202.5</ele><time>2026-03-22T09:44:46.991Z</time></trkpt><trkpt lat="43.5562083" lon="13.57271"><ele>200.75</ele><time>2026-03-22T09:44:47.991Z</time></trkpt><trkpt lat="43.5561017" lon="13.5728167"><ele>199.0</ele><time>2026-03-22T09:44:48.992Z</time></trkpt><trkpt lat="43.5559833" lon="13.572905"><ele>204.5</ele><time>2026-03-22T09:44:49.992Z</time></trkpt><trkpt lat="43.55586" lon="13.5729733"><ele>210.0</ele><time>2026-03-22T09:44:50.991Z</time></trkpt><trkpt lat="43.5557267" lon="13.57304"><ele>215.5</ele><time>2026-03-22T09:44:51.989Z</time></trkpt><trkpt lat="43.55559" lon="13.5731067"><ele>221.0</ele><time>2026-03-22T09:44:52.994Z</time></trkpt><trkpt lat="43.555455" lon="13.5731767"><ele>218.25</ele><time>2026-03-22T09:44:53.995Z</time></trkpt><trkpt lat="43.5553233" lon="13.5732517"><ele>215.5</ele><time>2026-03-22T09:44:54.994Z</time></trkpt><trkpt lat="43.5552" lon="13.5733383"><ele>212.75</ele><time>2026-03-22T09:44:55.992Z</time></trkpt><trkpt lat="43.5550933" lon="13.57344"><ele>210.0</ele><time>2026-03-22T09:44:56.992Z</time></trkpt><trkpt lat="43.554995" lon="13.5735533"><ele>210.0</ele><time>2026-03-22T09:44:57.99Z</time></trkpt><trkpt lat="43.554895" lon="13.57368"><ele>210.0</ele><time>2026-03-22T09:44:58.995Z</time></trkpt><trkpt lat="43.5548" lon="13.5738233"><ele>210.0</ele><time>2026-03-22T09:44:59.998Z</time></trkpt><trkpt lat="43.5547117" lon="13.573975"><ele>210.0</ele><time>2026-03-22T09:45:00.993Z</time></trkpt><trkpt lat="43.5546333" lon="13.5741417"><ele>210.75</ele><time>2026-03-22T09:45:01.993Z</time></trkpt><trkpt lat="43.5545633" lon="13.57432"><ele>211.5</ele><time>2026-03-22T09:45:02.996Z</time></trkpt><trkpt lat="43.5544883" lon="13.5744983"><ele>212.25</ele><time>2026-03-22T09:45:03.995Z</time></trkpt><trkpt lat="43.554415" lon="13.5746817"><ele>213.0</ele><time>2026-03-22T09:45:04.99Z</time></trkpt><trkpt lat="43.5543417" lon="13.574865"><ele>213.0</ele><time>2026-03-22T09:45:06Z</time></trkpt><trkpt lat="43.5542683" lon="13.5750417"><ele>213.0</ele><time>2026-03-22T09:45:06.991Z</time></trkpt><trkpt lat="43.5541933" lon="13.5752133"><ele>213.0</ele><time>2026-03-22T09:45:07.994Z</time></trkpt><trkpt lat="43.5541133" lon="13.57538"><ele>213.0</ele><time>2026-03-22T09:45:08.996Z</time></trkpt><trkpt lat="43.5540183" lon="13.5755267"><ele>212.25</ele><time>2026-03-22T09:45:09.99Z</time></trkpt><trkpt lat="43.553915" lon="13.575655"><ele>211.5</ele><time>2026-03-22T09:45:10.997Z</time></trkpt><trkpt lat="43.5538067" lon="13.575775"><ele>210.75</ele><time>2026-03-22T09:45:11.992Z</time></trkpt><trkpt lat="43.5536917" lon="13.5758833"><ele>210.0</ele><time>2026-03-22T09:45:12.993Z</time></trkpt><trkpt lat="43.5535767" lon="13.5759817"><ele>210.0</ele><time>2026-03-22T09:45:13.996Z</time></trkpt><trkpt lat="43.553455" lon="13.57607"><ele>210.0</ele><time>2026-03-22T09:45:14.999Z</time></trkpt><trkpt lat="43.5533317" lon="13.576145"><ele>210.0</ele><time>2026-03-22T09:45:16Z</time></trkpt><trkpt lat="43.553205" lon="13.576195"><ele>210.0</ele><time>2026-03-22T09:45:16.991Z</time></trkpt><trkpt lat="43.5530767" lon="13.5762283"><ele>214.0</ele><time>2026-03-22T09:45:17.994Z</time></trkpt><trkpt lat="43.5529417" lon="13.5762567"><ele>218.0</ele><time>2026-03-22T09:45:18.992Z</time></trkpt><trkpt lat="43.5528017" lon="13.5762767"><ele>222.0</ele><time>2026-03-22T09:45:19.992Z</time></trkpt><trkpt lat="43.552655" lon="13.576295"><ele>226.0</ele><time>2026-03-22T09:45:20.993Z</time></trkpt><trkpt lat="43.55251" lon="13.5763117"><ele>229.25</ele><time>2026-03-22T09:45:21.987Z</time></trkpt><trkpt lat="43.5523717" lon="13.5763283"><ele>232.5</ele><time>2026-03-22T09:45:22.992Z</time></trkpt><trkpt lat="43.55223" lon="13.57635"><ele>235.75</ele><time>2026-03-22T09:45:23.989Z</time></trkpt><trkpt lat="43.55209" lon="13.57637"><ele>239.0</ele><time>2026-03-22T09:45:24.991Z</time></trkpt><trkpt lat="43.5519517" lon="13.5763883"><ele>239.75</ele><time>2026-03-22T09:45:25.99Z</time></trkpt><trkpt lat="43.5518133" lon="13.5764083"><ele>240.5</ele><time>2026-03-22T09:45:26.992Z</time></trkpt><trkpt lat="43.55167" lon="13.5764283"><ele>241.25</ele><time>2026-03-22T09:45:27.99Z</time></trkpt><trkpt lat="43.5515233" lon="13.5764517"><ele>242.0</ele><time>2026-03-22T09:45:28.989Z</time></trkpt><trkpt lat="43.5513783" lon="13.5764733"><ele>242.0</ele><time>2026-03-22T09:45:29.991Z</time></trkpt><trkpt lat="43.5512317" lon="13.5765033"><ele>242.0</ele><time>2026-03-22T09:45:30.988Z</time></trkpt><trkpt lat="43.5510933" lon="13.5765517"><ele>242.0</ele><time>2026-03-22T09:45:31.992Z</time></trkpt><trkpt lat="43.5509717" lon="13.57663"><ele>242.0</ele><time>2026-03-22T09:45:32.991Z</time></trkpt><trkpt lat="43.55086" lon="13.576725"><ele>241.5</ele><time>2026-03-22T09:45:33.991Z</time></trkpt><trkpt lat="43.55075" lon="13.57683"><ele>241.0</ele><time>2026-03-22T09:45:34.995Z</time></trkpt><trkpt lat="43.5506433" lon="13.57695"><ele>240.5</ele><time>2026-03-22T09:45:35.995Z</time></trkpt><trkpt lat="43.5505483" lon="13.5770967"><ele>240.0</ele><time>2026-03-22T09:45:36.998Z</time></trkpt><trkpt lat="43.55047" lon="13.5772583"><ele>241.25</ele><time>2026-03-22T09:45:37.995Z</time></trkpt><trkpt lat="43.5504117" lon="13.5774333"><ele>242.5</ele><time>2026-03-22T09:45:38.994Z</time></trkpt><trkpt lat="43.5503667" lon="13.57762"><ele>243.75</ele><time>2026-03-22T09:45:39.993Z</time></trkpt><trkpt lat="43.55033" lon="13.5778183"><ele>245.0</ele><time>2026-03-22T09:45:40.995Z</time></trkpt><trkpt lat="43.5503133" lon="13.5780217"><ele>244.5</ele><time>2026-03-22T09:45:41.994Z</time></trkpt><trkpt lat="43.550315" lon="13.578225"><ele>244.0</ele><time>2026-03-22T09:45:42.994Z</time></trkpt><trkpt lat="43.5503367" lon="13.5784267"><ele>243.5</ele><time>2026-03-22T09:45:43.991Z</time></trkpt><trkpt lat="43.5503817" lon="13.57863"><ele>243.0</ele><time>2026-03-22T09:45:44.995Z</time></trkpt><trkpt lat="43.5504467" lon="13.5788317"><ele>243.0</ele><time>2026-03-22T09:45:45.993Z</time></trkpt><trkpt lat="43.550535" lon="13.5790267"><ele>243.0</ele><time>2026-03-22T09:45:46.995Z</time></trkpt><trkpt lat="43.5506333" lon="13.5792"><ele>243.0</ele><time>2026-03-22T09:45:47.994Z</time></trkpt><trkpt lat="43.550745" lon="13.5793483"><ele>243.0</ele><time>2026-03-22T09:45:48.992Z</time></trkpt><trkpt lat="43.5508617" lon="13.57947"><ele>243.0</ele><time>2026-03-22T09:45:49.995Z</time></trkpt><trkpt lat="43.5509883" lon="13.5795717"><ele>243.0</ele><time>2026-03-22T09:45:50.992Z</time></trkpt><trkpt lat="43.5511233" lon="13.5796733"><ele>243.0</ele><time>2026-03-22T09:45:51.995Z</time></trkpt><trkpt lat="43.55126" lon="13.579775"><ele>242.66666666666669</ele><time>2026-03-22T09:45:52.997Z</time></trkpt><trkpt lat="43.5513933" lon="13.5798767"><ele>242.33333333333334</ele><time>2026-03-22T09:45:53.998Z</time></trkpt><trkpt lat="43.5515267" lon="13.5799767"><ele>242.0</ele><time>2026-03-22T09:45:54.994Z</time></trkpt><trkpt lat="43.551665" lon="13.5800767"><ele>242.0</ele><time>2026-03-22T09:45:55.995Z</time></trkpt><trkpt lat="43.5517967" lon="13.5801767"><ele>242.0</ele><time>2026-03-22T09:45:56.991Z</time></trkpt><trkpt lat="43.55193" lon="13.5802817"><ele>242.0</ele><time>2026-03-22T09:45:57.991Z</time></trkpt><trkpt lat="43.5520533" lon="13.5803967"><ele>242.0</ele><time>2026-03-22T09:45:58.993Z</time></trkpt><trkpt lat="43.5521683" lon="13.58052"><ele>242.0</ele><time>2026-03-22T09:45:59.995Z</time></trkpt><trkpt lat="43.5522733" lon="13.5806517"><ele>242.0</ele><time>2026-03-22T09:46:00.992Z</time></trkpt><trkpt lat="43.5523667" lon="13.5808067"><ele>242.0</ele><time>2026-03-22T09:46:01.995Z</time></trkpt><trkpt lat="43.55245" lon="13.58098"><ele>242.0</ele><time>2026-03-22T09:46:02.995Z</time></trkpt><trkpt lat="43.5525217" lon="13.5811633"><ele>242.0</ele><time>2026-03-22T09:46:03.995Z</time></trkpt><trkpt lat="43.552585" lon="13.5813483"><ele>242.0</ele><time>2026-03-22T09:46:04.997Z</time></trkpt><trkpt lat="43.55263" lon="13.5815417"><ele>242.0</ele><time>2026-03-22T09:46:05.995Z</time></trkpt><trkpt lat="43.55266" lon="13.5817383"><ele>238.75</ele><time>2026-03-22T09:46:06.99Z</time></trkpt><trkpt lat="43.5526933" lon="13.581935"><ele>235.5</ele><time>2026-03-22T09:46:07.991Z</time></trkpt><trkpt lat="43.5527233" lon="13.5821333"><ele>232.25</ele><time>2026-03-22T09:46:09Z</time></trkpt><trkpt lat="43.5527533" lon="13.5823267"><ele>229.0</ele><time>2026-03-22T09:46:09.994Z</time></trkpt><trkpt lat="43.55278" lon="13.582515"><ele>226.0</ele><time>2026-03-22T09:46:11Z</time></trkpt><trkpt lat="43.552805" lon="13.582705"><ele>223.0</ele><time>2026-03-22T09:46:11.994Z</time></trkpt><trkpt lat="43.55283" lon="13.582895"><ele>220.0</ele><time>2026-03-22T09:46:12.995Z</time></trkpt><trkpt lat="43.5528533" lon="13.58308"><ele>217.0</ele><time>2026-03-22T09:46:13.996Z</time></trkpt><trkpt lat="43.5528667" lon="13.5832617"><ele>217.0</ele><time>2026-03-22T09:46:14.993Z</time></trkpt><trkpt lat="43.5528717" lon="13.5834383"><ele>217.0</ele><time>2026-03-22T09:46:15.997Z</time></trkpt><trkpt lat="43.55287" lon="13.5836033"><ele>217.0</ele><time>2026-03-22T09:46:16.996Z</time></trkpt><trkpt lat="43.55287" lon="13.5837733"><ele>217.0</ele><time>2026-03-22T09:46:17.993Z</time></trkpt><trkpt lat="43.55286" lon="13.5839467"><ele>219.0</ele><time>2026-03-22T09:46:18.993Z</time></trkpt><trkpt lat="43.55284" lon="13.5841183"><ele>221.0</ele><time>2026-03-22T09:46:19.991Z</time></trkpt><trkpt lat="43.552815" lon="13.58428"><ele>223.0</ele><time>2026-03-22T09:46:20.994Z</time></trkpt><trkpt lat="43.552785" lon="13.5844383"><ele>225.0</ele><time>2026-03-22T09:46:21.993Z</time></trkpt><trkpt lat="43.552745" lon="13.5845933"><ele>226.75</ele><time>2026-03-22T09:46:22.992Z</time></trkpt><trkpt lat="43.552705" lon="13.5847533"><ele>228.5</ele><time>2026-03-22T09:46:23.998Z</time></trkpt><trkpt lat="43.55267" lon="13.584925"><ele>230.25</ele><time>2026-03-22T09:46:24.996Z</time></trkpt><trkpt lat="43.5526183" lon="13.5850983"><ele>232.0</ele><time>2026-03-22T09:46:25.995Z</time></trkpt><trkpt lat="43.55254" lon="13.5852583"><ele>233.0</ele><time>2026-03-22T09:46:26.994Z</time></trkpt><trkpt lat="43.5524583" lon="13.5853983"><ele>234.0</ele><time>2026-03-22T09:46:27.995Z</time></trkpt><trkpt lat="43.5523717" lon="13.5855217"><ele>235.0</ele><time>2026-03-22T09:46:28.998Z</time></trkpt><trkpt lat="43.552275" lon="13.58562"><ele>236.0</ele><time>2026-03-22T09:46:29.989Z</time></trkpt><trkpt lat="43.5521767" lon="13.58571"><ele>236.0</ele><time>2026-03-22T09:46:30.997Z</time></trkpt><trkpt lat="43.5520717" lon="13.58579"><ele>236.0</ele><time>2026-03-22T09:46:31.992Z</time></trkpt><trkpt lat="43.5519617" lon="13.5858667"><ele>236.0</ele><time>2026-03-22T09:46:32.994Z</time></trkpt><trkpt lat="43.5518567" lon="13.58594"><ele>236.0</ele><time>2026-03-22T09:46:33.99Z</time></trkpt><trkpt lat="43.5517533" lon="13.5860117"><ele>236.20000000000002</ele><time>2026-03-22T09:46:34.99Z</time></trkpt><trkpt lat="43.551655" lon="13.5860867"><ele>236.40000000000003</ele><time>2026-03-22T09:46:35.997Z</time></trkpt><trkpt lat="43.5515617" lon="13.5861467"><ele>236.6</ele><time>2026-03-22T09:46:36.995Z</time></trkpt><trkpt lat="43.5514717" lon="13.5862117"><ele>236.8</ele><time>2026-03-22T09:46:37.995Z</time></trkpt><trkpt lat="43.5513767" lon="13.5862733"><ele>237.0</ele><time>2026-03-22T09:46:38.993Z</time></trkpt><trkpt lat="43.5512783" lon="13.5863467"><ele>235.5</ele><time>2026-03-22T09:46:39.993Z</time></trkpt><trkpt lat="43.5511767" lon="13.5864367"><ele>234.0</ele><time>2026-03-22T09:46:40.995Z</time></trkpt><trkpt lat="43.5510833" lon="13.5865483"><ele>232.5</ele><time>2026-03-22T09:46:41.998Z</time></trkpt><trkpt lat="43.5509967" lon="13.5866783"><ele>231.0</ele><time>2026-03-22T09:46:42.994Z</time></trkpt><trkpt lat="43.55092" lon="13.5868133"><ele>231.0</ele><time>2026-03-22T09:46:43.997Z</time></trkpt><trkpt lat="43.5508517" lon="13.5869633"><ele>231.0</ele><time>2026-03-22T09:46:44.998Z</time></trkpt><trkpt lat="43.5507883" lon="13.5871133"><ele>231.0</ele><time>2026-03-22T09:46:45.992Z</time></trkpt><trkpt lat="43.5507117" lon="13.587245"><ele>231.0</ele><time>2026-03-22T09:46:46.995Z</time></trkpt><trkpt lat="43.5506133" lon="13.587325"><ele>235.5</ele><time>2026-03-22T09:46:47.993Z</time></trkpt><trkpt lat="43.5504883" lon="13.5873467"><ele>240.0</ele><time>2026-03-22T09:46:48.997Z</time></trkpt><trkpt lat="43.5503733" lon="13.587315"><ele>244.5</ele><time>2026-03-22T09:46:49.993Z</time></trkpt><trkpt lat="43.5502817" lon="13.587225"><ele>249.0</ele><time>2026-03-22T09:46:50.996Z</time></trkpt><trkpt lat="43.5501917" lon="13.5871233"><ele>251.25</ele><time>2026-03-22T09:46:51.993Z</time></trkpt><trkpt lat="43.5501" lon="13.587025"><ele>253.5</ele><time>2026-03-22T09:46:52.994Z</time></trkpt><trkpt lat="43.55" lon="13.58693"><ele>255.75</ele><time>2026-03-22T09:46:53.994Z</time></trkpt><trkpt lat="43.5498883" lon="13.5868667"><ele>258.0</ele><time>2026-03-22T09:46:54.993Z</time></trkpt><trkpt lat="43.54976" lon="13.586825"><ele>253.0</ele><time>2026-03-22T09:46:55.993Z</time></trkpt><trkpt lat="43.5496367" lon="13.58679"><ele>248.0</ele><time>2026-03-22T09:46:56.995Z</time></trkpt><trkpt lat="43.5495217" lon="13.5867667"><ele>243.0</ele><time>2026-03-22T09:46:57.993Z</time></trkpt><trkpt lat="43.5494033" lon="13.58674"><ele>238.0</ele><time>2026-03-22T09:46:58.994Z</time></trkpt><trkpt lat="43.54928" lon="13.5867217"><ele>238.0</ele><time>2026-03-22T09:46:59.995Z</time></trkpt><trkpt lat="43.549155" lon="13.5867283"><ele>238.0</ele><time>2026-03-22T09:47:00.998Z</time></trkpt><trkpt lat="43.549045" lon="13.58677"><ele>238.0</ele><time>2026-03-22T09:47:01.995Z</time></trkpt><trkpt lat="43.5489333" lon="13.5868317"><ele>238.0</ele><time>2026-03-22T09:47:02.997Z</time></trkpt><trkpt lat="43.5488167" lon="13.5869"><ele>236.75</ele><time>2026-03-22T09:47:03.994Z</time></trkpt><trkpt lat="43.5487" lon="13.586955"><ele>235.5</ele><time>2026-03-22T09:47:04.993Z</time></trkpt><trkpt lat="43.5485833" lon="13.5869867"><ele>234.25</ele><time>2026-03-22T09:47:05.993Z</time></trkpt><trkpt lat="43.5484583" lon="13.5869967"><ele>233.0</ele><time>2026-03-22T09:47:06.991Z</time></trkpt><trkpt lat="43.548335" lon="13.586985"><ele>233.0</ele><time>2026-03-22T09:47:07.995Z</time></trkpt><trkpt lat="43.5482117" lon="13.5869367"><ele>233.0</ele><time>2026-03-22T09:47:08.993Z</time></trkpt><trkpt lat="43.5480917" lon="13.5868767"><ele>233.0</ele><time>2026-03-22T09:47:09.996Z</time></trkpt><trkpt lat="43.5479667" lon="13.5868283"><ele>233.0</ele><time>2026-03-22T09:47:10.995Z</time></trkpt><trkpt lat="43.5478367" lon="13.5868133"><ele>233.25</ele><time>2026-03-22T09:47:11.997Z</time></trkpt><trkpt lat="43.547705" lon="13.5868133"><ele>233.5</ele><time>2026-03-22T09:47:12.989Z</time></trkpt><trkpt lat="43.5475767" lon="13.5868283"><ele>233.75</ele><time>2026-03-22T09:47:13.995Z</time></trkpt><trkpt lat="43.5474567" lon="13.586855"><ele>234.0</ele><time>2026-03-22T09:47:14.996Z</time></trkpt><trkpt lat="43.54735" lon="13.5869067"><ele>234.0</ele><time>2026-03-22T09:47:15.995Z</time></trkpt><trkpt lat="43.5472533" lon="13.5869967"><ele>234.0</ele><time>2026-03-22T09:47:16.993Z</time></trkpt><trkpt lat="43.54714" lon="13.58709"><ele>234.0</ele><time>2026-03-22T09:47:17.999Z</time></trkpt><trkpt lat="43.5470167" lon="13.587185"><ele>234.0</ele><time>2026-03-22T09:47:18.992Z</time></trkpt><trkpt lat="43.5468867" lon="13.5872633"><ele>236.0</ele><time>2026-03-22T09:47:19.992Z</time></trkpt><trkpt lat="43.54676" lon="13.5873467"><ele>238.0</ele><time>2026-03-22T09:47:20.996Z</time></trkpt><trkpt lat="43.5466333" lon="13.5874283"><ele>240.0</ele><time>2026-03-22T09:47:21.994Z</time></trkpt><trkpt lat="43.546515" lon="13.58752"><ele>242.0</ele><time>2026-03-22T09:47:22.995Z</time></trkpt><trkpt lat="43.5463933" lon="13.5876"><ele>242.0</ele><time>2026-03-22T09:47:23.995Z</time></trkpt><trkpt lat="43.5462733" lon="13.5876767"><ele>242.0</ele><time>2026-03-22T09:47:24.996Z</time></trkpt><trkpt lat="43.5461583" lon="13.5877483"><ele>242.0</ele><time>2026-03-22T09:47:25.995Z</time></trkpt><trkpt lat="43.5460433" lon="13.5878017"><ele>242.0</ele><time>2026-03-22T09:47:26.993Z</time></trkpt><trkpt lat="43.545935" lon="13.58785"><ele>243.2</ele><time>2026-03-22T09:47:27.991Z</time></trkpt><trkpt lat="43.5458417" lon="13.587925"><ele>244.39999999999998</ele><time>2026-03-22T09:47:28.997Z</time></trkpt><trkpt lat="43.5457617" lon="13.588025"><ele>245.60000000000002</ele><time>2026-03-22T09:47:29.993Z</time></trkpt><trkpt lat="43.545685" lon="13.588145"><ele>246.8</ele><time>2026-03-22T09:47:30.989Z</time></trkpt><trkpt lat="43.5456067" lon="13.588265"><ele>248.0</ele><time>2026-03-22T09:47:31.991Z</time></trkpt><trkpt lat="43.5455183" lon="13.5883533"><ele>248.0</ele><time>2026-03-22T09:47:32.999Z</time></trkpt><trkpt lat="43.5454233" lon="13.588415"><ele>248.0</ele><time>2026-03-22T09:47:33.992Z</time></trkpt><trkpt lat="43.5453183" lon="13.588485"><ele>248.0</ele><time>2026-03-22T09:47:34.992Z</time></trkpt><trkpt lat="43.5452267" lon="13.58858"><ele>248.0</ele><time>2026-03-22T09:47:35.993Z</time></trkpt><trkpt lat="43.5451567" lon="13.5887117"><ele>245.5</ele><time>2026-03-22T09:47:36.994Z</time></trkpt><trkpt lat="43.5450967" lon="13.58885"><ele>243.0</ele><time>2026-03-22T09:47:37.998Z</time></trkpt><trkpt lat="43.5450433" lon="13.5890017"><ele>240.5</ele><time>2026-03-22T09:47:38.996Z</time></trkpt><trkpt lat="43.5449917" lon="13.5891583"><ele>238.0</ele><time>2026-03-22T09:47:39.994Z</time></trkpt><trkpt lat="43.5449367" lon="13.58932"><ele>238.0</ele><time>2026-03-22T09:47:40.995Z</time></trkpt><trkpt lat="43.54487" lon="13.5894767"><ele>238.0</ele><time>2026-03-22T09:47:41.992Z</time></trkpt><trkpt lat="43.54479" lon="13.5896167"><ele>238.0</ele><time>2026-03-22T09:47:42.992Z</time></trkpt><trkpt lat="43.544715" lon="13.58974"><ele>238.0</ele><time>2026-03-22T09:47:43.99Z</time></trkpt><trkpt lat="43.5446367" lon="13.5898433"><ele>239.25</ele><time>2026-03-22T09:47:44.99Z</time></trkpt><trkpt lat="43.544545" lon="13.58992"><ele>240.5</ele><time>2026-03-22T09:47:45.992Z</time></trkpt><trkpt lat="43.544435" lon="13.5899733"><ele>241.75</ele><time>2026-03-22T09:47:46.992Z</time></trkpt><trkpt lat="43.5443183" lon="13.5899683"><ele>243.0</ele><time>2026-03-22T09:47:47.992Z</time></trkpt><trkpt lat="43.5441983" lon="13.5899367"><ele>243.0</ele><time>2026-03-22T09:47:48.993Z</time></trkpt><trkpt lat="43.54408" lon="13.5898967"><ele>243.0</ele><time>2026-03-22T09:47:49.991Z</time></trkpt><trkpt lat="43.5439533" lon="13.589855"><ele>243.0</ele><time>2026-03-22T09:47:50.992Z</time></trkpt><trkpt lat="43.5438317" lon="13.5898217"><ele>243.0</ele><time>2026-03-22T09:47:51.992Z</time></trkpt><trkpt lat="43.54371" lon="13.5898067"><ele>242.0</ele><time>2026-03-22T09:47:52.994Z</time></trkpt><trkpt lat="43.54359" lon="13.5898067"><ele>241.0</ele><time>2026-03-22T09:47:53.989Z</time></trkpt><trkpt lat="43.543465" lon="13.589815"><ele>240.0</ele><time>2026-03-22T09:47:54.994Z</time></trkpt><trkpt lat="43.54335" lon="13.5898567"><ele>239.0</ele><time>2026-03-22T09:47:55.995Z</time></trkpt><trkpt lat="43.543245" lon="13.5899383"><ele>239.0</ele><time>2026-03-22T09:47:56.995Z</time></trkpt><trkpt lat="43.5431583" lon="13.5900467"><ele>238.99999999999997</ele><time>2026-03-22T09:47:57.99Z</time></trkpt><trkpt lat="43.5430883" lon="13.590165"><ele>238.99999999999997</ele><time>2026-03-22T09:47:58.99Z</time></trkpt><trkpt lat="43.543005" lon="13.5902583"><ele>239.0</ele><time>2026-03-22T09:47:59.993Z</time></trkpt><trkpt lat="43.5428983" lon="13.5902983"><ele>239.0</ele><time>2026-03-22T09:48:00.989Z</time></trkpt><trkpt lat="43.5428017" lon="13.5902717"><ele>236.6</ele><time>2026-03-22T09:48:01.99Z</time></trkpt><trkpt lat="43.5427167" lon="13.59022"><ele>234.2</ele><time>2026-03-22T09:48:02.995Z</time></trkpt><trkpt lat="43.54262" lon="13.5901717"><ele>231.79999999999998</ele><time>2026-03-22T09:48:03.991Z</time></trkpt><trkpt lat="43.5425117" lon="13.5901383"><ele>229.39999999999998</ele><time>2026-03-22T09:48:04.993Z</time></trkpt><trkpt lat="43.5424033" lon="13.5901317"><ele>227.0</ele><time>2026-03-22T09:48:05.993Z</time></trkpt><trkpt lat="43.5423" lon="13.59016"><ele>227.0</ele><time>2026-03-22T09:48:06.992Z</time></trkpt><trkpt lat="43.5422017" lon="13.5902167"><ele>227.0</ele><time>2026-03-22T09:48:07.992Z</time></trkpt><trkpt lat="43.5421233" lon="13.5902983"><ele>227.0</ele><time>2026-03-22T09:48:08.99Z</time></trkpt><trkpt lat="43.54207" lon="13.5904083"><ele>227.0</ele><time>2026-03-22T09:48:10.001Z</time></trkpt><trkpt lat="43.5420117" lon="13.5905117"><ele>227.0</ele><time>2026-03-22T09:48:10.993Z</time></trkpt><trkpt lat="43.54194" lon="13.5905967"><ele>227.2</ele><time>2026-03-22T09:48:11.996Z</time></trkpt><trkpt lat="43.54185" lon="13.5906433"><ele>227.39999999999998</ele><time>2026-03-22T09:48:12.99Z</time></trkpt><trkpt lat="43.54174" lon="13.5906767"><ele>227.60000000000002</ele><time>2026-03-22T09:48:13.995Z</time></trkpt><trkpt lat="43.5416333" lon="13.590705"><ele>227.8</ele><time>2026-03-22T09:48:14.998Z</time></trkpt><trkpt lat="43.5415183" lon="13.5907367"><ele>228.0</ele><time>2026-03-22T09:48:15.988Z</time></trkpt><trkpt lat="43.5413933" lon="13.5907667"><ele>228.0</ele><time>2026-03-22T09:48:16.991Z</time></trkpt><trkpt lat="43.5412667" lon="13.5907967"><ele>228.0</ele><time>2026-03-22T09:48:17.99Z</time></trkpt><trkpt lat="43.5411433" lon="13.590835"><ele>228.0</ele><time>2026-03-22T09:48:18.989Z</time></trkpt><trkpt lat="43.5410267" lon="13.590865"><ele>228.0</ele><time>2026-03-22T09:48:19.989Z</time></trkpt><trkpt lat="43.5409183" lon="13.5908983"><ele>228.2</ele><time>2026-03-22T09:48:20.996Z</time></trkpt><trkpt lat="43.54082" lon="13.59093"><ele>228.4</ele><time>2026-03-22T09:48:21.995Z</time></trkpt><trkpt lat="43.540725" lon="13.590965"><ele>228.59999999999997</ele><time>2026-03-22T09:48:22.996Z</time></trkpt><trkpt lat="43.54063" lon="13.59099"><ele>228.79999999999998</ele><time>2026-03-22T09:48:23.999Z</time></trkpt><trkpt lat="43.5405367" lon="13.590985"><ele>229.0</ele><time>2026-03-22T09:48:24.996Z</time></trkpt><trkpt lat="43.5404567" lon="13.5909233"><ele>229.0</ele><time>2026-03-22T09:48:25.994Z</time></trkpt><trkpt lat="43.540385" lon="13.590815"><ele>228.99999999999997</ele><time>2026-03-22T09:48:26.993Z</time></trkpt><trkpt lat="43.5403483" lon="13.5906867"><ele>228.99999999999997</ele><time>2026-03-22T09:48:27.995Z</time></trkpt><trkpt lat="43.5403267" lon="13.5905467"><ele>229.0</ele><time>2026-03-22T09:48:28.994Z</time></trkpt><trkpt lat="43.540325" lon="13.5904133"><ele>229.0</ele><time>2026-03-22T09:48:30.003Z</time></trkpt><trkpt lat="43.5403383" lon="13.5902683"><ele>228.79999999999998</ele><time>2026-03-22T09:48:30.996Z</time></trkpt><trkpt lat="43.5403583" lon="13.5901283"><ele>228.59999999999997</ele><time>2026-03-22T09:48:31.996Z</time></trkpt><trkpt lat="43.5403667" lon="13.5899917"><ele>228.4</ele><time>2026-03-22T09:48:32.996Z</time></trkpt><trkpt lat="43.5403433" lon="13.5898667"><ele>228.2</ele><time>2026-03-22T09:48:33.999Z</time></trkpt><trkpt lat="43.5402917" lon="13.5897667"><ele>228.0</ele><time>2026-03-22T09:48:34.996Z</time></trkpt><trkpt lat="43.5402133" lon="13.5897017"><ele>228.0</ele><time>2026-03-22T09:48:35.998Z</time></trkpt><trkpt lat="43.5401133" lon="13.5896633"><ele>228.0</ele><time>2026-03-22T09:48:36.994Z</time></trkpt><trkpt lat="43.5400017" lon="13.5896467"><ele>228.0</ele><time>2026-03-22T09:48:37.998Z</time></trkpt><trkpt lat="43.5398817" lon="13.5896417"><ele>228.0</ele><time>2026-03-22T09:48:38.996Z</time></trkpt><trkpt lat="43.5397483" lon="13.5896517"><ele>228.0</ele><time>2026-03-22T09:48:39.994Z</time></trkpt><trkpt lat="43.5395883" lon="13.58968"><ele>228.0</ele><time>2026-03-22T09:48:40.994Z</time></trkpt><trkpt lat="43.5394117" lon="13.5897133"><ele>228.0</ele><time>2026-03-22T09:48:41.996Z</time></trkpt><trkpt lat="43.5392383" lon="13.589735"><ele>228.5</ele><time>2026-03-22T09:48:42.996Z</time></trkpt><trkpt lat="43.5390767" lon="13.5897533"><ele>229.0</ele><time>2026-03-22T09:48:43.996Z</time></trkpt><trkpt lat="43.53893" lon="13.58977"><ele>229.5</ele><time>2026-03-22T09:48:45Z</time></trkpt><trkpt lat="43.5387917" lon="13.5897783"><ele>230.0</ele><time>2026-03-22T09:48:45.994Z</time></trkpt><trkpt lat="43.5386617" lon="13.5897783"><ele>230.75</ele><time>2026-03-22T09:48:46.998Z</time></trkpt><trkpt lat="43.5385317" lon="13.5897717"><ele>231.5</ele><time>2026-03-22T09:48:47.991Z</time></trkpt><trkpt lat="43.53841" lon="13.5897583"><ele>232.25</ele><time>2026-03-22T09:48:48.995Z</time></trkpt><trkpt lat="43.5382933" lon="13.589755"><ele>233.0</ele><time>2026-03-22T09:48:49.993Z</time></trkpt><trkpt lat="43.5381767" lon="13.5897733"><ele>233.0</ele><time>2026-03-22T09:48:50.997Z</time></trkpt><trkpt lat="43.5380633" lon="13.5898233"><ele>233.0</ele><time>2026-03-22T09:48:51.994Z</time></trkpt><trkpt lat="43.5379483" lon="13.5898833"><ele>233.0</ele><time>2026-03-22T09:48:52.992Z</time></trkpt><trkpt lat="43.5378383" lon="13.589945"><ele>233.0</ele><time>2026-03-22T09:48:53.991Z</time></trkpt><trkpt lat="43.5377367" lon="13.5900217"><ele>233.0</ele><time>2026-03-22T09:48:54.992Z</time></trkpt><trkpt lat="43.5376267" lon="13.590115"><ele>233.0</ele><time>2026-03-22T09:48:55.996Z</time></trkpt><trkpt lat="43.5375217" lon="13.5902183"><ele>233.0</ele><time>2026-03-22T09:48:56.998Z</time></trkpt><trkpt lat="43.53742" lon="13.5903233"><ele>233.0</ele><time>2026-03-22T09:48:57.995Z</time></trkpt><trkpt lat="43.5373217" lon="13.59044"><ele>233.0</ele><time>2026-03-22T09:48:58.993Z</time></trkpt><trkpt lat="43.5372333" lon="13.59057"><ele>233.0</ele><time>2026-03-22T09:48:59.994Z</time></trkpt><trkpt lat="43.5371533" lon="13.59072"><ele>233.0</ele><time>2026-03-22T09:49:00.999Z</time></trkpt><trkpt lat="43.5370883" lon="13.5908933"><ele>233.0</ele><time>2026-03-22T09:49:01.997Z</time></trkpt><trkpt lat="43.5370167" lon="13.5910667"><ele>231.25</ele><time>2026-03-22T09:49:02.993Z</time></trkpt><trkpt lat="43.5369317" lon="13.5912317"><ele>229.5</ele><time>2026-03-22T09:49:03.996Z</time></trkpt><trkpt lat="43.5368483" lon="13.5913817"><ele>227.75</ele><time>2026-03-22T09:49:04.993Z</time></trkpt><trkpt lat="43.536755" lon="13.591515"><ele>226.0</ele><time>2026-03-22T09:49:05.998Z</time></trkpt><trkpt lat="43.5366567" lon="13.5916367"><ele>226.0</ele><time>2026-03-22T09:49:06.995Z</time></trkpt><trkpt lat="43.536545" lon="13.5917333"><ele>226.0</ele><time>2026-03-22T09:49:07.993Z</time></trkpt><trkpt lat="43.5364267" lon="13.591785"><ele>226.0</ele><time>2026-03-22T09:49:08.996Z</time></trkpt><trkpt lat="43.5363133" lon="13.5918033"><ele>226.0</ele><time>2026-03-22T09:49:09.992Z</time></trkpt><trkpt lat="43.5361817" lon="13.5918167"><ele>225.5</ele><time>2026-03-22T09:49:10.99Z</time></trkpt><trkpt lat="43.53605" lon="13.5918483"><ele>225.0</ele><time>2026-03-22T09:49:11.994Z</time></trkpt><trkpt lat="43.5359233" lon="13.5919"><ele>224.5</ele><time>2026-03-22T09:49:12.994Z</time></trkpt><trkpt lat="43.5358083" lon="13.5919667"><ele>224.0</ele><time>2026-03-22T09:49:13.989Z</time></trkpt><trkpt lat="43.5357133" lon="13.5920633"><ele>224.0</ele><time>2026-03-22T09:49:14.993Z</time></trkpt><trkpt lat="43.5356367" lon="13.5922017"><ele>224.0</ele><time>2026-03-22T09:49:15.994Z</time></trkpt><trkpt lat="43.53559" lon="13.5923667"><ele>224.0</ele><time>2026-03-22T09:49:16.994Z</time></trkpt><trkpt lat="43.5355517" lon="13.592535"><ele>224.0</ele><time>2026-03-22T09:49:17.996Z</time></trkpt><trkpt lat="43.5355183" lon="13.5927033"><ele>225.75</ele><time>2026-03-22T09:49:19Z</time></trkpt><trkpt lat="43.5354817" lon="13.5928617"><ele>227.5</ele><time>2026-03-22T09:49:20.001Z</time></trkpt><trkpt lat="43.53543" lon="13.5930217"><ele>229.25</ele><time>2026-03-22T09:49:20.999Z</time></trkpt><trkpt lat="43.5353583" lon="13.5931717"><ele>231.0</ele><time>2026-03-22T09:49:21.993Z</time></trkpt><trkpt lat="43.5352617" lon="13.5932933"><ele>227.25</ele><time>2026-03-22T09:49:22.999Z</time></trkpt><trkpt lat="43.5351483" lon="13.5933933"><ele>223.5</ele><time>2026-03-22T09:49:23.996Z</time></trkpt><trkpt lat="43.535025" lon="13.5934667"><ele>219.75</ele><time>2026-03-22T09:49:24.995Z</time></trkpt><trkpt lat="43.5349" lon="13.5935183"><ele>216.0</ele><time>2026-03-22T09:49:25.992Z</time></trkpt><trkpt lat="43.5347683" lon="13.5935433"><ele>216.0</ele><time>2026-03-22T09:49:26.993Z</time></trkpt><trkpt lat="43.53464" lon="13.5935317"><ele>216.0</ele><time>2026-03-22T09:49:27.993Z</time></trkpt><trkpt lat="43.5345217" lon="13.5934917"><ele>216.0</ele><time>2026-03-22T09:49:28.993Z</time></trkpt><trkpt lat="43.5344033" lon="13.5934383"><ele>216.0</ele><time>2026-03-22T09:49:29.988Z</time></trkpt><trkpt lat="43.53428" lon="13.5934033"><ele>214.5</ele><time>2026-03-22T09:49:30.994Z</time></trkpt><trkpt lat="43.5341583" lon="13.5934267"><ele>213.0</ele><time>2026-03-22T09:49:31.996Z</time></trkpt><trkpt lat="43.5340367" lon="13.593505"><ele>211.5</ele><time>2026-03-22T09:49:32.989Z</time></trkpt><trkpt lat="43.533935" lon="13.5936267"><ele>210.0</ele><time>2026-03-22T09:49:33.993Z</time></trkpt><trkpt lat="43.5338383" lon="13.5937517"><ele>211.0</ele><time>2026-03-22T09:49:34.993Z</time></trkpt><trkpt lat="43.5337483" lon="13.593875"><ele>212.0</ele><time>2026-03-22T09:49:35.996Z</time></trkpt><trkpt lat="43.533655" lon="13.593995"><ele>213.0</ele><time>2026-03-22T09:49:36.995Z</time></trkpt><trkpt lat="43.533555" lon="13.5940967"><ele>214.0</ele><time>2026-03-22T09:49:37.99Z</time></trkpt><trkpt lat="43.5334417" lon="13.5941583"><ele>214.0</ele><time>2026-03-22T09:49:38.995Z</time></trkpt><trkpt lat="43.5333233" lon="13.5941683"><ele>214.0</ele><time>2026-03-22T09:49:39.993Z</time></trkpt><trkpt lat="43.5332033" lon="13.5941183"><ele>214.0</ele><time>2026-03-22T09:49:40.994Z</time></trkpt><trkpt lat="43.5331017" lon="13.594035"><ele>214.0</ele><time>2026-03-22T09:49:41.999Z</time></trkpt><trkpt lat="43.5330017" lon="13.5939517"><ele>214.0</ele><time>2026-03-22T09:49:42.995Z</time></trkpt><trkpt lat="43.5328917" lon="13.5939167"><ele>214.0</ele><time>2026-03-22T09:49:43.994Z</time></trkpt><trkpt lat="43.5327717" lon="13.5939067"><ele>214.0</ele><time>2026-03-22T09:49:44.99Z</time></trkpt><trkpt lat="43.5326467" lon="13.5939217"><ele>214.0</ele><time>2026-03-22T09:49:45.993Z</time></trkpt><trkpt lat="43.53253" lon="13.5939883"><ele>213.0</ele><time>2026-03-22T09:49:46.994Z</time></trkpt><trkpt lat="43.5324183" lon="13.5940983"><ele>212.0</ele><time>2026-03-22T09:49:47.993Z</time></trkpt><trkpt lat="43.532315" lon="13.5942633"><ele>211.0</ele><time>2026-03-22T09:49:48.989Z</time></trkpt><trkpt lat="43.5321967" lon="13.5944667"><ele>213.66666666666666</ele><time>2026-03-22T09:49:49.991Z</time></trkpt><trkpt lat="43.5320583" lon="13.5946833"><ele>216.33333333333331</ele><time>2026-03-22T09:49:50.997Z</time></trkpt><trkpt lat="43.5319117" lon="13.5949117"><ele>219.0</ele><time>2026-03-22T09:49:51.993Z</time></trkpt><trkpt lat="43.531765" lon="13.5951433"><ele>213.5</ele><time>2026-03-22T09:49:52.993Z</time></trkpt><trkpt lat="43.5316117" lon="13.5953817"><ele>208.0</ele><time>2026-03-22T09:49:53.995Z</time></trkpt><trkpt lat="43.5314583" lon="13.59563"><ele>208.0</ele><time>2026-03-22T09:49:54.993Z</time></trkpt><trkpt lat="43.5313067" lon="13.59587"><ele>208.0</ele><time>2026-03-22T09:49:55.993Z</time></trkpt><trkpt lat="43.5311517" lon="13.59609"><ele>205.66666666666666</ele><time>2026-03-22T09:49:56.998Z</time></trkpt><trkpt lat="43.5309983" lon="13.5962967"><ele>203.33333333333331</ele><time>2026-03-22T09:49:57.995Z</time></trkpt><trkpt lat="43.5308517" lon="13.59649"><ele>201.0</ele><time>2026-03-22T09:49:58.989Z</time></trkpt><trkpt lat="43.5307117" lon="13.5966733"><ele>201.0</ele><time>2026-03-22T09:49:59.993Z</time></trkpt><trkpt lat="43.5305883" lon="13.596855"><ele>201.0</ele><time>2026-03-22T09:50:00.994Z</time></trkpt><trkpt lat="43.53049" lon="13.59705"><ele>201.0</ele><time>2026-03-22T09:50:01.995Z</time></trkpt><trkpt lat="43.53043" lon="13.59727"><ele>201.66666666666669</ele><time>2026-03-22T09:50:02.994Z</time></trkpt><trkpt lat="43.530415" lon="13.597485"><ele>202.33333333333334</ele><time>2026-03-22T09:50:03.99Z</time></trkpt><trkpt lat="43.53045" lon="13.5976967"><ele>203.0</ele><time>2026-03-22T09:50:04.99Z</time></trkpt><trkpt lat="43.530535" lon="13.5978933"><ele>201.0</ele><time>2026-03-22T09:50:05.992Z</time></trkpt><trkpt lat="43.5306617" lon="13.5980567"><ele>199.0</ele><time>2026-03-22T09:50:06.994Z</time></trkpt><trkpt lat="43.530835" lon="13.5981867"><ele>197.0</ele><time>2026-03-22T09:50:07.993Z</time></trkpt><trkpt lat="43.5310633" lon="13.5982517"><ele>198.5</ele><time>2026-03-22T09:50:08.992Z</time></trkpt><trkpt lat="43.531305" lon="13.5982933"><ele>200.0</ele><time>2026-03-22T09:50:09.994Z</time></trkpt><trkpt lat="43.531525" lon="13.5983433"><ele>200.0</ele><time>2026-03-22T09:50:10.993Z</time></trkpt><trkpt lat="43.5317367" lon="13.598405"><ele>200.0</ele><time>2026-03-22T09:50:11.99Z</time></trkpt><trkpt lat="43.5319317" lon="13.5984967"><ele>200.0</ele><time>2026-03-22T09:50:12.997Z</time></trkpt><trkpt lat="43.5321033" lon="13.598635"><ele>201.0</ele><time>2026-03-22T09:50:13.999Z</time></trkpt><trkpt lat="43.5322417" lon="13.598805"><ele>202.0</ele><time>2026-03-22T09:50:14.996Z</time></trkpt><trkpt lat="43.5323383" lon="13.5990167"><ele>203.0</ele><time>2026-03-22T09:50:15.988Z</time></trkpt><trkpt lat="43.5323817" lon="13.5992633"><ele>204.0</ele><time>2026-03-22T09:50:16.995Z</time></trkpt><trkpt lat="43.532375" lon="13.599515"><ele>205.0</ele><time>2026-03-22T09:50:17.992Z</time></trkpt><trkpt lat="43.5323333" lon="13.5997383"><ele>206.0</ele><time>2026-03-22T09:50:18.99Z</time></trkpt><trkpt lat="43.5322517" lon="13.599935"><ele>206.0</ele><time>2026-03-22T09:50:19.998Z</time></trkpt><trkpt lat="43.53215" lon="13.600115"><ele>206.0</ele><time>2026-03-22T09:50:20.996Z</time></trkpt><trkpt lat="43.5320233" lon="13.6002833"><ele>206.0</ele><time>2026-03-22T09:50:21.994Z</time></trkpt><trkpt lat="43.5318817" lon="13.6004467"><ele>202.33333333333334</ele><time>2026-03-22T09:50:22.995Z</time></trkpt><trkpt lat="43.5317383" lon="13.60062"><ele>198.66666666666669</ele><time>2026-03-22T09:50:23.995Z</time></trkpt><trkpt lat="43.5315983" lon="13.6008033"><ele>195.0</ele><time>2026-03-22T09:50:24.996Z</time></trkpt><trkpt lat="43.5314567" lon="13.6009883"><ele>197.0</ele><time>2026-03-22T09:50:25.995Z</time></trkpt><trkpt lat="43.53131" lon="13.60118"><ele>199.0</ele><time>2026-03-22T09:50:26.995Z</time></trkpt><trkpt lat="43.5311633" lon="13.6013733"><ele>201.0</ele><time>2026-03-22T09:50:27.995Z</time></trkpt><trkpt lat="43.5310183" lon="13.6015633"><ele>198.66666666666669</ele><time>2026-03-22T09:50:28.994Z</time></trkpt><trkpt lat="43.53088" lon="13.6017467"><ele>196.33333333333334</ele><time>2026-03-22T09:50:29.999Z</time></trkpt><trkpt lat="43.5307483" lon="13.6019183"><ele>194.0</ele><time>2026-03-22T09:50:30.991Z</time></trkpt><trkpt lat="43.530625" lon="13.6020817"><ele>194.0</ele><time>2026-03-22T09:50:31.986Z</time></trkpt><trkpt lat="43.5305033" lon="13.6022433"><ele>194.0</ele><time>2026-03-22T09:50:32.989Z</time></trkpt><trkpt lat="43.5303867" lon="13.6023933"><ele>194.0</ele><time>2026-03-22T09:50:33.989Z</time></trkpt><trkpt lat="43.5302717" lon="13.602535"><ele>190.5</ele><time>2026-03-22T09:50:34.99Z</time></trkpt><trkpt lat="43.5301583" lon="13.6026667"><ele>187.0</ele><time>2026-03-22T09:50:35.995Z</time></trkpt><trkpt lat="43.5300533" lon="13.6027983"><ele>183.5</ele><time>2026-03-22T09:50:36.994Z</time></trkpt><trkpt lat="43.5299617" lon="13.60293"><ele>180.0</ele><time>2026-03-22T09:50:37.993Z</time></trkpt><trkpt lat="43.529885" lon="13.60306"><ele>180.0</ele><time>2026-03-22T09:50:38.994Z</time></trkpt><trkpt lat="43.5298367" lon="13.6031933"><ele>180.0</ele><time>2026-03-22T09:50:39.988Z</time></trkpt><trkpt lat="43.5298217" lon="13.60334"><ele>180.0</ele><time>2026-03-22T09:50:40.992Z</time></trkpt><trkpt lat="43.5298383" lon="13.6034817"><ele>180.0</ele><time>2026-03-22T09:50:41.995Z</time></trkpt><trkpt lat="43.5298883" lon="13.6036"><ele>180.0</ele><time>2026-03-22T09:50:42.993Z</time></trkpt><trkpt lat="43.529965" lon="13.603695"><ele>178.25</ele><time>2026-03-22T09:50:43.995Z</time></trkpt><trkpt lat="43.5300683" lon="13.60375"><ele>176.5</ele><time>2026-03-22T09:50:44.991Z</time></trkpt><trkpt lat="43.5301867" lon="13.6037583"><ele>174.75</ele><time>2026-03-22T09:50:45.995Z</time></trkpt><trkpt lat="43.5303367" lon="13.603745"><ele>173.0</ele><time>2026-03-22T09:50:46.997Z</time></trkpt><trkpt lat="43.53052" lon="13.60373"><ele>173.0</ele><time>2026-03-22T09:50:47.995Z</time></trkpt><trkpt lat="43.5307033" lon="13.6037233"><ele>173.0</ele><time>2026-03-22T09:50:48.992Z</time></trkpt><trkpt lat="43.53089" lon="13.6037167"><ele>173.0</ele><time>2026-03-22T09:50:49.99Z</time></trkpt><trkpt lat="43.5310717" lon="13.6037217"><ele>174.33333333333331</ele><time>2026-03-22T09:50:50.992Z</time></trkpt><trkpt lat="43.5312433" lon="13.6037667"><ele>175.66666666666666</ele><time>2026-03-22T09:50:51.99Z</time></trkpt><trkpt lat="43.53139" lon="13.6038617"><ele>177.0</ele><time>2026-03-22T09:50:52.991Z</time></trkpt><trkpt lat="43.5315" lon="13.6040067"><ele>177.0</ele><time>2026-03-22T09:50:53.991Z</time></trkpt><trkpt lat="43.5315967" lon="13.6041483"><ele>177.0</ele><time>2026-03-22T09:50:54.989Z</time></trkpt><trkpt lat="43.53164" lon="13.60436"><ele>177.0</ele><time>2026-03-22T09:50:55.994Z</time></trkpt><trkpt lat="43.5316283" lon="13.60458"><ele>176.0</ele><time>2026-03-22T09:50:56.998Z</time></trkpt><trkpt lat="43.5315733" lon="13.6047967"><ele>175.0</ele><time>2026-03-22T09:50:57.993Z</time></trkpt><trkpt lat="43.5315033" lon="13.6049817"><ele>174.0</ele><time>2026-03-22T09:50:58.992Z</time></trkpt><trkpt lat="43.5313967" lon="13.605145"><ele>174.0</ele><time>2026-03-22T09:50:59.992Z</time></trkpt><trkpt lat="43.5312983" lon="13.60529"><ele>174.0</ele><time>2026-03-22T09:51:00.996Z</time></trkpt><trkpt lat="43.5311933" lon="13.60543"><ele>174.0</ele><time>2026-03-22T09:51:01.996Z</time></trkpt><trkpt lat="43.53108" lon="13.60557"><ele>174.0</ele><time>2026-03-22T09:51:02.999Z</time></trkpt><trkpt lat="43.530965" lon="13.6057133"><ele>173.0</ele><time>2026-03-22T09:51:03.992Z</time></trkpt><trkpt lat="43.5308517" lon="13.60586"><ele>172.0</ele><time>2026-03-22T09:51:04.996Z</time></trkpt><trkpt lat="43.5307383" lon="13.606"><ele>171.0</ele><time>2026-03-22T09:51:05.993Z</time></trkpt><trkpt lat="43.530625" lon="13.6061483"><ele>172.66666666666666</ele><time>2026-03-22T09:51:06.992Z</time></trkpt><trkpt lat="43.53051" lon="13.6062917"><ele>174.33333333333331</ele><time>2026-03-22T09:51:07.99Z</time></trkpt><trkpt lat="43.5303817" lon="13.6064467"><ele>176.0</ele><time>2026-03-22T09:51:08.994Z</time></trkpt><trkpt lat="43.530245" lon="13.6066217"><ele>173.33333333333331</ele><time>2026-03-22T09:51:09.995Z</time></trkpt><trkpt lat="43.5301033" lon="13.6068033"><ele>170.66666666666666</ele><time>2026-03-22T09:51:10.996Z</time></trkpt><trkpt lat="43.5299633" lon="13.60698"><ele>168.0</ele><time>2026-03-22T09:51:11.993Z</time></trkpt><trkpt lat="43.5298183" lon="13.6071517"><ele>168.0</ele><time>2026-03-22T09:51:12.992Z</time></trkpt><trkpt lat="43.5296683" lon="13.6073083"><ele>168.0</ele><time>2026-03-22T09:51:13.991Z</time></trkpt><trkpt lat="43.5295167" lon="13.6074417"><ele>168.0</ele><time>2026-03-22T09:51:14.997Z</time></trkpt><trkpt lat="43.52935" lon="13.6075483"><ele>164.33333333333334</ele><time>2026-03-22T09:51:15.99Z</time></trkpt><trkpt lat="43.52917" lon="13.6076233"><ele>160.66666666666669</ele><time>2026-03-22T09:51:16.995Z</time></trkpt><trkpt lat="43.5289833" lon="13.60769"><ele>157.0</ele><time>2026-03-22T09:51:17.996Z</time></trkpt><trkpt lat="43.5287933" lon="13.6077417"><ele>156.66666666666669</ele><time>2026-03-22T09:51:18.997Z</time></trkpt><trkpt lat="43.5286033" lon="13.6078033"><ele>156.33333333333334</ele><time>2026-03-22T09:51:19.996Z</time></trkpt><trkpt lat="43.528415" lon="13.6078817"><ele>156.0</ele><time>2026-03-22T09:51:20.995Z</time></trkpt><trkpt lat="43.5282317" lon="13.6079883"><ele>156.0</ele><time>2026-03-22T09:51:21.99Z</time></trkpt><trkpt lat="43.5280583" lon="13.6081217"><ele>156.0</ele><time>2026-03-22T09:51:22.996Z</time></trkpt><trkpt lat="43.52789" lon="13.608275"><ele>156.0</ele><time>2026-03-22T09:51:23.997Z</time></trkpt><trkpt lat="43.5277283" lon="13.6084433"><ele>154.66666666666666</ele><time>2026-03-22T09:51:24.994Z</time></trkpt><trkpt lat="43.5275633" lon="13.608615"><ele>153.33333333333331</ele><time>2026-03-22T09:51:25.994Z</time></trkpt><trkpt lat="43.5273967" lon="13.6087817"><ele>152.0</ele><time>2026-03-22T09:51:26.996Z</time></trkpt><trkpt lat="43.5272283" lon="13.6089417"><ele>148.66666666666666</ele><time>2026-03-22T09:51:27.991Z</time></trkpt><trkpt lat="43.527055" lon="13.60911"><ele>145.33333333333334</ele><time>2026-03-22T09:51:28.995Z</time></trkpt><trkpt lat="43.5268833" lon="13.6092817"><ele>142.0</ele><time>2026-03-22T09:51:29.993Z</time></trkpt><trkpt lat="43.52671" lon="13.6094533"><ele>141.0</ele><time>2026-03-22T09:51:30.996Z</time></trkpt><trkpt lat="43.5265367" lon="13.6096217"><ele>140.0</ele><time>2026-03-22T09:51:31.994Z</time></trkpt><trkpt lat="43.526365" lon="13.6097867"><ele>139.0</ele><time>2026-03-22T09:51:32.994Z</time></trkpt><trkpt lat="43.5262" lon="13.6099533"><ele>139.0</ele><time>2026-03-22T09:51:33.992Z</time></trkpt><trkpt lat="43.52605" lon="13.61012"><ele>139.0</ele><time>2026-03-22T09:51:34.995Z</time></trkpt><trkpt lat="43.52592" lon="13.6102983"><ele>139.0</ele><time>2026-03-22T09:51:35.994Z</time></trkpt><trkpt lat="43.52581" lon="13.610485"><ele>141.33333333333334</ele><time>2026-03-22T09:51:36.995Z</time></trkpt><trkpt lat="43.5257133" lon="13.6106883"><ele>143.66666666666666</ele><time>2026-03-22T09:51:37.991Z</time></trkpt><trkpt lat="43.5256317" lon="13.610925"><ele>146.0</ele><time>2026-03-22T09:51:38.993Z</time></trkpt><trkpt lat="43.5255683" lon="13.6111767"><ele>146.33333333333331</ele><time>2026-03-22T09:51:39.991Z</time></trkpt><trkpt lat="43.52551" lon="13.6114333"><ele>146.66666666666666</ele><time>2026-03-22T09:51:40.995Z</time></trkpt><trkpt lat="43.525455" lon="13.611685"><ele>147.0</ele><time>2026-03-22T09:51:41.993Z</time></trkpt><trkpt lat="43.5254283" lon="13.6119133"><ele>144.33333333333334</ele><time>2026-03-22T09:51:42.993Z</time></trkpt><trkpt lat="43.52545" lon="13.612135"><ele>141.66666666666669</ele><time>2026-03-22T09:51:43.988Z</time></trkpt><trkpt lat="43.525525" lon="13.6123367"><ele>139.0</ele><time>2026-03-22T09:51:44.994Z</time></trkpt><trkpt lat="43.5256267" lon="13.612505"><ele>139.0</ele><time>2026-03-22T09:51:45.992Z</time></trkpt><trkpt lat="43.5257683" lon="13.6126117"><ele>139.0</ele><time>2026-03-22T09:51:46.994Z</time></trkpt><trkpt lat="43.5259433" lon="13.6126233"><ele>139.0</ele><time>2026-03-22T09:51:47.992Z</time></trkpt><trkpt lat="43.5261417" lon="13.612565"><ele>136.5</ele><time>2026-03-22T09:51:48.99Z</time></trkpt><trkpt lat="43.5263583" lon="13.6124533"><ele>134.0</ele><time>2026-03-22T09:51:49.994Z</time></trkpt><trkpt lat="43.5265633" lon="13.6123417"><ele>134.0</ele><time>2026-03-22T09:51:50.992Z</time></trkpt><trkpt lat="43.526755" lon="13.6122517"><ele>134.0</ele><time>2026-03-22T09:51:51.991Z</time></trkpt><trkpt lat="43.5269367" lon="13.6121717"><ele>134.0</ele><time>2026-03-22T09:51:52.995Z</time></trkpt><trkpt lat="43.527115" lon="13.6121383"><ele>132.66666666666666</ele><time>2026-03-22T09:51:53.997Z</time></trkpt><trkpt lat="43.52728" lon="13.612145"><ele>131.33333333333334</ele><time>2026-03-22T09:51:54.995Z</time></trkpt><trkpt lat="43.5274467" lon="13.6121967"><ele>130.0</ele><time>2026-03-22T09:51:55.994Z</time></trkpt><trkpt lat="43.5276017" lon="13.6122817"><ele>130.0</ele><time>2026-03-22T09:51:56.995Z</time></trkpt><trkpt lat="43.5277483" lon="13.6123983"><ele>130.0</ele><time>2026-03-22T09:51:57.991Z</time></trkpt><trkpt lat="43.52788" lon="13.6125417"><ele>130.0</ele><time>2026-03-22T09:51:58.993Z</time></trkpt><trkpt lat="43.527995" lon="13.61271"><ele>130.0</ele><time>2026-03-22T09:51:59.988Z</time></trkpt><trkpt lat="43.528085" lon="13.61289"><ele>130.0</ele><time>2026-03-22T09:52:00.995Z</time></trkpt><trkpt lat="43.528155" lon="13.61307"><ele>130.0</ele><time>2026-03-22T09:52:01.991Z</time></trkpt><trkpt lat="43.5282033" lon="13.61327"><ele>130.0</ele><time>2026-03-22T09:52:02.991Z</time></trkpt><trkpt lat="43.5282267" lon="13.6134817"><ele>130.0</ele><time>2026-03-22T09:52:03.99Z</time></trkpt><trkpt lat="43.528225" lon="13.6136883"><ele>130.0</ele><time>2026-03-22T09:52:04.995Z</time></trkpt><trkpt lat="43.52821" lon="13.6138817"><ele>130.0</ele><time>2026-03-22T09:52:05.991Z</time></trkpt><trkpt lat="43.52817" lon="13.6140733"><ele>129.5</ele><time>2026-03-22T09:52:06.993Z</time></trkpt><trkpt lat="43.5281183" lon="13.6142683"><ele>129.0</ele><time>2026-03-22T09:52:07.991Z</time></trkpt><trkpt lat="43.528045" lon="13.61445"><ele>128.5</ele><time>2026-03-22T09:52:08.994Z</time></trkpt><trkpt lat="43.5279633" lon="13.6146117"><ele>128.0</ele><time>2026-03-22T09:52:09.991Z</time></trkpt><trkpt lat="43.5278683" lon="13.61476"><ele>126.0</ele><time>2026-03-22T09:52:10.995Z</time></trkpt><trkpt lat="43.527755" lon="13.6148983"><ele>124.0</ele><time>2026-03-22T09:52:11.997Z</time></trkpt><trkpt lat="43.527635" lon="13.6150267"><ele>122.0</ele><time>2026-03-22T09:52:12.991Z</time></trkpt><trkpt lat="43.527515" lon="13.61515"><ele>122.0</ele><time>2026-03-22T09:52:13.996Z</time></trkpt><trkpt lat="43.5273917" lon="13.61527"><ele>122.0</ele><time>2026-03-22T09:52:14.995Z</time></trkpt><trkpt lat="43.52728" lon="13.6153733"><ele>122.0</ele><time>2026-03-22T09:52:15.994Z</time></trkpt><trkpt lat="43.5271783" lon="13.6154683"><ele>122.0</ele><time>2026-03-22T09:52:16.993Z</time></trkpt><trkpt lat="43.5270833" lon="13.6155583"><ele>121.33333333333333</ele><time>2026-03-22T09:52:17.995Z</time></trkpt><trkpt lat="43.526995" lon="13.6156417"><ele>120.66666666666666</ele><time>2026-03-22T09:52:18.994Z</time></trkpt><trkpt lat="43.52691" lon="13.6157067"><ele>120.0</ele><time>2026-03-22T09:52:19.992Z</time></trkpt><trkpt lat="43.5268333" lon="13.6157667"><ele>119.33333333333334</ele><time>2026-03-22T09:52:20.997Z</time></trkpt><trkpt lat="43.526765" lon="13.61581"><ele>118.66666666666667</ele><time>2026-03-22T09:52:21.994Z</time></trkpt><trkpt lat="43.526695" lon="13.6158433"><ele>118.0</ele><time>2026-03-22T09:52:22.992Z</time></trkpt><trkpt lat="43.52662" lon="13.6158667"><ele>118.0</ele><time>2026-03-22T09:52:23.994Z</time></trkpt><trkpt lat="43.5265467" lon="13.6158633"><ele>118.00000000000001</ele><time>2026-03-22T09:52:24.995Z</time></trkpt><trkpt lat="43.5264633" lon="13.6158367"><ele>118.00000000000001</ele><time>2026-03-22T09:52:25.995Z</time></trkpt><trkpt lat="43.5263833" lon="13.6157783"><ele>118.0</ele><time>2026-03-22T09:52:26.993Z</time></trkpt><trkpt lat="43.5263" lon="13.6156817"><ele>118.0</ele><time>2026-03-22T09:52:27.989Z</time></trkpt><trkpt lat="43.52622" lon="13.615555"><ele>116.5</ele><time>2026-03-22T09:52:28.993Z</time></trkpt><trkpt lat="43.5261433" lon="13.61542"><ele>115.0</ele><time>2026-03-22T09:52:29.992Z</time></trkpt><trkpt lat="43.526065" lon="13.6152733"><ele>113.5</ele><time>2026-03-22T09:52:30.991Z</time></trkpt><trkpt lat="43.5259867" lon="13.6151233"><ele>112.0</ele><time>2026-03-22T09:52:31.994Z</time></trkpt><trkpt lat="43.5259083" lon="13.61497"><ele>111.75</ele><time>2026-03-22T09:52:32.992Z</time></trkpt><trkpt lat="43.52583" lon="13.6148117"><ele>111.5</ele><time>2026-03-22T09:52:33.993Z</time></trkpt><trkpt lat="43.5257433" lon="13.6146483"><ele>111.25</ele><time>2026-03-22T09:52:34.995Z</time></trkpt><trkpt lat="43.525665" lon="13.6144867"><ele>111.0</ele><time>2026-03-22T09:52:35.992Z</time></trkpt><trkpt lat="43.5255867" lon="13.6143333"><ele>111.0</ele><time>2026-03-22T09:52:36.989Z</time></trkpt><trkpt lat="43.525515" lon="13.6141933"><ele>111.0</ele><time>2026-03-22T09:52:37.989Z</time></trkpt><trkpt lat="43.5254433" lon="13.614075"><ele>111.0</ele><time>2026-03-22T09:52:38.991Z</time></trkpt><trkpt lat="43.5253717" lon="13.6139833"><ele>111.0</ele><time>2026-03-22T09:52:39.987Z</time></trkpt><trkpt lat="43.5253" lon="13.6139183"><ele>111.0</ele><time>2026-03-22T09:52:40.993Z</time></trkpt><trkpt lat="43.525195" lon="13.6139483"><ele>109.33333333333334</ele><time>2026-03-22T09:52:41.993Z</time></trkpt><trkpt lat="43.5250717" lon="13.6140183"><ele>107.66666666666667</ele><time>2026-03-22T09:52:42.991Z</time></trkpt><trkpt lat="43.5249317" lon="13.6141083"><ele>106.0</ele><time>2026-03-22T09:52:43.992Z</time></trkpt><trkpt lat="43.5247817" lon="13.6142083"><ele>106.0</ele><time>2026-03-22T09:52:44.997Z</time></trkpt><trkpt lat="43.52464" lon="13.6143033"><ele>106.0</ele><time>2026-03-22T09:52:45.998Z</time></trkpt><trkpt lat="43.5245033" lon="13.6144"><ele>106.0</ele><time>2026-03-22T09:52:46.995Z</time></trkpt><trkpt lat="43.52437" lon="13.6144917"><ele>104.5</ele><time>2026-03-22T09:52:47.997Z</time></trkpt><trkpt lat="43.5242417" lon="13.61458"><ele>103.0</ele><time>2026-03-22T09:52:49Z</time></trkpt><trkpt lat="43.52412" lon="13.614665"><ele>101.5</ele><time>2026-03-22T09:52:49.997Z</time></trkpt><trkpt lat="43.524" lon="13.614755"><ele>100.0</ele><time>2026-03-22T09:52:50.995Z</time></trkpt><trkpt lat="43.5238817" lon="13.6148483"><ele>100.0</ele><time>2026-03-22T09:52:51.995Z</time></trkpt><trkpt lat="43.523765" lon="13.6149383"><ele>100.0</ele><time>2026-03-22T09:52:52.996Z</time></trkpt><trkpt lat="43.52365" lon="13.6150267"><ele>100.0</ele><time>2026-03-22T09:52:53.995Z</time></trkpt><trkpt lat="43.52354" lon="13.6151183"><ele>100.0</ele><time>2026-03-22T09:52:54.996Z</time></trkpt><trkpt lat="43.5234383" lon="13.6152"><ele>99.6</ele><time>2026-03-22T09:52:55.997Z</time></trkpt><trkpt lat="43.5233367" lon="13.6152783"><ele>99.2</ele><time>2026-03-22T09:52:56.994Z</time></trkpt><trkpt lat="43.52323" lon="13.615345"><ele>98.80000000000001</ele><time>2026-03-22T09:52:57.996Z</time></trkpt><trkpt lat="43.5231267" lon="13.6153833"><ele>98.4</ele><time>2026-03-22T09:52:58.997Z</time></trkpt><trkpt lat="43.5230217" lon="13.6153967"><ele>98.0</ele><time>2026-03-22T09:52:59.997Z</time></trkpt><trkpt lat="43.5229217" lon="13.6153917"><ele>97.80000000000001</ele><time>2026-03-22T09:53:00.991Z</time></trkpt><trkpt lat="43.5228217" lon="13.6153767"><ele>97.6</ele><time>2026-03-22T09:53:01.994Z</time></trkpt><trkpt lat="43.5227217" lon="13.615355"><ele>97.4</ele><time>2026-03-22T09:53:02.994Z</time></trkpt><trkpt lat="43.5226133" lon="13.615335"><ele>97.19999999999999</ele><time>2026-03-22T09:53:03.993Z</time></trkpt><trkpt lat="43.5225017" lon="13.6153217"><ele>97.0</ele><time>2026-03-22T09:53:04.997Z</time></trkpt><trkpt lat="43.5223817" lon="13.6153017"><ele>97.0</ele><time>2026-03-22T09:53:05.994Z</time></trkpt><trkpt lat="43.522255" lon="13.6152917"><ele>97.0</ele><time>2026-03-22T09:53:06.994Z</time></trkpt><trkpt lat="43.5221133" lon="13.6152817"><ele>97.0</ele><time>2026-03-22T09:53:07.995Z</time></trkpt><trkpt lat="43.5219583" lon="13.6152733"><ele>97.0</ele><time>2026-03-22T09:53:08.997Z</time></trkpt><trkpt lat="43.5217917" lon="13.615265"><ele>97.33333333333334</ele><time>2026-03-22T09:53:09.994Z</time></trkpt><trkpt lat="43.5216183" lon="13.6152567"><ele>97.66666666666666</ele><time>2026-03-22T09:53:10.998Z</time></trkpt><trkpt lat="43.521445" lon="13.6152533"><ele>98.0</ele><time>2026-03-22T09:53:11.993Z</time></trkpt><trkpt lat="43.5212817" lon="13.6152517"><ele>98.0</ele><time>2026-03-22T09:53:12.995Z</time></trkpt><trkpt lat="43.5211217" lon="13.6152433"><ele>98.0</ele><time>2026-03-22T09:53:13.993Z</time></trkpt><trkpt lat="43.5209633" lon="13.6152283"><ele>98.0</ele><time>2026-03-22T09:53:14.992Z</time></trkpt><trkpt lat="43.5208067" lon="13.6152033"><ele>98.0</ele><time>2026-03-22T09:53:15.992Z</time></trkpt><trkpt lat="43.5206483" lon="13.6151783"><ele>98.0</ele><time>2026-03-22T09:53:16.99Z</time></trkpt><trkpt lat="43.5204867" lon="13.6151567"><ele>98.0</ele><time>2026-03-22T09:53:17.993Z</time></trkpt><trkpt lat="43.52033" lon="13.615135"><ele>96.0</ele><time>2026-03-22T09:53:18.992Z</time></trkpt><trkpt lat="43.520175" lon="13.61512"><ele>94.0</ele><time>2026-03-22T09:53:19.995Z</time></trkpt><trkpt lat="43.52002" lon="13.615095"><ele>92.0</ele><time>2026-03-22T09:53:20.996Z</time></trkpt><trkpt lat="43.5198717" lon="13.61507"><ele>92.0</ele><time>2026-03-22T09:53:21.994Z</time></trkpt><trkpt lat="43.5197317" lon="13.6150517"><ele>92.0</ele><time>2026-03-22T09:53:22.994Z</time></trkpt><trkpt lat="43.5196" lon="13.6150283"><ele>92.0</ele><time>2026-03-22T09:53:23.994Z</time></trkpt><trkpt lat="43.5194817" lon="13.614995"><ele>92.0</ele><time>2026-03-22T09:53:24.994Z</time></trkpt><trkpt lat="43.5193733" lon="13.6149617"><ele>90.5</ele><time>2026-03-22T09:53:25.989Z</time></trkpt><trkpt lat="43.5192767" lon="13.6149233"><ele>89.0</ele><time>2026-03-22T09:53:26.99Z</time></trkpt><trkpt lat="43.519195" lon="13.614885"><ele>87.5</ele><time>2026-03-22T09:53:27.998Z</time></trkpt><trkpt lat="43.5191367" lon="13.61485"><ele>86.0</ele><time>2026-03-22T09:53:28.99Z</time></trkpt><trkpt lat="43.51908" lon="13.6148067"><ele>84.5</ele><time>2026-03-22T09:53:30.991Z</time></trkpt><trkpt lat="43.5190117" lon="13.6147283"><ele>83.0</ele><time>2026-03-22T09:53:36.991Z</time></trkpt><trkpt lat="43.5188833" lon="13.6146417"><ele>83.0</ele><time>2026-03-22T09:53:38.99Z</time></trkpt><trkpt lat="43.5187967" lon="13.6146267"><ele>83.0</ele><time>2026-03-22T09:53:39.996Z</time></trkpt><trkpt lat="43.518685" lon="13.6146367"><ele>83.0</ele><time>2026-03-22T09:53:40.994Z</time></trkpt><trkpt lat="43.5185417" lon="13.6146783"><ele>83.0</ele><time>2026-03-22T09:53:41.993Z</time></trkpt><trkpt lat="43.518385" lon="13.614685"><ele>80.33333333333334</ele><time>2026-03-22T09:53:42.995Z</time></trkpt><trkpt lat="43.51822" lon="13.6146717"><ele>77.66666666666667</ele><time>2026-03-22T09:53:43.992Z</time></trkpt><trkpt lat="43.5180667" lon="13.6146467"><ele>75.0</ele><time>2026-03-22T09:53:44.996Z</time></trkpt><trkpt lat="43.51793" lon="13.61462"><ele>73.75</ele><time>2026-03-22T09:53:45.995Z</time></trkpt><trkpt lat="43.5177983" lon="13.614595"><ele>72.5</ele><time>2026-03-22T09:53:47Z</time></trkpt><trkpt lat="43.517675" lon="13.6145733"><ele>71.25</ele><time>2026-03-22T09:53:47.996Z</time></trkpt><trkpt lat="43.51755" lon="13.6145533"><ele>70.0</ele><time>2026-03-22T09:53:48.993Z</time></trkpt><trkpt lat="43.5173967" lon="13.6145367"><ele>70.0</ele><time>2026-03-22T09:53:49.996Z</time></trkpt><trkpt lat="43.5172133" lon="13.6144933"><ele>70.0</ele><time>2026-03-22T09:53:50.993Z</time></trkpt><trkpt lat="43.517015" lon="13.6144333"><ele>70.0</ele><time>2026-03-22T09:53:51.996Z</time></trkpt><trkpt lat="43.5168167" lon="13.6143883"><ele>69.33333333333333</ele><time>2026-03-22T09:53:52.997Z</time></trkpt><trkpt lat="43.51663" lon="13.6143483"><ele>68.66666666666667</ele><time>2026-03-22T09:53:54.002Z</time></trkpt><trkpt lat="43.51645" lon="13.6143167"><ele>68.0</ele><time>2026-03-22T09:53:55.001Z</time></trkpt><trkpt lat="43.5162717" lon="13.614325"><ele>68.0</ele><time>2026-03-22T09:53:56Z</time></trkpt><trkpt lat="43.5160833" lon="13.6143833"><ele>68.0</ele><time>2026-03-22T09:53:56.999Z</time></trkpt><trkpt lat="43.5158833" lon="13.61448"><ele>68.0</ele><time>2026-03-22T09:53:57.99Z</time></trkpt><trkpt lat="43.51569" lon="13.6145817"><ele>66.0</ele><time>2026-03-22T09:53:58.996Z</time></trkpt><trkpt lat="43.5155" lon="13.61468"><ele>64.0</ele><time>2026-03-22T09:53:59.993Z</time></trkpt><trkpt lat="43.5153117" lon="13.6147767"><ele>62.0</ele><time>2026-03-22T09:54:00.995Z</time></trkpt><trkpt lat="43.5151283" lon="13.6148717"><ele>62.0</ele><time>2026-03-22T09:54:01.99Z</time></trkpt><trkpt lat="43.514955" lon="13.61496"><ele>62.0</ele><time>2026-03-22T09:54:02.993Z</time></trkpt><trkpt lat="43.514785" lon="13.6150483"><ele>62.0</ele><time>2026-03-22T09:54:03.993Z</time></trkpt><trkpt lat="43.5146167" lon="13.6151333"><ele>61.0</ele><time>2026-03-22T09:54:04.989Z</time></trkpt><trkpt lat="43.51445" lon="13.6152167"><ele>60.0</ele><time>2026-03-22T09:54:05.992Z</time></trkpt><trkpt lat="43.5142817" lon="13.6153"><ele>59.0</ele><time>2026-03-22T09:54:06.993Z</time></trkpt><trkpt lat="43.5141133" lon="13.61538"><ele>58.66666666666667</ele><time>2026-03-22T09:54:07.995Z</time></trkpt><trkpt lat="43.5139417" lon="13.6154667"><ele>58.33333333333333</ele><time>2026-03-22T09:54:08.99Z</time></trkpt><trkpt lat="43.5137633" lon="13.6155567"><ele>58.0</ele><time>2026-03-22T09:54:09.992Z</time></trkpt><trkpt lat="43.5135817" lon="13.6156467"><ele>58.0</ele><time>2026-03-22T09:54:10.99Z</time></trkpt><trkpt lat="43.5134" lon="13.6157367"><ele>58.0</ele><time>2026-03-22T09:54:11.993Z</time></trkpt><trkpt lat="43.5132183" lon="13.6158183"><ele>58.0</ele><time>2026-03-22T09:54:12.995Z</time></trkpt><trkpt lat="43.5130383" lon="13.6158933"><ele>56.666666666666664</ele><time>2026-03-22T09:54:13.992Z</time></trkpt><trkpt lat="43.5128617" lon="13.6159517"><ele>55.33333333333333</ele><time>2026-03-22T09:54:14.999Z</time></trkpt><trkpt lat="43.5126917" lon="13.6159867"><ele>54.0</ele><time>2026-03-22T09:54:15.991Z</time></trkpt><trkpt lat="43.5125317" lon="13.6160067"><ele>54.0</ele><time>2026-03-22T09:54:16.991Z</time></trkpt><trkpt lat="43.5123767" lon="13.6160183"><ele>54.0</ele><time>2026-03-22T09:54:17.996Z</time></trkpt><trkpt lat="43.51224" lon="13.6160217"><ele>54.0</ele><time>2026-03-22T09:54:18.994Z</time></trkpt><trkpt lat="43.5121133" lon="13.6160183"><ele>54.0</ele><time>2026-03-22T09:54:19.995Z</time></trkpt><trkpt lat="43.5120117" lon="13.616015"><ele>53.833333333333336</ele><time>2026-03-22T09:54:20.993Z</time></trkpt><trkpt lat="43.5119267" lon="13.6160133"><ele>53.66666666666667</ele><time>2026-03-22T09:54:21.995Z</time></trkpt><trkpt lat="43.511855" lon="13.616015"><ele>53.5</ele><time>2026-03-22T09:54:22.988Z</time></trkpt><trkpt lat="43.51179" lon="13.6160183"><ele>53.333333333333336</ele><time>2026-03-22T09:54:23.996Z</time></trkpt><trkpt lat="43.5117267" lon="13.61602"><ele>53.16666666666667</ele><time>2026-03-22T09:54:24.993Z</time></trkpt><trkpt lat="43.5116467" lon="13.6160183"><ele>53.0</ele><time>2026-03-22T09:54:25.994Z</time></trkpt><trkpt lat="43.511545" lon="13.6160133"><ele>53.0</ele><time>2026-03-22T09:54:26.998Z</time></trkpt><trkpt lat="43.511425" lon="13.6160117"><ele>53.0</ele><time>2026-03-22T09:54:27.995Z</time></trkpt><trkpt lat="43.5112933" lon="13.616015"><ele>53.0</ele><time>2026-03-22T09:54:29Z</time></trkpt><trkpt lat="43.5111617" lon="13.6160517"><ele>53.0</ele><time>2026-03-22T09:54:29.996Z</time></trkpt><trkpt lat="43.51104" lon="13.6161267"><ele>51.75</ele><time>2026-03-22T09:54:30.99Z</time></trkpt><trkpt lat="43.5109333" lon="13.6162467"><ele>50.5</ele><time>2026-03-22T09:54:31.996Z</time></trkpt><trkpt lat="43.5108417" lon="13.6163817"><ele>49.25</ele><time>2026-03-22T09:54:32.997Z</time></trkpt><trkpt lat="43.5107633" lon="13.6165083"><ele>48.0</ele><time>2026-03-22T09:54:33.992Z</time></trkpt><trkpt lat="43.5106883" lon="13.6166217"><ele>48.0</ele><time>2026-03-22T09:54:34.992Z</time></trkpt><trkpt lat="43.5106183" lon="13.61672"><ele>48.0</ele><time>2026-03-22T09:54:35.993Z</time></trkpt><trkpt lat="43.5105533" lon="13.6168133"><ele>48.0</ele><time>2026-03-22T09:54:36.993Z</time></trkpt><trkpt lat="43.5104883" lon="13.6169083"><ele>48.0</ele><time>2026-03-22T09:54:37.996Z</time></trkpt><trkpt lat="43.5104067" lon="13.617015"><ele>48.0</ele><time>2026-03-22T09:54:39.002Z</time></trkpt><trkpt lat="43.510305" lon="13.6171467"><ele>46.5</ele><time>2026-03-22T09:54:39.995Z</time></trkpt><trkpt lat="43.510195" lon="13.6172833"><ele>45.0</ele><time>2026-03-22T09:54:40.991Z</time></trkpt><trkpt lat="43.5100833" lon="13.61741"><ele>43.5</ele><time>2026-03-22T09:54:41.991Z</time></trkpt><trkpt lat="43.50997" lon="13.6175383"><ele>42.0</ele><time>2026-03-22T09:54:42.994Z</time></trkpt><trkpt lat="43.5098567" lon="13.617665"><ele>42.0</ele><time>2026-03-22T09:54:43.992Z</time></trkpt><trkpt lat="43.50975" lon="13.6177733"><ele>42.0</ele><time>2026-03-22T09:54:44.996Z</time></trkpt><trkpt lat="43.50964" lon="13.6178783"><ele>42.0</ele><time>2026-03-22T09:54:45.994Z</time></trkpt><trkpt lat="43.5095267" lon="13.6179817"><ele>42.0</ele><time>2026-03-22T09:54:46.992Z</time></trkpt><trkpt lat="43.5094117" lon="13.61808"><ele>40.4</ele><time>2026-03-22T09:54:47.992Z</time></trkpt><trkpt lat="43.5093033" lon="13.6181683"><ele>38.800000000000004</ele><time>2026-03-22T09:54:48.993Z</time></trkpt><trkpt lat="43.5092017" lon="13.61825"><ele>37.2</ele><time>2026-03-22T09:54:49.993Z</time></trkpt><trkpt lat="43.5091117" lon="13.618325"><ele>35.6</ele><time>2026-03-22T09:54:50.997Z</time></trkpt><trkpt lat="43.5090333" lon="13.61839"><ele>34.0</ele><time>2026-03-22T09:54:51.997Z</time></trkpt><trkpt lat="43.5089583" lon="13.6184483"><ele>34.0</ele><time>2026-03-22T09:54:52.99Z</time></trkpt><trkpt lat="43.508885" lon="13.618505"><ele>34.0</ele><time>2026-03-22T09:54:53.999Z</time></trkpt><trkpt lat="43.50881" lon="13.6185633"><ele>34.0</ele><time>2026-03-22T09:54:55.001Z</time></trkpt><trkpt lat="43.5087267" lon="13.618625"><ele>34.0</ele><time>2026-03-22T09:54:55.995Z</time></trkpt><trkpt lat="43.50864" lon="13.6186917"><ele>34.0</ele><time>2026-03-22T09:54:56.998Z</time></trkpt><trkpt lat="43.5085517" lon="13.6187617"><ele>32.8</ele><time>2026-03-22T09:54:57.995Z</time></trkpt><trkpt lat="43.5084667" lon="13.6188333"><ele>31.599999999999998</ele><time>2026-03-22T09:54:58.994Z</time></trkpt><trkpt lat="43.508385" lon="13.6189067"><ele>30.4</ele><time>2026-03-22T09:55:00Z</time></trkpt><trkpt lat="43.5083133" lon="13.6189817"><ele>29.2</ele><time>2026-03-22T09:55:00.991Z</time></trkpt><trkpt lat="43.5082533" lon="13.61907"><ele>28.0</ele><time>2026-03-22T09:55:01.994Z</time></trkpt><trkpt lat="43.50821" lon="13.61917"><ele>28.0</ele><time>2026-03-22T09:55:02.996Z</time></trkpt><trkpt lat="43.5081817" lon="13.6192633"><ele>27.999999999999996</ele><time>2026-03-22T09:55:03.996Z</time></trkpt><trkpt lat="43.50815" lon="13.6193467"><ele>27.999999999999996</ele><time>2026-03-22T09:55:04.99Z</time></trkpt><trkpt lat="43.508125" lon="13.61943"><ele>28.0</ele><time>2026-03-22T09:55:05.995Z</time></trkpt><trkpt lat="43.508065" lon="13.619575"><ele>28.0</ele><time>2026-03-22T09:55:07.994Z</time></trkpt><trkpt lat="43.5079583" lon="13.61967"><ele>28.333333333333336</ele><time>2026-03-22T09:55:09.993Z</time></trkpt><trkpt lat="43.5078783" lon="13.6197033"><ele>28.666666666666668</ele><time>2026-03-22T09:55:10.993Z</time></trkpt><trkpt lat="43.50779" lon="13.6197417"><ele>29.0</ele><time>2026-03-22T09:55:11.996Z</time></trkpt><trkpt lat="43.5077067" lon="13.61979"><ele>29.333333333333336</ele><time>2026-03-22T09:55:12.997Z</time></trkpt><trkpt lat="43.50763" lon="13.61985"><ele>29.666666666666668</ele><time>2026-03-22T09:55:13.993Z</time></trkpt><trkpt lat="43.507565" lon="13.6199183"><ele>30.0</ele><time>2026-03-22T09:55:14.995Z</time></trkpt><trkpt lat="43.5075233" lon="13.620005"><ele>30.0</ele><time>2026-03-22T09:55:15.993Z</time></trkpt><trkpt lat="43.5074983" lon="13.6201017"><ele>30.0</ele><time>2026-03-22T09:55:17Z</time></trkpt><trkpt lat="43.50751" lon="13.6202133"><ele>30.0</ele><time>2026-03-22T09:55:17.99Z</time></trkpt><trkpt lat="43.5075067" lon="13.62031"><ele>30.0</ele><time>2026-03-22T09:55:18.991Z</time></trkpt><trkpt lat="43.5074633" lon="13.6204217"><ele>30.0</ele><time>2026-03-22T09:55:20.991Z</time></trkpt><trkpt lat="43.5073833" lon="13.6203567"><ele>30.0</ele><time>2026-03-22T09:55:22.992Z</time></trkpt><trkpt lat="43.507345" lon="13.6202817"><ele>30.0</ele><time>2026-03-22T09:55:23.989Z</time></trkpt><trkpt lat="43.5073133" lon="13.6201933"><ele>30.0</ele><time>2026-03-22T09:55:24.99Z</time></trkpt><trkpt lat="43.50729" lon="13.6201017"><ele>30.0</ele><time>2026-03-22T09:55:25.996Z</time></trkpt><trkpt lat="43.5072783" lon="13.6200067"><ele>30.0</ele><time>2026-03-22T09:55:26.996Z</time></trkpt><trkpt lat="43.5072767" lon="13.6199"><ele>30.0</ele><time>2026-03-22T09:55:27.992Z</time></trkpt><trkpt lat="43.5072733" lon="13.619785"><ele>30.0</ele><time>2026-03-22T09:55:28.992Z</time></trkpt><trkpt lat="43.507275" lon="13.6196583"><ele>30.0</ele><time>2026-03-22T09:55:29.993Z</time></trkpt><trkpt lat="43.5072717" lon="13.61952"><ele>30.0</ele><time>2026-03-22T09:55:30.996Z</time></trkpt><trkpt lat="43.5072683" lon="13.6193783"><ele>30.0</ele><time>2026-03-22T09:55:31.993Z</time></trkpt><trkpt lat="43.507265" lon="13.61924"><ele>30.0</ele><time>2026-03-22T09:55:32.997Z</time></trkpt><trkpt lat="43.5072583" lon="13.6191033"><ele>30.0</ele><time>2026-03-22T09:55:33.993Z</time></trkpt><trkpt lat="43.507255" lon="13.61896"><ele>30.4</ele><time>2026-03-22T09:55:34.995Z</time></trkpt><trkpt lat="43.5072483" lon="13.61881"><ele>30.8</ele><time>2026-03-22T09:55:35.99Z</time></trkpt><trkpt lat="43.5072433" lon="13.6186533"><ele>31.200000000000003</ele><time>2026-03-22T09:55:36.992Z</time></trkpt><trkpt lat="43.50724" lon="13.6185017"><ele>31.6</ele><time>2026-03-22T09:55:37.993Z</time></trkpt><trkpt lat="43.5072433" lon="13.618355"><ele>32.0</ele><time>2026-03-22T09:55:38.991Z</time></trkpt><trkpt lat="43.5072433" lon="13.6182133"><ele>32.800000000000004</ele><time>2026-03-22T09:55:39.993Z</time></trkpt><trkpt lat="43.5072433" lon="13.6180717"><ele>33.6</ele><time>2026-03-22T09:55:40.994Z</time></trkpt><trkpt lat="43.507245" lon="13.617935"><ele>34.400000000000006</ele><time>2026-03-22T09:55:41.991Z</time></trkpt><trkpt lat="43.5072433" lon="13.6178083"><ele>35.2</ele><time>2026-03-22T09:55:42.997Z</time></trkpt><trkpt lat="43.5072483" lon="13.61769"><ele>36.0</ele><time>2026-03-22T09:55:43.997Z</time></trkpt><trkpt lat="43.5072433" lon="13.6175783"><ele>37.5</ele><time>2026-03-22T09:55:44.992Z</time></trkpt><trkpt lat="43.5072133" lon="13.6174883"><ele>39.0</ele><time>2026-03-22T09:55:45.993Z</time></trkpt><trkpt lat="43.5071533" lon="13.6174417"><ele>40.5</ele><time>2026-03-22T09:55:46.995Z</time></trkpt><trkpt lat="43.5070867" lon="13.61741"><ele>42.0</ele><time>2026-03-22T09:55:47.993Z</time></trkpt><trkpt lat="43.5070067" lon="13.6174633"><ele>43.5</ele><time>2026-03-22T09:55:48.992Z</time></trkpt><trkpt lat="43.5069383" lon="13.617535"><ele>45.0</ele><time>2026-03-22T09:55:49.994Z</time></trkpt><trkpt lat="43.5068333" lon="13.6176717"><ele>47.33333333333333</ele><time>2026-03-22T09:55:50.997Z</time></trkpt><trkpt lat="43.5067033" lon="13.6178233"><ele>49.666666666666664</ele><time>2026-03-22T09:55:51.992Z</time></trkpt><trkpt lat="43.5065617" lon="13.617985"><ele>52.0</ele><time>2026-03-22T09:55:52.994Z</time></trkpt><trkpt lat="43.5064183" lon="13.618145"><ele>52.0</ele><time>2026-03-22T09:55:53.991Z</time></trkpt><trkpt lat="43.5062683" lon="13.6182917"><ele>52.0</ele><time>2026-03-22T09:55:54.991Z</time></trkpt><trkpt lat="43.5061167" lon="13.618425"><ele>52.0</ele><time>2026-03-22T09:55:55.996Z</time></trkpt><trkpt lat="43.5059767" lon="13.61854"><ele>53.25</ele><time>2026-03-22T09:55:56.995Z</time></trkpt><trkpt lat="43.5058567" lon="13.61863"><ele>54.5</ele><time>2026-03-22T09:55:57.993Z</time></trkpt><trkpt lat="43.5057367" lon="13.6186833"><ele>55.75</ele><time>2026-03-22T09:55:58.991Z</time></trkpt><trkpt lat="43.5056067" lon="13.6186883"><ele>57.0</ele><time>2026-03-22T09:55:59.993Z</time></trkpt><trkpt lat="43.50547" lon="13.61863"><ele>56.66666666666667</ele><time>2026-03-22T09:56:00.992Z</time></trkpt><trkpt lat="43.5053167" lon="13.6185067"><ele>56.333333333333336</ele><time>2026-03-22T09:56:01.992Z</time></trkpt><trkpt lat="43.5051567" lon="13.6183717"><ele>56.0</ele><time>2026-03-22T09:56:03.003Z</time></trkpt><trkpt lat="43.5049883" lon="13.6182483"><ele>56.0</ele><time>2026-03-22T09:56:03.992Z</time></trkpt><trkpt lat="43.5048183" lon="13.6181367"><ele>56.0</ele><time>2026-03-22T09:56:04.993Z</time></trkpt><trkpt lat="43.50466" lon="13.618055"><ele>56.0</ele><time>2026-03-22T09:56:05.999Z</time></trkpt><trkpt lat="43.5045" lon="13.6179867"><ele>54.5</ele><time>2026-03-22T09:56:06.995Z</time></trkpt><trkpt lat="43.5043467" lon="13.6179283"><ele>53.0</ele><time>2026-03-22T09:56:07.993Z</time></trkpt><trkpt lat="43.5042033" lon="13.61788"><ele>51.5</ele><time>2026-03-22T09:56:08.991Z</time></trkpt><trkpt lat="43.50407" lon="13.6178483"><ele>50.0</ele><time>2026-03-22T09:56:09.989Z</time></trkpt><trkpt lat="43.5039617" lon="13.6178417"><ele>50.00000000000001</ele><time>2026-03-22T09:56:10.996Z</time></trkpt><trkpt lat="43.5038767" lon="13.6178333"><ele>50.0</ele><time>2026-03-22T09:56:11.99Z</time></trkpt><trkpt lat="43.5038133" lon="13.6178133"><ele>50.0</ele><time>2026-03-22T09:56:12.994Z</time></trkpt><trkpt lat="43.503725" lon="13.6177433"><ele>50.0</ele><time>2026-03-22T09:56:14.994Z</time></trkpt><trkpt lat="43.5036383" lon="13.61765"><ele>50.00000000000001</ele><time>2026-03-22T09:56:16.996Z</time></trkpt><trkpt lat="43.5035717" lon="13.61759"><ele>50.0</ele><time>2026-03-22T09:56:17.999Z</time></trkpt><trkpt lat="43.5034933" lon="13.61754"><ele>49.8</ele><time>2026-03-22T09:56:18.992Z</time></trkpt><trkpt lat="43.5034083" lon="13.6175117"><ele>49.6</ele><time>2026-03-22T09:56:19.995Z</time></trkpt><trkpt lat="43.503305" lon="13.6175183"><ele>49.400000000000006</ele><time>2026-03-22T09:56:20.995Z</time></trkpt><trkpt lat="43.5031833" lon="13.6175317"><ele>49.2</ele><time>2026-03-22T09:56:21.996Z</time></trkpt><trkpt lat="43.5030583" lon="13.6175033"><ele>49.0</ele><time>2026-03-22T09:56:22.998Z</time></trkpt><trkpt lat="43.5029083" lon="13.61744"><ele>49.0</ele><time>2026-03-22T09:56:23.991Z</time></trkpt><trkpt lat="43.5027533" lon="13.6173783"><ele>49.0</ele><time>2026-03-22T09:56:24.991Z</time></trkpt><trkpt lat="43.5025783" lon="13.6173233"><ele>49.0</ele><time>2026-03-22T09:56:25.992Z</time></trkpt><trkpt lat="43.50239" lon="13.617285"><ele>49.0</ele><time>2026-03-22T09:56:26.997Z</time></trkpt><trkpt lat="43.5021833" lon="13.617245"><ele>49.0</ele><time>2026-03-22T09:56:27.996Z</time></trkpt><trkpt lat="43.5019733" lon="13.6172033"><ele>49.0</ele><time>2026-03-22T09:56:28.992Z</time></trkpt><trkpt lat="43.50177" lon="13.61716"><ele>47.33333333333333</ele><time>2026-03-22T09:56:29.995Z</time></trkpt><trkpt lat="43.5015767" lon="13.6171133"><ele>45.666666666666664</ele><time>2026-03-22T09:56:30.996Z</time></trkpt><trkpt lat="43.5013867" lon="13.61706"><ele>44.0</ele><time>2026-03-22T09:56:31.996Z</time></trkpt><trkpt lat="43.5012067" lon="13.6170083"><ele>40.666666666666664</ele><time>2026-03-22T09:56:32.993Z</time></trkpt><trkpt lat="43.5010317" lon="13.61696"><ele>37.333333333333336</ele><time>2026-03-22T09:56:33.991Z</time></trkpt><trkpt lat="43.5008617" lon="13.6169117"><ele>34.0</ele><time>2026-03-22T09:56:34.989Z</time></trkpt><trkpt lat="43.5007017" lon="13.6168583"><ele>34.0</ele><time>2026-03-22T09:56:35.99Z</time></trkpt><trkpt lat="43.5005533" lon="13.6168017"><ele>34.0</ele><time>2026-03-22T09:56:36.99Z</time></trkpt><trkpt lat="43.5004217" lon="13.6167483"><ele>34.0</ele><time>2026-03-22T09:56:37.99Z</time></trkpt><trkpt lat="43.5003067" lon="13.6166983"><ele>34.0</ele><time>2026-03-22T09:56:38.994Z</time></trkpt><trkpt lat="43.5002167" lon="13.6166617"><ele>33.16666666666667</ele><time>2026-03-22T09:56:39.993Z</time></trkpt><trkpt lat="43.50015" lon="13.6166283"><ele>32.333333333333336</ele><time>2026-03-22T09:56:40.994Z</time></trkpt><trkpt lat="43.5000733" lon="13.6165867"><ele>31.5</ele><time>2026-03-22T09:56:42.994Z</time></trkpt><trkpt lat="43.500005" lon="13.6165567"><ele>30.666666666666664</ele><time>2026-03-22T09:56:44.993Z</time></trkpt><trkpt lat="43.4999117" lon="13.6165283"><ele>29.833333333333332</ele><time>2026-03-22T09:56:46.991Z</time></trkpt><trkpt lat="43.499845" lon="13.6165267"><ele>29.0</ele><time>2026-03-22T09:56:47.993Z</time></trkpt><trkpt lat="43.4997717" lon="13.6165567"><ele>28.999999999999996</ele><time>2026-03-22T09:56:48.993Z</time></trkpt><trkpt lat="43.4997" lon="13.6166083"><ele>29.0</ele><time>2026-03-22T09:56:49.992Z</time></trkpt><trkpt lat="43.4996383" lon="13.6166783"><ele>29.0</ele><time>2026-03-22T09:56:50.992Z</time></trkpt><trkpt lat="43.499585" lon="13.6167683"><ele>29.0</ele><time>2026-03-22T09:56:51.995Z</time></trkpt><trkpt lat="43.4995917" lon="13.6168967"><ele>28.999999999999996</ele><time>2026-03-22T09:56:52.991Z</time></trkpt><trkpt lat="43.4995967" lon="13.6170233"><ele>29.0</ele><time>2026-03-22T09:56:53.99Z</time></trkpt><trkpt lat="43.4996117" lon="13.6171817"><ele>29.25</ele><time>2026-03-22T09:56:54.995Z</time></trkpt><trkpt lat="43.499605" lon="13.61735"><ele>29.5</ele><time>2026-03-22T09:56:55.996Z</time></trkpt><trkpt lat="43.499575" lon="13.6175183"><ele>29.75</ele><time>2026-03-22T09:56:56.994Z</time></trkpt><trkpt lat="43.49951" lon="13.6176717"><ele>30.0</ele><time>2026-03-22T09:56:57.991Z</time></trkpt><trkpt lat="43.4994267" lon="13.6178083"><ele>29.0</ele><time>2026-03-22T09:56:58.992Z</time></trkpt><trkpt lat="43.499335" lon="13.6179483"><ele>28.0</ele><time>2026-03-22T09:56:59.995Z</time></trkpt><trkpt lat="43.4992417" lon="13.6181033"><ele>27.0</ele><time>2026-03-22T09:57:00.994Z</time></trkpt><trkpt lat="43.4991383" lon="13.6182733"><ele>26.0</ele><time>2026-03-22T09:57:01.993Z</time></trkpt><trkpt lat="43.499025" lon="13.6184483"><ele>26.0</ele><time>2026-03-22T09:57:02.995Z</time></trkpt><trkpt lat="43.498905" lon="13.61863"><ele>26.0</ele><time>2026-03-22T09:57:03.991Z</time></trkpt><trkpt lat="43.4987833" lon="13.618815"><ele>26.0</ele><time>2026-03-22T09:57:04.993Z</time></trkpt><trkpt lat="43.498665" lon="13.6189917"><ele>25.0</ele><time>2026-03-22T09:57:05.992Z</time></trkpt><trkpt lat="43.49855" lon="13.6191583"><ele>24.0</ele><time>2026-03-22T09:57:06.996Z</time></trkpt><trkpt lat="43.4984433" lon="13.6193083"><ele>23.0</ele><time>2026-03-22T09:57:07.995Z</time></trkpt><trkpt lat="43.4983433" lon="13.61945"><ele>23.5</ele><time>2026-03-22T09:57:08.994Z</time></trkpt><trkpt lat="43.49825" lon="13.6195867"><ele>24.0</ele><time>2026-03-22T09:57:09.991Z</time></trkpt><trkpt lat="43.4981633" lon="13.6197117"><ele>24.5</ele><time>2026-03-22T09:57:10.992Z</time></trkpt><trkpt lat="43.49808" lon="13.6198283"><ele>25.0</ele><time>2026-03-22T09:57:11.991Z</time></trkpt><trkpt lat="43.4980017" lon="13.6199317"><ele>25.000000000000004</ele><time>2026-03-22T09:57:12.991Z</time></trkpt><trkpt lat="43.4979333" lon="13.6200267"><ele>25.0</ele><time>2026-03-22T09:57:13.99Z</time></trkpt><trkpt lat="43.4978733" lon="13.6201167"><ele>25.0</ele><time>2026-03-22T09:57:14.996Z</time></trkpt><trkpt lat="43.4978217" lon="13.6201917"><ele>25.0</ele><time>2026-03-22T09:57:15.992Z</time></trkpt><trkpt lat="43.49777" lon="13.6202683"><ele>25.000000000000004</ele><time>2026-03-22T09:57:16.995Z</time></trkpt><trkpt lat="43.4977083" lon="13.6203583"><ele>25.0</ele><time>2026-03-22T09:57:17.991Z</time></trkpt><trkpt lat="43.4976233" lon="13.620485"><ele>23.666666666666668</ele><time>2026-03-22T09:57:18.992Z</time></trkpt><trkpt lat="43.4975217" lon="13.6206283"><ele>22.333333333333336</ele><time>2026-03-22T09:57:19.995Z</time></trkpt><trkpt lat="43.4974067" lon="13.62079"><ele>21.0</ele><time>2026-03-22T09:57:20.997Z</time></trkpt><trkpt lat="43.4972867" lon="13.620965"><ele>21.0</ele><time>2026-03-22T09:57:21.994Z</time></trkpt><trkpt lat="43.4971717" lon="13.621135"><ele>21.0</ele><time>2026-03-22T09:57:22.993Z</time></trkpt><trkpt lat="43.4970567" lon="13.6213067"><ele>21.0</ele><time>2026-03-22T09:57:23.993Z</time></trkpt><trkpt lat="43.4969467" lon="13.6214717"><ele>20.0</ele><time>2026-03-22T09:57:24.995Z</time></trkpt><trkpt lat="43.496845" lon="13.6216267"><ele>19.0</ele><time>2026-03-22T09:57:25.991Z</time></trkpt><trkpt lat="43.49675" lon="13.6217717"><ele>18.0</ele><time>2026-03-22T09:57:26.995Z</time></trkpt><trkpt lat="43.49666" lon="13.621905"><ele>17.0</ele><time>2026-03-22T09:57:27.996Z</time></trkpt><trkpt lat="43.4965783" lon="13.6220217"><ele>16.8</ele><time>2026-03-22T09:57:28.995Z</time></trkpt><trkpt lat="43.4964983" lon="13.622135"><ele>16.6</ele><time>2026-03-22T09:57:29.993Z</time></trkpt><trkpt lat="43.49642" lon="13.62225"><ele>16.400000000000002</ele><time>2026-03-22T09:57:30.992Z</time></trkpt><trkpt lat="43.4963417" lon="13.6223617"><ele>16.2</ele><time>2026-03-22T09:57:31.989Z</time></trkpt><trkpt lat="43.49627" lon="13.6224667"><ele>16.0</ele><time>2026-03-22T09:57:32.992Z</time></trkpt><trkpt lat="43.4962017" lon="13.6225617"><ele>15.4</ele><time>2026-03-22T09:57:33.988Z</time></trkpt><trkpt lat="43.4961367" lon="13.6226517"><ele>14.8</ele><time>2026-03-22T09:57:34.991Z</time></trkpt><trkpt lat="43.4960617" lon="13.6227417"><ele>14.200000000000001</ele><time>2026-03-22T09:57:35.988Z</time></trkpt><trkpt lat="43.4959683" lon="13.62283"><ele>13.600000000000001</ele><time>2026-03-22T09:57:36.993Z</time></trkpt><trkpt lat="43.4958633" lon="13.6229067"><ele>13.0</ele><time>2026-03-22T09:57:37.995Z</time></trkpt><trkpt lat="43.495755" lon="13.6229583"><ele>13.0</ele><time>2026-03-22T09:57:38.997Z</time></trkpt><trkpt lat="43.49564" lon="13.6229867"><ele>13.0</ele><time>2026-03-22T09:57:39.991Z</time></trkpt><trkpt lat="43.4955183" lon="13.6229783"><ele>13.0</ele><time>2026-03-22T09:57:40.996Z</time></trkpt><trkpt lat="43.49539" lon="13.6229617"><ele>13.0</ele><time>2026-03-22T09:57:41.992Z</time></trkpt><trkpt lat="43.4952617" lon="13.6229483"><ele>12.25</ele><time>2026-03-22T09:57:42.996Z</time></trkpt><trkpt lat="43.4951333" lon="13.62294"><ele>11.5</ele><time>2026-03-22T09:57:43.997Z</time></trkpt><trkpt lat="43.495015" lon="13.62293"><ele>10.75</ele><time>2026-03-22T09:57:44.997Z</time></trkpt><trkpt lat="43.4949033" lon="13.6229167"><ele>10.0</ele><time>2026-03-22T09:57:45.99Z</time></trkpt><trkpt lat="43.494805" lon="13.6229067"><ele>10.0</ele><time>2026-03-22T09:57:46.995Z</time></trkpt><trkpt lat="43.49472" lon="13.6228967"><ele>10.0</ele><time>2026-03-22T09:57:47.996Z</time></trkpt><trkpt lat="43.49464" lon="13.6228867"><ele>10.0</ele><time>2026-03-22T09:57:48.998Z</time></trkpt><trkpt lat="43.49456" lon="13.62288"><ele>10.0</ele><time>2026-03-22T09:57:49.995Z</time></trkpt><trkpt lat="43.4944633" lon="13.6228683"><ele>10.0</ele><time>2026-03-22T09:57:50.996Z</time></trkpt><trkpt lat="43.4943483" lon="13.62285"><ele>8.5</ele><time>2026-03-22T09:57:51.994Z</time></trkpt><trkpt lat="43.4942133" lon="13.6228267"><ele>7.0</ele><time>2026-03-22T09:57:52.993Z</time></trkpt><trkpt lat="43.4940667" lon="13.6228033"><ele>5.5</ele><time>2026-03-22T09:57:53.994Z</time></trkpt><trkpt lat="43.4939133" lon="13.6227817"><ele>4.0</ele><time>2026-03-22T09:57:54.995Z</time></trkpt><trkpt lat="43.493765" lon="13.62276"><ele>3.5</ele><time>2026-03-22T09:57:55.997Z</time></trkpt><trkpt lat="43.4936283" lon="13.6227383"><ele>3.0</ele><time>2026-03-22T09:57:56.996Z</time></trkpt><trkpt lat="43.4935" lon="13.6227233"><ele>2.5</ele><time>2026-03-22T09:57:57.993Z</time></trkpt><trkpt lat="43.493375" lon="13.6227083"><ele>2.0</ele><time>2026-03-22T09:57:58.994Z</time></trkpt><trkpt lat="43.4932533" lon="13.6226933"><ele>2.0</ele><time>2026-03-22T09:57:59.993Z</time></trkpt><trkpt lat="43.4931267" lon="13.6226767"><ele>2.0</ele><time>2026-03-22T09:58:00.991Z</time></trkpt><trkpt lat="43.493005" lon="13.62265"><ele>2.0</ele><time>2026-03-22T09:58:01.997Z</time></trkpt><trkpt lat="43.4928983" lon="13.6226133"><ele>2.0</ele><time>2026-03-22T09:58:03.002Z</time></trkpt><trkpt lat="43.4928133" lon="13.6225583"><ele>2.333333333333333</ele><time>2026-03-22T09:58:03.994Z</time></trkpt><trkpt lat="43.4927467" lon="13.6224967"><ele>2.6666666666666665</ele><time>2026-03-22T09:58:04.996Z</time></trkpt><trkpt lat="43.4926767" lon="13.6224467"><ele>3.0</ele><time>2026-03-22T09:58:05.997Z</time></trkpt><trkpt lat="43.4926117" lon="13.6224183"><ele>3.333333333333333</ele><time>2026-03-22T09:58:06.995Z</time></trkpt><trkpt lat="43.4925433" lon="13.6224283"><ele>3.6666666666666665</ele><time>2026-03-22T09:58:07.994Z</time></trkpt><trkpt lat="43.492475" lon="13.6224883"><ele>4.0</ele><time>2026-03-22T09:58:08.993Z</time></trkpt><trkpt lat="43.492415" lon="13.622565"><ele>4.0</ele><time>2026-03-22T09:58:10Z</time></trkpt><trkpt lat="43.4923583" lon="13.6226467"><ele>3.9999999999999996</ele><time>2026-03-22T09:58:10.997Z</time></trkpt><trkpt lat="43.492305" lon="13.6227267"><ele>4.0</ele><time>2026-03-22T09:58:11.994Z</time></trkpt><trkpt lat="43.492255" lon="13.6227917"><ele>4.0</ele><time>2026-03-22T09:58:12.993Z</time></trkpt><trkpt lat="43.4922" lon="13.6228483"><ele>3.9999999999999996</ele><time>2026-03-22T09:58:13.992Z</time></trkpt><trkpt lat="43.492145" lon="13.6228933"><ele>4.0</ele><time>2026-03-22T09:58:14.994Z</time></trkpt><trkpt lat="43.4920817" lon="13.6229317"><ele>4.0</ele><time>2026-03-22T09:58:15.993Z</time></trkpt><trkpt lat="43.4920167" lon="13.62298"><ele>4.2</ele><time>2026-03-22T09:58:16.995Z</time></trkpt><trkpt lat="43.4919567" lon="13.6230567"><ele>4.4</ele><time>2026-03-22T09:58:17.996Z</time></trkpt><trkpt lat="43.4919117" lon="13.6231583"><ele>4.6</ele><time>2026-03-22T09:58:18.998Z</time></trkpt><trkpt lat="43.491875" lon="13.623295"><ele>4.8</ele><time>2026-03-22T09:58:19.994Z</time></trkpt><trkpt lat="43.4918067" lon="13.6234617"><ele>5.0</ele><time>2026-03-22T09:58:20.993Z</time></trkpt><trkpt lat="43.491705" lon="13.6236317"><ele>4.75</ele><time>2026-03-22T09:58:21.991Z</time></trkpt><trkpt lat="43.491605" lon="13.6237967"><ele>4.5</ele><time>2026-03-22T09:58:22.998Z</time></trkpt><trkpt lat="43.4915117" lon="13.6239533"><ele>4.25</ele><time>2026-03-22T09:58:23.996Z</time></trkpt><trkpt lat="43.4914267" lon="13.62409"><ele>4.0</ele><time>2026-03-22T09:58:24.998Z</time></trkpt><trkpt lat="43.4913617" lon="13.62425"><ele>4.0</ele><time>2026-03-22T09:58:25.995Z</time></trkpt><trkpt lat="43.4913083" lon="13.6244583"><ele>4.0</ele><time>2026-03-22T09:58:27.001Z</time></trkpt><trkpt lat="43.4912567" lon="13.6246983"><ele>4.0</ele><time>2026-03-22T09:58:27.998Z</time></trkpt><trkpt lat="43.4912083" lon="13.62494"><ele>4.333333333333333</ele><time>2026-03-22T09:58:28.996Z</time></trkpt><trkpt lat="43.4911633" lon="13.6251683"><ele>4.666666666666667</ele><time>2026-03-22T09:58:29.993Z</time></trkpt><trkpt lat="43.4911183" lon="13.625385"><ele>5.0</ele><time>2026-03-22T09:58:31Z</time></trkpt><trkpt lat="43.4910833" lon="13.6255817"><ele>5.0</ele><time>2026-03-22T09:58:31.996Z</time></trkpt><trkpt lat="43.4910567" lon="13.6257633"><ele>5.0</ele><time>2026-03-22T09:58:32.999Z</time></trkpt><trkpt lat="43.4910233" lon="13.6259317"><ele>5.0</ele><time>2026-03-22T09:58:33.993Z</time></trkpt><trkpt lat="43.49099" lon="13.6260917"><ele>5.0</ele><time>2026-03-22T09:58:34.993Z</time></trkpt><trkpt lat="43.4909667" lon="13.62623"><ele>4.666666666666667</ele><time>2026-03-22T09:58:35.995Z</time></trkpt><trkpt lat="43.490945" lon="13.62635"><ele>4.333333333333334</ele><time>2026-03-22T09:58:36.994Z</time></trkpt><trkpt lat="43.4909233" lon="13.62646"><ele>4.0</ele><time>2026-03-22T09:58:37.997Z</time></trkpt><trkpt lat="43.4909033" lon="13.6265633"><ele>3.666666666666667</ele><time>2026-03-22T09:58:38.996Z</time></trkpt><trkpt lat="43.4908767" lon="13.62666"><ele>3.3333333333333335</ele><time>2026-03-22T09:58:39.991Z</time></trkpt><trkpt lat="43.4908483" lon="13.6267517"><ele>3.0</ele><time>2026-03-22T09:58:40.994Z</time></trkpt><trkpt lat="43.4908033" lon="13.6269067"><ele>2.8</ele><time>2026-03-22T09:58:42.997Z</time></trkpt><trkpt lat="43.49078" lon="13.6269933"><ele>2.5999999999999996</ele><time>2026-03-22T09:58:43.996Z</time></trkpt><trkpt lat="43.4907533" lon="13.6271033"><ele>2.4000000000000004</ele><time>2026-03-22T09:58:44.992Z</time></trkpt><trkpt lat="43.4907217" lon="13.6272433"><ele>2.2</ele><time>2026-03-22T09:58:45.99Z</time></trkpt><trkpt lat="43.4906933" lon="13.6273983"><ele>2.0</ele><time>2026-03-22T09:58:46.991Z</time></trkpt><trkpt lat="43.4906617" lon="13.62756"><ele>2.0</ele><time>2026-03-22T09:58:47.996Z</time></trkpt><trkpt lat="43.49063" lon="13.6277367"><ele>2.0</ele><time>2026-03-22T09:58:48.995Z</time></trkpt><trkpt lat="43.4905967" lon="13.627925"><ele>2.0</ele><time>2026-03-22T09:58:49.997Z</time></trkpt><trkpt lat="43.4905517" lon="13.6281233"><ele>2.0</ele><time>2026-03-22T09:58:50.995Z</time></trkpt><trkpt lat="43.4905083" lon="13.6283133"><ele>2.0</ele><time>2026-03-22T09:58:51.989Z</time></trkpt><trkpt lat="43.49047" lon="13.6285117"><ele>2.0</ele><time>2026-03-22T09:58:52.993Z</time></trkpt><trkpt lat="43.4904317" lon="13.6287"><ele>2.0</ele><time>2026-03-22T09:58:53.992Z</time></trkpt><trkpt lat="43.490395" lon="13.6288733"><ele>2.0</ele><time>2026-03-22T09:58:54.994Z</time></trkpt><trkpt lat="43.49036" lon="13.629025"><ele>2.0</ele><time>2026-03-22T09:58:55.99Z</time></trkpt><trkpt lat="43.49033" lon="13.629165"><ele>2.0</ele><time>2026-03-22T09:58:56.992Z</time></trkpt><trkpt lat="43.4902967" lon="13.6292967"><ele>2.0</ele><time>2026-03-22T09:58:57.995Z</time></trkpt><trkpt lat="43.4902617" lon="13.62942"><ele>2.0</ele><time>2026-03-22T09:58:58.993Z</time></trkpt><trkpt lat="43.4902183" lon="13.6295217"><ele>2.0</ele><time>2026-03-22T09:58:59.992Z</time></trkpt><trkpt lat="43.4901617" lon="13.62961"><ele>2.0</ele><time>2026-03-22T09:59:00.992Z</time></trkpt><trkpt lat="43.4900917" lon="13.62969"><ele>2.0</ele><time>2026-03-22T09:59:01.997Z</time></trkpt><trkpt lat="43.490015" lon="13.6297683"><ele>2.0</ele><time>2026-03-22T09:59:02.993Z</time></trkpt><trkpt lat="43.489935" lon="13.629845"><ele>2.0</ele><time>2026-03-22T09:59:03.994Z</time></trkpt><trkpt lat="43.4898533" lon="13.6299217"><ele>2.0</ele><time>2026-03-22T09:59:04.996Z</time></trkpt><trkpt lat="43.4897733" lon="13.62999"><ele>2.0</ele><time>2026-03-22T09:59:05.997Z</time></trkpt><trkpt lat="43.4896883" lon="13.6300567"><ele>2.0</ele><time>2026-03-22T09:59:06.995Z</time></trkpt><trkpt lat="43.4896033" lon="13.63012"><ele>2.0</ele><time>2026-03-22T09:59:07.992Z</time></trkpt><trkpt lat="43.489515" lon="13.630185"><ele>2.0</ele><time>2026-03-22T09:59:08.989Z</time></trkpt><trkpt lat="43.48943" lon="13.6302533"><ele>2.0</ele><time>2026-03-22T09:59:09.992Z</time></trkpt><trkpt lat="43.4893467" lon="13.6303183"><ele>2.4000000000000004</ele><time>2026-03-22T09:59:10.996Z</time></trkpt><trkpt lat="43.4892633" lon="13.630385"><ele>2.8000000000000003</ele><time>2026-03-22T09:59:11.995Z</time></trkpt><trkpt lat="43.4891767" lon="13.6304517"><ele>3.2</ele><time>2026-03-22T09:59:12.996Z</time></trkpt><trkpt lat="43.4890867" lon="13.6305167"><ele>3.6</ele><time>2026-03-22T09:59:13.991Z</time></trkpt><trkpt lat="43.4889967" lon="13.6305817"><ele>4.0</ele><time>2026-03-22T09:59:14.997Z</time></trkpt><trkpt lat="43.4889067" lon="13.63065"><ele>4.0</ele><time>2026-03-22T09:59:15.992Z</time></trkpt><trkpt lat="43.4888117" lon="13.6307217"><ele>4.0</ele><time>2026-03-22T09:59:16.994Z</time></trkpt><trkpt lat="43.488715" lon="13.6307983"><ele>4.0</ele><time>2026-03-22T09:59:17.997Z</time></trkpt><trkpt lat="43.4886167" lon="13.630875"><ele>4.0</ele><time>2026-03-22T09:59:18.996Z</time></trkpt><trkpt lat="43.48852" lon="13.63095"><ele>4.0</ele><time>2026-03-22T09:59:19.995Z</time></trkpt><trkpt lat="43.4884233" lon="13.6310267"><ele>4.0</ele><time>2026-03-22T09:59:20.988Z</time></trkpt><trkpt lat="43.4883317" lon="13.6311033"><ele>4.0</ele><time>2026-03-22T09:59:21.992Z</time></trkpt><trkpt lat="43.48824" lon="13.631175"><ele>4.0</ele><time>2026-03-22T09:59:22.993Z</time></trkpt><trkpt lat="43.4881483" lon="13.631245"><ele>4.0</ele><time>2026-03-22T09:59:23.997Z</time></trkpt><trkpt lat="43.4880533" lon="13.6313133"><ele>4.0</ele><time>2026-03-22T09:59:24.997Z</time></trkpt><trkpt lat="43.48796" lon="13.6313833"><ele>3.6</ele><time>2026-03-22T09:59:25.992Z</time></trkpt><trkpt lat="43.4878667" lon="13.6314517"><ele>3.2</ele><time>2026-03-22T09:59:26.997Z</time></trkpt><trkpt lat="43.487775" lon="13.6315217"><ele>2.8000000000000003</ele><time>2026-03-22T09:59:27.993Z</time></trkpt><trkpt lat="43.4876867" lon="13.6315917"><ele>2.4000000000000004</ele><time>2026-03-22T09:59:28.996Z</time></trkpt><trkpt lat="43.4875933" lon="13.6316617"><ele>2.0</ele><time>2026-03-22T09:59:29.995Z</time></trkpt><trkpt lat="43.4874967" lon="13.6317333"><ele>2.0</ele><time>2026-03-22T09:59:30.996Z</time></trkpt><trkpt lat="43.4873983" lon="13.631805"><ele>2.0</ele><time>2026-03-22T09:59:31.999Z</time></trkpt><trkpt lat="43.4872967" lon="13.6318817"><ele>2.0</ele><time>2026-03-22T09:59:32.993Z</time></trkpt><trkpt lat="43.487195" lon="13.631955"><ele>2.0</ele><time>2026-03-22T09:59:33.997Z</time></trkpt><trkpt lat="43.4870967" lon="13.6320333"><ele>2.0</ele><time>2026-03-22T09:59:34.993Z</time></trkpt><trkpt lat="43.4869967" lon="13.6321117"><ele>2.0</ele><time>2026-03-22T09:59:35.996Z</time></trkpt><trkpt lat="43.4868933" lon="13.6321933"><ele>2.0</ele><time>2026-03-22T09:59:36.996Z</time></trkpt><trkpt lat="43.4867883" lon="13.6322767"><ele>2.0</ele><time>2026-03-22T09:59:37.997Z</time></trkpt><trkpt lat="43.4866867" lon="13.6323617"><ele>2.0</ele><time>2026-03-22T09:59:38.996Z</time></trkpt><trkpt lat="43.4865817" lon="13.6324483"><ele>2.0</ele><time>2026-03-22T09:59:39.997Z</time></trkpt><trkpt lat="43.4864767" lon="13.6325333"><ele>2.0</ele><time>2026-03-22T09:59:41.003Z</time></trkpt><trkpt lat="43.4863733" lon="13.6326183"><ele>2.0</ele><time>2026-03-22T09:59:41.995Z</time></trkpt><trkpt lat="43.4862683" lon="13.63271"><ele>1.75</ele><time>2026-03-22T09:59:43Z</time></trkpt><trkpt lat="43.4861617" lon="13.6328017"><ele>1.5</ele><time>2026-03-22T09:59:43.996Z</time></trkpt><trkpt lat="43.486055" lon="13.6329"><ele>1.25</ele><time>2026-03-22T09:59:44.995Z</time></trkpt><trkpt lat="43.4859517" lon="13.6330017"><ele>1.0</ele><time>2026-03-22T09:59:45.989Z</time></trkpt><trkpt lat="43.4858483" lon="13.6331017"><ele>1.0</ele><time>2026-03-22T09:59:46.993Z</time></trkpt><trkpt lat="43.485745" lon="13.6331967"><ele>1.0</ele><time>2026-03-22T09:59:47.991Z</time></trkpt><trkpt lat="43.4856467" lon="13.633285"><ele>1.0</ele><time>2026-03-22T09:59:48.994Z</time></trkpt><trkpt lat="43.4855533" lon="13.633365"><ele>1.0</ele><time>2026-03-22T09:59:49.989Z</time></trkpt><trkpt lat="43.4854667" lon="13.6334383"><ele>1.1666666666666665</ele><time>2026-03-22T09:59:51Z</time></trkpt><trkpt lat="43.4853867" lon="13.6335"><ele>1.3333333333333333</ele><time>2026-03-22T09:59:51.993Z</time></trkpt><trkpt lat="43.4853167" lon="13.633555"><ele>1.5</ele><time>2026-03-22T09:59:52.992Z</time></trkpt><trkpt lat="43.485255" lon="13.6336033"><ele>1.6666666666666665</ele><time>2026-03-22T09:59:53.991Z</time></trkpt><trkpt lat="43.485195" lon="13.6336517"><ele>1.8333333333333333</ele><time>2026-03-22T09:59:54.992Z</time></trkpt><trkpt lat="43.48513" lon="13.6337"><ele>2.0</ele><time>2026-03-22T09:59:55.991Z</time></trkpt><trkpt lat="43.4850533" lon="13.6337533"><ele>2.2</ele><time>2026-03-22T09:59:56.991Z</time></trkpt><trkpt lat="43.4849683" lon="13.6338133"><ele>2.4000000000000004</ele><time>2026-03-22T09:59:57.991Z</time></trkpt><trkpt lat="43.4848767" lon="13.6338767"><ele>2.5999999999999996</ele><time>2026-03-22T09:59:58.994Z</time></trkpt><trkpt lat="43.484785" lon="13.6339467"><ele>2.8</ele><time>2026-03-22T09:59:59.99Z</time></trkpt><trkpt lat="43.4846883" lon="13.6340167"><ele>3.0</ele><time>2026-03-22T10:00:00.99Z</time></trkpt><trkpt lat="43.4845917" lon="13.634085"><ele>3.0</ele><time>2026-03-22T10:00:01.987Z</time></trkpt><trkpt lat="43.4844917" lon="13.634155"><ele>3.0</ele><time>2026-03-22T10:00:02.991Z</time></trkpt><trkpt lat="43.484385" lon="13.6342317"><ele>3.0</ele><time>2026-03-22T10:00:03.991Z</time></trkpt><trkpt lat="43.4842783" lon="13.634305"><ele>3.0</ele><time>2026-03-22T10:00:04.989Z</time></trkpt><trkpt lat="43.48417" lon="13.6343867"><ele>3.0</ele><time>2026-03-22T10:00:05.988Z</time></trkpt><trkpt lat="43.4840617" lon="13.6344683"><ele>3.0</ele><time>2026-03-22T10:00:06.992Z</time></trkpt><trkpt lat="43.48395" lon="13.63455"><ele>3.0</ele><time>2026-03-22T10:00:07.989Z</time></trkpt><trkpt lat="43.48384" lon="13.63463"><ele>3.0</ele><time>2026-03-22T10:00:08.988Z</time></trkpt><trkpt lat="43.48373" lon="13.6347083"><ele>2.8</ele><time>2026-03-22T10:00:09.988Z</time></trkpt><trkpt lat="43.483625" lon="13.6347833"><ele>2.5999999999999996</ele><time>2026-03-22T10:00:10.987Z</time></trkpt><trkpt lat="43.483525" lon="13.634855"><ele>2.4000000000000004</ele><time>2026-03-22T10:00:11.985Z</time></trkpt><trkpt lat="43.48343" lon="13.6349317"><ele>2.2</ele><time>2026-03-22T10:00:12.986Z</time></trkpt><trkpt lat="43.4833433" lon="13.6349967"><ele>2.0</ele><time>2026-03-22T10:00:13.992Z</time></trkpt><trkpt lat="43.4832617" lon="13.6350433"><ele>1.9999999999999998</ele><time>2026-03-22T10:00:14.993Z</time></trkpt><trkpt lat="43.4831883" lon="13.6351"><ele>2.0</ele><time>2026-03-22T10:00:15.992Z</time></trkpt><trkpt lat="43.4831183" lon="13.6351483"><ele>2.0</ele><time>2026-03-22T10:00:16.985Z</time></trkpt><trkpt lat="43.4830433" lon="13.6352"><ele>2.0</ele><time>2026-03-22T10:00:17.987Z</time></trkpt><trkpt lat="43.4829667" lon="13.6352633"><ele>1.9999999999999998</ele><time>2026-03-22T10:00:18.998Z</time></trkpt><trkpt lat="43.48287" lon="13.6353283"><ele>2.0</ele><time>2026-03-22T10:00:19.995Z</time></trkpt><trkpt lat="43.4827633" lon="13.6354033"><ele>2.0</ele><time>2026-03-22T10:00:20.996Z</time></trkpt><trkpt lat="43.48265" lon="13.635485"><ele>2.0</ele><time>2026-03-22T10:00:21.992Z</time></trkpt><trkpt lat="43.482535" lon="13.6355683"><ele>2.0</ele><time>2026-03-22T10:00:22.987Z</time></trkpt><trkpt lat="43.4824183" lon="13.6356517"><ele>2.0</ele><time>2026-03-22T10:00:23.987Z</time></trkpt><trkpt lat="43.4823" lon="13.6357333"><ele>2.0</ele><time>2026-03-22T10:00:24.994Z</time></trkpt><trkpt lat="43.4821817" lon="13.635815"><ele>2.0</ele><time>2026-03-22T10:00:25.993Z</time></trkpt><trkpt lat="43.4820667" lon="13.6358967"><ele>2.0</ele><time>2026-03-22T10:00:26.998Z</time></trkpt><trkpt lat="43.4819483" lon="13.6359817"><ele>2.0</ele><time>2026-03-22T10:00:27.992Z</time></trkpt><trkpt lat="43.4818283" lon="13.6360683"><ele>2.0</ele><time>2026-03-22T10:00:28.997Z</time></trkpt><trkpt lat="43.4817117" lon="13.6361533"><ele>2.0</ele><time>2026-03-22T10:00:29.993Z</time></trkpt><trkpt lat="43.481595" lon="13.6362383"><ele>2.0</ele><time>2026-03-22T10:00:30.994Z</time></trkpt><trkpt lat="43.48148" lon="13.6363217"><ele>2.0</ele><time>2026-03-22T10:00:31.993Z</time></trkpt><trkpt lat="43.481365" lon="13.6364033"><ele>2.25</ele><time>2026-03-22T10:00:32.995Z</time></trkpt><trkpt lat="43.48125" lon="13.6364883"><ele>2.5</ele><time>2026-03-22T10:00:33.992Z</time></trkpt><trkpt lat="43.481135" lon="13.63657"><ele>2.75</ele><time>2026-03-22T10:00:34.994Z</time></trkpt><trkpt lat="43.4810217" lon="13.63665"><ele>3.0</ele><time>2026-03-22T10:00:35.998Z</time></trkpt><trkpt lat="43.4809033" lon="13.6367317"><ele>3.0</ele><time>2026-03-22T10:00:36.993Z</time></trkpt><trkpt lat="43.4807917" lon="13.6368167"><ele>3.0</ele><time>2026-03-22T10:00:37.993Z</time></trkpt><trkpt lat="43.480675" lon="13.6369017"><ele>3.0</ele><time>2026-03-22T10:00:38.995Z</time></trkpt><trkpt lat="43.4805567" lon="13.636985"><ele>3.0</ele><time>2026-03-22T10:00:39.993Z</time></trkpt><trkpt lat="43.4804383" lon="13.6370683"><ele>3.0</ele><time>2026-03-22T10:00:40.991Z</time></trkpt><trkpt lat="43.48032" lon="13.6371567"><ele>3.0</ele><time>2026-03-22T10:00:41.99Z</time></trkpt><trkpt lat="43.4802017" lon="13.637245"><ele>3.0</ele><time>2026-03-22T10:00:42.991Z</time></trkpt><trkpt lat="43.4800817" lon="13.6373317"><ele>3.0</ele><time>2026-03-22T10:00:43.994Z</time></trkpt><trkpt lat="43.479965" lon="13.6374167"><ele>3.0</ele><time>2026-03-22T10:00:44.994Z</time></trkpt><trkpt lat="43.4798483" lon="13.6375033"><ele>3.0</ele><time>2026-03-22T10:00:45.992Z</time></trkpt><trkpt lat="43.479735" lon="13.6375883"><ele>3.0</ele><time>2026-03-22T10:00:46.992Z</time></trkpt><trkpt lat="43.479625" lon="13.6376633"><ele>3.0</ele><time>2026-03-22T10:00:47.994Z</time></trkpt><trkpt lat="43.4795233" lon="13.6377367"><ele>2.5</ele><time>2026-03-22T10:00:48.995Z</time></trkpt><trkpt lat="43.4794217" lon="13.6378117"><ele>2.0</ele><time>2026-03-22T10:00:49.994Z</time></trkpt><trkpt lat="43.4793183" lon="13.63789"><ele>1.5</ele><time>2026-03-22T10:00:50.996Z</time></trkpt><trkpt lat="43.4792117" lon="13.6379667"><ele>1.0</ele><time>2026-03-22T10:00:51.992Z</time></trkpt><trkpt lat="43.4791033" lon="13.638045"><ele>1.0</ele><time>2026-03-22T10:00:52.99Z</time></trkpt><trkpt lat="43.4790033" lon="13.63812"><ele>1.0</ele><time>2026-03-22T10:00:53.994Z</time></trkpt><trkpt lat="43.4789033" lon="13.6381933"><ele>1.0</ele><time>2026-03-22T10:00:54.991Z</time></trkpt><trkpt lat="43.478805" lon="13.6382667"><ele>1.0</ele><time>2026-03-22T10:00:55.99Z</time></trkpt><trkpt lat="43.4787133" lon="13.638335"><ele>1.0</ele><time>2026-03-22T10:00:56.998Z</time></trkpt><trkpt lat="43.47862" lon="13.6383983"><ele>1.2000000000000002</ele><time>2026-03-22T10:00:57.996Z</time></trkpt><trkpt lat="43.4785267" lon="13.6384617"><ele>1.4000000000000001</ele><time>2026-03-22T10:00:58.996Z</time></trkpt><trkpt lat="43.47843" lon="13.6385217"><ele>1.6</ele><time>2026-03-22T10:00:59.992Z</time></trkpt><trkpt lat="43.4783317" lon="13.638575"><ele>1.8</ele><time>2026-03-22T10:01:00.99Z</time></trkpt><trkpt lat="43.47823" lon="13.63862"><ele>2.0</ele><time>2026-03-22T10:01:01.99Z</time></trkpt><trkpt lat="43.4781233" lon="13.6386517"><ele>2.25</ele><time>2026-03-22T10:01:03.002Z</time></trkpt><trkpt lat="43.4780133" lon="13.63867"><ele>2.5</ele><time>2026-03-22T10:01:03.993Z</time></trkpt><trkpt lat="43.4778983" lon="13.6386767"><ele>2.75</ele><time>2026-03-22T10:01:04.994Z</time></trkpt><trkpt lat="43.4777817" lon="13.6386733"><ele>3.0</ele><time>2026-03-22T10:01:05.995Z</time></trkpt><trkpt lat="43.4776683" lon="13.6386567"><ele>3.0</ele><time>2026-03-22T10:01:06.997Z</time></trkpt><trkpt lat="43.4775617" lon="13.6386333"><ele>3.0</ele><time>2026-03-22T10:01:08Z</time></trkpt><trkpt lat="43.4774617" lon="13.63861"><ele>3.0</ele><time>2026-03-22T10:01:09.003Z</time></trkpt><trkpt lat="43.477365" lon="13.63859"><ele>3.0</ele><time>2026-03-22T10:01:09.993Z</time></trkpt><trkpt lat="43.477275" lon="13.6385733"><ele>3.0</ele><time>2026-03-22T10:01:10.994Z</time></trkpt><trkpt lat="43.4771917" lon="13.6385683"><ele>3.0</ele><time>2026-03-22T10:01:11.995Z</time></trkpt><trkpt lat="43.4771133" lon="13.6385667"><ele>3.0</ele><time>2026-03-22T10:01:12.997Z</time></trkpt><trkpt lat="43.4770417" lon="13.6385717"><ele>3.0</ele><time>2026-03-22T10:01:13.996Z</time></trkpt><trkpt lat="43.47697" lon="13.6385783"><ele>3.0</ele><time>2026-03-22T10:01:14.994Z</time></trkpt><trkpt lat="43.4768933" lon="13.638595"><ele>3.0</ele><time>2026-03-22T10:01:15.994Z</time></trkpt><trkpt lat="43.4768083" lon="13.6386233"><ele>3.0</ele><time>2026-03-22T10:01:16.994Z</time></trkpt><trkpt lat="43.47671" lon="13.6386583"><ele>2.5</ele><time>2026-03-22T10:01:17.992Z</time></trkpt><trkpt lat="43.4766033" lon="13.6387017"><ele>2.0</ele><time>2026-03-22T10:01:18.995Z</time></trkpt><trkpt lat="43.4764883" lon="13.6387533"><ele>1.5</ele><time>2026-03-22T10:01:19.993Z</time></trkpt><trkpt lat="43.476365" lon="13.63881"><ele>1.0</ele><time>2026-03-22T10:01:20.995Z</time></trkpt><trkpt lat="43.476235" lon="13.6388667"><ele>0.75</ele><time>2026-03-22T10:01:21.996Z</time></trkpt><trkpt lat="43.47611" lon="13.6389217"><ele>0.5</ele><time>2026-03-22T10:01:22.995Z</time></trkpt><trkpt lat="43.4759867" lon="13.6389767"><ele>0.25</ele><time>2026-03-22T10:01:23.994Z</time></trkpt><trkpt lat="43.4758667" lon="13.63903"><ele>0.0</ele><time>2026-03-22T10:01:24.989Z</time></trkpt><trkpt lat="43.4757483" lon="13.639085"><ele>0.0</ele><time>2026-03-22T10:01:25.995Z</time></trkpt><trkpt lat="43.47563" lon="13.63914"><ele>0.0</ele><time>2026-03-22T10:01:26.994Z</time></trkpt><trkpt lat="43.47551" lon="13.639195"><ele>0.0</ele><time>2026-03-22T10:01:27.993Z</time></trkpt><trkpt lat="43.475385" lon="13.6392483"><ele>0.0</ele><time>2026-03-22T10:01:28.995Z</time></trkpt><trkpt lat="43.4752667" lon="13.6392933"><ele>0.0</ele><time>2026-03-22T10:01:29.996Z</time></trkpt><trkpt lat="43.47515" lon="13.639325"><ele>0.0</ele><time>2026-03-22T10:01:30.994Z</time></trkpt><trkpt lat="43.4750317" lon="13.6393383"><ele>0.0</ele><time>2026-03-22T10:01:31.989Z</time></trkpt><trkpt lat="43.474915" lon="13.639325"><ele>0.0</ele><time>2026-03-22T10:01:32.991Z</time></trkpt><trkpt lat="43.4747967" lon="13.6392983"><ele>0.0</ele><time>2026-03-22T10:01:33.994Z</time></trkpt><trkpt lat="43.4746833" lon="13.6392533"><ele>0.0</ele><time>2026-03-22T10:01:34.993Z</time></trkpt><trkpt lat="43.4745717" lon="13.6391933"><ele>0.0</ele><time>2026-03-22T10:01:35.996Z</time></trkpt><trkpt lat="43.4744583" lon="13.63913"><ele>0.0</ele><time>2026-03-22T10:01:36.988Z</time></trkpt><trkpt lat="43.47435" lon="13.6390667"><ele>0.2</ele><time>2026-03-22T10:01:37.995Z</time></trkpt><trkpt lat="43.4742483" lon="13.6390083"><ele>0.4</ele><time>2026-03-22T10:01:38.994Z</time></trkpt><trkpt lat="43.4741517" lon="13.6389617"><ele>0.6000000000000001</ele><time>2026-03-22T10:01:39.995Z</time></trkpt><trkpt lat="43.474055" lon="13.6389317"><ele>0.8</ele><time>2026-03-22T10:01:40.994Z</time></trkpt><trkpt lat="43.4739567" lon="13.63891"><ele>1.0</ele><time>2026-03-22T10:01:41.996Z</time></trkpt><trkpt lat="43.4738567" lon="13.638895"><ele>0.6000000000000001</ele><time>2026-03-22T10:01:42.995Z</time></trkpt><trkpt lat="43.4737583" lon="13.6388867"><ele>0.20000000000000007</ele><time>2026-03-22T10:01:43.997Z</time></trkpt><trkpt lat="43.4736583" lon="13.63888"><ele>-0.20000000000000007</ele><time>2026-03-22T10:01:44.996Z</time></trkpt><trkpt lat="43.47356" lon="13.6388767"><ele>-0.6000000000000001</ele><time>2026-03-22T10:01:45.994Z</time></trkpt><trkpt lat="43.4734583" lon="13.6388733"><ele>-1.0</ele><time>2026-03-22T10:01:46.993Z</time></trkpt><trkpt lat="43.4733533" lon="13.6388683"><ele>-1.0</ele><time>2026-03-22T10:01:47.995Z</time></trkpt><trkpt lat="43.4732433" lon="13.638865"><ele>-1.0</ele><time>2026-03-22T10:01:48.995Z</time></trkpt><trkpt lat="43.4731333" lon="13.638855"><ele>-1.0</ele><time>2026-03-22T10:01:49.995Z</time></trkpt><trkpt lat="43.4730217" lon="13.6388433"><ele>-1.0</ele><time>2026-03-22T10:01:50.996Z</time></trkpt><trkpt lat="43.4729117" lon="13.6388367"><ele>-1.0</ele><time>2026-03-22T10:01:51.996Z</time></trkpt><trkpt lat="43.4728" lon="13.6388317"><ele>-1.25</ele><time>2026-03-22T10:01:52.993Z</time></trkpt><trkpt lat="43.4726833" lon="13.63883"><ele>-1.5</ele><time>2026-03-22T10:01:53.989Z</time></trkpt><trkpt lat="43.4725683" lon="13.638825"><ele>-1.75</ele><time>2026-03-22T10:01:54.992Z</time></trkpt><trkpt lat="43.4724517" lon="13.63882"><ele>-2.0</ele><time>2026-03-22T10:01:55.995Z</time></trkpt><trkpt lat="43.472335" lon="13.6388233"><ele>-2.0</ele><time>2026-03-22T10:01:56.996Z</time></trkpt><trkpt lat="43.472215" lon="13.6388417"><ele>-2.0</ele><time>2026-03-22T10:01:57.999Z</time></trkpt><trkpt lat="43.4720917" lon="13.6388783"><ele>-2.0</ele><time>2026-03-22T10:01:58.994Z</time></trkpt><trkpt lat="43.4719767" lon="13.6389333"><ele>-2.0</ele><time>2026-03-22T10:01:59.993Z</time></trkpt><trkpt lat="43.4718633" lon="13.6389983"><ele>-1.75</ele><time>2026-03-22T10:02:00.995Z</time></trkpt><trkpt lat="43.4717533" lon="13.6390783"><ele>-1.5</ele><time>2026-03-22T10:02:01.996Z</time></trkpt><trkpt lat="43.4716517" lon="13.6391767"><ele>-1.25</ele><time>2026-03-22T10:02:02.996Z</time></trkpt><trkpt lat="43.4715617" lon="13.6392883"><ele>-1.0</ele><time>2026-03-22T10:02:03.993Z</time></trkpt><trkpt lat="43.47148" lon="13.6394067"><ele>-1.0</ele><time>2026-03-22T10:02:04.992Z</time></trkpt><trkpt lat="43.47141" lon="13.6395317"><ele>-1.0</ele><time>2026-03-22T10:02:05.995Z</time></trkpt><trkpt lat="43.471355" lon="13.6396567"><ele>-1.0</ele><time>2026-03-22T10:02:06.994Z</time></trkpt><trkpt lat="43.4713083" lon="13.6397867"><ele>-1.0</ele><time>2026-03-22T10:02:07.997Z</time></trkpt><trkpt lat="43.4712683" lon="13.6399133"><ele>-1.0</ele><time>2026-03-22T10:02:08.992Z</time></trkpt><trkpt lat="43.4712383" lon="13.640035"><ele>-1.0</ele><time>2026-03-22T10:02:09.995Z</time></trkpt><trkpt lat="43.471205" lon="13.6401633"><ele>-1.0</ele><time>2026-03-22T10:02:10.99Z</time></trkpt><trkpt lat="43.4711733" lon="13.6402933"><ele>-1.0</ele><time>2026-03-22T10:02:11.993Z</time></trkpt><trkpt lat="43.471145" lon="13.6404133"><ele>-1.0</ele><time>2026-03-22T10:02:12.994Z</time></trkpt><trkpt lat="43.47112" lon="13.6405233"><ele>-1.0</ele><time>2026-03-22T10:02:13.993Z</time></trkpt><trkpt lat="43.4710967" lon="13.640635"><ele>-0.8333333333333333</ele><time>2026-03-22T10:02:14.995Z</time></trkpt><trkpt lat="43.4710733" lon="13.6407483"><ele>-0.6666666666666666</ele><time>2026-03-22T10:02:15.994Z</time></trkpt><trkpt lat="43.4710483" lon="13.6408617"><ele>-0.5</ele><time>2026-03-22T10:02:16.994Z</time></trkpt><trkpt lat="43.4710267" lon="13.640965"><ele>-0.3333333333333333</ele><time>2026-03-22T10:02:17.997Z</time></trkpt><trkpt lat="43.4710033" lon="13.6410633"><ele>-0.16666666666666666</ele><time>2026-03-22T10:02:18.994Z</time></trkpt><trkpt lat="43.47098" lon="13.6411567"><ele>0.0</ele><time>2026-03-22T10:02:19.994Z</time></trkpt><trkpt lat="43.4709583" lon="13.6412567"><ele>0.0</ele><time>2026-03-22T10:02:20.998Z</time></trkpt><trkpt lat="43.470935" lon="13.64135"><ele>0.0</ele><time>2026-03-22T10:02:21.994Z</time></trkpt><trkpt lat="43.4709083" lon="13.6414417"><ele>0.0</ele><time>2026-03-22T10:02:22.997Z</time></trkpt><trkpt lat="43.4708767" lon="13.64154"><ele>0.0</ele><time>2026-03-22T10:02:23.993Z</time></trkpt><trkpt lat="43.4708383" lon="13.64165"><ele>0.0</ele><time>2026-03-22T10:02:24.988Z</time></trkpt><trkpt lat="43.4707783" lon="13.6417967"><ele>0.0</ele><time>2026-03-22T10:02:25.994Z</time></trkpt><trkpt lat="43.4707033" lon="13.64194"><ele>-0.25</ele><time>2026-03-22T10:02:26.997Z</time></trkpt><trkpt lat="43.47061" lon="13.6420583"><ele>-0.5</ele><time>2026-03-22T10:02:27.993Z</time></trkpt><trkpt lat="43.470505" lon="13.6421617"><ele>-0.75</ele><time>2026-03-22T10:02:28.99Z</time></trkpt><trkpt lat="43.4703917" lon="13.6422617"><ele>-1.0</ele><time>2026-03-22T10:02:30Z</time></trkpt><trkpt lat="43.4702683" lon="13.6423617"><ele>-1.0</ele><time>2026-03-22T10:02:30.992Z</time></trkpt><trkpt lat="43.4701417" lon="13.6424683"><ele>-1.0</ele><time>2026-03-22T10:02:31.996Z</time></trkpt><trkpt lat="43.4700117" lon="13.64258"><ele>-1.0</ele><time>2026-03-22T10:02:32.996Z</time></trkpt><trkpt lat="43.4698817" lon="13.642695"><ele>-1.0</ele><time>2026-03-22T10:02:33.995Z</time></trkpt><trkpt lat="43.4697483" lon="13.6428117"><ele>-1.0</ele><time>2026-03-22T10:02:34.995Z</time></trkpt><trkpt lat="43.469615" lon="13.642925"><ele>-1.0</ele><time>2026-03-22T10:02:35.994Z</time></trkpt><trkpt lat="43.4694867" lon="13.64304"><ele>-1.0</ele><time>2026-03-22T10:02:36.997Z</time></trkpt><trkpt lat="43.4693567" lon="13.6431583"><ele>-1.0</ele><time>2026-03-22T10:02:37.993Z</time></trkpt><trkpt lat="43.469225" lon="13.6432767"><ele>-1.0</ele><time>2026-03-22T10:02:38.999Z</time></trkpt><trkpt lat="43.4690917" lon="13.6433917"><ele>-1.0</ele><time>2026-03-22T10:02:39.994Z</time></trkpt><trkpt lat="43.4689583" lon="13.6435117"><ele>-1.0</ele><time>2026-03-22T10:02:40.997Z</time></trkpt><trkpt lat="43.4688317" lon="13.643625"><ele>-1.0</ele><time>2026-03-22T10:02:41.996Z</time></trkpt><trkpt lat="43.4687133" lon="13.6437317"><ele>-0.5</ele><time>2026-03-22T10:02:42.997Z</time></trkpt><trkpt lat="43.4686017" lon="13.6438317"><ele>0.0</ele><time>2026-03-22T10:02:43.996Z</time></trkpt><trkpt lat="43.46849" lon="13.64393"><ele>0.5</ele><time>2026-03-22T10:02:44.991Z</time></trkpt><trkpt lat="43.4683717" lon="13.6440333"><ele>1.0</ele><time>2026-03-22T10:02:45.992Z</time></trkpt><trkpt lat="43.4682433" lon="13.64414"><ele>1.0</ele><time>2026-03-22T10:02:46.987Z</time></trkpt><trkpt lat="43.4681067" lon="13.6442533"><ele>1.0</ele><time>2026-03-22T10:02:47.989Z</time></trkpt><trkpt lat="43.4679683" lon="13.6443733"><ele>1.0</ele><time>2026-03-22T10:02:48.99Z</time></trkpt><trkpt lat="43.4678267" lon="13.6444983"><ele>0.6666666666666666</ele><time>2026-03-22T10:02:49.99Z</time></trkpt><trkpt lat="43.4676833" lon="13.6446283"><ele>0.3333333333333333</ele><time>2026-03-22T10:02:50.991Z</time></trkpt><trkpt lat="43.46754" lon="13.6447533"><ele>0.0</ele><time>2026-03-22T10:02:51.988Z</time></trkpt><trkpt lat="43.4674" lon="13.6448767"><ele>0.0</ele><time>2026-03-22T10:02:52.994Z</time></trkpt><trkpt lat="43.4672683" lon="13.644995"><ele>0.0</ele><time>2026-03-22T10:02:53.991Z</time></trkpt><trkpt lat="43.467145" lon="13.6451083"><ele>0.0</ele><time>2026-03-22T10:02:54.991Z</time></trkpt><trkpt lat="43.4670233" lon="13.6452217"><ele>0.3333333333333333</ele><time>2026-03-22T10:02:55.996Z</time></trkpt><trkpt lat="43.4668967" lon="13.6453367"><ele>0.6666666666666666</ele><time>2026-03-22T10:02:56.995Z</time></trkpt><trkpt lat="43.46677" lon="13.6454483"><ele>1.0</ele><time>2026-03-22T10:02:57.989Z</time></trkpt><trkpt lat="43.466645" lon="13.6455567"><ele>1.0</ele><time>2026-03-22T10:02:58.999Z</time></trkpt><trkpt lat="43.4665267" lon="13.6456617"><ele>1.0</ele><time>2026-03-22T10:02:59.992Z</time></trkpt><trkpt lat="43.4664083" lon="13.6457667"><ele>1.0</ele><time>2026-03-22T10:03:00.993Z</time></trkpt><trkpt lat="43.4662867" lon="13.6458683"><ele>1.0</ele><time>2026-03-22T10:03:01.997Z</time></trkpt><trkpt lat="43.4661633" lon="13.645965"><ele>1.0</ele><time>2026-03-22T10:03:02.993Z</time></trkpt><trkpt lat="43.4660367" lon="13.6460633"><ele>1.0</ele><time>2026-03-22T10:03:03.991Z</time></trkpt><trkpt lat="43.4659083" lon="13.6461533"><ele>1.0</ele><time>2026-03-22T10:03:04.989Z</time></trkpt><trkpt lat="43.4657733" lon="13.6462383"><ele>1.0</ele><time>2026-03-22T10:03:05.991Z</time></trkpt><trkpt lat="43.46564" lon="13.6463167"><ele>1.0</ele><time>2026-03-22T10:03:06.99Z</time></trkpt><trkpt lat="43.4655083" lon="13.64639"><ele>1.0</ele><time>2026-03-22T10:03:07.989Z</time></trkpt><trkpt lat="43.4653883" lon="13.6464583"><ele>1.0</ele><time>2026-03-22T10:03:08.995Z</time></trkpt><trkpt lat="43.465275" lon="13.6465233"><ele>1.0</ele><time>2026-03-22T10:03:09.989Z</time></trkpt><trkpt lat="43.4651617" lon="13.6465883"><ele>1.0</ele><time>2026-03-22T10:03:10.994Z</time></trkpt><trkpt lat="43.4650467" lon="13.6466517"><ele>1.0</ele><time>2026-03-22T10:03:11.995Z</time></trkpt><trkpt lat="43.4649367" lon="13.6467117"><ele>1.0</ele><time>2026-03-22T10:03:12.994Z</time></trkpt><trkpt lat="43.46483" lon="13.6467683"><ele>1.0</ele><time>2026-03-22T10:03:13.998Z</time></trkpt><trkpt lat="43.4647283" lon="13.6468233"><ele>0.9999999999999999</ele><time>2026-03-22T10:03:14.995Z</time></trkpt><trkpt lat="43.4646317" lon="13.6468717"><ele>1.0</ele><time>2026-03-22T10:03:15.996Z</time></trkpt><trkpt lat="43.46454" lon="13.646915"><ele>1.0</ele><time>2026-03-22T10:03:16.995Z</time></trkpt><trkpt lat="43.4644583" lon="13.6469483"><ele>1.0</ele><time>2026-03-22T10:03:17.994Z</time></trkpt><trkpt lat="43.4643833" lon="13.646965"><ele>0.9999999999999999</ele><time>2026-03-22T10:03:18.997Z</time></trkpt><trkpt lat="43.4643117" lon="13.64696"><ele>1.0</ele><time>2026-03-22T10:03:19.995Z</time></trkpt><trkpt lat="43.4642383" lon="13.6469317"><ele>1.0</ele><time>2026-03-22T10:03:20.995Z</time></trkpt><trkpt lat="43.4641733" lon="13.6468767"><ele>1.0</ele><time>2026-03-22T10:03:21.991Z</time></trkpt><trkpt lat="43.4641317" lon="13.646765"><ele>1.0</ele><time>2026-03-22T10:03:22.999Z</time></trkpt><trkpt lat="43.4640983" lon="13.646625"><ele>1.0</ele><time>2026-03-22T10:03:23.995Z</time></trkpt><trkpt lat="43.464065" lon="13.6464517"><ele>1.0</ele><time>2026-03-22T10:03:24.993Z</time></trkpt><trkpt lat="43.4640183" lon="13.6462817"><ele>1.0</ele><time>2026-03-22T10:03:25.994Z</time></trkpt><trkpt lat="43.4639633" lon="13.6461133"><ele>1.0</ele><time>2026-03-22T10:03:26.999Z</time></trkpt><trkpt lat="43.4639017" lon="13.64595"><ele>1.0</ele><time>2026-03-22T10:03:27.993Z</time></trkpt><trkpt lat="43.4638267" lon="13.6457717"><ele>1.0</ele><time>2026-03-22T10:03:28.999Z</time></trkpt><trkpt lat="43.4637417" lon="13.6455817"><ele>1.0</ele><time>2026-03-22T10:03:29.992Z</time></trkpt><trkpt lat="43.4636567" lon="13.64538"><ele>1.0</ele><time>2026-03-22T10:03:30.997Z</time></trkpt><trkpt lat="43.4635733" lon="13.6451683"><ele>1.0</ele><time>2026-03-22T10:03:31.996Z</time></trkpt><trkpt lat="43.4634817" lon="13.6449367"><ele>0.6666666666666666</ele><time>2026-03-22T10:03:32.996Z</time></trkpt><trkpt lat="43.4633867" lon="13.6447017"><ele>0.3333333333333333</ele><time>2026-03-22T10:03:33.995Z</time></trkpt><trkpt lat="43.46329" lon="13.6444617"><ele>0.0</ele><time>2026-03-22T10:03:34.994Z</time></trkpt><trkpt lat="43.463185" lon="13.64422"><ele>0.0</ele><time>2026-03-22T10:03:35.995Z</time></trkpt><trkpt lat="43.4630767" lon="13.64397"><ele>0.0</ele><time>2026-03-22T10:03:36.993Z</time></trkpt><trkpt lat="43.4629633" lon="13.6437133"><ele>0.0</ele><time>2026-03-22T10:03:37.996Z</time></trkpt><trkpt lat="43.4628467" lon="13.6434517"><ele>0.5</ele><time>2026-03-22T10:03:38.995Z</time></trkpt><trkpt lat="43.4627283" lon="13.6431883"><ele>1.0</ele><time>2026-03-22T10:03:39.992Z</time></trkpt><trkpt lat="43.4626117" lon="13.64292"><ele>0.5</ele><time>2026-03-22T10:03:40.993Z</time></trkpt><trkpt lat="43.4624967" lon="13.64265"><ele>0.0</ele><time>2026-03-22T10:03:41.999Z</time></trkpt><trkpt lat="43.4623817" lon="13.6423833"><ele>0.0</ele><time>2026-03-22T10:03:42.995Z</time></trkpt><trkpt lat="43.4622667" lon="13.64212"><ele>0.0</ele><time>2026-03-22T10:03:43.997Z</time></trkpt><trkpt lat="43.4621533" lon="13.6418567"><ele>0.0</ele><time>2026-03-22T10:03:44.998Z</time></trkpt><trkpt lat="43.46204" lon="13.6415983"><ele>0.0</ele><time>2026-03-22T10:03:45.993Z</time></trkpt><trkpt lat="43.4619283" lon="13.64134"><ele>0.0</ele><time>2026-03-22T10:03:46.993Z</time></trkpt><trkpt lat="43.4618183" lon="13.6410833"><ele>0.0</ele><time>2026-03-22T10:03:47.996Z</time></trkpt><trkpt lat="43.4617067" lon="13.6408233"><ele>0.0</ele><time>2026-03-22T10:03:48.994Z</time></trkpt><trkpt lat="43.4615933" lon="13.6405633"><ele>0.0</ele><time>2026-03-22T10:03:49.994Z</time></trkpt><trkpt lat="43.46148" lon="13.6403033"><ele>0.0</ele><time>2026-03-22T10:03:50.997Z</time></trkpt><trkpt lat="43.4613633" lon="13.6400417"><ele>0.0</ele><time>2026-03-22T10:03:51.994Z</time></trkpt><trkpt lat="43.4612483" lon="13.6397817"><ele>0.0</ele><time>2026-03-22T10:03:52.99Z</time></trkpt><trkpt lat="43.46113" lon="13.6395183"><ele>0.0</ele><time>2026-03-22T10:03:54.006Z</time></trkpt><trkpt lat="43.4610133" lon="13.6392567"><ele>0.0</ele><time>2026-03-22T10:03:54.995Z</time></trkpt><trkpt lat="43.4608983" lon="13.6389967"><ele>0.0</ele><time>2026-03-22T10:03:55.996Z</time></trkpt><trkpt lat="43.4607883" lon="13.6387417"><ele>0.0</ele><time>2026-03-22T10:03:57.001Z</time></trkpt><trkpt lat="43.4606783" lon="13.6384917"><ele>0.0</ele><time>2026-03-22T10:03:57.994Z</time></trkpt><trkpt lat="43.4605683" lon="13.6382483"><ele>0.0</ele><time>2026-03-22T10:03:58.993Z</time></trkpt><trkpt lat="43.460465" lon="13.6380117"><ele>0.0</ele><time>2026-03-22T10:03:59.996Z</time></trkpt><trkpt lat="43.4603683" lon="13.6377883"><ele>0.0</ele><time>2026-03-22T10:04:00.995Z</time></trkpt><trkpt lat="43.460275" lon="13.6375767"><ele>0.0</ele><time>2026-03-22T10:04:01.996Z</time></trkpt><trkpt lat="43.4601867" lon="13.6373667"><ele>0.0</ele><time>2026-03-22T10:04:02.997Z</time></trkpt><trkpt lat="43.4600933" lon="13.6371567"><ele>0.3333333333333333</ele><time>2026-03-22T10:04:03.999Z</time></trkpt><trkpt lat="43.4600017" lon="13.63695"><ele>0.6666666666666666</ele><time>2026-03-22T10:04:04.991Z</time></trkpt><trkpt lat="43.4599133" lon="13.6367517"><ele>1.0</ele><time>2026-03-22T10:04:05.997Z</time></trkpt><trkpt lat="43.4598283" lon="13.6365567"><ele>1.0</ele><time>2026-03-22T10:04:06.994Z</time></trkpt><trkpt lat="43.4597433" lon="13.6363617"><ele>1.0</ele><time>2026-03-22T10:04:07.997Z</time></trkpt><trkpt lat="43.459655" lon="13.6361667"><ele>1.0</ele><time>2026-03-22T10:04:09Z</time></trkpt><trkpt lat="43.459565" lon="13.6359667"><ele>1.0</ele><time>2026-03-22T10:04:09.999Z</time></trkpt><trkpt lat="43.4594667" lon="13.6357533"><ele>1.0</ele><time>2026-03-22T10:04:10.988Z</time></trkpt><trkpt lat="43.4593617" lon="13.6355317"><ele>1.0</ele><time>2026-03-22T10:04:11.997Z</time></trkpt><trkpt lat="43.459255" lon="13.6353"><ele>1.0</ele><time>2026-03-22T10:04:12.995Z</time></trkpt><trkpt lat="43.4591483" lon="13.6350533"><ele>1.0</ele><time>2026-03-22T10:04:13.997Z</time></trkpt><trkpt lat="43.4590433" lon="13.6347917"><ele>1.0</ele><time>2026-03-22T10:04:14.996Z</time></trkpt><trkpt lat="43.458935" lon="13.6345267"><ele>1.0</ele><time>2026-03-22T10:04:15.994Z</time></trkpt><trkpt lat="43.458825" lon="13.6342617"><ele>1.0</ele><time>2026-03-22T10:04:16.992Z</time></trkpt><trkpt lat="43.4587117" lon="13.6339967"><ele>1.0</ele><time>2026-03-22T10:04:17.994Z</time></trkpt><trkpt lat="43.4585933" lon="13.6337283"><ele>1.0</ele><time>2026-03-22T10:04:18.994Z</time></trkpt><trkpt lat="43.458475" lon="13.63346"><ele>1.0</ele><time>2026-03-22T10:04:19.994Z</time></trkpt><trkpt lat="43.4583567" lon="13.6331933"><ele>1.0</ele><time>2026-03-22T10:04:20.995Z</time></trkpt><trkpt lat="43.4582383" lon="13.632925"><ele>1.0</ele><time>2026-03-22T10:04:21.992Z</time></trkpt><trkpt lat="43.45812" lon="13.632655"><ele>1.0</ele><time>2026-03-22T10:04:22.994Z</time></trkpt><trkpt lat="43.4580033" lon="13.6323933"><ele>1.0</ele><time>2026-03-22T10:04:23.995Z</time></trkpt><trkpt lat="43.4578883" lon="13.6321333"><ele>1.0</ele><time>2026-03-22T10:04:24.989Z</time></trkpt><trkpt lat="43.4577733" lon="13.6318817"><ele>1.3333333333333333</ele><time>2026-03-22T10:04:25.99Z</time></trkpt><trkpt lat="43.4576583" lon="13.6316283"><ele>1.6666666666666665</ele><time>2026-03-22T10:04:26.993Z</time></trkpt><trkpt lat="43.4575467" lon="13.631375"><ele>2.0</ele><time>2026-03-22T10:04:27.989Z</time></trkpt><trkpt lat="43.457435" lon="13.63112"><ele>2.0</ele><time>2026-03-22T10:04:28.992Z</time></trkpt><trkpt lat="43.4573217" lon="13.630865"><ele>2.0</ele><time>2026-03-22T10:04:29.996Z</time></trkpt><trkpt lat="43.4572117" lon="13.6306183"><ele>2.0</ele><time>2026-03-22T10:04:30.995Z</time></trkpt><trkpt lat="43.457105" lon="13.6303767"><ele>2.333333333333333</ele><time>2026-03-22T10:04:31.998Z</time></trkpt><trkpt lat="43.4570017" lon="13.6301383"><ele>2.6666666666666665</ele><time>2026-03-22T10:04:32.996Z</time></trkpt><trkpt lat="43.4568983" lon="13.6299033"><ele>3.0</ele><time>2026-03-22T10:04:33.997Z</time></trkpt><trkpt lat="43.4568017" lon="13.6296817"><ele>3.0</ele><time>2026-03-22T10:04:34.993Z</time></trkpt><trkpt lat="43.4567117" lon="13.6294767"><ele>3.0</ele><time>2026-03-22T10:04:35.998Z</time></trkpt><trkpt lat="43.4566317" lon="13.62929"><ele>3.0</ele><time>2026-03-22T10:04:36.995Z</time></trkpt><trkpt lat="43.4565567" lon="13.6291183"><ele>3.0</ele><time>2026-03-22T10:04:37.997Z</time></trkpt><trkpt lat="43.456485" lon="13.6289567"><ele>3.0</ele><time>2026-03-22T10:04:38.996Z</time></trkpt><trkpt lat="43.4564217" lon="13.628795"><ele>3.0</ele><time>2026-03-22T10:04:39.998Z</time></trkpt><trkpt lat="43.456355" lon="13.62864"><ele>3.0</ele><time>2026-03-22T10:04:40.993Z</time></trkpt><trkpt lat="43.4562883" lon="13.62849"><ele>3.666666666666667</ele><time>2026-03-22T10:04:41.993Z</time></trkpt><trkpt lat="43.4562167" lon="13.6283317"><ele>4.333333333333334</ele><time>2026-03-22T10:04:42.997Z</time></trkpt><trkpt lat="43.4561367" lon="13.6281567"><ele>5.0</ele><time>2026-03-22T10:04:43.998Z</time></trkpt><trkpt lat="43.45605" lon="13.6279617"><ele>5.0</ele><time>2026-03-22T10:04:44.996Z</time></trkpt><trkpt lat="43.4559517" lon="13.627745"><ele>5.0</ele><time>2026-03-22T10:04:45.997Z</time></trkpt><trkpt lat="43.455855" lon="13.6275167"><ele>5.0</ele><time>2026-03-22T10:04:46.998Z</time></trkpt><trkpt lat="43.4557617" lon="13.62729"><ele>5.0</ele><time>2026-03-22T10:04:47.995Z</time></trkpt><trkpt lat="43.4556733" lon="13.62707"><ele>5.0</ele><time>2026-03-22T10:04:48.994Z</time></trkpt><trkpt lat="43.4555867" lon="13.62686"><ele>5.0</ele><time>2026-03-22T10:04:49.995Z</time></trkpt><trkpt lat="43.4555" lon="13.6266533"><ele>5.0</ele><time>2026-03-22T10:04:50.993Z</time></trkpt><trkpt lat="43.4554133" lon="13.6264533"><ele>5.0</ele><time>2026-03-22T10:04:51.994Z</time></trkpt><trkpt lat="43.4553283" lon="13.6262583"><ele>5.0</ele><time>2026-03-22T10:04:52.994Z</time></trkpt><trkpt lat="43.4552467" lon="13.6260683"><ele>5.0</ele><time>2026-03-22T10:04:53.998Z</time></trkpt><trkpt lat="43.455165" lon="13.6258883"><ele>5.0</ele><time>2026-03-22T10:04:54.994Z</time></trkpt><trkpt lat="43.4550817" lon="13.6257083"><ele>5.0</ele><time>2026-03-22T10:04:55.996Z</time></trkpt><trkpt lat="43.455" lon="13.6255283"><ele>5.0</ele><time>2026-03-22T10:04:56.994Z</time></trkpt><trkpt lat="43.45492" lon="13.6253517"><ele>5.0</ele><time>2026-03-22T10:04:57.999Z</time></trkpt><trkpt lat="43.454845" lon="13.6251783"><ele>5.0</ele><time>2026-03-22T10:04:58.995Z</time></trkpt><trkpt lat="43.45477" lon="13.62501"><ele>5.0</ele><time>2026-03-22T10:04:59.998Z</time></trkpt><trkpt lat="43.4546983" lon="13.6248433"><ele>5.0</ele><time>2026-03-22T10:05:00.995Z</time></trkpt><trkpt lat="43.4546267" lon="13.6246783"><ele>5.0</ele><time>2026-03-22T10:05:01.995Z</time></trkpt><trkpt lat="43.4545517" lon="13.62451"><ele>5.0</ele><time>2026-03-22T10:05:02.993Z</time></trkpt><trkpt lat="43.4544783" lon="13.624345"><ele>5.0</ele><time>2026-03-22T10:05:03.991Z</time></trkpt><trkpt lat="43.4544067" lon="13.6241817"><ele>5.5</ele><time>2026-03-22T10:05:04.993Z</time></trkpt><trkpt lat="43.4543333" lon="13.6240133"><ele>6.0</ele><time>2026-03-22T10:05:05.99Z</time></trkpt><trkpt lat="43.4542633" lon="13.6238433"><ele>6.5</ele><time>2026-03-22T10:05:06.992Z</time></trkpt><trkpt lat="43.4541933" lon="13.6236783"><ele>7.0</ele><time>2026-03-22T10:05:07.999Z</time></trkpt><trkpt lat="43.454125" lon="13.6235133"><ele>7.0</ele><time>2026-03-22T10:05:08.996Z</time></trkpt><trkpt lat="43.4540567" lon="13.6233567"><ele>7.0</ele><time>2026-03-22T10:05:09.989Z</time></trkpt><trkpt lat="43.453995" lon="13.6232083"><ele>7.0</ele><time>2026-03-22T10:05:10.997Z</time></trkpt><trkpt lat="43.4539333" lon="13.62306"><ele>7.0</ele><time>2026-03-22T10:05:11.993Z</time></trkpt><trkpt lat="43.45387" lon="13.6229117"><ele>6.75</ele><time>2026-03-22T10:05:12.997Z</time></trkpt><trkpt lat="43.4538067" lon="13.6227667"><ele>6.5</ele><time>2026-03-22T10:05:13.995Z</time></trkpt><trkpt lat="43.453745" lon="13.622615"><ele>6.25</ele><time>2026-03-22T10:05:14.999Z</time></trkpt><trkpt lat="43.453685" lon="13.6224633"><ele>6.0</ele><time>2026-03-22T10:05:15.998Z</time></trkpt><trkpt lat="43.453625" lon="13.6223067"><ele>6.0</ele><time>2026-03-22T10:05:16.992Z</time></trkpt><trkpt lat="43.4535617" lon="13.62215"><ele>6.0</ele><time>2026-03-22T10:05:17.992Z</time></trkpt><trkpt lat="43.4534933" lon="13.6219833"><ele>6.0</ele><time>2026-03-22T10:05:18.998Z</time></trkpt><trkpt lat="43.4534183" lon="13.62182"><ele>6.0</ele><time>2026-03-22T10:05:19.992Z</time></trkpt><trkpt lat="43.4533517" lon="13.6216533"><ele>6.0</ele><time>2026-03-22T10:05:20.998Z</time></trkpt><trkpt lat="43.4532933" lon="13.6214867"><ele>6.0</ele><time>2026-03-22T10:05:21.997Z</time></trkpt><trkpt lat="43.453235" lon="13.6213267"><ele>6.0</ele><time>2026-03-22T10:05:22.999Z</time></trkpt><trkpt lat="43.4531733" lon="13.6211633"><ele>6.0</ele><time>2026-03-22T10:05:23.998Z</time></trkpt><trkpt lat="43.453105" lon="13.6209917"><ele>5.75</ele><time>2026-03-22T10:05:24.999Z</time></trkpt><trkpt lat="43.4530383" lon="13.6208267"><ele>5.5</ele><time>2026-03-22T10:05:25.994Z</time></trkpt><trkpt lat="43.45297" lon="13.6206617"><ele>5.25</ele><time>2026-03-22T10:05:26.996Z</time></trkpt><trkpt lat="43.452905" lon="13.6204883"><ele>5.0</ele><time>2026-03-22T10:05:27.997Z</time></trkpt><trkpt lat="43.4528367" lon="13.6203233"><ele>5.75</ele><time>2026-03-22T10:05:28.998Z</time></trkpt><trkpt lat="43.4527683" lon="13.6201667"><ele>6.5</ele><time>2026-03-22T10:05:29.999Z</time></trkpt><trkpt lat="43.452695" lon="13.6200167"><ele>7.25</ele><time>2026-03-22T10:05:30.998Z</time></trkpt><trkpt lat="43.4526233" lon="13.6198717"><ele>8.0</ele><time>2026-03-22T10:05:31.998Z</time></trkpt><trkpt lat="43.4525533" lon="13.6197217"><ele>8.0</ele><time>2026-03-22T10:05:32.996Z</time></trkpt><trkpt lat="43.4524917" lon="13.6195617"><ele>8.0</ele><time>2026-03-22T10:05:33.993Z</time></trkpt><trkpt lat="43.4524433" lon="13.6193967"><ele>8.0</ele><time>2026-03-22T10:05:34.995Z</time></trkpt><trkpt lat="43.452405" lon="13.61923"><ele>8.0</ele><time>2026-03-22T10:05:35.996Z</time></trkpt><trkpt lat="43.4523733" lon="13.6190617"><ele>7.75</ele><time>2026-03-22T10:05:36.993Z</time></trkpt><trkpt lat="43.4523483" lon="13.618905"><ele>7.5</ele><time>2026-03-22T10:05:37.997Z</time></trkpt><trkpt lat="43.4523317" lon="13.6187467"><ele>7.25</ele><time>2026-03-22T10:05:38.997Z</time></trkpt><trkpt lat="43.4523267" lon="13.6185883"><ele>7.0</ele><time>2026-03-22T10:05:39.998Z</time></trkpt><trkpt lat="43.45233" lon="13.61842"><ele>7.0</ele><time>2026-03-22T10:05:40.999Z</time></trkpt><trkpt lat="43.4523267" lon="13.6182533"><ele>7.0</ele><time>2026-03-22T10:05:41.993Z</time></trkpt><trkpt lat="43.45233" lon="13.6180883"><ele>7.0</ele><time>2026-03-22T10:05:42.995Z</time></trkpt><trkpt lat="43.4523283" lon="13.6179217"><ele>7.0</ele><time>2026-03-22T10:05:44Z</time></trkpt><trkpt lat="43.4523317" lon="13.617755"><ele>6.8</ele><time>2026-03-22T10:05:44.994Z</time></trkpt><trkpt lat="43.4523333" lon="13.6175883"><ele>6.6</ele><time>2026-03-22T10:05:45.995Z</time></trkpt><trkpt lat="43.4523333" lon="13.6174333"><ele>6.3999999999999995</ele><time>2026-03-22T10:05:46.996Z</time></trkpt><trkpt lat="43.4523333" lon="13.6172867"><ele>6.199999999999999</ele><time>2026-03-22T10:05:47.994Z</time></trkpt><trkpt lat="43.452335" lon="13.6171483"><ele>6.0</ele><time>2026-03-22T10:05:48.994Z</time></trkpt><trkpt lat="43.452345" lon="13.617025"><ele>6.166666666666667</ele><time>2026-03-22T10:05:50.003Z</time></trkpt><trkpt lat="43.45237" lon="13.6169133"><ele>6.333333333333334</ele><time>2026-03-22T10:05:51.001Z</time></trkpt><trkpt lat="43.452405" lon="13.6168083"><ele>6.5</ele><time>2026-03-22T10:05:51.996Z</time></trkpt><trkpt lat="43.45246" lon="13.61671"><ele>6.666666666666667</ele><time>2026-03-22T10:05:52.996Z</time></trkpt><trkpt lat="43.4525183" lon="13.6166267"><ele>6.833333333333334</ele><time>2026-03-22T10:05:53.995Z</time></trkpt><trkpt lat="43.4525717" lon="13.616555"><ele>7.0</ele><time>2026-03-22T10:05:54.999Z</time></trkpt><trkpt lat="43.4526267" lon="13.6164733"><ele>7.000000000000001</ele><time>2026-03-22T10:05:55.993Z</time></trkpt><trkpt lat="43.4526783" lon="13.6163833"><ele>7.0</ele><time>2026-03-22T10:05:56.996Z</time></trkpt><trkpt lat="43.4527183" lon="13.61629"><ele>7.0</ele><time>2026-03-22T10:05:57.994Z</time></trkpt><trkpt lat="43.4527383" lon="13.6161833"><ele>7.0</ele><time>2026-03-22T10:05:58.992Z</time></trkpt><trkpt lat="43.452735" lon="13.616085"><ele>7.000000000000001</ele><time>2026-03-22T10:05:59.992Z</time></trkpt><trkpt lat="43.45272" lon="13.6159833"><ele>7.0</ele><time>2026-03-22T10:06:00.989Z</time></trkpt><trkpt lat="43.4526983" lon="13.6158733"><ele>7.000000000000001</ele><time>2026-03-22T10:06:01.989Z</time></trkpt><trkpt lat="43.4526717" lon="13.615765"><ele>7.0</ele><time>2026-03-22T10:06:02.994Z</time></trkpt><trkpt lat="43.4526483" lon="13.61566"><ele>7.0</ele><time>2026-03-22T10:06:03.992Z</time></trkpt><trkpt lat="43.452625" lon="13.61556"><ele>7.0</ele><time>2026-03-22T10:06:04.992Z</time></trkpt><trkpt lat="43.452605" lon="13.61547"><ele>7.000000000000001</ele><time>2026-03-22T10:06:05.994Z</time></trkpt><trkpt lat="43.4525833" lon="13.61538"><ele>7.0</ele><time>2026-03-22T10:06:06.994Z</time></trkpt><trkpt lat="43.4525567" lon="13.6152767"><ele>7.0</ele><time>2026-03-22T10:06:07.999Z</time></trkpt><trkpt lat="43.452525" lon="13.61516"><ele>6.999999999999999</ele><time>2026-03-22T10:06:08.992Z</time></trkpt><trkpt lat="43.45248" lon="13.6150483"><ele>6.999999999999999</ele><time>2026-03-22T10:06:09.996Z</time></trkpt><trkpt lat="43.452455" lon="13.61492"><ele>7.0</ele><time>2026-03-22T10:06:10.991Z</time></trkpt><trkpt lat="43.45243" lon="13.6148017"><ele>7.0</ele><time>2026-03-22T10:06:11.991Z</time></trkpt><trkpt lat="43.45241" lon="13.6146917"><ele>7.0</ele><time>2026-03-22T10:06:12.994Z</time></trkpt><trkpt lat="43.4523883" lon="13.6145933"><ele>6.999999999999999</ele><time>2026-03-22T10:06:13.994Z</time></trkpt><trkpt lat="43.452375" lon="13.6145067"><ele>6.999999999999999</ele><time>2026-03-22T10:06:14.998Z</time></trkpt><trkpt lat="43.452355" lon="13.6143517"><ele>7.0</ele><time>2026-03-22T10:06:16.996Z</time></trkpt><trkpt lat="43.45235" lon="13.614165"><ele>7.0</ele><time>2026-03-22T10:06:18.995Z</time></trkpt><trkpt lat="43.4523617" lon="13.6140467"><ele>6.8</ele><time>2026-03-22T10:06:19.994Z</time></trkpt><trkpt lat="43.4523817" lon="13.61391"><ele>6.6</ele><time>2026-03-22T10:06:20.994Z</time></trkpt><trkpt lat="43.452395" lon="13.61377"><ele>6.3999999999999995</ele><time>2026-03-22T10:06:21.995Z</time></trkpt><trkpt lat="43.452405" lon="13.6136167"><ele>6.199999999999999</ele><time>2026-03-22T10:06:22.998Z</time></trkpt><trkpt lat="43.4524117" lon="13.6134583"><ele>6.0</ele><time>2026-03-22T10:06:23.996Z</time></trkpt><trkpt lat="43.4524017" lon="13.6132967"><ele>6.75</ele><time>2026-03-22T10:06:24.996Z</time></trkpt><trkpt lat="43.4523717" lon="13.6131217"><ele>7.5</ele><time>2026-03-22T10:06:25.998Z</time></trkpt><trkpt lat="43.45232" lon="13.6129317"><ele>8.25</ele><time>2026-03-22T10:06:26.998Z</time></trkpt><trkpt lat="43.452245" lon="13.6127633"><ele>9.0</ele><time>2026-03-22T10:06:27.996Z</time></trkpt><trkpt lat="43.4521567" lon="13.6126167"><ele>9.25</ele><time>2026-03-22T10:06:28.996Z</time></trkpt><trkpt lat="43.4520533" lon="13.6124883"><ele>9.5</ele><time>2026-03-22T10:06:29.997Z</time></trkpt><trkpt lat="43.451955" lon="13.6123683"><ele>9.75</ele><time>2026-03-22T10:06:30.992Z</time></trkpt><trkpt lat="43.4518683" lon="13.6122517"><ele>10.0</ele><time>2026-03-22T10:06:31.995Z</time></trkpt><trkpt lat="43.4517983" lon="13.6121417"><ele>10.0</ele><time>2026-03-22T10:06:32.994Z</time></trkpt><trkpt lat="43.4517267" lon="13.6120217"><ele>10.0</ele><time>2026-03-22T10:06:33.994Z</time></trkpt><trkpt lat="43.451645" lon="13.6119083"><ele>10.0</ele><time>2026-03-22T10:06:34.994Z</time></trkpt><trkpt lat="43.451545" lon="13.6118283"><ele>10.0</ele><time>2026-03-22T10:06:35.99Z</time></trkpt><trkpt lat="43.4514283" lon="13.611785"><ele>9.75</ele><time>2026-03-22T10:06:36.994Z</time></trkpt><trkpt lat="43.4513033" lon="13.6117767"><ele>9.5</ele><time>2026-03-22T10:06:37.998Z</time></trkpt><trkpt lat="43.451175" lon="13.6117933"><ele>9.25</ele><time>2026-03-22T10:06:38.998Z</time></trkpt><trkpt lat="43.45104" lon="13.61182"><ele>9.0</ele><time>2026-03-22T10:06:39.997Z</time></trkpt><trkpt lat="43.4509067" lon="13.6118417"><ele>9.0</ele><time>2026-03-22T10:06:40.991Z</time></trkpt><trkpt lat="43.4507767" lon="13.6118633"><ele>9.0</ele><time>2026-03-22T10:06:42Z</time></trkpt><trkpt lat="43.450655" lon="13.6118983"><ele>9.0</ele><time>2026-03-22T10:06:42.994Z</time></trkpt><trkpt lat="43.4505383" lon="13.6119433"><ele>9.0</ele><time>2026-03-22T10:06:44.002Z</time></trkpt><trkpt lat="43.4504267" lon="13.6120017"><ele>9.4</ele><time>2026-03-22T10:06:44.996Z</time></trkpt><trkpt lat="43.4503217" lon="13.61206"><ele>9.8</ele><time>2026-03-22T10:06:45.994Z</time></trkpt><trkpt lat="43.4502217" lon="13.6121083"><ele>10.200000000000001</ele><time>2026-03-22T10:06:46.993Z</time></trkpt><trkpt lat="43.450125" lon="13.6121483"><ele>10.600000000000001</ele><time>2026-03-22T10:06:47.996Z</time></trkpt><trkpt lat="43.4500283" lon="13.6121733"><ele>11.0</ele><time>2026-03-22T10:06:48.994Z</time></trkpt><trkpt lat="43.4499367" lon="13.6121633"><ele>11.0</ele><time>2026-03-22T10:06:49.991Z</time></trkpt><trkpt lat="43.4498517" lon="13.6121"><ele>11.0</ele><time>2026-03-22T10:06:50.995Z</time></trkpt><trkpt lat="43.449785" lon="13.61201"><ele>11.0</ele><time>2026-03-22T10:06:51.995Z</time></trkpt><trkpt lat="43.44973" lon="13.611915"><ele>11.0</ele><time>2026-03-22T10:06:52.99Z</time></trkpt><trkpt lat="43.4496867" lon="13.611825"><ele>11.0</ele><time>2026-03-22T10:06:53.998Z</time></trkpt><trkpt lat="43.4496467" lon="13.61174"><ele>11.0</ele><time>2026-03-22T10:06:54.993Z</time></trkpt><trkpt lat="43.4496033" lon="13.6116533"><ele>11.0</ele><time>2026-03-22T10:06:55.99Z</time></trkpt><trkpt lat="43.4495617" lon="13.6115667"><ele>11.0</ele><time>2026-03-22T10:06:56.996Z</time></trkpt><trkpt lat="43.44952" lon="13.6114717"><ele>11.0</ele><time>2026-03-22T10:06:57.994Z</time></trkpt><trkpt lat="43.4494717" lon="13.6113733"><ele>11.0</ele><time>2026-03-22T10:06:58.995Z</time></trkpt><trkpt lat="43.4494183" lon="13.6112767"><ele>11.0</ele><time>2026-03-22T10:06:59.997Z</time></trkpt><trkpt lat="43.4493683" lon="13.6111783"><ele>11.0</ele><time>2026-03-22T10:07:00.992Z</time></trkpt><trkpt lat="43.4493167" lon="13.6110817"><ele>11.4</ele><time>2026-03-22T10:07:01.994Z</time></trkpt><trkpt lat="43.4492683" lon="13.610985"><ele>11.8</ele><time>2026-03-22T10:07:02.994Z</time></trkpt><trkpt lat="43.449215" lon="13.6108917"><ele>12.200000000000001</ele><time>2026-03-22T10:07:03.996Z</time></trkpt><trkpt lat="43.449155" lon="13.610795"><ele>12.600000000000001</ele><time>2026-03-22T10:07:04.992Z</time></trkpt><trkpt lat="43.4490817" lon="13.6106867"><ele>13.0</ele><time>2026-03-22T10:07:05.994Z</time></trkpt><trkpt lat="43.4490033" lon="13.6105733"><ele>13.0</ele><time>2026-03-22T10:07:06.996Z</time></trkpt><trkpt lat="43.4489167" lon="13.6104617"><ele>13.0</ele><time>2026-03-22T10:07:07.994Z</time></trkpt><trkpt lat="43.4488333" lon="13.6103583"><ele>13.0</ele><time>2026-03-22T10:07:08.997Z</time></trkpt><trkpt lat="43.4487433" lon="13.61025"><ele>13.0</ele><time>2026-03-22T10:07:09.998Z</time></trkpt><trkpt lat="43.4486517" lon="13.610135"><ele>12.75</ele><time>2026-03-22T10:07:10.995Z</time></trkpt><trkpt lat="43.4485567" lon="13.6100217"><ele>12.5</ele><time>2026-03-22T10:07:11.997Z</time></trkpt><trkpt lat="43.44846" lon="13.6099167"><ele>12.25</ele><time>2026-03-22T10:07:12.996Z</time></trkpt><trkpt lat="43.4483583" lon="13.6098283"><ele>12.0</ele><time>2026-03-22T10:07:14.001Z</time></trkpt><trkpt lat="43.448255" lon="13.6097617"><ele>12.0</ele><time>2026-03-22T10:07:14.997Z</time></trkpt><trkpt lat="43.44816" lon="13.6097083"><ele>12.0</ele><time>2026-03-22T10:07:15.992Z</time></trkpt><trkpt lat="43.4480717" lon="13.6096567"><ele>12.0</ele><time>2026-03-22T10:07:16.996Z</time></trkpt><trkpt lat="43.4479967" lon="13.6096033"><ele>12.0</ele><time>2026-03-22T10:07:17.991Z</time></trkpt><trkpt lat="43.4479383" lon="13.6095283"><ele>12.0</ele><time>2026-03-22T10:07:18.995Z</time></trkpt><trkpt lat="43.447895" lon="13.60943"><ele>12.0</ele><time>2026-03-22T10:07:19.994Z</time></trkpt><trkpt lat="43.4478683" lon="13.6093233"><ele>12.2</ele><time>2026-03-22T10:07:20.997Z</time></trkpt><trkpt lat="43.447855" lon="13.6092067"><ele>12.399999999999999</ele><time>2026-03-22T10:07:21.993Z</time></trkpt><trkpt lat="43.44785" lon="13.6090733"><ele>12.600000000000001</ele><time>2026-03-22T10:07:22.992Z</time></trkpt><trkpt lat="43.447845" lon="13.608935"><ele>12.8</ele><time>2026-03-22T10:07:23.989Z</time></trkpt><trkpt lat="43.4478367" lon="13.608795"><ele>13.0</ele><time>2026-03-22T10:07:24.993Z</time></trkpt><trkpt lat="43.44782" lon="13.6086617"><ele>13.166666666666666</ele><time>2026-03-22T10:07:25.994Z</time></trkpt><trkpt lat="43.44779" lon="13.608535"><ele>13.333333333333332</ele><time>2026-03-22T10:07:26.991Z</time></trkpt><trkpt lat="43.4477533" lon="13.608425"><ele>13.5</ele><time>2026-03-22T10:07:27.991Z</time></trkpt><trkpt lat="43.447715" lon="13.6083117"><ele>13.666666666666668</ele><time>2026-03-22T10:07:28.99Z</time></trkpt><trkpt lat="43.4476733" lon="13.6082083"><ele>13.833333333333334</ele><time>2026-03-22T10:07:29.992Z</time></trkpt><trkpt lat="43.4476317" lon="13.608115"><ele>14.0</ele><time>2026-03-22T10:07:30.994Z</time></trkpt><trkpt lat="43.4475967" lon="13.6080233"><ele>14.000000000000002</ele><time>2026-03-22T10:07:31.992Z</time></trkpt><trkpt lat="43.4475683" lon="13.6079333"><ele>14.0</ele><time>2026-03-22T10:07:32.993Z</time></trkpt><trkpt lat="43.4475483" lon="13.60784"><ele>14.0</ele><time>2026-03-22T10:07:33.991Z</time></trkpt><trkpt lat="43.4475383" lon="13.607745"><ele>14.0</ele><time>2026-03-22T10:07:34.992Z</time></trkpt><trkpt lat="43.4475333" lon="13.6076533"><ele>14.000000000000002</ele><time>2026-03-22T10:07:35.992Z</time></trkpt><trkpt lat="43.4475067" lon="13.6075083"><ele>14.0</ele><time>2026-03-22T10:07:37.994Z</time></trkpt><trkpt lat="43.4474" lon="13.60745"><ele>13.799999999999999</ele><time>2026-03-22T10:07:39.997Z</time></trkpt><trkpt lat="43.44732" lon="13.6074417"><ele>13.599999999999998</ele><time>2026-03-22T10:07:40.992Z</time></trkpt><trkpt lat="43.4472317" lon="13.6073967"><ele>13.4</ele><time>2026-03-22T10:07:41.997Z</time></trkpt><trkpt lat="43.44713" lon="13.6073183"><ele>13.2</ele><time>2026-03-22T10:07:42.992Z</time></trkpt><trkpt lat="43.4470333" lon="13.6072267"><ele>13.0</ele><time>2026-03-22T10:07:43.996Z</time></trkpt><trkpt lat="43.4469467" lon="13.6071267"><ele>13.5</ele><time>2026-03-22T10:07:44.992Z</time></trkpt><trkpt lat="43.4468733" lon="13.6070067"><ele>14.0</ele><time>2026-03-22T10:07:45.992Z</time></trkpt><trkpt lat="43.4468117" lon="13.60686"><ele>14.5</ele><time>2026-03-22T10:07:46.992Z</time></trkpt><trkpt lat="43.4467517" lon="13.6066983"><ele>15.0</ele><time>2026-03-22T10:07:47.992Z</time></trkpt><trkpt lat="43.44669" lon="13.606525"><ele>15.0</ele><time>2026-03-22T10:07:48.993Z</time></trkpt><trkpt lat="43.4466267" lon="13.606355"><ele>15.0</ele><time>2026-03-22T10:07:49.996Z</time></trkpt><trkpt lat="43.4465583" lon="13.6061983"><ele>15.0</ele><time>2026-03-22T10:07:50.994Z</time></trkpt><trkpt lat="43.4464833" lon="13.6060517"><ele>15.0</ele><time>2026-03-22T10:07:51.994Z</time></trkpt><trkpt lat="43.4464133" lon="13.6059083"><ele>15.0</ele><time>2026-03-22T10:07:52.996Z</time></trkpt><trkpt lat="43.4463433" lon="13.605755"><ele>15.0</ele><time>2026-03-22T10:07:53.997Z</time></trkpt><trkpt lat="43.4462817" lon="13.6055867"><ele>15.0</ele><time>2026-03-22T10:07:54.993Z</time></trkpt><trkpt lat="43.44623" lon="13.6054117"><ele>15.0</ele><time>2026-03-22T10:07:55.994Z</time></trkpt><trkpt lat="43.4461783" lon="13.605245"><ele>15.2</ele><time>2026-03-22T10:07:56.993Z</time></trkpt><trkpt lat="43.44613" lon="13.6050967"><ele>15.4</ele><time>2026-03-22T10:07:57.994Z</time></trkpt><trkpt lat="43.4460833" lon="13.6049633"><ele>15.600000000000001</ele><time>2026-03-22T10:07:58.996Z</time></trkpt><trkpt lat="43.4460383" lon="13.6048433"><ele>15.8</ele><time>2026-03-22T10:07:59.991Z</time></trkpt><trkpt lat="43.4459983" lon="13.6047333"><ele>16.0</ele><time>2026-03-22T10:08:00.993Z</time></trkpt><trkpt lat="43.4459617" lon="13.604635"><ele>15.999999999999998</ele><time>2026-03-22T10:08:01.994Z</time></trkpt><trkpt lat="43.4459283" lon="13.60454"><ele>16.0</ele><time>2026-03-22T10:08:02.992Z</time></trkpt><trkpt lat="43.4458917" lon="13.60446"><ele>16.0</ele><time>2026-03-22T10:08:03.994Z</time></trkpt><trkpt lat="43.445825" lon="13.6043167"><ele>16.0</ele><time>2026-03-22T10:08:05.99Z</time></trkpt><trkpt lat="43.4457867" lon="13.604235"><ele>15.999999999999998</ele><time>2026-03-22T10:08:06.991Z</time></trkpt><trkpt lat="43.4457433" lon="13.60413"><ele>16.0</ele><time>2026-03-22T10:08:07.993Z</time></trkpt><trkpt lat="43.4456933" lon="13.6040067"><ele>15.5</ele><time>2026-03-22T10:08:08.998Z</time></trkpt><trkpt lat="43.44564" lon="13.6038817"><ele>15.0</ele><time>2026-03-22T10:08:09.991Z</time></trkpt><trkpt lat="43.4455833" lon="13.60375"><ele>14.5</ele><time>2026-03-22T10:08:10.995Z</time></trkpt><trkpt lat="43.4455233" lon="13.6036117"><ele>14.0</ele><time>2026-03-22T10:08:11.991Z</time></trkpt><trkpt lat="43.4454617" lon="13.6034633"><ele>14.0</ele><time>2026-03-22T10:08:12.994Z</time></trkpt><trkpt lat="43.4453917" lon="13.6032983"><ele>14.0</ele><time>2026-03-22T10:08:14Z</time></trkpt><trkpt lat="43.44532" lon="13.6031283"><ele>14.0</ele><time>2026-03-22T10:08:14.995Z</time></trkpt><trkpt lat="43.445245" lon="13.6029583"><ele>14.0</ele><time>2026-03-22T10:08:15.993Z</time></trkpt><trkpt lat="43.4451733" lon="13.6027983"><ele>13.799999999999999</ele><time>2026-03-22T10:08:16.996Z</time></trkpt><trkpt lat="43.445105" lon="13.6026483"><ele>13.599999999999998</ele><time>2026-03-22T10:08:17.995Z</time></trkpt><trkpt lat="43.4450433" lon="13.6025167"><ele>13.4</ele><time>2026-03-22T10:08:18.998Z</time></trkpt><trkpt lat="43.44499" lon="13.6024017"><ele>13.2</ele><time>2026-03-22T10:08:19.992Z</time></trkpt><trkpt lat="43.4449417" lon="13.6023"><ele>13.0</ele><time>2026-03-22T10:08:20.996Z</time></trkpt><trkpt lat="43.4448967" lon="13.6022083"><ele>12.999999999999998</ele><time>2026-03-22T10:08:21.99Z</time></trkpt><trkpt lat="43.4448533" lon="13.6021183"><ele>13.0</ele><time>2026-03-22T10:08:22.996Z</time></trkpt><trkpt lat="43.444805" lon="13.60202"><ele>13.0</ele><time>2026-03-22T10:08:23.995Z</time></trkpt><trkpt lat="43.44475" lon="13.6019117"><ele>13.0</ele><time>2026-03-22T10:08:24.996Z</time></trkpt><trkpt lat="43.4446933" lon="13.6018033"><ele>12.999999999999998</ele><time>2026-03-22T10:08:25.99Z</time></trkpt><trkpt lat="43.4446417" lon="13.6017017"><ele>13.0</ele><time>2026-03-22T10:08:26.996Z</time></trkpt><trkpt lat="43.4445933" lon="13.6016083"><ele>13.2</ele><time>2026-03-22T10:08:27.993Z</time></trkpt><trkpt lat="43.44455" lon="13.601525"><ele>13.4</ele><time>2026-03-22T10:08:28.993Z</time></trkpt><trkpt lat="43.44451" lon="13.60145"><ele>13.599999999999998</ele><time>2026-03-22T10:08:29.994Z</time></trkpt><trkpt lat="43.4444383" lon="13.6013133"><ele>13.799999999999999</ele><time>2026-03-22T10:08:31.995Z</time></trkpt><trkpt lat="43.4443717" lon="13.6011783"><ele>14.0</ele><time>2026-03-22T10:08:33.992Z</time></trkpt><trkpt lat="43.4442883" lon="13.60105"><ele>14.2</ele><time>2026-03-22T10:08:35.994Z</time></trkpt><trkpt lat="43.44424" lon="13.6009883"><ele>14.399999999999999</ele><time>2026-03-22T10:08:36.992Z</time></trkpt><trkpt lat="43.44415" lon="13.6008983"><ele>14.6</ele><time>2026-03-22T10:08:38.995Z</time></trkpt><trkpt lat="43.44406" lon="13.6008133"><ele>14.8</ele><time>2026-03-22T10:08:40.998Z</time></trkpt><trkpt lat="43.44401" lon="13.60071"><ele>15.0</ele><time>2026-03-22T10:08:42.993Z</time></trkpt><trkpt lat="43.4440217" lon="13.6005583"><ele>15.0</ele><time>2026-03-22T10:08:44.996Z</time></trkpt><trkpt lat="43.4440367" lon="13.6004683"><ele>15.0</ele><time>2026-03-22T10:08:45.997Z</time></trkpt><trkpt lat="43.444055" lon="13.6003667"><ele>15.0</ele><time>2026-03-22T10:08:46.999Z</time></trkpt><trkpt lat="43.4440733" lon="13.60027"><ele>15.0</ele><time>2026-03-22T10:08:47.995Z</time></trkpt><trkpt lat="43.4441" lon="13.600115"><ele>15.0</ele><time>2026-03-22T10:08:49.99Z</time></trkpt><trkpt lat="43.4441183" lon="13.599975"><ele>15.0</ele><time>2026-03-22T10:08:51.995Z</time></trkpt><trkpt lat="43.444145" lon="13.5998233"><ele>15.2</ele><time>2026-03-22T10:08:53.996Z</time></trkpt><trkpt lat="43.4441783" lon="13.59967"><ele>15.4</ele><time>2026-03-22T10:08:55.991Z</time></trkpt><trkpt lat="43.4442083" lon="13.5995267"><ele>15.600000000000001</ele><time>2026-03-22T10:08:57.994Z</time></trkpt><trkpt lat="43.44423" lon="13.5993767"><ele>15.8</ele><time>2026-03-22T10:08:59.989Z</time></trkpt><trkpt lat="43.4442483" lon="13.5992783"><ele>16.0</ele><time>2026-03-22T10:09:00.992Z</time></trkpt><trkpt lat="43.4442667" lon="13.5991617"><ele>16.0</ele><time>2026-03-22T10:09:01.993Z</time></trkpt><trkpt lat="43.4442867" lon="13.59905"><ele>16.0</ele><time>2026-03-22T10:09:02.991Z</time></trkpt><trkpt lat="43.444305" lon="13.5989317"><ele>16.0</ele><time>2026-03-22T10:09:03.989Z</time></trkpt><trkpt lat="43.4443267" lon="13.598795"><ele>16.0</ele><time>2026-03-22T10:09:05.002Z</time></trkpt><trkpt lat="43.4443517" lon="13.59865"><ele>16.0</ele><time>2026-03-22T10:09:05.99Z</time></trkpt><trkpt lat="43.444375" lon="13.5985017"><ele>16.0</ele><time>2026-03-22T10:09:06.993Z</time></trkpt><trkpt lat="43.4444" lon="13.5983417"><ele>16.0</ele><time>2026-03-22T10:09:07.994Z</time></trkpt><trkpt lat="43.4444283" lon="13.59817"><ele>16.0</ele><time>2026-03-22T10:09:08.996Z</time></trkpt><trkpt lat="43.4444583" lon="13.5979933"><ele>16.0</ele><time>2026-03-22T10:09:09.993Z</time></trkpt><trkpt lat="43.4444883" lon="13.5978167"><ele>16.0</ele><time>2026-03-22T10:09:10.994Z</time></trkpt><trkpt lat="43.44452" lon="13.59765"><ele>16.0</ele><time>2026-03-22T10:09:11.99Z</time></trkpt><trkpt lat="43.4445467" lon="13.5974883"><ele>16.0</ele><time>2026-03-22T10:09:12.994Z</time></trkpt><trkpt lat="43.4445733" lon="13.5973367"><ele>16.0</ele><time>2026-03-22T10:09:13.994Z</time></trkpt><trkpt lat="43.444605" lon="13.5971667"><ele>15.75</ele><time>2026-03-22T10:09:14.995Z</time></trkpt><trkpt lat="43.44464" lon="13.596995"><ele>15.5</ele><time>2026-03-22T10:09:15.995Z</time></trkpt><trkpt lat="43.4446717" lon="13.5968283"><ele>15.25</ele><time>2026-03-22T10:09:16.996Z</time></trkpt><trkpt lat="43.4447067" lon="13.5966667"><ele>15.0</ele><time>2026-03-22T10:09:17.998Z</time></trkpt><trkpt lat="43.44474" lon="13.596495"><ele>15.0</ele><time>2026-03-22T10:09:18.99Z</time></trkpt><trkpt lat="43.44477" lon="13.5963217"><ele>15.0</ele><time>2026-03-22T10:09:19.993Z</time></trkpt><trkpt lat="43.4447983" lon="13.5961533"><ele>15.0</ele><time>2026-03-22T10:09:20.996Z</time></trkpt><trkpt lat="43.4448267" lon="13.5959883"><ele>15.0</ele><time>2026-03-22T10:09:21.999Z</time></trkpt><trkpt lat="43.444855" lon="13.5958217"><ele>14.75</ele><time>2026-03-22T10:09:22.993Z</time></trkpt><trkpt lat="43.444885" lon="13.5956517"><ele>14.5</ele><time>2026-03-22T10:09:24.001Z</time></trkpt><trkpt lat="43.4449183" lon="13.5954883"><ele>14.25</ele><time>2026-03-22T10:09:24.994Z</time></trkpt><trkpt lat="43.4449483" lon="13.5953267"><ele>14.0</ele><time>2026-03-22T10:09:25.993Z</time></trkpt><trkpt lat="43.4449917" lon="13.5951817"><ele>13.75</ele><time>2026-03-22T10:09:26.996Z</time></trkpt><trkpt lat="43.445045" lon="13.595035"><ele>13.5</ele><time>2026-03-22T10:09:27.992Z</time></trkpt><trkpt lat="43.445095" lon="13.59489"><ele>13.25</ele><time>2026-03-22T10:09:28.995Z</time></trkpt><trkpt lat="43.4451467" lon="13.5947533"><ele>13.0</ele><time>2026-03-22T10:09:29.991Z</time></trkpt><trkpt lat="43.4452067" lon="13.5946183"><ele>13.4</ele><time>2026-03-22T10:09:30.989Z</time></trkpt><trkpt lat="43.445275" lon="13.5944933"><ele>13.8</ele><time>2026-03-22T10:09:31.99Z</time></trkpt><trkpt lat="43.4453583" lon="13.5943867"><ele>14.2</ele><time>2026-03-22T10:09:32.988Z</time></trkpt><trkpt lat="43.4454433" lon="13.594295"><ele>14.6</ele><time>2026-03-22T10:09:33.993Z</time></trkpt><trkpt lat="43.4455233" lon="13.5942117"><ele>15.0</ele><time>2026-03-22T10:09:34.989Z</time></trkpt><trkpt lat="43.4456083" lon="13.59413"><ele>15.0</ele><time>2026-03-22T10:09:35.991Z</time></trkpt><trkpt lat="43.4457067" lon="13.5940483"><ele>15.0</ele><time>2026-03-22T10:09:36.988Z</time></trkpt><trkpt lat="43.4458017" lon="13.59396"><ele>15.0</ele><time>2026-03-22T10:09:37.996Z</time></trkpt><trkpt lat="43.445895" lon="13.5938633"><ele>15.0</ele><time>2026-03-22T10:09:38.995Z</time></trkpt><trkpt lat="43.4459917" lon="13.5937733"><ele>15.0</ele><time>2026-03-22T10:09:39.991Z</time></trkpt><trkpt lat="43.446085" lon="13.5936933"><ele>15.0</ele><time>2026-03-22T10:09:40.997Z</time></trkpt><trkpt lat="43.4461717" lon="13.5936183"><ele>15.0</ele><time>2026-03-22T10:09:41.998Z</time></trkpt><trkpt lat="43.4462533" lon="13.5935433"><ele>15.0</ele><time>2026-03-22T10:09:42.997Z</time></trkpt><trkpt lat="43.4463233" lon="13.5934767"><ele>15.0</ele><time>2026-03-22T10:09:43.995Z</time></trkpt><trkpt lat="43.4463817" lon="13.5934183"><ele>15.0</ele><time>2026-03-22T10:09:44.998Z</time></trkpt><trkpt lat="43.4464633" lon="13.5932967"><ele>15.0</ele><time>2026-03-22T10:09:46.994Z</time></trkpt><trkpt lat="43.4464167" lon="13.593135"><ele>15.0</ele><time>2026-03-22T10:09:48.989Z</time></trkpt><trkpt lat="43.4463317" lon="13.5929983"><ele>15.0</ele><time>2026-03-22T10:09:49.994Z</time></trkpt><trkpt lat="43.44624" lon="13.59284"><ele>14.666666666666668</ele><time>2026-03-22T10:09:50.993Z</time></trkpt><trkpt lat="43.446135" lon="13.5926583"><ele>14.333333333333334</ele><time>2026-03-22T10:09:51.994Z</time></trkpt><trkpt lat="43.44603" lon="13.5924567"><ele>14.0</ele><time>2026-03-22T10:09:52.993Z</time></trkpt><trkpt lat="43.445915" lon="13.5922483"><ele>14.0</ele><time>2026-03-22T10:09:54.001Z</time></trkpt><trkpt lat="43.4458" lon="13.5920367"><ele>14.0</ele><time>2026-03-22T10:09:54.994Z</time></trkpt><trkpt lat="43.44569" lon="13.5918333"><ele>14.0</ele><time>2026-03-22T10:09:55.994Z</time></trkpt><trkpt lat="43.4455883" lon="13.5916433"><ele>14.0</ele><time>2026-03-22T10:09:56.998Z</time></trkpt><trkpt lat="43.445495" lon="13.59147"><ele>14.0</ele><time>2026-03-22T10:09:57.996Z</time></trkpt><trkpt lat="43.4454067" lon="13.5913067"><ele>14.0</ele><time>2026-03-22T10:09:58.996Z</time></trkpt><trkpt lat="43.44533" lon="13.59116"><ele>14.0</ele><time>2026-03-22T10:09:59.993Z</time></trkpt><trkpt lat="43.4452633" lon="13.5910317"><ele>13.799999999999999</ele><time>2026-03-22T10:10:00.998Z</time></trkpt><trkpt lat="43.4452033" lon="13.5909167"><ele>13.599999999999998</ele><time>2026-03-22T10:10:01.995Z</time></trkpt><trkpt lat="43.44515" lon="13.590815"><ele>13.4</ele><time>2026-03-22T10:10:02.994Z</time></trkpt><trkpt lat="43.4450983" lon="13.59072"><ele>13.2</ele><time>2026-03-22T10:10:03.991Z</time></trkpt><trkpt lat="43.4450517" lon="13.5906267"><ele>13.0</ele><time>2026-03-22T10:10:04.993Z</time></trkpt><trkpt lat="43.4449967" lon="13.59052"><ele>13.0</ele><time>2026-03-22T10:10:05.995Z</time></trkpt><trkpt lat="43.4449333" lon="13.5904"><ele>13.0</ele><time>2026-03-22T10:10:06.99Z</time></trkpt><trkpt lat="43.444865" lon="13.5902683"><ele>13.0</ele><time>2026-03-22T10:10:07.991Z</time></trkpt><trkpt lat="43.4447883" lon="13.5901283"><ele>13.0</ele><time>2026-03-22T10:10:08.996Z</time></trkpt><trkpt lat="43.4447183" lon="13.5899833"><ele>13.0</ele><time>2026-03-22T10:10:09.994Z</time></trkpt><trkpt lat="43.4446467" lon="13.58984"><ele>13.0</ele><time>2026-03-22T10:10:10.995Z</time></trkpt><trkpt lat="43.4445767" lon="13.5897033"><ele>13.0</ele><time>2026-03-22T10:10:11.989Z</time></trkpt><trkpt lat="43.444505" lon="13.589565"><ele>13.0</ele><time>2026-03-22T10:10:12.991Z</time></trkpt><trkpt lat="43.4444333" lon="13.5894317"><ele>13.5</ele><time>2026-03-22T10:10:13.992Z</time></trkpt><trkpt lat="43.44436" lon="13.5892967"><ele>14.0</ele><time>2026-03-22T10:10:14.995Z</time></trkpt><trkpt lat="43.44429" lon="13.58916"><ele>14.5</ele><time>2026-03-22T10:10:15.993Z</time></trkpt><trkpt lat="43.4442133" lon="13.58902"><ele>15.0</ele><time>2026-03-22T10:10:16.993Z</time></trkpt><trkpt lat="43.444125" lon="13.5888767"><ele>15.0</ele><time>2026-03-22T10:10:17.994Z</time></trkpt><trkpt lat="43.44402" lon="13.5887367"><ele>15.0</ele><time>2026-03-22T10:10:18.999Z</time></trkpt><trkpt lat="43.4438983" lon="13.588605"><ele>15.0</ele><time>2026-03-22T10:10:19.996Z</time></trkpt><trkpt lat="43.4437617" lon="13.5884783"><ele>15.0</ele><time>2026-03-22T10:10:20.993Z</time></trkpt><trkpt lat="43.4436167" lon="13.588355"><ele>15.0</ele><time>2026-03-22T10:10:21.993Z</time></trkpt><trkpt lat="43.4434667" lon="13.588235"><ele>15.0</ele><time>2026-03-22T10:10:22.997Z</time></trkpt><trkpt lat="43.4433117" lon="13.58811"><ele>15.0</ele><time>2026-03-22T10:10:23.995Z</time></trkpt><trkpt lat="43.4431567" lon="13.58798"><ele>15.0</ele><time>2026-03-22T10:10:24.993Z</time></trkpt><trkpt lat="43.442995" lon="13.5878517"><ele>15.0</ele><time>2026-03-22T10:10:25.997Z</time></trkpt><trkpt lat="43.442835" lon="13.5877217"><ele>15.0</ele><time>2026-03-22T10:10:26.994Z</time></trkpt><trkpt lat="43.442675" lon="13.5875917"><ele>15.0</ele><time>2026-03-22T10:10:27.993Z</time></trkpt><trkpt lat="43.4425183" lon="13.58746"><ele>15.0</ele><time>2026-03-22T10:10:28.995Z</time></trkpt><trkpt lat="43.4423567" lon="13.5873283"><ele>15.0</ele><time>2026-03-22T10:10:29.996Z</time></trkpt><trkpt lat="43.4422" lon="13.5871967"><ele>15.0</ele><time>2026-03-22T10:10:30.999Z</time></trkpt><trkpt lat="43.442045" lon="13.5870633"><ele>15.0</ele><time>2026-03-22T10:10:31.997Z</time></trkpt><trkpt lat="43.4418833" lon="13.58692"><ele>15.333333333333332</ele><time>2026-03-22T10:10:32.994Z</time></trkpt><trkpt lat="43.4417233" lon="13.5867667"><ele>15.666666666666666</ele><time>2026-03-22T10:10:33.99Z</time></trkpt><trkpt lat="43.4415617" lon="13.5866183"><ele>16.0</ele><time>2026-03-22T10:10:34.99Z</time></trkpt><trkpt lat="43.4413967" lon="13.5864717"><ele>16.666666666666664</ele><time>2026-03-22T10:10:35.994Z</time></trkpt><trkpt lat="43.441235" lon="13.5863183"><ele>17.333333333333332</ele><time>2026-03-22T10:10:36.995Z</time></trkpt><trkpt lat="43.4410683" lon="13.5861617"><ele>18.0</ele><time>2026-03-22T10:10:37.993Z</time></trkpt><trkpt lat="43.440905" lon="13.5860017"><ele>18.0</ele><time>2026-03-22T10:10:38.992Z</time></trkpt><trkpt lat="43.440745" lon="13.5858417"><ele>18.0</ele><time>2026-03-22T10:10:39.994Z</time></trkpt><trkpt lat="43.44059" lon="13.5856833"><ele>18.0</ele><time>2026-03-22T10:10:40.992Z</time></trkpt><trkpt lat="43.44043" lon="13.5855267"><ele>18.0</ele><time>2026-03-22T10:10:41.994Z</time></trkpt><trkpt lat="43.4402667" lon="13.5853733"><ele>18.0</ele><time>2026-03-22T10:10:42.991Z</time></trkpt><trkpt lat="43.4401083" lon="13.5852217"><ele>18.0</ele><time>2026-03-22T10:10:43.993Z</time></trkpt><trkpt lat="43.439955" lon="13.5850717"><ele>17.666666666666668</ele><time>2026-03-22T10:10:44.994Z</time></trkpt><trkpt lat="43.439815" lon="13.5849067"><ele>17.333333333333336</ele><time>2026-03-22T10:10:45.992Z</time></trkpt><trkpt lat="43.439705" lon="13.584725"><ele>17.0</ele><time>2026-03-22T10:10:46.992Z</time></trkpt><trkpt lat="43.439625" lon="13.5845117"><ele>17.0</ele><time>2026-03-22T10:10:47.997Z</time></trkpt><trkpt lat="43.4395567" lon="13.58428"><ele>17.0</ele><time>2026-03-22T10:10:48.993Z</time></trkpt><trkpt lat="43.439495" lon="13.5840367"><ele>17.0</ele><time>2026-03-22T10:10:49.994Z</time></trkpt><trkpt lat="43.4394367" lon="13.5837867"><ele>17.0</ele><time>2026-03-22T10:10:50.997Z</time></trkpt><trkpt lat="43.4393817" lon="13.5835317"><ele>17.0</ele><time>2026-03-22T10:10:51.991Z</time></trkpt><trkpt lat="43.4393283" lon="13.5832733"><ele>17.0</ele><time>2026-03-22T10:10:52.993Z</time></trkpt><trkpt lat="43.439285" lon="13.5830133"><ele>17.0</ele><time>2026-03-22T10:10:53.993Z</time></trkpt><trkpt lat="43.4392483" lon="13.5827467"><ele>17.0</ele><time>2026-03-22T10:10:54.994Z</time></trkpt><trkpt lat="43.439215" lon="13.5824783"><ele>17.0</ele><time>2026-03-22T10:10:55.993Z</time></trkpt><trkpt lat="43.439185" lon="13.5822067"><ele>17.333333333333336</ele><time>2026-03-22T10:10:57Z</time></trkpt><trkpt lat="43.4391567" lon="13.5819317"><ele>17.666666666666668</ele><time>2026-03-22T10:10:57.995Z</time></trkpt><trkpt lat="43.4391283" lon="13.581655"><ele>18.0</ele><time>2026-03-22T10:10:58.993Z</time></trkpt><trkpt lat="43.4391" lon="13.5813783"><ele>18.333333333333332</ele><time>2026-03-22T10:10:59.991Z</time></trkpt><trkpt lat="43.4390717" lon="13.5811017"><ele>18.666666666666664</ele><time>2026-03-22T10:11:00.991Z</time></trkpt><trkpt lat="43.4390433" lon="13.5808267"><ele>19.0</ele><time>2026-03-22T10:11:01.999Z</time></trkpt><trkpt lat="43.439015" lon="13.58055"><ele>19.0</ele><time>2026-03-22T10:11:02.997Z</time></trkpt><trkpt lat="43.4389883" lon="13.580275"><ele>19.0</ele><time>2026-03-22T10:11:03.992Z</time></trkpt><trkpt lat="43.4389617" lon="13.5799967"><ele>19.0</ele><time>2026-03-22T10:11:04.995Z</time></trkpt><trkpt lat="43.4389317" lon="13.579715"><ele>19.333333333333332</ele><time>2026-03-22T10:11:05.996Z</time></trkpt><trkpt lat="43.4389017" lon="13.579435"><ele>19.666666666666668</ele><time>2026-03-22T10:11:06.99Z</time></trkpt><trkpt lat="43.43887" lon="13.5791517"><ele>20.0</ele><time>2026-03-22T10:11:07.995Z</time></trkpt><trkpt lat="43.4388367" lon="13.57887"><ele>20.333333333333336</ele><time>2026-03-22T10:11:08.993Z</time></trkpt><trkpt lat="43.4388017" lon="13.57859"><ele>20.666666666666668</ele><time>2026-03-22T10:11:09.992Z</time></trkpt><trkpt lat="43.4387717" lon="13.5783133"><ele>21.0</ele><time>2026-03-22T10:11:10.99Z</time></trkpt><trkpt lat="43.43875" lon="13.5780383"><ele>21.0</ele><time>2026-03-22T10:11:11.994Z</time></trkpt><trkpt lat="43.438735" lon="13.5777617"><ele>21.0</ele><time>2026-03-22T10:11:12.99Z</time></trkpt><trkpt lat="43.43872" lon="13.5774883"><ele>21.0</ele><time>2026-03-22T10:11:13.992Z</time></trkpt><trkpt lat="43.4387" lon="13.577215"><ele>20.666666666666668</ele><time>2026-03-22T10:11:14.995Z</time></trkpt><trkpt lat="43.438665" lon="13.5769383"><ele>20.333333333333336</ele><time>2026-03-22T10:11:15.993Z</time></trkpt><trkpt lat="43.43862" lon="13.57667"><ele>20.0</ele><time>2026-03-22T10:11:16.994Z</time></trkpt><trkpt lat="43.438565" lon="13.5764083"><ele>20.0</ele><time>2026-03-22T10:11:17.992Z</time></trkpt><trkpt lat="43.43851" lon="13.5761467"><ele>20.0</ele><time>2026-03-22T10:11:18.992Z</time></trkpt><trkpt lat="43.4384617" lon="13.57588"><ele>20.0</ele><time>2026-03-22T10:11:19.993Z</time></trkpt><trkpt lat="43.4384283" lon="13.5756117"><ele>19.333333333333336</ele><time>2026-03-22T10:11:20.994Z</time></trkpt><trkpt lat="43.4384117" lon="13.5753517"><ele>18.666666666666668</ele><time>2026-03-22T10:11:21.991Z</time></trkpt><trkpt lat="43.4384067" lon="13.57511"><ele>18.0</ele><time>2026-03-22T10:11:22.989Z</time></trkpt><trkpt lat="43.4384033" lon="13.5748817"><ele>18.0</ele><time>2026-03-22T10:11:23.993Z</time></trkpt><trkpt lat="43.438395" lon="13.5746683"><ele>18.0</ele><time>2026-03-22T10:11:24.993Z</time></trkpt><trkpt lat="43.438385" lon="13.5744767"><ele>18.0</ele><time>2026-03-22T10:11:25.993Z</time></trkpt><trkpt lat="43.4383717" lon="13.574305"><ele>18.0</ele><time>2026-03-22T10:11:26.993Z</time></trkpt><trkpt lat="43.4383633" lon="13.5741467"><ele>18.166666666666668</ele><time>2026-03-22T10:11:27.995Z</time></trkpt><trkpt lat="43.438365" lon="13.574005"><ele>18.333333333333332</ele><time>2026-03-22T10:11:28.992Z</time></trkpt><trkpt lat="43.4383783" lon="13.573885"><ele>18.5</ele><time>2026-03-22T10:11:29.987Z</time></trkpt><trkpt lat="43.4384" lon="13.573785"><ele>18.666666666666664</ele><time>2026-03-22T10:11:30.991Z</time></trkpt><trkpt lat="43.4384217" lon="13.5736917"><ele>18.833333333333332</ele><time>2026-03-22T10:11:31.995Z</time></trkpt><trkpt lat="43.4384367" lon="13.5735833"><ele>19.0</ele><time>2026-03-22T10:11:32.991Z</time></trkpt><trkpt lat="43.4384333" lon="13.5734633"><ele>19.0</ele><time>2026-03-22T10:11:33.993Z</time></trkpt><trkpt lat="43.4384167" lon="13.57333"><ele>19.0</ele><time>2026-03-22T10:11:34.992Z</time></trkpt><trkpt lat="43.4383417" lon="13.5731783"><ele>19.0</ele><time>2026-03-22T10:11:35.991Z</time></trkpt><trkpt lat="43.4382817" lon="13.5730017"><ele>19.0</ele><time>2026-03-22T10:11:36.991Z</time></trkpt><trkpt lat="43.4382417" lon="13.5727983"><ele>19.333333333333332</ele><time>2026-03-22T10:11:37.993Z</time></trkpt><trkpt lat="43.438215" lon="13.5725633"><ele>19.666666666666668</ele><time>2026-03-22T10:11:38.993Z</time></trkpt><trkpt lat="43.4381933" lon="13.5723217"><ele>20.0</ele><time>2026-03-22T10:11:39.995Z</time></trkpt><trkpt lat="43.438165" lon="13.5720817"><ele>20.0</ele><time>2026-03-22T10:11:40.995Z</time></trkpt><trkpt lat="43.438135" lon="13.5718383"><ele>20.0</ele><time>2026-03-22T10:11:41.994Z</time></trkpt><trkpt lat="43.438105" lon="13.571595"><ele>20.0</ele><time>2026-03-22T10:11:42.988Z</time></trkpt><trkpt lat="43.4380733" lon="13.57135"><ele>20.333333333333336</ele><time>2026-03-22T10:11:43.996Z</time></trkpt><trkpt lat="43.43804" lon="13.5710983"><ele>20.666666666666668</ele><time>2026-03-22T10:11:44.995Z</time></trkpt><trkpt lat="43.43801" lon="13.57085"><ele>21.0</ele><time>2026-03-22T10:11:45.993Z</time></trkpt><trkpt lat="43.4379833" lon="13.570615"><ele>21.0</ele><time>2026-03-22T10:11:46.993Z</time></trkpt><trkpt lat="43.4379583" lon="13.5703967"><ele>21.0</ele><time>2026-03-22T10:11:47.999Z</time></trkpt><trkpt lat="43.4379333" lon="13.570195"><ele>21.0</ele><time>2026-03-22T10:11:48.996Z</time></trkpt><trkpt lat="43.4379133" lon="13.570015"><ele>21.0</ele><time>2026-03-22T10:11:49.994Z</time></trkpt><trkpt lat="43.4378967" lon="13.569855"><ele>21.0</ele><time>2026-03-22T10:11:50.993Z</time></trkpt><trkpt lat="43.437885" lon="13.5697083"><ele>21.0</ele><time>2026-03-22T10:11:51.991Z</time></trkpt><trkpt lat="43.4378833" lon="13.5695717"><ele>21.0</ele><time>2026-03-22T10:11:52.993Z</time></trkpt><trkpt lat="43.4379" lon="13.5694467"><ele>21.0</ele><time>2026-03-22T10:11:53.996Z</time></trkpt><trkpt lat="43.43795" lon="13.569345"><ele>21.0</ele><time>2026-03-22T10:11:54.997Z</time></trkpt><trkpt lat="43.43802" lon="13.56925"><ele>21.4</ele><time>2026-03-22T10:11:55.996Z</time></trkpt><trkpt lat="43.438115" lon="13.5691867"><ele>21.8</ele><time>2026-03-22T10:11:56.996Z</time></trkpt><trkpt lat="43.4382083" lon="13.5691367"><ele>22.2</ele><time>2026-03-22T10:11:57.991Z</time></trkpt><trkpt lat="43.4382917" lon="13.5690767"><ele>22.599999999999998</ele><time>2026-03-22T10:11:58.995Z</time></trkpt><trkpt lat="43.438345" lon="13.56899"><ele>23.0</ele><time>2026-03-22T10:11:59.994Z</time></trkpt><trkpt lat="43.438385" lon="13.5688767"><ele>23.0</ele><time>2026-03-22T10:12:00.995Z</time></trkpt><trkpt lat="43.4383967" lon="13.5687233"><ele>23.0</ele><time>2026-03-22T10:12:01.991Z</time></trkpt><trkpt lat="43.438385" lon="13.568515"><ele>23.0</ele><time>2026-03-22T10:12:02.994Z</time></trkpt><trkpt lat="43.43837" lon="13.5682917"><ele>23.0</ele><time>2026-03-22T10:12:03.991Z</time></trkpt><trkpt lat="43.4383633" lon="13.56805"><ele>22.0</ele><time>2026-03-22T10:12:04.993Z</time></trkpt><trkpt lat="43.4383567" lon="13.567785"><ele>21.0</ele><time>2026-03-22T10:12:05.995Z</time></trkpt><trkpt lat="43.4383517" lon="13.567505"><ele>20.0</ele><time>2026-03-22T10:12:06.993Z</time></trkpt><trkpt lat="43.438345" lon="13.56721"><ele>21.0</ele><time>2026-03-22T10:12:07.996Z</time></trkpt><trkpt lat="43.4383333" lon="13.5669"><ele>22.0</ele><time>2026-03-22T10:12:08.995Z</time></trkpt><trkpt lat="43.4383167" lon="13.566585"><ele>22.0</ele><time>2026-03-22T10:12:09.995Z</time></trkpt><trkpt lat="43.4383017" lon="13.5662783"><ele>22.0</ele><time>2026-03-22T10:12:10.992Z</time></trkpt><trkpt lat="43.438285" lon="13.56599"><ele>22.0</ele><time>2026-03-22T10:12:11.996Z</time></trkpt><trkpt lat="43.438275" lon="13.565715"><ele>22.0</ele><time>2026-03-22T10:12:12.993Z</time></trkpt><trkpt lat="43.438265" lon="13.56544"><ele>22.0</ele><time>2026-03-22T10:12:13.993Z</time></trkpt><trkpt lat="43.4382433" lon="13.56516"><ele>22.0</ele><time>2026-03-22T10:12:14.998Z</time></trkpt><trkpt lat="43.4381967" lon="13.5648817"><ele>22.0</ele><time>2026-03-22T10:12:15.993Z</time></trkpt><trkpt lat="43.43813" lon="13.5646133"><ele>22.0</ele><time>2026-03-22T10:12:16.995Z</time></trkpt><trkpt lat="43.438055" lon="13.56436"><ele>22.0</ele><time>2026-03-22T10:12:17.999Z</time></trkpt><trkpt lat="43.4379833" lon="13.5641267"><ele>22.0</ele><time>2026-03-22T10:12:18.996Z</time></trkpt><trkpt lat="43.4379117" lon="13.5639083"><ele>22.0</ele><time>2026-03-22T10:12:19.996Z</time></trkpt><trkpt lat="43.43785" lon="13.5637017"><ele>22.0</ele><time>2026-03-22T10:12:20.999Z</time></trkpt><trkpt lat="43.4378" lon="13.5635017"><ele>22.0</ele><time>2026-03-22T10:12:21.997Z</time></trkpt><trkpt lat="43.43776" lon="13.563295"><ele>22.0</ele><time>2026-03-22T10:12:22.992Z</time></trkpt><trkpt lat="43.43773" lon="13.563075"><ele>22.0</ele><time>2026-03-22T10:12:23.996Z</time></trkpt><trkpt lat="43.43771" lon="13.56286"><ele>22.5</ele><time>2026-03-22T10:12:24.992Z</time></trkpt><trkpt lat="43.4376967" lon="13.56266"><ele>23.0</ele><time>2026-03-22T10:12:25.991Z</time></trkpt><trkpt lat="43.43769" lon="13.562475"><ele>23.5</ele><time>2026-03-22T10:12:26.992Z</time></trkpt><trkpt lat="43.4376817" lon="13.562305"><ele>24.0</ele><time>2026-03-22T10:12:27.993Z</time></trkpt><trkpt lat="43.437675" lon="13.5621533"><ele>24.2</ele><time>2026-03-22T10:12:28.992Z</time></trkpt><trkpt lat="43.4376717" lon="13.5620233"><ele>24.4</ele><time>2026-03-22T10:12:29.997Z</time></trkpt><trkpt lat="43.4376683" lon="13.56191"><ele>24.6</ele><time>2026-03-22T10:12:30.994Z</time></trkpt><trkpt lat="43.437665" lon="13.56182"><ele>24.8</ele><time>2026-03-22T10:12:31.995Z</time></trkpt><trkpt lat="43.437695" lon="13.5616867"><ele>25.0</ele><time>2026-03-22T10:12:33.997Z</time></trkpt><trkpt lat="43.43779" lon="13.5616133"><ele>25.0</ele><time>2026-03-22T10:12:35.993Z</time></trkpt><trkpt lat="43.43791" lon="13.5616383"><ele>25.0</ele><time>2026-03-22T10:12:36.992Z</time></trkpt><trkpt lat="43.43805" lon="13.5616567"><ele>25.0</ele><time>2026-03-22T10:12:37.993Z</time></trkpt><trkpt lat="43.4382067" lon="13.5616617"><ele>25.0</ele><time>2026-03-22T10:12:38.997Z</time></trkpt><trkpt lat="43.438375" lon="13.5616383"><ele>24.666666666666668</ele><time>2026-03-22T10:12:39.991Z</time></trkpt><trkpt lat="43.4385517" lon="13.5615967"><ele>24.333333333333336</ele><time>2026-03-22T10:12:40.992Z</time></trkpt><trkpt lat="43.4387317" lon="13.5615433"><ele>24.0</ele><time>2026-03-22T10:12:41.993Z</time></trkpt><trkpt lat="43.4389233" lon="13.5614867"><ele>24.0</ele><time>2026-03-22T10:12:42.991Z</time></trkpt><trkpt lat="43.439115" lon="13.561425"><ele>24.0</ele><time>2026-03-22T10:12:43.997Z</time></trkpt><trkpt lat="43.4392983" lon="13.56136"><ele>24.0</ele><time>2026-03-22T10:12:44.992Z</time></trkpt><trkpt lat="43.43947" lon="13.5612983"><ele>24.0</ele><time>2026-03-22T10:12:45.992Z</time></trkpt><trkpt lat="43.439635" lon="13.5612383"><ele>24.0</ele><time>2026-03-22T10:12:46.993Z</time></trkpt><trkpt lat="43.4397983" lon="13.56118"><ele>24.0</ele><time>2026-03-22T10:12:47.994Z</time></trkpt><trkpt lat="43.4399617" lon="13.5611267"><ele>24.0</ele><time>2026-03-22T10:12:48.994Z</time></trkpt><trkpt lat="43.440115" lon="13.561075"><ele>24.0</ele><time>2026-03-22T10:12:49.992Z</time></trkpt><trkpt lat="43.4402617" lon="13.561025"><ele>24.0</ele><time>2026-03-22T10:12:50.997Z</time></trkpt><trkpt lat="43.440405" lon="13.5609767"><ele>23.666666666666668</ele><time>2026-03-22T10:12:51.99Z</time></trkpt><trkpt lat="43.44056" lon="13.5609417"><ele>23.333333333333336</ele><time>2026-03-22T10:12:52.993Z</time></trkpt><trkpt lat="43.4407367" lon="13.5609333"><ele>23.0</ele><time>2026-03-22T10:12:53.991Z</time></trkpt><trkpt lat="43.4409267" lon="13.5609467"><ele>23.0</ele><time>2026-03-22T10:12:54.994Z</time></trkpt><trkpt lat="43.44112" lon="13.5609583"><ele>23.0</ele><time>2026-03-22T10:12:55.995Z</time></trkpt><trkpt lat="43.44132" lon="13.5609617"><ele>23.0</ele><time>2026-03-22T10:12:56.992Z</time></trkpt><trkpt lat="43.4415283" lon="13.5609633"><ele>23.0</ele><time>2026-03-22T10:12:57.99Z</time></trkpt><trkpt lat="43.4417433" lon="13.5609583"><ele>23.0</ele><time>2026-03-22T10:12:58.99Z</time></trkpt><trkpt lat="43.441965" lon="13.560955"><ele>23.0</ele><time>2026-03-22T10:12:59.997Z</time></trkpt><trkpt lat="43.4421883" lon="13.56095"><ele>23.0</ele><time>2026-03-22T10:13:00.993Z</time></trkpt><trkpt lat="43.4424117" lon="13.5609417"><ele>23.0</ele><time>2026-03-22T10:13:01.998Z</time></trkpt><trkpt lat="43.4426317" lon="13.5609317"><ele>23.0</ele><time>2026-03-22T10:13:02.99Z</time></trkpt><trkpt lat="43.4428433" lon="13.5609233"><ele>22.666666666666668</ele><time>2026-03-22T10:13:03.995Z</time></trkpt><trkpt lat="43.4430417" lon="13.5609167"><ele>22.333333333333332</ele><time>2026-03-22T10:13:04.998Z</time></trkpt><trkpt lat="43.4432283" lon="13.560915"><ele>22.0</ele><time>2026-03-22T10:13:05.993Z</time></trkpt><trkpt lat="43.4434033" lon="13.5609233"><ele>22.0</ele><time>2026-03-22T10:13:06.993Z</time></trkpt><trkpt lat="43.4435633" lon="13.5609583"><ele>22.0</ele><time>2026-03-22T10:13:07.989Z</time></trkpt><trkpt lat="43.4437033" lon="13.56103"><ele>22.0</ele><time>2026-03-22T10:13:08.992Z</time></trkpt><trkpt lat="43.4438283" lon="13.5611017"><ele>22.0</ele><time>2026-03-22T10:13:09.992Z</time></trkpt><trkpt lat="43.4439383" lon="13.561135"><ele>22.0</ele><time>2026-03-22T10:13:10.994Z</time></trkpt><trkpt lat="43.4440433" lon="13.5611167"><ele>22.0</ele><time>2026-03-22T10:13:11.987Z</time></trkpt><trkpt lat="43.4441667" lon="13.5610717"><ele>22.0</ele><time>2026-03-22T10:13:12.992Z</time></trkpt><trkpt lat="43.4443067" lon="13.5610133"><ele>22.0</ele><time>2026-03-22T10:13:13.996Z</time></trkpt><trkpt lat="43.4444717" lon="13.5609667"><ele>22.0</ele><time>2026-03-22T10:13:14.999Z</time></trkpt><trkpt lat="43.4446533" lon="13.5609317"><ele>22.0</ele><time>2026-03-22T10:13:15.996Z</time></trkpt><trkpt lat="43.444835" lon="13.560905"><ele>22.0</ele><time>2026-03-22T10:13:16.991Z</time></trkpt><trkpt lat="43.4450083" lon="13.5608833"><ele>22.0</ele><time>2026-03-22T10:13:17.989Z</time></trkpt><trkpt lat="43.44517" lon="13.5608667"><ele>22.0</ele><time>2026-03-22T10:13:18.993Z</time></trkpt><trkpt lat="43.44532" lon="13.5608483"><ele>22.0</ele><time>2026-03-22T10:13:19.991Z</time></trkpt><trkpt lat="43.445455" lon="13.560835"><ele>22.0</ele><time>2026-03-22T10:13:20.997Z</time></trkpt><trkpt lat="43.4455783" lon="13.560825"><ele>22.400000000000002</ele><time>2026-03-22T10:13:21.997Z</time></trkpt><trkpt lat="43.4456883" lon="13.5608183"><ele>22.8</ele><time>2026-03-22T10:13:22.993Z</time></trkpt><trkpt lat="43.445785" lon="13.56081"><ele>23.2</ele><time>2026-03-22T10:13:23.993Z</time></trkpt><trkpt lat="43.4458667" lon="13.5608017"><ele>23.6</ele><time>2026-03-22T10:13:25.003Z</time></trkpt><trkpt lat="43.445935" lon="13.5607983"><ele>24.0</ele><time>2026-03-22T10:13:25.996Z</time></trkpt><trkpt lat="43.4460333" lon="13.560795"><ele>24.0</ele><time>2026-03-22T10:13:27.994Z</time></trkpt><trkpt lat="43.4460733" lon="13.560715"><ele>24.0</ele><time>2026-03-22T10:13:44.99Z</time></trkpt><trkpt lat="43.4460833" lon="13.560595"><ele>24.0</ele><time>2026-03-22T10:13:45.988Z</time></trkpt><trkpt lat="43.4460733" lon="13.5604583"><ele>24.0</ele><time>2026-03-22T10:13:46.99Z</time></trkpt><trkpt lat="43.44607" lon="13.5602467"><ele>24.0</ele><time>2026-03-22T10:13:47.986Z</time></trkpt><trkpt lat="43.4460633" lon="13.560025"><ele>24.666666666666664</ele><time>2026-03-22T10:13:48.995Z</time></trkpt><trkpt lat="43.4460617" lon="13.5597917"><ele>25.333333333333332</ele><time>2026-03-22T10:13:49.992Z</time></trkpt><trkpt lat="43.4460583" lon="13.5595483"><ele>26.0</ele><time>2026-03-22T10:13:50.991Z</time></trkpt><trkpt lat="43.4460533" lon="13.559295"><ele>26.0</ele><time>2026-03-22T10:13:51.992Z</time></trkpt><trkpt lat="43.4460467" lon="13.5590517"><ele>26.0</ele><time>2026-03-22T10:13:52.994Z</time></trkpt><trkpt lat="43.446035" lon="13.5588267"><ele>26.0</ele><time>2026-03-22T10:13:53.994Z</time></trkpt><trkpt lat="43.4460183" lon="13.5586217"><ele>26.0</ele><time>2026-03-22T10:13:54.994Z</time></trkpt><trkpt lat="43.446005" lon="13.5584267"><ele>26.0</ele><time>2026-03-22T10:13:55.995Z</time></trkpt><trkpt lat="43.44599" lon="13.5582483"><ele>26.0</ele><time>2026-03-22T10:13:56.995Z</time></trkpt><trkpt lat="43.445975" lon="13.5580783"><ele>26.0</ele><time>2026-03-22T10:13:57.996Z</time></trkpt><trkpt lat="43.445955" lon="13.5579067"><ele>26.0</ele><time>2026-03-22T10:13:58.995Z</time></trkpt><trkpt lat="43.4459367" lon="13.5577217"><ele>26.0</ele><time>2026-03-22T10:13:59.993Z</time></trkpt><trkpt lat="43.4459183" lon="13.557525"><ele>26.0</ele><time>2026-03-22T10:14:00.997Z</time></trkpt><trkpt lat="43.4458983" lon="13.5573233"><ele>26.0</ele><time>2026-03-22T10:14:01.992Z</time></trkpt><trkpt lat="43.445875" lon="13.5571233"><ele>26.25</ele><time>2026-03-22T10:14:02.996Z</time></trkpt><trkpt lat="43.445845" lon="13.556925"><ele>26.5</ele><time>2026-03-22T10:14:03.995Z</time></trkpt><trkpt lat="43.4458183" lon="13.556725"><ele>26.75</ele><time>2026-03-22T10:14:04.99Z</time></trkpt><trkpt lat="43.4457983" lon="13.5565217"><ele>27.0</ele><time>2026-03-22T10:14:05.992Z</time></trkpt><trkpt lat="43.4457883" lon="13.5563183"><ele>27.0</ele><time>2026-03-22T10:14:06.993Z</time></trkpt><trkpt lat="43.445785" lon="13.5561167"><ele>27.0</ele><time>2026-03-22T10:14:07.989Z</time></trkpt><trkpt lat="43.44579" lon="13.555915"><ele>27.0</ele><time>2026-03-22T10:14:09Z</time></trkpt><trkpt lat="43.4457967" lon="13.5557183"><ele>27.0</ele><time>2026-03-22T10:14:09.995Z</time></trkpt><trkpt lat="43.4458117" lon="13.55553"><ele>26.5</ele><time>2026-03-22T10:14:10.992Z</time></trkpt><trkpt lat="43.4458333" lon="13.55535"><ele>26.0</ele><time>2026-03-22T10:14:11.992Z</time></trkpt><trkpt lat="43.445855" lon="13.55517"><ele>25.5</ele><time>2026-03-22T10:14:12.992Z</time></trkpt><trkpt lat="43.4458783" lon="13.5549917"><ele>25.0</ele><time>2026-03-22T10:14:13.992Z</time></trkpt><trkpt lat="43.4459033" lon="13.554825"><ele>25.0</ele><time>2026-03-22T10:14:15Z</time></trkpt><trkpt lat="43.4459367" lon="13.5546683"><ele>25.0</ele><time>2026-03-22T10:14:15.995Z</time></trkpt><trkpt lat="43.44597" lon="13.55453"><ele>25.0</ele><time>2026-03-22T10:14:16.996Z</time></trkpt><trkpt lat="43.4460017" lon="13.5544117"><ele>25.0</ele><time>2026-03-22T10:14:17.994Z</time></trkpt><trkpt lat="43.446035" lon="13.5543083"><ele>25.0</ele><time>2026-03-22T10:14:18.997Z</time></trkpt><trkpt lat="43.4460667" lon="13.5542167"><ele>25.333333333333336</ele><time>2026-03-22T10:14:19.997Z</time></trkpt><trkpt lat="43.4460967" lon="13.5541367"><ele>25.666666666666668</ele><time>2026-03-22T10:14:20.994Z</time></trkpt><trkpt lat="43.4461233" lon="13.554025"><ele>26.0</ele><time>2026-03-22T10:14:23Z</time></trkpt><trkpt lat="43.4461333" lon="13.5539317"><ele>26.333333333333336</ele><time>2026-03-22T10:14:25.991Z</time></trkpt><trkpt lat="43.4461167" lon="13.5538267"><ele>26.666666666666668</ele><time>2026-03-22T10:14:41.991Z</time></trkpt><trkpt lat="43.446105" lon="13.553645"><ele>27.0</ele><time>2026-03-22T10:14:43.992Z</time></trkpt><trkpt lat="43.44611" lon="13.5535333"><ele>27.0</ele><time>2026-03-22T10:14:44.998Z</time></trkpt><trkpt lat="43.4461217" lon="13.5534033"><ele>27.0</ele><time>2026-03-22T10:14:45.994Z</time></trkpt><trkpt lat="43.4461433" lon="13.553255"><ele>27.0</ele><time>2026-03-22T10:14:46.991Z</time></trkpt><trkpt lat="43.44618" lon="13.5530983"><ele>27.0</ele><time>2026-03-22T10:14:47.991Z</time></trkpt><trkpt lat="43.4462217" lon="13.5529333"><ele>27.0</ele><time>2026-03-22T10:14:48.994Z</time></trkpt><trkpt lat="43.4462733" lon="13.5527417"><ele>27.0</ele><time>2026-03-22T10:14:49.997Z</time></trkpt><trkpt lat="43.4463283" lon="13.552535"><ele>27.0</ele><time>2026-03-22T10:14:50.997Z</time></trkpt><trkpt lat="43.446385" lon="13.552315"><ele>27.0</ele><time>2026-03-22T10:14:51.996Z</time></trkpt><trkpt lat="43.446445" lon="13.5520817"><ele>27.0</ele><time>2026-03-22T10:14:52.994Z</time></trkpt><trkpt lat="43.4465083" lon="13.5518467"><ele>27.0</ele><time>2026-03-22T10:14:53.996Z</time></trkpt><trkpt lat="43.4465683" lon="13.5516133"><ele>27.0</ele><time>2026-03-22T10:14:54.995Z</time></trkpt><trkpt lat="43.44663" lon="13.5513767"><ele>27.0</ele><time>2026-03-22T10:14:55.999Z</time></trkpt><trkpt lat="43.44669" lon="13.551135"><ele>27.0</ele><time>2026-03-22T10:14:56.997Z</time></trkpt><trkpt lat="43.4467567" lon="13.5508917"><ele>27.0</ele><time>2026-03-22T10:14:57.992Z</time></trkpt><trkpt lat="43.446825" lon="13.5506483"><ele>27.0</ele><time>2026-03-22T10:14:58.997Z</time></trkpt><trkpt lat="43.44689" lon="13.550405"><ele>27.0</ele><time>2026-03-22T10:14:59.999Z</time></trkpt><trkpt lat="43.446955" lon="13.55016"><ele>27.0</ele><time>2026-03-22T10:15:00.993Z</time></trkpt><trkpt lat="43.447015" lon="13.549915"><ele>27.0</ele><time>2026-03-22T10:15:01.994Z</time></trkpt><trkpt lat="43.447075" lon="13.5496567"><ele>27.0</ele><time>2026-03-22T10:15:03Z</time></trkpt><trkpt lat="43.44713" lon="13.5493967"><ele>27.666666666666664</ele><time>2026-03-22T10:15:03.992Z</time></trkpt><trkpt lat="43.4471783" lon="13.5491367"><ele>28.333333333333332</ele><time>2026-03-22T10:15:04.998Z</time></trkpt><trkpt lat="43.4472167" lon="13.5488733"><ele>29.0</ele><time>2026-03-22T10:15:05.995Z</time></trkpt><trkpt lat="43.44725" lon="13.548615"><ele>29.0</ele><time>2026-03-22T10:15:06.999Z</time></trkpt><trkpt lat="43.44728" lon="13.5483583"><ele>29.0</ele><time>2026-03-22T10:15:08Z</time></trkpt><trkpt lat="43.4473067" lon="13.5481033"><ele>29.0</ele><time>2026-03-22T10:15:08.997Z</time></trkpt><trkpt lat="43.4473267" lon="13.5478467"><ele>29.0</ele><time>2026-03-22T10:15:09.996Z</time></trkpt><trkpt lat="43.44734" lon="13.5475917"><ele>29.0</ele><time>2026-03-22T10:15:10.996Z</time></trkpt><trkpt lat="43.44735" lon="13.5473317"><ele>29.0</ele><time>2026-03-22T10:15:11.998Z</time></trkpt><trkpt lat="43.4473617" lon="13.5470717"><ele>29.333333333333332</ele><time>2026-03-22T10:15:12.991Z</time></trkpt><trkpt lat="43.447375" lon="13.54681"><ele>29.666666666666664</ele><time>2026-03-22T10:15:13.992Z</time></trkpt><trkpt lat="43.4473883" lon="13.5465417"><ele>30.0</ele><time>2026-03-22T10:15:14.996Z</time></trkpt><trkpt lat="43.4474" lon="13.546265"><ele>30.333333333333336</ele><time>2026-03-22T10:15:15.995Z</time></trkpt><trkpt lat="43.4474167" lon="13.5459833"><ele>30.666666666666668</ele><time>2026-03-22T10:15:16.992Z</time></trkpt><trkpt lat="43.4474417" lon="13.5457017"><ele>31.0</ele><time>2026-03-22T10:15:17.991Z</time></trkpt><trkpt lat="43.447475" lon="13.5454167"><ele>30.333333333333336</ele><time>2026-03-22T10:15:18.993Z</time></trkpt><trkpt lat="43.4475183" lon="13.5451333"><ele>29.666666666666664</ele><time>2026-03-22T10:15:19.992Z</time></trkpt><trkpt lat="43.44757" lon="13.54486"><ele>29.0</ele><time>2026-03-22T10:15:20.994Z</time></trkpt><trkpt lat="43.447625" lon="13.5445917"><ele>29.333333333333332</ele><time>2026-03-22T10:15:21.989Z</time></trkpt><trkpt lat="43.4476817" lon="13.544325"><ele>29.666666666666664</ele><time>2026-03-22T10:15:22.989Z</time></trkpt><trkpt lat="43.4477383" lon="13.5440617"><ele>30.0</ele><time>2026-03-22T10:15:23.99Z</time></trkpt><trkpt lat="43.4477933" lon="13.5437983"><ele>29.666666666666664</ele><time>2026-03-22T10:15:24.991Z</time></trkpt><trkpt lat="43.4478517" lon="13.5435367"><ele>29.333333333333332</ele><time>2026-03-22T10:15:25.992Z</time></trkpt><trkpt lat="43.4479083" lon="13.5432733"><ele>29.0</ele><time>2026-03-22T10:15:26.99Z</time></trkpt><trkpt lat="43.4479633" lon="13.5430083"><ele>29.333333333333332</ele><time>2026-03-22T10:15:28.005Z</time></trkpt><trkpt lat="43.4480167" lon="13.5427483"><ele>29.666666666666664</ele><time>2026-03-22T10:15:28.993Z</time></trkpt><trkpt lat="43.4480667" lon="13.5425"><ele>30.0</ele><time>2026-03-22T10:15:29.996Z</time></trkpt><trkpt lat="43.4481133" lon="13.5422633"><ele>30.666666666666664</ele><time>2026-03-22T10:15:30.996Z</time></trkpt><trkpt lat="43.448155" lon="13.5420467"><ele>31.333333333333332</ele><time>2026-03-22T10:15:31.997Z</time></trkpt><trkpt lat="43.4481933" lon="13.541845"><ele>32.0</ele><time>2026-03-22T10:15:32.997Z</time></trkpt><trkpt lat="43.4482283" lon="13.5416567"><ele>32.0</ele><time>2026-03-22T10:15:33.996Z</time></trkpt><trkpt lat="43.4482633" lon="13.5414867"><ele>32.0</ele><time>2026-03-22T10:15:34.995Z</time></trkpt><trkpt lat="43.448295" lon="13.5413367"><ele>32.0</ele><time>2026-03-22T10:15:35.995Z</time></trkpt><trkpt lat="43.4483167" lon="13.5412117"><ele>32.0</ele><time>2026-03-22T10:15:36.996Z</time></trkpt><trkpt lat="43.4483283" lon="13.5411017"><ele>32.0</ele><time>2026-03-22T10:15:37.995Z</time></trkpt><trkpt lat="43.4483283" lon="13.54099"><ele>32.0</ele><time>2026-03-22T10:15:38.997Z</time></trkpt><trkpt lat="43.4482333" lon="13.540905"><ele>32.0</ele><time>2026-03-22T10:15:40.99Z</time></trkpt><trkpt lat="43.4481533" lon="13.5408517"><ele>32.0</ele><time>2026-03-22T10:15:42.987Z</time></trkpt><trkpt lat="43.4482083" lon="13.540795"><ele>32.0</ele><time>2026-03-22T10:15:46.992Z</time></trkpt><trkpt lat="43.4483" lon="13.5408"><ele>32.0</ele><time>2026-03-22T10:15:48.992Z</time></trkpt><trkpt lat="43.4483917" lon="13.5407067"><ele>32.0</ele><time>2026-03-22T10:15:51Z</time></trkpt><trkpt lat="43.4484483" lon="13.5405583"><ele>32.0</ele><time>2026-03-22T10:15:52.998Z</time></trkpt><trkpt lat="43.448495" lon="13.5404067"><ele>32.0</ele><time>2026-03-22T10:15:55Z</time></trkpt><trkpt lat="43.4485433" lon="13.540265"><ele>32.0</ele><time>2026-03-22T10:15:56.995Z</time></trkpt><trkpt lat="43.44858" lon="13.540135"><ele>31.833333333333332</ele><time>2026-03-22T10:15:58.993Z</time></trkpt><trkpt lat="43.4485733" lon="13.5400383"><ele>31.666666666666664</ele><time>2026-03-22T10:16:00.994Z</time></trkpt><trkpt lat="43.4485117" lon="13.53997"><ele>31.5</ele><time>2026-03-22T10:16:03.992Z</time></trkpt><trkpt lat="43.4484483" lon="13.5399017"><ele>31.333333333333336</ele><time>2026-03-22T10:16:07.992Z</time></trkpt><trkpt lat="43.4484767" lon="13.5397817"><ele>31.166666666666668</ele><time>2026-03-22T10:16:10.99Z</time></trkpt><trkpt lat="43.4485117" lon="13.5396683"><ele>31.0</ele><time>2026-03-22T10:16:13.99Z</time></trkpt><trkpt lat="43.4485283" lon="13.5395633"><ele>31.0</ele><time>2026-03-22T10:16:16.991Z</time></trkpt><trkpt lat="43.4485117" lon="13.5394617"><ele>31.0</ele><time>2026-03-22T10:16:19.99Z</time></trkpt><trkpt lat="43.4484267" lon="13.53932"><ele>31.0</ele><time>2026-03-22T10:18:25.993Z</time></trkpt><trkpt lat="43.448415" lon="13.539225"><ele>31.0</ele><time>2026-03-22T10:18:28.997Z</time></trkpt><trkpt lat="43.44835" lon="13.539085"><ele>31.0</ele><time>2026-03-22T10:18:34.993Z</time></trkpt><trkpt lat="43.448235" lon="13.5390317"><ele>31.0</ele><time>2026-03-22T10:18:38.991Z</time></trkpt><trkpt lat="43.4484308" lon="13.5393586"><ele>31.0</ele><time>2026-03-22T10:18:48.416Z</time></trkpt><trkpt lat="43.4483583" lon="13.5390417"><ele>31.000000000000004</ele><time>2026-03-22T10:19:06.993Z</time></trkpt><trkpt lat="43.448365" lon="13.53914"><ele>31.0</ele><time>2026-03-22T10:19:15.993Z</time></trkpt><trkpt lat="43.4483767" lon="13.5392433"><ele>31.0</ele><time>2026-03-22T10:19:18.996Z</time></trkpt><trkpt lat="43.44839" lon="13.5393433"><ele>31.0</ele><time>2026-03-22T10:19:21.994Z</time></trkpt><trkpt lat="43.4484467" lon="13.5394667"><ele>31.000000000000004</ele><time>2026-03-22T10:19:23.996Z</time></trkpt><trkpt lat="43.4484917" lon="13.5395983"><ele>31.0</ele><time>2026-03-22T10:19:25.99Z</time></trkpt><trkpt lat="43.4485217" lon="13.5396767"><ele>31.0</ele><time>2026-03-22T10:19:26.993Z</time></trkpt><trkpt lat="43.4485633" lon="13.5397783"><ele>31.0</ele><time>2026-03-22T10:19:28.991Z</time></trkpt><trkpt lat="43.448665" lon="13.5399667"><ele>31.0</ele><time>2026-03-22T10:19:34.994Z</time></trkpt><trkpt lat="43.4487133" lon="13.5400367"><ele>31.0</ele><time>2026-03-22T10:19:37.991Z</time></trkpt><trkpt lat="43.4484324" lon="13.5393385"><ele>31.0</ele><time>2026-03-22T10:19:47.338Z</time></trkpt><trkpt lat="43.4486633" lon="13.539855"><ele>31.0</ele><time>2026-03-22T10:25:20.994Z</time></trkpt><trkpt lat="43.448615" lon="13.5395867"><ele>31.0</ele><time>2026-03-22T10:25:21.994Z</time></trkpt><trkpt lat="43.448555" lon="13.5392867"><ele>31.0</ele><time>2026-03-22T10:25:22.993Z</time></trkpt><trkpt lat="43.4485867" lon="13.5394367"><ele>31.0</ele><time>2026-03-22T10:25:23.999Z</time></trkpt><trkpt lat="43.4484897" lon="13.5394174"><ele>31.0</ele><time>2026-03-22T10:25:30.038Z</time></trkpt></trkseg><trkseg><trkpt lat="43.4486179" lon="13.539514"><ele>31.000000000000004</ele><time>2026-03-22T10:43:31.992Z</time></trkpt><trkpt lat="43.4486858" lon="13.5395137"><ele>31.0</ele><time>2026-03-22T10:44:05.048Z</time></trkpt><trkpt lat="43.4486266" lon="13.5394826"><ele>31.0</ele><time>2026-03-22T10:44:44.993Z</time></trkpt><trkpt lat="43.4485363" lon="13.539459"><ele>31.0</ele><time>2026-03-22T10:45:48.014Z</time></trkpt><trkpt lat="43.448585" lon="13.5395817"><ele>31.000000000000004</ele><time>2026-03-22T10:45:50.986Z</time></trkpt><trkpt lat="43.4486683" lon="13.53961"><ele>31.0</ele><time>2026-03-22T10:45:53.989Z</time></trkpt><trkpt lat="43.4487233" lon="13.539565"><ele>31.0</ele><time>2026-03-22T10:45:55.989Z</time></trkpt><trkpt lat="43.4487733" lon="13.5394667"><ele>31.0</ele><time>2026-03-22T10:45:57.99Z</time></trkpt><trkpt lat="43.44881" lon="13.5393367"><ele>31.0</ele><time>2026-03-22T10:45:59.993Z</time></trkpt><trkpt lat="43.4488467" lon="13.539175"><ele>31.0</ele><time>2026-03-22T10:46:01.992Z</time></trkpt><trkpt lat="43.4488833" lon="13.5390267"><ele>31.0</ele><time>2026-03-22T10:46:03.992Z</time></trkpt><trkpt lat="43.4488917" lon="13.5388833"><ele>31.6</ele><time>2026-03-22T10:46:05.994Z</time></trkpt><trkpt lat="43.4489067" lon="13.5387667"><ele>32.2</ele><time>2026-03-22T10:46:07.996Z</time></trkpt><trkpt lat="43.4489567" lon="13.538665"><ele>32.8</ele><time>2026-03-22T10:46:09.992Z</time></trkpt><trkpt lat="43.4490417" lon="13.5386017"><ele>33.4</ele><time>2026-03-22T10:46:12Z</time></trkpt><trkpt lat="43.449155" lon="13.5385983"><ele>34.0</ele><time>2026-03-22T10:46:13.994Z</time></trkpt><trkpt lat="43.4492517" lon="13.5384983"><ele>34.0</ele><time>2026-03-22T10:46:15.988Z</time></trkpt><trkpt lat="43.44928" lon="13.5384"><ele>34.0</ele><time>2026-03-22T10:46:16.985Z</time></trkpt><trkpt lat="43.4493117" lon="13.53828"><ele>34.0</ele><time>2026-03-22T10:46:17.991Z</time></trkpt><trkpt lat="43.4493483" lon="13.5381333"><ele>34.0</ele><time>2026-03-22T10:46:18.991Z</time></trkpt><trkpt lat="43.449395" lon="13.5379717"><ele>34.0</ele><time>2026-03-22T10:46:19.991Z</time></trkpt><trkpt lat="43.4494517" lon="13.5378"><ele>33.66666666666667</ele><time>2026-03-22T10:46:20.996Z</time></trkpt><trkpt lat="43.449515" lon="13.5376233"><ele>33.333333333333336</ele><time>2026-03-22T10:46:21.992Z</time></trkpt><trkpt lat="43.44959" lon="13.5374417"><ele>33.0</ele><time>2026-03-22T10:46:22.99Z</time></trkpt><trkpt lat="43.4496667" lon="13.5372533"><ele>33.0</ele><time>2026-03-22T10:46:23.992Z</time></trkpt><trkpt lat="43.4497433" lon="13.5370717"><ele>33.0</ele><time>2026-03-22T10:46:24.989Z</time></trkpt><trkpt lat="43.4498183" lon="13.536895"><ele>33.0</ele><time>2026-03-22T10:46:25.991Z</time></trkpt><trkpt lat="43.4498933" lon="13.5367167"><ele>32.666666666666664</ele><time>2026-03-22T10:46:26.994Z</time></trkpt><trkpt lat="43.4499717" lon="13.536525"><ele>32.33333333333333</ele><time>2026-03-22T10:46:27.992Z</time></trkpt><trkpt lat="43.4500567" lon="13.5363217"><ele>32.0</ele><time>2026-03-22T10:46:28.992Z</time></trkpt><trkpt lat="43.4501467" lon="13.536105"><ele>31.666666666666664</ele><time>2026-03-22T10:46:29.991Z</time></trkpt><trkpt lat="43.4502383" lon="13.5358833"><ele>31.333333333333336</ele><time>2026-03-22T10:46:30.993Z</time></trkpt><trkpt lat="43.450325" lon="13.53567"><ele>31.0</ele><time>2026-03-22T10:46:31.991Z</time></trkpt><trkpt lat="43.45041" lon="13.53547"><ele>31.25</ele><time>2026-03-22T10:46:32.992Z</time></trkpt><trkpt lat="43.4504867" lon="13.5352817"><ele>31.5</ele><time>2026-03-22T10:46:33.991Z</time></trkpt><trkpt lat="43.4505617" lon="13.5351067"><ele>31.75</ele><time>2026-03-22T10:46:34.992Z</time></trkpt><trkpt lat="43.4506333" lon="13.5349467"><ele>32.0</ele><time>2026-03-22T10:46:35.992Z</time></trkpt><trkpt lat="43.4507" lon="13.5348017"><ele>31.999999999999996</ele><time>2026-03-22T10:46:36.99Z</time></trkpt><trkpt lat="43.45076" lon="13.5346783"><ele>32.0</ele><time>2026-03-22T10:46:37.994Z</time></trkpt><trkpt lat="43.4508117" lon="13.5345733"><ele>32.0</ele><time>2026-03-22T10:46:38.997Z</time></trkpt><trkpt lat="43.45086" lon="13.534475"><ele>32.0</ele><time>2026-03-22T10:46:39.991Z</time></trkpt><trkpt lat="43.450905" lon="13.5343867"><ele>31.999999999999996</ele><time>2026-03-22T10:46:40.992Z</time></trkpt><trkpt lat="43.4509417" lon="13.5342883"><ele>32.0</ele><time>2026-03-22T10:46:41.996Z</time></trkpt><trkpt lat="43.450965" lon="13.534185"><ele>31.999999999999996</ele><time>2026-03-22T10:46:42.996Z</time></trkpt><trkpt lat="43.4509917" lon="13.53408"><ele>32.0</ele><time>2026-03-22T10:46:43.993Z</time></trkpt><trkpt lat="43.4510233" lon="13.5339783"><ele>32.0</ele><time>2026-03-22T10:46:44.994Z</time></trkpt><trkpt lat="43.451065" lon="13.5338767"><ele>32.0</ele><time>2026-03-22T10:46:45.994Z</time></trkpt><trkpt lat="43.4511067" lon="13.5337783"><ele>31.999999999999996</ele><time>2026-03-22T10:46:46.994Z</time></trkpt><trkpt lat="43.45115" lon="13.533675"><ele>32.0</ele><time>2026-03-22T10:46:47.995Z</time></trkpt><trkpt lat="43.451195" lon="13.5335567"><ele>32.0</ele><time>2026-03-22T10:46:48.993Z</time></trkpt><trkpt lat="43.451245" lon="13.53341"><ele>32.0</ele><time>2026-03-22T10:46:49.992Z</time></trkpt><trkpt lat="43.451305" lon="13.53324"><ele>32.0</ele><time>2026-03-22T10:46:50.99Z</time></trkpt><trkpt lat="43.4513633" lon="13.5330583"><ele>32.0</ele><time>2026-03-22T10:46:51.994Z</time></trkpt><trkpt lat="43.4514183" lon="13.5328617"><ele>32.33333333333333</ele><time>2026-03-22T10:46:52.99Z</time></trkpt><trkpt lat="43.451475" lon="13.532645"><ele>32.666666666666664</ele><time>2026-03-22T10:46:53.989Z</time></trkpt><trkpt lat="43.4515333" lon="13.5324167"><ele>33.0</ele><time>2026-03-22T10:46:54.992Z</time></trkpt><trkpt lat="43.451595" lon="13.532175"><ele>32.666666666666664</ele><time>2026-03-22T10:46:55.995Z</time></trkpt><trkpt lat="43.4516617" lon="13.53192"><ele>32.33333333333333</ele><time>2026-03-22T10:46:56.993Z</time></trkpt><trkpt lat="43.4517283" lon="13.5316483"><ele>32.0</ele><time>2026-03-22T10:46:57.992Z</time></trkpt><trkpt lat="43.4517967" lon="13.5313667"><ele>31.666666666666664</ele><time>2026-03-22T10:46:58.994Z</time></trkpt><trkpt lat="43.45187" lon="13.5310833"><ele>31.333333333333336</ele><time>2026-03-22T10:46:59.994Z</time></trkpt><trkpt lat="43.451945" lon="13.5308017"><ele>31.0</ele><time>2026-03-22T10:47:00.989Z</time></trkpt><trkpt lat="43.4520167" lon="13.5305233"><ele>31.0</ele><time>2026-03-22T10:47:01.994Z</time></trkpt><trkpt lat="43.4520967" lon="13.5302667"><ele>31.0</ele><time>2026-03-22T10:47:02.996Z</time></trkpt><trkpt lat="43.4521817" lon="13.5300217"><ele>31.0</ele><time>2026-03-22T10:47:03.992Z</time></trkpt><trkpt lat="43.4522783" lon="13.5297817"><ele>31.333333333333336</ele><time>2026-03-22T10:47:04.992Z</time></trkpt><trkpt lat="43.4523817" lon="13.52954"><ele>31.666666666666664</ele><time>2026-03-22T10:47:05.996Z</time></trkpt><trkpt lat="43.4524867" lon="13.5292983"><ele>32.0</ele><time>2026-03-22T10:47:06.991Z</time></trkpt><trkpt lat="43.4525883" lon="13.5290667"><ele>32.0</ele><time>2026-03-22T10:47:07.991Z</time></trkpt><trkpt lat="43.452685" lon="13.5288417"><ele>32.0</ele><time>2026-03-22T10:47:08.99Z</time></trkpt><trkpt lat="43.4527767" lon="13.5286217"><ele>32.0</ele><time>2026-03-22T10:47:09.99Z</time></trkpt><trkpt lat="43.4528667" lon="13.5284017"><ele>32.0</ele><time>2026-03-22T10:47:10.994Z</time></trkpt><trkpt lat="43.45295" lon="13.5281917"><ele>32.0</ele><time>2026-03-22T10:47:11.992Z</time></trkpt><trkpt lat="43.45304" lon="13.5279833"><ele>32.0</ele><time>2026-03-22T10:47:12.993Z</time></trkpt><trkpt lat="43.453125" lon="13.5277783"><ele>32.0</ele><time>2026-03-22T10:47:13.996Z</time></trkpt><trkpt lat="43.4532083" lon="13.5275717"><ele>32.0</ele><time>2026-03-22T10:47:14.994Z</time></trkpt><trkpt lat="43.453295" lon="13.52736"><ele>32.0</ele><time>2026-03-22T10:47:15.99Z</time></trkpt><trkpt lat="43.45338" lon="13.527135"><ele>32.0</ele><time>2026-03-22T10:47:16.99Z</time></trkpt><trkpt lat="43.4534683" lon="13.526885"><ele>32.0</ele><time>2026-03-22T10:47:17.993Z</time></trkpt><trkpt lat="43.45357" lon="13.5266217"><ele>32.0</ele><time>2026-03-22T10:47:18.992Z</time></trkpt><trkpt lat="43.4536817" lon="13.5263517"><ele>33.5</ele><time>2026-03-22T10:47:19.994Z</time></trkpt><trkpt lat="43.4538" lon="13.5260717"><ele>35.0</ele><time>2026-03-22T10:47:20.998Z</time></trkpt><trkpt lat="43.453915" lon="13.5257867"><ele>35.0</ele><time>2026-03-22T10:47:21.996Z</time></trkpt><trkpt lat="43.4540283" lon="13.525495"><ele>35.0</ele><time>2026-03-22T10:47:22.993Z</time></trkpt><trkpt lat="43.4541367" lon="13.5252"><ele>34.5</ele><time>2026-03-22T10:47:23.993Z</time></trkpt><trkpt lat="43.454245" lon="13.5249"><ele>34.0</ele><time>2026-03-22T10:47:24.996Z</time></trkpt><trkpt lat="43.4543483" lon="13.5246033"><ele>34.0</ele><time>2026-03-22T10:47:25.992Z</time></trkpt><trkpt lat="43.45444" lon="13.524325"><ele>34.0</ele><time>2026-03-22T10:47:26.991Z</time></trkpt><trkpt lat="43.4545283" lon="13.5240467"><ele>34.0</ele><time>2026-03-22T10:47:27.995Z</time></trkpt><trkpt lat="43.454615" lon="13.5237617"><ele>33.5</ele><time>2026-03-22T10:47:28.992Z</time></trkpt><trkpt lat="43.4547" lon="13.52346"><ele>33.0</ele><time>2026-03-22T10:47:29.996Z</time></trkpt><trkpt lat="43.4547783" lon="13.523155"><ele>33.5</ele><time>2026-03-22T10:47:30.994Z</time></trkpt><trkpt lat="43.4548467" lon="13.5228417"><ele>34.0</ele><time>2026-03-22T10:47:31.994Z</time></trkpt><trkpt lat="43.4549083" lon="13.5225233"><ele>34.0</ele><time>2026-03-22T10:47:32.992Z</time></trkpt><trkpt lat="43.4549583" lon="13.5221983"><ele>34.0</ele><time>2026-03-22T10:47:33.994Z</time></trkpt><trkpt lat="43.4549983" lon="13.5218683"><ele>34.5</ele><time>2026-03-22T10:47:34.99Z</time></trkpt><trkpt lat="43.4550383" lon="13.521535"><ele>35.0</ele><time>2026-03-22T10:47:35.992Z</time></trkpt><trkpt lat="43.4550783" lon="13.5212033"><ele>35.5</ele><time>2026-03-22T10:47:36.992Z</time></trkpt><trkpt lat="43.45512" lon="13.52087"><ele>36.0</ele><time>2026-03-22T10:47:37.997Z</time></trkpt><trkpt lat="43.4551667" lon="13.5205367"><ele>35.0</ele><time>2026-03-22T10:47:38.996Z</time></trkpt><trkpt lat="43.4552167" lon="13.5202067"><ele>34.0</ele><time>2026-03-22T10:47:39.993Z</time></trkpt><trkpt lat="43.4552817" lon="13.5198783"><ele>34.0</ele><time>2026-03-22T10:47:40.992Z</time></trkpt><trkpt lat="43.45535" lon="13.51955"><ele>34.0</ele><time>2026-03-22T10:47:41.994Z</time></trkpt><trkpt lat="43.4554217" lon="13.519225"><ele>34.0</ele><time>2026-03-22T10:47:42.994Z</time></trkpt><trkpt lat="43.4554967" lon="13.5188983"><ele>34.0</ele><time>2026-03-22T10:47:43.986Z</time></trkpt><trkpt lat="43.45557" lon="13.51857"><ele>34.5</ele><time>2026-03-22T10:47:44.996Z</time></trkpt><trkpt lat="43.4556383" lon="13.5182467"><ele>35.0</ele><time>2026-03-22T10:47:45.989Z</time></trkpt><trkpt lat="43.45571" lon="13.5179333"><ele>35.5</ele><time>2026-03-22T10:47:46.991Z</time></trkpt><trkpt lat="43.4557967" lon="13.5176217"><ele>36.0</ele><time>2026-03-22T10:47:47.99Z</time></trkpt><trkpt lat="43.4559" lon="13.5173167"><ele>35.5</ele><time>2026-03-22T10:47:48.99Z</time></trkpt><trkpt lat="43.4560167" lon="13.5170133"><ele>35.0</ele><time>2026-03-22T10:47:49.997Z</time></trkpt><trkpt lat="43.456135" lon="13.51671"><ele>35.0</ele><time>2026-03-22T10:47:50.993Z</time></trkpt><trkpt lat="43.4562567" lon="13.5164067"><ele>35.0</ele><time>2026-03-22T10:47:51.995Z</time></trkpt><trkpt lat="43.4563767" lon="13.516105"><ele>35.5</ele><time>2026-03-22T10:47:52.989Z</time></trkpt><trkpt lat="43.4564917" lon="13.5158033"><ele>36.0</ele><time>2026-03-22T10:47:53.99Z</time></trkpt><trkpt lat="43.456605" lon="13.515505"><ele>36.5</ele><time>2026-03-22T10:47:54.992Z</time></trkpt><trkpt lat="43.45672" lon="13.5152083"><ele>37.0</ele><time>2026-03-22T10:47:55.994Z</time></trkpt><trkpt lat="43.4568283" lon="13.514915"><ele>37.0</ele><time>2026-03-22T10:47:56.998Z</time></trkpt><trkpt lat="43.4569183" lon="13.5146183"><ele>37.0</ele><time>2026-03-22T10:47:57.994Z</time></trkpt><trkpt lat="43.4569867" lon="13.5143133"><ele>37.0</ele><time>2026-03-22T10:47:58.99Z</time></trkpt><trkpt lat="43.4570383" lon="13.5140033"><ele>37.0</ele><time>2026-03-22T10:47:59.991Z</time></trkpt><trkpt lat="43.4570833" lon="13.513685"><ele>37.0</ele><time>2026-03-22T10:48:00.995Z</time></trkpt><trkpt lat="43.4571333" lon="13.513365"><ele>37.0</ele><time>2026-03-22T10:48:01.992Z</time></trkpt><trkpt lat="43.4571817" lon="13.5130467"><ele>37.5</ele><time>2026-03-22T10:48:02.993Z</time></trkpt><trkpt lat="43.45723" lon="13.5127317"><ele>38.0</ele><time>2026-03-22T10:48:03.995Z</time></trkpt><trkpt lat="43.4572783" lon="13.5124233"><ele>38.0</ele><time>2026-03-22T10:48:04.992Z</time></trkpt><trkpt lat="43.4573233" lon="13.5121217"><ele>38.0</ele><time>2026-03-22T10:48:05.994Z</time></trkpt><trkpt lat="43.4573683" lon="13.5118267"><ele>38.0</ele><time>2026-03-22T10:48:06.994Z</time></trkpt><trkpt lat="43.4574117" lon="13.5115483"><ele>38.0</ele><time>2026-03-22T10:48:07.994Z</time></trkpt><trkpt lat="43.4574517" lon="13.51128"><ele>38.0</ele><time>2026-03-22T10:48:08.996Z</time></trkpt><trkpt lat="43.4574917" lon="13.511015"><ele>38.0</ele><time>2026-03-22T10:48:09.993Z</time></trkpt><trkpt lat="43.45753" lon="13.5107567"><ele>37.666666666666664</ele><time>2026-03-22T10:48:10.991Z</time></trkpt><trkpt lat="43.45757" lon="13.510505"><ele>37.333333333333336</ele><time>2026-03-22T10:48:11.993Z</time></trkpt><trkpt lat="43.45761" lon="13.5102617"><ele>37.0</ele><time>2026-03-22T10:48:12.992Z</time></trkpt><trkpt lat="43.4576517" lon="13.510025"><ele>37.0</ele><time>2026-03-22T10:48:13.993Z</time></trkpt><trkpt lat="43.4576933" lon="13.5097917"><ele>37.0</ele><time>2026-03-22T10:48:14.993Z</time></trkpt><trkpt lat="43.45773" lon="13.509565"><ele>37.0</ele><time>2026-03-22T10:48:15.993Z</time></trkpt><trkpt lat="43.457765" lon="13.509335"><ele>37.0</ele><time>2026-03-22T10:48:16.998Z</time></trkpt><trkpt lat="43.4578033" lon="13.5091017"><ele>37.0</ele><time>2026-03-22T10:48:18Z</time></trkpt><trkpt lat="43.45784" lon="13.50887"><ele>37.0</ele><time>2026-03-22T10:48:18.993Z</time></trkpt><trkpt lat="43.4578767" lon="13.5086417"><ele>37.66666666666667</ele><time>2026-03-22T10:48:19.991Z</time></trkpt><trkpt lat="43.4579133" lon="13.5084183"><ele>38.333333333333336</ele><time>2026-03-22T10:48:20.991Z</time></trkpt><trkpt lat="43.4579467" lon="13.5082067"><ele>39.0</ele><time>2026-03-22T10:48:21.993Z</time></trkpt><trkpt lat="43.4579817" lon="13.507995"><ele>39.333333333333336</ele><time>2026-03-22T10:48:22.992Z</time></trkpt><trkpt lat="43.45802" lon="13.5077817"><ele>39.66666666666667</ele><time>2026-03-22T10:48:23.994Z</time></trkpt><trkpt lat="43.4580583" lon="13.50757"><ele>40.0</ele><time>2026-03-22T10:48:24.991Z</time></trkpt><trkpt lat="43.458105" lon="13.50736"><ele>40.0</ele><time>2026-03-22T10:48:25.992Z</time></trkpt><trkpt lat="43.4581567" lon="13.507165"><ele>40.0</ele><time>2026-03-22T10:48:26.996Z</time></trkpt><trkpt lat="43.4582133" lon="13.5069733"><ele>40.0</ele><time>2026-03-22T10:48:27.991Z</time></trkpt><trkpt lat="43.4582767" lon="13.50678"><ele>40.0</ele><time>2026-03-22T10:48:28.991Z</time></trkpt><trkpt lat="43.4583417" lon="13.5065933"><ele>40.0</ele><time>2026-03-22T10:48:29.993Z</time></trkpt><trkpt lat="43.4583983" lon="13.5064167"><ele>40.0</ele><time>2026-03-22T10:48:30.992Z</time></trkpt><trkpt lat="43.4584533" lon="13.5062417"><ele>40.0</ele><time>2026-03-22T10:48:31.994Z</time></trkpt><trkpt lat="43.4585117" lon="13.5060617"><ele>40.0</ele><time>2026-03-22T10:48:32.994Z</time></trkpt><trkpt lat="43.4585667" lon="13.505885"><ele>40.0</ele><time>2026-03-22T10:48:33.992Z</time></trkpt><trkpt lat="43.4586233" lon="13.5057167"><ele>40.0</ele><time>2026-03-22T10:48:34.992Z</time></trkpt><trkpt lat="43.4586917" lon="13.50555"><ele>40.0</ele><time>2026-03-22T10:48:35.992Z</time></trkpt><trkpt lat="43.4587683" lon="13.50539"><ele>40.0</ele><time>2026-03-22T10:48:36.994Z</time></trkpt><trkpt lat="43.4588483" lon="13.5052367"><ele>40.0</ele><time>2026-03-22T10:48:37.993Z</time></trkpt><trkpt lat="43.4589317" lon="13.5050883"><ele>40.0</ele><time>2026-03-22T10:48:38.994Z</time></trkpt><trkpt lat="43.45901" lon="13.5049467"><ele>40.0</ele><time>2026-03-22T10:48:39.991Z</time></trkpt><trkpt lat="43.4590833" lon="13.5048133"><ele>40.0</ele><time>2026-03-22T10:48:40.991Z</time></trkpt><trkpt lat="43.4591567" lon="13.5046867"><ele>40.0</ele><time>2026-03-22T10:48:41.992Z</time></trkpt><trkpt lat="43.459225" lon="13.504565"><ele>40.0</ele><time>2026-03-22T10:48:42.99Z</time></trkpt><trkpt lat="43.4592983" lon="13.5044367"><ele>40.0</ele><time>2026-03-22T10:48:43.991Z</time></trkpt><trkpt lat="43.4593767" lon="13.5042967"><ele>40.0</ele><time>2026-03-22T10:48:44.992Z</time></trkpt><trkpt lat="43.4594567" lon="13.50415"><ele>40.0</ele><time>2026-03-22T10:48:45.991Z</time></trkpt><trkpt lat="43.4595333" lon="13.504"><ele>40.0</ele><time>2026-03-22T10:48:46.992Z</time></trkpt><trkpt lat="43.4595967" lon="13.5038533"><ele>40.0</ele><time>2026-03-22T10:48:48Z</time></trkpt><trkpt lat="43.4596567" lon="13.503715"><ele>40.2</ele><time>2026-03-22T10:48:48.993Z</time></trkpt><trkpt lat="43.4597117" lon="13.5035833"><ele>40.4</ele><time>2026-03-22T10:48:49.992Z</time></trkpt><trkpt lat="43.4597667" lon="13.5034583"><ele>40.599999999999994</ele><time>2026-03-22T10:48:50.995Z</time></trkpt><trkpt lat="43.4598183" lon="13.5033333"><ele>40.8</ele><time>2026-03-22T10:48:51.992Z</time></trkpt><trkpt lat="43.4598617" lon="13.503215"><ele>41.0</ele><time>2026-03-22T10:48:52.991Z</time></trkpt><trkpt lat="43.4598967" lon="13.503105"><ele>41.0</ele><time>2026-03-22T10:48:53.993Z</time></trkpt><trkpt lat="43.4599217" lon="13.5029883"><ele>41.0</ele><time>2026-03-22T10:48:54.99Z</time></trkpt><trkpt lat="43.4599467" lon="13.50286"><ele>41.0</ele><time>2026-03-22T10:48:55.991Z</time></trkpt><trkpt lat="43.459965" lon="13.5027267"><ele>41.0</ele><time>2026-03-22T10:48:56.992Z</time></trkpt><trkpt lat="43.459985" lon="13.5025883"><ele>41.0</ele><time>2026-03-22T10:48:57.993Z</time></trkpt><trkpt lat="43.460005" lon="13.5024533"><ele>41.0</ele><time>2026-03-22T10:48:58.993Z</time></trkpt><trkpt lat="43.46002" lon="13.50232"><ele>41.0</ele><time>2026-03-22T10:48:59.99Z</time></trkpt><trkpt lat="43.4600367" lon="13.5021933"><ele>41.0</ele><time>2026-03-22T10:49:00.993Z</time></trkpt><trkpt lat="43.4600517" lon="13.5020683"><ele>41.0</ele><time>2026-03-22T10:49:01.993Z</time></trkpt><trkpt lat="43.4600733" lon="13.5019483"><ele>41.0</ele><time>2026-03-22T10:49:02.992Z</time></trkpt><trkpt lat="43.4600917" lon="13.5018333"><ele>41.0</ele><time>2026-03-22T10:49:03.989Z</time></trkpt><trkpt lat="43.4601133" lon="13.5017233"><ele>41.0</ele><time>2026-03-22T10:49:04.99Z</time></trkpt><trkpt lat="43.4601283" lon="13.5016083"><ele>41.0</ele><time>2026-03-22T10:49:05.992Z</time></trkpt><trkpt lat="43.4601417" lon="13.5014933"><ele>41.0</ele><time>2026-03-22T10:49:06.991Z</time></trkpt><trkpt lat="43.4601583" lon="13.5013817"><ele>41.0</ele><time>2026-03-22T10:49:07.992Z</time></trkpt><trkpt lat="43.4601683" lon="13.5012533"><ele>41.0</ele><time>2026-03-22T10:49:08.993Z</time></trkpt><trkpt lat="43.4601783" lon="13.5011283"><ele>41.166666666666664</ele><time>2026-03-22T10:49:09.991Z</time></trkpt><trkpt lat="43.4601867" lon="13.5010133"><ele>41.33333333333333</ele><time>2026-03-22T10:49:10.991Z</time></trkpt><trkpt lat="43.4601917" lon="13.5009017"><ele>41.5</ele><time>2026-03-22T10:49:11.993Z</time></trkpt><trkpt lat="43.460195" lon="13.5007983"><ele>41.666666666666664</ele><time>2026-03-22T10:49:12.992Z</time></trkpt><trkpt lat="43.4601933" lon="13.500695"><ele>41.833333333333336</ele><time>2026-03-22T10:49:13.992Z</time></trkpt><trkpt lat="43.46019" lon="13.5005933"><ele>42.0</ele><time>2026-03-22T10:49:14.993Z</time></trkpt><trkpt lat="43.460185" lon="13.500505"><ele>42.0</ele><time>2026-03-22T10:49:15.994Z</time></trkpt><trkpt lat="43.46018" lon="13.5003467"><ele>42.0</ele><time>2026-03-22T10:49:17.994Z</time></trkpt><trkpt lat="43.4601683" lon="13.5001817"><ele>42.0</ele><time>2026-03-22T10:49:19.992Z</time></trkpt><trkpt lat="43.4601617" lon="13.500085"><ele>42.0</ele><time>2026-03-22T10:49:20.994Z</time></trkpt><trkpt lat="43.4601617" lon="13.4999933"><ele>42.0</ele><time>2026-03-22T10:49:21.994Z</time></trkpt><trkpt lat="43.46017" lon="13.4998983"><ele>42.0</ele><time>2026-03-22T10:49:22.994Z</time></trkpt><trkpt lat="43.4601733" lon="13.4998067"><ele>42.0</ele><time>2026-03-22T10:49:23.993Z</time></trkpt><trkpt lat="43.4601183" lon="13.49968"><ele>42.0</ele><time>2026-03-22T10:49:25.993Z</time></trkpt><trkpt lat="43.4599933" lon="13.4996717"><ele>42.0</ele><time>2026-03-22T10:49:27.992Z</time></trkpt><trkpt lat="43.4598983" lon="13.4996733"><ele>42.0</ele><time>2026-03-22T10:49:28.987Z</time></trkpt><trkpt lat="43.4597833" lon="13.4996717"><ele>42.0</ele><time>2026-03-22T10:49:29.991Z</time></trkpt><trkpt lat="43.4596617" lon="13.4996817"><ele>41.5</ele><time>2026-03-22T10:49:30.992Z</time></trkpt><trkpt lat="43.4595333" lon="13.49972"><ele>41.0</ele><time>2026-03-22T10:49:31.992Z</time></trkpt><trkpt lat="43.4594067" lon="13.4997817"><ele>40.5</ele><time>2026-03-22T10:49:32.992Z</time></trkpt><trkpt lat="43.4592833" lon="13.499855"><ele>40.0</ele><time>2026-03-22T10:49:33.993Z</time></trkpt><trkpt lat="43.4591667" lon="13.4999117"><ele>40.0</ele><time>2026-03-22T10:49:34.992Z</time></trkpt><trkpt lat="43.4590517" lon="13.4999267"><ele>40.0</ele><time>2026-03-22T10:49:35.994Z</time></trkpt><trkpt lat="43.4589433" lon="13.4998983"><ele>40.0</ele><time>2026-03-22T10:49:36.993Z</time></trkpt><trkpt lat="43.4588483" lon="13.499835"><ele>40.0</ele><time>2026-03-22T10:49:37.993Z</time></trkpt><trkpt lat="43.4587633" lon="13.4997217"><ele>39.333333333333336</ele><time>2026-03-22T10:49:38.994Z</time></trkpt><trkpt lat="43.45869" lon="13.4995583"><ele>38.666666666666664</ele><time>2026-03-22T10:49:39.994Z</time></trkpt><trkpt lat="43.45865" lon="13.49935"><ele>38.0</ele><time>2026-03-22T10:49:40.994Z</time></trkpt><trkpt lat="43.45861" lon="13.49911"><ele>38.0</ele><time>2026-03-22T10:49:41.992Z</time></trkpt><trkpt lat="43.4585533" lon="13.4988617"><ele>38.0</ele><time>2026-03-22T10:49:42.992Z</time></trkpt><trkpt lat="43.458485" lon="13.4986083"><ele>38.0</ele><time>2026-03-22T10:49:43.993Z</time></trkpt><trkpt lat="43.4584217" lon="13.4983583"><ele>38.0</ele><time>2026-03-22T10:49:44.994Z</time></trkpt><trkpt lat="43.458365" lon="13.4981317"><ele>38.0</ele><time>2026-03-22T10:49:45.994Z</time></trkpt><trkpt lat="43.4583217" lon="13.4979267"><ele>38.0</ele><time>2026-03-22T10:49:46.991Z</time></trkpt><trkpt lat="43.4582833" lon="13.4977567"><ele>38.33333333333333</ele><time>2026-03-22T10:49:47.993Z</time></trkpt><trkpt lat="43.45826" lon="13.497615"><ele>38.666666666666664</ele><time>2026-03-22T10:49:48.992Z</time></trkpt><trkpt lat="43.4582583" lon="13.4975017"><ele>39.0</ele><time>2026-03-22T10:49:49.992Z</time></trkpt><trkpt lat="43.4582583" lon="13.49739"><ele>39.333333333333336</ele><time>2026-03-22T10:49:50.992Z</time></trkpt><trkpt lat="43.4582467" lon="13.49728"><ele>39.66666666666667</ele><time>2026-03-22T10:49:51.994Z</time></trkpt><trkpt lat="43.4582083" lon="13.4971583"><ele>40.0</ele><time>2026-03-22T10:49:52.992Z</time></trkpt><trkpt lat="43.4581583" lon="13.4970117"><ele>40.333333333333336</ele><time>2026-03-22T10:49:53.992Z</time></trkpt><trkpt lat="43.4581083" lon="13.496835"><ele>40.666666666666664</ele><time>2026-03-22T10:49:54.99Z</time></trkpt><trkpt lat="43.4580767" lon="13.4966033"><ele>41.0</ele><time>2026-03-22T10:49:55.992Z</time></trkpt><trkpt lat="43.458045" lon="13.4963467"><ele>41.0</ele><time>2026-03-22T10:49:56.992Z</time></trkpt><trkpt lat="43.4580233" lon="13.4960717"><ele>41.0</ele><time>2026-03-22T10:49:57.994Z</time></trkpt><trkpt lat="43.4580017" lon="13.495775"><ele>41.0</ele><time>2026-03-22T10:49:58.991Z</time></trkpt><trkpt lat="43.45799" lon="13.49545"><ele>41.5</ele><time>2026-03-22T10:49:59.99Z</time></trkpt><trkpt lat="43.45799" lon="13.49511"><ele>42.0</ele><time>2026-03-22T10:50:00.991Z</time></trkpt><trkpt lat="43.4579967" lon="13.4947683"><ele>42.0</ele><time>2026-03-22T10:50:01.993Z</time></trkpt><trkpt lat="43.4580083" lon="13.4944433"><ele>42.0</ele><time>2026-03-22T10:50:02.993Z</time></trkpt><trkpt lat="43.458035" lon="13.4941417"><ele>42.0</ele><time>2026-03-22T10:50:03.994Z</time></trkpt><trkpt lat="43.45808" lon="13.49385"><ele>42.0</ele><time>2026-03-22T10:50:04.991Z</time></trkpt><trkpt lat="43.458155" lon="13.4935717"><ele>42.0</ele><time>2026-03-22T10:50:05.992Z</time></trkpt><trkpt lat="43.4582567" lon="13.493315"><ele>42.0</ele><time>2026-03-22T10:50:06.99Z</time></trkpt><trkpt lat="43.4583867" lon="13.493075"><ele>42.0</ele><time>2026-03-22T10:50:07.991Z</time></trkpt><trkpt lat="43.4585467" lon="13.4928533"><ele>42.0</ele><time>2026-03-22T10:50:08.995Z</time></trkpt><trkpt lat="43.4587267" lon="13.49265"><ele>42.5</ele><time>2026-03-22T10:50:09.992Z</time></trkpt><trkpt lat="43.458915" lon="13.4924517"><ele>43.0</ele><time>2026-03-22T10:50:10.991Z</time></trkpt><trkpt lat="43.4591033" lon="13.4922533"><ele>43.0</ele><time>2026-03-22T10:50:11.993Z</time></trkpt><trkpt lat="43.45928" lon="13.4920567"><ele>43.0</ele><time>2026-03-22T10:50:12.991Z</time></trkpt><trkpt lat="43.4594383" lon="13.4918617"><ele>43.0</ele><time>2026-03-22T10:50:13.991Z</time></trkpt><trkpt lat="43.4595783" lon="13.4916717"><ele>43.333333333333336</ele><time>2026-03-22T10:50:14.994Z</time></trkpt><trkpt lat="43.4597" lon="13.491495"><ele>43.666666666666664</ele><time>2026-03-22T10:50:15.993Z</time></trkpt><trkpt lat="43.4598017" lon="13.491335"><ele>44.0</ele><time>2026-03-22T10:50:16.993Z</time></trkpt><trkpt lat="43.4598883" lon="13.4911983"><ele>44.166666666666664</ele><time>2026-03-22T10:50:17.99Z</time></trkpt><trkpt lat="43.45997" lon="13.4910933"><ele>44.33333333333333</ele><time>2026-03-22T10:50:18.99Z</time></trkpt><trkpt lat="43.4600533" lon="13.49103"><ele>44.5</ele><time>2026-03-22T10:50:19.993Z</time></trkpt><trkpt lat="43.460135" lon="13.4910067"><ele>44.666666666666664</ele><time>2026-03-22T10:50:20.993Z</time></trkpt><trkpt lat="43.46021" lon="13.4910183"><ele>44.833333333333336</ele><time>2026-03-22T10:50:21.991Z</time></trkpt><trkpt lat="43.4602783" lon="13.4910417"><ele>45.0</ele><time>2026-03-22T10:50:22.991Z</time></trkpt><trkpt lat="43.4603417" lon="13.4910567"><ele>45.0</ele><time>2026-03-22T10:50:23.993Z</time></trkpt><trkpt lat="43.4604617" lon="13.4910267"><ele>45.0</ele><time>2026-03-22T10:50:25.989Z</time></trkpt><trkpt lat="43.4605133" lon="13.490975"><ele>45.0</ele><time>2026-03-22T10:50:26.994Z</time></trkpt><trkpt lat="43.4605233" lon="13.49081"><ele>45.0</ele><time>2026-03-22T10:50:28.99Z</time></trkpt><trkpt lat="43.46048" lon="13.4906567"><ele>45.0</ele><time>2026-03-22T10:50:30.989Z</time></trkpt><trkpt lat="43.4604133" lon="13.4905183"><ele>45.166666666666664</ele><time>2026-03-22T10:50:32.995Z</time></trkpt><trkpt lat="43.4603533" lon="13.49039"><ele>45.333333333333336</ele><time>2026-03-22T10:50:34.992Z</time></trkpt><trkpt lat="43.46031" lon="13.4903067"><ele>45.5</ele><time>2026-03-22T10:50:36.991Z</time></trkpt><trkpt lat="43.4602867" lon="13.4902183"><ele>45.66666666666667</ele><time>2026-03-22T10:50:39.992Z</time></trkpt><trkpt lat="43.4602783" lon="13.4900567"><ele>45.833333333333336</ele><time>2026-03-22T10:51:05.993Z</time></trkpt><trkpt lat="43.4602767" lon="13.4899633"><ele>46.0</ele><time>2026-03-22T10:51:06.99Z</time></trkpt><trkpt lat="43.460275" lon="13.48986"><ele>46.0</ele><time>2026-03-22T10:51:07.988Z</time></trkpt><trkpt lat="43.46027" lon="13.4897517"><ele>46.0</ele><time>2026-03-22T10:51:08.991Z</time></trkpt><trkpt lat="43.460265" lon="13.4896333"><ele>46.0</ele><time>2026-03-22T10:51:09.991Z</time></trkpt><trkpt lat="43.4602583" lon="13.4894967"><ele>46.0</ele><time>2026-03-22T10:51:10.992Z</time></trkpt><trkpt lat="43.4602533" lon="13.489355"><ele>46.0</ele><time>2026-03-22T10:51:11.992Z</time></trkpt><trkpt lat="43.4602483" lon="13.4892017"><ele>46.0</ele><time>2026-03-22T10:51:12.994Z</time></trkpt><trkpt lat="43.4602433" lon="13.48905"><ele>46.0</ele><time>2026-03-22T10:51:13.99Z</time></trkpt><trkpt lat="43.460235" lon="13.4888833"><ele>46.0</ele><time>2026-03-22T10:51:14.99Z</time></trkpt><trkpt lat="43.4602267" lon="13.4887017"><ele>46.0</ele><time>2026-03-22T10:51:15.991Z</time></trkpt><trkpt lat="43.4602183" lon="13.4885083"><ele>46.0</ele><time>2026-03-22T10:51:16.994Z</time></trkpt><trkpt lat="43.4602117" lon="13.4883183"><ele>46.0</ele><time>2026-03-22T10:51:17.993Z</time></trkpt><trkpt lat="43.4602117" lon="13.48813"><ele>46.0</ele><time>2026-03-22T10:51:18.993Z</time></trkpt><trkpt lat="43.4602167" lon="13.4879383"><ele>46.0</ele><time>2026-03-22T10:51:19.994Z</time></trkpt><trkpt lat="43.4602267" lon="13.487745"><ele>46.25</ele><time>2026-03-22T10:51:20.993Z</time></trkpt><trkpt lat="43.4602367" lon="13.48754"><ele>46.5</ele><time>2026-03-22T10:51:21.991Z</time></trkpt><trkpt lat="43.4602517" lon="13.4873383"><ele>46.75</ele><time>2026-03-22T10:51:22.99Z</time></trkpt><trkpt lat="43.46027" lon="13.4871467"><ele>47.0</ele><time>2026-03-22T10:51:23.992Z</time></trkpt><trkpt lat="43.4602933" lon="13.4869633"><ele>47.0</ele><time>2026-03-22T10:51:24.988Z</time></trkpt><trkpt lat="43.4603283" lon="13.4867633"><ele>47.0</ele><time>2026-03-22T10:51:25.988Z</time></trkpt><trkpt lat="43.4603617" lon="13.4865633"><ele>47.0</ele><time>2026-03-22T10:51:26.993Z</time></trkpt><trkpt lat="43.460405" lon="13.4863517"><ele>47.33333333333333</ele><time>2026-03-22T10:51:27.988Z</time></trkpt><trkpt lat="43.4604467" lon="13.4860867"><ele>47.666666666666664</ele><time>2026-03-22T10:51:28.991Z</time></trkpt><trkpt lat="43.4604983" lon="13.4858117"><ele>48.0</ele><time>2026-03-22T10:51:29.993Z</time></trkpt><trkpt lat="43.4605617" lon="13.485535"><ele>48.66666666666667</ele><time>2026-03-22T10:51:30.99Z</time></trkpt><trkpt lat="43.460625" lon="13.485285"><ele>49.333333333333336</ele><time>2026-03-22T10:51:31.994Z</time></trkpt><trkpt lat="43.4606817" lon="13.4850583"><ele>50.0</ele><time>2026-03-22T10:51:32.994Z</time></trkpt><trkpt lat="43.4607267" lon="13.4848567"><ele>50.0</ele><time>2026-03-22T10:51:33.99Z</time></trkpt><trkpt lat="43.46076" lon="13.4846767"><ele>50.0</ele><time>2026-03-22T10:51:34.99Z</time></trkpt><trkpt lat="43.46078" lon="13.4845083"><ele>50.0</ele><time>2026-03-22T10:51:35.992Z</time></trkpt><trkpt lat="43.4607983" lon="13.4843483"><ele>50.0</ele><time>2026-03-22T10:51:36.992Z</time></trkpt><trkpt lat="43.4608167" lon="13.4842017"><ele>50.16666666666667</ele><time>2026-03-22T10:51:37.991Z</time></trkpt><trkpt lat="43.4608333" lon="13.4840683"><ele>50.333333333333336</ele><time>2026-03-22T10:51:38.991Z</time></trkpt><trkpt lat="43.4608467" lon="13.4839483"><ele>50.5</ele><time>2026-03-22T10:51:39.992Z</time></trkpt><trkpt lat="43.46086" lon="13.48384"><ele>50.66666666666667</ele><time>2026-03-22T10:51:40.991Z</time></trkpt><trkpt lat="43.4608733" lon="13.48374"><ele>50.833333333333336</ele><time>2026-03-22T10:51:41.992Z</time></trkpt><trkpt lat="43.4608883" lon="13.4836417"><ele>51.0</ele><time>2026-03-22T10:51:42.994Z</time></trkpt><trkpt lat="43.4609033" lon="13.4835533"><ele>50.599999999999994</ele><time>2026-03-22T10:51:43.991Z</time></trkpt><trkpt lat="43.460915" lon="13.4834667"><ele>50.2</ele><time>2026-03-22T10:51:44.99Z</time></trkpt><trkpt lat="43.46093" lon="13.4833633"><ele>49.8</ele><time>2026-03-22T10:51:45.991Z</time></trkpt><trkpt lat="43.460945" lon="13.4832317"><ele>49.400000000000006</ele><time>2026-03-22T10:51:46.99Z</time></trkpt><trkpt lat="43.4609817" lon="13.4830617"><ele>49.0</ele><time>2026-03-22T10:51:47.99Z</time></trkpt><trkpt lat="43.461025" lon="13.48288"><ele>48.666666666666664</ele><time>2026-03-22T10:51:48.994Z</time></trkpt><trkpt lat="43.4610767" lon="13.48269"><ele>48.33333333333333</ele><time>2026-03-22T10:51:49.991Z</time></trkpt><trkpt lat="43.4611283" lon="13.4824983"><ele>48.0</ele><time>2026-03-22T10:51:50.995Z</time></trkpt><trkpt lat="43.461185" lon="13.4822867"><ele>48.0</ele><time>2026-03-22T10:51:51.992Z</time></trkpt><trkpt lat="43.46125" lon="13.4820417"><ele>48.0</ele><time>2026-03-22T10:51:52.991Z</time></trkpt><trkpt lat="43.4613233" lon="13.48178"><ele>48.0</ele><time>2026-03-22T10:51:53.994Z</time></trkpt><trkpt lat="43.4614067" lon="13.481515"><ele>47.666666666666664</ele><time>2026-03-22T10:51:54.994Z</time></trkpt><trkpt lat="43.46149" lon="13.481255"><ele>47.33333333333333</ele><time>2026-03-22T10:51:55.994Z</time></trkpt><trkpt lat="43.46157" lon="13.4810067"><ele>47.0</ele><time>2026-03-22T10:51:56.994Z</time></trkpt><trkpt lat="43.461635" lon="13.4807767"><ele>47.0</ele><time>2026-03-22T10:51:57.995Z</time></trkpt><trkpt lat="43.4616933" lon="13.4805567"><ele>47.0</ele><time>2026-03-22T10:51:58.993Z</time></trkpt><trkpt lat="43.4617467" lon="13.48035"><ele>47.0</ele><time>2026-03-22T10:51:59.993Z</time></trkpt><trkpt lat="43.4618" lon="13.4801433"><ele>47.33333333333333</ele><time>2026-03-22T10:52:00.99Z</time></trkpt><trkpt lat="43.4618533" lon="13.47994"><ele>47.666666666666664</ele><time>2026-03-22T10:52:01.99Z</time></trkpt><trkpt lat="43.461915" lon="13.4797367"><ele>48.0</ele><time>2026-03-22T10:52:02.991Z</time></trkpt><trkpt lat="43.4619917" lon="13.4795367"><ele>48.0</ele><time>2026-03-22T10:52:03.99Z</time></trkpt><trkpt lat="43.462075" lon="13.47935"><ele>48.0</ele><time>2026-03-22T10:52:04.993Z</time></trkpt><trkpt lat="43.46216" lon="13.4791767"><ele>48.0</ele><time>2026-03-22T10:52:05.994Z</time></trkpt><trkpt lat="43.4622583" lon="13.4789983"><ele>48.0</ele><time>2026-03-22T10:52:06.995Z</time></trkpt><trkpt lat="43.46237" lon="13.4788067"><ele>48.0</ele><time>2026-03-22T10:52:07.991Z</time></trkpt><trkpt lat="43.4625017" lon="13.478605"><ele>48.0</ele><time>2026-03-22T10:52:08.996Z</time></trkpt><trkpt lat="43.4626583" lon="13.4783967"><ele>48.0</ele><time>2026-03-22T10:52:09.995Z</time></trkpt><trkpt lat="43.4628267" lon="13.478185"><ele>48.0</ele><time>2026-03-22T10:52:10.99Z</time></trkpt><trkpt lat="43.4630133" lon="13.4779567"><ele>47.5</ele><time>2026-03-22T10:52:11.994Z</time></trkpt><trkpt lat="43.4632083" lon="13.47771"><ele>47.0</ele><time>2026-03-22T10:52:12.989Z</time></trkpt><trkpt lat="43.4633983" lon="13.4774467"><ele>47.0</ele><time>2026-03-22T10:52:13.992Z</time></trkpt><trkpt lat="43.46358" lon="13.4771667"><ele>47.0</ele><time>2026-03-22T10:52:14.994Z</time></trkpt><trkpt lat="43.46375" lon="13.47688"><ele>48.5</ele><time>2026-03-22T10:52:15.992Z</time></trkpt><trkpt lat="43.4639067" lon="13.47658"><ele>50.0</ele><time>2026-03-22T10:52:16.993Z</time></trkpt><trkpt lat="43.4640483" lon="13.47628"><ele>49.0</ele><time>2026-03-22T10:52:17.994Z</time></trkpt><trkpt lat="43.464175" lon="13.47599"><ele>48.0</ele><time>2026-03-22T10:52:18.995Z</time></trkpt><trkpt lat="43.46429" lon="13.4757183"><ele>48.0</ele><time>2026-03-22T10:52:19.994Z</time></trkpt><trkpt lat="43.4643983" lon="13.4754617"><ele>48.0</ele><time>2026-03-22T10:52:20.993Z</time></trkpt><trkpt lat="43.4645" lon="13.4752267"><ele>48.0</ele><time>2026-03-22T10:52:21.995Z</time></trkpt><trkpt lat="43.464585" lon="13.475"><ele>48.66666666666667</ele><time>2026-03-22T10:52:22.994Z</time></trkpt><trkpt lat="43.4646533" lon="13.4747817"><ele>49.333333333333336</ele><time>2026-03-22T10:52:23.992Z</time></trkpt><trkpt lat="43.4647133" lon="13.474575"><ele>50.0</ele><time>2026-03-22T10:52:24.994Z</time></trkpt><trkpt lat="43.46477" lon="13.4743767"><ele>50.0</ele><time>2026-03-22T10:52:25.993Z</time></trkpt><trkpt lat="43.4648267" lon="13.4741783"><ele>50.0</ele><time>2026-03-22T10:52:26.996Z</time></trkpt><trkpt lat="43.4648867" lon="13.4739783"><ele>50.0</ele><time>2026-03-22T10:52:27.992Z</time></trkpt><trkpt lat="43.464945" lon="13.4737683"><ele>50.0</ele><time>2026-03-22T10:52:28.992Z</time></trkpt><trkpt lat="43.4650033" lon="13.47356"><ele>50.0</ele><time>2026-03-22T10:52:29.991Z</time></trkpt><trkpt lat="43.4650633" lon="13.4733533"><ele>50.0</ele><time>2026-03-22T10:52:30.991Z</time></trkpt><trkpt lat="43.46512" lon="13.4731517"><ele>50.0</ele><time>2026-03-22T10:52:31.988Z</time></trkpt><trkpt lat="43.4651783" lon="13.4729533"><ele>50.0</ele><time>2026-03-22T10:52:32.992Z</time></trkpt><trkpt lat="43.4652367" lon="13.4727567"><ele>50.0</ele><time>2026-03-22T10:52:33.991Z</time></trkpt><trkpt lat="43.46529" lon="13.4725617"><ele>49.66666666666667</ele><time>2026-03-22T10:52:34.993Z</time></trkpt><trkpt lat="43.4653467" lon="13.472365"><ele>49.33333333333333</ele><time>2026-03-22T10:52:35.989Z</time></trkpt><trkpt lat="43.465405" lon="13.472165"><ele>49.0</ele><time>2026-03-22T10:52:36.991Z</time></trkpt><trkpt lat="43.4654683" lon="13.471955"><ele>49.0</ele><time>2026-03-22T10:52:37.992Z</time></trkpt><trkpt lat="43.4655367" lon="13.4717417"><ele>49.0</ele><time>2026-03-22T10:52:38.988Z</time></trkpt><trkpt lat="43.4656167" lon="13.4715283"><ele>49.0</ele><time>2026-03-22T10:52:39.99Z</time></trkpt><trkpt lat="43.4657067" lon="13.4713267"><ele>49.666666666666664</ele><time>2026-03-22T10:52:40.991Z</time></trkpt><trkpt lat="43.465805" lon="13.47113"><ele>50.33333333333333</ele><time>2026-03-22T10:52:41.992Z</time></trkpt><trkpt lat="43.4659083" lon="13.4709317"><ele>51.0</ele><time>2026-03-22T10:52:42.992Z</time></trkpt><trkpt lat="43.4660167" lon="13.4707383"><ele>51.0</ele><time>2026-03-22T10:52:43.994Z</time></trkpt><trkpt lat="43.4661283" lon="13.4705467"><ele>51.0</ele><time>2026-03-22T10:52:44.993Z</time></trkpt><trkpt lat="43.4662383" lon="13.4703583"><ele>51.0</ele><time>2026-03-22T10:52:45.989Z</time></trkpt><trkpt lat="43.4663517" lon="13.47017"><ele>52.33333333333333</ele><time>2026-03-22T10:52:46.991Z</time></trkpt><trkpt lat="43.4664667" lon="13.4699867"><ele>53.666666666666664</ele><time>2026-03-22T10:52:47.996Z</time></trkpt><trkpt lat="43.46658" lon="13.4698117"><ele>55.0</ele><time>2026-03-22T10:52:48.994Z</time></trkpt><trkpt lat="43.4666883" lon="13.46964"><ele>54.33333333333333</ele><time>2026-03-22T10:52:49.996Z</time></trkpt><trkpt lat="43.4667917" lon="13.46947"><ele>53.66666666666667</ele><time>2026-03-22T10:52:50.993Z</time></trkpt><trkpt lat="43.4668933" lon="13.469305"><ele>53.0</ele><time>2026-03-22T10:52:51.991Z</time></trkpt><trkpt lat="43.4669967" lon="13.46914"><ele>53.0</ele><time>2026-03-22T10:52:52.992Z</time></trkpt><trkpt lat="43.4670983" lon="13.46897"><ele>53.0</ele><time>2026-03-22T10:52:53.991Z</time></trkpt><trkpt lat="43.4672033" lon="13.4687967"><ele>53.0</ele><time>2026-03-22T10:52:54.992Z</time></trkpt><trkpt lat="43.4673083" lon="13.468625"><ele>54.0</ele><time>2026-03-22T10:52:55.993Z</time></trkpt><trkpt lat="43.4674067" lon="13.4684483"><ele>55.0</ele><time>2026-03-22T10:52:56.996Z</time></trkpt><trkpt lat="43.4674983" lon="13.46828"><ele>56.0</ele><time>2026-03-22T10:52:57.991Z</time></trkpt><trkpt lat="43.46759" lon="13.46812"><ele>56.0</ele><time>2026-03-22T10:52:58.99Z</time></trkpt><trkpt lat="43.467685" lon="13.4679617"><ele>56.0</ele><time>2026-03-22T10:52:59.994Z</time></trkpt><trkpt lat="43.4677783" lon="13.4678033"><ele>56.0</ele><time>2026-03-22T10:53:00.993Z</time></trkpt><trkpt lat="43.4678683" lon="13.46765"><ele>56.0</ele><time>2026-03-22T10:53:01.991Z</time></trkpt><trkpt lat="43.4679533" lon="13.4675033"><ele>56.8</ele><time>2026-03-22T10:53:02.991Z</time></trkpt><trkpt lat="43.468025" lon="13.4673617"><ele>57.599999999999994</ele><time>2026-03-22T10:53:03.993Z</time></trkpt><trkpt lat="43.4680817" lon="13.4672317"><ele>58.4</ele><time>2026-03-22T10:53:04.991Z</time></trkpt><trkpt lat="43.468125" lon="13.46711"><ele>59.2</ele><time>2026-03-22T10:53:05.991Z</time></trkpt><trkpt lat="43.4681617" lon="13.4670017"><ele>60.0</ele><time>2026-03-22T10:53:06.991Z</time></trkpt><trkpt lat="43.4681983" lon="13.46691"><ele>60.0</ele><time>2026-03-22T10:53:07.992Z</time></trkpt><trkpt lat="43.4682483" lon="13.4667667"><ele>60.0</ele><time>2026-03-22T10:53:09.99Z</time></trkpt><trkpt lat="43.4682867" lon="13.4666717"><ele>60.0</ele><time>2026-03-22T10:53:11.995Z</time></trkpt><trkpt lat="43.46834" lon="13.46657"><ele>60.0</ele><time>2026-03-22T10:53:27.99Z</time></trkpt><trkpt lat="43.468375" lon="13.4664717"><ele>60.0</ele><time>2026-03-22T10:53:29.993Z</time></trkpt><trkpt lat="43.468435" lon="13.46631"><ele>59.75</ele><time>2026-03-22T10:53:31.993Z</time></trkpt><trkpt lat="43.4684833" lon="13.466175"><ele>59.5</ele><time>2026-03-22T10:53:32.992Z</time></trkpt><trkpt lat="43.4685483" lon="13.466005"><ele>59.25</ele><time>2026-03-22T10:53:33.993Z</time></trkpt><trkpt lat="43.46862" lon="13.4658217"><ele>59.0</ele><time>2026-03-22T10:53:34.991Z</time></trkpt><trkpt lat="43.4686967" lon="13.4656233"><ele>59.333333333333336</ele><time>2026-03-22T10:53:35.992Z</time></trkpt><trkpt lat="43.46878" lon="13.4654017"><ele>59.66666666666667</ele><time>2026-03-22T10:53:36.995Z</time></trkpt><trkpt lat="43.4688633" lon="13.465165"><ele>60.0</ele><time>2026-03-22T10:53:37.992Z</time></trkpt><trkpt lat="43.4689467" lon="13.46492"><ele>60.0</ele><time>2026-03-22T10:53:38.997Z</time></trkpt><trkpt lat="43.4690383" lon="13.4646633"><ele>60.0</ele><time>2026-03-22T10:53:39.992Z</time></trkpt><trkpt lat="43.4691367" lon="13.464395"><ele>60.0</ele><time>2026-03-22T10:53:40.989Z</time></trkpt><trkpt lat="43.4692383" lon="13.464115"><ele>60.0</ele><time>2026-03-22T10:53:41.993Z</time></trkpt><trkpt lat="43.4693417" lon="13.4638333"><ele>60.0</ele><time>2026-03-22T10:53:42.992Z</time></trkpt><trkpt lat="43.4694417" lon="13.46355"><ele>60.0</ele><time>2026-03-22T10:53:43.994Z</time></trkpt><trkpt lat="43.4695417" lon="13.4632567"><ele>60.0</ele><time>2026-03-22T10:53:44.991Z</time></trkpt><trkpt lat="43.4696467" lon="13.4629583"><ele>61.5</ele><time>2026-03-22T10:53:45.992Z</time></trkpt><trkpt lat="43.4697567" lon="13.4626567"><ele>63.0</ele><time>2026-03-22T10:53:46.999Z</time></trkpt><trkpt lat="43.4698683" lon="13.4623583"><ele>61.5</ele><time>2026-03-22T10:53:47.994Z</time></trkpt><trkpt lat="43.469975" lon="13.462065"><ele>60.0</ele><time>2026-03-22T10:53:48.992Z</time></trkpt><trkpt lat="43.4700817" lon="13.4617667"><ele>60.0</ele><time>2026-03-22T10:53:49.992Z</time></trkpt><trkpt lat="43.4701817" lon="13.46147"><ele>60.0</ele><time>2026-03-22T10:53:50.994Z</time></trkpt><trkpt lat="43.4702783" lon="13.4611733"><ele>60.0</ele><time>2026-03-22T10:53:51.992Z</time></trkpt><trkpt lat="43.4703733" lon="13.4608883"><ele>60.0</ele><time>2026-03-22T10:53:52.99Z</time></trkpt><trkpt lat="43.4704633" lon="13.4606317"><ele>60.0</ele><time>2026-03-22T10:53:53.995Z</time></trkpt><trkpt lat="43.4705483" lon="13.4603833"><ele>61.0</ele><time>2026-03-22T10:53:54.994Z</time></trkpt><trkpt lat="43.4706233" lon="13.46016"><ele>62.0</ele><time>2026-03-22T10:53:55.992Z</time></trkpt><trkpt lat="43.470695" lon="13.459965"><ele>63.0</ele><time>2026-03-22T10:53:56.993Z</time></trkpt><trkpt lat="43.47076" lon="13.4598017"><ele>63.0</ele><time>2026-03-22T10:53:57.991Z</time></trkpt><trkpt lat="43.4708217" lon="13.4596633"><ele>63.0</ele><time>2026-03-22T10:53:58.993Z</time></trkpt><trkpt lat="43.4708767" lon="13.4595517"><ele>63.0</ele><time>2026-03-22T10:53:59.991Z</time></trkpt><trkpt lat="43.4709417" lon="13.45945"><ele>63.0</ele><time>2026-03-22T10:54:00.991Z</time></trkpt><trkpt lat="43.4710283" lon="13.4593567"><ele>63.0</ele><time>2026-03-22T10:54:01.99Z</time></trkpt><trkpt lat="43.4711117" lon="13.4592617"><ele>62.75</ele><time>2026-03-22T10:54:02.991Z</time></trkpt><trkpt lat="43.4711783" lon="13.4591533"><ele>62.5</ele><time>2026-03-22T10:54:03.993Z</time></trkpt><trkpt lat="43.47121" lon="13.4590133"><ele>62.25</ele><time>2026-03-22T10:54:04.991Z</time></trkpt><trkpt lat="43.4712217" lon="13.45885"><ele>62.0</ele><time>2026-03-22T10:54:05.989Z</time></trkpt><trkpt lat="43.471235" lon="13.4586583"><ele>62.0</ele><time>2026-03-22T10:54:06.992Z</time></trkpt><trkpt lat="43.4712767" lon="13.4584433"><ele>62.0</ele><time>2026-03-22T10:54:07.992Z</time></trkpt><trkpt lat="43.4713567" lon="13.4582067"><ele>62.0</ele><time>2026-03-22T10:54:08.992Z</time></trkpt><trkpt lat="43.4714567" lon="13.45796"><ele>62.66666666666667</ele><time>2026-03-22T10:54:09.991Z</time></trkpt><trkpt lat="43.4715617" lon="13.4577017"><ele>63.33333333333333</ele><time>2026-03-22T10:54:10.992Z</time></trkpt><trkpt lat="43.4716717" lon="13.4574333"><ele>64.0</ele><time>2026-03-22T10:54:11.992Z</time></trkpt><trkpt lat="43.47179" lon="13.4571583"><ele>63.5</ele><time>2026-03-22T10:54:12.991Z</time></trkpt><trkpt lat="43.4719117" lon="13.456875"><ele>63.0</ele><time>2026-03-22T10:54:13.993Z</time></trkpt><trkpt lat="43.4720367" lon="13.4565833"><ele>63.5</ele><time>2026-03-22T10:54:14.995Z</time></trkpt><trkpt lat="43.4721667" lon="13.45628"><ele>64.0</ele><time>2026-03-22T10:54:15.993Z</time></trkpt><trkpt lat="43.4723" lon="13.4559717"><ele>64.0</ele><time>2026-03-22T10:54:16.992Z</time></trkpt><trkpt lat="43.4724333" lon="13.4556617"><ele>64.0</ele><time>2026-03-22T10:54:17.993Z</time></trkpt><trkpt lat="43.4725667" lon="13.4553533"><ele>63.5</ele><time>2026-03-22T10:54:18.994Z</time></trkpt><trkpt lat="43.4727" lon="13.4550433"><ele>63.0</ele><time>2026-03-22T10:54:19.996Z</time></trkpt><trkpt lat="43.4728317" lon="13.454735"><ele>64.0</ele><time>2026-03-22T10:54:20.994Z</time></trkpt><trkpt lat="43.47296" lon="13.454425"><ele>65.0</ele><time>2026-03-22T10:54:21.993Z</time></trkpt><trkpt lat="43.47307" lon="13.4541133"><ele>65.0</ele><time>2026-03-22T10:54:22.994Z</time></trkpt><trkpt lat="43.47316" lon="13.4537933"><ele>65.0</ele><time>2026-03-22T10:54:23.992Z</time></trkpt><trkpt lat="43.473235" lon="13.453465"><ele>65.0</ele><time>2026-03-22T10:54:24.991Z</time></trkpt><trkpt lat="43.473305" lon="13.45313"><ele>65.0</ele><time>2026-03-22T10:54:25.992Z</time></trkpt><trkpt lat="43.4733683" lon="13.45279"><ele>65.0</ele><time>2026-03-22T10:54:26.994Z</time></trkpt><trkpt lat="43.473425" lon="13.4524467"><ele>65.0</ele><time>2026-03-22T10:54:27.992Z</time></trkpt><trkpt lat="43.4734767" lon="13.4520967"><ele>63.5</ele><time>2026-03-22T10:54:28.991Z</time></trkpt><trkpt lat="43.473525" lon="13.451755"><ele>62.0</ele><time>2026-03-22T10:54:29.992Z</time></trkpt><trkpt lat="43.4735783" lon="13.451435"><ele>62.0</ele><time>2026-03-22T10:54:30.998Z</time></trkpt><trkpt lat="43.4736483" lon="13.4511217"><ele>62.0</ele><time>2026-03-22T10:54:31.994Z</time></trkpt><trkpt lat="43.4737383" lon="13.4508167"><ele>64.5</ele><time>2026-03-22T10:54:32.995Z</time></trkpt><trkpt lat="43.4738533" lon="13.4505217"><ele>67.0</ele><time>2026-03-22T10:54:33.994Z</time></trkpt><trkpt lat="43.4739817" lon="13.450235"><ele>67.0</ele><time>2026-03-22T10:54:34.993Z</time></trkpt><trkpt lat="43.47412" lon="13.4499517"><ele>67.0</ele><time>2026-03-22T10:54:35.992Z</time></trkpt><trkpt lat="43.474255" lon="13.4496717"><ele>65.5</ele><time>2026-03-22T10:54:36.991Z</time></trkpt><trkpt lat="43.4743883" lon="13.4493867"><ele>64.0</ele><time>2026-03-22T10:54:37.989Z</time></trkpt><trkpt lat="43.4745183" lon="13.4490983"><ele>65.33333333333333</ele><time>2026-03-22T10:54:38.994Z</time></trkpt><trkpt lat="43.474625" lon="13.4488183"><ele>66.66666666666667</ele><time>2026-03-22T10:54:39.995Z</time></trkpt><trkpt lat="43.4747133" lon="13.4485467"><ele>68.0</ele><time>2026-03-22T10:54:40.993Z</time></trkpt><trkpt lat="43.4747933" lon="13.448285"><ele>68.0</ele><time>2026-03-22T10:54:41.992Z</time></trkpt><trkpt lat="43.4748683" lon="13.44803"><ele>68.0</ele><time>2026-03-22T10:54:42.993Z</time></trkpt><trkpt lat="43.4749383" lon="13.4477833"><ele>68.0</ele><time>2026-03-22T10:54:43.994Z</time></trkpt><trkpt lat="43.4749983" lon="13.44754"><ele>67.66666666666667</ele><time>2026-03-22T10:54:44.993Z</time></trkpt><trkpt lat="43.4750517" lon="13.4472983"><ele>67.33333333333333</ele><time>2026-03-22T10:54:45.994Z</time></trkpt><trkpt lat="43.4751" lon="13.4470567"><ele>67.0</ele><time>2026-03-22T10:54:46.991Z</time></trkpt><trkpt lat="43.4751433" lon="13.446815"><ele>66.66666666666666</ele><time>2026-03-22T10:54:47.994Z</time></trkpt><trkpt lat="43.4751883" lon="13.4465667"><ele>66.33333333333333</ele><time>2026-03-22T10:54:48.992Z</time></trkpt><trkpt lat="43.4752317" lon="13.4463217"><ele>66.0</ele><time>2026-03-22T10:54:49.993Z</time></trkpt><trkpt lat="43.4752717" lon="13.4460783"><ele>66.0</ele><time>2026-03-22T10:54:50.994Z</time></trkpt><trkpt lat="43.4753083" lon="13.4458317"><ele>66.0</ele><time>2026-03-22T10:54:51.993Z</time></trkpt><trkpt lat="43.47534" lon="13.44558"><ele>66.0</ele><time>2026-03-22T10:54:52.993Z</time></trkpt><trkpt lat="43.47537" lon="13.4453267"><ele>66.0</ele><time>2026-03-22T10:54:53.994Z</time></trkpt><trkpt lat="43.4753917" lon="13.4450717"><ele>66.0</ele><time>2026-03-22T10:54:54.993Z</time></trkpt><trkpt lat="43.4754167" lon="13.4448217"><ele>66.0</ele><time>2026-03-22T10:54:55.993Z</time></trkpt><trkpt lat="43.4754383" lon="13.4445767"><ele>67.33333333333333</ele><time>2026-03-22T10:54:56.995Z</time></trkpt><trkpt lat="43.4754667" lon="13.4443333"><ele>68.66666666666666</ele><time>2026-03-22T10:54:57.993Z</time></trkpt><trkpt lat="43.4754983" lon="13.4440933"><ele>70.0</ele><time>2026-03-22T10:54:58.993Z</time></trkpt><trkpt lat="43.4755367" lon="13.443855"><ele>70.33333333333333</ele><time>2026-03-22T10:54:59.993Z</time></trkpt><trkpt lat="43.47559" lon="13.443625"><ele>70.66666666666667</ele><time>2026-03-22T10:55:00.995Z</time></trkpt><trkpt lat="43.4756517" lon="13.4433967"><ele>71.0</ele><time>2026-03-22T10:55:01.99Z</time></trkpt><trkpt lat="43.4757217" lon="13.44317"><ele>71.0</ele><time>2026-03-22T10:55:02.995Z</time></trkpt><trkpt lat="43.4758017" lon="13.4429467"><ele>71.0</ele><time>2026-03-22T10:55:03.99Z</time></trkpt><trkpt lat="43.475895" lon="13.4427217"><ele>71.0</ele><time>2026-03-22T10:55:04.994Z</time></trkpt><trkpt lat="43.4759933" lon="13.4425017"><ele>71.0</ele><time>2026-03-22T10:55:05.996Z</time></trkpt><trkpt lat="43.4760933" lon="13.4422983"><ele>71.0</ele><time>2026-03-22T10:55:06.991Z</time></trkpt><trkpt lat="43.4761983" lon="13.442105"><ele>71.0</ele><time>2026-03-22T10:55:07.996Z</time></trkpt><trkpt lat="43.476315" lon="13.4419167"><ele>73.0</ele><time>2026-03-22T10:55:08.99Z</time></trkpt><trkpt lat="43.4764367" lon="13.4417383"><ele>75.0</ele><time>2026-03-22T10:55:09.988Z</time></trkpt><trkpt lat="43.4765533" lon="13.44157"><ele>77.0</ele><time>2026-03-22T10:55:10.991Z</time></trkpt><trkpt lat="43.4766683" lon="13.4414017"><ele>76.66666666666667</ele><time>2026-03-22T10:55:11.991Z</time></trkpt><trkpt lat="43.476785" lon="13.4412333"><ele>76.33333333333333</ele><time>2026-03-22T10:55:12.992Z</time></trkpt><trkpt lat="43.4769" lon="13.4410617"><ele>76.0</ele><time>2026-03-22T10:55:13.99Z</time></trkpt><trkpt lat="43.4770133" lon="13.44089"><ele>77.0</ele><time>2026-03-22T10:55:14.994Z</time></trkpt><trkpt lat="43.477125" lon="13.4407183"><ele>78.0</ele><time>2026-03-22T10:55:15.99Z</time></trkpt><trkpt lat="43.4772333" lon="13.44054"><ele>79.0</ele><time>2026-03-22T10:55:16.99Z</time></trkpt><trkpt lat="43.47734" lon="13.4403517"><ele>79.0</ele><time>2026-03-22T10:55:17.992Z</time></trkpt><trkpt lat="43.4774417" lon="13.4401567"><ele>79.0</ele><time>2026-03-22T10:55:18.988Z</time></trkpt><trkpt lat="43.4775417" lon="13.4399583"><ele>79.0</ele><time>2026-03-22T10:55:19.995Z</time></trkpt><trkpt lat="43.4776417" lon="13.4397567"><ele>79.0</ele><time>2026-03-22T10:55:20.992Z</time></trkpt><trkpt lat="43.47774" lon="13.4395583"><ele>79.0</ele><time>2026-03-22T10:55:21.993Z</time></trkpt><trkpt lat="43.4778383" lon="13.4393583"><ele>79.0</ele><time>2026-03-22T10:55:22.991Z</time></trkpt><trkpt lat="43.4779333" lon="13.4391533"><ele>79.33333333333333</ele><time>2026-03-22T10:55:23.991Z</time></trkpt><trkpt lat="43.478025" lon="13.43895"><ele>79.66666666666667</ele><time>2026-03-22T10:55:24.991Z</time></trkpt><trkpt lat="43.4781133" lon="13.4387517"><ele>80.0</ele><time>2026-03-22T10:55:25.993Z</time></trkpt><trkpt lat="43.4782083" lon="13.4385333"><ele>80.66666666666667</ele><time>2026-03-22T10:55:26.994Z</time></trkpt><trkpt lat="43.4783067" lon="13.43829"><ele>81.33333333333333</ele><time>2026-03-22T10:55:27.99Z</time></trkpt><trkpt lat="43.4784183" lon="13.43801"><ele>82.0</ele><time>2026-03-22T10:55:28.991Z</time></trkpt><trkpt lat="43.478545" lon="13.4377117"><ele>83.0</ele><time>2026-03-22T10:55:29.991Z</time></trkpt><trkpt lat="43.47868" lon="13.437405"><ele>84.0</ele><time>2026-03-22T10:55:30.993Z</time></trkpt><trkpt lat="43.4788117" lon="13.4370967"><ele>85.5</ele><time>2026-03-22T10:55:31.993Z</time></trkpt><trkpt lat="43.4789483" lon="13.4367867"><ele>87.0</ele><time>2026-03-22T10:55:32.991Z</time></trkpt><trkpt lat="43.47908" lon="13.4364867"><ele>87.5</ele><time>2026-03-22T10:55:33.993Z</time></trkpt><trkpt lat="43.4791967" lon="13.4361867"><ele>88.0</ele><time>2026-03-22T10:55:34.988Z</time></trkpt><trkpt lat="43.47929" lon="13.435875"><ele>88.0</ele><time>2026-03-22T10:55:35.994Z</time></trkpt><trkpt lat="43.4793567" lon="13.43556"><ele>88.0</ele><time>2026-03-22T10:55:36.993Z</time></trkpt><trkpt lat="43.4794183" lon="13.4352517"><ele>88.0</ele><time>2026-03-22T10:55:37.988Z</time></trkpt><trkpt lat="43.4795" lon="13.434955"><ele>88.0</ele><time>2026-03-22T10:55:38.994Z</time></trkpt><trkpt lat="43.4796083" lon="13.43467"><ele>89.33333333333333</ele><time>2026-03-22T10:55:39.993Z</time></trkpt><trkpt lat="43.479735" lon="13.434405"><ele>90.66666666666667</ele><time>2026-03-22T10:55:40.99Z</time></trkpt><trkpt lat="43.47986" lon="13.43416"><ele>92.0</ele><time>2026-03-22T10:55:41.991Z</time></trkpt><trkpt lat="43.4799833" lon="13.433925"><ele>91.0</ele><time>2026-03-22T10:55:42.992Z</time></trkpt><trkpt lat="43.480105" lon="13.4336933"><ele>90.0</ele><time>2026-03-22T10:55:43.991Z</time></trkpt><trkpt lat="43.4802217" lon="13.4334683"><ele>89.0</ele><time>2026-03-22T10:55:44.998Z</time></trkpt><trkpt lat="43.4803367" lon="13.4332567"><ele>88.66666666666667</ele><time>2026-03-22T10:55:45.993Z</time></trkpt><trkpt lat="43.48045" lon="13.4330617"><ele>88.33333333333333</ele><time>2026-03-22T10:55:46.992Z</time></trkpt><trkpt lat="43.4805733" lon="13.4328933"><ele>88.0</ele><time>2026-03-22T10:55:47.991Z</time></trkpt><trkpt lat="43.4807017" lon="13.432745"><ele>88.0</ele><time>2026-03-22T10:55:48.991Z</time></trkpt><trkpt lat="43.4808267" lon="13.4326067"><ele>88.0</ele><time>2026-03-22T10:55:49.991Z</time></trkpt><trkpt lat="43.4809483" lon="13.43247"><ele>88.0</ele><time>2026-03-22T10:55:50.995Z</time></trkpt><trkpt lat="43.48107" lon="13.4323283"><ele>88.0</ele><time>2026-03-22T10:55:51.989Z</time></trkpt><trkpt lat="43.481185" lon="13.4321817"><ele>88.0</ele><time>2026-03-22T10:55:52.991Z</time></trkpt><trkpt lat="43.4812933" lon="13.432035"><ele>88.0</ele><time>2026-03-22T10:55:53.992Z</time></trkpt><trkpt lat="43.4813917" lon="13.43187"><ele>88.66666666666666</ele><time>2026-03-22T10:55:54.994Z</time></trkpt><trkpt lat="43.4814817" lon="13.4316917"><ele>89.33333333333333</ele><time>2026-03-22T10:55:55.992Z</time></trkpt><trkpt lat="43.4815583" lon="13.4315117"><ele>90.0</ele><time>2026-03-22T10:55:56.992Z</time></trkpt><trkpt lat="43.481625" lon="13.4313283"><ele>89.33333333333333</ele><time>2026-03-22T10:55:57.989Z</time></trkpt><trkpt lat="43.4816917" lon="13.4311417"><ele>88.66666666666666</ele><time>2026-03-22T10:55:58.993Z</time></trkpt><trkpt lat="43.4817483" lon="13.4309417"><ele>88.0</ele><time>2026-03-22T10:55:59.989Z</time></trkpt><trkpt lat="43.4817967" lon="13.4307317"><ele>88.0</ele><time>2026-03-22T10:56:00.992Z</time></trkpt><trkpt lat="43.4818333" lon="13.4305017"><ele>88.0</ele><time>2026-03-22T10:56:01.991Z</time></trkpt><trkpt lat="43.4818567" lon="13.4302333"><ele>88.0</ele><time>2026-03-22T10:56:02.994Z</time></trkpt><trkpt lat="43.4818767" lon="13.4299317"><ele>87.0</ele><time>2026-03-22T10:56:03.99Z</time></trkpt><trkpt lat="43.4818933" lon="13.4295917"><ele>86.0</ele><time>2026-03-22T10:56:04.991Z</time></trkpt><trkpt lat="43.4819083" lon="13.429255"><ele>86.0</ele><time>2026-03-22T10:56:05.992Z</time></trkpt><trkpt lat="43.4819267" lon="13.4289317"><ele>86.0</ele><time>2026-03-22T10:56:06.993Z</time></trkpt><trkpt lat="43.4819467" lon="13.428625"><ele>85.66666666666667</ele><time>2026-03-22T10:56:07.999Z</time></trkpt><trkpt lat="43.4819617" lon="13.4283383"><ele>85.33333333333333</ele><time>2026-03-22T10:56:08.997Z</time></trkpt><trkpt lat="43.4819817" lon="13.4280733"><ele>85.0</ele><time>2026-03-22T10:56:09.994Z</time></trkpt><trkpt lat="43.482005" lon="13.4278233"><ele>84.66666666666666</ele><time>2026-03-22T10:56:10.991Z</time></trkpt><trkpt lat="43.48203" lon="13.4275783"><ele>84.33333333333333</ele><time>2026-03-22T10:56:11.994Z</time></trkpt><trkpt lat="43.4820567" lon="13.427335"><ele>84.0</ele><time>2026-03-22T10:56:12.993Z</time></trkpt><trkpt lat="43.4820817" lon="13.427095"><ele>85.66666666666667</ele><time>2026-03-22T10:56:13.992Z</time></trkpt><trkpt lat="43.4821183" lon="13.42686"><ele>87.33333333333334</ele><time>2026-03-22T10:56:14.993Z</time></trkpt><trkpt lat="43.4821683" lon="13.4266233"><ele>89.0</ele><time>2026-03-22T10:56:15.993Z</time></trkpt><trkpt lat="43.4822217" lon="13.4263833"><ele>88.0</ele><time>2026-03-22T10:56:16.991Z</time></trkpt><trkpt lat="43.4822767" lon="13.4261383"><ele>87.0</ele><time>2026-03-22T10:56:17.993Z</time></trkpt><trkpt lat="43.4823267" lon="13.425895"><ele>86.0</ele><time>2026-03-22T10:56:18.993Z</time></trkpt><trkpt lat="43.4823717" lon="13.4256483"><ele>85.33333333333334</ele><time>2026-03-22T10:56:19.994Z</time></trkpt><trkpt lat="43.4824233" lon="13.4254117"><ele>84.66666666666667</ele><time>2026-03-22T10:56:20.996Z</time></trkpt><trkpt lat="43.4824767" lon="13.4251733"><ele>84.0</ele><time>2026-03-22T10:56:21.994Z</time></trkpt><trkpt lat="43.4825233" lon="13.4249333"><ele>84.0</ele><time>2026-03-22T10:56:22.99Z</time></trkpt><trkpt lat="43.4825567" lon="13.4246917"><ele>84.0</ele><time>2026-03-22T10:56:23.994Z</time></trkpt><trkpt lat="43.4825667" lon="13.4244533"><ele>84.0</ele><time>2026-03-22T10:56:24.993Z</time></trkpt><trkpt lat="43.4825583" lon="13.424215"><ele>83.0</ele><time>2026-03-22T10:56:25.993Z</time></trkpt><trkpt lat="43.48254" lon="13.4239833"><ele>82.0</ele><time>2026-03-22T10:56:26.996Z</time></trkpt><trkpt lat="43.48252" lon="13.4237517"><ele>81.0</ele><time>2026-03-22T10:56:27.993Z</time></trkpt><trkpt lat="43.482495" lon="13.4235217"><ele>81.0</ele><time>2026-03-22T10:56:28.992Z</time></trkpt><trkpt lat="43.482475" lon="13.4232983"><ele>81.0</ele><time>2026-03-22T10:56:29.996Z</time></trkpt><trkpt lat="43.48246" lon="13.42307"><ele>81.0</ele><time>2026-03-22T10:56:30.995Z</time></trkpt><trkpt lat="43.48244" lon="13.4228233"><ele>81.66666666666667</ele><time>2026-03-22T10:56:31.992Z</time></trkpt><trkpt lat="43.4824133" lon="13.4225417"><ele>82.33333333333334</ele><time>2026-03-22T10:56:32.996Z</time></trkpt><trkpt lat="43.482395" lon="13.4222267"><ele>83.0</ele><time>2026-03-22T10:56:33.991Z</time></trkpt><trkpt lat="43.4823917" lon="13.4218733"><ele>83.0</ele><time>2026-03-22T10:56:34.991Z</time></trkpt><trkpt lat="43.4824017" lon="13.4215083"><ele>83.0</ele><time>2026-03-22T10:56:35.994Z</time></trkpt><trkpt lat="43.4824217" lon="13.4211467"><ele>83.0</ele><time>2026-03-22T10:56:36.993Z</time></trkpt><trkpt lat="43.4824517" lon="13.4207867"><ele>83.0</ele><time>2026-03-22T10:56:37.995Z</time></trkpt><trkpt lat="43.4824817" lon="13.42043"><ele>83.0</ele><time>2026-03-22T10:56:38.996Z</time></trkpt><trkpt lat="43.4825117" lon="13.420075"><ele>83.0</ele><time>2026-03-22T10:56:39.995Z</time></trkpt><trkpt lat="43.48254" lon="13.4197267"><ele>83.5</ele><time>2026-03-22T10:56:40.99Z</time></trkpt><trkpt lat="43.48257" lon="13.4193817"><ele>84.0</ele><time>2026-03-22T10:56:41.993Z</time></trkpt><trkpt lat="43.4826083" lon="13.4190433"><ele>83.0</ele><time>2026-03-22T10:56:42.996Z</time></trkpt><trkpt lat="43.4826733" lon="13.4187267"><ele>82.0</ele><time>2026-03-22T10:56:43.993Z</time></trkpt><trkpt lat="43.482765" lon="13.4184317"><ele>82.0</ele><time>2026-03-22T10:56:44.995Z</time></trkpt><trkpt lat="43.4828667" lon="13.4181667"><ele>82.0</ele><time>2026-03-22T10:56:45.995Z</time></trkpt><trkpt lat="43.4829567" lon="13.4179233"><ele>82.0</ele><time>2026-03-22T10:56:46.991Z</time></trkpt><trkpt lat="43.4830433" lon="13.4176883"><ele>82.0</ele><time>2026-03-22T10:56:47.994Z</time></trkpt><trkpt lat="43.483125" lon="13.4174667"><ele>82.0</ele><time>2026-03-22T10:56:48.991Z</time></trkpt><trkpt lat="43.4832067" lon="13.4172483"><ele>82.0</ele><time>2026-03-22T10:56:49.993Z</time></trkpt><trkpt lat="43.4832933" lon="13.4170183"><ele>81.66666666666666</ele><time>2026-03-22T10:56:50.994Z</time></trkpt><trkpt lat="43.48338" lon="13.416785"><ele>81.33333333333333</ele><time>2026-03-22T10:56:51.993Z</time></trkpt><trkpt lat="43.4834667" lon="13.4165483"><ele>81.0</ele><time>2026-03-22T10:56:52.99Z</time></trkpt><trkpt lat="43.48355" lon="13.4163167"><ele>81.0</ele><time>2026-03-22T10:56:53.99Z</time></trkpt><trkpt lat="43.4836267" lon="13.4160933"><ele>81.0</ele><time>2026-03-22T10:56:54.988Z</time></trkpt><trkpt lat="43.4837017" lon="13.4158667"><ele>81.0</ele><time>2026-03-22T10:56:55.994Z</time></trkpt><trkpt lat="43.4837733" lon="13.4156267"><ele>81.0</ele><time>2026-03-22T10:56:56.995Z</time></trkpt><trkpt lat="43.48384" lon="13.41538"><ele>81.0</ele><time>2026-03-22T10:56:57.993Z</time></trkpt><trkpt lat="43.4839083" lon="13.4151267"><ele>81.0</ele><time>2026-03-22T10:56:58.99Z</time></trkpt><trkpt lat="43.4839767" lon="13.41487"><ele>81.66666666666667</ele><time>2026-03-22T10:56:59.991Z</time></trkpt><trkpt lat="43.4840483" lon="13.4146133"><ele>82.33333333333334</ele><time>2026-03-22T10:57:00.995Z</time></trkpt><trkpt lat="43.4841183" lon="13.41436"><ele>83.0</ele><time>2026-03-22T10:57:01.99Z</time></trkpt><trkpt lat="43.484195" lon="13.4141067"><ele>83.0</ele><time>2026-03-22T10:57:02.991Z</time></trkpt><trkpt lat="43.48427" lon="13.413855"><ele>83.0</ele><time>2026-03-22T10:57:03.992Z</time></trkpt><trkpt lat="43.4843467" lon="13.413605"><ele>83.0</ele><time>2026-03-22T10:57:04.992Z</time></trkpt><trkpt lat="43.484425" lon="13.413345"><ele>82.66666666666667</ele><time>2026-03-22T10:57:05.993Z</time></trkpt><trkpt lat="43.4845067" lon="13.41307"><ele>82.33333333333333</ele><time>2026-03-22T10:57:06.994Z</time></trkpt><trkpt lat="43.4845817" lon="13.4127733"><ele>82.0</ele><time>2026-03-22T10:57:07.993Z</time></trkpt><trkpt lat="43.4846533" lon="13.4124533"><ele>83.5</ele><time>2026-03-22T10:57:08.995Z</time></trkpt><trkpt lat="43.48472" lon="13.41212"><ele>85.0</ele><time>2026-03-22T10:57:09.992Z</time></trkpt><trkpt lat="43.4847867" lon="13.4117833"><ele>85.0</ele><time>2026-03-22T10:57:10.994Z</time></trkpt><trkpt lat="43.4848517" lon="13.4114433"><ele>85.0</ele><time>2026-03-22T10:57:11.992Z</time></trkpt><trkpt lat="43.4849167" lon="13.4110983"><ele>85.0</ele><time>2026-03-22T10:57:12.993Z</time></trkpt><trkpt lat="43.4849783" lon="13.4107483"><ele>85.0</ele><time>2026-03-22T10:57:13.992Z</time></trkpt><trkpt lat="43.4850383" lon="13.4103967"><ele>85.0</ele><time>2026-03-22T10:57:14.995Z</time></trkpt><trkpt lat="43.485095" lon="13.4100467"><ele>85.0</ele><time>2026-03-22T10:57:15.992Z</time></trkpt><trkpt lat="43.4851467" lon="13.4097"><ele>86.0</ele><time>2026-03-22T10:57:16.994Z</time></trkpt><trkpt lat="43.4851933" lon="13.4093567"><ele>87.0</ele><time>2026-03-22T10:57:17.992Z</time></trkpt><trkpt lat="43.485235" lon="13.409015"><ele>87.5</ele><time>2026-03-22T10:57:18.994Z</time></trkpt><trkpt lat="43.485275" lon="13.4086833"><ele>88.0</ele><time>2026-03-22T10:57:19.992Z</time></trkpt><trkpt lat="43.4853117" lon="13.4083667"><ele>88.0</ele><time>2026-03-22T10:57:20.995Z</time></trkpt><trkpt lat="43.4853467" lon="13.408065"><ele>88.0</ele><time>2026-03-22T10:57:21.992Z</time></trkpt><trkpt lat="43.4853833" lon="13.4077667"><ele>88.0</ele><time>2026-03-22T10:57:22.996Z</time></trkpt><trkpt lat="43.4854217" lon="13.4074683"><ele>88.0</ele><time>2026-03-22T10:57:23.992Z</time></trkpt><trkpt lat="43.48546" lon="13.40717"><ele>88.0</ele><time>2026-03-22T10:57:24.993Z</time></trkpt><trkpt lat="43.4855033" lon="13.4068717"><ele>88.0</ele><time>2026-03-22T10:57:25.994Z</time></trkpt><trkpt lat="43.4855467" lon="13.4065867"><ele>89.33333333333333</ele><time>2026-03-22T10:57:26.994Z</time></trkpt><trkpt lat="43.4855917" lon="13.40631"><ele>90.66666666666667</ele><time>2026-03-22T10:57:27.995Z</time></trkpt><trkpt lat="43.485635" lon="13.4060467"><ele>92.0</ele><time>2026-03-22T10:57:28.991Z</time></trkpt><trkpt lat="43.4856833" lon="13.4057817"><ele>92.0</ele><time>2026-03-22T10:57:29.993Z</time></trkpt><trkpt lat="43.4857267" lon="13.40552"><ele>92.0</ele><time>2026-03-22T10:57:30.995Z</time></trkpt><trkpt lat="43.4857617" lon="13.405265"><ele>92.0</ele><time>2026-03-22T10:57:31.992Z</time></trkpt><trkpt lat="43.485785" lon="13.4050133"><ele>91.33333333333334</ele><time>2026-03-22T10:57:32.995Z</time></trkpt><trkpt lat="43.4857967" lon="13.4047667"><ele>90.66666666666667</ele><time>2026-03-22T10:57:33.989Z</time></trkpt><trkpt lat="43.485805" lon="13.404525"><ele>90.0</ele><time>2026-03-22T10:57:34.992Z</time></trkpt><trkpt lat="43.485805" lon="13.404285"><ele>90.0</ele><time>2026-03-22T10:57:35.993Z</time></trkpt><trkpt lat="43.4858" lon="13.40405"><ele>90.0</ele><time>2026-03-22T10:57:36.996Z</time></trkpt><trkpt lat="43.4857933" lon="13.4038133"><ele>90.0</ele><time>2026-03-22T10:57:37.993Z</time></trkpt><trkpt lat="43.4857867" lon="13.4035833"><ele>90.0</ele><time>2026-03-22T10:57:38.993Z</time></trkpt><trkpt lat="43.4857833" lon="13.4033583"><ele>90.0</ele><time>2026-03-22T10:57:39.992Z</time></trkpt><trkpt lat="43.4857817" lon="13.40314"><ele>90.0</ele><time>2026-03-22T10:57:40.991Z</time></trkpt><trkpt lat="43.48578" lon="13.402925"><ele>90.33333333333333</ele><time>2026-03-22T10:57:41.992Z</time></trkpt><trkpt lat="43.4857817" lon="13.40271"><ele>90.66666666666666</ele><time>2026-03-22T10:57:42.992Z</time></trkpt><trkpt lat="43.4857783" lon="13.4025"><ele>91.0</ele><time>2026-03-22T10:57:43.995Z</time></trkpt><trkpt lat="43.485775" lon="13.4022883"><ele>91.0</ele><time>2026-03-22T10:57:44.993Z</time></trkpt><trkpt lat="43.4857733" lon="13.4020767"><ele>91.0</ele><time>2026-03-22T10:57:45.995Z</time></trkpt><trkpt lat="43.4857717" lon="13.4018633"><ele>91.0</ele><time>2026-03-22T10:57:46.992Z</time></trkpt><trkpt lat="43.48577" lon="13.4016467"><ele>91.0</ele><time>2026-03-22T10:57:47.992Z</time></trkpt><trkpt lat="43.4857683" lon="13.4014283"><ele>91.0</ele><time>2026-03-22T10:57:48.993Z</time></trkpt><trkpt lat="43.485765" lon="13.40121"><ele>91.0</ele><time>2026-03-22T10:57:49.993Z</time></trkpt><trkpt lat="43.485765" lon="13.4009883"><ele>90.66666666666666</ele><time>2026-03-22T10:57:50.996Z</time></trkpt><trkpt lat="43.4857633" lon="13.40076"><ele>90.33333333333333</ele><time>2026-03-22T10:57:51.992Z</time></trkpt><trkpt lat="43.4857633" lon="13.4005183"><ele>90.0</ele><time>2026-03-22T10:57:52.992Z</time></trkpt><trkpt lat="43.4857633" lon="13.4002567"><ele>90.66666666666667</ele><time>2026-03-22T10:57:53.993Z</time></trkpt><trkpt lat="43.4857633" lon="13.399975"><ele>91.33333333333334</ele><time>2026-03-22T10:57:54.997Z</time></trkpt><trkpt lat="43.4857617" lon="13.3996867"><ele>92.0</ele><time>2026-03-22T10:57:55.994Z</time></trkpt><trkpt lat="43.48576" lon="13.39939"><ele>92.33333333333334</ele><time>2026-03-22T10:57:56.992Z</time></trkpt><trkpt lat="43.48576" lon="13.3990917"><ele>92.66666666666667</ele><time>2026-03-22T10:57:57.991Z</time></trkpt><trkpt lat="43.48576" lon="13.3987917"><ele>93.0</ele><time>2026-03-22T10:57:58.995Z</time></trkpt><trkpt lat="43.485755" lon="13.3984933"><ele>93.0</ele><time>2026-03-22T10:57:59.992Z</time></trkpt><trkpt lat="43.4857517" lon="13.3981933"><ele>93.0</ele><time>2026-03-22T10:58:00.991Z</time></trkpt><trkpt lat="43.4857483" lon="13.3978883"><ele>93.0</ele><time>2026-03-22T10:58:01.992Z</time></trkpt><trkpt lat="43.4857433" lon="13.3975817"><ele>93.5</ele><time>2026-03-22T10:58:02.993Z</time></trkpt><trkpt lat="43.4857367" lon="13.3972717"><ele>94.0</ele><time>2026-03-22T10:58:03.992Z</time></trkpt><trkpt lat="43.48573" lon="13.3969617"><ele>95.5</ele><time>2026-03-22T10:58:04.993Z</time></trkpt><trkpt lat="43.4857233" lon="13.39665"><ele>97.0</ele><time>2026-03-22T10:58:05.992Z</time></trkpt><trkpt lat="43.4857183" lon="13.3963383"><ele>97.5</ele><time>2026-03-22T10:58:06.991Z</time></trkpt><trkpt lat="43.4857133" lon="13.396025"><ele>98.0</ele><time>2026-03-22T10:58:07.993Z</time></trkpt><trkpt lat="43.4857083" lon="13.3957133"><ele>98.66666666666666</ele><time>2026-03-22T10:58:08.995Z</time></trkpt><trkpt lat="43.485705" lon="13.395405"><ele>99.33333333333334</ele><time>2026-03-22T10:58:09.992Z</time></trkpt><trkpt lat="43.4857" lon="13.3950983"><ele>100.0</ele><time>2026-03-22T10:58:10.994Z</time></trkpt><trkpt lat="43.485695" lon="13.3947917"><ele>99.66666666666667</ele><time>2026-03-22T10:58:11.995Z</time></trkpt><trkpt lat="43.48569" lon="13.39449"><ele>99.33333333333334</ele><time>2026-03-22T10:58:12.996Z</time></trkpt><trkpt lat="43.4856833" lon="13.3941883"><ele>99.0</ele><time>2026-03-22T10:58:13.991Z</time></trkpt><trkpt lat="43.48568" lon="13.3938867"><ele>99.33333333333334</ele><time>2026-03-22T10:58:14.996Z</time></trkpt><trkpt lat="43.48568" lon="13.393585"><ele>99.66666666666667</ele><time>2026-03-22T10:58:15.991Z</time></trkpt><trkpt lat="43.4856783" lon="13.39328"><ele>100.0</ele><time>2026-03-22T10:58:16.992Z</time></trkpt><trkpt lat="43.4856783" lon="13.392975"><ele>100.33333333333334</ele><time>2026-03-22T10:58:17.991Z</time></trkpt><trkpt lat="43.485675" lon="13.3926717"><ele>100.66666666666666</ele><time>2026-03-22T10:58:18.991Z</time></trkpt><trkpt lat="43.48567" lon="13.392375"><ele>101.0</ele><time>2026-03-22T10:58:19.993Z</time></trkpt><trkpt lat="43.4856633" lon="13.39209"><ele>101.0</ele><time>2026-03-22T10:58:20.994Z</time></trkpt><trkpt lat="43.4856483" lon="13.3918067"><ele>101.0</ele><time>2026-03-22T10:58:21.991Z</time></trkpt><trkpt lat="43.4856417" lon="13.3915167"><ele>101.0</ele><time>2026-03-22T10:58:22.992Z</time></trkpt><trkpt lat="43.4856367" lon="13.3912233"><ele>101.33333333333333</ele><time>2026-03-22T10:58:23.991Z</time></trkpt><trkpt lat="43.4856317" lon="13.390935"><ele>101.66666666666666</ele><time>2026-03-22T10:58:24.991Z</time></trkpt><trkpt lat="43.4856233" lon="13.3906617"><ele>102.0</ele><time>2026-03-22T10:58:25.991Z</time></trkpt><trkpt lat="43.4856183" lon="13.3904017"><ele>102.0</ele><time>2026-03-22T10:58:26.995Z</time></trkpt><trkpt lat="43.4856133" lon="13.3901417"><ele>102.0</ele><time>2026-03-22T10:58:27.994Z</time></trkpt><trkpt lat="43.4856117" lon="13.3898717"><ele>102.0</ele><time>2026-03-22T10:58:28.994Z</time></trkpt><trkpt lat="43.4856083" lon="13.3895867"><ele>102.0</ele><time>2026-03-22T10:58:29.992Z</time></trkpt><trkpt lat="43.4855983" lon="13.38929"><ele>102.0</ele><time>2026-03-22T10:58:30.994Z</time></trkpt><trkpt lat="43.4855883" lon="13.38898"><ele>102.0</ele><time>2026-03-22T10:58:31.993Z</time></trkpt><trkpt lat="43.4855833" lon="13.388665"><ele>101.5</ele><time>2026-03-22T10:58:32.994Z</time></trkpt><trkpt lat="43.485585" lon="13.3883517"><ele>101.0</ele><time>2026-03-22T10:58:33.995Z</time></trkpt><trkpt lat="43.4855967" lon="13.3880367"><ele>100.0</ele><time>2026-03-22T10:58:34.991Z</time></trkpt><trkpt lat="43.4856083" lon="13.3877233"><ele>99.0</ele><time>2026-03-22T10:58:35.991Z</time></trkpt><trkpt lat="43.48562" lon="13.387415"><ele>98.66666666666666</ele><time>2026-03-22T10:58:36.996Z</time></trkpt><trkpt lat="43.485615" lon="13.3871083"><ele>98.33333333333333</ele><time>2026-03-22T10:58:37.993Z</time></trkpt><trkpt lat="43.4855883" lon="13.3868167"><ele>98.0</ele><time>2026-03-22T10:58:38.993Z</time></trkpt><trkpt lat="43.4855417" lon="13.3865367"><ele>98.0</ele><time>2026-03-22T10:58:39.989Z</time></trkpt><trkpt lat="43.4855083" lon="13.3862483"><ele>98.0</ele><time>2026-03-22T10:58:40.992Z</time></trkpt><trkpt lat="43.4855017" lon="13.385955"><ele>98.0</ele><time>2026-03-22T10:58:41.993Z</time></trkpt><trkpt lat="43.4855133" lon="13.385655"><ele>98.5</ele><time>2026-03-22T10:58:42.993Z</time></trkpt><trkpt lat="43.4855283" lon="13.38534"><ele>99.0</ele><time>2026-03-22T10:58:43.995Z</time></trkpt><trkpt lat="43.485545" lon="13.3850233"><ele>99.0</ele><time>2026-03-22T10:58:44.994Z</time></trkpt><trkpt lat="43.4855533" lon="13.38471"><ele>99.0</ele><time>2026-03-22T10:58:45.992Z</time></trkpt><trkpt lat="43.4855533" lon="13.3843917"><ele>100.0</ele><time>2026-03-22T10:58:46.994Z</time></trkpt><trkpt lat="43.4855533" lon="13.3840733"><ele>101.0</ele><time>2026-03-22T10:58:47.992Z</time></trkpt><trkpt lat="43.4855483" lon="13.3837483"><ele>101.5</ele><time>2026-03-22T10:58:48.993Z</time></trkpt><trkpt lat="43.4855433" lon="13.3834283"><ele>102.0</ele><time>2026-03-22T10:58:49.992Z</time></trkpt><trkpt lat="43.4855367" lon="13.3831233"><ele>102.33333333333334</ele><time>2026-03-22T10:58:50.993Z</time></trkpt><trkpt lat="43.4855367" lon="13.3828217"><ele>102.66666666666667</ele><time>2026-03-22T10:58:51.993Z</time></trkpt><trkpt lat="43.48554" lon="13.38252"><ele>103.0</ele><time>2026-03-22T10:58:52.993Z</time></trkpt><trkpt lat="43.48555" lon="13.3822217"><ele>102.66666666666667</ele><time>2026-03-22T10:58:53.991Z</time></trkpt><trkpt lat="43.4855683" lon="13.3819283"><ele>102.33333333333334</ele><time>2026-03-22T10:58:54.993Z</time></trkpt><trkpt lat="43.4855917" lon="13.3816367"><ele>102.0</ele><time>2026-03-22T10:58:55.993Z</time></trkpt><trkpt lat="43.4856183" lon="13.381355"><ele>102.0</ele><time>2026-03-22T10:58:56.994Z</time></trkpt><trkpt lat="43.485645" lon="13.381085"><ele>102.0</ele><time>2026-03-22T10:58:57.99Z</time></trkpt><trkpt lat="43.48567" lon="13.380825"><ele>102.0</ele><time>2026-03-22T10:58:58.991Z</time></trkpt><trkpt lat="43.485695" lon="13.3805633"><ele>102.33333333333334</ele><time>2026-03-22T10:58:59.991Z</time></trkpt><trkpt lat="43.4857117" lon="13.3803117"><ele>102.66666666666667</ele><time>2026-03-22T10:59:00.994Z</time></trkpt><trkpt lat="43.4857267" lon="13.3800567"><ele>103.0</ele><time>2026-03-22T10:59:01.993Z</time></trkpt><trkpt lat="43.4857483" lon="13.3797983"><ele>102.33333333333334</ele><time>2026-03-22T10:59:02.994Z</time></trkpt><trkpt lat="43.4857717" lon="13.379545"><ele>101.66666666666666</ele><time>2026-03-22T10:59:03.993Z</time></trkpt><trkpt lat="43.485795" lon="13.3792983"><ele>101.0</ele><time>2026-03-22T10:59:04.991Z</time></trkpt><trkpt lat="43.485815" lon="13.3790617"><ele>101.0</ele><time>2026-03-22T10:59:05.991Z</time></trkpt><trkpt lat="43.485835" lon="13.3788267"><ele>101.0</ele><time>2026-03-22T10:59:06.991Z</time></trkpt><trkpt lat="43.4858533" lon="13.3785883"><ele>101.0</ele><time>2026-03-22T10:59:07.995Z</time></trkpt><trkpt lat="43.4858767" lon="13.3783517"><ele>101.0</ele><time>2026-03-22T10:59:08.992Z</time></trkpt><trkpt lat="43.4859" lon="13.3781133"><ele>101.0</ele><time>2026-03-22T10:59:09.989Z</time></trkpt><trkpt lat="43.4859217" lon="13.3778783"><ele>101.0</ele><time>2026-03-22T10:59:10.991Z</time></trkpt><trkpt lat="43.485945" lon="13.37764"><ele>101.0</ele><time>2026-03-22T10:59:11.991Z</time></trkpt><trkpt lat="43.4859683" lon="13.3774033"><ele>101.0</ele><time>2026-03-22T10:59:12.991Z</time></trkpt><trkpt lat="43.48599" lon="13.3771717"><ele>101.0</ele><time>2026-03-22T10:59:13.993Z</time></trkpt><trkpt lat="43.4860117" lon="13.3769417"><ele>101.0</ele><time>2026-03-22T10:59:14.993Z</time></trkpt><trkpt lat="43.4860317" lon="13.3767167"><ele>101.0</ele><time>2026-03-22T10:59:15.99Z</time></trkpt><trkpt lat="43.4860517" lon="13.3764917"><ele>101.0</ele><time>2026-03-22T10:59:16.992Z</time></trkpt><trkpt lat="43.4860717" lon="13.3762633"><ele>100.66666666666666</ele><time>2026-03-22T10:59:17.995Z</time></trkpt><trkpt lat="43.4860917" lon="13.37603"><ele>100.33333333333334</ele><time>2026-03-22T10:59:18.992Z</time></trkpt><trkpt lat="43.486115" lon="13.3757917"><ele>100.0</ele><time>2026-03-22T10:59:19.992Z</time></trkpt><trkpt lat="43.4861383" lon="13.3755467"><ele>100.33333333333334</ele><time>2026-03-22T10:59:20.995Z</time></trkpt><trkpt lat="43.4861617" lon="13.3752933"><ele>100.66666666666666</ele><time>2026-03-22T10:59:21.995Z</time></trkpt><trkpt lat="43.486185" lon="13.375035"><ele>101.0</ele><time>2026-03-22T10:59:22.994Z</time></trkpt><trkpt lat="43.48621" lon="13.3747717"><ele>101.66666666666666</ele><time>2026-03-22T10:59:23.993Z</time></trkpt><trkpt lat="43.4862367" lon="13.3745017"><ele>102.33333333333334</ele><time>2026-03-22T10:59:24.993Z</time></trkpt><trkpt lat="43.4862633" lon="13.374235"><ele>103.0</ele><time>2026-03-22T10:59:25.993Z</time></trkpt><trkpt lat="43.4862933" lon="13.3739733"><ele>106.0</ele><time>2026-03-22T10:59:26.991Z</time></trkpt><trkpt lat="43.4863183" lon="13.37372"><ele>109.0</ele><time>2026-03-22T10:59:27.994Z</time></trkpt><trkpt lat="43.486325" lon="13.373475"><ele>112.0</ele><time>2026-03-22T10:59:28.991Z</time></trkpt><trkpt lat="43.48631" lon="13.3732317"><ele>112.0</ele><time>2026-03-22T10:59:29.992Z</time></trkpt><trkpt lat="43.4862717" lon="13.3729883"><ele>112.0</ele><time>2026-03-22T10:59:30.992Z</time></trkpt><trkpt lat="43.4862083" lon="13.3727283"><ele>112.0</ele><time>2026-03-22T10:59:31.992Z</time></trkpt><trkpt lat="43.4861367" lon="13.3724433"><ele>109.0</ele><time>2026-03-22T10:59:32.99Z</time></trkpt><trkpt lat="43.4860583" lon="13.3721283"><ele>106.0</ele><time>2026-03-22T10:59:33.992Z</time></trkpt><trkpt lat="43.4859867" lon="13.3717867"><ele>106.0</ele><time>2026-03-22T10:59:34.992Z</time></trkpt><trkpt lat="43.48592" lon="13.37144"><ele>106.0</ele><time>2026-03-22T10:59:35.993Z</time></trkpt><trkpt lat="43.4858617" lon="13.3711017"><ele>105.5</ele><time>2026-03-22T10:59:36.992Z</time></trkpt><trkpt lat="43.4858033" lon="13.3707833"><ele>105.0</ele><time>2026-03-22T10:59:37.992Z</time></trkpt><trkpt lat="43.4857483" lon="13.37047"><ele>105.0</ele><time>2026-03-22T10:59:39.002Z</time></trkpt><trkpt lat="43.4856917" lon="13.3701733"><ele>105.0</ele><time>2026-03-22T10:59:39.991Z</time></trkpt><trkpt lat="43.485635" lon="13.3698967"><ele>105.0</ele><time>2026-03-22T10:59:40.99Z</time></trkpt><trkpt lat="43.4855817" lon="13.3696333"><ele>105.33333333333334</ele><time>2026-03-22T10:59:41.992Z</time></trkpt><trkpt lat="43.4855317" lon="13.369385"><ele>105.66666666666667</ele><time>2026-03-22T10:59:42.994Z</time></trkpt><trkpt lat="43.4854833" lon="13.369145"><ele>106.0</ele><time>2026-03-22T10:59:43.991Z</time></trkpt><trkpt lat="43.4854233" lon="13.3688917"><ele>105.5</ele><time>2026-03-22T10:59:44.993Z</time></trkpt><trkpt lat="43.4853533" lon="13.3686033"><ele>105.0</ele><time>2026-03-22T10:59:45.991Z</time></trkpt><trkpt lat="43.48529" lon="13.3682867"><ele>106.0</ele><time>2026-03-22T10:59:46.99Z</time></trkpt><trkpt lat="43.4852383" lon="13.3679483"><ele>107.0</ele><time>2026-03-22T10:59:47.992Z</time></trkpt><trkpt lat="43.485195" lon="13.36761"><ele>107.0</ele><time>2026-03-22T10:59:48.994Z</time></trkpt><trkpt lat="43.4851567" lon="13.3672817"><ele>107.0</ele><time>2026-03-22T10:59:49.994Z</time></trkpt><trkpt lat="43.485125" lon="13.3669633"><ele>107.33333333333333</ele><time>2026-03-22T10:59:50.994Z</time></trkpt><trkpt lat="43.4851083" lon="13.3666583"><ele>107.66666666666666</ele><time>2026-03-22T10:59:51.99Z</time></trkpt><trkpt lat="43.4850983" lon="13.366365"><ele>108.0</ele><time>2026-03-22T10:59:52.992Z</time></trkpt><trkpt lat="43.48509" lon="13.36609"><ele>109.0</ele><time>2026-03-22T10:59:53.993Z</time></trkpt><trkpt lat="43.48508" lon="13.3658367"><ele>110.0</ele><time>2026-03-22T10:59:54.992Z</time></trkpt><trkpt lat="43.4850683" lon="13.3655967"><ele>111.0</ele><time>2026-03-22T10:59:55.991Z</time></trkpt><trkpt lat="43.485045" lon="13.3653783"><ele>111.33333333333334</ele><time>2026-03-22T10:59:56.996Z</time></trkpt><trkpt lat="43.4850067" lon="13.3651667"><ele>111.66666666666667</ele><time>2026-03-22T10:59:57.994Z</time></trkpt><trkpt lat="43.4849517" lon="13.3649567"><ele>112.0</ele><time>2026-03-22T10:59:58.994Z</time></trkpt><trkpt lat="43.4848883" lon="13.3647467"><ele>112.0</ele><time>2026-03-22T10:59:59.995Z</time></trkpt><trkpt lat="43.4848217" lon="13.3645333"><ele>112.0</ele><time>2026-03-22T11:00:00.994Z</time></trkpt><trkpt lat="43.484755" lon="13.364315"><ele>112.0</ele><time>2026-03-22T11:00:01.991Z</time></trkpt><trkpt lat="43.4846867" lon="13.36409"><ele>112.0</ele><time>2026-03-22T11:00:02.991Z</time></trkpt><trkpt lat="43.4846183" lon="13.363865"><ele>112.0</ele><time>2026-03-22T11:00:03.991Z</time></trkpt><trkpt lat="43.484545" lon="13.36364"><ele>112.0</ele><time>2026-03-22T11:00:04.995Z</time></trkpt><trkpt lat="43.4844683" lon="13.3634133"><ele>111.66666666666667</ele><time>2026-03-22T11:00:05.991Z</time></trkpt><trkpt lat="43.484395" lon="13.3631883"><ele>111.33333333333334</ele><time>2026-03-22T11:00:06.99Z</time></trkpt><trkpt lat="43.4843267" lon="13.3629733"><ele>111.0</ele><time>2026-03-22T11:00:07.994Z</time></trkpt><trkpt lat="43.4842617" lon="13.3627667"><ele>111.0</ele><time>2026-03-22T11:00:08.994Z</time></trkpt><trkpt lat="43.4842017" lon="13.3625633"><ele>111.0</ele><time>2026-03-22T11:00:09.993Z</time></trkpt><trkpt lat="43.48414" lon="13.3623583"><ele>111.0</ele><time>2026-03-22T11:00:10.992Z</time></trkpt><trkpt lat="43.4840767" lon="13.3621617"><ele>111.0</ele><time>2026-03-22T11:00:11.994Z</time></trkpt><trkpt lat="43.484015" lon="13.3619717"><ele>111.0</ele><time>2026-03-22T11:00:12.993Z</time></trkpt><trkpt lat="43.4839533" lon="13.3617817"><ele>111.0</ele><time>2026-03-22T11:00:13.992Z</time></trkpt><trkpt lat="43.4838917" lon="13.3615833"><ele>111.0</ele><time>2026-03-22T11:00:14.993Z</time></trkpt><trkpt lat="43.48383" lon="13.3613817"><ele>111.0</ele><time>2026-03-22T11:00:15.991Z</time></trkpt><trkpt lat="43.4837717" lon="13.36119"><ele>111.0</ele><time>2026-03-22T11:00:16.992Z</time></trkpt><trkpt lat="43.4837167" lon="13.3609883"><ele>110.66666666666666</ele><time>2026-03-22T11:00:17.993Z</time></trkpt><trkpt lat="43.483655" lon="13.360785"><ele>110.33333333333333</ele><time>2026-03-22T11:00:18.998Z</time></trkpt><trkpt lat="43.4835817" lon="13.3605833"><ele>110.0</ele><time>2026-03-22T11:00:19.993Z</time></trkpt><trkpt lat="43.4834967" lon="13.3603817"><ele>110.0</ele><time>2026-03-22T11:00:20.991Z</time></trkpt><trkpt lat="43.4834" lon="13.3601867"><ele>110.0</ele><time>2026-03-22T11:00:21.989Z</time></trkpt><trkpt lat="43.4832933" lon="13.3600033"><ele>110.0</ele><time>2026-03-22T11:00:22.992Z</time></trkpt><trkpt lat="43.483185" lon="13.3598233"><ele>110.33333333333333</ele><time>2026-03-22T11:00:23.991Z</time></trkpt><trkpt lat="43.483075" lon="13.35964"><ele>110.66666666666666</ele><time>2026-03-22T11:00:24.992Z</time></trkpt><trkpt lat="43.4829733" lon="13.3594583"><ele>111.0</ele><time>2026-03-22T11:00:25.993Z</time></trkpt><trkpt lat="43.4828717" lon="13.359285"><ele>111.0</ele><time>2026-03-22T11:00:26.995Z</time></trkpt><trkpt lat="43.4827733" lon="13.35911"><ele>111.0</ele><time>2026-03-22T11:00:27.993Z</time></trkpt><trkpt lat="43.482685" lon="13.35893"><ele>111.0</ele><time>2026-03-22T11:00:28.993Z</time></trkpt><trkpt lat="43.4826117" lon="13.3587383"><ele>111.0</ele><time>2026-03-22T11:00:29.993Z</time></trkpt><trkpt lat="43.482555" lon="13.35854"><ele>111.0</ele><time>2026-03-22T11:00:30.993Z</time></trkpt><trkpt lat="43.48251" lon="13.3583483"><ele>111.0</ele><time>2026-03-22T11:00:31.993Z</time></trkpt><trkpt lat="43.4824667" lon="13.358165"><ele>111.0</ele><time>2026-03-22T11:00:32.994Z</time></trkpt><trkpt lat="43.4824283" lon="13.3579833"><ele>110.75</ele><time>2026-03-22T11:00:33.991Z</time></trkpt><trkpt lat="43.4823917" lon="13.3577917"><ele>110.5</ele><time>2026-03-22T11:00:34.994Z</time></trkpt><trkpt lat="43.4823583" lon="13.3575933"><ele>110.25</ele><time>2026-03-22T11:00:35.993Z</time></trkpt><trkpt lat="43.4823417" lon="13.3573917"><ele>110.0</ele><time>2026-03-22T11:00:36.991Z</time></trkpt><trkpt lat="43.4823433" lon="13.35719"><ele>110.66666666666666</ele><time>2026-03-22T11:00:37.996Z</time></trkpt><trkpt lat="43.4823633" lon="13.3569717"><ele>111.33333333333334</ele><time>2026-03-22T11:00:38.99Z</time></trkpt><trkpt lat="43.482395" lon="13.3567217"><ele>112.0</ele><time>2026-03-22T11:00:39.99Z</time></trkpt><trkpt lat="43.48245" lon="13.356435"><ele>113.0</ele><time>2026-03-22T11:00:40.99Z</time></trkpt><trkpt lat="43.4825183" lon="13.3561083"><ele>114.0</ele><time>2026-03-22T11:00:41.989Z</time></trkpt><trkpt lat="43.482595" lon="13.3557517"><ele>115.0</ele><time>2026-03-22T11:00:42.995Z</time></trkpt><trkpt lat="43.482675" lon="13.3553933"><ele>116.0</ele><time>2026-03-22T11:00:43.992Z</time></trkpt><trkpt lat="43.4827583" lon="13.3550233"><ele>117.0</ele><time>2026-03-22T11:00:44.994Z</time></trkpt><trkpt lat="43.4828333" lon="13.3546583"><ele>118.0</ele><time>2026-03-22T11:00:45.992Z</time></trkpt><trkpt lat="43.4828967" lon="13.3543117"><ele>120.0</ele><time>2026-03-22T11:00:46.992Z</time></trkpt><trkpt lat="43.4829567" lon="13.3539833"><ele>122.0</ele><time>2026-03-22T11:00:47.995Z</time></trkpt><trkpt lat="43.483005" lon="13.3536733"><ele>122.66666666666666</ele><time>2026-03-22T11:00:48.989Z</time></trkpt><trkpt lat="43.4830333" lon="13.353375"><ele>123.33333333333334</ele><time>2026-03-22T11:00:49.994Z</time></trkpt><trkpt lat="43.4830233" lon="13.3530717"><ele>124.0</ele><time>2026-03-22T11:00:50.993Z</time></trkpt><trkpt lat="43.4829783" lon="13.3527567"><ele>122.0</ele><time>2026-03-22T11:00:51.992Z</time></trkpt><trkpt lat="43.4828983" lon="13.3524267"><ele>120.0</ele><time>2026-03-22T11:00:52.992Z</time></trkpt><trkpt lat="43.4828283" lon="13.3521033"><ele>120.0</ele><time>2026-03-22T11:00:53.993Z</time></trkpt><trkpt lat="43.48276" lon="13.3517817"><ele>120.0</ele><time>2026-03-22T11:00:54.993Z</time></trkpt><trkpt lat="43.4826733" lon="13.351475"><ele>121.5</ele><time>2026-03-22T11:00:55.99Z</time></trkpt><trkpt lat="43.4825467" lon="13.3511867"><ele>123.0</ele><time>2026-03-22T11:00:56.998Z</time></trkpt><trkpt lat="43.4823867" lon="13.350915"><ele>123.0</ele><time>2026-03-22T11:00:57.99Z</time></trkpt><trkpt lat="43.4822033" lon="13.3506533"><ele>123.0</ele><time>2026-03-22T11:00:58.992Z</time></trkpt><trkpt lat="43.4820083" lon="13.350395"><ele>121.5</ele><time>2026-03-22T11:00:59.995Z</time></trkpt><trkpt lat="43.4818167" lon="13.3501317"><ele>120.0</ele><time>2026-03-22T11:01:00.996Z</time></trkpt><trkpt lat="43.4816333" lon="13.3498617"><ele>121.5</ele><time>2026-03-22T11:01:01.994Z</time></trkpt><trkpt lat="43.4814633" lon="13.3495833"><ele>123.0</ele><time>2026-03-22T11:01:02.991Z</time></trkpt><trkpt lat="43.4813033" lon="13.349295"><ele>121.0</ele><time>2026-03-22T11:01:03.994Z</time></trkpt><trkpt lat="43.4811483" lon="13.3489967"><ele>119.0</ele><time>2026-03-22T11:01:04.994Z</time></trkpt><trkpt lat="43.480995" lon="13.3487"><ele>119.0</ele><time>2026-03-22T11:01:05.993Z</time></trkpt><trkpt lat="43.4808367" lon="13.3484033"><ele>119.0</ele><time>2026-03-22T11:01:06.995Z</time></trkpt><trkpt lat="43.480675" lon="13.3481067"><ele>119.5</ele><time>2026-03-22T11:01:07.991Z</time></trkpt><trkpt lat="43.4805083" lon="13.3478017"><ele>120.0</ele><time>2026-03-22T11:01:08.996Z</time></trkpt><trkpt lat="43.4803467" lon="13.3474983"><ele>121.0</ele><time>2026-03-22T11:01:09.992Z</time></trkpt><trkpt lat="43.4801883" lon="13.3471917"><ele>122.0</ele><time>2026-03-22T11:01:10.992Z</time></trkpt><trkpt lat="43.480035" lon="13.3468883"><ele>122.0</ele><time>2026-03-22T11:01:11.993Z</time></trkpt><trkpt lat="43.4798783" lon="13.3465983"><ele>122.0</ele><time>2026-03-22T11:01:12.995Z</time></trkpt><trkpt lat="43.4797333" lon="13.3463"><ele>122.0</ele><time>2026-03-22T11:01:13.99Z</time></trkpt><trkpt lat="43.4795983" lon="13.3459933"><ele>122.0</ele><time>2026-03-22T11:01:14.997Z</time></trkpt><trkpt lat="43.47948" lon="13.34567"><ele>122.5</ele><time>2026-03-22T11:01:15.992Z</time></trkpt><trkpt lat="43.4793717" lon="13.3453367"><ele>123.0</ele><time>2026-03-22T11:01:16.989Z</time></trkpt><trkpt lat="43.47927" lon="13.3449967"><ele>122.0</ele><time>2026-03-22T11:01:17.994Z</time></trkpt><trkpt lat="43.4791767" lon="13.3446533"><ele>121.0</ele><time>2026-03-22T11:01:18.991Z</time></trkpt><trkpt lat="43.4790917" lon="13.3443017"><ele>121.0</ele><time>2026-03-22T11:01:19.992Z</time></trkpt><trkpt lat="43.479015" lon="13.3439483"><ele>121.0</ele><time>2026-03-22T11:01:20.993Z</time></trkpt><trkpt lat="43.4789367" lon="13.3435917"><ele>121.0</ele><time>2026-03-22T11:01:21.991Z</time></trkpt><trkpt lat="43.47886" lon="13.343235"><ele>121.0</ele><time>2026-03-22T11:01:22.993Z</time></trkpt><trkpt lat="43.4787833" lon="13.3428767"><ele>121.0</ele><time>2026-03-22T11:01:23.992Z</time></trkpt><trkpt lat="43.4787017" lon="13.3425117"><ele>121.0</ele><time>2026-03-22T11:01:24.992Z</time></trkpt><trkpt lat="43.4786217" lon="13.3421533"><ele>121.0</ele><time>2026-03-22T11:01:25.992Z</time></trkpt><trkpt lat="43.4785433" lon="13.3418017"><ele>121.0</ele><time>2026-03-22T11:01:26.998Z</time></trkpt><trkpt lat="43.4784567" lon="13.3414633"><ele>122.0</ele><time>2026-03-22T11:01:27.992Z</time></trkpt><trkpt lat="43.4783767" lon="13.3411433"><ele>123.0</ele><time>2026-03-22T11:01:28.991Z</time></trkpt><trkpt lat="43.4782917" lon="13.34083"><ele>124.5</ele><time>2026-03-22T11:01:29.992Z</time></trkpt><trkpt lat="43.4782" lon="13.3405183"><ele>126.0</ele><time>2026-03-22T11:01:30.996Z</time></trkpt><trkpt lat="43.4780933" lon="13.3402067"><ele>126.0</ele><time>2026-03-22T11:01:31.992Z</time></trkpt><trkpt lat="43.4779717" lon="13.3398967"><ele>126.0</ele><time>2026-03-22T11:01:32.994Z</time></trkpt><trkpt lat="43.4778467" lon="13.3395817"><ele>123.5</ele><time>2026-03-22T11:01:33.991Z</time></trkpt><trkpt lat="43.4777217" lon="13.3392633"><ele>121.0</ele><time>2026-03-22T11:01:34.992Z</time></trkpt><trkpt lat="43.4775933" lon="13.3389467"><ele>121.0</ele><time>2026-03-22T11:01:35.994Z</time></trkpt><trkpt lat="43.4774683" lon="13.3386283"><ele>121.0</ele><time>2026-03-22T11:01:36.993Z</time></trkpt><trkpt lat="43.47734" lon="13.3383133"><ele>123.0</ele><time>2026-03-22T11:01:37.993Z</time></trkpt><trkpt lat="43.4772183" lon="13.3379967"><ele>125.0</ele><time>2026-03-22T11:01:38.993Z</time></trkpt><trkpt lat="43.4770967" lon="13.33768"><ele>125.0</ele><time>2026-03-22T11:01:39.99Z</time></trkpt><trkpt lat="43.4769767" lon="13.33736"><ele>125.0</ele><time>2026-03-22T11:01:40.997Z</time></trkpt><trkpt lat="43.4768633" lon="13.3370417"><ele>125.0</ele><time>2026-03-22T11:01:41.993Z</time></trkpt><trkpt lat="43.4767517" lon="13.33672"><ele>125.0</ele><time>2026-03-22T11:01:42.994Z</time></trkpt><trkpt lat="43.47664" lon="13.3363967"><ele>126.0</ele><time>2026-03-22T11:01:43.999Z</time></trkpt><trkpt lat="43.47653" lon="13.336075"><ele>127.0</ele><time>2026-03-22T11:01:44.989Z</time></trkpt><trkpt lat="43.476415" lon="13.3357483"><ele>128.5</ele><time>2026-03-22T11:01:45.991Z</time></trkpt><trkpt lat="43.4762967" lon="13.3354267"><ele>130.0</ele><time>2026-03-22T11:01:46.99Z</time></trkpt><trkpt lat="43.4761817" lon="13.33512"><ele>128.0</ele><time>2026-03-22T11:01:47.994Z</time></trkpt><trkpt lat="43.4760533" lon="13.3348067"><ele>126.0</ele><time>2026-03-22T11:01:48.997Z</time></trkpt><trkpt lat="43.47592" lon="13.3344933"><ele>126.0</ele><time>2026-03-22T11:01:49.992Z</time></trkpt><trkpt lat="43.4758" lon="13.3341933"><ele>126.0</ele><time>2026-03-22T11:01:50.992Z</time></trkpt><trkpt lat="43.4756817" lon="13.3339"><ele>128.0</ele><time>2026-03-22T11:01:51.994Z</time></trkpt><trkpt lat="43.47557" lon="13.3336067"><ele>130.0</ele><time>2026-03-22T11:01:52.991Z</time></trkpt><trkpt lat="43.4754683" lon="13.3333033"><ele>127.0</ele><time>2026-03-22T11:01:53.992Z</time></trkpt><trkpt lat="43.4753733" lon="13.3329783"><ele>124.0</ele><time>2026-03-22T11:01:54.992Z</time></trkpt><trkpt lat="43.47528" lon="13.3326517"><ele>124.0</ele><time>2026-03-22T11:01:55.994Z</time></trkpt><trkpt lat="43.475185" lon="13.3323217"><ele>124.0</ele><time>2026-03-22T11:01:56.993Z</time></trkpt><trkpt lat="43.4750833" lon="13.3319917"><ele>125.0</ele><time>2026-03-22T11:01:57.992Z</time></trkpt><trkpt lat="43.474975" lon="13.3316633"><ele>126.0</ele><time>2026-03-22T11:01:58.994Z</time></trkpt><trkpt lat="43.474855" lon="13.33134"><ele>126.5</ele><time>2026-03-22T11:01:59.992Z</time></trkpt><trkpt lat="43.474725" lon="13.331025"><ele>127.0</ele><time>2026-03-22T11:02:00.996Z</time></trkpt><trkpt lat="43.474585" lon="13.3307017"><ele>128.0</ele><time>2026-03-22T11:02:01.994Z</time></trkpt><trkpt lat="43.4744533" lon="13.33038"><ele>129.0</ele><time>2026-03-22T11:02:02.996Z</time></trkpt><trkpt lat="43.4743317" lon="13.3300617"><ele>129.0</ele><time>2026-03-22T11:02:03.993Z</time></trkpt><trkpt lat="43.4742317" lon="13.3297383"><ele>129.0</ele><time>2026-03-22T11:02:04.995Z</time></trkpt><trkpt lat="43.47415" lon="13.3294033"><ele>130.0</ele><time>2026-03-22T11:02:05.993Z</time></trkpt><trkpt lat="43.4740817" lon="13.3290733"><ele>131.0</ele><time>2026-03-22T11:02:06.995Z</time></trkpt><trkpt lat="43.4740217" lon="13.32877"><ele>132.0</ele><time>2026-03-22T11:02:07.993Z</time></trkpt><trkpt lat="43.4739767" lon="13.328485"><ele>133.0</ele><time>2026-03-22T11:02:08.993Z</time></trkpt><trkpt lat="43.4739483" lon="13.328195"><ele>134.0</ele><time>2026-03-22T11:02:09.989Z</time></trkpt><trkpt lat="43.4739383" lon="13.3278917"><ele>135.0</ele><time>2026-03-22T11:02:10.99Z</time></trkpt><trkpt lat="43.4739383" lon="13.3275733"><ele>136.0</ele><time>2026-03-22T11:02:11.995Z</time></trkpt><trkpt lat="43.473945" lon="13.3272417"><ele>137.0</ele><time>2026-03-22T11:02:12.996Z</time></trkpt><trkpt lat="43.4739533" lon="13.3269033"><ele>138.0</ele><time>2026-03-22T11:02:13.995Z</time></trkpt><trkpt lat="43.4739617" lon="13.3265617"><ele>138.5</ele><time>2026-03-22T11:02:14.996Z</time></trkpt><trkpt lat="43.4739683" lon="13.3262233"><ele>139.0</ele><time>2026-03-22T11:02:15.994Z</time></trkpt><trkpt lat="43.47397" lon="13.3258933"><ele>139.0</ele><time>2026-03-22T11:02:16.997Z</time></trkpt><trkpt lat="43.4739567" lon="13.3255667"><ele>139.0</ele><time>2026-03-22T11:02:17.995Z</time></trkpt><trkpt lat="43.4739083" lon="13.3252367"><ele>140.0</ele><time>2026-03-22T11:02:18.993Z</time></trkpt><trkpt lat="43.47384" lon="13.3249283"><ele>141.0</ele><time>2026-03-22T11:02:19.993Z</time></trkpt><trkpt lat="43.4737633" lon="13.3246317"><ele>141.66666666666666</ele><time>2026-03-22T11:02:20.994Z</time></trkpt><trkpt lat="43.4736917" lon="13.3243433"><ele>142.33333333333331</ele><time>2026-03-22T11:02:21.992Z</time></trkpt><trkpt lat="43.4736167" lon="13.3240567"><ele>143.0</ele><time>2026-03-22T11:02:22.992Z</time></trkpt><trkpt lat="43.4735317" lon="13.32377"><ele>145.0</ele><time>2026-03-22T11:02:23.992Z</time></trkpt><trkpt lat="43.4734317" lon="13.3234817"><ele>147.0</ele><time>2026-03-22T11:02:24.991Z</time></trkpt><trkpt lat="43.473325" lon="13.3231917"><ele>148.5</ele><time>2026-03-22T11:02:25.994Z</time></trkpt><trkpt lat="43.4732233" lon="13.3228933"><ele>150.0</ele><time>2026-03-22T11:02:26.995Z</time></trkpt><trkpt lat="43.4731367" lon="13.3225867"><ele>150.0</ele><time>2026-03-22T11:02:27.99Z</time></trkpt><trkpt lat="43.4730733" lon="13.322275"><ele>150.0</ele><time>2026-03-22T11:02:28.992Z</time></trkpt><trkpt lat="43.4730183" lon="13.321955"><ele>150.0</ele><time>2026-03-22T11:02:29.992Z</time></trkpt><trkpt lat="43.47298" lon="13.3216233"><ele>150.0</ele><time>2026-03-22T11:02:30.991Z</time></trkpt><trkpt lat="43.47294" lon="13.321295"><ele>147.66666666666666</ele><time>2026-03-22T11:02:31.992Z</time></trkpt><trkpt lat="43.4729" lon="13.3209833"><ele>145.33333333333331</ele><time>2026-03-22T11:02:32.994Z</time></trkpt><trkpt lat="43.4728667" lon="13.3206867"><ele>143.0</ele><time>2026-03-22T11:02:33.992Z</time></trkpt><trkpt lat="43.4728333" lon="13.3204067"><ele>143.0</ele><time>2026-03-22T11:02:34.991Z</time></trkpt><trkpt lat="43.472795" lon="13.3201383"><ele>143.0</ele><time>2026-03-22T11:02:35.993Z</time></trkpt><trkpt lat="43.4727333" lon="13.31988"><ele>143.0</ele><time>2026-03-22T11:02:36.994Z</time></trkpt><trkpt lat="43.4726467" lon="13.31964"><ele>143.66666666666666</ele><time>2026-03-22T11:02:37.993Z</time></trkpt><trkpt lat="43.47255" lon="13.3194183"><ele>144.33333333333334</ele><time>2026-03-22T11:02:38.991Z</time></trkpt><trkpt lat="43.4724733" lon="13.31919"><ele>145.0</ele><time>2026-03-22T11:02:39.989Z</time></trkpt><trkpt lat="43.4724133" lon="13.3189567"><ele>144.33333333333334</ele><time>2026-03-22T11:02:40.991Z</time></trkpt><trkpt lat="43.4723983" lon="13.3187317"><ele>143.66666666666666</ele><time>2026-03-22T11:02:41.992Z</time></trkpt><trkpt lat="43.4723983" lon="13.3185167"><ele>143.0</ele><time>2026-03-22T11:02:42.995Z</time></trkpt><trkpt lat="43.47241" lon="13.3183083"><ele>143.0</ele><time>2026-03-22T11:02:43.991Z</time></trkpt><trkpt lat="43.47241" lon="13.3181067"><ele>143.0</ele><time>2026-03-22T11:02:44.985Z</time></trkpt><trkpt lat="43.4723917" lon="13.3179167"><ele>143.0</ele><time>2026-03-22T11:02:45.995Z</time></trkpt><trkpt lat="43.4723333" lon="13.3177367"><ele>143.0</ele><time>2026-03-22T11:02:46.988Z</time></trkpt><trkpt lat="43.4722333" lon="13.317565"><ele>142.66666666666666</ele><time>2026-03-22T11:02:47.989Z</time></trkpt><trkpt lat="43.4720933" lon="13.3174033"><ele>142.33333333333334</ele><time>2026-03-22T11:02:48.991Z</time></trkpt><trkpt lat="43.4719517" lon="13.3172183"><ele>142.0</ele><time>2026-03-22T11:02:49.991Z</time></trkpt><trkpt lat="43.4718383" lon="13.317005"><ele>142.0</ele><time>2026-03-22T11:02:50.993Z</time></trkpt><trkpt lat="43.47176" lon="13.31677"><ele>142.0</ele><time>2026-03-22T11:02:51.991Z</time></trkpt><trkpt lat="43.4717017" lon="13.3165217"><ele>142.0</ele><time>2026-03-22T11:02:52.991Z</time></trkpt><trkpt lat="43.47167" lon="13.31628"><ele>142.33333333333334</ele><time>2026-03-22T11:02:53.992Z</time></trkpt><trkpt lat="43.4716333" lon="13.3160567"><ele>142.66666666666666</ele><time>2026-03-22T11:02:54.99Z</time></trkpt><trkpt lat="43.4715817" lon="13.31585"><ele>143.0</ele><time>2026-03-22T11:02:55.992Z</time></trkpt><trkpt lat="43.4715133" lon="13.3156483"><ele>142.66666666666666</ele><time>2026-03-22T11:02:56.992Z</time></trkpt><trkpt lat="43.471435" lon="13.3154617"><ele>142.33333333333334</ele><time>2026-03-22T11:02:57.991Z</time></trkpt><trkpt lat="43.4713467" lon="13.3152883"><ele>142.0</ele><time>2026-03-22T11:02:58.992Z</time></trkpt><trkpt lat="43.471255" lon="13.3151317"><ele>141.25</ele><time>2026-03-22T11:02:59.99Z</time></trkpt><trkpt lat="43.47117" lon="13.3149833"><ele>140.5</ele><time>2026-03-22T11:03:00.992Z</time></trkpt><trkpt lat="43.4711017" lon="13.3148367"><ele>139.75</ele><time>2026-03-22T11:03:01.991Z</time></trkpt><trkpt lat="43.4710517" lon="13.31469"><ele>139.0</ele><time>2026-03-22T11:03:02.993Z</time></trkpt><trkpt lat="43.471005" lon="13.31455"><ele>138.75</ele><time>2026-03-22T11:03:03.992Z</time></trkpt><trkpt lat="43.4709317" lon="13.3144367"><ele>138.5</ele><time>2026-03-22T11:03:04.992Z</time></trkpt><trkpt lat="43.47084" lon="13.3143283"><ele>138.25</ele><time>2026-03-22T11:03:05.991Z</time></trkpt><trkpt lat="43.470735" lon="13.3141833"><ele>138.0</ele><time>2026-03-22T11:03:06.991Z</time></trkpt><trkpt lat="43.470615" lon="13.3139883"><ele>138.66666666666666</ele><time>2026-03-22T11:03:07.992Z</time></trkpt><trkpt lat="43.470485" lon="13.31377"><ele>139.33333333333331</ele><time>2026-03-22T11:03:08.994Z</time></trkpt><trkpt lat="43.4703533" lon="13.3135333"><ele>140.0</ele><time>2026-03-22T11:03:09.989Z</time></trkpt><trkpt lat="43.47021" lon="13.3132917"><ele>141.0</ele><time>2026-03-22T11:03:10.989Z</time></trkpt><trkpt lat="43.47007" lon="13.3130433"><ele>142.0</ele><time>2026-03-22T11:03:11.994Z</time></trkpt><trkpt lat="43.469925" lon="13.3127833"><ele>142.0</ele><time>2026-03-22T11:03:12.991Z</time></trkpt><trkpt lat="43.4697783" lon="13.3125117"><ele>142.0</ele><time>2026-03-22T11:03:13.991Z</time></trkpt><trkpt lat="43.4696333" lon="13.3122283"><ele>141.5</ele><time>2026-03-22T11:03:14.992Z</time></trkpt><trkpt lat="43.469495" lon="13.3119467"><ele>141.0</ele><time>2026-03-22T11:03:15.992Z</time></trkpt><trkpt lat="43.4693683" lon="13.31168"><ele>141.0</ele><time>2026-03-22T11:03:16.991Z</time></trkpt><trkpt lat="43.469245" lon="13.3114233"><ele>141.0</ele><time>2026-03-22T11:03:17.99Z</time></trkpt><trkpt lat="43.4691183" lon="13.3111633"><ele>141.5</ele><time>2026-03-22T11:03:18.994Z</time></trkpt><trkpt lat="43.468985" lon="13.3108933"><ele>142.0</ele><time>2026-03-22T11:03:19.993Z</time></trkpt><trkpt lat="43.46885" lon="13.3106183"><ele>141.5</ele><time>2026-03-22T11:03:20.991Z</time></trkpt><trkpt lat="43.46872" lon="13.3103367"><ele>141.0</ele><time>2026-03-22T11:03:21.992Z</time></trkpt><trkpt lat="43.4686067" lon="13.310045"><ele>141.0</ele><time>2026-03-22T11:03:22.993Z</time></trkpt><trkpt lat="43.4685083" lon="13.3097383"><ele>141.0</ele><time>2026-03-22T11:03:23.99Z</time></trkpt><trkpt lat="43.468425" lon="13.309425"><ele>141.0</ele><time>2026-03-22T11:03:24.992Z</time></trkpt><trkpt lat="43.4683483" lon="13.3091033"><ele>141.0</ele><time>2026-03-22T11:03:25.99Z</time></trkpt><trkpt lat="43.4682817" lon="13.308785"><ele>142.0</ele><time>2026-03-22T11:03:26.991Z</time></trkpt><trkpt lat="43.4682233" lon="13.308485"><ele>143.0</ele><time>2026-03-22T11:03:27.992Z</time></trkpt><trkpt lat="43.468175" lon="13.3082017"><ele>144.0</ele><time>2026-03-22T11:03:28.991Z</time></trkpt><trkpt lat="43.46813" lon="13.3079367"><ele>145.33333333333334</ele><time>2026-03-22T11:03:29.993Z</time></trkpt><trkpt lat="43.4680917" lon="13.3076817"><ele>146.66666666666669</ele><time>2026-03-22T11:03:30.994Z</time></trkpt><trkpt lat="43.4680567" lon="13.3074333"><ele>148.0</ele><time>2026-03-22T11:03:31.991Z</time></trkpt><trkpt lat="43.468025" lon="13.3071817"><ele>148.66666666666669</ele><time>2026-03-22T11:03:32.996Z</time></trkpt><trkpt lat="43.4679967" lon="13.3069267"><ele>149.33333333333334</ele><time>2026-03-22T11:03:33.992Z</time></trkpt><trkpt lat="43.46797" lon="13.3066767"><ele>150.0</ele><time>2026-03-22T11:03:34.99Z</time></trkpt><trkpt lat="43.467945" lon="13.306425"><ele>149.0</ele><time>2026-03-22T11:03:35.992Z</time></trkpt><trkpt lat="43.4679183" lon="13.30617"><ele>148.0</ele><time>2026-03-22T11:03:36.991Z</time></trkpt><trkpt lat="43.4678933" lon="13.305915"><ele>147.0</ele><time>2026-03-22T11:03:37.991Z</time></trkpt><trkpt lat="43.4678683" lon="13.3056667"><ele>146.66666666666666</ele><time>2026-03-22T11:03:38.992Z</time></trkpt><trkpt lat="43.467845" lon="13.3054183"><ele>146.33333333333331</ele><time>2026-03-22T11:03:39.991Z</time></trkpt><trkpt lat="43.4678317" lon="13.3051683"><ele>146.0</ele><time>2026-03-22T11:03:40.991Z</time></trkpt><trkpt lat="43.4678367" lon="13.304915"><ele>145.66666666666666</ele><time>2026-03-22T11:03:41.992Z</time></trkpt><trkpt lat="43.4678517" lon="13.304655"><ele>145.33333333333334</ele><time>2026-03-22T11:03:42.992Z</time></trkpt><trkpt lat="43.4678667" lon="13.3043833"><ele>145.0</ele><time>2026-03-22T11:03:43.991Z</time></trkpt><trkpt lat="43.4678617" lon="13.3041083"><ele>145.33333333333334</ele><time>2026-03-22T11:03:44.991Z</time></trkpt><trkpt lat="43.467835" lon="13.3038333"><ele>145.66666666666666</ele><time>2026-03-22T11:03:45.994Z</time></trkpt><trkpt lat="43.46779" lon="13.303585"><ele>146.0</ele><time>2026-03-22T11:03:46.99Z</time></trkpt><trkpt lat="43.4677333" lon="13.3033583"><ele>146.0</ele><time>2026-03-22T11:03:47.991Z</time></trkpt><trkpt lat="43.4676683" lon="13.30317"><ele>146.0</ele><time>2026-03-22T11:03:48.994Z</time></trkpt><trkpt lat="43.4676067" lon="13.3030133"><ele>146.0</ele><time>2026-03-22T11:03:49.991Z</time></trkpt><trkpt lat="43.4675517" lon="13.302865"><ele>146.0</ele><time>2026-03-22T11:03:50.997Z</time></trkpt><trkpt lat="43.46751" lon="13.3027267"><ele>146.4</ele><time>2026-03-22T11:03:51.992Z</time></trkpt><trkpt lat="43.46749" lon="13.3025983"><ele>146.8</ele><time>2026-03-22T11:03:52.99Z</time></trkpt><trkpt lat="43.4675017" lon="13.30249"><ele>147.20000000000002</ele><time>2026-03-22T11:03:53.993Z</time></trkpt><trkpt lat="43.467525" lon="13.3023983"><ele>147.6</ele><time>2026-03-22T11:03:54.994Z</time></trkpt><trkpt lat="43.4675567" lon="13.302235"><ele>148.0</ele><time>2026-03-22T11:03:56.997Z</time></trkpt><trkpt lat="43.4675367" lon="13.30207"><ele>148.20000000000002</ele><time>2026-03-22T11:03:58.992Z</time></trkpt><trkpt lat="43.4674933" lon="13.3019933"><ele>148.4</ele><time>2026-03-22T11:03:59.992Z</time></trkpt><trkpt lat="43.4674317" lon="13.3019067"><ele>148.60000000000002</ele><time>2026-03-22T11:04:00.991Z</time></trkpt><trkpt lat="43.46737" lon="13.3018033"><ele>148.8</ele><time>2026-03-22T11:04:01.993Z</time></trkpt><trkpt lat="43.4673083" lon="13.3016633"><ele>149.0</ele><time>2026-03-22T11:04:02.992Z</time></trkpt><trkpt lat="43.467245" lon="13.301475"><ele>149.0</ele><time>2026-03-22T11:04:03.995Z</time></trkpt><trkpt lat="43.467195" lon="13.3012383"><ele>149.0</ele><time>2026-03-22T11:04:04.994Z</time></trkpt><trkpt lat="43.4671467" lon="13.30098"><ele>149.0</ele><time>2026-03-22T11:04:05.995Z</time></trkpt><trkpt lat="43.467095" lon="13.3006967"><ele>149.5</ele><time>2026-03-22T11:04:06.994Z</time></trkpt><trkpt lat="43.4670417" lon="13.3003967"><ele>150.0</ele><time>2026-03-22T11:04:07.995Z</time></trkpt><trkpt lat="43.4669883" lon="13.3000867"><ele>150.0</ele><time>2026-03-22T11:04:08.995Z</time></trkpt><trkpt lat="43.466925" lon="13.299765"><ele>150.0</ele><time>2026-03-22T11:04:09.992Z</time></trkpt><trkpt lat="43.46685" lon="13.2994417"><ele>149.0</ele><time>2026-03-22T11:04:10.991Z</time></trkpt><trkpt lat="43.466765" lon="13.2991067"><ele>148.0</ele><time>2026-03-22T11:04:11.993Z</time></trkpt><trkpt lat="43.46668" lon="13.2987583"><ele>148.0</ele><time>2026-03-22T11:04:12.996Z</time></trkpt><trkpt lat="43.4665867" lon="13.29841"><ele>148.0</ele><time>2026-03-22T11:04:13.997Z</time></trkpt><trkpt lat="43.4664783" lon="13.2980733"><ele>147.5</ele><time>2026-03-22T11:04:14.996Z</time></trkpt><trkpt lat="43.46636" lon="13.2977533"><ele>147.0</ele><time>2026-03-22T11:04:15.999Z</time></trkpt><trkpt lat="43.4662433" lon="13.2974583"><ele>146.33333333333334</ele><time>2026-03-22T11:04:16.994Z</time></trkpt><trkpt lat="43.466135" lon="13.297185"><ele>145.66666666666669</ele><time>2026-03-22T11:04:17.998Z</time></trkpt><trkpt lat="43.4660333" lon="13.296925"><ele>145.0</ele><time>2026-03-22T11:04:18.993Z</time></trkpt><trkpt lat="43.46594" lon="13.2966817"><ele>145.0</ele><time>2026-03-22T11:04:19.994Z</time></trkpt><trkpt lat="43.4658583" lon="13.296455"><ele>145.0</ele><time>2026-03-22T11:04:20.992Z</time></trkpt><trkpt lat="43.4657783" lon="13.296235"><ele>145.0</ele><time>2026-03-22T11:04:21.996Z</time></trkpt><trkpt lat="43.4657" lon="13.2960183"><ele>145.0</ele><time>2026-03-22T11:04:22.992Z</time></trkpt><trkpt lat="43.465625" lon="13.2957983"><ele>145.0</ele><time>2026-03-22T11:04:23.991Z</time></trkpt><trkpt lat="43.4655617" lon="13.2955717"><ele>145.0</ele><time>2026-03-22T11:04:24.993Z</time></trkpt><trkpt lat="43.4655117" lon="13.2953333"><ele>144.66666666666669</ele><time>2026-03-22T11:04:25.991Z</time></trkpt><trkpt lat="43.4654667" lon="13.29509"><ele>144.33333333333334</ele><time>2026-03-22T11:04:26.996Z</time></trkpt><trkpt lat="43.4654333" lon="13.2948417"><ele>144.0</ele><time>2026-03-22T11:04:27.996Z</time></trkpt><trkpt lat="43.4654017" lon="13.2945867"><ele>144.0</ele><time>2026-03-22T11:04:28.992Z</time></trkpt><trkpt lat="43.4653683" lon="13.2943283"><ele>144.0</ele><time>2026-03-22T11:04:29.991Z</time></trkpt><trkpt lat="43.4653333" lon="13.2940633"><ele>144.0</ele><time>2026-03-22T11:04:30.992Z</time></trkpt><trkpt lat="43.4653017" lon="13.2937967"><ele>144.0</ele><time>2026-03-22T11:04:31.992Z</time></trkpt><trkpt lat="43.4652717" lon="13.293525"><ele>144.0</ele><time>2026-03-22T11:04:32.993Z</time></trkpt><trkpt lat="43.4652433" lon="13.2932533"><ele>144.0</ele><time>2026-03-22T11:04:33.998Z</time></trkpt><trkpt lat="43.46522" lon="13.2929883"><ele>143.33333333333334</ele><time>2026-03-22T11:04:34.991Z</time></trkpt><trkpt lat="43.465195" lon="13.2927433"><ele>142.66666666666669</ele><time>2026-03-22T11:04:35.992Z</time></trkpt><trkpt lat="43.4651567" lon="13.2925167"><ele>142.0</ele><time>2026-03-22T11:04:36.993Z</time></trkpt><trkpt lat="43.46509" lon="13.2923033"><ele>142.0</ele><time>2026-03-22T11:04:37.994Z</time></trkpt><trkpt lat="43.4649983" lon="13.29211"><ele>142.0</ele><time>2026-03-22T11:04:38.994Z</time></trkpt><trkpt lat="43.46488" lon="13.2919133"><ele>142.0</ele><time>2026-03-22T11:04:39.993Z</time></trkpt><trkpt lat="43.4647517" lon="13.291705"><ele>142.0</ele><time>2026-03-22T11:04:40.992Z</time></trkpt><trkpt lat="43.4646183" lon="13.2914683"><ele>142.0</ele><time>2026-03-22T11:04:41.993Z</time></trkpt><trkpt lat="43.4644883" lon="13.2912033"><ele>144.0</ele><time>2026-03-22T11:04:42.994Z</time></trkpt><trkpt lat="43.4643633" lon="13.2909233"><ele>146.0</ele><time>2026-03-22T11:04:43.993Z</time></trkpt><trkpt lat="43.4642467" lon="13.2906367"><ele>148.0</ele><time>2026-03-22T11:04:44.999Z</time></trkpt><trkpt lat="43.46414" lon="13.290345"><ele>150.0</ele><time>2026-03-22T11:04:45.992Z</time></trkpt><trkpt lat="43.464045" lon="13.2900333"><ele>150.5</ele><time>2026-03-22T11:04:46.992Z</time></trkpt><trkpt lat="43.4639633" lon="13.2896983"><ele>151.0</ele><time>2026-03-22T11:04:47.993Z</time></trkpt><trkpt lat="43.4638867" lon="13.289355"><ele>151.0</ele><time>2026-03-22T11:04:48.992Z</time></trkpt><trkpt lat="43.4638033" lon="13.289005"><ele>151.0</ele><time>2026-03-22T11:04:49.993Z</time></trkpt><trkpt lat="43.46371" lon="13.2886533"><ele>150.0</ele><time>2026-03-22T11:04:50.994Z</time></trkpt><trkpt lat="43.4636" lon="13.288305"><ele>149.0</ele><time>2026-03-22T11:04:51.995Z</time></trkpt><trkpt lat="43.4634867" lon="13.2879633"><ele>149.0</ele><time>2026-03-22T11:04:52.992Z</time></trkpt><trkpt lat="43.4633883" lon="13.2876183"><ele>149.0</ele><time>2026-03-22T11:04:53.994Z</time></trkpt><trkpt lat="43.4633167" lon="13.2872617"><ele>151.5</ele><time>2026-03-22T11:04:54.995Z</time></trkpt><trkpt lat="43.4632767" lon="13.2869083"><ele>154.0</ele><time>2026-03-22T11:04:55.996Z</time></trkpt><trkpt lat="43.4632617" lon="13.2865633"><ele>155.5</ele><time>2026-03-22T11:04:56.994Z</time></trkpt><trkpt lat="43.4632633" lon="13.2862067"><ele>157.0</ele><time>2026-03-22T11:04:57.994Z</time></trkpt><trkpt lat="43.463275" lon="13.2858367"><ele>155.5</ele><time>2026-03-22T11:04:58.994Z</time></trkpt><trkpt lat="43.4632917" lon="13.28546"><ele>154.0</ele><time>2026-03-22T11:04:59.992Z</time></trkpt><trkpt lat="43.4633133" lon="13.28508"><ele>153.0</ele><time>2026-03-22T11:05:00.995Z</time></trkpt><trkpt lat="43.4633317" lon="13.2847"><ele>152.0</ele><time>2026-03-22T11:05:01.992Z</time></trkpt><trkpt lat="43.4633533" lon="13.28433"><ele>152.0</ele><time>2026-03-22T11:05:02.996Z</time></trkpt><trkpt lat="43.4633783" lon="13.283965"><ele>152.0</ele><time>2026-03-22T11:05:03.995Z</time></trkpt><trkpt lat="43.4634083" lon="13.283605"><ele>152.0</ele><time>2026-03-22T11:05:04.992Z</time></trkpt><trkpt lat="43.4634467" lon="13.2832483"><ele>152.0</ele><time>2026-03-22T11:05:05.993Z</time></trkpt><trkpt lat="43.4634967" lon="13.2829"><ele>151.5</ele><time>2026-03-22T11:05:06.993Z</time></trkpt><trkpt lat="43.46355" lon="13.28257"><ele>151.0</ele><time>2026-03-22T11:05:07.997Z</time></trkpt><trkpt lat="43.4635967" lon="13.2822567"><ele>151.66666666666669</ele><time>2026-03-22T11:05:08.991Z</time></trkpt><trkpt lat="43.463635" lon="13.281955"><ele>152.33333333333334</ele><time>2026-03-22T11:05:09.991Z</time></trkpt><trkpt lat="43.4636483" lon="13.2816633"><ele>153.0</ele><time>2026-03-22T11:05:10.991Z</time></trkpt><trkpt lat="43.46362" lon="13.2813633"><ele>156.0</ele><time>2026-03-22T11:05:11.993Z</time></trkpt><trkpt lat="43.46355" lon="13.281045"><ele>159.0</ele><time>2026-03-22T11:05:12.993Z</time></trkpt><trkpt lat="43.4634633" lon="13.2807317"><ele>160.66666666666666</ele><time>2026-03-22T11:05:13.995Z</time></trkpt><trkpt lat="43.4633817" lon="13.2804383"><ele>162.33333333333331</ele><time>2026-03-22T11:05:14.993Z</time></trkpt><trkpt lat="43.463305" lon="13.2801767"><ele>164.0</ele><time>2026-03-22T11:05:15.991Z</time></trkpt><trkpt lat="43.46321" lon="13.2799433"><ele>162.33333333333331</ele><time>2026-03-22T11:05:16.992Z</time></trkpt><trkpt lat="43.4630967" lon="13.2797233"><ele>160.66666666666666</ele><time>2026-03-22T11:05:17.991Z</time></trkpt><trkpt lat="43.4629717" lon="13.2794867"><ele>159.0</ele><time>2026-03-22T11:05:18.991Z</time></trkpt><trkpt lat="43.46285" lon="13.27923"><ele>159.0</ele><time>2026-03-22T11:05:19.991Z</time></trkpt><trkpt lat="43.462745" lon="13.2789667"><ele>159.0</ele><time>2026-03-22T11:05:20.996Z</time></trkpt><trkpt lat="43.462655" lon="13.2787317"><ele>159.0</ele><time>2026-03-22T11:05:21.993Z</time></trkpt><trkpt lat="43.4625717" lon="13.2785267"><ele>161.0</ele><time>2026-03-22T11:05:22.993Z</time></trkpt><trkpt lat="43.4624983" lon="13.278335"><ele>163.0</ele><time>2026-03-22T11:05:23.993Z</time></trkpt><trkpt lat="43.4624267" lon="13.2781733"><ele>165.0</ele><time>2026-03-22T11:05:24.994Z</time></trkpt><trkpt lat="43.46235" lon="13.2780483"><ele>167.0</ele><time>2026-03-22T11:05:25.994Z</time></trkpt><trkpt lat="43.462265" lon="13.27798"><ele>167.25</ele><time>2026-03-22T11:05:26.992Z</time></trkpt><trkpt lat="43.4621783" lon="13.2779683"><ele>167.5</ele><time>2026-03-22T11:05:27.993Z</time></trkpt><trkpt lat="43.462085" lon="13.27809"><ele>167.75</ele><time>2026-03-22T11:05:28.987Z</time></trkpt><trkpt lat="43.4619733" lon="13.2782583"><ele>168.0</ele><time>2026-03-22T11:05:29.989Z</time></trkpt><trkpt lat="43.4618583" lon="13.27842"><ele>163.75</ele><time>2026-03-22T11:05:30.992Z</time></trkpt><trkpt lat="43.46174" lon="13.2785583"><ele>159.5</ele><time>2026-03-22T11:05:31.992Z</time></trkpt><trkpt lat="43.4616117" lon="13.278665"><ele>155.25</ele><time>2026-03-22T11:05:32.991Z</time></trkpt><trkpt lat="43.4614783" lon="13.2787183"><ele>151.0</ele><time>2026-03-22T11:05:33.99Z</time></trkpt><trkpt lat="43.4613233" lon="13.27871"><ele>150.0</ele><time>2026-03-22T11:05:34.99Z</time></trkpt><trkpt lat="43.4611467" lon="13.2786633"><ele>149.0</ele><time>2026-03-22T11:05:35.991Z</time></trkpt><trkpt lat="43.460965" lon="13.2785917"><ele>148.0</ele><time>2026-03-22T11:05:36.991Z</time></trkpt><trkpt lat="43.46079" lon="13.2784867"><ele>148.0</ele><time>2026-03-22T11:05:37.993Z</time></trkpt><trkpt lat="43.4606267" lon="13.2783133"><ele>148.0</ele><time>2026-03-22T11:05:38.994Z</time></trkpt><trkpt lat="43.4604783" lon="13.278075"><ele>148.0</ele><time>2026-03-22T11:05:39.993Z</time></trkpt><trkpt lat="43.4603467" lon="13.2777983"><ele>150.5</ele><time>2026-03-22T11:05:40.991Z</time></trkpt><trkpt lat="43.460215" lon="13.2775217"><ele>153.0</ele><time>2026-03-22T11:05:41.995Z</time></trkpt><trkpt lat="43.4600783" lon="13.2772517"><ele>154.5</ele><time>2026-03-22T11:05:42.993Z</time></trkpt><trkpt lat="43.4599433" lon="13.2769733"><ele>156.0</ele><time>2026-03-22T11:05:43.991Z</time></trkpt><trkpt lat="43.4598133" lon="13.2767033"><ele>155.5</ele><time>2026-03-22T11:05:44.993Z</time></trkpt><trkpt lat="43.4596883" lon="13.276425"><ele>155.0</ele><time>2026-03-22T11:05:45.991Z</time></trkpt><trkpt lat="43.4595717" lon="13.2761317"><ele>155.0</ele><time>2026-03-22T11:05:46.992Z</time></trkpt><trkpt lat="43.4594717" lon="13.2758183"><ele>155.0</ele><time>2026-03-22T11:05:47.99Z</time></trkpt><trkpt lat="43.4593817" lon="13.2754983"><ele>156.0</ele><time>2026-03-22T11:05:48.991Z</time></trkpt><trkpt lat="43.4593017" lon="13.2751717"><ele>157.0</ele><time>2026-03-22T11:05:49.992Z</time></trkpt><trkpt lat="43.459245" lon="13.27483"><ele>157.5</ele><time>2026-03-22T11:05:50.991Z</time></trkpt><trkpt lat="43.459225" lon="13.274475"><ele>158.0</ele><time>2026-03-22T11:05:51.992Z</time></trkpt><trkpt lat="43.459235" lon="13.2741133"><ele>160.0</ele><time>2026-03-22T11:05:52.99Z</time></trkpt><trkpt lat="43.4592767" lon="13.2737533"><ele>162.0</ele><time>2026-03-22T11:05:53.99Z</time></trkpt><trkpt lat="43.459335" lon="13.273395"><ele>162.5</ele><time>2026-03-22T11:05:54.992Z</time></trkpt><trkpt lat="43.4594017" lon="13.27304"><ele>163.0</ele><time>2026-03-22T11:05:55.994Z</time></trkpt><trkpt lat="43.45947" lon="13.2726767"><ele>163.0</ele><time>2026-03-22T11:05:56.996Z</time></trkpt><trkpt lat="43.459535" lon="13.2723083"><ele>163.0</ele><time>2026-03-22T11:05:57.996Z</time></trkpt><trkpt lat="43.459585" lon="13.271935"><ele>163.5</ele><time>2026-03-22T11:05:58.993Z</time></trkpt><trkpt lat="43.45962" lon="13.27156"><ele>164.0</ele><time>2026-03-22T11:05:59.994Z</time></trkpt><trkpt lat="43.4596317" lon="13.2711833"><ele>164.0</ele><time>2026-03-22T11:06:00.992Z</time></trkpt><trkpt lat="43.4596217" lon="13.270815"><ele>164.0</ele><time>2026-03-22T11:06:01.992Z</time></trkpt><trkpt lat="43.4596033" lon="13.270465"><ele>164.0</ele><time>2026-03-22T11:06:02.994Z</time></trkpt><trkpt lat="43.4595783" lon="13.2701333"><ele>164.0</ele><time>2026-03-22T11:06:03.992Z</time></trkpt><trkpt lat="43.4595333" lon="13.2698183"><ele>166.0</ele><time>2026-03-22T11:06:04.993Z</time></trkpt><trkpt lat="43.4594517" lon="13.2695217"><ele>168.0</ele><time>2026-03-22T11:06:05.992Z</time></trkpt><trkpt lat="43.4593133" lon="13.2692567"><ele>168.0</ele><time>2026-03-22T11:06:06.992Z</time></trkpt><trkpt lat="43.4591233" lon="13.2690217"><ele>168.0</ele><time>2026-03-22T11:06:07.991Z</time></trkpt><trkpt lat="43.45891" lon="13.2687917"><ele>167.5</ele><time>2026-03-22T11:06:08.992Z</time></trkpt><trkpt lat="43.4586967" lon="13.26856"><ele>167.0</ele><time>2026-03-22T11:06:09.991Z</time></trkpt><trkpt lat="43.4584817" lon="13.2683367"><ele>167.0</ele><time>2026-03-22T11:06:10.993Z</time></trkpt><trkpt lat="43.4582667" lon="13.2681167"><ele>167.0</ele><time>2026-03-22T11:06:11.991Z</time></trkpt><trkpt lat="43.458055" lon="13.2678867"><ele>167.5</ele><time>2026-03-22T11:06:12.991Z</time></trkpt><trkpt lat="43.4578417" lon="13.2676533"><ele>168.0</ele><time>2026-03-22T11:06:13.991Z</time></trkpt><trkpt lat="43.4576317" lon="13.26741"><ele>169.0</ele><time>2026-03-22T11:06:14.997Z</time></trkpt><trkpt lat="43.4574283" lon="13.2671467"><ele>170.0</ele><time>2026-03-22T11:06:15.993Z</time></trkpt><trkpt lat="43.4572183" lon="13.2668767"><ele>170.0</ele><time>2026-03-22T11:06:16.99Z</time></trkpt><trkpt lat="43.457005" lon="13.266605"><ele>170.0</ele><time>2026-03-22T11:06:17.992Z</time></trkpt><trkpt lat="43.4567933" lon="13.26633"><ele>170.0</ele><time>2026-03-22T11:06:18.991Z</time></trkpt><trkpt lat="43.45658" lon="13.2660533"><ele>170.0</ele><time>2026-03-22T11:06:19.991Z</time></trkpt><trkpt lat="43.4563633" lon="13.2657767"><ele>169.5</ele><time>2026-03-22T11:06:20.994Z</time></trkpt><trkpt lat="43.4561483" lon="13.2655"><ele>169.0</ele><time>2026-03-22T11:06:21.991Z</time></trkpt><trkpt lat="43.45594" lon="13.2652283"><ele>169.0</ele><time>2026-03-22T11:06:22.989Z</time></trkpt><trkpt lat="43.4557317" lon="13.2649567"><ele>169.0</ele><time>2026-03-22T11:06:23.992Z</time></trkpt><trkpt lat="43.455525" lon="13.2646817"><ele>170.0</ele><time>2026-03-22T11:06:24.991Z</time></trkpt><trkpt lat="43.4553167" lon="13.2644033"><ele>171.0</ele><time>2026-03-22T11:06:25.995Z</time></trkpt><trkpt lat="43.4551167" lon="13.2641183"><ele>172.5</ele><time>2026-03-22T11:06:26.994Z</time></trkpt><trkpt lat="43.4549183" lon="13.26383"><ele>174.0</ele><time>2026-03-22T11:06:27.992Z</time></trkpt><trkpt lat="43.4547217" lon="13.2635417"><ele>174.0</ele><time>2026-03-22T11:06:28.992Z</time></trkpt><trkpt lat="43.4545267" lon="13.2632567"><ele>174.0</ele><time>2026-03-22T11:06:29.995Z</time></trkpt><trkpt lat="43.4543333" lon="13.2629733"><ele>174.0</ele><time>2026-03-22T11:06:30.995Z</time></trkpt><trkpt lat="43.4541383" lon="13.2626883"><ele>174.0</ele><time>2026-03-22T11:06:31.993Z</time></trkpt><trkpt lat="43.4539467" lon="13.262405"><ele>173.0</ele><time>2026-03-22T11:06:32.994Z</time></trkpt><trkpt lat="43.4537567" lon="13.2621267"><ele>172.0</ele><time>2026-03-22T11:06:33.995Z</time></trkpt><trkpt lat="43.4535683" lon="13.2618467"><ele>172.0</ele><time>2026-03-22T11:06:34.991Z</time></trkpt><trkpt lat="43.4533817" lon="13.2615667"><ele>172.0</ele><time>2026-03-22T11:06:35.992Z</time></trkpt><trkpt lat="43.4532017" lon="13.2612917"><ele>174.5</ele><time>2026-03-22T11:06:36.995Z</time></trkpt><trkpt lat="43.4530333" lon="13.26102"><ele>177.0</ele><time>2026-03-22T11:06:37.992Z</time></trkpt><trkpt lat="43.45288" lon="13.2607333"><ele>179.0</ele><time>2026-03-22T11:06:38.991Z</time></trkpt><trkpt lat="43.452745" lon="13.2604267"><ele>181.0</ele><time>2026-03-22T11:06:39.991Z</time></trkpt><trkpt lat="43.4526267" lon="13.2600917"><ele>182.0</ele><time>2026-03-22T11:06:40.991Z</time></trkpt><trkpt lat="43.4525133" lon="13.259745"><ele>183.0</ele><time>2026-03-22T11:06:41.991Z</time></trkpt><trkpt lat="43.4524017" lon="13.25939"><ele>183.0</ele><time>2026-03-22T11:06:42.995Z</time></trkpt><trkpt lat="43.452285" lon="13.2590367"><ele>183.0</ele><time>2026-03-22T11:06:43.993Z</time></trkpt><trkpt lat="43.45217" lon="13.258685"><ele>183.0</ele><time>2026-03-22T11:06:44.993Z</time></trkpt><trkpt lat="43.452055" lon="13.2583383"><ele>183.0</ele><time>2026-03-22T11:06:45.99Z</time></trkpt><trkpt lat="43.451945" lon="13.2579983"><ele>185.5</ele><time>2026-03-22T11:06:46.993Z</time></trkpt><trkpt lat="43.4518383" lon="13.25768"><ele>188.0</ele><time>2026-03-22T11:06:47.991Z</time></trkpt><trkpt lat="43.4517383" lon="13.2573833"><ele>191.0</ele><time>2026-03-22T11:06:48.991Z</time></trkpt><trkpt lat="43.4516317" lon="13.2571167"><ele>194.0</ele><time>2026-03-22T11:06:49.992Z</time></trkpt><trkpt lat="43.4515017" lon="13.25689"><ele>197.0</ele><time>2026-03-22T11:06:50.995Z</time></trkpt><trkpt lat="43.45134" lon="13.256705"><ele>196.66666666666669</ele><time>2026-03-22T11:06:51.988Z</time></trkpt><trkpt lat="43.4511517" lon="13.2565567"><ele>196.33333333333331</ele><time>2026-03-22T11:06:52.991Z</time></trkpt><trkpt lat="43.450945" lon="13.256415"><ele>196.0</ele><time>2026-03-22T11:06:53.992Z</time></trkpt><trkpt lat="43.4507217" lon="13.2562667"><ele>196.0</ele><time>2026-03-22T11:06:54.996Z</time></trkpt><trkpt lat="43.4504917" lon="13.2561133"><ele>196.0</ele><time>2026-03-22T11:06:55.991Z</time></trkpt><trkpt lat="43.450265" lon="13.2559633"><ele>193.0</ele><time>2026-03-22T11:06:56.994Z</time></trkpt><trkpt lat="43.4500533" lon="13.2558233"><ele>190.0</ele><time>2026-03-22T11:06:57.992Z</time></trkpt><trkpt lat="43.449855" lon="13.25569"><ele>190.0</ele><time>2026-03-22T11:06:58.993Z</time></trkpt><trkpt lat="43.4496567" lon="13.2555633"><ele>190.0</ele><time>2026-03-22T11:06:59.993Z</time></trkpt><trkpt lat="43.4494517" lon="13.25543"><ele>190.0</ele><time>2026-03-22T11:07:00.994Z</time></trkpt><trkpt lat="43.4492367" lon="13.255295"><ele>190.0</ele><time>2026-03-22T11:07:01.995Z</time></trkpt><trkpt lat="43.4490267" lon="13.2551567"><ele>190.0</ele><time>2026-03-22T11:07:02.991Z</time></trkpt><trkpt lat="43.4488233" lon="13.2550267"><ele>189.0</ele><time>2026-03-22T11:07:03.991Z</time></trkpt><trkpt lat="43.4486283" lon="13.2549"><ele>188.0</ele><time>2026-03-22T11:07:04.989Z</time></trkpt><trkpt lat="43.4484383" lon="13.25478"><ele>187.0</ele><time>2026-03-22T11:07:05.994Z</time></trkpt><trkpt lat="43.4482483" lon="13.254665"><ele>187.0</ele><time>2026-03-22T11:07:06.993Z</time></trkpt><trkpt lat="43.4480583" lon="13.2545433"><ele>187.0</ele><time>2026-03-22T11:07:07.992Z</time></trkpt><trkpt lat="43.4478667" lon="13.2544217"><ele>187.0</ele><time>2026-03-22T11:07:08.996Z</time></trkpt><trkpt lat="43.4476783" lon="13.2542967"><ele>185.33333333333334</ele><time>2026-03-22T11:07:09.993Z</time></trkpt><trkpt lat="43.4475067" lon="13.2541667"><ele>183.66666666666666</ele><time>2026-03-22T11:07:10.99Z</time></trkpt><trkpt lat="43.447355" lon="13.2540217"><ele>182.0</ele><time>2026-03-22T11:07:11.991Z</time></trkpt><trkpt lat="43.4472283" lon="13.2538517"><ele>178.0</ele><time>2026-03-22T11:07:12.993Z</time></trkpt><trkpt lat="43.44712" lon="13.253675"><ele>174.0</ele><time>2026-03-22T11:07:13.99Z</time></trkpt><trkpt lat="43.4470283" lon="13.2535067"><ele>170.0</ele><time>2026-03-22T11:07:14.993Z</time></trkpt><trkpt lat="43.446955" lon="13.2533583"><ele>170.0</ele><time>2026-03-22T11:07:15.991Z</time></trkpt><trkpt lat="43.4468917" lon="13.2532333"><ele>170.0</ele><time>2026-03-22T11:07:16.989Z</time></trkpt><trkpt lat="43.446835" lon="13.25313"><ele>170.0</ele><time>2026-03-22T11:07:17.992Z</time></trkpt><trkpt lat="43.4467867" lon="13.2530467"><ele>170.0</ele><time>2026-03-22T11:07:18.994Z</time></trkpt><trkpt lat="43.4467417" lon="13.2529733"><ele>170.0</ele><time>2026-03-22T11:07:19.991Z</time></trkpt><trkpt lat="43.4466833" lon="13.2528783"><ele>170.0</ele><time>2026-03-22T11:07:21.992Z</time></trkpt><trkpt lat="43.4465783" lon="13.25284"><ele>170.0</ele><time>2026-03-22T11:08:04.991Z</time></trkpt><trkpt lat="43.4464883" lon="13.25284"><ele>170.0</ele><time>2026-03-22T11:08:05.994Z</time></trkpt><trkpt lat="43.4463783" lon="13.2528617"><ele>170.0</ele><time>2026-03-22T11:08:06.991Z</time></trkpt><trkpt lat="43.4462483" lon="13.25292"><ele>170.0</ele><time>2026-03-22T11:08:07.99Z</time></trkpt><trkpt lat="43.4461383" lon="13.25302"><ele>168.33333333333331</ele><time>2026-03-22T11:08:08.994Z</time></trkpt><trkpt lat="43.44602" lon="13.25313"><ele>166.66666666666666</ele><time>2026-03-22T11:08:09.99Z</time></trkpt><trkpt lat="43.44588" lon="13.2532117"><ele>165.0</ele><time>2026-03-22T11:08:10.99Z</time></trkpt><trkpt lat="43.4457217" lon="13.253265"><ele>165.0</ele><time>2026-03-22T11:08:11.989Z</time></trkpt><trkpt lat="43.4455567" lon="13.2532683"><ele>165.0</ele><time>2026-03-22T11:08:12.989Z</time></trkpt><trkpt lat="43.4453817" lon="13.253205"><ele>165.0</ele><time>2026-03-22T11:08:13.991Z</time></trkpt><trkpt lat="43.44519" lon="13.2530783"><ele>167.33333333333334</ele><time>2026-03-22T11:08:14.992Z</time></trkpt><trkpt lat="43.445005" lon="13.2529483"><ele>169.66666666666669</ele><time>2026-03-22T11:08:15.989Z</time></trkpt><trkpt lat="43.4448317" lon="13.2528067"><ele>172.0</ele><time>2026-03-22T11:08:16.991Z</time></trkpt><trkpt lat="43.4446667" lon="13.2526433"><ele>173.66666666666669</ele><time>2026-03-22T11:08:17.99Z</time></trkpt><trkpt lat="43.4445017" lon="13.25245"><ele>175.33333333333334</ele><time>2026-03-22T11:08:18.99Z</time></trkpt><trkpt lat="43.4443367" lon="13.2522417"><ele>177.0</ele><time>2026-03-22T11:08:19.992Z</time></trkpt><trkpt lat="43.4441633" lon="13.2520267"><ele>182.0</ele><time>2026-03-22T11:08:20.997Z</time></trkpt><trkpt lat="43.4439817" lon="13.2518033"><ele>187.0</ele><time>2026-03-22T11:08:21.995Z</time></trkpt><trkpt lat="43.4437967" lon="13.2515717"><ele>189.0</ele><time>2026-03-22T11:08:22.991Z</time></trkpt><trkpt lat="43.44361" lon="13.2513383"><ele>191.0</ele><time>2026-03-22T11:08:23.992Z</time></trkpt><trkpt lat="43.4434217" lon="13.2511067"><ele>191.0</ele><time>2026-03-22T11:08:25Z</time></trkpt><trkpt lat="43.44323" lon="13.250875"><ele>191.0</ele><time>2026-03-22T11:08:25.991Z</time></trkpt><trkpt lat="43.44304" lon="13.2506417"><ele>193.5</ele><time>2026-03-22T11:08:26.995Z</time></trkpt><trkpt lat="43.4428467" lon="13.2504083"><ele>196.0</ele><time>2026-03-22T11:08:27.992Z</time></trkpt><trkpt lat="43.44265" lon="13.2501717"><ele>196.0</ele><time>2026-03-22T11:08:28.991Z</time></trkpt><trkpt lat="43.44246" lon="13.2499417"><ele>196.0</ele><time>2026-03-22T11:08:29.994Z</time></trkpt><trkpt lat="43.44228" lon="13.24972"><ele>196.0</ele><time>2026-03-22T11:08:30.992Z</time></trkpt><trkpt lat="43.4421083" lon="13.2495083"><ele>196.0</ele><time>2026-03-22T11:08:31.995Z</time></trkpt><trkpt lat="43.4419333" lon="13.24929"><ele>196.0</ele><time>2026-03-22T11:08:32.992Z</time></trkpt><trkpt lat="43.4417633" lon="13.2490683"><ele>196.0</ele><time>2026-03-22T11:08:33.991Z</time></trkpt><trkpt lat="43.4416083" lon="13.248845"><ele>197.0</ele><time>2026-03-22T11:08:34.988Z</time></trkpt><trkpt lat="43.4414567" lon="13.2486233"><ele>198.0</ele><time>2026-03-22T11:08:35.994Z</time></trkpt><trkpt lat="43.4413117" lon="13.2483983"><ele>199.0</ele><time>2026-03-22T11:08:36.993Z</time></trkpt><trkpt lat="43.44117" lon="13.2481717"><ele>200.0</ele><time>2026-03-22T11:08:37.993Z</time></trkpt><trkpt lat="43.4410283" lon="13.2479417"><ele>201.0</ele><time>2026-03-22T11:08:38.993Z</time></trkpt><trkpt lat="43.4408917" lon="13.2477033"><ele>202.0</ele><time>2026-03-22T11:08:39.995Z</time></trkpt><trkpt lat="43.4407533" lon="13.2474583"><ele>201.5</ele><time>2026-03-22T11:08:40.99Z</time></trkpt><trkpt lat="43.440615" lon="13.2472017"><ele>201.0</ele><time>2026-03-22T11:08:41.992Z</time></trkpt><trkpt lat="43.44048" lon="13.24694"><ele>199.0</ele><time>2026-03-22T11:08:42.994Z</time></trkpt><trkpt lat="43.440345" lon="13.2466767"><ele>197.0</ele><time>2026-03-22T11:08:43.992Z</time></trkpt><trkpt lat="43.440215" lon="13.246415"><ele>197.0</ele><time>2026-03-22T11:08:44.994Z</time></trkpt><trkpt lat="43.4400867" lon="13.2461617"><ele>197.0</ele><time>2026-03-22T11:08:45.993Z</time></trkpt><trkpt lat="43.4399533" lon="13.2459083"><ele>197.0</ele><time>2026-03-22T11:08:46.994Z</time></trkpt><trkpt lat="43.43982" lon="13.245655"><ele>197.0</ele><time>2026-03-22T11:08:47.993Z</time></trkpt><trkpt lat="43.4396867" lon="13.2454033"><ele>197.0</ele><time>2026-03-22T11:08:48.995Z</time></trkpt><trkpt lat="43.4395617" lon="13.2451667"><ele>197.0</ele><time>2026-03-22T11:08:49.995Z</time></trkpt><trkpt lat="43.4394417" lon="13.2449417"><ele>197.0</ele><time>2026-03-22T11:08:50.993Z</time></trkpt><trkpt lat="43.4393267" lon="13.24473"><ele>198.66666666666669</ele><time>2026-03-22T11:08:51.994Z</time></trkpt><trkpt lat="43.4392217" lon="13.2445283"><ele>200.33333333333331</ele><time>2026-03-22T11:08:52.992Z</time></trkpt><trkpt lat="43.4391183" lon="13.24434"><ele>202.0</ele><time>2026-03-22T11:08:53.992Z</time></trkpt><trkpt lat="43.4390217" lon="13.244165"><ele>202.0</ele><time>2026-03-22T11:08:54.992Z</time></trkpt><trkpt lat="43.4389283" lon="13.2440167"><ele>202.0</ele><time>2026-03-22T11:08:55.994Z</time></trkpt><trkpt lat="43.438835" lon="13.24389"><ele>202.0</ele><time>2026-03-22T11:08:56.996Z</time></trkpt><trkpt lat="43.438745" lon="13.2437867"><ele>202.0</ele><time>2026-03-22T11:08:57.995Z</time></trkpt><trkpt lat="43.4386667" lon="13.2437"><ele>202.83333333333331</ele><time>2026-03-22T11:08:58.992Z</time></trkpt><trkpt lat="43.4386017" lon="13.2436217"><ele>203.66666666666666</ele><time>2026-03-22T11:08:59.993Z</time></trkpt><trkpt lat="43.438545" lon="13.2435567"><ele>204.5</ele><time>2026-03-22T11:09:00.994Z</time></trkpt><trkpt lat="43.438465" lon="13.24347"><ele>205.33333333333331</ele><time>2026-03-22T11:09:02.994Z</time></trkpt><trkpt lat="43.43842" lon="13.243405"><ele>206.16666666666666</ele><time>2026-03-22T11:09:05.993Z</time></trkpt><trkpt lat="43.4383517" lon="13.2433467"><ele>207.0</ele><time>2026-03-22T11:09:30.992Z</time></trkpt><trkpt lat="43.4382983" lon="13.24328"><ele>207.0</ele><time>2026-03-22T11:09:31.99Z</time></trkpt><trkpt lat="43.438245" lon="13.24321"><ele>207.0</ele><time>2026-03-22T11:09:32.994Z</time></trkpt><trkpt lat="43.4381783" lon="13.2431183"><ele>207.0</ele><time>2026-03-22T11:09:33.994Z</time></trkpt><trkpt lat="43.438105" lon="13.243015"><ele>207.0</ele><time>2026-03-22T11:09:34.99Z</time></trkpt><trkpt lat="43.4380217" lon="13.2428967"><ele>207.0</ele><time>2026-03-22T11:09:35.994Z</time></trkpt><trkpt lat="43.4379267" lon="13.2427533"><ele>206.66666666666669</ele><time>2026-03-22T11:09:36.993Z</time></trkpt><trkpt lat="43.4378233" lon="13.2425883"><ele>206.33333333333334</ele><time>2026-03-22T11:09:37.991Z</time></trkpt><trkpt lat="43.4377167" lon="13.2424117"><ele>206.0</ele><time>2026-03-22T11:09:38.997Z</time></trkpt><trkpt lat="43.4375883" lon="13.2422067"><ele>206.0</ele><time>2026-03-22T11:09:39.991Z</time></trkpt><trkpt lat="43.43747" lon="13.241995"><ele>206.0</ele><time>2026-03-22T11:09:40.99Z</time></trkpt><trkpt lat="43.4373467" lon="13.24176"><ele>206.0</ele><time>2026-03-22T11:09:41.991Z</time></trkpt><trkpt lat="43.4372167" lon="13.241515"><ele>206.0</ele><time>2026-03-22T11:09:42.99Z</time></trkpt><trkpt lat="43.43708" lon="13.2412617"><ele>206.0</ele><time>2026-03-22T11:09:43.993Z</time></trkpt><trkpt lat="43.4369433" lon="13.241"><ele>206.0</ele><time>2026-03-22T11:09:44.992Z</time></trkpt><trkpt lat="43.4367983" lon="13.2407317"><ele>206.0</ele><time>2026-03-22T11:09:45.989Z</time></trkpt><trkpt lat="43.43665" lon="13.2404617"><ele>207.0</ele><time>2026-03-22T11:09:46.99Z</time></trkpt><trkpt lat="43.4364967" lon="13.2401867"><ele>208.0</ele><time>2026-03-22T11:09:47.992Z</time></trkpt><trkpt lat="43.436345" lon="13.2399117"><ele>208.5</ele><time>2026-03-22T11:09:48.992Z</time></trkpt><trkpt lat="43.4362" lon="13.2396433"><ele>209.0</ele><time>2026-03-22T11:09:49.993Z</time></trkpt><trkpt lat="43.4360717" lon="13.2393917"><ele>209.0</ele><time>2026-03-22T11:09:50.994Z</time></trkpt><trkpt lat="43.435955" lon="13.2391517"><ele>209.0</ele><time>2026-03-22T11:09:51.989Z</time></trkpt><trkpt lat="43.43584" lon="13.23892"><ele>209.0</ele><time>2026-03-22T11:09:52.989Z</time></trkpt><trkpt lat="43.43573" lon="13.238695"><ele>209.33333333333334</ele><time>2026-03-22T11:09:53.991Z</time></trkpt><trkpt lat="43.4356233" lon="13.2384667"><ele>209.66666666666669</ele><time>2026-03-22T11:09:54.993Z</time></trkpt><trkpt lat="43.435515" lon="13.2382417"><ele>210.0</ele><time>2026-03-22T11:09:55.993Z</time></trkpt><trkpt lat="43.4354083" lon="13.2380217"><ele>210.0</ele><time>2026-03-22T11:09:56.992Z</time></trkpt><trkpt lat="43.4353117" lon="13.2378117"><ele>210.0</ele><time>2026-03-22T11:09:57.993Z</time></trkpt><trkpt lat="43.4352267" lon="13.2376167"><ele>210.0</ele><time>2026-03-22T11:09:58.991Z</time></trkpt><trkpt lat="43.4351483" lon="13.2374317"><ele>212.0</ele><time>2026-03-22T11:09:59.991Z</time></trkpt><trkpt lat="43.4350717" lon="13.2372583"><ele>214.0</ele><time>2026-03-22T11:10:00.991Z</time></trkpt><trkpt lat="43.434985" lon="13.23708"><ele>216.0</ele><time>2026-03-22T11:10:01.995Z</time></trkpt><trkpt lat="43.4348817" lon="13.2369217"><ele>216.0</ele><time>2026-03-22T11:10:02.992Z</time></trkpt><trkpt lat="43.4347567" lon="13.2367917"><ele>216.0</ele><time>2026-03-22T11:10:03.99Z</time></trkpt><trkpt lat="43.43462" lon="13.236675"><ele>216.0</ele><time>2026-03-22T11:10:04.993Z</time></trkpt><trkpt lat="43.43446" lon="13.2365767"><ele>217.0</ele><time>2026-03-22T11:10:05.992Z</time></trkpt><trkpt lat="43.434285" lon="13.2365"><ele>218.0</ele><time>2026-03-22T11:10:06.997Z</time></trkpt><trkpt lat="43.4341133" lon="13.2364467"><ele>219.0</ele><time>2026-03-22T11:10:07.994Z</time></trkpt><trkpt lat="43.4339483" lon="13.2363883"><ele>214.75</ele><time>2026-03-22T11:10:08.994Z</time></trkpt><trkpt lat="43.433795" lon="13.23632"><ele>210.5</ele><time>2026-03-22T11:10:09.991Z</time></trkpt><trkpt lat="43.43366" lon="13.2362317"><ele>206.25</ele><time>2026-03-22T11:10:10.992Z</time></trkpt><trkpt lat="43.4335533" lon="13.2361267"><ele>202.0</ele><time>2026-03-22T11:10:11.991Z</time></trkpt><trkpt lat="43.4334733" lon="13.2359967"><ele>202.0</ele><time>2026-03-22T11:10:12.994Z</time></trkpt><trkpt lat="43.4334217" lon="13.2358183"><ele>202.0</ele><time>2026-03-22T11:10:13.992Z</time></trkpt><trkpt lat="43.43338" lon="13.2355917"><ele>202.0</ele><time>2026-03-22T11:10:14.992Z</time></trkpt><trkpt lat="43.4333467" lon="13.2353517"><ele>201.0</ele><time>2026-03-22T11:10:15.992Z</time></trkpt><trkpt lat="43.4333183" lon="13.2351167"><ele>200.0</ele><time>2026-03-22T11:10:16.99Z</time></trkpt><trkpt lat="43.433295" lon="13.23487"><ele>199.0</ele><time>2026-03-22T11:10:17.993Z</time></trkpt><trkpt lat="43.4332683" lon="13.2346033"><ele>197.33333333333331</ele><time>2026-03-22T11:10:18.991Z</time></trkpt><trkpt lat="43.433245" lon="13.2343367"><ele>195.66666666666669</ele><time>2026-03-22T11:10:19.993Z</time></trkpt><trkpt lat="43.4332267" lon="13.2340783"><ele>194.0</ele><time>2026-03-22T11:10:20.994Z</time></trkpt><trkpt lat="43.4332083" lon="13.2338267"><ele>194.0</ele><time>2026-03-22T11:10:21.993Z</time></trkpt><trkpt lat="43.4331933" lon="13.2335867"><ele>194.0</ele><time>2026-03-22T11:10:22.99Z</time></trkpt><trkpt lat="43.4331783" lon="13.23335"><ele>194.0</ele><time>2026-03-22T11:10:23.991Z</time></trkpt><trkpt lat="43.4331667" lon="13.233125"><ele>193.75</ele><time>2026-03-22T11:10:24.991Z</time></trkpt><trkpt lat="43.4331533" lon="13.23292"><ele>193.5</ele><time>2026-03-22T11:10:25.991Z</time></trkpt><trkpt lat="43.433125" lon="13.2327383"><ele>193.25</ele><time>2026-03-22T11:10:26.994Z</time></trkpt><trkpt lat="43.433075" lon="13.2325833"><ele>193.0</ele><time>2026-03-22T11:10:27.993Z</time></trkpt><trkpt lat="43.432985" lon="13.232445"><ele>191.0</ele><time>2026-03-22T11:10:28.991Z</time></trkpt><trkpt lat="43.4328517" lon="13.2323233"><ele>189.0</ele><time>2026-03-22T11:10:29.992Z</time></trkpt><trkpt lat="43.43267" lon="13.2322233"><ele>187.0</ele><time>2026-03-22T11:10:30.994Z</time></trkpt><trkpt lat="43.4324617" lon="13.2321383"><ele>187.0</ele><time>2026-03-22T11:10:31.989Z</time></trkpt><trkpt lat="43.4322467" lon="13.2320567"><ele>187.0</ele><time>2026-03-22T11:10:32.998Z</time></trkpt><trkpt lat="43.4320283" lon="13.2319717"><ele>186.0</ele><time>2026-03-22T11:10:33.992Z</time></trkpt><trkpt lat="43.4318033" lon="13.231885"><ele>185.0</ele><time>2026-03-22T11:10:34.992Z</time></trkpt><trkpt lat="43.4315833" lon="13.2318067"><ele>185.0</ele><time>2026-03-22T11:10:35.994Z</time></trkpt><trkpt lat="43.4313717" lon="13.2317333"><ele>185.0</ele><time>2026-03-22T11:10:36.992Z</time></trkpt><trkpt lat="43.43115" lon="13.2316633"><ele>185.0</ele><time>2026-03-22T11:10:37.993Z</time></trkpt><trkpt lat="43.4309167" lon="13.2316017"><ele>186.5</ele><time>2026-03-22T11:10:38.993Z</time></trkpt><trkpt lat="43.4306717" lon="13.2315483"><ele>188.0</ele><time>2026-03-22T11:10:39.993Z</time></trkpt><trkpt lat="43.430425" lon="13.231505"><ele>188.5</ele><time>2026-03-22T11:10:40.992Z</time></trkpt><trkpt lat="43.43018" lon="13.2314733"><ele>189.0</ele><time>2026-03-22T11:10:41.995Z</time></trkpt><trkpt lat="43.4299317" lon="13.2314517"><ele>189.0</ele><time>2026-03-22T11:10:42.995Z</time></trkpt><trkpt lat="43.4296817" lon="13.2314367"><ele>189.0</ele><time>2026-03-22T11:10:43.995Z</time></trkpt><trkpt lat="43.42943" lon="13.23143"><ele>190.0</ele><time>2026-03-22T11:10:44.994Z</time></trkpt><trkpt lat="43.42918" lon="13.2314283"><ele>191.0</ele><time>2026-03-22T11:10:45.993Z</time></trkpt><trkpt lat="43.428935" lon="13.231435"><ele>191.5</ele><time>2026-03-22T11:10:46.991Z</time></trkpt><trkpt lat="43.4286983" lon="13.231445"><ele>192.0</ele><time>2026-03-22T11:10:47.993Z</time></trkpt><trkpt lat="43.4284667" lon="13.231455"><ele>192.0</ele><time>2026-03-22T11:10:48.991Z</time></trkpt><trkpt lat="43.4282333" lon="13.23146"><ele>192.0</ele><time>2026-03-22T11:10:49.993Z</time></trkpt><trkpt lat="43.428" lon="13.2314617"><ele>190.0</ele><time>2026-03-22T11:10:50.99Z</time></trkpt><trkpt lat="43.4277633" lon="13.2314633"><ele>188.0</ele><time>2026-03-22T11:10:51.992Z</time></trkpt><trkpt lat="43.4275267" lon="13.2314667"><ele>188.0</ele><time>2026-03-22T11:10:52.991Z</time></trkpt><trkpt lat="43.4272833" lon="13.23147"><ele>188.0</ele><time>2026-03-22T11:10:53.99Z</time></trkpt><trkpt lat="43.427035" lon="13.2314683"><ele>189.5</ele><time>2026-03-22T11:10:54.991Z</time></trkpt><trkpt lat="43.4267817" lon="13.231465"><ele>191.0</ele><time>2026-03-22T11:10:55.992Z</time></trkpt><trkpt lat="43.4265283" lon="13.2314617"><ele>193.5</ele><time>2026-03-22T11:10:56.992Z</time></trkpt><trkpt lat="43.4262767" lon="13.2314533"><ele>196.0</ele><time>2026-03-22T11:10:57.991Z</time></trkpt><trkpt lat="43.426025" lon="13.2314383"><ele>196.0</ele><time>2026-03-22T11:10:58.989Z</time></trkpt><trkpt lat="43.4257733" lon="13.23142"><ele>196.0</ele><time>2026-03-22T11:10:59.991Z</time></trkpt><trkpt lat="43.4255267" lon="13.2314"><ele>199.0</ele><time>2026-03-22T11:11:00.991Z</time></trkpt><trkpt lat="43.4252783" lon="13.2313783"><ele>202.0</ele><time>2026-03-22T11:11:01.988Z</time></trkpt><trkpt lat="43.4250333" lon="13.2313583"><ele>202.0</ele><time>2026-03-22T11:11:02.989Z</time></trkpt><trkpt lat="43.424785" lon="13.23134"><ele>202.0</ele><time>2026-03-22T11:11:03.995Z</time></trkpt><trkpt lat="43.4245383" lon="13.231325"><ele>203.5</ele><time>2026-03-22T11:11:04.992Z</time></trkpt><trkpt lat="43.42429" lon="13.2313083"><ele>205.0</ele><time>2026-03-22T11:11:05.992Z</time></trkpt><trkpt lat="43.4240433" lon="13.2312783"><ele>209.0</ele><time>2026-03-22T11:11:06.991Z</time></trkpt><trkpt lat="43.4237967" lon="13.2312333"><ele>213.0</ele><time>2026-03-22T11:11:07.995Z</time></trkpt><trkpt lat="43.423555" lon="13.2311683"><ele>213.0</ele><time>2026-03-22T11:11:08.992Z</time></trkpt><trkpt lat="43.42332" lon="13.2310817"><ele>213.0</ele><time>2026-03-22T11:11:09.991Z</time></trkpt><trkpt lat="43.42309" lon="13.2309717"><ele>217.0</ele><time>2026-03-22T11:11:10.993Z</time></trkpt><trkpt lat="43.42287" lon="13.230835"><ele>221.0</ele><time>2026-03-22T11:11:11.991Z</time></trkpt><trkpt lat="43.42266" lon="13.2306783"><ele>221.5</ele><time>2026-03-22T11:11:12.992Z</time></trkpt><trkpt lat="43.4224583" lon="13.23051"><ele>222.0</ele><time>2026-03-22T11:11:13.991Z</time></trkpt><trkpt lat="43.4222683" lon="13.2303333"><ele>224.5</ele><time>2026-03-22T11:11:14.995Z</time></trkpt><trkpt lat="43.4220917" lon="13.230145"><ele>227.0</ele><time>2026-03-22T11:11:15.989Z</time></trkpt><trkpt lat="43.4219183" lon="13.2299333"><ele>226.0</ele><time>2026-03-22T11:11:16.99Z</time></trkpt><trkpt lat="43.4217533" lon="13.2296967"><ele>225.0</ele><time>2026-03-22T11:11:17.993Z</time></trkpt><trkpt lat="43.421595" lon="13.2294383"><ele>225.0</ele><time>2026-03-22T11:11:18.993Z</time></trkpt><trkpt lat="43.4214467" lon="13.2291683"><ele>225.0</ele><time>2026-03-22T11:11:19.992Z</time></trkpt><trkpt lat="43.4213133" lon="13.2288867"><ele>226.66666666666669</ele><time>2026-03-22T11:11:20.995Z</time></trkpt><trkpt lat="43.4212067" lon="13.2286083"><ele>228.33333333333334</ele><time>2026-03-22T11:11:21.99Z</time></trkpt><trkpt lat="43.4211183" lon="13.22834"><ele>230.0</ele><time>2026-03-22T11:11:22.992Z</time></trkpt><trkpt lat="43.4210417" lon="13.2280933"><ele>230.0</ele><time>2026-03-22T11:11:23.992Z</time></trkpt><trkpt lat="43.4209733" lon="13.227865"><ele>230.0</ele><time>2026-03-22T11:11:24.994Z</time></trkpt><trkpt lat="43.4209083" lon="13.2276517"><ele>230.0</ele><time>2026-03-22T11:11:25.992Z</time></trkpt><trkpt lat="43.42084" lon="13.2274633"><ele>229.5</ele><time>2026-03-22T11:11:26.995Z</time></trkpt><trkpt lat="43.42077" lon="13.227295"><ele>229.0</ele><time>2026-03-22T11:11:27.993Z</time></trkpt><trkpt lat="43.4206933" lon="13.2271483"><ele>228.5</ele><time>2026-03-22T11:11:28.992Z</time></trkpt><trkpt lat="43.4206133" lon="13.2270167"><ele>228.0</ele><time>2026-03-22T11:11:29.992Z</time></trkpt><trkpt lat="43.420515" lon="13.2268717"><ele>229.0</ele><time>2026-03-22T11:11:30.993Z</time></trkpt><trkpt lat="43.4203933" lon="13.2267017"><ele>230.0</ele><time>2026-03-22T11:11:31.997Z</time></trkpt><trkpt lat="43.420255" lon="13.22652"><ele>231.0</ele><time>2026-03-22T11:11:32.994Z</time></trkpt><trkpt lat="43.4201033" lon="13.2263333"><ele>231.0</ele><time>2026-03-22T11:11:33.992Z</time></trkpt><trkpt lat="43.41994" lon="13.22615"><ele>231.0</ele><time>2026-03-22T11:11:34.994Z</time></trkpt><trkpt lat="43.4197717" lon="13.225975"><ele>231.0</ele><time>2026-03-22T11:11:35.997Z</time></trkpt><trkpt lat="43.419605" lon="13.22581"><ele>231.33333333333331</ele><time>2026-03-22T11:11:36.993Z</time></trkpt><trkpt lat="43.4194467" lon="13.22565"><ele>231.66666666666666</ele><time>2026-03-22T11:11:37.991Z</time></trkpt><trkpt lat="43.4193" lon="13.2254967"><ele>232.0</ele><time>2026-03-22T11:11:38.994Z</time></trkpt><trkpt lat="43.4191683" lon="13.2253433"><ele>232.0</ele><time>2026-03-22T11:11:39.987Z</time></trkpt><trkpt lat="43.419035" lon="13.2251733"><ele>232.0</ele><time>2026-03-22T11:11:40.991Z</time></trkpt><trkpt lat="43.418905" lon="13.224975"><ele>232.0</ele><time>2026-03-22T11:11:41.992Z</time></trkpt><trkpt lat="43.41878" lon="13.22474"><ele>235.5</ele><time>2026-03-22T11:11:42.993Z</time></trkpt><trkpt lat="43.4186583" lon="13.2244817"><ele>239.0</ele><time>2026-03-22T11:11:43.992Z</time></trkpt><trkpt lat="43.4185417" lon="13.22421"><ele>238.0</ele><time>2026-03-22T11:11:44.993Z</time></trkpt><trkpt lat="43.4184283" lon="13.2239267"><ele>237.0</ele><time>2026-03-22T11:11:45.991Z</time></trkpt><trkpt lat="43.4183183" lon="13.2236433"><ele>237.0</ele><time>2026-03-22T11:11:46.992Z</time></trkpt><trkpt lat="43.418205" lon="13.22336"><ele>237.0</ele><time>2026-03-22T11:11:47.994Z</time></trkpt><trkpt lat="43.41809" lon="13.2230767"><ele>239.0</ele><time>2026-03-22T11:11:48.992Z</time></trkpt><trkpt lat="43.417975" lon="13.2227933"><ele>241.0</ele><time>2026-03-22T11:11:49.999Z</time></trkpt><trkpt lat="43.41786" lon="13.22251"><ele>239.0</ele><time>2026-03-22T11:11:50.996Z</time></trkpt><trkpt lat="43.4177433" lon="13.2222217"><ele>237.0</ele><time>2026-03-22T11:11:51.995Z</time></trkpt><trkpt lat="43.4176283" lon="13.2219333"><ele>237.0</ele><time>2026-03-22T11:11:52.991Z</time></trkpt><trkpt lat="43.4175117" lon="13.2216433"><ele>237.0</ele><time>2026-03-22T11:11:53.993Z</time></trkpt><trkpt lat="43.4173967" lon="13.22135"><ele>236.0</ele><time>2026-03-22T11:11:54.992Z</time></trkpt><trkpt lat="43.41728" lon="13.2210583"><ele>235.0</ele><time>2026-03-22T11:11:55.994Z</time></trkpt><trkpt lat="43.4171617" lon="13.2207683"><ele>236.0</ele><time>2026-03-22T11:11:56.995Z</time></trkpt><trkpt lat="43.4170433" lon="13.22048"><ele>237.0</ele><time>2026-03-22T11:11:57.993Z</time></trkpt><trkpt lat="43.4169283" lon="13.2201883"><ele>237.0</ele><time>2026-03-22T11:11:58.998Z</time></trkpt><trkpt lat="43.416815" lon="13.2198983"><ele>237.0</ele><time>2026-03-22T11:11:59.991Z</time></trkpt><trkpt lat="43.4167017" lon="13.2196067"><ele>236.5</ele><time>2026-03-22T11:12:00.993Z</time></trkpt><trkpt lat="43.4165933" lon="13.21932"><ele>236.0</ele><time>2026-03-22T11:12:01.994Z</time></trkpt><trkpt lat="43.4165067" lon="13.2190417"><ele>235.66666666666669</ele><time>2026-03-22T11:12:02.992Z</time></trkpt><trkpt lat="43.41644" lon="13.218765"><ele>235.33333333333331</ele><time>2026-03-22T11:12:03.993Z</time></trkpt><trkpt lat="43.416395" lon="13.21848"><ele>235.0</ele><time>2026-03-22T11:12:04.993Z</time></trkpt><trkpt lat="43.4163617" lon="13.218185"><ele>235.33333333333331</ele><time>2026-03-22T11:12:05.994Z</time></trkpt><trkpt lat="43.4163317" lon="13.217885"><ele>235.66666666666669</ele><time>2026-03-22T11:12:06.993Z</time></trkpt><trkpt lat="43.416305" lon="13.217585"><ele>236.0</ele><time>2026-03-22T11:12:07.991Z</time></trkpt><trkpt lat="43.41628" lon="13.2173033"><ele>236.66666666666669</ele><time>2026-03-22T11:12:08.99Z</time></trkpt><trkpt lat="43.41626" lon="13.2170367"><ele>237.33333333333331</ele><time>2026-03-22T11:12:09.994Z</time></trkpt><trkpt lat="43.4162383" lon="13.2167833"><ele>238.0</ele><time>2026-03-22T11:12:10.992Z</time></trkpt><trkpt lat="43.4162183" lon="13.2165483"><ele>237.75</ele><time>2026-03-22T11:12:11.992Z</time></trkpt><trkpt lat="43.4162" lon="13.2163333"><ele>237.5</ele><time>2026-03-22T11:12:12.991Z</time></trkpt><trkpt lat="43.4161833" lon="13.2161283"><ele>237.25</ele><time>2026-03-22T11:12:13.991Z</time></trkpt><trkpt lat="43.4161733" lon="13.2159433"><ele>237.0</ele><time>2026-03-22T11:12:14.991Z</time></trkpt><trkpt lat="43.4161717" lon="13.2157767"><ele>237.0</ele><time>2026-03-22T11:12:15.992Z</time></trkpt><trkpt lat="43.4161867" lon="13.21564"><ele>237.0</ele><time>2026-03-22T11:12:16.99Z</time></trkpt><trkpt lat="43.4162067" lon="13.2155333"><ele>237.0</ele><time>2026-03-22T11:12:17.991Z</time></trkpt><trkpt lat="43.4162167" lon="13.2154467"><ele>237.0</ele><time>2026-03-22T11:12:18.99Z</time></trkpt><trkpt lat="43.4161917" lon="13.2153083"><ele>237.0</ele><time>2026-03-22T11:12:20.991Z</time></trkpt><trkpt lat="43.4161383" lon="13.21525"><ele>237.0</ele><time>2026-03-22T11:12:21.991Z</time></trkpt><trkpt lat="43.4160567" lon="13.2152017"><ele>237.0</ele><time>2026-03-22T11:12:22.997Z</time></trkpt><trkpt lat="43.4159467" lon="13.215145"><ele>237.0</ele><time>2026-03-22T11:12:23.991Z</time></trkpt><trkpt lat="43.4157933" lon="13.2150783"><ele>237.0</ele><time>2026-03-22T11:12:24.992Z</time></trkpt><trkpt lat="43.415645" lon="13.2150083"><ele>237.0</ele><time>2026-03-22T11:12:25.995Z</time></trkpt><trkpt lat="43.4154867" lon="13.2149383"><ele>237.33333333333331</ele><time>2026-03-22T11:12:26.991Z</time></trkpt><trkpt lat="43.415315" lon="13.2148683"><ele>237.66666666666666</ele><time>2026-03-22T11:12:27.988Z</time></trkpt><trkpt lat="43.41514" lon="13.2147933"><ele>238.0</ele><time>2026-03-22T11:12:28.994Z</time></trkpt><trkpt lat="43.4149567" lon="13.2147167"><ele>238.0</ele><time>2026-03-22T11:12:29.99Z</time></trkpt><trkpt lat="43.4147633" lon="13.2146317"><ele>238.0</ele><time>2026-03-22T11:12:30.993Z</time></trkpt><trkpt lat="43.41456" lon="13.2145433"><ele>238.0</ele><time>2026-03-22T11:12:31.993Z</time></trkpt><trkpt lat="43.4143517" lon="13.2144533"><ele>237.66666666666666</ele><time>2026-03-22T11:12:32.999Z</time></trkpt><trkpt lat="43.414145" lon="13.2143633"><ele>237.33333333333331</ele><time>2026-03-22T11:12:33.991Z</time></trkpt><trkpt lat="43.4139367" lon="13.2142733"><ele>237.0</ele><time>2026-03-22T11:12:34.991Z</time></trkpt><trkpt lat="43.4137217" lon="13.21418"><ele>237.0</ele><time>2026-03-22T11:12:35.994Z</time></trkpt><trkpt lat="43.4134983" lon="13.2140833"><ele>237.0</ele><time>2026-03-22T11:12:36.992Z</time></trkpt><trkpt lat="43.4132683" lon="13.213985"><ele>237.0</ele><time>2026-03-22T11:12:37.994Z</time></trkpt><trkpt lat="43.41304" lon="13.2138833"><ele>237.0</ele><time>2026-03-22T11:12:38.993Z</time></trkpt><trkpt lat="43.4128217" lon="13.2137833"><ele>238.66666666666669</ele><time>2026-03-22T11:12:39.99Z</time></trkpt><trkpt lat="43.41261" lon="13.2136933"><ele>240.33333333333334</ele><time>2026-03-22T11:12:40.989Z</time></trkpt><trkpt lat="43.4124083" lon="13.213605"><ele>242.0</ele><time>2026-03-22T11:12:41.993Z</time></trkpt><trkpt lat="43.41222" lon="13.21351"><ele>242.66666666666669</ele><time>2026-03-22T11:12:42.989Z</time></trkpt><trkpt lat="43.41205" lon="13.2133833"><ele>243.33333333333331</ele><time>2026-03-22T11:12:43.993Z</time></trkpt><trkpt lat="43.411915" lon="13.21322"><ele>244.0</ele><time>2026-03-22T11:12:44.993Z</time></trkpt><trkpt lat="43.411825" lon="13.2130017"><ele>242.66666666666666</ele><time>2026-03-22T11:12:45.991Z</time></trkpt><trkpt lat="43.411745" lon="13.212755"><ele>241.33333333333331</ele><time>2026-03-22T11:12:46.99Z</time></trkpt><trkpt lat="43.41167" lon="13.2124917"><ele>240.0</ele><time>2026-03-22T11:12:47.993Z</time></trkpt><trkpt lat="43.4115967" lon="13.2122417"><ele>240.0</ele><time>2026-03-22T11:12:48.992Z</time></trkpt><trkpt lat="43.4115133" lon="13.21203"><ele>240.0</ele><time>2026-03-22T11:12:49.991Z</time></trkpt><trkpt lat="43.41141" lon="13.2118433"><ele>240.0</ele><time>2026-03-22T11:12:50.992Z</time></trkpt><trkpt lat="43.411265" lon="13.211695"><ele>240.0</ele><time>2026-03-22T11:12:51.99Z</time></trkpt><trkpt lat="43.411075" lon="13.2115983"><ele>240.0</ele><time>2026-03-22T11:12:52.992Z</time></trkpt><trkpt lat="43.4108483" lon="13.2115533"><ele>240.0</ele><time>2026-03-22T11:12:53.994Z</time></trkpt><trkpt lat="43.41061" lon="13.2115433"><ele>239.0</ele><time>2026-03-22T11:12:54.995Z</time></trkpt><trkpt lat="43.410375" lon="13.2115367"><ele>238.0</ele><time>2026-03-22T11:12:55.992Z</time></trkpt><trkpt lat="43.4101517" lon="13.211515"><ele>238.0</ele><time>2026-03-22T11:12:56.99Z</time></trkpt><trkpt lat="43.4099367" lon="13.2114933"><ele>238.0</ele><time>2026-03-22T11:12:57.992Z</time></trkpt><trkpt lat="43.4097333" lon="13.2114583"><ele>238.0</ele><time>2026-03-22T11:12:58.99Z</time></trkpt><trkpt lat="43.40954" lon="13.2113833"><ele>234.0</ele><time>2026-03-22T11:12:59.993Z</time></trkpt><trkpt lat="43.409365" lon="13.2112433"><ele>230.0</ele><time>2026-03-22T11:13:00.992Z</time></trkpt><trkpt lat="43.409205" lon="13.211055"><ele>226.0</ele><time>2026-03-22T11:13:01.991Z</time></trkpt><trkpt lat="43.4090683" lon="13.2108117"><ele>223.5</ele><time>2026-03-22T11:13:02.993Z</time></trkpt><trkpt lat="43.408915" lon="13.21057"><ele>221.0</ele><time>2026-03-22T11:13:03.991Z</time></trkpt><trkpt lat="43.4087433" lon="13.2103567"><ele>224.66666666666669</ele><time>2026-03-22T11:13:04.993Z</time></trkpt><trkpt lat="43.4085733" lon="13.210165"><ele>228.33333333333331</ele><time>2026-03-22T11:13:05.993Z</time></trkpt><trkpt lat="43.4083917" lon="13.209995"><ele>232.0</ele><time>2026-03-22T11:13:06.993Z</time></trkpt><trkpt lat="43.4081917" lon="13.2098567"><ele>232.0</ele><time>2026-03-22T11:13:07.994Z</time></trkpt><trkpt lat="43.40797" lon="13.2097833"><ele>232.0</ele><time>2026-03-22T11:13:08.996Z</time></trkpt><trkpt lat="43.407755" lon="13.2097317"><ele>232.0</ele><time>2026-03-22T11:13:09.99Z</time></trkpt><trkpt lat="43.4075617" lon="13.2096583"><ele>232.0</ele><time>2026-03-22T11:13:10.991Z</time></trkpt><trkpt lat="43.40739" lon="13.2095333"><ele>232.0</ele><time>2026-03-22T11:13:11.996Z</time></trkpt><trkpt lat="43.4072533" lon="13.2093383"><ele>232.0</ele><time>2026-03-22T11:13:12.993Z</time></trkpt><trkpt lat="43.4071367" lon="13.20908"><ele>239.0</ele><time>2026-03-22T11:13:13.994Z</time></trkpt><trkpt lat="43.4070183" lon="13.208795"><ele>246.0</ele><time>2026-03-22T11:13:14.997Z</time></trkpt><trkpt lat="43.4069" lon="13.2085083"><ele>246.0</ele><time>2026-03-22T11:13:15.991Z</time></trkpt><trkpt lat="43.4067467" lon="13.2082567"><ele>246.0</ele><time>2026-03-22T11:13:16.991Z</time></trkpt><trkpt lat="43.4065717" lon="13.20803"><ele>241.0</ele><time>2026-03-22T11:13:17.997Z</time></trkpt><trkpt lat="43.40639" lon="13.2077917"><ele>236.0</ele><time>2026-03-22T11:13:18.99Z</time></trkpt><trkpt lat="43.4062183" lon="13.2075333"><ele>249.0</ele><time>2026-03-22T11:13:19.993Z</time></trkpt><trkpt lat="43.4060567" lon="13.207255"><ele>262.0</ele><time>2026-03-22T11:13:20.992Z</time></trkpt><trkpt lat="43.4059" lon="13.2069633"><ele>262.0</ele><time>2026-03-22T11:13:21.991Z</time></trkpt><trkpt lat="43.4057533" lon="13.2066633"><ele>262.0</ele><time>2026-03-22T11:13:22.991Z</time></trkpt><trkpt lat="43.4056183" lon="13.206375"><ele>271.0</ele><time>2026-03-22T11:13:23.992Z</time></trkpt><trkpt lat="43.4054867" lon="13.20611"><ele>280.0</ele><time>2026-03-22T11:13:24.992Z</time></trkpt><trkpt lat="43.405365" lon="13.2058533"><ele>275.0</ele><time>2026-03-22T11:13:25.992Z</time></trkpt><trkpt lat="43.4052383" lon="13.2055867"><ele>270.0</ele><time>2026-03-22T11:13:26.996Z</time></trkpt><trkpt lat="43.4051117" lon="13.2053383"><ele>270.0</ele><time>2026-03-22T11:13:27.992Z</time></trkpt><trkpt lat="43.4049633" lon="13.20511"><ele>270.0</ele><time>2026-03-22T11:13:28.991Z</time></trkpt><trkpt lat="43.404815" lon="13.204915"><ele>270.0</ele><time>2026-03-22T11:13:29.994Z</time></trkpt><trkpt lat="43.4046583" lon="13.2047733"><ele>269.6666666666667</ele><time>2026-03-22T11:13:30.994Z</time></trkpt><trkpt lat="43.4045083" lon="13.2046567"><ele>269.33333333333337</ele><time>2026-03-22T11:13:31.992Z</time></trkpt><trkpt lat="43.4043683" lon="13.2045817"><ele>269.0</ele><time>2026-03-22T11:13:32.993Z</time></trkpt><trkpt lat="43.40423" lon="13.2045533"><ele>269.0</ele><time>2026-03-22T11:13:33.993Z</time></trkpt><trkpt lat="43.4040967" lon="13.2045983"><ele>269.0</ele><time>2026-03-22T11:13:34.99Z</time></trkpt><trkpt lat="43.403975" lon="13.2047267"><ele>269.0</ele><time>2026-03-22T11:13:35.991Z</time></trkpt><trkpt lat="43.4038683" lon="13.2048983"><ele>271.25</ele><time>2026-03-22T11:13:36.992Z</time></trkpt><trkpt lat="43.4037617" lon="13.2050783"><ele>273.5</ele><time>2026-03-22T11:13:37.991Z</time></trkpt><trkpt lat="43.4036517" lon="13.2052167"><ele>275.75</ele><time>2026-03-22T11:13:38.989Z</time></trkpt><trkpt lat="43.40353" lon="13.205285"><ele>278.0</ele><time>2026-03-22T11:13:39.994Z</time></trkpt><trkpt lat="43.4033933" lon="13.2052767"><ele>278.0</ele><time>2026-03-22T11:13:40.992Z</time></trkpt><trkpt lat="43.4032467" lon="13.2052283"><ele>278.0</ele><time>2026-03-22T11:13:41.99Z</time></trkpt><trkpt lat="43.4031033" lon="13.2051733"><ele>278.0</ele><time>2026-03-22T11:13:42.993Z</time></trkpt><trkpt lat="43.4029717" lon="13.2051183"><ele>278.0</ele><time>2026-03-22T11:13:43.991Z</time></trkpt><trkpt lat="43.402855" lon="13.205075"><ele>278.0</ele><time>2026-03-22T11:13:44.991Z</time></trkpt><trkpt lat="43.4027467" lon="13.2050333"><ele>278.0</ele><time>2026-03-22T11:13:45.993Z</time></trkpt><trkpt lat="43.4026383" lon="13.2049933"><ele>278.0</ele><time>2026-03-22T11:13:46.991Z</time></trkpt><trkpt lat="43.4025317" lon="13.2049433"><ele>278.0</ele><time>2026-03-22T11:13:47.991Z</time></trkpt><trkpt lat="43.4024333" lon="13.2048817"><ele>278.0</ele><time>2026-03-22T11:13:48.99Z</time></trkpt><trkpt lat="43.4023367" lon="13.2048033"><ele>278.0</ele><time>2026-03-22T11:13:49.993Z</time></trkpt><trkpt lat="43.4022433" lon="13.2047067"><ele>278.0</ele><time>2026-03-22T11:13:50.991Z</time></trkpt><trkpt lat="43.4021567" lon="13.2046033"><ele>278.0</ele><time>2026-03-22T11:13:51.992Z</time></trkpt><trkpt lat="43.4020783" lon="13.2044983"><ele>278.0</ele><time>2026-03-22T11:13:52.992Z</time></trkpt><trkpt lat="43.402005" lon="13.2044"><ele>278.0</ele><time>2026-03-22T11:13:53.992Z</time></trkpt><trkpt lat="43.4019367" lon="13.20431"><ele>279.0</ele><time>2026-03-22T11:13:54.99Z</time></trkpt><trkpt lat="43.40187" lon="13.2042267"><ele>280.0</ele><time>2026-03-22T11:13:55.992Z</time></trkpt><trkpt lat="43.401805" lon="13.2041417"><ele>281.0</ele><time>2026-03-22T11:13:56.992Z</time></trkpt><trkpt lat="43.4017317" lon="13.2040467"><ele>282.0</ele><time>2026-03-22T11:13:57.991Z</time></trkpt><trkpt lat="43.4016533" lon="13.2039433"><ele>283.0</ele><time>2026-03-22T11:13:58.994Z</time></trkpt><trkpt lat="43.4015733" lon="13.2038383"><ele>283.0</ele><time>2026-03-22T11:13:59.989Z</time></trkpt><trkpt lat="43.40149" lon="13.2037333"><ele>283.0</ele><time>2026-03-22T11:14:00.992Z</time></trkpt><trkpt lat="43.40141" lon="13.203635"><ele>283.0</ele><time>2026-03-22T11:14:01.993Z</time></trkpt><trkpt lat="43.4013317" lon="13.203545"><ele>283.0</ele><time>2026-03-22T11:14:02.993Z</time></trkpt><trkpt lat="43.4012517" lon="13.2034683"><ele>283.0</ele><time>2026-03-22T11:14:03.992Z</time></trkpt><trkpt lat="43.40116" lon="13.2034267"><ele>284.25</ele><time>2026-03-22T11:14:04.992Z</time></trkpt><trkpt lat="43.4010617" lon="13.2034217"><ele>285.5</ele><time>2026-03-22T11:14:05.993Z</time></trkpt><trkpt lat="43.4009467" lon="13.20345"><ele>286.75</ele><time>2026-03-22T11:14:06.991Z</time></trkpt><trkpt lat="43.400825" lon="13.2034933"><ele>288.0</ele><time>2026-03-22T11:14:07.993Z</time></trkpt><trkpt lat="43.400695" lon="13.2035433"><ele>288.0</ele><time>2026-03-22T11:14:08.995Z</time></trkpt><trkpt lat="43.4005683" lon="13.2036"><ele>288.0</ele><time>2026-03-22T11:14:09.99Z</time></trkpt><trkpt lat="43.4004533" lon="13.2036767"><ele>288.0</ele><time>2026-03-22T11:14:10.99Z</time></trkpt><trkpt lat="43.40035" lon="13.2037717"><ele>288.0</ele><time>2026-03-22T11:14:11.992Z</time></trkpt><trkpt lat="43.400255" lon="13.2038983"><ele>290.25</ele><time>2026-03-22T11:14:12.992Z</time></trkpt><trkpt lat="43.4001767" lon="13.2040467"><ele>292.5</ele><time>2026-03-22T11:14:13.991Z</time></trkpt><trkpt lat="43.4001167" lon="13.2042183"><ele>294.75</ele><time>2026-03-22T11:14:14.99Z</time></trkpt><trkpt lat="43.4000767" lon="13.2044167"><ele>297.0</ele><time>2026-03-22T11:14:15.987Z</time></trkpt><trkpt lat="43.4000617" lon="13.2046283"><ele>298.6666666666667</ele><time>2026-03-22T11:14:16.99Z</time></trkpt><trkpt lat="43.4000667" lon="13.2048383"><ele>300.33333333333337</ele><time>2026-03-22T11:14:17.991Z</time></trkpt><trkpt lat="43.4000717" lon="13.2050417"><ele>302.0</ele><time>2026-03-22T11:14:18.992Z</time></trkpt><trkpt lat="43.4000767" lon="13.20525"><ele>302.0</ele><time>2026-03-22T11:14:19.996Z</time></trkpt><trkpt lat="43.4000933" lon="13.2054567"><ele>302.0</ele><time>2026-03-22T11:14:20.994Z</time></trkpt><trkpt lat="43.4001183" lon="13.2056583"><ele>302.0</ele><time>2026-03-22T11:14:21.991Z</time></trkpt><trkpt lat="43.4001833" lon="13.205875"><ele>302.6666666666667</ele><time>2026-03-22T11:14:22.989Z</time></trkpt><trkpt lat="43.400275" lon="13.206125"><ele>303.3333333333333</ele><time>2026-03-22T11:14:23.992Z</time></trkpt><trkpt lat="43.40038" lon="13.2064267"><ele>304.0</ele><time>2026-03-22T11:14:24.992Z</time></trkpt><trkpt lat="43.4004917" lon="13.2067617"><ele>306.5</ele><time>2026-03-22T11:14:25.991Z</time></trkpt><trkpt lat="43.4006233" lon="13.207115"><ele>309.0</ele><time>2026-03-22T11:14:26.994Z</time></trkpt><trkpt lat="43.4007617" lon="13.2074667"><ele>309.0</ele><time>2026-03-22T11:14:27.991Z</time></trkpt><trkpt lat="43.4008883" lon="13.207795"><ele>309.0</ele><time>2026-03-22T11:14:28.99Z</time></trkpt><trkpt lat="43.4010033" lon="13.2080967"><ele>309.0</ele><time>2026-03-22T11:14:29.991Z</time></trkpt><trkpt lat="43.401105" lon="13.20837"><ele>309.0</ele><time>2026-03-22T11:14:30.993Z</time></trkpt><trkpt lat="43.401195" lon="13.208615"><ele>309.0</ele><time>2026-03-22T11:14:31.993Z</time></trkpt><trkpt lat="43.4012617" lon="13.2088417"><ele>309.25</ele><time>2026-03-22T11:14:32.991Z</time></trkpt><trkpt lat="43.401285" lon="13.2090483"><ele>309.5</ele><time>2026-03-22T11:14:33.995Z</time></trkpt><trkpt lat="43.4012433" lon="13.2092417"><ele>309.75</ele><time>2026-03-22T11:14:34.992Z</time></trkpt><trkpt lat="43.4011567" lon="13.209395"><ele>310.0</ele><time>2026-03-22T11:14:35.993Z</time></trkpt><trkpt lat="43.4010483" lon="13.2094917"><ele>310.0</ele><time>2026-03-22T11:14:36.992Z</time></trkpt><trkpt lat="43.4009117" lon="13.2095233"><ele>310.0</ele><time>2026-03-22T11:14:37.997Z</time></trkpt><trkpt lat="43.400705" lon="13.2094683"><ele>310.0</ele><time>2026-03-22T11:14:38.994Z</time></trkpt><trkpt lat="43.400475" lon="13.2093433"><ele>311.3333333333333</ele><time>2026-03-22T11:14:39.992Z</time></trkpt><trkpt lat="43.4002683" lon="13.20925"><ele>312.6666666666667</ele><time>2026-03-22T11:14:40.992Z</time></trkpt><trkpt lat="43.40009" lon="13.2091983"><ele>314.0</ele><time>2026-03-22T11:14:41.989Z</time></trkpt><trkpt lat="43.39993" lon="13.20921"><ele>314.0</ele><time>2026-03-22T11:14:42.997Z</time></trkpt><trkpt lat="43.3997933" lon="13.2092883"><ele>314.0</ele><time>2026-03-22T11:14:43.993Z</time></trkpt><trkpt lat="43.3996633" lon="13.2094067"><ele>314.0</ele><time>2026-03-22T11:14:44.994Z</time></trkpt><trkpt lat="43.3995983" lon="13.20963"><ele>320.0</ele><time>2026-03-22T11:14:45.99Z</time></trkpt><trkpt lat="43.3995833" lon="13.2099767"><ele>326.0</ele><time>2026-03-22T11:14:46.991Z</time></trkpt><trkpt lat="43.3995417" lon="13.2102967"><ele>326.0</ele><time>2026-03-22T11:14:47.991Z</time></trkpt><trkpt lat="43.3994833" lon="13.21055"><ele>326.0</ele><time>2026-03-22T11:14:48.995Z</time></trkpt><trkpt lat="43.3993833" lon="13.2107267"><ele>326.0</ele><time>2026-03-22T11:14:49.992Z</time></trkpt><trkpt lat="43.3992433" lon="13.2108217"><ele>325.25</ele><time>2026-03-22T11:14:50.993Z</time></trkpt><trkpt lat="43.3990883" lon="13.2108533"><ele>324.5</ele><time>2026-03-22T11:14:51.99Z</time></trkpt><trkpt lat="43.3989367" lon="13.2108383"><ele>323.75</ele><time>2026-03-22T11:14:52.993Z</time></trkpt><trkpt lat="43.39881" lon="13.2107767"><ele>323.0</ele><time>2026-03-22T11:14:53.992Z</time></trkpt><trkpt lat="43.3987083" lon="13.210695"><ele>325.0</ele><time>2026-03-22T11:14:54.99Z</time></trkpt><trkpt lat="43.39862" lon="13.2105867"><ele>327.0</ele><time>2026-03-22T11:14:55.992Z</time></trkpt><trkpt lat="43.3985517" lon="13.2104483"><ele>329.0</ele><time>2026-03-22T11:14:56.991Z</time></trkpt><trkpt lat="43.3985" lon="13.2103"><ele>331.0</ele><time>2026-03-22T11:14:57.992Z</time></trkpt><trkpt lat="43.3984517" lon="13.2101417"><ele>331.0</ele><time>2026-03-22T11:14:58.992Z</time></trkpt><trkpt lat="43.398405" lon="13.2099683"><ele>331.0</ele><time>2026-03-22T11:14:59.992Z</time></trkpt><trkpt lat="43.3983467" lon="13.209785"><ele>331.0</ele><time>2026-03-22T11:15:00.993Z</time></trkpt><trkpt lat="43.3982717" lon="13.2095967"><ele>331.0</ele><time>2026-03-22T11:15:01.995Z</time></trkpt><trkpt lat="43.3981933" lon="13.2094083"><ele>332.3333333333333</ele><time>2026-03-22T11:15:02.99Z</time></trkpt><trkpt lat="43.398115" lon="13.209225"><ele>333.6666666666667</ele><time>2026-03-22T11:15:03.992Z</time></trkpt><trkpt lat="43.39803" lon="13.2090517"><ele>335.0</ele><time>2026-03-22T11:15:04.994Z</time></trkpt><trkpt lat="43.3979367" lon="13.20888"><ele>336.33333333333337</ele><time>2026-03-22T11:15:05.99Z</time></trkpt><trkpt lat="43.39783" lon="13.2087067"><ele>337.6666666666667</ele><time>2026-03-22T11:15:06.991Z</time></trkpt><trkpt lat="43.397725" lon="13.20853"><ele>339.0</ele><time>2026-03-22T11:15:07.989Z</time></trkpt><trkpt lat="43.39761" lon="13.2083433"><ele>338.6666666666667</ele><time>2026-03-22T11:15:08.991Z</time></trkpt><trkpt lat="43.39748" lon="13.208125"><ele>338.33333333333337</ele><time>2026-03-22T11:15:09.991Z</time></trkpt><trkpt lat="43.3973483" lon="13.20788"><ele>338.0</ele><time>2026-03-22T11:15:10.995Z</time></trkpt><trkpt lat="43.397205" lon="13.2076133"><ele>341.0</ele><time>2026-03-22T11:15:11.996Z</time></trkpt><trkpt lat="43.3970383" lon="13.2073233"><ele>344.0</ele><time>2026-03-22T11:15:12.995Z</time></trkpt><trkpt lat="43.396865" lon="13.2070317"><ele>344.0</ele><time>2026-03-22T11:15:13.991Z</time></trkpt><trkpt lat="43.3967" lon="13.2067517"><ele>344.0</ele><time>2026-03-22T11:15:14.994Z</time></trkpt><trkpt lat="43.3965483" lon="13.2064883"><ele>342.6666666666667</ele><time>2026-03-22T11:15:15.994Z</time></trkpt><trkpt lat="43.3964067" lon="13.206245"><ele>341.3333333333333</ele><time>2026-03-22T11:15:16.993Z</time></trkpt><trkpt lat="43.3962767" lon="13.206015"><ele>340.0</ele><time>2026-03-22T11:15:17.994Z</time></trkpt><trkpt lat="43.396155" lon="13.2058067"><ele>342.3333333333333</ele><time>2026-03-22T11:15:18.992Z</time></trkpt><trkpt lat="43.3960367" lon="13.2056267"><ele>344.6666666666667</ele><time>2026-03-22T11:15:19.993Z</time></trkpt><trkpt lat="43.395905" lon="13.205505"><ele>347.0</ele><time>2026-03-22T11:15:20.993Z</time></trkpt><trkpt lat="43.395755" lon="13.2054333"><ele>347.0</ele><time>2026-03-22T11:15:21.993Z</time></trkpt><trkpt lat="43.3956067" lon="13.205385"><ele>347.0</ele><time>2026-03-22T11:15:22.992Z</time></trkpt><trkpt lat="43.39547" lon="13.20537"><ele>347.0</ele><time>2026-03-22T11:15:23.994Z</time></trkpt><trkpt lat="43.39534" lon="13.205395"><ele>347.0</ele><time>2026-03-22T11:15:24.992Z</time></trkpt><trkpt lat="43.3952117" lon="13.205455"><ele>348.0</ele><time>2026-03-22T11:15:25.989Z</time></trkpt><trkpt lat="43.3950867" lon="13.205535"><ele>349.0</ele><time>2026-03-22T11:15:26.99Z</time></trkpt><trkpt lat="43.394965" lon="13.2056133"><ele>350.0</ele><time>2026-03-22T11:15:27.988Z</time></trkpt><trkpt lat="43.3948467" lon="13.2056933"><ele>351.0</ele><time>2026-03-22T11:15:28.99Z</time></trkpt><trkpt lat="43.39473" lon="13.20577"><ele>352.0</ele><time>2026-03-22T11:15:29.992Z</time></trkpt><trkpt lat="43.3946183" lon="13.2058483"><ele>353.0</ele><time>2026-03-22T11:15:30.99Z</time></trkpt><trkpt lat="43.394515" lon="13.20592"><ele>354.0</ele><time>2026-03-22T11:15:31.992Z</time></trkpt><trkpt lat="43.394425" lon="13.205985"><ele>355.0</ele><time>2026-03-22T11:15:32.993Z</time></trkpt><trkpt lat="43.39435" lon="13.20605"><ele>356.0</ele><time>2026-03-22T11:15:33.992Z</time></trkpt><trkpt lat="43.3942883" lon="13.2061083"><ele>356.0</ele><time>2026-03-22T11:15:34.99Z</time></trkpt><trkpt lat="43.3942133" lon="13.2061267"><ele>356.0</ele><time>2026-03-22T11:15:36.99Z</time></trkpt><trkpt lat="43.3941917" lon="13.2060067"><ele>356.0</ele><time>2026-03-22T11:15:39.993Z</time></trkpt><trkpt lat="43.3941583" lon="13.205915"><ele>356.0</ele><time>2026-03-22T11:15:43.993Z</time></trkpt><trkpt lat="43.3941483" lon="13.2058183"><ele>356.0</ele><time>2026-03-22T11:15:47.992Z</time></trkpt><trkpt lat="43.3941617" lon="13.2057167"><ele>356.0</ele><time>2026-03-22T11:15:53.996Z</time></trkpt><trkpt lat="43.3941717" lon="13.20582"><ele>356.0</ele><time>2026-03-22T11:16:47.99Z</time></trkpt><trkpt lat="43.3942133" lon="13.2059833"><ele>356.0</ele><time>2026-03-22T11:16:49.992Z</time></trkpt><trkpt lat="43.39424" lon="13.2061283"><ele>356.0</ele><time>2026-03-22T11:16:51.99Z</time></trkpt><trkpt lat="43.3942267" lon="13.2062683"><ele>356.0</ele><time>2026-03-22T11:16:53.991Z</time></trkpt><trkpt lat="43.3941967" lon="13.2063683"><ele>356.0</ele><time>2026-03-22T11:16:55.001Z</time></trkpt><trkpt lat="43.39415" lon="13.20648"><ele>357.0</ele><time>2026-03-22T11:16:55.991Z</time></trkpt><trkpt lat="43.3940983" lon="13.2065967"><ele>358.0</ele><time>2026-03-22T11:16:56.993Z</time></trkpt><trkpt lat="43.3940283" lon="13.2067667"><ele>359.0</ele><time>2026-03-22T11:16:57.991Z</time></trkpt><trkpt lat="43.3939583" lon="13.206955"><ele>360.0</ele><time>2026-03-22T11:16:58.991Z</time></trkpt><trkpt lat="43.39388" lon="13.20715"><ele>362.75</ele><time>2026-03-22T11:16:59.992Z</time></trkpt><trkpt lat="43.3938" lon="13.2073433"><ele>365.5</ele><time>2026-03-22T11:17:00.992Z</time></trkpt><trkpt lat="43.3937167" lon="13.20749"><ele>368.25</ele><time>2026-03-22T11:17:01.991Z</time></trkpt><trkpt lat="43.3936167" lon="13.2076"><ele>371.0</ele><time>2026-03-22T11:17:02.994Z</time></trkpt><trkpt lat="43.3934817" lon="13.2076833"><ele>371.0</ele><time>2026-03-22T11:17:03.992Z</time></trkpt><trkpt lat="43.3933117" lon="13.2077433"><ele>371.0</ele><time>2026-03-22T11:17:04.993Z</time></trkpt><trkpt lat="43.3931317" lon="13.2078067"><ele>371.0</ele><time>2026-03-22T11:17:05.991Z</time></trkpt><trkpt lat="43.3929617" lon="13.2078633"><ele>373.0</ele><time>2026-03-22T11:17:06.989Z</time></trkpt><trkpt lat="43.3927933" lon="13.2079217"><ele>375.0</ele><time>2026-03-22T11:17:07.991Z</time></trkpt><trkpt lat="43.3926317" lon="13.2079933"><ele>377.0</ele><time>2026-03-22T11:17:08.99Z</time></trkpt><trkpt lat="43.3924933" lon="13.2080867"><ele>375.75</ele><time>2026-03-22T11:17:09.989Z</time></trkpt><trkpt lat="43.3923867" lon="13.2082033"><ele>374.5</ele><time>2026-03-22T11:17:10.989Z</time></trkpt><trkpt lat="43.3923133" lon="13.2083267"><ele>373.25</ele><time>2026-03-22T11:17:11.992Z</time></trkpt><trkpt lat="43.39228" lon="13.2084533"><ele>372.0</ele><time>2026-03-22T11:17:12.993Z</time></trkpt><trkpt lat="43.3922733" lon="13.2086033"><ele>372.0</ele><time>2026-03-22T11:17:13.99Z</time></trkpt><trkpt lat="43.3922717" lon="13.208785"><ele>372.0</ele><time>2026-03-22T11:17:14.994Z</time></trkpt><trkpt lat="43.3922633" lon="13.2089867"><ele>372.0</ele><time>2026-03-22T11:17:16.003Z</time></trkpt><trkpt lat="43.392245" lon="13.2091767"><ele>372.0</ele><time>2026-03-22T11:17:16.99Z</time></trkpt><trkpt lat="43.3922067" lon="13.2093533"><ele>373.25</ele><time>2026-03-22T11:17:17.99Z</time></trkpt><trkpt lat="43.392155" lon="13.2095167"><ele>374.5</ele><time>2026-03-22T11:17:18.989Z</time></trkpt><trkpt lat="43.3920933" lon="13.2096683"><ele>375.75</ele><time>2026-03-22T11:17:19.989Z</time></trkpt><trkpt lat="43.3920317" lon="13.2097983"><ele>377.0</ele><time>2026-03-22T11:17:20.993Z</time></trkpt><trkpt lat="43.3919717" lon="13.2099167"><ele>377.0</ele><time>2026-03-22T11:17:21.993Z</time></trkpt><trkpt lat="43.3919267" lon="13.21002"><ele>377.0</ele><time>2026-03-22T11:17:22.992Z</time></trkpt><trkpt lat="43.39189" lon="13.210115"><ele>377.0</ele><time>2026-03-22T11:17:23.991Z</time></trkpt><trkpt lat="43.3918667" lon="13.210205"><ele>377.0</ele><time>2026-03-22T11:17:24.989Z</time></trkpt><trkpt lat="43.3919017" lon="13.21033"><ele>377.0</ele><time>2026-03-22T11:17:26.993Z</time></trkpt><trkpt lat="43.3920933" lon="13.21031"><ele>372.75</ele><time>2026-03-22T11:17:28.989Z</time></trkpt><trkpt lat="43.39223" lon="13.2102717"><ele>368.5</ele><time>2026-03-22T11:17:29.99Z</time></trkpt><trkpt lat="43.3923767" lon="13.2102783"><ele>364.25</ele><time>2026-03-22T11:17:30.988Z</time></trkpt><trkpt lat="43.39251" lon="13.2103367"><ele>360.0</ele><time>2026-03-22T11:17:31.991Z</time></trkpt><trkpt lat="43.3926333" lon="13.210415"><ele>360.0</ele><time>2026-03-22T11:17:32.995Z</time></trkpt><trkpt lat="43.3927383" lon="13.2105317"><ele>360.0</ele><time>2026-03-22T11:17:33.993Z</time></trkpt><trkpt lat="43.3928083" lon="13.2106617"><ele>360.0</ele><time>2026-03-22T11:17:34.99Z</time></trkpt><trkpt lat="43.3928467" lon="13.21082"><ele>360.0</ele><time>2026-03-22T11:17:35.989Z</time></trkpt><trkpt lat="43.3928717" lon="13.210985"><ele>357.5</ele><time>2026-03-22T11:17:36.99Z</time></trkpt><trkpt lat="43.3928917" lon="13.21115"><ele>355.0</ele><time>2026-03-22T11:17:37.991Z</time></trkpt><trkpt lat="43.3929117" lon="13.2113183"><ele>352.5</ele><time>2026-03-22T11:17:38.994Z</time></trkpt><trkpt lat="43.3929517" lon="13.211475"><ele>350.0</ele><time>2026-03-22T11:17:39.99Z</time></trkpt><trkpt lat="43.3930117" lon="13.2116233"><ele>346.5</ele><time>2026-03-22T11:17:40.992Z</time></trkpt><trkpt lat="43.3930967" lon="13.2117517"><ele>343.0</ele><time>2026-03-22T11:17:41.993Z</time></trkpt><trkpt lat="43.393185" lon="13.2118533"><ele>339.5</ele><time>2026-03-22T11:17:42.991Z</time></trkpt><trkpt lat="43.39329" lon="13.2119217"><ele>336.0</ele><time>2026-03-22T11:17:43.991Z</time></trkpt><trkpt lat="43.3933867" lon="13.2119583"><ele>336.0</ele><time>2026-03-22T11:17:44.988Z</time></trkpt><trkpt lat="43.3934833" lon="13.2119733"><ele>336.0</ele><time>2026-03-22T11:17:45.991Z</time></trkpt><trkpt lat="43.3935567" lon="13.2119833"><ele>336.0</ele><time>2026-03-22T11:17:46.99Z</time></trkpt><trkpt lat="43.39362" lon="13.212"><ele>336.0</ele><time>2026-03-22T11:17:47.991Z</time></trkpt><trkpt lat="43.393695" lon="13.2120283"><ele>336.0</ele><time>2026-03-22T11:17:49.992Z</time></trkpt><trkpt lat="43.39368" lon="13.2121217"><ele>336.0</ele><time>2026-03-22T11:17:52.988Z</time></trkpt><trkpt lat="43.39355" lon="13.2121767"><ele>336.0</ele><time>2026-03-22T11:17:54.991Z</time></trkpt><trkpt lat="43.3934333" lon="13.2121967"><ele>336.0</ele><time>2026-03-22T11:17:55.988Z</time></trkpt><trkpt lat="43.3933083" lon="13.2122133"><ele>336.0</ele><time>2026-03-22T11:17:56.993Z</time></trkpt><trkpt lat="43.3931333" lon="13.2122383"><ele>336.0</ele><time>2026-03-22T11:17:57.988Z</time></trkpt><trkpt lat="43.3929617" lon="13.2122633"><ele>337.0</ele><time>2026-03-22T11:17:58.991Z</time></trkpt><trkpt lat="43.3928033" lon="13.2122967"><ele>338.0</ele><time>2026-03-22T11:17:59.992Z</time></trkpt><trkpt lat="43.39266" lon="13.2123533"><ele>339.0</ele><time>2026-03-22T11:18:00.992Z</time></trkpt><trkpt lat="43.39254" lon="13.212455"><ele>336.25</ele><time>2026-03-22T11:18:01.994Z</time></trkpt><trkpt lat="43.3924433" lon="13.2126017"><ele>333.5</ele><time>2026-03-22T11:18:02.991Z</time></trkpt><trkpt lat="43.3923767" lon="13.2127783"><ele>330.75</ele><time>2026-03-22T11:18:03.993Z</time></trkpt><trkpt lat="43.39235" lon="13.21298"><ele>328.0</ele><time>2026-03-22T11:18:04.992Z</time></trkpt><trkpt lat="43.3923583" lon="13.2131967"><ele>327.0</ele><time>2026-03-22T11:18:05.991Z</time></trkpt><trkpt lat="43.3923833" lon="13.2134017"><ele>326.0</ele><time>2026-03-22T11:18:06.995Z</time></trkpt><trkpt lat="43.39239" lon="13.213585"><ele>325.0</ele><time>2026-03-22T11:18:07.99Z</time></trkpt><trkpt lat="43.392365" lon="13.213765"><ele>324.0</ele><time>2026-03-22T11:18:08.991Z</time></trkpt><trkpt lat="43.3923067" lon="13.2139567"><ele>324.0</ele><time>2026-03-22T11:18:09.992Z</time></trkpt><trkpt lat="43.3922267" lon="13.2141533"><ele>324.0</ele><time>2026-03-22T11:18:10.993Z</time></trkpt><trkpt lat="43.3921317" lon="13.2143633"><ele>324.0</ele><time>2026-03-22T11:18:11.991Z</time></trkpt><trkpt lat="43.3920367" lon="13.2146"><ele>324.3333333333333</ele><time>2026-03-22T11:18:12.998Z</time></trkpt><trkpt lat="43.391945" lon="13.2148567"><ele>324.66666666666663</ele><time>2026-03-22T11:18:13.99Z</time></trkpt><trkpt lat="43.39188" lon="13.2151167"><ele>325.0</ele><time>2026-03-22T11:18:14.996Z</time></trkpt><trkpt lat="43.3918417" lon="13.2153783"><ele>325.0</ele><time>2026-03-22T11:18:15.996Z</time></trkpt><trkpt lat="43.3918217" lon="13.21564"><ele>325.0</ele><time>2026-03-22T11:18:16.99Z</time></trkpt><trkpt lat="43.3918183" lon="13.215895"><ele>325.0</ele><time>2026-03-22T11:18:17.992Z</time></trkpt><trkpt lat="43.3918467" lon="13.216145"><ele>325.3333333333333</ele><time>2026-03-22T11:18:18.994Z</time></trkpt><trkpt lat="43.3919133" lon="13.2163983"><ele>325.6666666666667</ele><time>2026-03-22T11:18:19.991Z</time></trkpt><trkpt lat="43.3919983" lon="13.21664"><ele>326.0</ele><time>2026-03-22T11:18:20.993Z</time></trkpt><trkpt lat="43.3920683" lon="13.21686"><ele>326.25</ele><time>2026-03-22T11:18:21.991Z</time></trkpt><trkpt lat="43.3921017" lon="13.217075"><ele>326.5</ele><time>2026-03-22T11:18:22.992Z</time></trkpt><trkpt lat="43.3921117" lon="13.2172817"><ele>326.75</ele><time>2026-03-22T11:18:23.991Z</time></trkpt><trkpt lat="43.3921" lon="13.21747"><ele>327.0</ele><time>2026-03-22T11:18:24.993Z</time></trkpt><trkpt lat="43.3920633" lon="13.21764"><ele>327.0</ele><time>2026-03-22T11:18:25.992Z</time></trkpt><trkpt lat="43.392" lon="13.21778"><ele>327.0</ele><time>2026-03-22T11:18:26.998Z</time></trkpt><trkpt lat="43.3919167" lon="13.2178733"><ele>327.0</ele><time>2026-03-22T11:18:27.992Z</time></trkpt><trkpt lat="43.39179" lon="13.2179283"><ele>327.0</ele><time>2026-03-22T11:18:28.994Z</time></trkpt><trkpt lat="43.3916117" lon="13.2179483"><ele>327.0</ele><time>2026-03-22T11:18:29.991Z</time></trkpt><trkpt lat="43.3914083" lon="13.2179783"><ele>327.0</ele><time>2026-03-22T11:18:30.993Z</time></trkpt><trkpt lat="43.3912083" lon="13.2180267"><ele>327.0</ele><time>2026-03-22T11:18:31.992Z</time></trkpt><trkpt lat="43.391005" lon="13.2180783"><ele>327.6666666666667</ele><time>2026-03-22T11:18:32.999Z</time></trkpt><trkpt lat="43.3907933" lon="13.2181333"><ele>328.33333333333337</ele><time>2026-03-22T11:18:33.993Z</time></trkpt><trkpt lat="43.3905867" lon="13.2181967"><ele>329.0</ele><time>2026-03-22T11:18:34.99Z</time></trkpt><trkpt lat="43.39039" lon="13.2182817"><ele>324.0</ele><time>2026-03-22T11:18:35.992Z</time></trkpt><trkpt lat="43.390215" lon="13.218405"><ele>319.0</ele><time>2026-03-22T11:18:36.994Z</time></trkpt><trkpt lat="43.39006" lon="13.2185667"><ele>314.0</ele><time>2026-03-22T11:18:37.991Z</time></trkpt><trkpt lat="43.3899283" lon="13.2187633"><ele>312.33333333333337</ele><time>2026-03-22T11:18:38.993Z</time></trkpt><trkpt lat="43.3898183" lon="13.2189883"><ele>310.6666666666667</ele><time>2026-03-22T11:18:39.991Z</time></trkpt><trkpt lat="43.3897183" lon="13.2192333"><ele>309.0</ele><time>2026-03-22T11:18:40.991Z</time></trkpt><trkpt lat="43.3896083" lon="13.2194783"><ele>310.6666666666667</ele><time>2026-03-22T11:18:41.993Z</time></trkpt><trkpt lat="43.3894917" lon="13.2197083"><ele>312.33333333333337</ele><time>2026-03-22T11:18:42.993Z</time></trkpt><trkpt lat="43.3893633" lon="13.2198967"><ele>314.0</ele><time>2026-03-22T11:18:43.992Z</time></trkpt><trkpt lat="43.3892167" lon="13.22004"><ele>314.0</ele><time>2026-03-22T11:18:44.993Z</time></trkpt><trkpt lat="43.3890483" lon="13.2201517"><ele>314.0</ele><time>2026-03-22T11:18:45.991Z</time></trkpt><trkpt lat="43.3888667" lon="13.2202333"><ele>314.0</ele><time>2026-03-22T11:18:46.991Z</time></trkpt><trkpt lat="43.3886783" lon="13.2202933"><ele>315.0</ele><time>2026-03-22T11:18:47.987Z</time></trkpt><trkpt lat="43.388495" lon="13.220335"><ele>316.0</ele><time>2026-03-22T11:18:48.994Z</time></trkpt><trkpt lat="43.3883167" lon="13.220345"><ele>317.0</ele><time>2026-03-22T11:18:49.991Z</time></trkpt><trkpt lat="43.3881617" lon="13.220315"><ele>317.0</ele><time>2026-03-22T11:18:50.992Z</time></trkpt><trkpt lat="43.388015" lon="13.2202683"><ele>317.0</ele><time>2026-03-22T11:18:51.987Z</time></trkpt><trkpt lat="43.38788" lon="13.2202383"><ele>317.0</ele><time>2026-03-22T11:18:52.988Z</time></trkpt><trkpt lat="43.3877517" lon="13.2202767"><ele>317.0</ele><time>2026-03-22T11:18:53.992Z</time></trkpt><trkpt lat="43.3876383" lon="13.220365"><ele>317.75</ele><time>2026-03-22T11:18:54.991Z</time></trkpt><trkpt lat="43.38757" lon="13.2204967"><ele>318.5</ele><time>2026-03-22T11:18:55.992Z</time></trkpt><trkpt lat="43.3875517" lon="13.2206783"><ele>319.25</ele><time>2026-03-22T11:18:56.994Z</time></trkpt><trkpt lat="43.3876033" lon="13.2208867"><ele>320.0</ele><time>2026-03-22T11:18:57.993Z</time></trkpt><trkpt lat="43.38769" lon="13.2210683"><ele>320.0</ele><time>2026-03-22T11:18:58.99Z</time></trkpt><trkpt lat="43.3878283" lon="13.2212333"><ele>320.0</ele><time>2026-03-22T11:18:59.991Z</time></trkpt><trkpt lat="43.3880117" lon="13.2213783"><ele>320.0</ele><time>2026-03-22T11:19:00.993Z</time></trkpt><trkpt lat="43.388205" lon="13.2215467"><ele>316.6666666666667</ele><time>2026-03-22T11:19:01.992Z</time></trkpt><trkpt lat="43.3883767" lon="13.2217467"><ele>313.3333333333333</ele><time>2026-03-22T11:19:02.991Z</time></trkpt><trkpt lat="43.3885333" lon="13.22196"><ele>310.0</ele><time>2026-03-22T11:19:03.993Z</time></trkpt><trkpt lat="43.388675" lon="13.2221433"><ele>310.0</ele><time>2026-03-22T11:19:04.99Z</time></trkpt><trkpt lat="43.3888133" lon="13.22229"><ele>310.0</ele><time>2026-03-22T11:19:05.991Z</time></trkpt><trkpt lat="43.3889333" lon="13.2224217"><ele>310.0</ele><time>2026-03-22T11:19:06.992Z</time></trkpt><trkpt lat="43.3890067" lon="13.2225533"><ele>310.0</ele><time>2026-03-22T11:19:07.992Z</time></trkpt><trkpt lat="43.3890267" lon="13.2226833"><ele>310.75</ele><time>2026-03-22T11:19:08.991Z</time></trkpt><trkpt lat="43.3890017" lon="13.2227967"><ele>311.5</ele><time>2026-03-22T11:19:09.99Z</time></trkpt><trkpt lat="43.38894" lon="13.2228933"><ele>312.25</ele><time>2026-03-22T11:19:10.991Z</time></trkpt><trkpt lat="43.388825" lon="13.2229767"><ele>313.0</ele><time>2026-03-22T11:19:11.993Z</time></trkpt><trkpt lat="43.3886817" lon="13.2230633"><ele>311.0</ele><time>2026-03-22T11:19:12.993Z</time></trkpt><trkpt lat="43.3885383" lon="13.2231583"><ele>309.0</ele><time>2026-03-22T11:19:13.991Z</time></trkpt><trkpt lat="43.388415" lon="13.2232917"><ele>307.0</ele><time>2026-03-22T11:19:14.99Z</time></trkpt><trkpt lat="43.3883233" lon="13.2234633"><ele>307.0</ele><time>2026-03-22T11:19:15.992Z</time></trkpt><trkpt lat="43.3882583" lon="13.2236517"><ele>307.0</ele><time>2026-03-22T11:19:16.992Z</time></trkpt><trkpt lat="43.38822" lon="13.2238483"><ele>307.0</ele><time>2026-03-22T11:19:17.992Z</time></trkpt><trkpt lat="43.388195" lon="13.22405"><ele>307.0</ele><time>2026-03-22T11:19:18.988Z</time></trkpt><trkpt lat="43.3881667" lon="13.2242433"><ele>305.5</ele><time>2026-03-22T11:19:19.993Z</time></trkpt><trkpt lat="43.388125" lon="13.2244283"><ele>304.0</ele><time>2026-03-22T11:19:20.991Z</time></trkpt><trkpt lat="43.38806" lon="13.2245867"><ele>302.5</ele><time>2026-03-22T11:19:21.99Z</time></trkpt><trkpt lat="43.3879667" lon="13.2246933"><ele>301.0</ele><time>2026-03-22T11:19:22.99Z</time></trkpt><trkpt lat="43.3878433" lon="13.2247583"><ele>301.0</ele><time>2026-03-22T11:19:23.991Z</time></trkpt><trkpt lat="43.3876983" lon="13.2247883"><ele>301.0</ele><time>2026-03-22T11:19:24.993Z</time></trkpt><trkpt lat="43.3875567" lon="13.22478"><ele>301.0</ele><time>2026-03-22T11:19:25.987Z</time></trkpt><trkpt lat="43.387425" lon="13.2247283"><ele>301.0</ele><time>2026-03-22T11:19:26.993Z</time></trkpt><trkpt lat="43.3873083" lon="13.2246583"><ele>301.0</ele><time>2026-03-22T11:19:27.996Z</time></trkpt><trkpt lat="43.3872033" lon="13.2245783"><ele>301.0</ele><time>2026-03-22T11:19:28.99Z</time></trkpt><trkpt lat="43.387105" lon="13.2245283"><ele>301.0</ele><time>2026-03-22T11:19:29.991Z</time></trkpt><trkpt lat="43.387015" lon="13.22453"><ele>301.0</ele><time>2026-03-22T11:19:30.988Z</time></trkpt><trkpt lat="43.3869233" lon="13.224565"><ele>301.0</ele><time>2026-03-22T11:19:31.989Z</time></trkpt><trkpt lat="43.38686" lon="13.2246433"><ele>300.75</ele><time>2026-03-22T11:19:32.992Z</time></trkpt><trkpt lat="43.386805" lon="13.2247633"><ele>300.5</ele><time>2026-03-22T11:19:33.993Z</time></trkpt><trkpt lat="43.3867533" lon="13.2249117"><ele>300.25</ele><time>2026-03-22T11:19:34.992Z</time></trkpt><trkpt lat="43.386725" lon="13.2251617"><ele>300.0</ele><time>2026-03-22T11:19:35.994Z</time></trkpt><trkpt lat="43.3867067" lon="13.225425"><ele>298.3333333333333</ele><time>2026-03-22T11:19:36.99Z</time></trkpt><trkpt lat="43.3866783" lon="13.22572"><ele>296.66666666666663</ele><time>2026-03-22T11:19:37.992Z</time></trkpt><trkpt lat="43.3866383" lon="13.2260083"><ele>295.0</ele><time>2026-03-22T11:19:38.992Z</time></trkpt><trkpt lat="43.3865983" lon="13.2262833"><ele>295.0</ele><time>2026-03-22T11:19:39.993Z</time></trkpt><trkpt lat="43.3865683" lon="13.2265517"><ele>295.0</ele><time>2026-03-22T11:19:40.992Z</time></trkpt><trkpt lat="43.386555" lon="13.2268167"><ele>295.0</ele><time>2026-03-22T11:19:41.993Z</time></trkpt><trkpt lat="43.386565" lon="13.22709"><ele>295.66666666666663</ele><time>2026-03-22T11:19:42.993Z</time></trkpt><trkpt lat="43.3865783" lon="13.227345"><ele>296.3333333333333</ele><time>2026-03-22T11:19:43.991Z</time></trkpt><trkpt lat="43.386575" lon="13.2275817"><ele>297.0</ele><time>2026-03-22T11:19:44.997Z</time></trkpt><trkpt lat="43.386545" lon="13.2277983"><ele>297.0</ele><time>2026-03-22T11:19:45.995Z</time></trkpt><trkpt lat="43.3865067" lon="13.2279867"><ele>297.0</ele><time>2026-03-22T11:19:46.994Z</time></trkpt><trkpt lat="43.386465" lon="13.22815"><ele>297.0</ele><time>2026-03-22T11:19:47.99Z</time></trkpt><trkpt lat="43.3864317" lon="13.2283"><ele>297.0</ele><time>2026-03-22T11:19:48.993Z</time></trkpt><trkpt lat="43.3864067" lon="13.228445"><ele>296.4</ele><time>2026-03-22T11:19:49.993Z</time></trkpt><trkpt lat="43.3863883" lon="13.2285867"><ele>295.79999999999995</ele><time>2026-03-22T11:19:50.991Z</time></trkpt><trkpt lat="43.386385" lon="13.228735"><ele>295.2</ele><time>2026-03-22T11:19:51.99Z</time></trkpt><trkpt lat="43.3863933" lon="13.22889"><ele>294.59999999999997</ele><time>2026-03-22T11:19:52.992Z</time></trkpt><trkpt lat="43.3864067" lon="13.229045"><ele>294.0</ele><time>2026-03-22T11:19:53.992Z</time></trkpt><trkpt lat="43.38643" lon="13.2291983"><ele>295.4</ele><time>2026-03-22T11:19:54.994Z</time></trkpt><trkpt lat="43.38645" lon="13.2293517"><ele>296.79999999999995</ele><time>2026-03-22T11:19:55.995Z</time></trkpt><trkpt lat="43.3864817" lon="13.2294983"><ele>298.20000000000005</ele><time>2026-03-22T11:19:56.991Z</time></trkpt><trkpt lat="43.386515" lon="13.2296317"><ele>299.6</ele><time>2026-03-22T11:19:57.993Z</time></trkpt><trkpt lat="43.3865467" lon="13.2297533"><ele>301.0</ele><time>2026-03-22T11:19:58.993Z</time></trkpt><trkpt lat="43.3865683" lon="13.229865"><ele>302.5</ele><time>2026-03-22T11:19:59.993Z</time></trkpt><trkpt lat="43.38659" lon="13.2299567"><ele>304.0</ele><time>2026-03-22T11:20:00.991Z</time></trkpt><trkpt lat="43.3866267" lon="13.230085"><ele>305.5</ele><time>2026-03-22T11:20:02.989Z</time></trkpt><trkpt lat="43.3866617" lon="13.2301683"><ele>307.0</ele><time>2026-03-22T11:20:04.987Z</time></trkpt><trkpt lat="43.3866917" lon="13.2302833"><ele>308.5</ele><time>2026-03-22T11:20:07.988Z</time></trkpt><trkpt lat="43.38661" lon="13.2302583"><ele>310.0</ele><time>2026-03-22T11:20:11.001Z</time></trkpt><trkpt lat="43.3865217" lon="13.2300967"><ele>310.0</ele><time>2026-03-22T11:20:12.991Z</time></trkpt><trkpt lat="43.3864633" lon="13.2300033"><ele>310.0</ele><time>2026-03-22T11:20:13.99Z</time></trkpt><trkpt lat="43.3864" lon="13.22992"><ele>310.0</ele><time>2026-03-22T11:20:14.991Z</time></trkpt><trkpt lat="43.3863333" lon="13.2298583"><ele>310.0</ele><time>2026-03-22T11:20:15.99Z</time></trkpt><trkpt lat="43.3862667" lon="13.2298117"><ele>310.0</ele><time>2026-03-22T11:20:16.991Z</time></trkpt><trkpt lat="43.3862033" lon="13.2297767"><ele>310.0</ele><time>2026-03-22T11:20:17.99Z</time></trkpt><trkpt lat="43.3861333" lon="13.2297533"><ele>312.16666666666663</ele><time>2026-03-22T11:20:18.988Z</time></trkpt><trkpt lat="43.3860617" lon="13.2297367"><ele>314.3333333333333</ele><time>2026-03-22T11:20:19.992Z</time></trkpt><trkpt lat="43.385945" lon="13.229705"><ele>316.5</ele><time>2026-03-22T11:20:21.991Z</time></trkpt><trkpt lat="43.385885" lon="13.22967"><ele>318.6666666666667</ele><time>2026-03-22T11:20:22.991Z</time></trkpt><trkpt lat="43.3858133" lon="13.2296183"><ele>320.83333333333337</ele><time>2026-03-22T11:20:24.003Z</time></trkpt><trkpt lat="43.3857333" lon="13.22956"><ele>323.0</ele><time>2026-03-22T11:20:24.989Z</time></trkpt><trkpt lat="43.3856233" lon="13.2294467"><ele>323.0</ele><time>2026-03-22T11:20:25.991Z</time></trkpt><trkpt lat="43.3855183" lon="13.2293067"><ele>323.0</ele><time>2026-03-22T11:20:26.992Z</time></trkpt><trkpt lat="43.3854167" lon="13.2291667"><ele>323.0</ele><time>2026-03-22T11:20:27.99Z</time></trkpt><trkpt lat="43.3853167" lon="13.229035"><ele>323.0</ele><time>2026-03-22T11:20:28.993Z</time></trkpt><trkpt lat="43.3852267" lon="13.228905"><ele>326.25</ele><time>2026-03-22T11:20:29.994Z</time></trkpt><trkpt lat="43.3851317" lon="13.2287733"><ele>329.5</ele><time>2026-03-22T11:20:30.995Z</time></trkpt><trkpt lat="43.3850433" lon="13.22863"><ele>332.75</ele><time>2026-03-22T11:20:31.989Z</time></trkpt><trkpt lat="43.3849633" lon="13.2284583"><ele>336.0</ele><time>2026-03-22T11:20:32.993Z</time></trkpt><trkpt lat="43.3848917" lon="13.2282483"><ele>336.3333333333333</ele><time>2026-03-22T11:20:33.996Z</time></trkpt><trkpt lat="43.3847983" lon="13.228035"><ele>336.66666666666663</ele><time>2026-03-22T11:20:34.993Z</time></trkpt><trkpt lat="43.384685" lon="13.227835"><ele>337.0</ele><time>2026-03-22T11:20:35.992Z</time></trkpt><trkpt lat="43.384555" lon="13.2276117"><ele>338.0</ele><time>2026-03-22T11:20:36.995Z</time></trkpt><trkpt lat="43.38442" lon="13.2273917"><ele>339.0</ele><time>2026-03-22T11:20:37.992Z</time></trkpt><trkpt lat="43.3842883" lon="13.2271933"><ele>340.0</ele><time>2026-03-22T11:20:38.996Z</time></trkpt><trkpt lat="43.3841633" lon="13.2270383"><ele>341.75</ele><time>2026-03-22T11:20:39.995Z</time></trkpt><trkpt lat="43.3840317" lon="13.2269383"><ele>343.5</ele><time>2026-03-22T11:20:40.994Z</time></trkpt><trkpt lat="43.383885" lon="13.2269067"><ele>345.25</ele><time>2026-03-22T11:20:41.989Z</time></trkpt><trkpt lat="43.3837433" lon="13.226925"><ele>347.0</ele><time>2026-03-22T11:20:42.987Z</time></trkpt><trkpt lat="43.3835783" lon="13.227"><ele>351.0</ele><time>2026-03-22T11:20:43.989Z</time></trkpt><trkpt lat="43.3834033" lon="13.22709"><ele>355.0</ele><time>2026-03-22T11:20:44.992Z</time></trkpt><trkpt lat="43.3832233" lon="13.2271567"><ele>359.0</ele><time>2026-03-22T11:20:45.99Z</time></trkpt><trkpt lat="43.3830333" lon="13.227175"><ele>362.0</ele><time>2026-03-22T11:20:46.994Z</time></trkpt><trkpt lat="43.3828267" lon="13.2271567"><ele>365.0</ele><time>2026-03-22T11:20:47.993Z</time></trkpt><trkpt lat="43.38263" lon="13.2271367"><ele>368.0</ele><time>2026-03-22T11:20:48.993Z</time></trkpt><trkpt lat="43.3824417" lon="13.2271267"><ele>368.0</ele><time>2026-03-22T11:20:49.994Z</time></trkpt><trkpt lat="43.3822533" lon="13.2271317"><ele>368.0</ele><time>2026-03-22T11:20:50.993Z</time></trkpt><trkpt lat="43.3820567" lon="13.2271517"><ele>368.0</ele><time>2026-03-22T11:20:51.989Z</time></trkpt><trkpt lat="43.3818533" lon="13.22718"><ele>372.0</ele><time>2026-03-22T11:20:52.992Z</time></trkpt><trkpt lat="43.3816583" lon="13.227215"><ele>376.0</ele><time>2026-03-22T11:20:53.993Z</time></trkpt><trkpt lat="43.3814817" lon="13.2272483"><ele>380.0</ele><time>2026-03-22T11:20:54.991Z</time></trkpt><trkpt lat="43.38133" lon="13.2272983"><ele>382.0</ele><time>2026-03-22T11:20:55.992Z</time></trkpt><trkpt lat="43.3812017" lon="13.2273817"><ele>384.0</ele><time>2026-03-22T11:20:56.99Z</time></trkpt><trkpt lat="43.3810917" lon="13.2275117"><ele>386.0</ele><time>2026-03-22T11:20:57.993Z</time></trkpt><trkpt lat="43.3809933" lon="13.2276917"><ele>386.0</ele><time>2026-03-22T11:20:58.986Z</time></trkpt><trkpt lat="43.3809033" lon="13.2278767"><ele>386.0</ele><time>2026-03-22T11:20:59.99Z</time></trkpt><trkpt lat="43.380815" lon="13.2280233"><ele>386.0</ele><time>2026-03-22T11:21:00.991Z</time></trkpt><trkpt lat="43.38073" lon="13.2281267"><ele>386.0</ele><time>2026-03-22T11:21:01.99Z</time></trkpt><trkpt lat="43.38066" lon="13.2282"><ele>384.8</ele><time>2026-03-22T11:21:02.991Z</time></trkpt><trkpt lat="43.380605" lon="13.2282767"><ele>383.6</ele><time>2026-03-22T11:21:03.99Z</time></trkpt><trkpt lat="43.3805617" lon="13.2283717"><ele>382.4</ele><time>2026-03-22T11:21:04.994Z</time></trkpt><trkpt lat="43.3805217" lon="13.2285033"><ele>381.2</ele><time>2026-03-22T11:21:05.99Z</time></trkpt><trkpt lat="43.3804667" lon="13.2286783"><ele>380.0</ele><time>2026-03-22T11:21:06.989Z</time></trkpt><trkpt lat="43.3803867" lon="13.22885"><ele>382.0</ele><time>2026-03-22T11:21:07.992Z</time></trkpt><trkpt lat="43.38027" lon="13.2290467"><ele>384.0</ele><time>2026-03-22T11:21:08.99Z</time></trkpt><trkpt lat="43.38019" lon="13.22925"><ele>386.0</ele><time>2026-03-22T11:21:09.99Z</time></trkpt><trkpt lat="43.3801533" lon="13.2294717"><ele>386.0</ele><time>2026-03-22T11:21:10.986Z</time></trkpt><trkpt lat="43.3801617" lon="13.229735"><ele>386.0</ele><time>2026-03-22T11:21:11.993Z</time></trkpt><trkpt lat="43.3802" lon="13.2300167"><ele>386.0</ele><time>2026-03-22T11:21:12.992Z</time></trkpt><trkpt lat="43.3802567" lon="13.2302767"><ele>383.75</ele><time>2026-03-22T11:21:13.994Z</time></trkpt><trkpt lat="43.3803217" lon="13.2304967"><ele>381.5</ele><time>2026-03-22T11:21:14.993Z</time></trkpt><trkpt lat="43.38038" lon="13.2306867"><ele>379.25</ele><time>2026-03-22T11:21:15.991Z</time></trkpt><trkpt lat="43.3804133" lon="13.230855"><ele>377.0</ele><time>2026-03-22T11:21:16.991Z</time></trkpt><trkpt lat="43.3804067" lon="13.2310083"><ele>375.75</ele><time>2026-03-22T11:21:17.992Z</time></trkpt><trkpt lat="43.380345" lon="13.2311433"><ele>374.5</ele><time>2026-03-22T11:21:18.99Z</time></trkpt><trkpt lat="43.3802383" lon="13.2312783"><ele>373.25</ele><time>2026-03-22T11:21:19.994Z</time></trkpt><trkpt lat="43.3801" lon="13.231415"><ele>372.0</ele><time>2026-03-22T11:21:20.987Z</time></trkpt><trkpt lat="43.3799517" lon="13.2315617"><ele>368.3333333333333</ele><time>2026-03-22T11:21:21.99Z</time></trkpt><trkpt lat="43.3798283" lon="13.231735"><ele>364.66666666666663</ele><time>2026-03-22T11:21:22.992Z</time></trkpt><trkpt lat="43.3797467" lon="13.2319517"><ele>361.0</ele><time>2026-03-22T11:21:23.991Z</time></trkpt><trkpt lat="43.3797" lon="13.2321883"><ele>358.3333333333333</ele><time>2026-03-22T11:21:24.99Z</time></trkpt><trkpt lat="43.3796967" lon="13.232455"><ele>355.6666666666667</ele><time>2026-03-22T11:21:25.995Z</time></trkpt><trkpt lat="43.37972" lon="13.2327333"><ele>353.0</ele><time>2026-03-22T11:21:26.991Z</time></trkpt><trkpt lat="43.3797533" lon="13.2330117"><ele>351.0</ele><time>2026-03-22T11:21:27.991Z</time></trkpt><trkpt lat="43.37979" lon="13.233275"><ele>349.0</ele><time>2026-03-22T11:21:28.99Z</time></trkpt><trkpt lat="43.3798083" lon="13.233525"><ele>347.0</ele><time>2026-03-22T11:21:29.996Z</time></trkpt><trkpt lat="43.37979" lon="13.233765"><ele>347.6666666666667</ele><time>2026-03-22T11:21:30.995Z</time></trkpt><trkpt lat="43.3797317" lon="13.234"><ele>348.3333333333333</ele><time>2026-03-22T11:21:31.991Z</time></trkpt><trkpt lat="43.3796267" lon="13.2342367"><ele>349.0</ele><time>2026-03-22T11:21:33Z</time></trkpt><trkpt lat="43.37949" lon="13.2344917"><ele>349.0</ele><time>2026-03-22T11:21:33.991Z</time></trkpt><trkpt lat="43.379345" lon="13.2347583"><ele>349.0</ele><time>2026-03-22T11:21:34.991Z</time></trkpt><trkpt lat="43.379205" lon="13.2350233"><ele>347.0</ele><time>2026-03-22T11:21:35.992Z</time></trkpt><trkpt lat="43.3790817" lon="13.2352833"><ele>345.0</ele><time>2026-03-22T11:21:36.993Z</time></trkpt><trkpt lat="43.3789917" lon="13.2355467"><ele>343.0</ele><time>2026-03-22T11:21:37.994Z</time></trkpt><trkpt lat="43.37894" lon="13.235825"><ele>340.0</ele><time>2026-03-22T11:21:38.994Z</time></trkpt><trkpt lat="43.3789217" lon="13.2361367"><ele>337.0</ele><time>2026-03-22T11:21:39.993Z</time></trkpt><trkpt lat="43.3789083" lon="13.2364633"><ele>334.5</ele><time>2026-03-22T11:21:40.991Z</time></trkpt><trkpt lat="43.3789" lon="13.2367833"><ele>332.0</ele><time>2026-03-22T11:21:41.996Z</time></trkpt><trkpt lat="43.3788833" lon="13.2370933"><ele>328.0</ele><time>2026-03-22T11:21:42.994Z</time></trkpt><trkpt lat="43.3788683" lon="13.2374017"><ele>324.0</ele><time>2026-03-22T11:21:43.993Z</time></trkpt><trkpt lat="43.3788583" lon="13.2377183"><ele>324.0</ele><time>2026-03-22T11:21:44.995Z</time></trkpt><trkpt lat="43.378855" lon="13.2380433"><ele>324.0</ele><time>2026-03-22T11:21:45.993Z</time></trkpt><trkpt lat="43.3788733" lon="13.2383717"><ele>321.5</ele><time>2026-03-22T11:21:47.003Z</time></trkpt><trkpt lat="43.3789083" lon="13.2387"><ele>319.0</ele><time>2026-03-22T11:21:47.993Z</time></trkpt><trkpt lat="43.37895" lon="13.2390167"><ele>318.0</ele><time>2026-03-22T11:21:48.991Z</time></trkpt><trkpt lat="43.3789917" lon="13.2393233"><ele>317.0</ele><time>2026-03-22T11:21:49.992Z</time></trkpt><trkpt lat="43.379035" lon="13.2396117"><ele>316.0</ele><time>2026-03-22T11:21:50.995Z</time></trkpt><trkpt lat="43.379055" lon="13.2398867"><ele>314.0</ele><time>2026-03-22T11:21:51.995Z</time></trkpt><trkpt lat="43.3790583" lon="13.2401483"><ele>312.0</ele><time>2026-03-22T11:21:52.99Z</time></trkpt><trkpt lat="43.3790817" lon="13.2403967"><ele>310.0</ele><time>2026-03-22T11:21:53.991Z</time></trkpt><trkpt lat="43.3791283" lon="13.2406233"><ele>308.0</ele><time>2026-03-22T11:21:54.989Z</time></trkpt><trkpt lat="43.3792317" lon="13.240845"><ele>306.0</ele><time>2026-03-22T11:21:55.992Z</time></trkpt><trkpt lat="43.3793783" lon="13.24108"><ele>304.0</ele><time>2026-03-22T11:21:56.991Z</time></trkpt><trkpt lat="43.3795167" lon="13.2413117"><ele>301.66666666666663</ele><time>2026-03-22T11:21:57.99Z</time></trkpt><trkpt lat="43.3796533" lon="13.2415333"><ele>299.3333333333333</ele><time>2026-03-22T11:21:58.989Z</time></trkpt><trkpt lat="43.3798017" lon="13.2417333"><ele>297.0</ele><time>2026-03-22T11:21:59.992Z</time></trkpt><trkpt lat="43.3799433" lon="13.2419267"><ele>297.0</ele><time>2026-03-22T11:22:00.991Z</time></trkpt><trkpt lat="43.3800683" lon="13.2421267"><ele>297.0</ele><time>2026-03-22T11:22:01.992Z</time></trkpt><trkpt lat="43.3801617" lon="13.242355"><ele>297.0</ele><time>2026-03-22T11:22:02.993Z</time></trkpt><trkpt lat="43.380215" lon="13.24263"><ele>294.0</ele><time>2026-03-22T11:22:03.992Z</time></trkpt><trkpt lat="43.380255" lon="13.2429317"><ele>291.0</ele><time>2026-03-22T11:22:04.993Z</time></trkpt><trkpt lat="43.380295" lon="13.2432467"><ele>285.5</ele><time>2026-03-22T11:22:05.993Z</time></trkpt><trkpt lat="43.38034" lon="13.24356"><ele>280.0</ele><time>2026-03-22T11:22:06.991Z</time></trkpt><trkpt lat="43.3803983" lon="13.2438583"><ele>282.3333333333333</ele><time>2026-03-22T11:22:07.994Z</time></trkpt><trkpt lat="43.3804783" lon="13.2441417"><ele>284.6666666666667</ele><time>2026-03-22T11:22:08.995Z</time></trkpt><trkpt lat="43.3805767" lon="13.2444133"><ele>287.0</ele><time>2026-03-22T11:22:09.991Z</time></trkpt><trkpt lat="43.3806933" lon="13.24466"><ele>283.33333333333337</ele><time>2026-03-22T11:22:10.99Z</time></trkpt><trkpt lat="43.3808117" lon="13.2448883"><ele>279.6666666666667</ele><time>2026-03-22T11:22:11.989Z</time></trkpt><trkpt lat="43.38092" lon="13.2451067"><ele>276.0</ele><time>2026-03-22T11:22:12.994Z</time></trkpt><trkpt lat="43.381025" lon="13.2453133"><ele>276.0</ele><time>2026-03-22T11:22:13.992Z</time></trkpt><trkpt lat="43.381115" lon="13.2454983"><ele>276.0</ele><time>2026-03-22T11:22:14.991Z</time></trkpt><trkpt lat="43.38119" lon="13.2456717"><ele>276.0</ele><time>2026-03-22T11:22:15.993Z</time></trkpt><trkpt lat="43.3812483" lon="13.245825"><ele>276.0</ele><time>2026-03-22T11:22:16.991Z</time></trkpt><trkpt lat="43.3812617" lon="13.24597"><ele>274.6</ele><time>2026-03-22T11:22:17.993Z</time></trkpt><trkpt lat="43.381245" lon="13.246085"><ele>273.20000000000005</ele><time>2026-03-22T11:22:18.988Z</time></trkpt><trkpt lat="43.3811817" lon="13.2461467"><ele>271.79999999999995</ele><time>2026-03-22T11:22:19.992Z</time></trkpt><trkpt lat="43.3811017" lon="13.2461617"><ele>270.4</ele><time>2026-03-22T11:22:20.995Z</time></trkpt><trkpt lat="43.3809783" lon="13.2461017"><ele>269.0</ele><time>2026-03-22T11:22:21.995Z</time></trkpt><trkpt lat="43.3808233" lon="13.2459983"><ele>269.0</ele><time>2026-03-22T11:22:22.99Z</time></trkpt><trkpt lat="43.3806533" lon="13.2458833"><ele>269.0</ele><time>2026-03-22T11:22:23.99Z</time></trkpt><trkpt lat="43.3804717" lon="13.2457583"><ele>269.0</ele><time>2026-03-22T11:22:24.993Z</time></trkpt><trkpt lat="43.3802933" lon="13.2456317"><ele>267.0</ele><time>2026-03-22T11:22:25.995Z</time></trkpt><trkpt lat="43.3801183" lon="13.2455217"><ele>265.0</ele><time>2026-03-22T11:22:26.994Z</time></trkpt><trkpt lat="43.3799467" lon="13.24544"><ele>263.0</ele><time>2026-03-22T11:22:27.994Z</time></trkpt><trkpt lat="43.3797783" lon="13.2453867"><ele>259.75</ele><time>2026-03-22T11:22:28.993Z</time></trkpt><trkpt lat="43.37962" lon="13.2453833"><ele>256.5</ele><time>2026-03-22T11:22:29.989Z</time></trkpt><trkpt lat="43.37948" lon="13.2454417"><ele>253.25</ele><time>2026-03-22T11:22:30.989Z</time></trkpt><trkpt lat="43.3793617" lon="13.2455483"><ele>250.0</ele><time>2026-03-22T11:22:31.994Z</time></trkpt><trkpt lat="43.3792917" lon="13.245695"><ele>250.0</ele><time>2026-03-22T11:22:32.996Z</time></trkpt><trkpt lat="43.3792733" lon="13.2458633"><ele>250.0</ele><time>2026-03-22T11:22:33.99Z</time></trkpt><trkpt lat="43.3793133" lon="13.2460633"><ele>250.0</ele><time>2026-03-22T11:22:34.996Z</time></trkpt><trkpt lat="43.3794033" lon="13.2462667"><ele>250.0</ele><time>2026-03-22T11:22:35.994Z</time></trkpt><trkpt lat="43.3795017" lon="13.246475"><ele>248.33333333333331</ele><time>2026-03-22T11:22:36.991Z</time></trkpt><trkpt lat="43.3795717" lon="13.2466883"><ele>246.66666666666669</ele><time>2026-03-22T11:22:37.992Z</time></trkpt><trkpt lat="43.3795933" lon="13.246915"><ele>245.0</ele><time>2026-03-22T11:22:38.996Z</time></trkpt><trkpt lat="43.3795767" lon="13.2471667"><ele>243.66666666666669</ele><time>2026-03-22T11:22:39.992Z</time></trkpt><trkpt lat="43.3795433" lon="13.2474133"><ele>242.33333333333331</ele><time>2026-03-22T11:22:40.992Z</time></trkpt><trkpt lat="43.3795" lon="13.24765"><ele>241.0</ele><time>2026-03-22T11:22:41.99Z</time></trkpt><trkpt lat="43.3794367" lon="13.2478717"><ele>241.0</ele><time>2026-03-22T11:22:42.992Z</time></trkpt><trkpt lat="43.3793517" lon="13.248075"><ele>241.0</ele><time>2026-03-22T11:22:43.995Z</time></trkpt><trkpt lat="43.3792583" lon="13.2482633"><ele>241.0</ele><time>2026-03-22T11:22:44.995Z</time></trkpt><trkpt lat="43.3791867" lon="13.24845"><ele>240.66666666666666</ele><time>2026-03-22T11:22:45.993Z</time></trkpt><trkpt lat="43.37915" lon="13.248655"><ele>240.33333333333331</ele><time>2026-03-22T11:22:46.987Z</time></trkpt><trkpt lat="43.3791783" lon="13.2488733"><ele>240.0</ele><time>2026-03-22T11:22:47.992Z</time></trkpt><trkpt lat="43.3792717" lon="13.249105"><ele>239.66666666666669</ele><time>2026-03-22T11:22:48.993Z</time></trkpt><trkpt lat="43.3793717" lon="13.2493633"><ele>239.33333333333334</ele><time>2026-03-22T11:22:49.991Z</time></trkpt><trkpt lat="43.37945" lon="13.2496383"><ele>239.0</ele><time>2026-03-22T11:22:50.991Z</time></trkpt><trkpt lat="43.3794883" lon="13.2499183"><ele>238.66666666666669</ele><time>2026-03-22T11:22:51.991Z</time></trkpt><trkpt lat="43.37948" lon="13.250205"><ele>238.33333333333331</ele><time>2026-03-22T11:22:52.991Z</time></trkpt><trkpt lat="43.37943" lon="13.2505117"><ele>238.0</ele><time>2026-03-22T11:22:53.993Z</time></trkpt><trkpt lat="43.3793567" lon="13.25085"><ele>235.0</ele><time>2026-03-22T11:22:54.992Z</time></trkpt><trkpt lat="43.3792817" lon="13.2511983"><ele>232.0</ele><time>2026-03-22T11:22:55.989Z</time></trkpt><trkpt lat="43.37923" lon="13.2515617"><ele>232.0</ele><time>2026-03-22T11:22:56.994Z</time></trkpt><trkpt lat="43.379195" lon="13.2519367"><ele>232.0</ele><time>2026-03-22T11:22:57.991Z</time></trkpt><trkpt lat="43.3791617" lon="13.2523033"><ele>233.5</ele><time>2026-03-22T11:22:58.992Z</time></trkpt><trkpt lat="43.37913" lon="13.2526367"><ele>235.0</ele><time>2026-03-22T11:22:59.992Z</time></trkpt><trkpt lat="43.3791083" lon="13.2529467"><ele>236.33333333333331</ele><time>2026-03-22T11:23:00.993Z</time></trkpt><trkpt lat="43.379075" lon="13.2532283"><ele>237.66666666666669</ele><time>2026-03-22T11:23:01.993Z</time></trkpt><trkpt lat="43.379015" lon="13.253475"><ele>239.0</ele><time>2026-03-22T11:23:03.006Z</time></trkpt><trkpt lat="43.37894" lon="13.2536817"><ele>240.25</ele><time>2026-03-22T11:23:03.994Z</time></trkpt><trkpt lat="43.3788433" lon="13.253845"><ele>241.5</ele><time>2026-03-22T11:23:04.993Z</time></trkpt><trkpt lat="43.378755" lon="13.2539867"><ele>242.75</ele><time>2026-03-22T11:23:05.991Z</time></trkpt><trkpt lat="43.3786767" lon="13.2541183"><ele>244.0</ele><time>2026-03-22T11:23:06.989Z</time></trkpt><trkpt lat="43.3786067" lon="13.2542283"><ele>243.99999999999997</ele><time>2026-03-22T11:23:07.99Z</time></trkpt><trkpt lat="43.378545" lon="13.25432"><ele>244.0</ele><time>2026-03-22T11:23:08.991Z</time></trkpt><trkpt lat="43.3784917" lon="13.2544017"><ele>244.0</ele><time>2026-03-22T11:23:09.991Z</time></trkpt><trkpt lat="43.37844" lon="13.2544533"><ele>244.0</ele><time>2026-03-22T11:23:10.992Z</time></trkpt><trkpt lat="43.37836" lon="13.2544617"><ele>243.99999999999997</ele><time>2026-03-22T11:23:12.992Z</time></trkpt><trkpt lat="43.37827" lon="13.25438"><ele>244.0</ele><time>2026-03-22T11:23:14.995Z</time></trkpt><trkpt lat="43.37822" lon="13.2543083"><ele>244.0</ele><time>2026-03-22T11:23:15.991Z</time></trkpt><trkpt lat="43.37818" lon="13.254235"><ele>243.99999999999997</ele><time>2026-03-22T11:23:16.991Z</time></trkpt><trkpt lat="43.3781533" lon="13.2541017"><ele>243.99999999999997</ele><time>2026-03-22T11:23:18.99Z</time></trkpt><trkpt lat="43.3781983" lon="13.2539467"><ele>244.0</ele><time>2026-03-22T11:23:20.993Z</time></trkpt><trkpt lat="43.3782517" lon="13.2538617"><ele>244.0</ele><time>2026-03-22T11:23:21.992Z</time></trkpt><trkpt lat="43.3783283" lon="13.253745"><ele>244.75</ele><time>2026-03-22T11:23:22.991Z</time></trkpt><trkpt lat="43.3784417" lon="13.25359"><ele>245.5</ele><time>2026-03-22T11:23:23.994Z</time></trkpt><trkpt lat="43.3785333" lon="13.253455"><ele>246.25</ele><time>2026-03-22T11:23:24.991Z</time></trkpt><trkpt lat="43.3786017" lon="13.2533317"><ele>247.0</ele><time>2026-03-22T11:23:25.993Z</time></trkpt><trkpt lat="43.3786583" lon="13.2532133"><ele>246.99999999999997</ele><time>2026-03-22T11:23:26.995Z</time></trkpt><trkpt lat="43.3786917" lon="13.2531033"><ele>247.0</ele><time>2026-03-22T11:23:27.993Z</time></trkpt><trkpt lat="43.37871" lon="13.253"><ele>247.0</ele><time>2026-03-22T11:23:28.991Z</time></trkpt><trkpt lat="43.37871" lon="13.2529083"><ele>247.0</ele><time>2026-03-22T11:23:29.994Z</time></trkpt><trkpt lat="43.3787" lon="13.2527533"><ele>246.99999999999997</ele><time>2026-03-22T11:23:31.99Z</time></trkpt><trkpt lat="43.3787667" lon="13.25268"><ele>247.0</ele><time>2026-03-22T11:23:34.99Z</time></trkpt><trkpt lat="43.37885" lon="13.2526933"><ele>247.0</ele><time>2026-03-22T11:23:37.993Z</time></trkpt></trkseg></trk></gpx>